<?xml version="1.0" encoding="UTF-8" standalone="no" ?>
<gpx xmlns="http://www.topografix.com/GPX/1/1" xmlns:xsi="http://www.w3.org/2001/XMLSchema-instance" xsi:schemaLocation="http://www.topografix.com/GPX/1/1 http://www.topografix.com/GPX/1/1/gpx.xsd" version="1.1" creator="VisuGPX - https://www.visugpx.com">
  <metadata>
    <name>Roc trespoux 2019</name>
    <desc><![CDATA[roc trespoux 2019. ]]></desc>
  </metadata>
  <trk>
    <name><![CDATA[2019-04-14-07-08-02 on GPSies.com]]></name>
    <trkseg>
      <trkpt lat="44.41475" lon="1.37714">
        <ele>297</ele>
        <time>2019-04-14T08:09:16Z</time>
      </trkpt>
      <trkpt lat="44.41475" lon="1.3771">
        <ele>297</ele>
        <time>2019-04-14T08:09:17Z</time>
      </trkpt>
      <trkpt lat="44.41475" lon="1.37708">
        <ele>297</ele>
        <time>2019-04-14T08:09:18Z</time>
      </trkpt>
      <trkpt lat="44.41475" lon="1.37703">
        <ele>297</ele>
        <time>2019-04-14T08:09:19Z</time>
      </trkpt>
      <trkpt lat="44.41475" lon="1.377">
        <ele>298</ele>
        <time>2019-04-14T08:09:20Z</time>
      </trkpt>
      <trkpt lat="44.41475" lon="1.37696">
        <ele>298</ele>
        <time>2019-04-14T08:09:21Z</time>
      </trkpt>
      <trkpt lat="44.41475" lon="1.37693">
        <ele>298</ele>
        <time>2019-04-14T08:09:22Z</time>
      </trkpt>
      <trkpt lat="44.41475" lon="1.37689">
        <ele>298</ele>
        <time>2019-04-14T08:09:23Z</time>
      </trkpt>
      <trkpt lat="44.41475" lon="1.37686">
        <ele>298</ele>
        <time>2019-04-14T08:09:24Z</time>
      </trkpt>
      <trkpt lat="44.41474" lon="1.37683">
        <ele>299</ele>
        <time>2019-04-14T08:09:25Z</time>
      </trkpt>
      <trkpt lat="44.41474" lon="1.37679">
        <ele>299</ele>
        <time>2019-04-14T08:09:26Z</time>
      </trkpt>
      <trkpt lat="44.41474" lon="1.37676">
        <ele>299</ele>
        <time>2019-04-14T08:09:27Z</time>
      </trkpt>
      <trkpt lat="44.41474" lon="1.37672">
        <ele>299</ele>
        <time>2019-04-14T08:09:28Z</time>
      </trkpt>
      <trkpt lat="44.41474" lon="1.37669">
        <ele>300</ele>
        <time>2019-04-14T08:09:29Z</time>
      </trkpt>
      <trkpt lat="44.41474" lon="1.37666">
        <ele>300</ele>
        <time>2019-04-14T08:09:30Z</time>
      </trkpt>
      <trkpt lat="44.41474" lon="1.37662">
        <ele>300</ele>
        <time>2019-04-14T08:09:31Z</time>
      </trkpt>
      <trkpt lat="44.41474" lon="1.37659">
        <ele>300</ele>
        <time>2019-04-14T08:09:32Z</time>
      </trkpt>
      <trkpt lat="44.41473" lon="1.37656">
        <ele>300</ele>
        <time>2019-04-14T08:09:33Z</time>
      </trkpt>
      <trkpt lat="44.41473" lon="1.37653">
        <ele>300</ele>
        <time>2019-04-14T08:09:34Z</time>
      </trkpt>
      <trkpt lat="44.41473" lon="1.3765">
        <ele>301</ele>
        <time>2019-04-14T08:09:35Z</time>
      </trkpt>
      <trkpt lat="44.41473" lon="1.37646">
        <ele>301</ele>
        <time>2019-04-14T08:09:36Z</time>
      </trkpt>
      <trkpt lat="44.41473" lon="1.37643">
        <ele>301</ele>
        <time>2019-04-14T08:09:37Z</time>
      </trkpt>
      <trkpt lat="44.41472" lon="1.3764">
        <ele>301</ele>
        <time>2019-04-14T08:09:38Z</time>
      </trkpt>
      <trkpt lat="44.41472" lon="1.37637">
        <ele>301</ele>
        <time>2019-04-14T08:09:39Z</time>
      </trkpt>
      <trkpt lat="44.41472" lon="1.37634">
        <ele>301</ele>
        <time>2019-04-14T08:09:40Z</time>
      </trkpt>
      <trkpt lat="44.41472" lon="1.37631">
        <ele>302</ele>
        <time>2019-04-14T08:09:41Z</time>
      </trkpt>
      <trkpt lat="44.41472" lon="1.37628">
        <ele>302</ele>
        <time>2019-04-14T08:09:42Z</time>
      </trkpt>
      <trkpt lat="44.41472" lon="1.37625">
        <ele>302</ele>
        <time>2019-04-14T08:09:43Z</time>
      </trkpt>
      <trkpt lat="44.41471" lon="1.37622">
        <ele>302</ele>
        <time>2019-04-14T08:09:44Z</time>
      </trkpt>
      <trkpt lat="44.41471" lon="1.37619">
        <ele>303</ele>
        <time>2019-04-14T08:09:45Z</time>
      </trkpt>
      <trkpt lat="44.41471" lon="1.37616">
        <ele>303</ele>
        <time>2019-04-14T08:09:46Z</time>
      </trkpt>
      <trkpt lat="44.41471" lon="1.37613">
        <ele>303</ele>
        <time>2019-04-14T08:09:47Z</time>
      </trkpt>
      <trkpt lat="44.41471" lon="1.3761">
        <ele>303</ele>
        <time>2019-04-14T08:09:48Z</time>
      </trkpt>
      <trkpt lat="44.4147" lon="1.37607">
        <ele>304</ele>
        <time>2019-04-14T08:09:49Z</time>
      </trkpt>
      <trkpt lat="44.4147" lon="1.37604">
        <ele>304</ele>
        <time>2019-04-14T08:09:50Z</time>
      </trkpt>
      <trkpt lat="44.4147" lon="1.37601">
        <ele>304</ele>
        <time>2019-04-14T08:09:51Z</time>
      </trkpt>
      <trkpt lat="44.4147" lon="1.37598">
        <ele>304</ele>
        <time>2019-04-14T08:09:52Z</time>
      </trkpt>
      <trkpt lat="44.41469" lon="1.37595">
        <ele>304</ele>
        <time>2019-04-14T08:09:53Z</time>
      </trkpt>
      <trkpt lat="44.41469" lon="1.37592">
        <ele>305</ele>
        <time>2019-04-14T08:09:54Z</time>
      </trkpt>
      <trkpt lat="44.41468" lon="1.37589">
        <ele>305</ele>
        <time>2019-04-14T08:09:55Z</time>
      </trkpt>
      <trkpt lat="44.41468" lon="1.37586">
        <ele>305</ele>
        <time>2019-04-14T08:09:56Z</time>
      </trkpt>
      <trkpt lat="44.41467" lon="1.37583">
        <ele>305</ele>
        <time>2019-04-14T08:09:57Z</time>
      </trkpt>
      <trkpt lat="44.41467" lon="1.37581">
        <ele>305</ele>
        <time>2019-04-14T08:09:58Z</time>
      </trkpt>
      <trkpt lat="44.41466" lon="1.37578">
        <ele>306</ele>
        <time>2019-04-14T08:09:59Z</time>
      </trkpt>
      <trkpt lat="44.41466" lon="1.37575">
        <ele>306</ele>
        <time>2019-04-14T08:10:00Z</time>
      </trkpt>
      <trkpt lat="44.41465" lon="1.37571">
        <ele>306</ele>
        <time>2019-04-14T08:10:01Z</time>
      </trkpt>
      <trkpt lat="44.41464" lon="1.37568">
        <ele>306</ele>
        <time>2019-04-14T08:10:02Z</time>
      </trkpt>
      <trkpt lat="44.41463" lon="1.37565">
        <ele>306</ele>
        <time>2019-04-14T08:10:03Z</time>
      </trkpt>
      <trkpt lat="44.41463" lon="1.37562">
        <ele>306</ele>
        <time>2019-04-14T08:10:04Z</time>
      </trkpt>
      <trkpt lat="44.41462" lon="1.37559">
        <ele>307</ele>
        <time>2019-04-14T08:10:05Z</time>
      </trkpt>
      <trkpt lat="44.41461" lon="1.37556">
        <ele>307</ele>
        <time>2019-04-14T08:10:06Z</time>
      </trkpt>
      <trkpt lat="44.4146" lon="1.37552">
        <ele>307</ele>
        <time>2019-04-14T08:10:07Z</time>
      </trkpt>
      <trkpt lat="44.4146" lon="1.37549">
        <ele>307</ele>
        <time>2019-04-14T08:10:08Z</time>
      </trkpt>
      <trkpt lat="44.41459" lon="1.37546">
        <ele>307</ele>
        <time>2019-04-14T08:10:09Z</time>
      </trkpt>
      <trkpt lat="44.41458" lon="1.37543">
        <ele>307</ele>
        <time>2019-04-14T08:10:10Z</time>
      </trkpt>
      <trkpt lat="44.41457" lon="1.3754">
        <ele>307</ele>
        <time>2019-04-14T08:10:11Z</time>
      </trkpt>
      <trkpt lat="44.41456" lon="1.37537">
        <ele>308</ele>
        <time>2019-04-14T08:10:12Z</time>
      </trkpt>
      <trkpt lat="44.41455" lon="1.37535">
        <ele>308</ele>
        <time>2019-04-14T08:10:13Z</time>
      </trkpt>
      <trkpt lat="44.41454" lon="1.37532">
        <ele>308</ele>
        <time>2019-04-14T08:10:14Z</time>
      </trkpt>
      <trkpt lat="44.41454" lon="1.37529">
        <ele>308</ele>
        <time>2019-04-14T08:10:15Z</time>
      </trkpt>
      <trkpt lat="44.41453" lon="1.37526">
        <ele>308</ele>
        <time>2019-04-14T08:10:16Z</time>
      </trkpt>
      <trkpt lat="44.41452" lon="1.37523">
        <ele>308</ele>
        <time>2019-04-14T08:10:17Z</time>
      </trkpt>
      <trkpt lat="44.41452" lon="1.3752">
        <ele>308</ele>
        <time>2019-04-14T08:10:18Z</time>
      </trkpt>
      <trkpt lat="44.41451" lon="1.37516">
        <ele>308</ele>
        <time>2019-04-14T08:10:19Z</time>
      </trkpt>
      <trkpt lat="44.41451" lon="1.37512">
        <ele>308</ele>
        <time>2019-04-14T08:10:20Z</time>
      </trkpt>
      <trkpt lat="44.41451" lon="1.37509">
        <ele>308</ele>
        <time>2019-04-14T08:10:21Z</time>
      </trkpt>
      <trkpt lat="44.4145" lon="1.37505">
        <ele>309</ele>
        <time>2019-04-14T08:10:22Z</time>
      </trkpt>
      <trkpt lat="44.41449" lon="1.37501">
        <ele>309</ele>
        <time>2019-04-14T08:10:23Z</time>
      </trkpt>
      <trkpt lat="44.41449" lon="1.37497">
        <ele>309</ele>
        <time>2019-04-14T08:10:24Z</time>
      </trkpt>
      <trkpt lat="44.41448" lon="1.37494">
        <ele>309</ele>
        <time>2019-04-14T08:10:25Z</time>
      </trkpt>
      <trkpt lat="44.41448" lon="1.3749">
        <ele>309</ele>
        <time>2019-04-14T08:10:26Z</time>
      </trkpt>
      <trkpt lat="44.41447" lon="1.37486">
        <ele>309</ele>
        <time>2019-04-14T08:10:27Z</time>
      </trkpt>
      <trkpt lat="44.41446" lon="1.37483">
        <ele>309</ele>
        <time>2019-04-14T08:10:28Z</time>
      </trkpt>
      <trkpt lat="44.41445" lon="1.37479">
        <ele>309</ele>
        <time>2019-04-14T08:10:29Z</time>
      </trkpt>
      <trkpt lat="44.41445" lon="1.37476">
        <ele>310</ele>
        <time>2019-04-14T08:10:30Z</time>
      </trkpt>
      <trkpt lat="44.41444" lon="1.37472">
        <ele>310</ele>
        <time>2019-04-14T08:10:31Z</time>
      </trkpt>
      <trkpt lat="44.41444" lon="1.37468">
        <ele>310</ele>
        <time>2019-04-14T08:10:32Z</time>
      </trkpt>
      <trkpt lat="44.41444" lon="1.37465">
        <ele>310</ele>
        <time>2019-04-14T08:10:33Z</time>
      </trkpt>
      <trkpt lat="44.41443" lon="1.37462">
        <ele>310</ele>
        <time>2019-04-14T08:10:34Z</time>
      </trkpt>
      <trkpt lat="44.41443" lon="1.37459">
        <ele>310</ele>
        <time>2019-04-14T08:10:35Z</time>
      </trkpt>
      <trkpt lat="44.41442" lon="1.37456">
        <ele>310</ele>
        <time>2019-04-14T08:10:36Z</time>
      </trkpt>
      <trkpt lat="44.41442" lon="1.37453">
        <ele>311</ele>
        <time>2019-04-14T08:10:37Z</time>
      </trkpt>
      <trkpt lat="44.41441" lon="1.37449">
        <ele>311</ele>
        <time>2019-04-14T08:10:38Z</time>
      </trkpt>
      <trkpt lat="44.41441" lon="1.37446">
        <ele>311</ele>
        <time>2019-04-14T08:10:39Z</time>
      </trkpt>
      <trkpt lat="44.4144" lon="1.37443">
        <ele>311</ele>
        <time>2019-04-14T08:10:40Z</time>
      </trkpt>
      <trkpt lat="44.4144" lon="1.37439">
        <ele>311</ele>
        <time>2019-04-14T08:10:41Z</time>
      </trkpt>
      <trkpt lat="44.41439" lon="1.37436">
        <ele>311</ele>
        <time>2019-04-14T08:10:42Z</time>
      </trkpt>
      <trkpt lat="44.41439" lon="1.37433">
        <ele>311</ele>
        <time>2019-04-14T08:10:43Z</time>
      </trkpt>
      <trkpt lat="44.41438" lon="1.3743">
        <ele>311</ele>
        <time>2019-04-14T08:10:44Z</time>
      </trkpt>
      <trkpt lat="44.41438" lon="1.37426">
        <ele>312</ele>
        <time>2019-04-14T08:10:45Z</time>
      </trkpt>
      <trkpt lat="44.41437" lon="1.37423">
        <ele>312</ele>
        <time>2019-04-14T08:10:46Z</time>
      </trkpt>
      <trkpt lat="44.41437" lon="1.3742">
        <ele>312</ele>
        <time>2019-04-14T08:10:47Z</time>
      </trkpt>
      <trkpt lat="44.41436" lon="1.37417">
        <ele>312</ele>
        <time>2019-04-14T08:10:48Z</time>
      </trkpt>
      <trkpt lat="44.41436" lon="1.37414">
        <ele>312</ele>
        <time>2019-04-14T08:10:49Z</time>
      </trkpt>
      <trkpt lat="44.41436" lon="1.37411">
        <ele>312</ele>
        <time>2019-04-14T08:10:50Z</time>
      </trkpt>
      <trkpt lat="44.41435" lon="1.37408">
        <ele>312</ele>
        <time>2019-04-14T08:10:51Z</time>
      </trkpt>
      <trkpt lat="44.41434" lon="1.37405">
        <ele>313</ele>
        <time>2019-04-14T08:10:52Z</time>
      </trkpt>
      <trkpt lat="44.41434" lon="1.37401">
        <ele>313</ele>
        <time>2019-04-14T08:10:53Z</time>
      </trkpt>
      <trkpt lat="44.41433" lon="1.37398">
        <ele>313</ele>
        <time>2019-04-14T08:10:54Z</time>
      </trkpt>
      <trkpt lat="44.41433" lon="1.37395">
        <ele>313</ele>
        <time>2019-04-14T08:10:55Z</time>
      </trkpt>
      <trkpt lat="44.41432" lon="1.37392">
        <ele>313</ele>
        <time>2019-04-14T08:10:56Z</time>
      </trkpt>
      <trkpt lat="44.41431" lon="1.37389">
        <ele>313</ele>
        <time>2019-04-14T08:10:57Z</time>
      </trkpt>
      <trkpt lat="44.41431" lon="1.37386">
        <ele>313</ele>
        <time>2019-04-14T08:10:58Z</time>
      </trkpt>
      <trkpt lat="44.4143" lon="1.37383">
        <ele>314</ele>
        <time>2019-04-14T08:10:59Z</time>
      </trkpt>
      <trkpt lat="44.4143" lon="1.37379">
        <ele>314</ele>
        <time>2019-04-14T08:11:00Z</time>
      </trkpt>
      <trkpt lat="44.41429" lon="1.37376">
        <ele>314</ele>
        <time>2019-04-14T08:11:01Z</time>
      </trkpt>
      <trkpt lat="44.41429" lon="1.37373">
        <ele>314</ele>
        <time>2019-04-14T08:11:02Z</time>
      </trkpt>
      <trkpt lat="44.41428" lon="1.3737">
        <ele>314</ele>
        <time>2019-04-14T08:11:03Z</time>
      </trkpt>
      <trkpt lat="44.41428" lon="1.37367">
        <ele>314</ele>
        <time>2019-04-14T08:11:04Z</time>
      </trkpt>
      <trkpt lat="44.41427" lon="1.37363">
        <ele>314</ele>
        <time>2019-04-14T08:11:05Z</time>
      </trkpt>
      <trkpt lat="44.41426" lon="1.3736">
        <ele>314</ele>
        <time>2019-04-14T08:11:06Z</time>
      </trkpt>
      <trkpt lat="44.41426" lon="1.37357">
        <ele>315</ele>
        <time>2019-04-14T08:11:07Z</time>
      </trkpt>
      <trkpt lat="44.41426" lon="1.37353">
        <ele>315</ele>
        <time>2019-04-14T08:11:08Z</time>
      </trkpt>
      <trkpt lat="44.41425" lon="1.3735">
        <ele>315</ele>
        <time>2019-04-14T08:11:09Z</time>
      </trkpt>
      <trkpt lat="44.41424" lon="1.37347">
        <ele>315</ele>
        <time>2019-04-14T08:11:10Z</time>
      </trkpt>
      <trkpt lat="44.41424" lon="1.37344">
        <ele>315</ele>
        <time>2019-04-14T08:11:11Z</time>
      </trkpt>
      <trkpt lat="44.41423" lon="1.3734">
        <ele>315</ele>
        <time>2019-04-14T08:11:12Z</time>
      </trkpt>
      <trkpt lat="44.41423" lon="1.37337">
        <ele>315</ele>
        <time>2019-04-14T08:11:13Z</time>
      </trkpt>
      <trkpt lat="44.41422" lon="1.37334">
        <ele>316</ele>
        <time>2019-04-14T08:11:14Z</time>
      </trkpt>
      <trkpt lat="44.41422" lon="1.37331">
        <ele>316</ele>
        <time>2019-04-14T08:11:15Z</time>
      </trkpt>
      <trkpt lat="44.41421" lon="1.37327">
        <ele>316</ele>
        <time>2019-04-14T08:11:16Z</time>
      </trkpt>
      <trkpt lat="44.41421" lon="1.37324">
        <ele>316</ele>
        <time>2019-04-14T08:11:17Z</time>
      </trkpt>
      <trkpt lat="44.4142" lon="1.37321">
        <ele>316</ele>
        <time>2019-04-14T08:11:18Z</time>
      </trkpt>
      <trkpt lat="44.41419" lon="1.37318">
        <ele>316</ele>
        <time>2019-04-14T08:11:19Z</time>
      </trkpt>
      <trkpt lat="44.41419" lon="1.37315">
        <ele>316</ele>
        <time>2019-04-14T08:11:20Z</time>
      </trkpt>
      <trkpt lat="44.41418" lon="1.37311">
        <ele>316</ele>
        <time>2019-04-14T08:11:21Z</time>
      </trkpt>
      <trkpt lat="44.41418" lon="1.37308">
        <ele>317</ele>
        <time>2019-04-14T08:11:22Z</time>
      </trkpt>
      <trkpt lat="44.41417" lon="1.37305">
        <ele>317</ele>
        <time>2019-04-14T08:11:23Z</time>
      </trkpt>
      <trkpt lat="44.41417" lon="1.37301">
        <ele>317</ele>
        <time>2019-04-14T08:11:24Z</time>
      </trkpt>
      <trkpt lat="44.41416" lon="1.37298">
        <ele>317</ele>
        <time>2019-04-14T08:11:25Z</time>
      </trkpt>
      <trkpt lat="44.41416" lon="1.37295">
        <ele>317</ele>
        <time>2019-04-14T08:11:26Z</time>
      </trkpt>
      <trkpt lat="44.41415" lon="1.37291">
        <ele>317</ele>
        <time>2019-04-14T08:11:27Z</time>
      </trkpt>
      <trkpt lat="44.41414" lon="1.37288">
        <ele>317</ele>
        <time>2019-04-14T08:11:28Z</time>
      </trkpt>
      <trkpt lat="44.41414" lon="1.37284">
        <ele>317</ele>
        <time>2019-04-14T08:11:29Z</time>
      </trkpt>
      <trkpt lat="44.41413" lon="1.37281">
        <ele>318</ele>
        <time>2019-04-14T08:11:30Z</time>
      </trkpt>
      <trkpt lat="44.41413" lon="1.37277">
        <ele>318</ele>
        <time>2019-04-14T08:11:31Z</time>
      </trkpt>
      <trkpt lat="44.41412" lon="1.37274">
        <ele>318</ele>
        <time>2019-04-14T08:11:32Z</time>
      </trkpt>
      <trkpt lat="44.41412" lon="1.37271">
        <ele>318</ele>
        <time>2019-04-14T08:11:33Z</time>
      </trkpt>
      <trkpt lat="44.41411" lon="1.37267">
        <ele>318</ele>
        <time>2019-04-14T08:11:34Z</time>
      </trkpt>
      <trkpt lat="44.41411" lon="1.37264">
        <ele>318</ele>
        <time>2019-04-14T08:11:35Z</time>
      </trkpt>
      <trkpt lat="44.4141" lon="1.37261">
        <ele>318</ele>
        <time>2019-04-14T08:11:36Z</time>
      </trkpt>
      <trkpt lat="44.4141" lon="1.37257">
        <ele>318</ele>
        <time>2019-04-14T08:11:37Z</time>
      </trkpt>
      <trkpt lat="44.41409" lon="1.37254">
        <ele>318</ele>
        <time>2019-04-14T08:11:38Z</time>
      </trkpt>
      <trkpt lat="44.41409" lon="1.3725">
        <ele>318</ele>
        <time>2019-04-14T08:11:39Z</time>
      </trkpt>
      <trkpt lat="44.41408" lon="1.37247">
        <ele>318</ele>
        <time>2019-04-14T08:11:40Z</time>
      </trkpt>
      <trkpt lat="44.41408" lon="1.37244">
        <ele>318</ele>
        <time>2019-04-14T08:11:41Z</time>
      </trkpt>
      <trkpt lat="44.41407" lon="1.3724">
        <ele>319</ele>
        <time>2019-04-14T08:11:42Z</time>
      </trkpt>
      <trkpt lat="44.41407" lon="1.37237">
        <ele>319</ele>
        <time>2019-04-14T08:11:43Z</time>
      </trkpt>
      <trkpt lat="44.41407" lon="1.37234">
        <ele>319</ele>
        <time>2019-04-14T08:11:44Z</time>
      </trkpt>
      <trkpt lat="44.41406" lon="1.37231">
        <ele>319</ele>
        <time>2019-04-14T08:11:45Z</time>
      </trkpt>
      <trkpt lat="44.41406" lon="1.37228">
        <ele>319</ele>
        <time>2019-04-14T08:11:46Z</time>
      </trkpt>
      <trkpt lat="44.41406" lon="1.37226">
        <ele>319</ele>
        <time>2019-04-14T08:11:47Z</time>
      </trkpt>
      <trkpt lat="44.41406" lon="1.37224">
        <ele>319</ele>
        <time>2019-04-14T08:11:48Z</time>
      </trkpt>
      <trkpt lat="44.41405" lon="1.37221">
        <ele>319</ele>
        <time>2019-04-14T08:11:49Z</time>
      </trkpt>
      <trkpt lat="44.41406" lon="1.37219">
        <ele>319</ele>
        <time>2019-04-14T08:11:50Z</time>
      </trkpt>
      <trkpt lat="44.41407" lon="1.37216">
        <ele>319</ele>
        <time>2019-04-14T08:11:51Z</time>
      </trkpt>
      <trkpt lat="44.41408" lon="1.37214">
        <ele>319</ele>
        <time>2019-04-14T08:11:52Z</time>
      </trkpt>
      <trkpt lat="44.4141" lon="1.37213">
        <ele>319</ele>
        <time>2019-04-14T08:11:53Z</time>
      </trkpt>
      <trkpt lat="44.41412" lon="1.37212">
        <ele>319</ele>
        <time>2019-04-14T08:11:54Z</time>
      </trkpt>
      <trkpt lat="44.41414" lon="1.37211">
        <ele>320</ele>
        <time>2019-04-14T08:11:55Z</time>
      </trkpt>
      <trkpt lat="44.41416" lon="1.3721">
        <ele>320</ele>
        <time>2019-04-14T08:11:56Z</time>
      </trkpt>
      <trkpt lat="44.41417" lon="1.3721">
        <ele>320</ele>
        <time>2019-04-14T08:11:57Z</time>
      </trkpt>
      <trkpt lat="44.41419" lon="1.37209">
        <ele>320</ele>
        <time>2019-04-14T08:11:58Z</time>
      </trkpt>
      <trkpt lat="44.4142" lon="1.37208">
        <ele>320</ele>
        <time>2019-04-14T08:11:59Z</time>
      </trkpt>
      <trkpt lat="44.41421" lon="1.37208">
        <ele>320</ele>
        <time>2019-04-14T08:12:00Z</time>
      </trkpt>
      <trkpt lat="44.41422" lon="1.37207">
        <ele>320</ele>
        <time>2019-04-14T08:12:01Z</time>
      </trkpt>
      <trkpt lat="44.41423" lon="1.37206">
        <ele>320</ele>
        <time>2019-04-14T08:12:02Z</time>
      </trkpt>
      <trkpt lat="44.41424" lon="1.37206">
        <ele>320</ele>
        <time>2019-04-14T08:12:03Z</time>
      </trkpt>
      <trkpt lat="44.41425" lon="1.37205">
        <ele>320</ele>
        <time>2019-04-14T08:12:04Z</time>
      </trkpt>
      <trkpt lat="44.41426" lon="1.37204">
        <ele>320</ele>
        <time>2019-04-14T08:12:05Z</time>
      </trkpt>
      <trkpt lat="44.41427" lon="1.37204">
        <ele>320</ele>
        <time>2019-04-14T08:12:06Z</time>
      </trkpt>
      <trkpt lat="44.41427" lon="1.37204">
        <ele>320</ele>
        <time>2019-04-14T08:12:07Z</time>
      </trkpt>
      <trkpt lat="44.41428" lon="1.37204">
        <ele>320</ele>
        <time>2019-04-14T08:12:08Z</time>
      </trkpt>
      <trkpt lat="44.41429" lon="1.37203">
        <ele>320</ele>
        <time>2019-04-14T08:12:09Z</time>
      </trkpt>
      <trkpt lat="44.4143" lon="1.37203">
        <ele>320</ele>
        <time>2019-04-14T08:12:10Z</time>
      </trkpt>
      <trkpt lat="44.41431" lon="1.37203">
        <ele>320</ele>
        <time>2019-04-14T08:12:11Z</time>
      </trkpt>
      <trkpt lat="44.41431" lon="1.37203">
        <ele>320</ele>
        <time>2019-04-14T08:12:12Z</time>
      </trkpt>
      <trkpt lat="44.41432" lon="1.37202">
        <ele>320</ele>
        <time>2019-04-14T08:12:13Z</time>
      </trkpt>
      <trkpt lat="44.41433" lon="1.37202">
        <ele>320</ele>
        <time>2019-04-14T08:12:14Z</time>
      </trkpt>
      <trkpt lat="44.41433" lon="1.37202">
        <ele>320</ele>
        <time>2019-04-14T08:12:15Z</time>
      </trkpt>
      <trkpt lat="44.41433" lon="1.37201">
        <ele>320</ele>
        <time>2019-04-14T08:12:16Z</time>
      </trkpt>
      <trkpt lat="44.41434" lon="1.37201">
        <ele>320</ele>
        <time>2019-04-14T08:12:17Z</time>
      </trkpt>
      <trkpt lat="44.41434" lon="1.37201">
        <ele>320</ele>
        <time>2019-04-14T08:12:18Z</time>
      </trkpt>
      <trkpt lat="44.41435" lon="1.37201">
        <ele>320</ele>
        <time>2019-04-14T08:12:19Z</time>
      </trkpt>
      <trkpt lat="44.41438" lon="1.37183">
        <ele>320</ele>
        <time>2019-04-14T08:12:36Z</time>
      </trkpt>
      <trkpt lat="44.41437" lon="1.37182">
        <ele>320</ele>
        <time>2019-04-14T08:12:37Z</time>
      </trkpt>
      <trkpt lat="44.41436" lon="1.37181">
        <ele>320</ele>
        <time>2019-04-14T08:12:38Z</time>
      </trkpt>
      <trkpt lat="44.41435" lon="1.3718">
        <ele>320</ele>
        <time>2019-04-14T08:12:39Z</time>
      </trkpt>
      <trkpt lat="44.41434" lon="1.37179">
        <ele>320</ele>
        <time>2019-04-14T08:12:40Z</time>
      </trkpt>
      <trkpt lat="44.41433" lon="1.37178">
        <ele>320</ele>
        <time>2019-04-14T08:12:41Z</time>
      </trkpt>
      <trkpt lat="44.41433" lon="1.37177">
        <ele>320</ele>
        <time>2019-04-14T08:12:42Z</time>
      </trkpt>
      <trkpt lat="44.41432" lon="1.37176">
        <ele>320</ele>
        <time>2019-04-14T08:12:43Z</time>
      </trkpt>
      <trkpt lat="44.41431" lon="1.37176">
        <ele>320</ele>
        <time>2019-04-14T08:12:44Z</time>
      </trkpt>
      <trkpt lat="44.4143" lon="1.37176">
        <ele>320</ele>
        <time>2019-04-14T08:12:45Z</time>
      </trkpt>
      <trkpt lat="44.41429" lon="1.37176">
        <ele>320</ele>
        <time>2019-04-14T08:12:46Z</time>
      </trkpt>
      <trkpt lat="44.41429" lon="1.37176">
        <ele>320</ele>
        <time>2019-04-14T08:12:47Z</time>
      </trkpt>
      <trkpt lat="44.41428" lon="1.37176">
        <ele>320</ele>
        <time>2019-04-14T08:12:48Z</time>
      </trkpt>
      <trkpt lat="44.41427" lon="1.37176">
        <ele>320</ele>
        <time>2019-04-14T08:12:49Z</time>
      </trkpt>
      <trkpt lat="44.41427" lon="1.37177">
        <ele>320</ele>
        <time>2019-04-14T08:12:50Z</time>
      </trkpt>
      <trkpt lat="44.41427" lon="1.37177">
        <ele>320</ele>
        <time>2019-04-14T08:12:51Z</time>
      </trkpt>
      <trkpt lat="44.41427" lon="1.37178">
        <ele>320</ele>
        <time>2019-04-14T08:12:52Z</time>
      </trkpt>
      <trkpt lat="44.41427" lon="1.37178">
        <ele>320</ele>
        <time>2019-04-14T08:12:53Z</time>
      </trkpt>
      <trkpt lat="44.41427" lon="1.37177">
        <ele>319</ele>
        <time>2019-04-14T08:12:54Z</time>
      </trkpt>
      <trkpt lat="44.41427" lon="1.37177">
        <ele>320</ele>
        <time>2019-04-14T08:12:55Z</time>
      </trkpt>
      <trkpt lat="44.41426" lon="1.37177">
        <ele>320</ele>
        <time>2019-04-14T08:12:56Z</time>
      </trkpt>
      <trkpt lat="44.41426" lon="1.37177">
        <ele>320</ele>
        <time>2019-04-14T08:12:57Z</time>
      </trkpt>
      <trkpt lat="44.41426" lon="1.37177">
        <ele>319</ele>
        <time>2019-04-14T08:12:58Z</time>
      </trkpt>
      <trkpt lat="44.41433" lon="1.37165">
        <ele>316</ele>
        <time>2019-04-14T08:23:13Z</time>
      </trkpt>
      <trkpt lat="44.41433" lon="1.37165">
        <ele>316</ele>
        <time>2019-04-14T08:23:14Z</time>
      </trkpt>
      <trkpt lat="44.41433" lon="1.37165">
        <ele>316</ele>
        <time>2019-04-14T08:23:15Z</time>
      </trkpt>
      <trkpt lat="44.41433" lon="1.37165">
        <ele>316</ele>
        <time>2019-04-14T08:23:16Z</time>
      </trkpt>
      <trkpt lat="44.41433" lon="1.37165">
        <ele>316</ele>
        <time>2019-04-14T08:23:17Z</time>
      </trkpt>
      <trkpt lat="44.41435" lon="1.37176">
        <ele>315</ele>
        <time>2019-04-14T08:26:11Z</time>
      </trkpt>
      <trkpt lat="44.41436" lon="1.37177">
        <ele>315</ele>
        <time>2019-04-14T08:26:12Z</time>
      </trkpt>
      <trkpt lat="44.41436" lon="1.37178">
        <ele>315</ele>
        <time>2019-04-14T08:26:13Z</time>
      </trkpt>
      <trkpt lat="44.41436" lon="1.37179">
        <ele>315</ele>
        <time>2019-04-14T08:26:14Z</time>
      </trkpt>
      <trkpt lat="44.41437" lon="1.3718">
        <ele>315</ele>
        <time>2019-04-14T08:26:15Z</time>
      </trkpt>
      <trkpt lat="44.41437" lon="1.37182">
        <ele>315</ele>
        <time>2019-04-14T08:26:16Z</time>
      </trkpt>
      <trkpt lat="44.41439" lon="1.37184">
        <ele>315</ele>
        <time>2019-04-14T08:26:17Z</time>
      </trkpt>
      <trkpt lat="44.41439" lon="1.37185">
        <ele>315</ele>
        <time>2019-04-14T08:26:18Z</time>
      </trkpt>
      <trkpt lat="44.4144" lon="1.37186">
        <ele>315</ele>
        <time>2019-04-14T08:26:19Z</time>
      </trkpt>
      <trkpt lat="44.4144" lon="1.37187">
        <ele>315</ele>
        <time>2019-04-14T08:26:21Z</time>
      </trkpt>
      <trkpt lat="44.4144" lon="1.37189">
        <ele>315</ele>
        <time>2019-04-14T08:26:22Z</time>
      </trkpt>
      <trkpt lat="44.41441" lon="1.3719">
        <ele>316</ele>
        <time>2019-04-14T08:26:24Z</time>
      </trkpt>
      <trkpt lat="44.41439" lon="1.37192">
        <ele>316</ele>
        <time>2019-04-14T08:26:25Z</time>
      </trkpt>
      <trkpt lat="44.41438" lon="1.37193">
        <ele>316</ele>
        <time>2019-04-14T08:26:26Z</time>
      </trkpt>
      <trkpt lat="44.41437" lon="1.37194">
        <ele>316</ele>
        <time>2019-04-14T08:26:27Z</time>
      </trkpt>
      <trkpt lat="44.41436" lon="1.37194">
        <ele>315</ele>
        <time>2019-04-14T08:26:28Z</time>
      </trkpt>
      <trkpt lat="44.41434" lon="1.37195">
        <ele>315</ele>
        <time>2019-04-14T08:26:30Z</time>
      </trkpt>
      <trkpt lat="44.41432" lon="1.37196">
        <ele>315</ele>
        <time>2019-04-14T08:26:31Z</time>
      </trkpt>
      <trkpt lat="44.4143" lon="1.37197">
        <ele>315</ele>
        <time>2019-04-14T08:26:32Z</time>
      </trkpt>
      <trkpt lat="44.41428" lon="1.37198">
        <ele>315</ele>
        <time>2019-04-14T08:26:33Z</time>
      </trkpt>
      <trkpt lat="44.41426" lon="1.37199">
        <ele>315</ele>
        <time>2019-04-14T08:26:34Z</time>
      </trkpt>
      <trkpt lat="44.41425" lon="1.372">
        <ele>315</ele>
        <time>2019-04-14T08:26:35Z</time>
      </trkpt>
      <trkpt lat="44.41423" lon="1.37201">
        <ele>315</ele>
        <time>2019-04-14T08:26:36Z</time>
      </trkpt>
      <trkpt lat="44.41421" lon="1.37202">
        <ele>315</ele>
        <time>2019-04-14T08:26:37Z</time>
      </trkpt>
      <trkpt lat="44.41419" lon="1.37203">
        <ele>315</ele>
        <time>2019-04-14T08:26:38Z</time>
      </trkpt>
      <trkpt lat="44.41417" lon="1.37204">
        <ele>315</ele>
        <time>2019-04-14T08:26:39Z</time>
      </trkpt>
      <trkpt lat="44.41414" lon="1.37205">
        <ele>315</ele>
        <time>2019-04-14T08:26:40Z</time>
      </trkpt>
      <trkpt lat="44.41412" lon="1.37206">
        <ele>315</ele>
        <time>2019-04-14T08:26:41Z</time>
      </trkpt>
      <trkpt lat="44.41409" lon="1.37206">
        <ele>315</ele>
        <time>2019-04-14T08:26:42Z</time>
      </trkpt>
      <trkpt lat="44.41407" lon="1.37207">
        <ele>314</ele>
        <time>2019-04-14T08:26:43Z</time>
      </trkpt>
      <trkpt lat="44.41406" lon="1.37207">
        <ele>314</ele>
        <time>2019-04-14T08:26:44Z</time>
      </trkpt>
      <trkpt lat="44.41405" lon="1.37207">
        <ele>314</ele>
        <time>2019-04-14T08:26:45Z</time>
      </trkpt>
      <trkpt lat="44.41404" lon="1.37206">
        <ele>314</ele>
        <time>2019-04-14T08:26:46Z</time>
      </trkpt>
      <trkpt lat="44.41403" lon="1.37204">
        <ele>314</ele>
        <time>2019-04-14T08:26:47Z</time>
      </trkpt>
      <trkpt lat="44.41403" lon="1.37202">
        <ele>314</ele>
        <time>2019-04-14T08:26:48Z</time>
      </trkpt>
      <trkpt lat="44.41402" lon="1.37199">
        <ele>314</ele>
        <time>2019-04-14T08:26:49Z</time>
      </trkpt>
      <trkpt lat="44.41402" lon="1.37196">
        <ele>314</ele>
        <time>2019-04-14T08:26:50Z</time>
      </trkpt>
      <trkpt lat="44.41402" lon="1.37192">
        <ele>314</ele>
        <time>2019-04-14T08:26:51Z</time>
      </trkpt>
      <trkpt lat="44.41401" lon="1.37189">
        <ele>314</ele>
        <time>2019-04-14T08:26:52Z</time>
      </trkpt>
      <trkpt lat="44.41401" lon="1.37185">
        <ele>314</ele>
        <time>2019-04-14T08:26:53Z</time>
      </trkpt>
      <trkpt lat="44.41401" lon="1.37181">
        <ele>314</ele>
        <time>2019-04-14T08:26:54Z</time>
      </trkpt>
      <trkpt lat="44.41401" lon="1.37178">
        <ele>314</ele>
        <time>2019-04-14T08:26:55Z</time>
      </trkpt>
      <trkpt lat="44.414" lon="1.37174">
        <ele>314</ele>
        <time>2019-04-14T08:26:56Z</time>
      </trkpt>
      <trkpt lat="44.41399" lon="1.37165">
        <ele>314</ele>
        <time>2019-04-14T08:26:57Z</time>
      </trkpt>
      <trkpt lat="44.41399" lon="1.37161">
        <ele>314</ele>
        <time>2019-04-14T08:26:58Z</time>
      </trkpt>
      <trkpt lat="44.41399" lon="1.37157">
        <ele>314</ele>
        <time>2019-04-14T08:26:59Z</time>
      </trkpt>
      <trkpt lat="44.41399" lon="1.37152">
        <ele>314</ele>
        <time>2019-04-14T08:27:01Z</time>
      </trkpt>
      <trkpt lat="44.41398" lon="1.37148">
        <ele>313</ele>
        <time>2019-04-14T08:27:02Z</time>
      </trkpt>
      <trkpt lat="44.41398" lon="1.37143">
        <ele>313</ele>
        <time>2019-04-14T08:27:03Z</time>
      </trkpt>
      <trkpt lat="44.41397" lon="1.37137">
        <ele>313</ele>
        <time>2019-04-14T08:27:04Z</time>
      </trkpt>
      <trkpt lat="44.41397" lon="1.37132">
        <ele>313</ele>
        <time>2019-04-14T08:27:05Z</time>
      </trkpt>
      <trkpt lat="44.41397" lon="1.37127">
        <ele>313</ele>
        <time>2019-04-14T08:27:06Z</time>
      </trkpt>
      <trkpt lat="44.41396" lon="1.37122">
        <ele>313</ele>
        <time>2019-04-14T08:27:07Z</time>
      </trkpt>
      <trkpt lat="44.41396" lon="1.37117">
        <ele>312</ele>
        <time>2019-04-14T08:27:08Z</time>
      </trkpt>
      <trkpt lat="44.41396" lon="1.37111">
        <ele>312</ele>
        <time>2019-04-14T08:27:09Z</time>
      </trkpt>
      <trkpt lat="44.41395" lon="1.37106">
        <ele>312</ele>
        <time>2019-04-14T08:27:10Z</time>
      </trkpt>
      <trkpt lat="44.41395" lon="1.371">
        <ele>312</ele>
        <time>2019-04-14T08:27:11Z</time>
      </trkpt>
      <trkpt lat="44.41394" lon="1.37095">
        <ele>312</ele>
        <time>2019-04-14T08:27:12Z</time>
      </trkpt>
      <trkpt lat="44.41394" lon="1.37089">
        <ele>311</ele>
        <time>2019-04-14T08:27:13Z</time>
      </trkpt>
      <trkpt lat="44.41393" lon="1.37083">
        <ele>311</ele>
        <time>2019-04-14T08:27:14Z</time>
      </trkpt>
      <trkpt lat="44.41393" lon="1.37077">
        <ele>311</ele>
        <time>2019-04-14T08:27:15Z</time>
      </trkpt>
      <trkpt lat="44.41392" lon="1.37071">
        <ele>311</ele>
        <time>2019-04-14T08:27:16Z</time>
      </trkpt>
      <trkpt lat="44.41392" lon="1.37064">
        <ele>311</ele>
        <time>2019-04-14T08:27:17Z</time>
      </trkpt>
      <trkpt lat="44.41391" lon="1.37057">
        <ele>310</ele>
        <time>2019-04-14T08:27:18Z</time>
      </trkpt>
      <trkpt lat="44.4139" lon="1.3705">
        <ele>310</ele>
        <time>2019-04-14T08:27:19Z</time>
      </trkpt>
      <trkpt lat="44.41389" lon="1.37035">
        <ele>310</ele>
        <time>2019-04-14T08:27:20Z</time>
      </trkpt>
      <trkpt lat="44.41389" lon="1.37027">
        <ele>310</ele>
        <time>2019-04-14T08:27:21Z</time>
      </trkpt>
      <trkpt lat="44.41388" lon="1.3702">
        <ele>309</ele>
        <time>2019-04-14T08:27:23Z</time>
      </trkpt>
      <trkpt lat="44.41387" lon="1.37013">
        <ele>309</ele>
        <time>2019-04-14T08:27:24Z</time>
      </trkpt>
      <trkpt lat="44.41386" lon="1.37001">
        <ele>309</ele>
        <time>2019-04-14T08:27:25Z</time>
      </trkpt>
      <trkpt lat="44.41385" lon="1.36995">
        <ele>308</ele>
        <time>2019-04-14T08:27:26Z</time>
      </trkpt>
      <trkpt lat="44.41384" lon="1.36989">
        <ele>308</ele>
        <time>2019-04-14T08:27:27Z</time>
      </trkpt>
      <trkpt lat="44.41383" lon="1.36983">
        <ele>308</ele>
        <time>2019-04-14T08:27:28Z</time>
      </trkpt>
      <trkpt lat="44.41383" lon="1.36978">
        <ele>307</ele>
        <time>2019-04-14T08:27:30Z</time>
      </trkpt>
      <trkpt lat="44.41382" lon="1.36972">
        <ele>307</ele>
        <time>2019-04-14T08:27:31Z</time>
      </trkpt>
      <trkpt lat="44.41381" lon="1.36966">
        <ele>307</ele>
        <time>2019-04-14T08:27:32Z</time>
      </trkpt>
      <trkpt lat="44.4138" lon="1.36961">
        <ele>307</ele>
        <time>2019-04-14T08:27:33Z</time>
      </trkpt>
      <trkpt lat="44.41379" lon="1.36955">
        <ele>307</ele>
        <time>2019-04-14T08:27:34Z</time>
      </trkpt>
      <trkpt lat="44.41378" lon="1.3695">
        <ele>306</ele>
        <time>2019-04-14T08:27:35Z</time>
      </trkpt>
      <trkpt lat="44.41377" lon="1.36945">
        <ele>306</ele>
        <time>2019-04-14T08:27:36Z</time>
      </trkpt>
      <trkpt lat="44.41376" lon="1.3694">
        <ele>306</ele>
        <time>2019-04-14T08:27:37Z</time>
      </trkpt>
      <trkpt lat="44.41375" lon="1.36935">
        <ele>306</ele>
        <time>2019-04-14T08:27:38Z</time>
      </trkpt>
      <trkpt lat="44.41374" lon="1.36929">
        <ele>306</ele>
        <time>2019-04-14T08:27:39Z</time>
      </trkpt>
      <trkpt lat="44.41372" lon="1.36917">
        <ele>306</ele>
        <time>2019-04-14T08:27:40Z</time>
      </trkpt>
      <trkpt lat="44.4137" lon="1.3691">
        <ele>306</ele>
        <time>2019-04-14T08:27:41Z</time>
      </trkpt>
      <trkpt lat="44.41367" lon="1.36897">
        <ele>305</ele>
        <time>2019-04-14T08:27:43Z</time>
      </trkpt>
      <trkpt lat="44.41365" lon="1.36891">
        <ele>305</ele>
        <time>2019-04-14T08:27:44Z</time>
      </trkpt>
      <trkpt lat="44.41363" lon="1.36884">
        <ele>305</ele>
        <time>2019-04-14T08:27:45Z</time>
      </trkpt>
      <trkpt lat="44.41361" lon="1.36878">
        <ele>304</ele>
        <time>2019-04-14T08:27:46Z</time>
      </trkpt>
      <trkpt lat="44.41359" lon="1.36871">
        <ele>304</ele>
        <time>2019-04-14T08:27:48Z</time>
      </trkpt>
      <trkpt lat="44.41358" lon="1.36864">
        <ele>304</ele>
        <time>2019-04-14T08:27:49Z</time>
      </trkpt>
      <trkpt lat="44.41356" lon="1.36857">
        <ele>304</ele>
        <time>2019-04-14T08:27:50Z</time>
      </trkpt>
      <trkpt lat="44.41354" lon="1.36849">
        <ele>303</ele>
        <time>2019-04-14T08:27:51Z</time>
      </trkpt>
      <trkpt lat="44.41352" lon="1.36842">
        <ele>303</ele>
        <time>2019-04-14T08:27:52Z</time>
      </trkpt>
      <trkpt lat="44.4135" lon="1.36835">
        <ele>303</ele>
        <time>2019-04-14T08:27:53Z</time>
      </trkpt>
      <trkpt lat="44.41348" lon="1.36828">
        <ele>303</ele>
        <time>2019-04-14T08:27:54Z</time>
      </trkpt>
      <trkpt lat="44.41345" lon="1.36814">
        <ele>302</ele>
        <time>2019-04-14T08:27:55Z</time>
      </trkpt>
      <trkpt lat="44.41342" lon="1.36808">
        <ele>302</ele>
        <time>2019-04-14T08:27:56Z</time>
      </trkpt>
      <trkpt lat="44.4134" lon="1.36801">
        <ele>302</ele>
        <time>2019-04-14T08:27:57Z</time>
      </trkpt>
      <trkpt lat="44.41339" lon="1.36795">
        <ele>302</ele>
        <time>2019-04-14T08:27:58Z</time>
      </trkpt>
      <trkpt lat="44.41336" lon="1.36788">
        <ele>302</ele>
        <time>2019-04-14T08:27:59Z</time>
      </trkpt>
      <trkpt lat="44.41334" lon="1.36781">
        <ele>302</ele>
        <time>2019-04-14T08:28:00Z</time>
      </trkpt>
      <trkpt lat="44.41332" lon="1.36775">
        <ele>302</ele>
        <time>2019-04-14T08:28:01Z</time>
      </trkpt>
      <trkpt lat="44.4133" lon="1.36768">
        <ele>302</ele>
        <time>2019-04-14T08:28:02Z</time>
      </trkpt>
      <trkpt lat="44.41327" lon="1.36761">
        <ele>301</ele>
        <time>2019-04-14T08:28:03Z</time>
      </trkpt>
      <trkpt lat="44.41325" lon="1.36754">
        <ele>301</ele>
        <time>2019-04-14T08:28:04Z</time>
      </trkpt>
      <trkpt lat="44.41322" lon="1.36748">
        <ele>301</ele>
        <time>2019-04-14T08:28:05Z</time>
      </trkpt>
      <trkpt lat="44.4132" lon="1.36742">
        <ele>301</ele>
        <time>2019-04-14T08:28:06Z</time>
      </trkpt>
      <trkpt lat="44.41318" lon="1.36736">
        <ele>301</ele>
        <time>2019-04-14T08:28:07Z</time>
      </trkpt>
      <trkpt lat="44.41317" lon="1.3673">
        <ele>301</ele>
        <time>2019-04-14T08:28:08Z</time>
      </trkpt>
      <trkpt lat="44.41317" lon="1.36723">
        <ele>301</ele>
        <time>2019-04-14T08:28:09Z</time>
      </trkpt>
      <trkpt lat="44.41317" lon="1.36718">
        <ele>301</ele>
        <time>2019-04-14T08:28:10Z</time>
      </trkpt>
      <trkpt lat="44.41318" lon="1.36712">
        <ele>301</ele>
        <time>2019-04-14T08:28:12Z</time>
      </trkpt>
      <trkpt lat="44.41319" lon="1.36707">
        <ele>302</ele>
        <time>2019-04-14T08:28:13Z</time>
      </trkpt>
      <trkpt lat="44.41319" lon="1.36702">
        <ele>302</ele>
        <time>2019-04-14T08:28:14Z</time>
      </trkpt>
      <trkpt lat="44.4132" lon="1.36698">
        <ele>302</ele>
        <time>2019-04-14T08:28:15Z</time>
      </trkpt>
      <trkpt lat="44.41321" lon="1.36693">
        <ele>302</ele>
        <time>2019-04-14T08:28:16Z</time>
      </trkpt>
      <trkpt lat="44.41322" lon="1.36688">
        <ele>302</ele>
        <time>2019-04-14T08:28:17Z</time>
      </trkpt>
      <trkpt lat="44.41323" lon="1.36684">
        <ele>302</ele>
        <time>2019-04-14T08:28:18Z</time>
      </trkpt>
      <trkpt lat="44.41325" lon="1.36674">
        <ele>302</ele>
        <time>2019-04-14T08:28:19Z</time>
      </trkpt>
      <trkpt lat="44.41326" lon="1.3667">
        <ele>302</ele>
        <time>2019-04-14T08:28:20Z</time>
      </trkpt>
      <trkpt lat="44.41327" lon="1.36665">
        <ele>302</ele>
        <time>2019-04-14T08:28:21Z</time>
      </trkpt>
      <trkpt lat="44.41328" lon="1.36661">
        <ele>302</ele>
        <time>2019-04-14T08:28:22Z</time>
      </trkpt>
      <trkpt lat="44.4133" lon="1.36656">
        <ele>302</ele>
        <time>2019-04-14T08:28:23Z</time>
      </trkpt>
      <trkpt lat="44.4133" lon="1.36651">
        <ele>302</ele>
        <time>2019-04-14T08:28:25Z</time>
      </trkpt>
      <trkpt lat="44.41331" lon="1.36646">
        <ele>302</ele>
        <time>2019-04-14T08:28:26Z</time>
      </trkpt>
      <trkpt lat="44.41331" lon="1.36642">
        <ele>302</ele>
        <time>2019-04-14T08:28:27Z</time>
      </trkpt>
      <trkpt lat="44.41332" lon="1.36632">
        <ele>302</ele>
        <time>2019-04-14T08:28:28Z</time>
      </trkpt>
      <trkpt lat="44.41332" lon="1.36627">
        <ele>302</ele>
        <time>2019-04-14T08:28:29Z</time>
      </trkpt>
      <trkpt lat="44.41332" lon="1.36622">
        <ele>302</ele>
        <time>2019-04-14T08:28:30Z</time>
      </trkpt>
      <trkpt lat="44.41332" lon="1.36616">
        <ele>302</ele>
        <time>2019-04-14T08:28:31Z</time>
      </trkpt>
      <trkpt lat="44.41332" lon="1.36611">
        <ele>302</ele>
        <time>2019-04-14T08:28:32Z</time>
      </trkpt>
      <trkpt lat="44.41332" lon="1.36606">
        <ele>302</ele>
        <time>2019-04-14T08:28:33Z</time>
      </trkpt>
      <trkpt lat="44.41332" lon="1.366">
        <ele>302</ele>
        <time>2019-04-14T08:28:34Z</time>
      </trkpt>
      <trkpt lat="44.41331" lon="1.36595">
        <ele>302</ele>
        <time>2019-04-14T08:28:35Z</time>
      </trkpt>
      <trkpt lat="44.41331" lon="1.3659">
        <ele>303</ele>
        <time>2019-04-14T08:28:36Z</time>
      </trkpt>
      <trkpt lat="44.41331" lon="1.36585">
        <ele>303</ele>
        <time>2019-04-14T08:28:37Z</time>
      </trkpt>
      <trkpt lat="44.4133" lon="1.3658">
        <ele>302</ele>
        <time>2019-04-14T08:28:38Z</time>
      </trkpt>
      <trkpt lat="44.41329" lon="1.36574">
        <ele>302</ele>
        <time>2019-04-14T08:28:39Z</time>
      </trkpt>
      <trkpt lat="44.41328" lon="1.36569">
        <ele>303</ele>
        <time>2019-04-14T08:28:40Z</time>
      </trkpt>
      <trkpt lat="44.41327" lon="1.36563">
        <ele>302</ele>
        <time>2019-04-14T08:28:41Z</time>
      </trkpt>
      <trkpt lat="44.41326" lon="1.36558">
        <ele>303</ele>
        <time>2019-04-14T08:28:42Z</time>
      </trkpt>
      <trkpt lat="44.41325" lon="1.36552">
        <ele>303</ele>
        <time>2019-04-14T08:28:43Z</time>
      </trkpt>
      <trkpt lat="44.41324" lon="1.36546">
        <ele>303</ele>
        <time>2019-04-14T08:28:44Z</time>
      </trkpt>
      <trkpt lat="44.41323" lon="1.36541">
        <ele>303</ele>
        <time>2019-04-14T08:28:45Z</time>
      </trkpt>
      <trkpt lat="44.41322" lon="1.36535">
        <ele>303</ele>
        <time>2019-04-14T08:28:46Z</time>
      </trkpt>
      <trkpt lat="44.41321" lon="1.3653">
        <ele>303</ele>
        <time>2019-04-14T08:28:47Z</time>
      </trkpt>
      <trkpt lat="44.4132" lon="1.36525">
        <ele>303</ele>
        <time>2019-04-14T08:28:49Z</time>
      </trkpt>
      <trkpt lat="44.41319" lon="1.36519">
        <ele>303</ele>
        <time>2019-04-14T08:28:50Z</time>
      </trkpt>
      <trkpt lat="44.41318" lon="1.36514">
        <ele>303</ele>
        <time>2019-04-14T08:28:51Z</time>
      </trkpt>
      <trkpt lat="44.41317" lon="1.36509">
        <ele>303</ele>
        <time>2019-04-14T08:28:52Z</time>
      </trkpt>
      <trkpt lat="44.41316" lon="1.36504">
        <ele>303</ele>
        <time>2019-04-14T08:28:53Z</time>
      </trkpt>
      <trkpt lat="44.41314" lon="1.36499">
        <ele>303</ele>
        <time>2019-04-14T08:28:54Z</time>
      </trkpt>
      <trkpt lat="44.41313" lon="1.36494">
        <ele>303</ele>
        <time>2019-04-14T08:28:55Z</time>
      </trkpt>
      <trkpt lat="44.41312" lon="1.36489">
        <ele>303</ele>
        <time>2019-04-14T08:28:56Z</time>
      </trkpt>
      <trkpt lat="44.4131" lon="1.36485">
        <ele>303</ele>
        <time>2019-04-14T08:28:57Z</time>
      </trkpt>
      <trkpt lat="44.41309" lon="1.3648">
        <ele>303</ele>
        <time>2019-04-14T08:28:58Z</time>
      </trkpt>
      <trkpt lat="44.41307" lon="1.36476">
        <ele>303</ele>
        <time>2019-04-14T08:28:59Z</time>
      </trkpt>
      <trkpt lat="44.41304" lon="1.36467">
        <ele>303</ele>
        <time>2019-04-14T08:29:00Z</time>
      </trkpt>
      <trkpt lat="44.41302" lon="1.36463">
        <ele>303</ele>
        <time>2019-04-14T08:29:01Z</time>
      </trkpt>
      <trkpt lat="44.41301" lon="1.36459">
        <ele>303</ele>
        <time>2019-04-14T08:29:02Z</time>
      </trkpt>
      <trkpt lat="44.413" lon="1.36454">
        <ele>303</ele>
        <time>2019-04-14T08:29:03Z</time>
      </trkpt>
      <trkpt lat="44.41299" lon="1.36444">
        <ele>304</ele>
        <time>2019-04-14T08:29:05Z</time>
      </trkpt>
      <trkpt lat="44.41299" lon="1.36439">
        <ele>304</ele>
        <time>2019-04-14T08:29:06Z</time>
      </trkpt>
      <trkpt lat="44.413" lon="1.36434">
        <ele>304</ele>
        <time>2019-04-14T08:29:07Z</time>
      </trkpt>
      <trkpt lat="44.41301" lon="1.36429">
        <ele>304</ele>
        <time>2019-04-14T08:29:08Z</time>
      </trkpt>
      <trkpt lat="44.41303" lon="1.36425">
        <ele>304</ele>
        <time>2019-04-14T08:29:09Z</time>
      </trkpt>
      <trkpt lat="44.41304" lon="1.3642">
        <ele>304</ele>
        <time>2019-04-14T08:29:10Z</time>
      </trkpt>
      <trkpt lat="44.41307" lon="1.36416">
        <ele>304</ele>
        <time>2019-04-14T08:29:11Z</time>
      </trkpt>
      <trkpt lat="44.41309" lon="1.36413">
        <ele>304</ele>
        <time>2019-04-14T08:29:12Z</time>
      </trkpt>
      <trkpt lat="44.41312" lon="1.36409">
        <ele>304</ele>
        <time>2019-04-14T08:29:13Z</time>
      </trkpt>
      <trkpt lat="44.41315" lon="1.36405">
        <ele>304</ele>
        <time>2019-04-14T08:29:14Z</time>
      </trkpt>
      <trkpt lat="44.41319" lon="1.36402">
        <ele>303</ele>
        <time>2019-04-14T08:29:15Z</time>
      </trkpt>
      <trkpt lat="44.41322" lon="1.36399">
        <ele>303</ele>
        <time>2019-04-14T08:29:16Z</time>
      </trkpt>
      <trkpt lat="44.41325" lon="1.36395">
        <ele>303</ele>
        <time>2019-04-14T08:29:17Z</time>
      </trkpt>
      <trkpt lat="44.41328" lon="1.36392">
        <ele>303</ele>
        <time>2019-04-14T08:29:18Z</time>
      </trkpt>
      <trkpt lat="44.41331" lon="1.36389">
        <ele>303</ele>
        <time>2019-04-14T08:29:19Z</time>
      </trkpt>
      <trkpt lat="44.41335" lon="1.36386">
        <ele>303</ele>
        <time>2019-04-14T08:29:20Z</time>
      </trkpt>
      <trkpt lat="44.41338" lon="1.36383">
        <ele>303</ele>
        <time>2019-04-14T08:29:21Z</time>
      </trkpt>
      <trkpt lat="44.41341" lon="1.3638">
        <ele>303</ele>
        <time>2019-04-14T08:29:22Z</time>
      </trkpt>
      <trkpt lat="44.41345" lon="1.36377">
        <ele>303</ele>
        <time>2019-04-14T08:29:24Z</time>
      </trkpt>
      <trkpt lat="44.41348" lon="1.36374">
        <ele>303</ele>
        <time>2019-04-14T08:29:25Z</time>
      </trkpt>
      <trkpt lat="44.41351" lon="1.36371">
        <ele>303</ele>
        <time>2019-04-14T08:29:26Z</time>
      </trkpt>
      <trkpt lat="44.41354" lon="1.36368">
        <ele>303</ele>
        <time>2019-04-14T08:29:27Z</time>
      </trkpt>
      <trkpt lat="44.41358" lon="1.36364">
        <ele>303</ele>
        <time>2019-04-14T08:29:28Z</time>
      </trkpt>
      <trkpt lat="44.41364" lon="1.36358">
        <ele>303</ele>
        <time>2019-04-14T08:29:29Z</time>
      </trkpt>
      <trkpt lat="44.41367" lon="1.36355">
        <ele>302</ele>
        <time>2019-04-14T08:29:30Z</time>
      </trkpt>
      <trkpt lat="44.4137" lon="1.36351">
        <ele>302</ele>
        <time>2019-04-14T08:29:31Z</time>
      </trkpt>
      <trkpt lat="44.41374" lon="1.36348">
        <ele>302</ele>
        <time>2019-04-14T08:29:32Z</time>
      </trkpt>
      <trkpt lat="44.41377" lon="1.36344">
        <ele>302</ele>
        <time>2019-04-14T08:29:33Z</time>
      </trkpt>
      <trkpt lat="44.4138" lon="1.36341">
        <ele>302</ele>
        <time>2019-04-14T08:29:34Z</time>
      </trkpt>
      <trkpt lat="44.41384" lon="1.36337">
        <ele>302</ele>
        <time>2019-04-14T08:29:35Z</time>
      </trkpt>
      <trkpt lat="44.41387" lon="1.36334">
        <ele>302</ele>
        <time>2019-04-14T08:29:36Z</time>
      </trkpt>
      <trkpt lat="44.4139" lon="1.36331">
        <ele>302</ele>
        <time>2019-04-14T08:29:37Z</time>
      </trkpt>
      <trkpt lat="44.41394" lon="1.36328">
        <ele>302</ele>
        <time>2019-04-14T08:29:38Z</time>
      </trkpt>
      <trkpt lat="44.41397" lon="1.36325">
        <ele>302</ele>
        <time>2019-04-14T08:29:40Z</time>
      </trkpt>
      <trkpt lat="44.41401" lon="1.36323">
        <ele>301</ele>
        <time>2019-04-14T08:29:41Z</time>
      </trkpt>
      <trkpt lat="44.41407" lon="1.36317">
        <ele>301</ele>
        <time>2019-04-14T08:29:42Z</time>
      </trkpt>
      <trkpt lat="44.41411" lon="1.36314">
        <ele>301</ele>
        <time>2019-04-14T08:29:43Z</time>
      </trkpt>
      <trkpt lat="44.41415" lon="1.36311">
        <ele>300</ele>
        <time>2019-04-14T08:29:45Z</time>
      </trkpt>
      <trkpt lat="44.41419" lon="1.36309">
        <ele>300</ele>
        <time>2019-04-14T08:29:46Z</time>
      </trkpt>
      <trkpt lat="44.41423" lon="1.36306">
        <ele>300</ele>
        <time>2019-04-14T08:29:47Z</time>
      </trkpt>
      <trkpt lat="44.41432" lon="1.36299">
        <ele>300</ele>
        <time>2019-04-14T08:29:48Z</time>
      </trkpt>
      <trkpt lat="44.41437" lon="1.36296">
        <ele>300</ele>
        <time>2019-04-14T08:29:49Z</time>
      </trkpt>
      <trkpt lat="44.41441" lon="1.36294">
        <ele>300</ele>
        <time>2019-04-14T08:29:50Z</time>
      </trkpt>
      <trkpt lat="44.41446" lon="1.36291">
        <ele>300</ele>
        <time>2019-04-14T08:29:51Z</time>
      </trkpt>
      <trkpt lat="44.41451" lon="1.36289">
        <ele>299</ele>
        <time>2019-04-14T08:29:53Z</time>
      </trkpt>
      <trkpt lat="44.41461" lon="1.36283">
        <ele>299</ele>
        <time>2019-04-14T08:29:54Z</time>
      </trkpt>
      <trkpt lat="44.41465" lon="1.3628">
        <ele>299</ele>
        <time>2019-04-14T08:29:55Z</time>
      </trkpt>
      <trkpt lat="44.4147" lon="1.36278">
        <ele>298</ele>
        <time>2019-04-14T08:29:56Z</time>
      </trkpt>
      <trkpt lat="44.41475" lon="1.36275">
        <ele>298</ele>
        <time>2019-04-14T08:29:57Z</time>
      </trkpt>
      <trkpt lat="44.41481" lon="1.36272">
        <ele>298</ele>
        <time>2019-04-14T08:29:58Z</time>
      </trkpt>
      <trkpt lat="44.41485" lon="1.36269">
        <ele>298</ele>
        <time>2019-04-14T08:29:59Z</time>
      </trkpt>
      <trkpt lat="44.4149" lon="1.36267">
        <ele>298</ele>
        <time>2019-04-14T08:30:00Z</time>
      </trkpt>
      <trkpt lat="44.41496" lon="1.36264">
        <ele>298</ele>
        <time>2019-04-14T08:30:01Z</time>
      </trkpt>
      <trkpt lat="44.41501" lon="1.36261">
        <ele>297</ele>
        <time>2019-04-14T08:30:02Z</time>
      </trkpt>
      <trkpt lat="44.41507" lon="1.36258">
        <ele>297</ele>
        <time>2019-04-14T08:30:03Z</time>
      </trkpt>
      <trkpt lat="44.41512" lon="1.36254">
        <ele>297</ele>
        <time>2019-04-14T08:30:04Z</time>
      </trkpt>
      <trkpt lat="44.41518" lon="1.36251">
        <ele>296</ele>
        <time>2019-04-14T08:30:05Z</time>
      </trkpt>
      <trkpt lat="44.41524" lon="1.36248">
        <ele>296</ele>
        <time>2019-04-14T08:30:06Z</time>
      </trkpt>
      <trkpt lat="44.41531" lon="1.36244">
        <ele>295</ele>
        <time>2019-04-14T08:30:07Z</time>
      </trkpt>
      <trkpt lat="44.41538" lon="1.3624">
        <ele>295</ele>
        <time>2019-04-14T08:30:08Z</time>
      </trkpt>
      <trkpt lat="44.41545" lon="1.36237">
        <ele>294</ele>
        <time>2019-04-14T08:30:09Z</time>
      </trkpt>
      <trkpt lat="44.41553" lon="1.36234">
        <ele>294</ele>
        <time>2019-04-14T08:30:10Z</time>
      </trkpt>
      <trkpt lat="44.4156" lon="1.36229">
        <ele>294</ele>
        <time>2019-04-14T08:30:11Z</time>
      </trkpt>
      <trkpt lat="44.41569" lon="1.36224">
        <ele>293</ele>
        <time>2019-04-14T08:30:12Z</time>
      </trkpt>
      <trkpt lat="44.41576" lon="1.36219">
        <ele>293</ele>
        <time>2019-04-14T08:30:13Z</time>
      </trkpt>
      <trkpt lat="44.41584" lon="1.36213">
        <ele>292</ele>
        <time>2019-04-14T08:30:14Z</time>
      </trkpt>
      <trkpt lat="44.41592" lon="1.36207">
        <ele>292</ele>
        <time>2019-04-14T08:30:15Z</time>
      </trkpt>
      <trkpt lat="44.416" lon="1.36202">
        <ele>291</ele>
        <time>2019-04-14T08:30:16Z</time>
      </trkpt>
      <trkpt lat="44.41608" lon="1.36196">
        <ele>290</ele>
        <time>2019-04-14T08:30:18Z</time>
      </trkpt>
      <trkpt lat="44.41616" lon="1.36191">
        <ele>290</ele>
        <time>2019-04-14T08:30:19Z</time>
      </trkpt>
      <trkpt lat="44.41632" lon="1.36182">
        <ele>290</ele>
        <time>2019-04-14T08:30:20Z</time>
      </trkpt>
      <trkpt lat="44.41638" lon="1.36177">
        <ele>290</ele>
        <time>2019-04-14T08:30:21Z</time>
      </trkpt>
      <trkpt lat="44.41644" lon="1.36171">
        <ele>289</ele>
        <time>2019-04-14T08:30:23Z</time>
      </trkpt>
      <trkpt lat="44.41652" lon="1.36167">
        <ele>289</ele>
        <time>2019-04-14T08:30:24Z</time>
      </trkpt>
      <trkpt lat="44.41666" lon="1.36157">
        <ele>289</ele>
        <time>2019-04-14T08:30:25Z</time>
      </trkpt>
      <trkpt lat="44.41673" lon="1.36153">
        <ele>289</ele>
        <time>2019-04-14T08:30:26Z</time>
      </trkpt>
      <trkpt lat="44.4168" lon="1.36148">
        <ele>288</ele>
        <time>2019-04-14T08:30:27Z</time>
      </trkpt>
      <trkpt lat="44.41686" lon="1.36144">
        <ele>288</ele>
        <time>2019-04-14T08:30:28Z</time>
      </trkpt>
      <trkpt lat="44.41692" lon="1.3614">
        <ele>288</ele>
        <time>2019-04-14T08:30:29Z</time>
      </trkpt>
      <trkpt lat="44.41698" lon="1.36137">
        <ele>288</ele>
        <time>2019-04-14T08:30:30Z</time>
      </trkpt>
      <trkpt lat="44.41704" lon="1.36134">
        <ele>288</ele>
        <time>2019-04-14T08:30:31Z</time>
      </trkpt>
      <trkpt lat="44.41711" lon="1.36131">
        <ele>288</ele>
        <time>2019-04-14T08:30:32Z</time>
      </trkpt>
      <trkpt lat="44.41717" lon="1.36127">
        <ele>288</ele>
        <time>2019-04-14T08:30:33Z</time>
      </trkpt>
      <trkpt lat="44.41723" lon="1.36123">
        <ele>288</ele>
        <time>2019-04-14T08:30:34Z</time>
      </trkpt>
      <trkpt lat="44.41728" lon="1.36119">
        <ele>288</ele>
        <time>2019-04-14T08:30:35Z</time>
      </trkpt>
      <trkpt lat="44.41732" lon="1.36115">
        <ele>288</ele>
        <time>2019-04-14T08:30:36Z</time>
      </trkpt>
      <trkpt lat="44.41736" lon="1.36111">
        <ele>289</ele>
        <time>2019-04-14T08:30:37Z</time>
      </trkpt>
      <trkpt lat="44.41739" lon="1.36106">
        <ele>289</ele>
        <time>2019-04-14T08:30:39Z</time>
      </trkpt>
      <trkpt lat="44.41743" lon="1.36102">
        <ele>289</ele>
        <time>2019-04-14T08:30:40Z</time>
      </trkpt>
      <trkpt lat="44.41746" lon="1.36098">
        <ele>289</ele>
        <time>2019-04-14T08:30:41Z</time>
      </trkpt>
      <trkpt lat="44.41754" lon="1.3609">
        <ele>289</ele>
        <time>2019-04-14T08:30:42Z</time>
      </trkpt>
      <trkpt lat="44.41758" lon="1.36086">
        <ele>289</ele>
        <time>2019-04-14T08:30:43Z</time>
      </trkpt>
      <trkpt lat="44.41762" lon="1.36082">
        <ele>289</ele>
        <time>2019-04-14T08:30:44Z</time>
      </trkpt>
      <trkpt lat="44.41766" lon="1.36078">
        <ele>289</ele>
        <time>2019-04-14T08:30:45Z</time>
      </trkpt>
      <trkpt lat="44.4177" lon="1.36074">
        <ele>289</ele>
        <time>2019-04-14T08:30:46Z</time>
      </trkpt>
      <trkpt lat="44.41775" lon="1.36071">
        <ele>289</ele>
        <time>2019-04-14T08:30:47Z</time>
      </trkpt>
      <trkpt lat="44.41778" lon="1.36067">
        <ele>290</ele>
        <time>2019-04-14T08:30:48Z</time>
      </trkpt>
      <trkpt lat="44.41782" lon="1.36064">
        <ele>290</ele>
        <time>2019-04-14T08:30:49Z</time>
      </trkpt>
      <trkpt lat="44.41784" lon="1.3606">
        <ele>290</ele>
        <time>2019-04-14T08:30:50Z</time>
      </trkpt>
      <trkpt lat="44.41787" lon="1.36056">
        <ele>290</ele>
        <time>2019-04-14T08:30:51Z</time>
      </trkpt>
      <trkpt lat="44.4179" lon="1.36053">
        <ele>290</ele>
        <time>2019-04-14T08:30:52Z</time>
      </trkpt>
      <trkpt lat="44.41793" lon="1.3605">
        <ele>291</ele>
        <time>2019-04-14T08:30:53Z</time>
      </trkpt>
      <trkpt lat="44.41796" lon="1.36046">
        <ele>291</ele>
        <time>2019-04-14T08:30:54Z</time>
      </trkpt>
      <trkpt lat="44.418" lon="1.36042">
        <ele>291</ele>
        <time>2019-04-14T08:30:55Z</time>
      </trkpt>
      <trkpt lat="44.41803" lon="1.36039">
        <ele>291</ele>
        <time>2019-04-14T08:30:57Z</time>
      </trkpt>
      <trkpt lat="44.41808" lon="1.36032">
        <ele>291</ele>
        <time>2019-04-14T08:30:58Z</time>
      </trkpt>
      <trkpt lat="44.41811" lon="1.36029">
        <ele>291</ele>
        <time>2019-04-14T08:30:59Z</time>
      </trkpt>
      <trkpt lat="44.41814" lon="1.36026">
        <ele>291</ele>
        <time>2019-04-14T08:31:00Z</time>
      </trkpt>
      <trkpt lat="44.41817" lon="1.36023">
        <ele>292</ele>
        <time>2019-04-14T08:31:01Z</time>
      </trkpt>
      <trkpt lat="44.4182" lon="1.3602">
        <ele>292</ele>
        <time>2019-04-14T08:31:02Z</time>
      </trkpt>
      <trkpt lat="44.41823" lon="1.36017">
        <ele>292</ele>
        <time>2019-04-14T08:31:03Z</time>
      </trkpt>
      <trkpt lat="44.41826" lon="1.36013">
        <ele>292</ele>
        <time>2019-04-14T08:31:04Z</time>
      </trkpt>
      <trkpt lat="44.4183" lon="1.3601">
        <ele>293</ele>
        <time>2019-04-14T08:31:05Z</time>
      </trkpt>
      <trkpt lat="44.41833" lon="1.36007">
        <ele>293</ele>
        <time>2019-04-14T08:31:06Z</time>
      </trkpt>
      <trkpt lat="44.41837" lon="1.36003">
        <ele>293</ele>
        <time>2019-04-14T08:31:07Z</time>
      </trkpt>
      <trkpt lat="44.41839" lon="1.36">
        <ele>293</ele>
        <time>2019-04-14T08:31:08Z</time>
      </trkpt>
      <trkpt lat="44.41842" lon="1.35996">
        <ele>293</ele>
        <time>2019-04-14T08:31:09Z</time>
      </trkpt>
      <trkpt lat="44.41845" lon="1.35993">
        <ele>293</ele>
        <time>2019-04-14T08:31:10Z</time>
      </trkpt>
      <trkpt lat="44.41849" lon="1.35989">
        <ele>294</ele>
        <time>2019-04-14T08:31:11Z</time>
      </trkpt>
      <trkpt lat="44.41852" lon="1.35986">
        <ele>294</ele>
        <time>2019-04-14T08:31:12Z</time>
      </trkpt>
      <trkpt lat="44.41855" lon="1.35982">
        <ele>294</ele>
        <time>2019-04-14T08:31:13Z</time>
      </trkpt>
      <trkpt lat="44.41858" lon="1.35979">
        <ele>294</ele>
        <time>2019-04-14T08:31:14Z</time>
      </trkpt>
      <trkpt lat="44.41861" lon="1.35975">
        <ele>294</ele>
        <time>2019-04-14T08:31:15Z</time>
      </trkpt>
      <trkpt lat="44.41864" lon="1.35972">
        <ele>294</ele>
        <time>2019-04-14T08:31:16Z</time>
      </trkpt>
      <trkpt lat="44.41867" lon="1.35968">
        <ele>294</ele>
        <time>2019-04-14T08:31:17Z</time>
      </trkpt>
      <trkpt lat="44.41869" lon="1.35964">
        <ele>294</ele>
        <time>2019-04-14T08:31:18Z</time>
      </trkpt>
      <trkpt lat="44.41871" lon="1.3596">
        <ele>294</ele>
        <time>2019-04-14T08:31:19Z</time>
      </trkpt>
      <trkpt lat="44.41874" lon="1.35956">
        <ele>294</ele>
        <time>2019-04-14T08:31:20Z</time>
      </trkpt>
      <trkpt lat="44.41876" lon="1.35952">
        <ele>294</ele>
        <time>2019-04-14T08:31:21Z</time>
      </trkpt>
      <trkpt lat="44.41879" lon="1.35948">
        <ele>294</ele>
        <time>2019-04-14T08:31:22Z</time>
      </trkpt>
      <trkpt lat="44.41881" lon="1.35945">
        <ele>295</ele>
        <time>2019-04-14T08:31:23Z</time>
      </trkpt>
      <trkpt lat="44.41883" lon="1.35941">
        <ele>295</ele>
        <time>2019-04-14T08:31:24Z</time>
      </trkpt>
      <trkpt lat="44.41888" lon="1.35933">
        <ele>295</ele>
        <time>2019-04-14T08:31:26Z</time>
      </trkpt>
      <trkpt lat="44.4189" lon="1.3593">
        <ele>295</ele>
        <time>2019-04-14T08:31:27Z</time>
      </trkpt>
      <trkpt lat="44.41893" lon="1.35926">
        <ele>294</ele>
        <time>2019-04-14T08:31:28Z</time>
      </trkpt>
      <trkpt lat="44.41896" lon="1.35922">
        <ele>294</ele>
        <time>2019-04-14T08:31:29Z</time>
      </trkpt>
      <trkpt lat="44.41898" lon="1.35919">
        <ele>294</ele>
        <time>2019-04-14T08:31:30Z</time>
      </trkpt>
      <trkpt lat="44.41901" lon="1.35916">
        <ele>294</ele>
        <time>2019-04-14T08:31:31Z</time>
      </trkpt>
      <trkpt lat="44.41903" lon="1.35913">
        <ele>294</ele>
        <time>2019-04-14T08:31:32Z</time>
      </trkpt>
      <trkpt lat="44.41906" lon="1.35909">
        <ele>294</ele>
        <time>2019-04-14T08:31:33Z</time>
      </trkpt>
      <trkpt lat="44.41909" lon="1.35905">
        <ele>294</ele>
        <time>2019-04-14T08:31:34Z</time>
      </trkpt>
      <trkpt lat="44.41912" lon="1.35901">
        <ele>294</ele>
        <time>2019-04-14T08:31:35Z</time>
      </trkpt>
      <trkpt lat="44.41914" lon="1.35897">
        <ele>294</ele>
        <time>2019-04-14T08:31:36Z</time>
      </trkpt>
      <trkpt lat="44.41916" lon="1.35893">
        <ele>293</ele>
        <time>2019-04-14T08:31:37Z</time>
      </trkpt>
      <trkpt lat="44.41917" lon="1.35889">
        <ele>293</ele>
        <time>2019-04-14T08:31:38Z</time>
      </trkpt>
      <trkpt lat="44.41918" lon="1.35884">
        <ele>293</ele>
        <time>2019-04-14T08:31:39Z</time>
      </trkpt>
      <trkpt lat="44.41919" lon="1.35878">
        <ele>292</ele>
        <time>2019-04-14T08:31:40Z</time>
      </trkpt>
      <trkpt lat="44.4192" lon="1.35872">
        <ele>292</ele>
        <time>2019-04-14T08:31:41Z</time>
      </trkpt>
      <trkpt lat="44.41922" lon="1.35868">
        <ele>292</ele>
        <time>2019-04-14T08:31:42Z</time>
      </trkpt>
      <trkpt lat="44.41922" lon="1.35864">
        <ele>291</ele>
        <time>2019-04-14T08:31:43Z</time>
      </trkpt>
      <trkpt lat="44.41923" lon="1.35861">
        <ele>291</ele>
        <time>2019-04-14T08:31:44Z</time>
      </trkpt>
      <trkpt lat="44.41926" lon="1.3586">
        <ele>291</ele>
        <time>2019-04-14T08:31:45Z</time>
      </trkpt>
      <trkpt lat="44.41928" lon="1.35859">
        <ele>291</ele>
        <time>2019-04-14T08:31:46Z</time>
      </trkpt>
      <trkpt lat="44.41932" lon="1.35859">
        <ele>291</ele>
        <time>2019-04-14T08:31:47Z</time>
      </trkpt>
      <trkpt lat="44.41934" lon="1.35859">
        <ele>291</ele>
        <time>2019-04-14T08:31:48Z</time>
      </trkpt>
      <trkpt lat="44.41936" lon="1.35858">
        <ele>292</ele>
        <time>2019-04-14T08:31:49Z</time>
      </trkpt>
      <trkpt lat="44.41938" lon="1.35856">
        <ele>292</ele>
        <time>2019-04-14T08:31:50Z</time>
      </trkpt>
      <trkpt lat="44.41941" lon="1.35854">
        <ele>292</ele>
        <time>2019-04-14T08:31:51Z</time>
      </trkpt>
      <trkpt lat="44.41942" lon="1.35849">
        <ele>291</ele>
        <time>2019-04-14T08:31:52Z</time>
      </trkpt>
      <trkpt lat="44.41944" lon="1.35846">
        <ele>291</ele>
        <time>2019-04-14T08:31:53Z</time>
      </trkpt>
      <trkpt lat="44.41947" lon="1.35844">
        <ele>291</ele>
        <time>2019-04-14T08:31:54Z</time>
      </trkpt>
      <trkpt lat="44.4195" lon="1.35841">
        <ele>291</ele>
        <time>2019-04-14T08:31:55Z</time>
      </trkpt>
      <trkpt lat="44.41952" lon="1.35837">
        <ele>290</ele>
        <time>2019-04-14T08:31:56Z</time>
      </trkpt>
      <trkpt lat="44.41955" lon="1.35833">
        <ele>290</ele>
        <time>2019-04-14T08:31:57Z</time>
      </trkpt>
      <trkpt lat="44.41958" lon="1.35829">
        <ele>290</ele>
        <time>2019-04-14T08:31:58Z</time>
      </trkpt>
      <trkpt lat="44.4196" lon="1.35825">
        <ele>290</ele>
        <time>2019-04-14T08:31:59Z</time>
      </trkpt>
      <trkpt lat="44.41963" lon="1.35822">
        <ele>289</ele>
        <time>2019-04-14T08:32:00Z</time>
      </trkpt>
      <trkpt lat="44.41965" lon="1.3582">
        <ele>289</ele>
        <time>2019-04-14T08:32:01Z</time>
      </trkpt>
      <trkpt lat="44.41965" lon="1.35816">
        <ele>289</ele>
        <time>2019-04-14T08:32:02Z</time>
      </trkpt>
      <trkpt lat="44.41968" lon="1.35812">
        <ele>289</ele>
        <time>2019-04-14T08:32:03Z</time>
      </trkpt>
      <trkpt lat="44.41971" lon="1.35808">
        <ele>288</ele>
        <time>2019-04-14T08:32:04Z</time>
      </trkpt>
      <trkpt lat="44.41975" lon="1.35804">
        <ele>288</ele>
        <time>2019-04-14T08:32:05Z</time>
      </trkpt>
      <trkpt lat="44.41978" lon="1.358">
        <ele>288</ele>
        <time>2019-04-14T08:32:06Z</time>
      </trkpt>
      <trkpt lat="44.41981" lon="1.35796">
        <ele>287</ele>
        <time>2019-04-14T08:32:07Z</time>
      </trkpt>
      <trkpt lat="44.41983" lon="1.35792">
        <ele>287</ele>
        <time>2019-04-14T08:32:08Z</time>
      </trkpt>
      <trkpt lat="44.41985" lon="1.35788">
        <ele>287</ele>
        <time>2019-04-14T08:32:09Z</time>
      </trkpt>
      <trkpt lat="44.41987" lon="1.35784">
        <ele>286</ele>
        <time>2019-04-14T08:32:10Z</time>
      </trkpt>
      <trkpt lat="44.41991" lon="1.35779">
        <ele>286</ele>
        <time>2019-04-14T08:32:11Z</time>
      </trkpt>
      <trkpt lat="44.41993" lon="1.35774">
        <ele>285</ele>
        <time>2019-04-14T08:32:12Z</time>
      </trkpt>
      <trkpt lat="44.41996" lon="1.35769">
        <ele>285</ele>
        <time>2019-04-14T08:32:13Z</time>
      </trkpt>
      <trkpt lat="44.42" lon="1.35764">
        <ele>284</ele>
        <time>2019-04-14T08:32:14Z</time>
      </trkpt>
      <trkpt lat="44.42003" lon="1.35761">
        <ele>284</ele>
        <time>2019-04-14T08:32:15Z</time>
      </trkpt>
      <trkpt lat="44.42006" lon="1.35757">
        <ele>283</ele>
        <time>2019-04-14T08:32:16Z</time>
      </trkpt>
      <trkpt lat="44.42008" lon="1.35753">
        <ele>283</ele>
        <time>2019-04-14T08:32:17Z</time>
      </trkpt>
      <trkpt lat="44.42012" lon="1.35749">
        <ele>282</ele>
        <time>2019-04-14T08:32:18Z</time>
      </trkpt>
      <trkpt lat="44.42015" lon="1.35747">
        <ele>282</ele>
        <time>2019-04-14T08:32:19Z</time>
      </trkpt>
      <trkpt lat="44.42018" lon="1.35744">
        <ele>282</ele>
        <time>2019-04-14T08:32:20Z</time>
      </trkpt>
      <trkpt lat="44.4202" lon="1.35742">
        <ele>281</ele>
        <time>2019-04-14T08:32:21Z</time>
      </trkpt>
      <trkpt lat="44.42023" lon="1.35739">
        <ele>281</ele>
        <time>2019-04-14T08:32:22Z</time>
      </trkpt>
      <trkpt lat="44.42024" lon="1.35737">
        <ele>280</ele>
        <time>2019-04-14T08:32:23Z</time>
      </trkpt>
      <trkpt lat="44.42026" lon="1.35735">
        <ele>280</ele>
        <time>2019-04-14T08:32:24Z</time>
      </trkpt>
      <trkpt lat="44.42027" lon="1.35733">
        <ele>280</ele>
        <time>2019-04-14T08:32:25Z</time>
      </trkpt>
      <trkpt lat="44.42031" lon="1.35731">
        <ele>279</ele>
        <time>2019-04-14T08:32:26Z</time>
      </trkpt>
      <trkpt lat="44.42033" lon="1.3573">
        <ele>279</ele>
        <time>2019-04-14T08:32:27Z</time>
      </trkpt>
      <trkpt lat="44.42037" lon="1.35729">
        <ele>278</ele>
        <time>2019-04-14T08:32:28Z</time>
      </trkpt>
      <trkpt lat="44.42041" lon="1.35729">
        <ele>278</ele>
        <time>2019-04-14T08:32:29Z</time>
      </trkpt>
      <trkpt lat="44.42045" lon="1.3573">
        <ele>278</ele>
        <time>2019-04-14T08:32:30Z</time>
      </trkpt>
      <trkpt lat="44.42049" lon="1.3573">
        <ele>278</ele>
        <time>2019-04-14T08:32:31Z</time>
      </trkpt>
      <trkpt lat="44.42053" lon="1.3573">
        <ele>277</ele>
        <time>2019-04-14T08:32:32Z</time>
      </trkpt>
      <trkpt lat="44.42057" lon="1.3573">
        <ele>277</ele>
        <time>2019-04-14T08:32:33Z</time>
      </trkpt>
      <trkpt lat="44.42061" lon="1.35731">
        <ele>277</ele>
        <time>2019-04-14T08:32:34Z</time>
      </trkpt>
      <trkpt lat="44.42065" lon="1.35733">
        <ele>276</ele>
        <time>2019-04-14T08:32:35Z</time>
      </trkpt>
      <trkpt lat="44.42066" lon="1.35735">
        <ele>276</ele>
        <time>2019-04-14T08:32:36Z</time>
      </trkpt>
      <trkpt lat="44.42067" lon="1.35738">
        <ele>276</ele>
        <time>2019-04-14T08:32:37Z</time>
      </trkpt>
      <trkpt lat="44.42068" lon="1.35741">
        <ele>276</ele>
        <time>2019-04-14T08:32:38Z</time>
      </trkpt>
      <trkpt lat="44.42069" lon="1.35744">
        <ele>276</ele>
        <time>2019-04-14T08:32:39Z</time>
      </trkpt>
      <trkpt lat="44.4207" lon="1.35747">
        <ele>276</ele>
        <time>2019-04-14T08:32:40Z</time>
      </trkpt>
      <trkpt lat="44.4207" lon="1.3575">
        <ele>276</ele>
        <time>2019-04-14T08:32:41Z</time>
      </trkpt>
      <trkpt lat="44.4207" lon="1.35755">
        <ele>276</ele>
        <time>2019-04-14T08:32:42Z</time>
      </trkpt>
      <trkpt lat="44.4207" lon="1.35759">
        <ele>276</ele>
        <time>2019-04-14T08:32:43Z</time>
      </trkpt>
      <trkpt lat="44.4207" lon="1.35763">
        <ele>275</ele>
        <time>2019-04-14T08:32:44Z</time>
      </trkpt>
      <trkpt lat="44.4207" lon="1.35766">
        <ele>275</ele>
        <time>2019-04-14T08:32:45Z</time>
      </trkpt>
      <trkpt lat="44.42069" lon="1.35769">
        <ele>275</ele>
        <time>2019-04-14T08:32:46Z</time>
      </trkpt>
      <trkpt lat="44.42068" lon="1.35772">
        <ele>275</ele>
        <time>2019-04-14T08:32:47Z</time>
      </trkpt>
      <trkpt lat="44.42067" lon="1.35774">
        <ele>275</ele>
        <time>2019-04-14T08:32:48Z</time>
      </trkpt>
      <trkpt lat="44.42066" lon="1.35774">
        <ele>275</ele>
        <time>2019-04-14T08:32:49Z</time>
      </trkpt>
      <trkpt lat="44.42067" lon="1.35774">
        <ele>275</ele>
        <time>2019-04-14T08:32:50Z</time>
      </trkpt>
      <trkpt lat="44.42067" lon="1.35774">
        <ele>275</ele>
        <time>2019-04-14T08:32:51Z</time>
      </trkpt>
      <trkpt lat="44.42067" lon="1.35774">
        <ele>275</ele>
        <time>2019-04-14T08:32:52Z</time>
      </trkpt>
      <trkpt lat="44.42067" lon="1.35774">
        <ele>275</ele>
        <time>2019-04-14T08:32:53Z</time>
      </trkpt>
      <trkpt lat="44.42068" lon="1.35774">
        <ele>275</ele>
        <time>2019-04-14T08:32:54Z</time>
      </trkpt>
      <trkpt lat="44.42068" lon="1.35774">
        <ele>275</ele>
        <time>2019-04-14T08:32:55Z</time>
      </trkpt>
      <trkpt lat="44.42069" lon="1.35774">
        <ele>275</ele>
        <time>2019-04-14T08:32:56Z</time>
      </trkpt>
      <trkpt lat="44.42049" lon="1.35793">
        <ele>278</ele>
        <time>2019-04-14T08:34:45Z</time>
      </trkpt>
      <trkpt lat="44.42049" lon="1.35793">
        <ele>278</ele>
        <time>2019-04-14T08:34:46Z</time>
      </trkpt>
      <trkpt lat="44.42049" lon="1.35794">
        <ele>278</ele>
        <time>2019-04-14T08:34:47Z</time>
      </trkpt>
      <trkpt lat="44.42049" lon="1.35794">
        <ele>278</ele>
        <time>2019-04-14T08:34:48Z</time>
      </trkpt>
      <trkpt lat="44.42049" lon="1.35796">
        <ele>278</ele>
        <time>2019-04-14T08:34:49Z</time>
      </trkpt>
      <trkpt lat="44.42048" lon="1.35797">
        <ele>278</ele>
        <time>2019-04-14T08:34:50Z</time>
      </trkpt>
      <trkpt lat="44.42048" lon="1.35799">
        <ele>278</ele>
        <time>2019-04-14T08:34:51Z</time>
      </trkpt>
      <trkpt lat="44.42047" lon="1.358">
        <ele>278</ele>
        <time>2019-04-14T08:34:52Z</time>
      </trkpt>
      <trkpt lat="44.42034" lon="1.3582">
        <ele>279</ele>
        <time>2019-04-14T08:35:12Z</time>
      </trkpt>
      <trkpt lat="44.42032" lon="1.35822">
        <ele>279</ele>
        <time>2019-04-14T08:35:13Z</time>
      </trkpt>
      <trkpt lat="44.42031" lon="1.35824">
        <ele>279</ele>
        <time>2019-04-14T08:35:14Z</time>
      </trkpt>
      <trkpt lat="44.42029" lon="1.35826">
        <ele>280</ele>
        <time>2019-04-14T08:35:15Z</time>
      </trkpt>
      <trkpt lat="44.42028" lon="1.35828">
        <ele>280</ele>
        <time>2019-04-14T08:35:16Z</time>
      </trkpt>
      <trkpt lat="44.42026" lon="1.3583">
        <ele>280</ele>
        <time>2019-04-14T08:35:17Z</time>
      </trkpt>
      <trkpt lat="44.42025" lon="1.35833">
        <ele>280</ele>
        <time>2019-04-14T08:35:18Z</time>
      </trkpt>
      <trkpt lat="44.42024" lon="1.35835">
        <ele>280</ele>
        <time>2019-04-14T08:35:19Z</time>
      </trkpt>
      <trkpt lat="44.42023" lon="1.35838">
        <ele>281</ele>
        <time>2019-04-14T08:35:20Z</time>
      </trkpt>
      <trkpt lat="44.42022" lon="1.35842">
        <ele>281</ele>
        <time>2019-04-14T08:35:21Z</time>
      </trkpt>
      <trkpt lat="44.42021" lon="1.35846">
        <ele>280</ele>
        <time>2019-04-14T08:35:22Z</time>
      </trkpt>
      <trkpt lat="44.42019" lon="1.35848">
        <ele>280</ele>
        <time>2019-04-14T08:35:23Z</time>
      </trkpt>
      <trkpt lat="44.42017" lon="1.3585">
        <ele>281</ele>
        <time>2019-04-14T08:35:24Z</time>
      </trkpt>
      <trkpt lat="44.42015" lon="1.35852">
        <ele>281</ele>
        <time>2019-04-14T08:35:25Z</time>
      </trkpt>
      <trkpt lat="44.42014" lon="1.35853">
        <ele>282</ele>
        <time>2019-04-14T08:35:26Z</time>
      </trkpt>
      <trkpt lat="44.42013" lon="1.35856">
        <ele>282</ele>
        <time>2019-04-14T08:35:27Z</time>
      </trkpt>
      <trkpt lat="44.42013" lon="1.35858">
        <ele>282</ele>
        <time>2019-04-14T08:35:28Z</time>
      </trkpt>
      <trkpt lat="44.42014" lon="1.35861">
        <ele>282</ele>
        <time>2019-04-14T08:35:29Z</time>
      </trkpt>
      <trkpt lat="44.42014" lon="1.35865">
        <ele>282</ele>
        <time>2019-04-14T08:35:30Z</time>
      </trkpt>
      <trkpt lat="44.42014" lon="1.35867">
        <ele>282</ele>
        <time>2019-04-14T08:35:31Z</time>
      </trkpt>
      <trkpt lat="44.42014" lon="1.3587">
        <ele>282</ele>
        <time>2019-04-14T08:35:32Z</time>
      </trkpt>
      <trkpt lat="44.42015" lon="1.35873">
        <ele>282</ele>
        <time>2019-04-14T08:35:33Z</time>
      </trkpt>
      <trkpt lat="44.42015" lon="1.35876">
        <ele>282</ele>
        <time>2019-04-14T08:35:34Z</time>
      </trkpt>
      <trkpt lat="44.42017" lon="1.3588">
        <ele>281</ele>
        <time>2019-04-14T08:35:35Z</time>
      </trkpt>
      <trkpt lat="44.42019" lon="1.35884">
        <ele>280</ele>
        <time>2019-04-14T08:35:36Z</time>
      </trkpt>
      <trkpt lat="44.4202" lon="1.35889">
        <ele>279</ele>
        <time>2019-04-14T08:35:37Z</time>
      </trkpt>
      <trkpt lat="44.4202" lon="1.35895">
        <ele>278</ele>
        <time>2019-04-14T08:35:38Z</time>
      </trkpt>
      <trkpt lat="44.4202" lon="1.359">
        <ele>278</ele>
        <time>2019-04-14T08:35:39Z</time>
      </trkpt>
      <trkpt lat="44.42021" lon="1.35905">
        <ele>277</ele>
        <time>2019-04-14T08:35:40Z</time>
      </trkpt>
      <trkpt lat="44.42021" lon="1.35908">
        <ele>277</ele>
        <time>2019-04-14T08:35:41Z</time>
      </trkpt>
      <trkpt lat="44.42024" lon="1.35913">
        <ele>276</ele>
        <time>2019-04-14T08:35:42Z</time>
      </trkpt>
      <trkpt lat="44.42026" lon="1.35918">
        <ele>275</ele>
        <time>2019-04-14T08:35:43Z</time>
      </trkpt>
      <trkpt lat="44.42027" lon="1.35923">
        <ele>275</ele>
        <time>2019-04-14T08:35:44Z</time>
      </trkpt>
      <trkpt lat="44.42028" lon="1.35927">
        <ele>275</ele>
        <time>2019-04-14T08:35:45Z</time>
      </trkpt>
      <trkpt lat="44.4203" lon="1.3593">
        <ele>275</ele>
        <time>2019-04-14T08:35:46Z</time>
      </trkpt>
      <trkpt lat="44.42032" lon="1.35935">
        <ele>275</ele>
        <time>2019-04-14T08:35:47Z</time>
      </trkpt>
      <trkpt lat="44.42033" lon="1.35938">
        <ele>275</ele>
        <time>2019-04-14T08:35:48Z</time>
      </trkpt>
      <trkpt lat="44.42034" lon="1.3594">
        <ele>275</ele>
        <time>2019-04-14T08:35:49Z</time>
      </trkpt>
      <trkpt lat="44.42036" lon="1.35943">
        <ele>275</ele>
        <time>2019-04-14T08:35:50Z</time>
      </trkpt>
      <trkpt lat="44.42038" lon="1.35945">
        <ele>275</ele>
        <time>2019-04-14T08:35:51Z</time>
      </trkpt>
      <trkpt lat="44.42041" lon="1.35946">
        <ele>275</ele>
        <time>2019-04-14T08:35:52Z</time>
      </trkpt>
      <trkpt lat="44.42043" lon="1.35948">
        <ele>275</ele>
        <time>2019-04-14T08:35:53Z</time>
      </trkpt>
      <trkpt lat="44.42044" lon="1.3595">
        <ele>276</ele>
        <time>2019-04-14T08:35:54Z</time>
      </trkpt>
      <trkpt lat="44.42045" lon="1.35953">
        <ele>276</ele>
        <time>2019-04-14T08:35:55Z</time>
      </trkpt>
      <trkpt lat="44.42047" lon="1.35956">
        <ele>276</ele>
        <time>2019-04-14T08:35:56Z</time>
      </trkpt>
      <trkpt lat="44.42048" lon="1.35957">
        <ele>277</ele>
        <time>2019-04-14T08:35:57Z</time>
      </trkpt>
      <trkpt lat="44.42048" lon="1.35959">
        <ele>277</ele>
        <time>2019-04-14T08:35:58Z</time>
      </trkpt>
      <trkpt lat="44.42047" lon="1.3596">
        <ele>278</ele>
        <time>2019-04-14T08:35:59Z</time>
      </trkpt>
      <trkpt lat="44.42046" lon="1.35961">
        <ele>278</ele>
        <time>2019-04-14T08:36:00Z</time>
      </trkpt>
      <trkpt lat="44.42046" lon="1.35963">
        <ele>278</ele>
        <time>2019-04-14T08:36:01Z</time>
      </trkpt>
      <trkpt lat="44.42047" lon="1.35964">
        <ele>278</ele>
        <time>2019-04-14T08:36:02Z</time>
      </trkpt>
      <trkpt lat="44.42048" lon="1.35965">
        <ele>278</ele>
        <time>2019-04-14T08:36:03Z</time>
      </trkpt>
      <trkpt lat="44.42048" lon="1.35965">
        <ele>278</ele>
        <time>2019-04-14T08:36:04Z</time>
      </trkpt>
      <trkpt lat="44.42048" lon="1.35965">
        <ele>278</ele>
        <time>2019-04-14T08:36:05Z</time>
      </trkpt>
      <trkpt lat="44.42048" lon="1.35966">
        <ele>278</ele>
        <time>2019-04-14T08:36:06Z</time>
      </trkpt>
      <trkpt lat="44.42049" lon="1.35966">
        <ele>278</ele>
        <time>2019-04-14T08:36:07Z</time>
      </trkpt>
      <trkpt lat="44.42049" lon="1.35966">
        <ele>278</ele>
        <time>2019-04-14T08:36:08Z</time>
      </trkpt>
      <trkpt lat="44.42049" lon="1.35966">
        <ele>278</ele>
        <time>2019-04-14T08:36:09Z</time>
      </trkpt>
      <trkpt lat="44.42065" lon="1.35992">
        <ele>280</ele>
        <time>2019-04-14T08:37:24Z</time>
      </trkpt>
      <trkpt lat="44.42067" lon="1.35992">
        <ele>280</ele>
        <time>2019-04-14T08:37:25Z</time>
      </trkpt>
      <trkpt lat="44.42071" lon="1.35992">
        <ele>280</ele>
        <time>2019-04-14T08:37:26Z</time>
      </trkpt>
      <trkpt lat="44.42074" lon="1.35992">
        <ele>279</ele>
        <time>2019-04-14T08:37:27Z</time>
      </trkpt>
      <trkpt lat="44.42078" lon="1.35991">
        <ele>279</ele>
        <time>2019-04-14T08:37:28Z</time>
      </trkpt>
      <trkpt lat="44.42081" lon="1.35991">
        <ele>279</ele>
        <time>2019-04-14T08:37:29Z</time>
      </trkpt>
      <trkpt lat="44.42085" lon="1.35992">
        <ele>279</ele>
        <time>2019-04-14T08:37:30Z</time>
      </trkpt>
      <trkpt lat="44.42088" lon="1.35992">
        <ele>279</ele>
        <time>2019-04-14T08:37:31Z</time>
      </trkpt>
      <trkpt lat="44.42091" lon="1.35991">
        <ele>279</ele>
        <time>2019-04-14T08:37:32Z</time>
      </trkpt>
      <trkpt lat="44.42093" lon="1.35989">
        <ele>278</ele>
        <time>2019-04-14T08:37:33Z</time>
      </trkpt>
      <trkpt lat="44.42096" lon="1.35987">
        <ele>278</ele>
        <time>2019-04-14T08:37:34Z</time>
      </trkpt>
      <trkpt lat="44.42099" lon="1.35984">
        <ele>277</ele>
        <time>2019-04-14T08:37:35Z</time>
      </trkpt>
      <trkpt lat="44.42101" lon="1.35982">
        <ele>277</ele>
        <time>2019-04-14T08:37:36Z</time>
      </trkpt>
      <trkpt lat="44.42104" lon="1.35981">
        <ele>276</ele>
        <time>2019-04-14T08:37:37Z</time>
      </trkpt>
      <trkpt lat="44.42106" lon="1.35981">
        <ele>276</ele>
        <time>2019-04-14T08:37:38Z</time>
      </trkpt>
      <trkpt lat="44.42109" lon="1.35981">
        <ele>276</ele>
        <time>2019-04-14T08:37:39Z</time>
      </trkpt>
      <trkpt lat="44.42111" lon="1.35981">
        <ele>276</ele>
        <time>2019-04-14T08:37:40Z</time>
      </trkpt>
      <trkpt lat="44.42113" lon="1.35979">
        <ele>276</ele>
        <time>2019-04-14T08:37:41Z</time>
      </trkpt>
      <trkpt lat="44.42116" lon="1.35978">
        <ele>275</ele>
        <time>2019-04-14T08:37:42Z</time>
      </trkpt>
      <trkpt lat="44.42117" lon="1.35977">
        <ele>275</ele>
        <time>2019-04-14T08:37:43Z</time>
      </trkpt>
      <trkpt lat="44.4212" lon="1.35976">
        <ele>274</ele>
        <time>2019-04-14T08:37:44Z</time>
      </trkpt>
      <trkpt lat="44.42124" lon="1.35975">
        <ele>274</ele>
        <time>2019-04-14T08:37:45Z</time>
      </trkpt>
      <trkpt lat="44.42127" lon="1.35975">
        <ele>274</ele>
        <time>2019-04-14T08:37:46Z</time>
      </trkpt>
      <trkpt lat="44.42127" lon="1.35975">
        <ele>274</ele>
        <time>2019-04-14T08:37:47Z</time>
      </trkpt>
      <trkpt lat="44.42127" lon="1.35974">
        <ele>274</ele>
        <time>2019-04-14T08:37:48Z</time>
      </trkpt>
      <trkpt lat="44.42128" lon="1.35973">
        <ele>273</ele>
        <time>2019-04-14T08:37:49Z</time>
      </trkpt>
      <trkpt lat="44.42131" lon="1.3597">
        <ele>273</ele>
        <time>2019-04-14T08:37:50Z</time>
      </trkpt>
      <trkpt lat="44.42134" lon="1.3597">
        <ele>273</ele>
        <time>2019-04-14T08:37:51Z</time>
      </trkpt>
      <trkpt lat="44.42136" lon="1.3597">
        <ele>272</ele>
        <time>2019-04-14T08:37:52Z</time>
      </trkpt>
      <trkpt lat="44.4214" lon="1.3597">
        <ele>272</ele>
        <time>2019-04-14T08:37:53Z</time>
      </trkpt>
      <trkpt lat="44.42142" lon="1.3597">
        <ele>273</ele>
        <time>2019-04-14T08:37:54Z</time>
      </trkpt>
      <trkpt lat="44.42144" lon="1.35969">
        <ele>273</ele>
        <time>2019-04-14T08:37:55Z</time>
      </trkpt>
      <trkpt lat="44.42147" lon="1.35969">
        <ele>272</ele>
        <time>2019-04-14T08:37:56Z</time>
      </trkpt>
      <trkpt lat="44.4215" lon="1.35968">
        <ele>272</ele>
        <time>2019-04-14T08:37:57Z</time>
      </trkpt>
      <trkpt lat="44.42154" lon="1.35967">
        <ele>272</ele>
        <time>2019-04-14T08:37:58Z</time>
      </trkpt>
      <trkpt lat="44.42158" lon="1.35967">
        <ele>272</ele>
        <time>2019-04-14T08:37:59Z</time>
      </trkpt>
      <trkpt lat="44.42163" lon="1.35968">
        <ele>272</ele>
        <time>2019-04-14T08:38:00Z</time>
      </trkpt>
      <trkpt lat="44.42167" lon="1.35969">
        <ele>272</ele>
        <time>2019-04-14T08:38:01Z</time>
      </trkpt>
      <trkpt lat="44.42169" lon="1.35969">
        <ele>272</ele>
        <time>2019-04-14T08:38:02Z</time>
      </trkpt>
      <trkpt lat="44.42171" lon="1.35967">
        <ele>272</ele>
        <time>2019-04-14T08:38:03Z</time>
      </trkpt>
      <trkpt lat="44.42175" lon="1.35966">
        <ele>271</ele>
        <time>2019-04-14T08:38:04Z</time>
      </trkpt>
      <trkpt lat="44.42177" lon="1.35965">
        <ele>271</ele>
        <time>2019-04-14T08:38:05Z</time>
      </trkpt>
      <trkpt lat="44.42178" lon="1.35963">
        <ele>271</ele>
        <time>2019-04-14T08:38:06Z</time>
      </trkpt>
      <trkpt lat="44.42181" lon="1.35961">
        <ele>271</ele>
        <time>2019-04-14T08:38:07Z</time>
      </trkpt>
      <trkpt lat="44.42184" lon="1.35959">
        <ele>270</ele>
        <time>2019-04-14T08:38:08Z</time>
      </trkpt>
      <trkpt lat="44.42186" lon="1.35958">
        <ele>270</ele>
        <time>2019-04-14T08:38:09Z</time>
      </trkpt>
      <trkpt lat="44.42189" lon="1.35956">
        <ele>270</ele>
        <time>2019-04-14T08:38:10Z</time>
      </trkpt>
      <trkpt lat="44.42191" lon="1.35953">
        <ele>270</ele>
        <time>2019-04-14T08:38:11Z</time>
      </trkpt>
      <trkpt lat="44.42193" lon="1.3595">
        <ele>269</ele>
        <time>2019-04-14T08:38:12Z</time>
      </trkpt>
      <trkpt lat="44.42196" lon="1.35948">
        <ele>268</ele>
        <time>2019-04-14T08:38:13Z</time>
      </trkpt>
      <trkpt lat="44.42199" lon="1.35947">
        <ele>268</ele>
        <time>2019-04-14T08:38:14Z</time>
      </trkpt>
      <trkpt lat="44.42202" lon="1.35945">
        <ele>268</ele>
        <time>2019-04-14T08:38:15Z</time>
      </trkpt>
      <trkpt lat="44.42205" lon="1.35944">
        <ele>268</ele>
        <time>2019-04-14T08:38:16Z</time>
      </trkpt>
      <trkpt lat="44.42207" lon="1.35943">
        <ele>268</ele>
        <time>2019-04-14T08:38:17Z</time>
      </trkpt>
      <trkpt lat="44.42208" lon="1.35941">
        <ele>268</ele>
        <time>2019-04-14T08:38:18Z</time>
      </trkpt>
      <trkpt lat="44.4221" lon="1.35939">
        <ele>267</ele>
        <time>2019-04-14T08:38:19Z</time>
      </trkpt>
      <trkpt lat="44.42212" lon="1.35937">
        <ele>267</ele>
        <time>2019-04-14T08:38:20Z</time>
      </trkpt>
      <trkpt lat="44.42214" lon="1.35935">
        <ele>267</ele>
        <time>2019-04-14T08:38:21Z</time>
      </trkpt>
      <trkpt lat="44.42216" lon="1.35933">
        <ele>267</ele>
        <time>2019-04-14T08:38:22Z</time>
      </trkpt>
      <trkpt lat="44.42218" lon="1.35931">
        <ele>266</ele>
        <time>2019-04-14T08:38:23Z</time>
      </trkpt>
      <trkpt lat="44.42221" lon="1.35928">
        <ele>266</ele>
        <time>2019-04-14T08:38:24Z</time>
      </trkpt>
      <trkpt lat="44.42224" lon="1.35926">
        <ele>266</ele>
        <time>2019-04-14T08:38:25Z</time>
      </trkpt>
      <trkpt lat="44.42226" lon="1.35925">
        <ele>266</ele>
        <time>2019-04-14T08:38:26Z</time>
      </trkpt>
      <trkpt lat="44.42228" lon="1.35923">
        <ele>265</ele>
        <time>2019-04-14T08:38:27Z</time>
      </trkpt>
      <trkpt lat="44.4223" lon="1.35921">
        <ele>265</ele>
        <time>2019-04-14T08:38:28Z</time>
      </trkpt>
      <trkpt lat="44.42232" lon="1.35919">
        <ele>265</ele>
        <time>2019-04-14T08:38:29Z</time>
      </trkpt>
      <trkpt lat="44.42235" lon="1.35917">
        <ele>265</ele>
        <time>2019-04-14T08:38:30Z</time>
      </trkpt>
      <trkpt lat="44.42237" lon="1.35915">
        <ele>265</ele>
        <time>2019-04-14T08:38:31Z</time>
      </trkpt>
      <trkpt lat="44.42238" lon="1.35913">
        <ele>265</ele>
        <time>2019-04-14T08:38:32Z</time>
      </trkpt>
      <trkpt lat="44.4224" lon="1.35911">
        <ele>265</ele>
        <time>2019-04-14T08:38:33Z</time>
      </trkpt>
      <trkpt lat="44.42242" lon="1.35909">
        <ele>264</ele>
        <time>2019-04-14T08:38:34Z</time>
      </trkpt>
      <trkpt lat="44.42243" lon="1.35908">
        <ele>264</ele>
        <time>2019-04-14T08:38:35Z</time>
      </trkpt>
      <trkpt lat="44.42244" lon="1.35907">
        <ele>264</ele>
        <time>2019-04-14T08:38:36Z</time>
      </trkpt>
      <trkpt lat="44.42245" lon="1.35906">
        <ele>264</ele>
        <time>2019-04-14T08:38:37Z</time>
      </trkpt>
      <trkpt lat="44.42247" lon="1.35905">
        <ele>264</ele>
        <time>2019-04-14T08:38:38Z</time>
      </trkpt>
      <trkpt lat="44.42247" lon="1.35904">
        <ele>264</ele>
        <time>2019-04-14T08:38:39Z</time>
      </trkpt>
      <trkpt lat="44.42248" lon="1.35903">
        <ele>264</ele>
        <time>2019-04-14T08:38:40Z</time>
      </trkpt>
      <trkpt lat="44.42249" lon="1.35902">
        <ele>264</ele>
        <time>2019-04-14T08:38:41Z</time>
      </trkpt>
      <trkpt lat="44.42249" lon="1.35901">
        <ele>264</ele>
        <time>2019-04-14T08:38:42Z</time>
      </trkpt>
      <trkpt lat="44.4225" lon="1.359">
        <ele>264</ele>
        <time>2019-04-14T08:38:43Z</time>
      </trkpt>
      <trkpt lat="44.42251" lon="1.35898">
        <ele>264</ele>
        <time>2019-04-14T08:38:44Z</time>
      </trkpt>
      <trkpt lat="44.42251" lon="1.35896">
        <ele>264</ele>
        <time>2019-04-14T08:38:45Z</time>
      </trkpt>
      <trkpt lat="44.42253" lon="1.35895">
        <ele>264</ele>
        <time>2019-04-14T08:38:46Z</time>
      </trkpt>
      <trkpt lat="44.42255" lon="1.35894">
        <ele>264</ele>
        <time>2019-04-14T08:38:47Z</time>
      </trkpt>
      <trkpt lat="44.42257" lon="1.35894">
        <ele>264</ele>
        <time>2019-04-14T08:38:48Z</time>
      </trkpt>
      <trkpt lat="44.42259" lon="1.35892">
        <ele>264</ele>
        <time>2019-04-14T08:38:49Z</time>
      </trkpt>
      <trkpt lat="44.4226" lon="1.3589">
        <ele>264</ele>
        <time>2019-04-14T08:38:50Z</time>
      </trkpt>
      <trkpt lat="44.42262" lon="1.35888">
        <ele>264</ele>
        <time>2019-04-14T08:38:51Z</time>
      </trkpt>
      <trkpt lat="44.42264" lon="1.35886">
        <ele>264</ele>
        <time>2019-04-14T08:38:52Z</time>
      </trkpt>
      <trkpt lat="44.42266" lon="1.35882">
        <ele>264</ele>
        <time>2019-04-14T08:38:53Z</time>
      </trkpt>
      <trkpt lat="44.42268" lon="1.35878">
        <ele>263</ele>
        <time>2019-04-14T08:38:54Z</time>
      </trkpt>
      <trkpt lat="44.4227" lon="1.35874">
        <ele>263</ele>
        <time>2019-04-14T08:38:55Z</time>
      </trkpt>
      <trkpt lat="44.42272" lon="1.3587">
        <ele>263</ele>
        <time>2019-04-14T08:38:56Z</time>
      </trkpt>
      <trkpt lat="44.42274" lon="1.35868">
        <ele>263</ele>
        <time>2019-04-14T08:38:57Z</time>
      </trkpt>
      <trkpt lat="44.42276" lon="1.35865">
        <ele>262</ele>
        <time>2019-04-14T08:38:58Z</time>
      </trkpt>
      <trkpt lat="44.42279" lon="1.35863">
        <ele>262</ele>
        <time>2019-04-14T08:38:59Z</time>
      </trkpt>
      <trkpt lat="44.42281" lon="1.35861">
        <ele>262</ele>
        <time>2019-04-14T08:39:00Z</time>
      </trkpt>
      <trkpt lat="44.42283" lon="1.3586">
        <ele>263</ele>
        <time>2019-04-14T08:39:01Z</time>
      </trkpt>
      <trkpt lat="44.42285" lon="1.35859">
        <ele>263</ele>
        <time>2019-04-14T08:39:02Z</time>
      </trkpt>
      <trkpt lat="44.42287" lon="1.35858">
        <ele>263</ele>
        <time>2019-04-14T08:39:03Z</time>
      </trkpt>
      <trkpt lat="44.42288" lon="1.35857">
        <ele>263</ele>
        <time>2019-04-14T08:39:04Z</time>
      </trkpt>
      <trkpt lat="44.4229" lon="1.35855">
        <ele>263</ele>
        <time>2019-04-14T08:39:05Z</time>
      </trkpt>
      <trkpt lat="44.42292" lon="1.35853">
        <ele>263</ele>
        <time>2019-04-14T08:39:06Z</time>
      </trkpt>
      <trkpt lat="44.42295" lon="1.35851">
        <ele>262</ele>
        <time>2019-04-14T08:39:07Z</time>
      </trkpt>
      <trkpt lat="44.42297" lon="1.35849">
        <ele>263</ele>
        <time>2019-04-14T08:39:08Z</time>
      </trkpt>
      <trkpt lat="44.42299" lon="1.35848">
        <ele>263</ele>
        <time>2019-04-14T08:39:09Z</time>
      </trkpt>
      <trkpt lat="44.42301" lon="1.35845">
        <ele>263</ele>
        <time>2019-04-14T08:39:10Z</time>
      </trkpt>
      <trkpt lat="44.42302" lon="1.35842">
        <ele>262</ele>
        <time>2019-04-14T08:39:11Z</time>
      </trkpt>
      <trkpt lat="44.42304" lon="1.35839">
        <ele>262</ele>
        <time>2019-04-14T08:39:12Z</time>
      </trkpt>
      <trkpt lat="44.42306" lon="1.35836">
        <ele>262</ele>
        <time>2019-04-14T08:39:13Z</time>
      </trkpt>
      <trkpt lat="44.42308" lon="1.35834">
        <ele>262</ele>
        <time>2019-04-14T08:39:14Z</time>
      </trkpt>
      <trkpt lat="44.42311" lon="1.35833">
        <ele>262</ele>
        <time>2019-04-14T08:39:15Z</time>
      </trkpt>
      <trkpt lat="44.42313" lon="1.35832">
        <ele>263</ele>
        <time>2019-04-14T08:39:16Z</time>
      </trkpt>
      <trkpt lat="44.42315" lon="1.3583">
        <ele>263</ele>
        <time>2019-04-14T08:39:17Z</time>
      </trkpt>
      <trkpt lat="44.42316" lon="1.35828">
        <ele>263</ele>
        <time>2019-04-14T08:39:18Z</time>
      </trkpt>
      <trkpt lat="44.42317" lon="1.35825">
        <ele>263</ele>
        <time>2019-04-14T08:39:19Z</time>
      </trkpt>
      <trkpt lat="44.42319" lon="1.35823">
        <ele>263</ele>
        <time>2019-04-14T08:39:20Z</time>
      </trkpt>
      <trkpt lat="44.42321" lon="1.3582">
        <ele>263</ele>
        <time>2019-04-14T08:39:21Z</time>
      </trkpt>
      <trkpt lat="44.42322" lon="1.35817">
        <ele>263</ele>
        <time>2019-04-14T08:39:22Z</time>
      </trkpt>
      <trkpt lat="44.42323" lon="1.35814">
        <ele>263</ele>
        <time>2019-04-14T08:39:23Z</time>
      </trkpt>
      <trkpt lat="44.42325" lon="1.35811">
        <ele>263</ele>
        <time>2019-04-14T08:39:24Z</time>
      </trkpt>
      <trkpt lat="44.42327" lon="1.35807">
        <ele>263</ele>
        <time>2019-04-14T08:39:25Z</time>
      </trkpt>
      <trkpt lat="44.42329" lon="1.35804">
        <ele>263</ele>
        <time>2019-04-14T08:39:26Z</time>
      </trkpt>
      <trkpt lat="44.42331" lon="1.35801">
        <ele>263</ele>
        <time>2019-04-14T08:39:27Z</time>
      </trkpt>
      <trkpt lat="44.42332" lon="1.35798">
        <ele>263</ele>
        <time>2019-04-14T08:39:28Z</time>
      </trkpt>
      <trkpt lat="44.42335" lon="1.35795">
        <ele>263</ele>
        <time>2019-04-14T08:39:29Z</time>
      </trkpt>
      <trkpt lat="44.42337" lon="1.35793">
        <ele>263</ele>
        <time>2019-04-14T08:39:30Z</time>
      </trkpt>
      <trkpt lat="44.4234" lon="1.35791">
        <ele>263</ele>
        <time>2019-04-14T08:39:31Z</time>
      </trkpt>
      <trkpt lat="44.42343" lon="1.35789">
        <ele>263</ele>
        <time>2019-04-14T08:39:32Z</time>
      </trkpt>
      <trkpt lat="44.42344" lon="1.35787">
        <ele>263</ele>
        <time>2019-04-14T08:39:33Z</time>
      </trkpt>
      <trkpt lat="44.42346" lon="1.35784">
        <ele>263</ele>
        <time>2019-04-14T08:39:34Z</time>
      </trkpt>
      <trkpt lat="44.42349" lon="1.35783">
        <ele>263</ele>
        <time>2019-04-14T08:39:35Z</time>
      </trkpt>
      <trkpt lat="44.42352" lon="1.35783">
        <ele>264</ele>
        <time>2019-04-14T08:39:36Z</time>
      </trkpt>
      <trkpt lat="44.42354" lon="1.35782">
        <ele>264</ele>
        <time>2019-04-14T08:39:37Z</time>
      </trkpt>
      <trkpt lat="44.42355" lon="1.35781">
        <ele>264</ele>
        <time>2019-04-14T08:39:38Z</time>
      </trkpt>
      <trkpt lat="44.42357" lon="1.3578">
        <ele>264</ele>
        <time>2019-04-14T08:39:39Z</time>
      </trkpt>
      <trkpt lat="44.42359" lon="1.35777">
        <ele>264</ele>
        <time>2019-04-14T08:39:40Z</time>
      </trkpt>
      <trkpt lat="44.4236" lon="1.35776">
        <ele>264</ele>
        <time>2019-04-14T08:39:41Z</time>
      </trkpt>
      <trkpt lat="44.42363" lon="1.35774">
        <ele>265</ele>
        <time>2019-04-14T08:39:42Z</time>
      </trkpt>
      <trkpt lat="44.42364" lon="1.35773">
        <ele>265</ele>
        <time>2019-04-14T08:39:43Z</time>
      </trkpt>
      <trkpt lat="44.42365" lon="1.35772">
        <ele>265</ele>
        <time>2019-04-14T08:39:44Z</time>
      </trkpt>
      <trkpt lat="44.42365" lon="1.35772">
        <ele>265</ele>
        <time>2019-04-14T08:39:45Z</time>
      </trkpt>
      <trkpt lat="44.42365" lon="1.35771">
        <ele>265</ele>
        <time>2019-04-14T08:39:46Z</time>
      </trkpt>
      <trkpt lat="44.42365" lon="1.35771">
        <ele>265</ele>
        <time>2019-04-14T08:39:47Z</time>
      </trkpt>
      <trkpt lat="44.42365" lon="1.3577">
        <ele>265</ele>
        <time>2019-04-14T08:39:48Z</time>
      </trkpt>
      <trkpt lat="44.42364" lon="1.35767">
        <ele>265</ele>
        <time>2019-04-14T08:39:49Z</time>
      </trkpt>
      <trkpt lat="44.42364" lon="1.35763">
        <ele>264</ele>
        <time>2019-04-14T08:39:50Z</time>
      </trkpt>
      <trkpt lat="44.42379" lon="1.3575">
        <ele>265</ele>
        <time>2019-04-14T08:39:56Z</time>
      </trkpt>
      <trkpt lat="44.42382" lon="1.35747">
        <ele>265</ele>
        <time>2019-04-14T08:39:57Z</time>
      </trkpt>
      <trkpt lat="44.42386" lon="1.35746">
        <ele>265</ele>
        <time>2019-04-14T08:39:58Z</time>
      </trkpt>
      <trkpt lat="44.42389" lon="1.35744">
        <ele>265</ele>
        <time>2019-04-14T08:39:59Z</time>
      </trkpt>
      <trkpt lat="44.42391" lon="1.35741">
        <ele>265</ele>
        <time>2019-04-14T08:40:00Z</time>
      </trkpt>
      <trkpt lat="44.42393" lon="1.35735">
        <ele>265</ele>
        <time>2019-04-14T08:40:01Z</time>
      </trkpt>
      <trkpt lat="44.42392" lon="1.35729">
        <ele>265</ele>
        <time>2019-04-14T08:40:02Z</time>
      </trkpt>
      <trkpt lat="44.42391" lon="1.35723">
        <ele>265</ele>
        <time>2019-04-14T08:40:03Z</time>
      </trkpt>
      <trkpt lat="44.42389" lon="1.35717">
        <ele>264</ele>
        <time>2019-04-14T08:40:04Z</time>
      </trkpt>
      <trkpt lat="44.42387" lon="1.35711">
        <ele>264</ele>
        <time>2019-04-14T08:40:05Z</time>
      </trkpt>
      <trkpt lat="44.42385" lon="1.35706">
        <ele>263</ele>
        <time>2019-04-14T08:40:06Z</time>
      </trkpt>
      <trkpt lat="44.42384" lon="1.35701">
        <ele>262</ele>
        <time>2019-04-14T08:40:07Z</time>
      </trkpt>
      <trkpt lat="44.42384" lon="1.35696">
        <ele>261</ele>
        <time>2019-04-14T08:40:08Z</time>
      </trkpt>
      <trkpt lat="44.42383" lon="1.35693">
        <ele>261</ele>
        <time>2019-04-14T08:40:09Z</time>
      </trkpt>
      <trkpt lat="44.42384" lon="1.3569">
        <ele>260</ele>
        <time>2019-04-14T08:40:10Z</time>
      </trkpt>
      <trkpt lat="44.42383" lon="1.35689">
        <ele>260</ele>
        <time>2019-04-14T08:40:11Z</time>
      </trkpt>
      <trkpt lat="44.42384" lon="1.35687">
        <ele>260</ele>
        <time>2019-04-14T08:40:12Z</time>
      </trkpt>
      <trkpt lat="44.42384" lon="1.35686">
        <ele>260</ele>
        <time>2019-04-14T08:40:13Z</time>
      </trkpt>
      <trkpt lat="44.42385" lon="1.35684">
        <ele>259</ele>
        <time>2019-04-14T08:40:14Z</time>
      </trkpt>
      <trkpt lat="44.42385" lon="1.35683">
        <ele>260</ele>
        <time>2019-04-14T08:40:15Z</time>
      </trkpt>
      <trkpt lat="44.42386" lon="1.35682">
        <ele>259</ele>
        <time>2019-04-14T08:40:16Z</time>
      </trkpt>
      <trkpt lat="44.42386" lon="1.35681">
        <ele>259</ele>
        <time>2019-04-14T08:40:17Z</time>
      </trkpt>
      <trkpt lat="44.42387" lon="1.3568">
        <ele>259</ele>
        <time>2019-04-14T08:40:18Z</time>
      </trkpt>
      <trkpt lat="44.42387" lon="1.3568">
        <ele>259</ele>
        <time>2019-04-14T08:40:19Z</time>
      </trkpt>
      <trkpt lat="44.42388" lon="1.3568">
        <ele>259</ele>
        <time>2019-04-14T08:40:20Z</time>
      </trkpt>
      <trkpt lat="44.42389" lon="1.3568">
        <ele>260</ele>
        <time>2019-04-14T08:40:21Z</time>
      </trkpt>
      <trkpt lat="44.42389" lon="1.3568">
        <ele>260</ele>
        <time>2019-04-14T08:40:22Z</time>
      </trkpt>
      <trkpt lat="44.42389" lon="1.35681">
        <ele>260</ele>
        <time>2019-04-14T08:40:23Z</time>
      </trkpt>
      <trkpt lat="44.42389" lon="1.3568">
        <ele>260</ele>
        <time>2019-04-14T08:40:24Z</time>
      </trkpt>
      <trkpt lat="44.42389" lon="1.3568">
        <ele>260</ele>
        <time>2019-04-14T08:40:25Z</time>
      </trkpt>
      <trkpt lat="44.42389" lon="1.3568">
        <ele>260</ele>
        <time>2019-04-14T08:40:26Z</time>
      </trkpt>
      <trkpt lat="44.42389" lon="1.3568">
        <ele>260</ele>
        <time>2019-04-14T08:40:27Z</time>
      </trkpt>
      <trkpt lat="44.42389" lon="1.35679">
        <ele>260</ele>
        <time>2019-04-14T08:40:28Z</time>
      </trkpt>
      <trkpt lat="44.4241" lon="1.35647">
        <ele>258</ele>
        <time>2019-04-14T08:41:13Z</time>
      </trkpt>
      <trkpt lat="44.42414" lon="1.35644">
        <ele>258</ele>
        <time>2019-04-14T08:41:14Z</time>
      </trkpt>
      <trkpt lat="44.42417" lon="1.3564">
        <ele>258</ele>
        <time>2019-04-14T08:41:15Z</time>
      </trkpt>
      <trkpt lat="44.42422" lon="1.35638">
        <ele>259</ele>
        <time>2019-04-14T08:41:16Z</time>
      </trkpt>
      <trkpt lat="44.42427" lon="1.35637">
        <ele>259</ele>
        <time>2019-04-14T08:41:17Z</time>
      </trkpt>
      <trkpt lat="44.42431" lon="1.35636">
        <ele>259</ele>
        <time>2019-04-14T08:41:18Z</time>
      </trkpt>
      <trkpt lat="44.42435" lon="1.35634">
        <ele>260</ele>
        <time>2019-04-14T08:41:19Z</time>
      </trkpt>
      <trkpt lat="44.42439" lon="1.35632">
        <ele>260</ele>
        <time>2019-04-14T08:41:20Z</time>
      </trkpt>
      <trkpt lat="44.42443" lon="1.35632">
        <ele>260</ele>
        <time>2019-04-14T08:41:21Z</time>
      </trkpt>
      <trkpt lat="44.42446" lon="1.35633">
        <ele>261</ele>
        <time>2019-04-14T08:41:22Z</time>
      </trkpt>
      <trkpt lat="44.42449" lon="1.35632">
        <ele>261</ele>
        <time>2019-04-14T08:41:23Z</time>
      </trkpt>
      <trkpt lat="44.42452" lon="1.35631">
        <ele>261</ele>
        <time>2019-04-14T08:41:24Z</time>
      </trkpt>
      <trkpt lat="44.42455" lon="1.35629">
        <ele>261</ele>
        <time>2019-04-14T08:41:25Z</time>
      </trkpt>
      <trkpt lat="44.42457" lon="1.35628">
        <ele>261</ele>
        <time>2019-04-14T08:41:26Z</time>
      </trkpt>
      <trkpt lat="44.42459" lon="1.35627">
        <ele>261</ele>
        <time>2019-04-14T08:41:27Z</time>
      </trkpt>
      <trkpt lat="44.42461" lon="1.35626">
        <ele>261</ele>
        <time>2019-04-14T08:41:28Z</time>
      </trkpt>
      <trkpt lat="44.42462" lon="1.35626">
        <ele>261</ele>
        <time>2019-04-14T08:41:29Z</time>
      </trkpt>
      <trkpt lat="44.42463" lon="1.35626">
        <ele>261</ele>
        <time>2019-04-14T08:41:30Z</time>
      </trkpt>
      <trkpt lat="44.42463" lon="1.35626">
        <ele>261</ele>
        <time>2019-04-14T08:41:31Z</time>
      </trkpt>
      <trkpt lat="44.42464" lon="1.35625">
        <ele>261</ele>
        <time>2019-04-14T08:41:32Z</time>
      </trkpt>
      <trkpt lat="44.42464" lon="1.35626">
        <ele>261</ele>
        <time>2019-04-14T08:41:33Z</time>
      </trkpt>
      <trkpt lat="44.42465" lon="1.35625">
        <ele>261</ele>
        <time>2019-04-14T08:41:34Z</time>
      </trkpt>
      <trkpt lat="44.42466" lon="1.35624">
        <ele>261</ele>
        <time>2019-04-14T08:41:35Z</time>
      </trkpt>
      <trkpt lat="44.42467" lon="1.35623">
        <ele>261</ele>
        <time>2019-04-14T08:41:36Z</time>
      </trkpt>
      <trkpt lat="44.42468" lon="1.35622">
        <ele>261</ele>
        <time>2019-04-14T08:41:37Z</time>
      </trkpt>
      <trkpt lat="44.4248" lon="1.35614">
        <ele>261</ele>
        <time>2019-04-14T08:41:43Z</time>
      </trkpt>
      <trkpt lat="44.42481" lon="1.35613">
        <ele>261</ele>
        <time>2019-04-14T08:41:44Z</time>
      </trkpt>
      <trkpt lat="44.42481" lon="1.35613">
        <ele>261</ele>
        <time>2019-04-14T08:41:45Z</time>
      </trkpt>
      <trkpt lat="44.42481" lon="1.35613">
        <ele>261</ele>
        <time>2019-04-14T08:41:46Z</time>
      </trkpt>
      <trkpt lat="44.42481" lon="1.35612">
        <ele>260</ele>
        <time>2019-04-14T08:41:47Z</time>
      </trkpt>
      <trkpt lat="44.42481" lon="1.35612">
        <ele>260</ele>
        <time>2019-04-14T08:41:48Z</time>
      </trkpt>
      <trkpt lat="44.42482" lon="1.35612">
        <ele>260</ele>
        <time>2019-04-14T08:41:49Z</time>
      </trkpt>
      <trkpt lat="44.42482" lon="1.35612">
        <ele>260</ele>
        <time>2019-04-14T08:41:50Z</time>
      </trkpt>
      <trkpt lat="44.42482" lon="1.35612">
        <ele>260</ele>
        <time>2019-04-14T08:41:51Z</time>
      </trkpt>
      <trkpt lat="44.42482" lon="1.35612">
        <ele>260</ele>
        <time>2019-04-14T08:41:52Z</time>
      </trkpt>
      <trkpt lat="44.42505" lon="1.35587">
        <ele>258</ele>
        <time>2019-04-14T08:42:12Z</time>
      </trkpt>
      <trkpt lat="44.42508" lon="1.35587">
        <ele>258</ele>
        <time>2019-04-14T08:42:13Z</time>
      </trkpt>
      <trkpt lat="44.4251" lon="1.35588">
        <ele>258</ele>
        <time>2019-04-14T08:42:14Z</time>
      </trkpt>
      <trkpt lat="44.42512" lon="1.35588">
        <ele>258</ele>
        <time>2019-04-14T08:42:15Z</time>
      </trkpt>
      <trkpt lat="44.42516" lon="1.35589">
        <ele>259</ele>
        <time>2019-04-14T08:42:16Z</time>
      </trkpt>
      <trkpt lat="44.42518" lon="1.3559">
        <ele>259</ele>
        <time>2019-04-14T08:42:17Z</time>
      </trkpt>
      <trkpt lat="44.4252" lon="1.3559">
        <ele>259</ele>
        <time>2019-04-14T08:42:18Z</time>
      </trkpt>
      <trkpt lat="44.42522" lon="1.35589">
        <ele>259</ele>
        <time>2019-04-14T08:42:19Z</time>
      </trkpt>
      <trkpt lat="44.42526" lon="1.35588">
        <ele>259</ele>
        <time>2019-04-14T08:42:20Z</time>
      </trkpt>
      <trkpt lat="44.4253" lon="1.35587">
        <ele>259</ele>
        <time>2019-04-14T08:42:21Z</time>
      </trkpt>
      <trkpt lat="44.42533" lon="1.35587">
        <ele>259</ele>
        <time>2019-04-14T08:42:22Z</time>
      </trkpt>
      <trkpt lat="44.42536" lon="1.35586">
        <ele>259</ele>
        <time>2019-04-14T08:42:23Z</time>
      </trkpt>
      <trkpt lat="44.42538" lon="1.35585">
        <ele>259</ele>
        <time>2019-04-14T08:42:24Z</time>
      </trkpt>
      <trkpt lat="44.4254" lon="1.35585">
        <ele>259</ele>
        <time>2019-04-14T08:42:25Z</time>
      </trkpt>
      <trkpt lat="44.42541" lon="1.35584">
        <ele>259</ele>
        <time>2019-04-14T08:42:26Z</time>
      </trkpt>
      <trkpt lat="44.42542" lon="1.35584">
        <ele>259</ele>
        <time>2019-04-14T08:42:27Z</time>
      </trkpt>
      <trkpt lat="44.42544" lon="1.35584">
        <ele>259</ele>
        <time>2019-04-14T08:42:28Z</time>
      </trkpt>
      <trkpt lat="44.42546" lon="1.35583">
        <ele>259</ele>
        <time>2019-04-14T08:42:29Z</time>
      </trkpt>
      <trkpt lat="44.42549" lon="1.35583">
        <ele>259</ele>
        <time>2019-04-14T08:42:30Z</time>
      </trkpt>
      <trkpt lat="44.42551" lon="1.3558">
        <ele>258</ele>
        <time>2019-04-14T08:42:31Z</time>
      </trkpt>
      <trkpt lat="44.42553" lon="1.35577">
        <ele>258</ele>
        <time>2019-04-14T08:42:32Z</time>
      </trkpt>
      <trkpt lat="44.42554" lon="1.35573">
        <ele>258</ele>
        <time>2019-04-14T08:42:33Z</time>
      </trkpt>
      <trkpt lat="44.42556" lon="1.3557">
        <ele>257</ele>
        <time>2019-04-14T08:42:34Z</time>
      </trkpt>
      <trkpt lat="44.42559" lon="1.35567">
        <ele>257</ele>
        <time>2019-04-14T08:42:35Z</time>
      </trkpt>
      <trkpt lat="44.42562" lon="1.35564">
        <ele>256</ele>
        <time>2019-04-14T08:42:36Z</time>
      </trkpt>
      <trkpt lat="44.42565" lon="1.35561">
        <ele>256</ele>
        <time>2019-04-14T08:42:37Z</time>
      </trkpt>
      <trkpt lat="44.42567" lon="1.35559">
        <ele>255</ele>
        <time>2019-04-14T08:42:38Z</time>
      </trkpt>
      <trkpt lat="44.4257" lon="1.35557">
        <ele>255</ele>
        <time>2019-04-14T08:42:39Z</time>
      </trkpt>
      <trkpt lat="44.42572" lon="1.35556">
        <ele>255</ele>
        <time>2019-04-14T08:42:40Z</time>
      </trkpt>
      <trkpt lat="44.42575" lon="1.35555">
        <ele>255</ele>
        <time>2019-04-14T08:42:41Z</time>
      </trkpt>
      <trkpt lat="44.42578" lon="1.35554">
        <ele>254</ele>
        <time>2019-04-14T08:42:42Z</time>
      </trkpt>
      <trkpt lat="44.42582" lon="1.35553">
        <ele>254</ele>
        <time>2019-04-14T08:42:43Z</time>
      </trkpt>
      <trkpt lat="44.42586" lon="1.35552">
        <ele>254</ele>
        <time>2019-04-14T08:42:44Z</time>
      </trkpt>
      <trkpt lat="44.42589" lon="1.35552">
        <ele>254</ele>
        <time>2019-04-14T08:42:45Z</time>
      </trkpt>
      <trkpt lat="44.42592" lon="1.35551">
        <ele>254</ele>
        <time>2019-04-14T08:42:46Z</time>
      </trkpt>
      <trkpt lat="44.42594" lon="1.35551">
        <ele>254</ele>
        <time>2019-04-14T08:42:47Z</time>
      </trkpt>
      <trkpt lat="44.42597" lon="1.35552">
        <ele>254</ele>
        <time>2019-04-14T08:42:48Z</time>
      </trkpt>
      <trkpt lat="44.426" lon="1.35552">
        <ele>254</ele>
        <time>2019-04-14T08:42:49Z</time>
      </trkpt>
      <trkpt lat="44.42602" lon="1.35551">
        <ele>254</ele>
        <time>2019-04-14T08:42:50Z</time>
      </trkpt>
      <trkpt lat="44.42604" lon="1.35549">
        <ele>254</ele>
        <time>2019-04-14T08:42:51Z</time>
      </trkpt>
      <trkpt lat="44.42607" lon="1.35549">
        <ele>254</ele>
        <time>2019-04-14T08:42:52Z</time>
      </trkpt>
      <trkpt lat="44.4261" lon="1.35549">
        <ele>254</ele>
        <time>2019-04-14T08:42:53Z</time>
      </trkpt>
      <trkpt lat="44.42612" lon="1.3555">
        <ele>254</ele>
        <time>2019-04-14T08:42:54Z</time>
      </trkpt>
      <trkpt lat="44.42614" lon="1.35549">
        <ele>254</ele>
        <time>2019-04-14T08:42:55Z</time>
      </trkpt>
      <trkpt lat="44.42615" lon="1.35549">
        <ele>253</ele>
        <time>2019-04-14T08:42:56Z</time>
      </trkpt>
      <trkpt lat="44.42619" lon="1.3555">
        <ele>253</ele>
        <time>2019-04-14T08:42:57Z</time>
      </trkpt>
      <trkpt lat="44.42622" lon="1.35552">
        <ele>253</ele>
        <time>2019-04-14T08:42:58Z</time>
      </trkpt>
      <trkpt lat="44.42625" lon="1.35553">
        <ele>253</ele>
        <time>2019-04-14T08:42:59Z</time>
      </trkpt>
      <trkpt lat="44.42627" lon="1.35556">
        <ele>253</ele>
        <time>2019-04-14T08:43:00Z</time>
      </trkpt>
      <trkpt lat="44.4263" lon="1.35559">
        <ele>254</ele>
        <time>2019-04-14T08:43:01Z</time>
      </trkpt>
      <trkpt lat="44.42632" lon="1.35563">
        <ele>254</ele>
        <time>2019-04-14T08:43:02Z</time>
      </trkpt>
      <trkpt lat="44.42633" lon="1.35566">
        <ele>254</ele>
        <time>2019-04-14T08:43:03Z</time>
      </trkpt>
      <trkpt lat="44.42635" lon="1.3557">
        <ele>255</ele>
        <time>2019-04-14T08:43:04Z</time>
      </trkpt>
      <trkpt lat="44.42636" lon="1.35573">
        <ele>255</ele>
        <time>2019-04-14T08:43:05Z</time>
      </trkpt>
      <trkpt lat="44.42638" lon="1.35576">
        <ele>255</ele>
        <time>2019-04-14T08:43:06Z</time>
      </trkpt>
      <trkpt lat="44.42639" lon="1.35579">
        <ele>255</ele>
        <time>2019-04-14T08:43:07Z</time>
      </trkpt>
      <trkpt lat="44.42641" lon="1.35581">
        <ele>255</ele>
        <time>2019-04-14T08:43:08Z</time>
      </trkpt>
      <trkpt lat="44.42641" lon="1.35582">
        <ele>255</ele>
        <time>2019-04-14T08:43:09Z</time>
      </trkpt>
      <trkpt lat="44.42642" lon="1.35582">
        <ele>256</ele>
        <time>2019-04-14T08:43:10Z</time>
      </trkpt>
      <trkpt lat="44.42644" lon="1.35583">
        <ele>255</ele>
        <time>2019-04-14T08:43:11Z</time>
      </trkpt>
      <trkpt lat="44.42646" lon="1.35586">
        <ele>255</ele>
        <time>2019-04-14T08:43:12Z</time>
      </trkpt>
      <trkpt lat="44.42647" lon="1.35588">
        <ele>256</ele>
        <time>2019-04-14T08:43:13Z</time>
      </trkpt>
      <trkpt lat="44.42647" lon="1.3559">
        <ele>256</ele>
        <time>2019-04-14T08:43:14Z</time>
      </trkpt>
      <trkpt lat="44.42648" lon="1.35589">
        <ele>255</ele>
        <time>2019-04-14T08:43:15Z</time>
      </trkpt>
      <trkpt lat="44.42651" lon="1.35587">
        <ele>255</ele>
        <time>2019-04-14T08:43:16Z</time>
      </trkpt>
      <trkpt lat="44.42655" lon="1.35584">
        <ele>255</ele>
        <time>2019-04-14T08:43:17Z</time>
      </trkpt>
      <trkpt lat="44.42658" lon="1.35583">
        <ele>254</ele>
        <time>2019-04-14T08:43:18Z</time>
      </trkpt>
      <trkpt lat="44.42661" lon="1.35583">
        <ele>254</ele>
        <time>2019-04-14T08:43:19Z</time>
      </trkpt>
      <trkpt lat="44.42665" lon="1.35582">
        <ele>254</ele>
        <time>2019-04-14T08:43:20Z</time>
      </trkpt>
      <trkpt lat="44.42669" lon="1.35581">
        <ele>253</ele>
        <time>2019-04-14T08:43:21Z</time>
      </trkpt>
      <trkpt lat="44.42671" lon="1.35582">
        <ele>252</ele>
        <time>2019-04-14T08:43:22Z</time>
      </trkpt>
      <trkpt lat="44.42674" lon="1.35582">
        <ele>252</ele>
        <time>2019-04-14T08:43:23Z</time>
      </trkpt>
      <trkpt lat="44.42678" lon="1.35582">
        <ele>252</ele>
        <time>2019-04-14T08:43:24Z</time>
      </trkpt>
      <trkpt lat="44.42681" lon="1.35581">
        <ele>251</ele>
        <time>2019-04-14T08:43:25Z</time>
      </trkpt>
      <trkpt lat="44.42686" lon="1.35581">
        <ele>251</ele>
        <time>2019-04-14T08:43:26Z</time>
      </trkpt>
      <trkpt lat="44.4269" lon="1.35582">
        <ele>251</ele>
        <time>2019-04-14T08:43:27Z</time>
      </trkpt>
      <trkpt lat="44.42695" lon="1.35584">
        <ele>250</ele>
        <time>2019-04-14T08:43:28Z</time>
      </trkpt>
      <trkpt lat="44.42698" lon="1.35585">
        <ele>250</ele>
        <time>2019-04-14T08:43:29Z</time>
      </trkpt>
      <trkpt lat="44.427" lon="1.35587">
        <ele>250</ele>
        <time>2019-04-14T08:43:30Z</time>
      </trkpt>
      <trkpt lat="44.42704" lon="1.3559">
        <ele>249</ele>
        <time>2019-04-14T08:43:31Z</time>
      </trkpt>
      <trkpt lat="44.42707" lon="1.3559">
        <ele>249</ele>
        <time>2019-04-14T08:43:32Z</time>
      </trkpt>
      <trkpt lat="44.42711" lon="1.3559">
        <ele>249</ele>
        <time>2019-04-14T08:43:33Z</time>
      </trkpt>
      <trkpt lat="44.42715" lon="1.3559">
        <ele>248</ele>
        <time>2019-04-14T08:43:34Z</time>
      </trkpt>
      <trkpt lat="44.42718" lon="1.35591">
        <ele>248</ele>
        <time>2019-04-14T08:43:35Z</time>
      </trkpt>
      <trkpt lat="44.42721" lon="1.35591">
        <ele>247</ele>
        <time>2019-04-14T08:43:36Z</time>
      </trkpt>
      <trkpt lat="44.42723" lon="1.35592">
        <ele>247</ele>
        <time>2019-04-14T08:43:37Z</time>
      </trkpt>
      <trkpt lat="44.42726" lon="1.35591">
        <ele>247</ele>
        <time>2019-04-14T08:43:38Z</time>
      </trkpt>
      <trkpt lat="44.42729" lon="1.35592">
        <ele>246</ele>
        <time>2019-04-14T08:43:39Z</time>
      </trkpt>
      <trkpt lat="44.4273" lon="1.35591">
        <ele>246</ele>
        <time>2019-04-14T08:43:40Z</time>
      </trkpt>
      <trkpt lat="44.42732" lon="1.35591">
        <ele>245</ele>
        <time>2019-04-14T08:43:41Z</time>
      </trkpt>
      <trkpt lat="44.42734" lon="1.35591">
        <ele>245</ele>
        <time>2019-04-14T08:43:42Z</time>
      </trkpt>
      <trkpt lat="44.42737" lon="1.35592">
        <ele>245</ele>
        <time>2019-04-14T08:43:43Z</time>
      </trkpt>
      <trkpt lat="44.42739" lon="1.35595">
        <ele>245</ele>
        <time>2019-04-14T08:43:44Z</time>
      </trkpt>
      <trkpt lat="44.4274" lon="1.35598">
        <ele>245</ele>
        <time>2019-04-14T08:43:45Z</time>
      </trkpt>
      <trkpt lat="44.42741" lon="1.35601">
        <ele>245</ele>
        <time>2019-04-14T08:43:46Z</time>
      </trkpt>
      <trkpt lat="44.42743" lon="1.35604">
        <ele>245</ele>
        <time>2019-04-14T08:43:47Z</time>
      </trkpt>
      <trkpt lat="44.42744" lon="1.35607">
        <ele>245</ele>
        <time>2019-04-14T08:43:48Z</time>
      </trkpt>
      <trkpt lat="44.42746" lon="1.3561">
        <ele>246</ele>
        <time>2019-04-14T08:43:49Z</time>
      </trkpt>
      <trkpt lat="44.42747" lon="1.35612">
        <ele>246</ele>
        <time>2019-04-14T08:43:50Z</time>
      </trkpt>
      <trkpt lat="44.42748" lon="1.35612">
        <ele>245</ele>
        <time>2019-04-14T08:43:51Z</time>
      </trkpt>
      <trkpt lat="44.42749" lon="1.35611">
        <ele>245</ele>
        <time>2019-04-14T08:43:52Z</time>
      </trkpt>
      <trkpt lat="44.42751" lon="1.35609">
        <ele>245</ele>
        <time>2019-04-14T08:43:53Z</time>
      </trkpt>
      <trkpt lat="44.42753" lon="1.35609">
        <ele>245</ele>
        <time>2019-04-14T08:43:54Z</time>
      </trkpt>
      <trkpt lat="44.42755" lon="1.35611">
        <ele>244</ele>
        <time>2019-04-14T08:43:55Z</time>
      </trkpt>
      <trkpt lat="44.42756" lon="1.3561">
        <ele>244</ele>
        <time>2019-04-14T08:43:56Z</time>
      </trkpt>
      <trkpt lat="44.42757" lon="1.35608">
        <ele>244</ele>
        <time>2019-04-14T08:43:57Z</time>
      </trkpt>
      <trkpt lat="44.42759" lon="1.35606">
        <ele>243</ele>
        <time>2019-04-14T08:43:58Z</time>
      </trkpt>
      <trkpt lat="44.42761" lon="1.35605">
        <ele>243</ele>
        <time>2019-04-14T08:43:59Z</time>
      </trkpt>
      <trkpt lat="44.42763" lon="1.35605">
        <ele>243</ele>
        <time>2019-04-14T08:44:00Z</time>
      </trkpt>
      <trkpt lat="44.42766" lon="1.35606">
        <ele>243</ele>
        <time>2019-04-14T08:44:01Z</time>
      </trkpt>
      <trkpt lat="44.42769" lon="1.35607">
        <ele>243</ele>
        <time>2019-04-14T08:44:02Z</time>
      </trkpt>
      <trkpt lat="44.42772" lon="1.35608">
        <ele>242</ele>
        <time>2019-04-14T08:44:03Z</time>
      </trkpt>
      <trkpt lat="44.42775" lon="1.35609">
        <ele>242</ele>
        <time>2019-04-14T08:44:04Z</time>
      </trkpt>
      <trkpt lat="44.42777" lon="1.35609">
        <ele>242</ele>
        <time>2019-04-14T08:44:05Z</time>
      </trkpt>
      <trkpt lat="44.4278" lon="1.35608">
        <ele>242</ele>
        <time>2019-04-14T08:44:06Z</time>
      </trkpt>
      <trkpt lat="44.42785" lon="1.35608">
        <ele>242</ele>
        <time>2019-04-14T08:44:07Z</time>
      </trkpt>
      <trkpt lat="44.42789" lon="1.35607">
        <ele>241</ele>
        <time>2019-04-14T08:44:08Z</time>
      </trkpt>
      <trkpt lat="44.42793" lon="1.35605">
        <ele>241</ele>
        <time>2019-04-14T08:44:09Z</time>
      </trkpt>
      <trkpt lat="44.42797" lon="1.35604">
        <ele>241</ele>
        <time>2019-04-14T08:44:10Z</time>
      </trkpt>
      <trkpt lat="44.428" lon="1.35603">
        <ele>241</ele>
        <time>2019-04-14T08:44:11Z</time>
      </trkpt>
      <trkpt lat="44.42803" lon="1.356">
        <ele>240</ele>
        <time>2019-04-14T08:44:12Z</time>
      </trkpt>
      <trkpt lat="44.42806" lon="1.35598">
        <ele>240</ele>
        <time>2019-04-14T08:44:13Z</time>
      </trkpt>
      <trkpt lat="44.42808" lon="1.35596">
        <ele>240</ele>
        <time>2019-04-14T08:44:14Z</time>
      </trkpt>
      <trkpt lat="44.42811" lon="1.35594">
        <ele>239</ele>
        <time>2019-04-14T08:44:15Z</time>
      </trkpt>
      <trkpt lat="44.42815" lon="1.35593">
        <ele>239</ele>
        <time>2019-04-14T08:44:16Z</time>
      </trkpt>
      <trkpt lat="44.4282" lon="1.35592">
        <ele>239</ele>
        <time>2019-04-14T08:44:17Z</time>
      </trkpt>
      <trkpt lat="44.42823" lon="1.35592">
        <ele>238</ele>
        <time>2019-04-14T08:44:18Z</time>
      </trkpt>
      <trkpt lat="44.42827" lon="1.35592">
        <ele>238</ele>
        <time>2019-04-14T08:44:19Z</time>
      </trkpt>
      <trkpt lat="44.4283" lon="1.35592">
        <ele>238</ele>
        <time>2019-04-14T08:44:20Z</time>
      </trkpt>
      <trkpt lat="44.42832" lon="1.35593">
        <ele>238</ele>
        <time>2019-04-14T08:44:21Z</time>
      </trkpt>
      <trkpt lat="44.42834" lon="1.35596">
        <ele>238</ele>
        <time>2019-04-14T08:44:22Z</time>
      </trkpt>
      <trkpt lat="44.42835" lon="1.35598">
        <ele>239</ele>
        <time>2019-04-14T08:44:23Z</time>
      </trkpt>
      <trkpt lat="44.42836" lon="1.356">
        <ele>239</ele>
        <time>2019-04-14T08:44:24Z</time>
      </trkpt>
      <trkpt lat="44.42838" lon="1.35601">
        <ele>239</ele>
        <time>2019-04-14T08:44:25Z</time>
      </trkpt>
      <trkpt lat="44.4284" lon="1.35603">
        <ele>239</ele>
        <time>2019-04-14T08:44:26Z</time>
      </trkpt>
      <trkpt lat="44.42843" lon="1.35605">
        <ele>240</ele>
        <time>2019-04-14T08:44:27Z</time>
      </trkpt>
      <trkpt lat="44.42845" lon="1.35608">
        <ele>240</ele>
        <time>2019-04-14T08:44:28Z</time>
      </trkpt>
      <trkpt lat="44.42847" lon="1.35611">
        <ele>240</ele>
        <time>2019-04-14T08:44:29Z</time>
      </trkpt>
      <trkpt lat="44.42849" lon="1.35614">
        <ele>240</ele>
        <time>2019-04-14T08:44:30Z</time>
      </trkpt>
      <trkpt lat="44.42853" lon="1.35614">
        <ele>241</ele>
        <time>2019-04-14T08:44:31Z</time>
      </trkpt>
      <trkpt lat="44.42854" lon="1.35613">
        <ele>241</ele>
        <time>2019-04-14T08:44:32Z</time>
      </trkpt>
      <trkpt lat="44.42858" lon="1.35612">
        <ele>240</ele>
        <time>2019-04-14T08:44:33Z</time>
      </trkpt>
      <trkpt lat="44.42861" lon="1.35613">
        <ele>240</ele>
        <time>2019-04-14T08:44:34Z</time>
      </trkpt>
      <trkpt lat="44.42865" lon="1.35614">
        <ele>240</ele>
        <time>2019-04-14T08:44:35Z</time>
      </trkpt>
      <trkpt lat="44.42868" lon="1.35613">
        <ele>240</ele>
        <time>2019-04-14T08:44:36Z</time>
      </trkpt>
      <trkpt lat="44.42872" lon="1.35611">
        <ele>240</ele>
        <time>2019-04-14T08:44:37Z</time>
      </trkpt>
      <trkpt lat="44.42875" lon="1.35609">
        <ele>240</ele>
        <time>2019-04-14T08:44:38Z</time>
      </trkpt>
      <trkpt lat="44.42878" lon="1.35606">
        <ele>240</ele>
        <time>2019-04-14T08:44:39Z</time>
      </trkpt>
      <trkpt lat="44.4288" lon="1.35604">
        <ele>239</ele>
        <time>2019-04-14T08:44:40Z</time>
      </trkpt>
      <trkpt lat="44.42881" lon="1.35604">
        <ele>239</ele>
        <time>2019-04-14T08:44:41Z</time>
      </trkpt>
      <trkpt lat="44.42882" lon="1.35604">
        <ele>239</ele>
        <time>2019-04-14T08:44:42Z</time>
      </trkpt>
      <trkpt lat="44.42882" lon="1.35604">
        <ele>239</ele>
        <time>2019-04-14T08:44:43Z</time>
      </trkpt>
      <trkpt lat="44.42882" lon="1.35604">
        <ele>239</ele>
        <time>2019-04-14T08:44:44Z</time>
      </trkpt>
      <trkpt lat="44.42882" lon="1.35604">
        <ele>239</ele>
        <time>2019-04-14T08:44:45Z</time>
      </trkpt>
      <trkpt lat="44.42883" lon="1.35604">
        <ele>239</ele>
        <time>2019-04-14T08:44:46Z</time>
      </trkpt>
      <trkpt lat="44.42883" lon="1.35605">
        <ele>239</ele>
        <time>2019-04-14T08:44:47Z</time>
      </trkpt>
      <trkpt lat="44.42883" lon="1.35605">
        <ele>239</ele>
        <time>2019-04-14T08:44:48Z</time>
      </trkpt>
      <trkpt lat="44.42906" lon="1.35594">
        <ele>237</ele>
        <time>2019-04-14T08:45:14Z</time>
      </trkpt>
      <trkpt lat="44.42906" lon="1.35594">
        <ele>237</ele>
        <time>2019-04-14T08:45:15Z</time>
      </trkpt>
      <trkpt lat="44.42907" lon="1.35594">
        <ele>237</ele>
        <time>2019-04-14T08:45:16Z</time>
      </trkpt>
      <trkpt lat="44.42907" lon="1.35594">
        <ele>237</ele>
        <time>2019-04-14T08:45:17Z</time>
      </trkpt>
      <trkpt lat="44.42908" lon="1.35594">
        <ele>237</ele>
        <time>2019-04-14T08:45:18Z</time>
      </trkpt>
      <trkpt lat="44.42908" lon="1.35594">
        <ele>237</ele>
        <time>2019-04-14T08:45:19Z</time>
      </trkpt>
      <trkpt lat="44.42908" lon="1.35595">
        <ele>237</ele>
        <time>2019-04-14T08:45:20Z</time>
      </trkpt>
      <trkpt lat="44.42935" lon="1.35573">
        <ele>234</ele>
        <time>2019-04-14T08:46:08Z</time>
      </trkpt>
      <trkpt lat="44.42937" lon="1.3557">
        <ele>233</ele>
        <time>2019-04-14T08:46:09Z</time>
      </trkpt>
      <trkpt lat="44.4294" lon="1.35567">
        <ele>233</ele>
        <time>2019-04-14T08:46:10Z</time>
      </trkpt>
      <trkpt lat="44.42943" lon="1.35564">
        <ele>232</ele>
        <time>2019-04-14T08:46:11Z</time>
      </trkpt>
      <trkpt lat="44.42946" lon="1.35561">
        <ele>232</ele>
        <time>2019-04-14T08:46:12Z</time>
      </trkpt>
      <trkpt lat="44.4295" lon="1.35558">
        <ele>231</ele>
        <time>2019-04-14T08:46:13Z</time>
      </trkpt>
      <trkpt lat="44.42953" lon="1.35556">
        <ele>231</ele>
        <time>2019-04-14T08:46:14Z</time>
      </trkpt>
      <trkpt lat="44.42957" lon="1.35553">
        <ele>230</ele>
        <time>2019-04-14T08:46:15Z</time>
      </trkpt>
      <trkpt lat="44.42961" lon="1.35551">
        <ele>230</ele>
        <time>2019-04-14T08:46:16Z</time>
      </trkpt>
      <trkpt lat="44.42966" lon="1.35548">
        <ele>230</ele>
        <time>2019-04-14T08:46:17Z</time>
      </trkpt>
      <trkpt lat="44.4297" lon="1.35546">
        <ele>230</ele>
        <time>2019-04-14T08:46:18Z</time>
      </trkpt>
      <trkpt lat="44.42974" lon="1.35544">
        <ele>230</ele>
        <time>2019-04-14T08:46:19Z</time>
      </trkpt>
      <trkpt lat="44.42976" lon="1.35542">
        <ele>230</ele>
        <time>2019-04-14T08:46:20Z</time>
      </trkpt>
      <trkpt lat="44.4298" lon="1.35541">
        <ele>230</ele>
        <time>2019-04-14T08:46:21Z</time>
      </trkpt>
      <trkpt lat="44.42983" lon="1.35539">
        <ele>230</ele>
        <time>2019-04-14T08:46:22Z</time>
      </trkpt>
      <trkpt lat="44.42986" lon="1.35538">
        <ele>230</ele>
        <time>2019-04-14T08:46:23Z</time>
      </trkpt>
      <trkpt lat="44.42989" lon="1.35537">
        <ele>230</ele>
        <time>2019-04-14T08:46:24Z</time>
      </trkpt>
      <trkpt lat="44.42992" lon="1.35537">
        <ele>231</ele>
        <time>2019-04-14T08:46:25Z</time>
      </trkpt>
      <trkpt lat="44.42995" lon="1.35537">
        <ele>231</ele>
        <time>2019-04-14T08:46:26Z</time>
      </trkpt>
      <trkpt lat="44.42997" lon="1.35536">
        <ele>231</ele>
        <time>2019-04-14T08:46:27Z</time>
      </trkpt>
      <trkpt lat="44.42998" lon="1.35535">
        <ele>231</ele>
        <time>2019-04-14T08:46:28Z</time>
      </trkpt>
      <trkpt lat="44.43" lon="1.35533">
        <ele>231</ele>
        <time>2019-04-14T08:46:29Z</time>
      </trkpt>
      <trkpt lat="44.43002" lon="1.35528">
        <ele>231</ele>
        <time>2019-04-14T08:46:30Z</time>
      </trkpt>
      <trkpt lat="44.43005" lon="1.35524">
        <ele>231</ele>
        <time>2019-04-14T08:46:31Z</time>
      </trkpt>
      <trkpt lat="44.43009" lon="1.35522">
        <ele>231</ele>
        <time>2019-04-14T08:46:32Z</time>
      </trkpt>
      <trkpt lat="44.43012" lon="1.35519">
        <ele>231</ele>
        <time>2019-04-14T08:46:33Z</time>
      </trkpt>
      <trkpt lat="44.43015" lon="1.35518">
        <ele>231</ele>
        <time>2019-04-14T08:46:34Z</time>
      </trkpt>
      <trkpt lat="44.43018" lon="1.35516">
        <ele>231</ele>
        <time>2019-04-14T08:46:35Z</time>
      </trkpt>
      <trkpt lat="44.4302" lon="1.35514">
        <ele>232</ele>
        <time>2019-04-14T08:46:36Z</time>
      </trkpt>
      <trkpt lat="44.43023" lon="1.35512">
        <ele>232</ele>
        <time>2019-04-14T08:46:37Z</time>
      </trkpt>
      <trkpt lat="44.43026" lon="1.35511">
        <ele>232</ele>
        <time>2019-04-14T08:46:38Z</time>
      </trkpt>
      <trkpt lat="44.43029" lon="1.3551">
        <ele>233</ele>
        <time>2019-04-14T08:46:39Z</time>
      </trkpt>
      <trkpt lat="44.43032" lon="1.35509">
        <ele>233</ele>
        <time>2019-04-14T08:46:40Z</time>
      </trkpt>
      <trkpt lat="44.43034" lon="1.35509">
        <ele>234</ele>
        <time>2019-04-14T08:46:41Z</time>
      </trkpt>
      <trkpt lat="44.43037" lon="1.35509">
        <ele>234</ele>
        <time>2019-04-14T08:46:42Z</time>
      </trkpt>
      <trkpt lat="44.43039" lon="1.35508">
        <ele>234</ele>
        <time>2019-04-14T08:46:43Z</time>
      </trkpt>
      <trkpt lat="44.43041" lon="1.35508">
        <ele>235</ele>
        <time>2019-04-14T08:46:44Z</time>
      </trkpt>
      <trkpt lat="44.43044" lon="1.35506">
        <ele>235</ele>
        <time>2019-04-14T08:46:45Z</time>
      </trkpt>
      <trkpt lat="44.43046" lon="1.35505">
        <ele>235</ele>
        <time>2019-04-14T08:46:46Z</time>
      </trkpt>
      <trkpt lat="44.43047" lon="1.35503">
        <ele>236</ele>
        <time>2019-04-14T08:46:47Z</time>
      </trkpt>
      <trkpt lat="44.43048" lon="1.35501">
        <ele>236</ele>
        <time>2019-04-14T08:46:48Z</time>
      </trkpt>
      <trkpt lat="44.4305" lon="1.35499">
        <ele>236</ele>
        <time>2019-04-14T08:46:49Z</time>
      </trkpt>
      <trkpt lat="44.43052" lon="1.35499">
        <ele>237</ele>
        <time>2019-04-14T08:46:50Z</time>
      </trkpt>
      <trkpt lat="44.43054" lon="1.35499">
        <ele>237</ele>
        <time>2019-04-14T08:46:51Z</time>
      </trkpt>
      <trkpt lat="44.43056" lon="1.355">
        <ele>238</ele>
        <time>2019-04-14T08:46:52Z</time>
      </trkpt>
      <trkpt lat="44.43057" lon="1.35501">
        <ele>238</ele>
        <time>2019-04-14T08:46:53Z</time>
      </trkpt>
      <trkpt lat="44.43059" lon="1.35501">
        <ele>238</ele>
        <time>2019-04-14T08:46:54Z</time>
      </trkpt>
      <trkpt lat="44.43061" lon="1.35501">
        <ele>239</ele>
        <time>2019-04-14T08:46:55Z</time>
      </trkpt>
      <trkpt lat="44.43063" lon="1.35501">
        <ele>239</ele>
        <time>2019-04-14T08:46:56Z</time>
      </trkpt>
      <trkpt lat="44.43065" lon="1.35502">
        <ele>239</ele>
        <time>2019-04-14T08:46:57Z</time>
      </trkpt>
      <trkpt lat="44.43066" lon="1.35502">
        <ele>240</ele>
        <time>2019-04-14T08:46:58Z</time>
      </trkpt>
      <trkpt lat="44.43067" lon="1.35503">
        <ele>240</ele>
        <time>2019-04-14T08:46:59Z</time>
      </trkpt>
      <trkpt lat="44.43068" lon="1.35504">
        <ele>240</ele>
        <time>2019-04-14T08:47:00Z</time>
      </trkpt>
      <trkpt lat="44.43069" lon="1.35506">
        <ele>241</ele>
        <time>2019-04-14T08:47:01Z</time>
      </trkpt>
      <trkpt lat="44.43071" lon="1.35506">
        <ele>241</ele>
        <time>2019-04-14T08:47:02Z</time>
      </trkpt>
      <trkpt lat="44.43073" lon="1.35506">
        <ele>241</ele>
        <time>2019-04-14T08:47:03Z</time>
      </trkpt>
      <trkpt lat="44.43075" lon="1.35505">
        <ele>242</ele>
        <time>2019-04-14T08:47:04Z</time>
      </trkpt>
      <trkpt lat="44.43077" lon="1.35504">
        <ele>242</ele>
        <time>2019-04-14T08:47:05Z</time>
      </trkpt>
      <trkpt lat="44.43079" lon="1.35503">
        <ele>242</ele>
        <time>2019-04-14T08:47:06Z</time>
      </trkpt>
      <trkpt lat="44.43081" lon="1.35502">
        <ele>243</ele>
        <time>2019-04-14T08:47:07Z</time>
      </trkpt>
      <trkpt lat="44.43082" lon="1.35502">
        <ele>243</ele>
        <time>2019-04-14T08:47:08Z</time>
      </trkpt>
      <trkpt lat="44.43084" lon="1.35501">
        <ele>243</ele>
        <time>2019-04-14T08:47:09Z</time>
      </trkpt>
      <trkpt lat="44.43086" lon="1.355">
        <ele>244</ele>
        <time>2019-04-14T08:47:10Z</time>
      </trkpt>
      <trkpt lat="44.43088" lon="1.35499">
        <ele>244</ele>
        <time>2019-04-14T08:47:11Z</time>
      </trkpt>
      <trkpt lat="44.4309" lon="1.35499">
        <ele>244</ele>
        <time>2019-04-14T08:47:12Z</time>
      </trkpt>
      <trkpt lat="44.43092" lon="1.35499">
        <ele>245</ele>
        <time>2019-04-14T08:47:13Z</time>
      </trkpt>
      <trkpt lat="44.43093" lon="1.35499">
        <ele>245</ele>
        <time>2019-04-14T08:47:14Z</time>
      </trkpt>
      <trkpt lat="44.43095" lon="1.35499">
        <ele>245</ele>
        <time>2019-04-14T08:47:15Z</time>
      </trkpt>
      <trkpt lat="44.43097" lon="1.35499">
        <ele>246</ele>
        <time>2019-04-14T08:47:16Z</time>
      </trkpt>
      <trkpt lat="44.43098" lon="1.35499">
        <ele>246</ele>
        <time>2019-04-14T08:47:17Z</time>
      </trkpt>
      <trkpt lat="44.431" lon="1.35499">
        <ele>246</ele>
        <time>2019-04-14T08:47:18Z</time>
      </trkpt>
      <trkpt lat="44.431" lon="1.35498">
        <ele>246</ele>
        <time>2019-04-14T08:47:19Z</time>
      </trkpt>
      <trkpt lat="44.43102" lon="1.35498">
        <ele>247</ele>
        <time>2019-04-14T08:47:20Z</time>
      </trkpt>
      <trkpt lat="44.43103" lon="1.35499">
        <ele>247</ele>
        <time>2019-04-14T08:47:21Z</time>
      </trkpt>
      <trkpt lat="44.43105" lon="1.35499">
        <ele>247</ele>
        <time>2019-04-14T08:47:22Z</time>
      </trkpt>
      <trkpt lat="44.43107" lon="1.35498">
        <ele>247</ele>
        <time>2019-04-14T08:47:23Z</time>
      </trkpt>
      <trkpt lat="44.43108" lon="1.35496">
        <ele>247</ele>
        <time>2019-04-14T08:47:24Z</time>
      </trkpt>
      <trkpt lat="44.43109" lon="1.35494">
        <ele>248</ele>
        <time>2019-04-14T08:47:25Z</time>
      </trkpt>
      <trkpt lat="44.4311" lon="1.35493">
        <ele>248</ele>
        <time>2019-04-14T08:47:26Z</time>
      </trkpt>
      <trkpt lat="44.43111" lon="1.35492">
        <ele>248</ele>
        <time>2019-04-14T08:47:27Z</time>
      </trkpt>
      <trkpt lat="44.43111" lon="1.35489">
        <ele>248</ele>
        <time>2019-04-14T08:47:28Z</time>
      </trkpt>
      <trkpt lat="44.43112" lon="1.35486">
        <ele>248</ele>
        <time>2019-04-14T08:47:29Z</time>
      </trkpt>
      <trkpt lat="44.43112" lon="1.35483">
        <ele>248</ele>
        <time>2019-04-14T08:47:30Z</time>
      </trkpt>
      <trkpt lat="44.43112" lon="1.3548">
        <ele>248</ele>
        <time>2019-04-14T08:47:31Z</time>
      </trkpt>
      <trkpt lat="44.43111" lon="1.35476">
        <ele>247</ele>
        <time>2019-04-14T08:47:32Z</time>
      </trkpt>
      <trkpt lat="44.43111" lon="1.35472">
        <ele>247</ele>
        <time>2019-04-14T08:47:33Z</time>
      </trkpt>
      <trkpt lat="44.43113" lon="1.35468">
        <ele>246</ele>
        <time>2019-04-14T08:47:34Z</time>
      </trkpt>
      <trkpt lat="44.43114" lon="1.35464">
        <ele>246</ele>
        <time>2019-04-14T08:47:35Z</time>
      </trkpt>
      <trkpt lat="44.43116" lon="1.35461">
        <ele>246</ele>
        <time>2019-04-14T08:47:36Z</time>
      </trkpt>
      <trkpt lat="44.43118" lon="1.35459">
        <ele>246</ele>
        <time>2019-04-14T08:47:37Z</time>
      </trkpt>
      <trkpt lat="44.43119" lon="1.35454">
        <ele>246</ele>
        <time>2019-04-14T08:47:38Z</time>
      </trkpt>
      <trkpt lat="44.43119" lon="1.35449">
        <ele>245</ele>
        <time>2019-04-14T08:47:39Z</time>
      </trkpt>
      <trkpt lat="44.4312" lon="1.35443">
        <ele>244</ele>
        <time>2019-04-14T08:47:40Z</time>
      </trkpt>
      <trkpt lat="44.43122" lon="1.35437">
        <ele>243</ele>
        <time>2019-04-14T08:47:41Z</time>
      </trkpt>
      <trkpt lat="44.43125" lon="1.35432">
        <ele>242</ele>
        <time>2019-04-14T08:47:42Z</time>
      </trkpt>
      <trkpt lat="44.43128" lon="1.35427">
        <ele>242</ele>
        <time>2019-04-14T08:47:43Z</time>
      </trkpt>
      <trkpt lat="44.43134" lon="1.35426">
        <ele>242</ele>
        <time>2019-04-14T08:47:44Z</time>
      </trkpt>
      <trkpt lat="44.43138" lon="1.35423">
        <ele>241</ele>
        <time>2019-04-14T08:47:45Z</time>
      </trkpt>
      <trkpt lat="44.43142" lon="1.35421">
        <ele>241</ele>
        <time>2019-04-14T08:47:46Z</time>
      </trkpt>
      <trkpt lat="44.43145" lon="1.3542">
        <ele>241</ele>
        <time>2019-04-14T08:47:47Z</time>
      </trkpt>
      <trkpt lat="44.43147" lon="1.3542">
        <ele>241</ele>
        <time>2019-04-14T08:47:48Z</time>
      </trkpt>
      <trkpt lat="44.4315" lon="1.35422">
        <ele>242</ele>
        <time>2019-04-14T08:47:49Z</time>
      </trkpt>
      <trkpt lat="44.43151" lon="1.35423">
        <ele>242</ele>
        <time>2019-04-14T08:47:50Z</time>
      </trkpt>
      <trkpt lat="44.43153" lon="1.35424">
        <ele>243</ele>
        <time>2019-04-14T08:47:51Z</time>
      </trkpt>
      <trkpt lat="44.43155" lon="1.35424">
        <ele>244</ele>
        <time>2019-04-14T08:47:52Z</time>
      </trkpt>
      <trkpt lat="44.43157" lon="1.35422">
        <ele>244</ele>
        <time>2019-04-14T08:47:53Z</time>
      </trkpt>
      <trkpt lat="44.4316" lon="1.35421">
        <ele>243</ele>
        <time>2019-04-14T08:47:54Z</time>
      </trkpt>
      <trkpt lat="44.43163" lon="1.35418">
        <ele>243</ele>
        <time>2019-04-14T08:47:55Z</time>
      </trkpt>
      <trkpt lat="44.43166" lon="1.35415">
        <ele>243</ele>
        <time>2019-04-14T08:47:56Z</time>
      </trkpt>
      <trkpt lat="44.4317" lon="1.35413">
        <ele>242</ele>
        <time>2019-04-14T08:47:57Z</time>
      </trkpt>
      <trkpt lat="44.43174" lon="1.35411">
        <ele>242</ele>
        <time>2019-04-14T08:47:58Z</time>
      </trkpt>
      <trkpt lat="44.43177" lon="1.35409">
        <ele>242</ele>
        <time>2019-04-14T08:47:59Z</time>
      </trkpt>
      <trkpt lat="44.4318" lon="1.35407">
        <ele>241</ele>
        <time>2019-04-14T08:48:00Z</time>
      </trkpt>
      <trkpt lat="44.43184" lon="1.35406">
        <ele>241</ele>
        <time>2019-04-14T08:48:01Z</time>
      </trkpt>
      <trkpt lat="44.43188" lon="1.35406">
        <ele>241</ele>
        <time>2019-04-14T08:48:02Z</time>
      </trkpt>
      <trkpt lat="44.43192" lon="1.35406">
        <ele>241</ele>
        <time>2019-04-14T08:48:03Z</time>
      </trkpt>
      <trkpt lat="44.43197" lon="1.35407">
        <ele>241</ele>
        <time>2019-04-14T08:48:04Z</time>
      </trkpt>
      <trkpt lat="44.432" lon="1.35409">
        <ele>241</ele>
        <time>2019-04-14T08:48:05Z</time>
      </trkpt>
      <trkpt lat="44.43202" lon="1.35411">
        <ele>241</ele>
        <time>2019-04-14T08:48:06Z</time>
      </trkpt>
      <trkpt lat="44.43204" lon="1.35413">
        <ele>241</ele>
        <time>2019-04-14T08:48:07Z</time>
      </trkpt>
      <trkpt lat="44.43206" lon="1.35415">
        <ele>241</ele>
        <time>2019-04-14T08:48:08Z</time>
      </trkpt>
      <trkpt lat="44.43208" lon="1.35418">
        <ele>241</ele>
        <time>2019-04-14T08:48:09Z</time>
      </trkpt>
      <trkpt lat="44.4321" lon="1.35421">
        <ele>240</ele>
        <time>2019-04-14T08:48:10Z</time>
      </trkpt>
      <trkpt lat="44.43212" lon="1.35424">
        <ele>240</ele>
        <time>2019-04-14T08:48:11Z</time>
      </trkpt>
      <trkpt lat="44.43216" lon="1.35426">
        <ele>240</ele>
        <time>2019-04-14T08:48:12Z</time>
      </trkpt>
      <trkpt lat="44.43219" lon="1.35428">
        <ele>240</ele>
        <time>2019-04-14T08:48:13Z</time>
      </trkpt>
      <trkpt lat="44.43224" lon="1.3543">
        <ele>239</ele>
        <time>2019-04-14T08:48:14Z</time>
      </trkpt>
      <trkpt lat="44.43228" lon="1.35434">
        <ele>239</ele>
        <time>2019-04-14T08:48:15Z</time>
      </trkpt>
      <trkpt lat="44.43231" lon="1.35437">
        <ele>239</ele>
        <time>2019-04-14T08:48:16Z</time>
      </trkpt>
      <trkpt lat="44.43233" lon="1.35439">
        <ele>239</ele>
        <time>2019-04-14T08:48:17Z</time>
      </trkpt>
      <trkpt lat="44.43235" lon="1.3544">
        <ele>239</ele>
        <time>2019-04-14T08:48:18Z</time>
      </trkpt>
      <trkpt lat="44.43238" lon="1.35441">
        <ele>239</ele>
        <time>2019-04-14T08:48:19Z</time>
      </trkpt>
      <trkpt lat="44.43239" lon="1.35441">
        <ele>239</ele>
        <time>2019-04-14T08:48:20Z</time>
      </trkpt>
      <trkpt lat="44.43239" lon="1.35442">
        <ele>239</ele>
        <time>2019-04-14T08:48:21Z</time>
      </trkpt>
      <trkpt lat="44.43239" lon="1.35442">
        <ele>239</ele>
        <time>2019-04-14T08:48:22Z</time>
      </trkpt>
      <trkpt lat="44.4324" lon="1.35442">
        <ele>239</ele>
        <time>2019-04-14T08:48:23Z</time>
      </trkpt>
      <trkpt lat="44.4324" lon="1.35442">
        <ele>239</ele>
        <time>2019-04-14T08:48:24Z</time>
      </trkpt>
      <trkpt lat="44.43241" lon="1.35442">
        <ele>239</ele>
        <time>2019-04-14T08:48:25Z</time>
      </trkpt>
      <trkpt lat="44.43241" lon="1.35443">
        <ele>239</ele>
        <time>2019-04-14T08:48:26Z</time>
      </trkpt>
      <trkpt lat="44.43242" lon="1.35443">
        <ele>239</ele>
        <time>2019-04-14T08:48:27Z</time>
      </trkpt>
      <trkpt lat="44.43257" lon="1.35459">
        <ele>242</ele>
        <time>2019-04-14T08:52:38Z</time>
      </trkpt>
      <trkpt lat="44.43258" lon="1.3546">
        <ele>242</ele>
        <time>2019-04-14T08:52:39Z</time>
      </trkpt>
      <trkpt lat="44.4326" lon="1.35461">
        <ele>242</ele>
        <time>2019-04-14T08:52:40Z</time>
      </trkpt>
      <trkpt lat="44.43262" lon="1.35463">
        <ele>243</ele>
        <time>2019-04-14T08:52:41Z</time>
      </trkpt>
      <trkpt lat="44.43263" lon="1.35464">
        <ele>243</ele>
        <time>2019-04-14T08:52:42Z</time>
      </trkpt>
      <trkpt lat="44.43265" lon="1.35463">
        <ele>243</ele>
        <time>2019-04-14T08:52:43Z</time>
      </trkpt>
      <trkpt lat="44.43269" lon="1.35463">
        <ele>243</ele>
        <time>2019-04-14T08:52:44Z</time>
      </trkpt>
      <trkpt lat="44.43272" lon="1.35464">
        <ele>243</ele>
        <time>2019-04-14T08:52:45Z</time>
      </trkpt>
      <trkpt lat="44.43275" lon="1.35463">
        <ele>243</ele>
        <time>2019-04-14T08:52:46Z</time>
      </trkpt>
      <trkpt lat="44.43277" lon="1.35463">
        <ele>243</ele>
        <time>2019-04-14T08:52:47Z</time>
      </trkpt>
      <trkpt lat="44.4328" lon="1.35463">
        <ele>243</ele>
        <time>2019-04-14T08:52:48Z</time>
      </trkpt>
      <trkpt lat="44.43284" lon="1.35462">
        <ele>243</ele>
        <time>2019-04-14T08:52:49Z</time>
      </trkpt>
      <trkpt lat="44.43286" lon="1.35462">
        <ele>244</ele>
        <time>2019-04-14T08:52:50Z</time>
      </trkpt>
      <trkpt lat="44.4329" lon="1.35462">
        <ele>244</ele>
        <time>2019-04-14T08:52:51Z</time>
      </trkpt>
      <trkpt lat="44.43293" lon="1.35462">
        <ele>244</ele>
        <time>2019-04-14T08:52:52Z</time>
      </trkpt>
      <trkpt lat="44.43295" lon="1.35461">
        <ele>244</ele>
        <time>2019-04-14T08:52:53Z</time>
      </trkpt>
      <trkpt lat="44.43297" lon="1.35459">
        <ele>244</ele>
        <time>2019-04-14T08:52:54Z</time>
      </trkpt>
      <trkpt lat="44.433" lon="1.35456">
        <ele>243</ele>
        <time>2019-04-14T08:52:55Z</time>
      </trkpt>
      <trkpt lat="44.43303" lon="1.35453">
        <ele>243</ele>
        <time>2019-04-14T08:52:56Z</time>
      </trkpt>
      <trkpt lat="44.43307" lon="1.35449">
        <ele>243</ele>
        <time>2019-04-14T08:52:57Z</time>
      </trkpt>
      <trkpt lat="44.43311" lon="1.35446">
        <ele>243</ele>
        <time>2019-04-14T08:52:58Z</time>
      </trkpt>
      <trkpt lat="44.43314" lon="1.35442">
        <ele>243</ele>
        <time>2019-04-14T08:52:59Z</time>
      </trkpt>
      <trkpt lat="44.43318" lon="1.3544">
        <ele>243</ele>
        <time>2019-04-14T08:53:00Z</time>
      </trkpt>
      <trkpt lat="44.43321" lon="1.3544">
        <ele>243</ele>
        <time>2019-04-14T08:53:01Z</time>
      </trkpt>
      <trkpt lat="44.43323" lon="1.35439">
        <ele>243</ele>
        <time>2019-04-14T08:53:02Z</time>
      </trkpt>
      <trkpt lat="44.43324" lon="1.35439">
        <ele>243</ele>
        <time>2019-04-14T08:53:03Z</time>
      </trkpt>
      <trkpt lat="44.43326" lon="1.35438">
        <ele>243</ele>
        <time>2019-04-14T08:53:04Z</time>
      </trkpt>
      <trkpt lat="44.43327" lon="1.35436">
        <ele>243</ele>
        <time>2019-04-14T08:53:05Z</time>
      </trkpt>
      <trkpt lat="44.43329" lon="1.35433">
        <ele>243</ele>
        <time>2019-04-14T08:53:06Z</time>
      </trkpt>
      <trkpt lat="44.4333" lon="1.3543">
        <ele>242</ele>
        <time>2019-04-14T08:53:07Z</time>
      </trkpt>
      <trkpt lat="44.4333" lon="1.35427">
        <ele>242</ele>
        <time>2019-04-14T08:53:08Z</time>
      </trkpt>
      <trkpt lat="44.43331" lon="1.35423">
        <ele>241</ele>
        <time>2019-04-14T08:53:09Z</time>
      </trkpt>
      <trkpt lat="44.43333" lon="1.35421">
        <ele>241</ele>
        <time>2019-04-14T08:53:10Z</time>
      </trkpt>
      <trkpt lat="44.43335" lon="1.35419">
        <ele>241</ele>
        <time>2019-04-14T08:53:11Z</time>
      </trkpt>
      <trkpt lat="44.43336" lon="1.35417">
        <ele>241</ele>
        <time>2019-04-14T08:53:12Z</time>
      </trkpt>
      <trkpt lat="44.43338" lon="1.35415">
        <ele>240</ele>
        <time>2019-04-14T08:53:13Z</time>
      </trkpt>
      <trkpt lat="44.43339" lon="1.35412">
        <ele>240</ele>
        <time>2019-04-14T08:53:14Z</time>
      </trkpt>
      <trkpt lat="44.43342" lon="1.35409">
        <ele>239</ele>
        <time>2019-04-14T08:53:15Z</time>
      </trkpt>
      <trkpt lat="44.43344" lon="1.35407">
        <ele>239</ele>
        <time>2019-04-14T08:53:16Z</time>
      </trkpt>
      <trkpt lat="44.43347" lon="1.35405">
        <ele>239</ele>
        <time>2019-04-14T08:53:17Z</time>
      </trkpt>
      <trkpt lat="44.4335" lon="1.35403">
        <ele>239</ele>
        <time>2019-04-14T08:53:18Z</time>
      </trkpt>
      <trkpt lat="44.43354" lon="1.35401">
        <ele>239</ele>
        <time>2019-04-14T08:53:19Z</time>
      </trkpt>
      <trkpt lat="44.43357" lon="1.35399">
        <ele>238</ele>
        <time>2019-04-14T08:53:20Z</time>
      </trkpt>
      <trkpt lat="44.43359" lon="1.35397">
        <ele>239</ele>
        <time>2019-04-14T08:53:21Z</time>
      </trkpt>
      <trkpt lat="44.43361" lon="1.35394">
        <ele>238</ele>
        <time>2019-04-14T08:53:22Z</time>
      </trkpt>
      <trkpt lat="44.43362" lon="1.35392">
        <ele>238</ele>
        <time>2019-04-14T08:53:23Z</time>
      </trkpt>
      <trkpt lat="44.43363" lon="1.35391">
        <ele>238</ele>
        <time>2019-04-14T08:53:24Z</time>
      </trkpt>
      <trkpt lat="44.43364" lon="1.3539">
        <ele>238</ele>
        <time>2019-04-14T08:53:25Z</time>
      </trkpt>
      <trkpt lat="44.43364" lon="1.3539">
        <ele>238</ele>
        <time>2019-04-14T08:53:26Z</time>
      </trkpt>
      <trkpt lat="44.43364" lon="1.35389">
        <ele>237</ele>
        <time>2019-04-14T08:53:27Z</time>
      </trkpt>
      <trkpt lat="44.43364" lon="1.35389">
        <ele>237</ele>
        <time>2019-04-14T08:53:28Z</time>
      </trkpt>
      <trkpt lat="44.43364" lon="1.35389">
        <ele>237</ele>
        <time>2019-04-14T08:53:29Z</time>
      </trkpt>
      <trkpt lat="44.43365" lon="1.35389">
        <ele>237</ele>
        <time>2019-04-14T08:53:30Z</time>
      </trkpt>
      <trkpt lat="44.43365" lon="1.35388">
        <ele>237</ele>
        <time>2019-04-14T08:53:31Z</time>
      </trkpt>
      <trkpt lat="44.43365" lon="1.35388">
        <ele>237</ele>
        <time>2019-04-14T08:53:32Z</time>
      </trkpt>
      <trkpt lat="44.4339" lon="1.35359">
        <ele>235</ele>
        <time>2019-04-14T08:54:00Z</time>
      </trkpt>
      <trkpt lat="44.43393" lon="1.35359">
        <ele>235</ele>
        <time>2019-04-14T08:54:01Z</time>
      </trkpt>
      <trkpt lat="44.43395" lon="1.35358">
        <ele>235</ele>
        <time>2019-04-14T08:54:02Z</time>
      </trkpt>
      <trkpt lat="44.43397" lon="1.35357">
        <ele>235</ele>
        <time>2019-04-14T08:54:03Z</time>
      </trkpt>
      <trkpt lat="44.43398" lon="1.35357">
        <ele>235</ele>
        <time>2019-04-14T08:54:04Z</time>
      </trkpt>
      <trkpt lat="44.43399" lon="1.35357">
        <ele>234</ele>
        <time>2019-04-14T08:54:05Z</time>
      </trkpt>
      <trkpt lat="44.43399" lon="1.35356">
        <ele>234</ele>
        <time>2019-04-14T08:54:06Z</time>
      </trkpt>
      <trkpt lat="44.434" lon="1.35355">
        <ele>234</ele>
        <time>2019-04-14T08:54:07Z</time>
      </trkpt>
      <trkpt lat="44.43401" lon="1.35354">
        <ele>234</ele>
        <time>2019-04-14T08:54:08Z</time>
      </trkpt>
      <trkpt lat="44.43401" lon="1.35353">
        <ele>234</ele>
        <time>2019-04-14T08:54:09Z</time>
      </trkpt>
      <trkpt lat="44.43402" lon="1.35352">
        <ele>234</ele>
        <time>2019-04-14T08:54:10Z</time>
      </trkpt>
      <trkpt lat="44.43402" lon="1.35351">
        <ele>234</ele>
        <time>2019-04-14T08:54:11Z</time>
      </trkpt>
      <trkpt lat="44.43403" lon="1.3535">
        <ele>233</ele>
        <time>2019-04-14T08:54:12Z</time>
      </trkpt>
      <trkpt lat="44.43403" lon="1.35348">
        <ele>233</ele>
        <time>2019-04-14T08:54:13Z</time>
      </trkpt>
      <trkpt lat="44.43404" lon="1.35347">
        <ele>233</ele>
        <time>2019-04-14T08:54:14Z</time>
      </trkpt>
      <trkpt lat="44.43404" lon="1.35346">
        <ele>233</ele>
        <time>2019-04-14T08:54:15Z</time>
      </trkpt>
      <trkpt lat="44.43405" lon="1.35345">
        <ele>233</ele>
        <time>2019-04-14T08:54:16Z</time>
      </trkpt>
      <trkpt lat="44.43405" lon="1.35343">
        <ele>232</ele>
        <time>2019-04-14T08:54:17Z</time>
      </trkpt>
      <trkpt lat="44.43406" lon="1.35341">
        <ele>232</ele>
        <time>2019-04-14T08:54:18Z</time>
      </trkpt>
      <trkpt lat="44.43407" lon="1.35341">
        <ele>232</ele>
        <time>2019-04-14T08:54:19Z</time>
      </trkpt>
      <trkpt lat="44.43408" lon="1.3534">
        <ele>232</ele>
        <time>2019-04-14T08:54:20Z</time>
      </trkpt>
      <trkpt lat="44.43409" lon="1.3534">
        <ele>232</ele>
        <time>2019-04-14T08:54:21Z</time>
      </trkpt>
      <trkpt lat="44.4341" lon="1.3534">
        <ele>232</ele>
        <time>2019-04-14T08:54:22Z</time>
      </trkpt>
      <trkpt lat="44.43412" lon="1.35339">
        <ele>232</ele>
        <time>2019-04-14T08:54:23Z</time>
      </trkpt>
      <trkpt lat="44.43414" lon="1.35339">
        <ele>232</ele>
        <time>2019-04-14T08:54:24Z</time>
      </trkpt>
      <trkpt lat="44.43417" lon="1.35339">
        <ele>232</ele>
        <time>2019-04-14T08:54:25Z</time>
      </trkpt>
      <trkpt lat="44.4342" lon="1.3534">
        <ele>232</ele>
        <time>2019-04-14T08:54:26Z</time>
      </trkpt>
      <trkpt lat="44.43422" lon="1.3534">
        <ele>232</ele>
        <time>2019-04-14T08:54:27Z</time>
      </trkpt>
      <trkpt lat="44.43424" lon="1.35341">
        <ele>232</ele>
        <time>2019-04-14T08:54:28Z</time>
      </trkpt>
      <trkpt lat="44.43427" lon="1.35342">
        <ele>232</ele>
        <time>2019-04-14T08:54:29Z</time>
      </trkpt>
      <trkpt lat="44.43429" lon="1.35343">
        <ele>232</ele>
        <time>2019-04-14T08:54:30Z</time>
      </trkpt>
      <trkpt lat="44.43431" lon="1.35344">
        <ele>231</ele>
        <time>2019-04-14T08:54:31Z</time>
      </trkpt>
      <trkpt lat="44.43434" lon="1.35346">
        <ele>231</ele>
        <time>2019-04-14T08:54:32Z</time>
      </trkpt>
      <trkpt lat="44.43436" lon="1.35348">
        <ele>231</ele>
        <time>2019-04-14T08:54:33Z</time>
      </trkpt>
      <trkpt lat="44.43437" lon="1.3535">
        <ele>232</ele>
        <time>2019-04-14T08:54:34Z</time>
      </trkpt>
      <trkpt lat="44.43438" lon="1.35354">
        <ele>231</ele>
        <time>2019-04-14T08:54:35Z</time>
      </trkpt>
      <trkpt lat="44.4344" lon="1.35357">
        <ele>231</ele>
        <time>2019-04-14T08:54:36Z</time>
      </trkpt>
      <trkpt lat="44.43441" lon="1.3536">
        <ele>231</ele>
        <time>2019-04-14T08:54:37Z</time>
      </trkpt>
      <trkpt lat="44.43442" lon="1.35363">
        <ele>231</ele>
        <time>2019-04-14T08:54:38Z</time>
      </trkpt>
      <trkpt lat="44.43442" lon="1.35367">
        <ele>231</ele>
        <time>2019-04-14T08:54:39Z</time>
      </trkpt>
      <trkpt lat="44.43443" lon="1.35371">
        <ele>231</ele>
        <time>2019-04-14T08:54:40Z</time>
      </trkpt>
      <trkpt lat="44.43443" lon="1.35375">
        <ele>232</ele>
        <time>2019-04-14T08:54:41Z</time>
      </trkpt>
      <trkpt lat="44.43443" lon="1.35377">
        <ele>233</ele>
        <time>2019-04-14T08:54:42Z</time>
      </trkpt>
      <trkpt lat="44.43442" lon="1.35379">
        <ele>233</ele>
        <time>2019-04-14T08:54:43Z</time>
      </trkpt>
      <trkpt lat="44.43442" lon="1.35381">
        <ele>233</ele>
        <time>2019-04-14T08:54:44Z</time>
      </trkpt>
      <trkpt lat="44.43442" lon="1.35383">
        <ele>233</ele>
        <time>2019-04-14T08:54:45Z</time>
      </trkpt>
      <trkpt lat="44.43441" lon="1.35386">
        <ele>234</ele>
        <time>2019-04-14T08:54:46Z</time>
      </trkpt>
      <trkpt lat="44.4344" lon="1.35389">
        <ele>234</ele>
        <time>2019-04-14T08:54:47Z</time>
      </trkpt>
      <trkpt lat="44.4344" lon="1.35391">
        <ele>234</ele>
        <time>2019-04-14T08:54:48Z</time>
      </trkpt>
      <trkpt lat="44.4344" lon="1.35394">
        <ele>234</ele>
        <time>2019-04-14T08:54:49Z</time>
      </trkpt>
      <trkpt lat="44.4344" lon="1.35396">
        <ele>235</ele>
        <time>2019-04-14T08:54:50Z</time>
      </trkpt>
      <trkpt lat="44.43442" lon="1.35398">
        <ele>234</ele>
        <time>2019-04-14T08:54:51Z</time>
      </trkpt>
      <trkpt lat="44.43443" lon="1.35401">
        <ele>234</ele>
        <time>2019-04-14T08:54:52Z</time>
      </trkpt>
      <trkpt lat="44.43444" lon="1.35405">
        <ele>234</ele>
        <time>2019-04-14T08:54:53Z</time>
      </trkpt>
      <trkpt lat="44.43444" lon="1.35408">
        <ele>234</ele>
        <time>2019-04-14T08:54:54Z</time>
      </trkpt>
      <trkpt lat="44.43444" lon="1.35412">
        <ele>234</ele>
        <time>2019-04-14T08:54:55Z</time>
      </trkpt>
      <trkpt lat="44.43444" lon="1.35415">
        <ele>234</ele>
        <time>2019-04-14T08:54:56Z</time>
      </trkpt>
      <trkpt lat="44.43444" lon="1.35417">
        <ele>234</ele>
        <time>2019-04-14T08:54:57Z</time>
      </trkpt>
      <trkpt lat="44.43445" lon="1.35419">
        <ele>234</ele>
        <time>2019-04-14T08:54:58Z</time>
      </trkpt>
      <trkpt lat="44.43445" lon="1.35421">
        <ele>234</ele>
        <time>2019-04-14T08:54:59Z</time>
      </trkpt>
      <trkpt lat="44.43446" lon="1.35424">
        <ele>234</ele>
        <time>2019-04-14T08:55:00Z</time>
      </trkpt>
      <trkpt lat="44.43446" lon="1.35427">
        <ele>234</ele>
        <time>2019-04-14T08:55:01Z</time>
      </trkpt>
      <trkpt lat="44.43446" lon="1.3543">
        <ele>234</ele>
        <time>2019-04-14T08:55:02Z</time>
      </trkpt>
      <trkpt lat="44.43446" lon="1.35432">
        <ele>234</ele>
        <time>2019-04-14T08:55:03Z</time>
      </trkpt>
      <trkpt lat="44.43446" lon="1.35434">
        <ele>235</ele>
        <time>2019-04-14T08:55:04Z</time>
      </trkpt>
      <trkpt lat="44.43447" lon="1.35437">
        <ele>235</ele>
        <time>2019-04-14T08:55:05Z</time>
      </trkpt>
      <trkpt lat="44.43447" lon="1.35439">
        <ele>235</ele>
        <time>2019-04-14T08:55:06Z</time>
      </trkpt>
      <trkpt lat="44.43449" lon="1.35442">
        <ele>235</ele>
        <time>2019-04-14T08:55:07Z</time>
      </trkpt>
      <trkpt lat="44.43449" lon="1.35447">
        <ele>235</ele>
        <time>2019-04-14T08:55:08Z</time>
      </trkpt>
      <trkpt lat="44.43448" lon="1.35451">
        <ele>235</ele>
        <time>2019-04-14T08:55:09Z</time>
      </trkpt>
      <trkpt lat="44.43446" lon="1.35454">
        <ele>235</ele>
        <time>2019-04-14T08:55:10Z</time>
      </trkpt>
      <trkpt lat="44.43445" lon="1.35456">
        <ele>236</ele>
        <time>2019-04-14T08:55:11Z</time>
      </trkpt>
      <trkpt lat="44.43443" lon="1.35457">
        <ele>236</ele>
        <time>2019-04-14T08:55:12Z</time>
      </trkpt>
      <trkpt lat="44.43441" lon="1.35458">
        <ele>237</ele>
        <time>2019-04-14T08:55:13Z</time>
      </trkpt>
      <trkpt lat="44.4344" lon="1.3546">
        <ele>237</ele>
        <time>2019-04-14T08:55:14Z</time>
      </trkpt>
      <trkpt lat="44.43439" lon="1.35463">
        <ele>238</ele>
        <time>2019-04-14T08:55:15Z</time>
      </trkpt>
      <trkpt lat="44.43438" lon="1.35465">
        <ele>238</ele>
        <time>2019-04-14T08:55:16Z</time>
      </trkpt>
      <trkpt lat="44.43438" lon="1.35467">
        <ele>238</ele>
        <time>2019-04-14T08:55:17Z</time>
      </trkpt>
      <trkpt lat="44.43438" lon="1.35467">
        <ele>238</ele>
        <time>2019-04-14T08:55:18Z</time>
      </trkpt>
      <trkpt lat="44.43437" lon="1.35469">
        <ele>238</ele>
        <time>2019-04-14T08:55:19Z</time>
      </trkpt>
      <trkpt lat="44.43437" lon="1.35469">
        <ele>238</ele>
        <time>2019-04-14T08:55:20Z</time>
      </trkpt>
      <trkpt lat="44.43438" lon="1.3547">
        <ele>238</ele>
        <time>2019-04-14T08:55:21Z</time>
      </trkpt>
      <trkpt lat="44.43439" lon="1.35472">
        <ele>238</ele>
        <time>2019-04-14T08:55:22Z</time>
      </trkpt>
      <trkpt lat="44.43439" lon="1.35476">
        <ele>238</ele>
        <time>2019-04-14T08:55:23Z</time>
      </trkpt>
      <trkpt lat="44.43441" lon="1.3548">
        <ele>238</ele>
        <time>2019-04-14T08:55:24Z</time>
      </trkpt>
      <trkpt lat="44.43441" lon="1.35484">
        <ele>238</ele>
        <time>2019-04-14T08:55:25Z</time>
      </trkpt>
      <trkpt lat="44.43441" lon="1.35488">
        <ele>238</ele>
        <time>2019-04-14T08:55:26Z</time>
      </trkpt>
      <trkpt lat="44.4344" lon="1.35491">
        <ele>238</ele>
        <time>2019-04-14T08:55:27Z</time>
      </trkpt>
      <trkpt lat="44.43439" lon="1.35495">
        <ele>239</ele>
        <time>2019-04-14T08:55:28Z</time>
      </trkpt>
      <trkpt lat="44.43436" lon="1.35498">
        <ele>239</ele>
        <time>2019-04-14T08:55:29Z</time>
      </trkpt>
      <trkpt lat="44.43434" lon="1.355">
        <ele>240</ele>
        <time>2019-04-14T08:55:30Z</time>
      </trkpt>
      <trkpt lat="44.43432" lon="1.35501">
        <ele>240</ele>
        <time>2019-04-14T08:55:31Z</time>
      </trkpt>
      <trkpt lat="44.4343" lon="1.35503">
        <ele>241</ele>
        <time>2019-04-14T08:55:32Z</time>
      </trkpt>
      <trkpt lat="44.4343" lon="1.35506">
        <ele>241</ele>
        <time>2019-04-14T08:55:33Z</time>
      </trkpt>
      <trkpt lat="44.4343" lon="1.35509">
        <ele>241</ele>
        <time>2019-04-14T08:55:34Z</time>
      </trkpt>
      <trkpt lat="44.43431" lon="1.35512">
        <ele>241</ele>
        <time>2019-04-14T08:55:35Z</time>
      </trkpt>
      <trkpt lat="44.43431" lon="1.35515">
        <ele>241</ele>
        <time>2019-04-14T08:55:36Z</time>
      </trkpt>
      <trkpt lat="44.4343" lon="1.35519">
        <ele>241</ele>
        <time>2019-04-14T08:55:37Z</time>
      </trkpt>
      <trkpt lat="44.43429" lon="1.35522">
        <ele>242</ele>
        <time>2019-04-14T08:55:38Z</time>
      </trkpt>
      <trkpt lat="44.43428" lon="1.35524">
        <ele>242</ele>
        <time>2019-04-14T08:55:39Z</time>
      </trkpt>
      <trkpt lat="44.43427" lon="1.35524">
        <ele>242</ele>
        <time>2019-04-14T08:55:40Z</time>
      </trkpt>
      <trkpt lat="44.43425" lon="1.35526">
        <ele>242</ele>
        <time>2019-04-14T08:55:41Z</time>
      </trkpt>
      <trkpt lat="44.43425" lon="1.35529">
        <ele>242</ele>
        <time>2019-04-14T08:55:42Z</time>
      </trkpt>
      <trkpt lat="44.43425" lon="1.35532">
        <ele>242</ele>
        <time>2019-04-14T08:55:43Z</time>
      </trkpt>
      <trkpt lat="44.43425" lon="1.35536">
        <ele>242</ele>
        <time>2019-04-14T08:55:44Z</time>
      </trkpt>
      <trkpt lat="44.43426" lon="1.3554">
        <ele>242</ele>
        <time>2019-04-14T08:55:45Z</time>
      </trkpt>
      <trkpt lat="44.43428" lon="1.35542">
        <ele>242</ele>
        <time>2019-04-14T08:55:46Z</time>
      </trkpt>
      <trkpt lat="44.4343" lon="1.35543">
        <ele>242</ele>
        <time>2019-04-14T08:55:47Z</time>
      </trkpt>
      <trkpt lat="44.43432" lon="1.35544">
        <ele>242</ele>
        <time>2019-04-14T08:55:48Z</time>
      </trkpt>
      <trkpt lat="44.43434" lon="1.35544">
        <ele>242</ele>
        <time>2019-04-14T08:55:49Z</time>
      </trkpt>
      <trkpt lat="44.43438" lon="1.35545">
        <ele>241</ele>
        <time>2019-04-14T08:55:50Z</time>
      </trkpt>
      <trkpt lat="44.43439" lon="1.35549">
        <ele>241</ele>
        <time>2019-04-14T08:55:51Z</time>
      </trkpt>
      <trkpt lat="44.4344" lon="1.35551">
        <ele>241</ele>
        <time>2019-04-14T08:55:52Z</time>
      </trkpt>
      <trkpt lat="44.43442" lon="1.35553">
        <ele>241</ele>
        <time>2019-04-14T08:55:53Z</time>
      </trkpt>
      <trkpt lat="44.43443" lon="1.35557">
        <ele>241</ele>
        <time>2019-04-14T08:55:54Z</time>
      </trkpt>
      <trkpt lat="44.43444" lon="1.35561">
        <ele>241</ele>
        <time>2019-04-14T08:55:55Z</time>
      </trkpt>
      <trkpt lat="44.43445" lon="1.35565">
        <ele>241</ele>
        <time>2019-04-14T08:55:56Z</time>
      </trkpt>
      <trkpt lat="44.43445" lon="1.35568">
        <ele>241</ele>
        <time>2019-04-14T08:55:57Z</time>
      </trkpt>
      <trkpt lat="44.43447" lon="1.35572">
        <ele>241</ele>
        <time>2019-04-14T08:55:58Z</time>
      </trkpt>
      <trkpt lat="44.43449" lon="1.35575">
        <ele>241</ele>
        <time>2019-04-14T08:55:59Z</time>
      </trkpt>
      <trkpt lat="44.43451" lon="1.35576">
        <ele>241</ele>
        <time>2019-04-14T08:56:00Z</time>
      </trkpt>
      <trkpt lat="44.43456" lon="1.35576">
        <ele>241</ele>
        <time>2019-04-14T08:56:01Z</time>
      </trkpt>
      <trkpt lat="44.43459" lon="1.35574">
        <ele>240</ele>
        <time>2019-04-14T08:56:02Z</time>
      </trkpt>
      <trkpt lat="44.43463" lon="1.35573">
        <ele>240</ele>
        <time>2019-04-14T08:56:03Z</time>
      </trkpt>
      <trkpt lat="44.43468" lon="1.35572">
        <ele>239</ele>
        <time>2019-04-14T08:56:04Z</time>
      </trkpt>
      <trkpt lat="44.43474" lon="1.35571">
        <ele>239</ele>
        <time>2019-04-14T08:56:05Z</time>
      </trkpt>
      <trkpt lat="44.43479" lon="1.3557">
        <ele>238</ele>
        <time>2019-04-14T08:56:06Z</time>
      </trkpt>
      <trkpt lat="44.43483" lon="1.35567">
        <ele>237</ele>
        <time>2019-04-14T08:56:07Z</time>
      </trkpt>
      <trkpt lat="44.43487" lon="1.35565">
        <ele>237</ele>
        <time>2019-04-14T08:56:08Z</time>
      </trkpt>
      <trkpt lat="44.4349" lon="1.35565">
        <ele>236</ele>
        <time>2019-04-14T08:56:09Z</time>
      </trkpt>
      <trkpt lat="44.43492" lon="1.35565">
        <ele>236</ele>
        <time>2019-04-14T08:56:10Z</time>
      </trkpt>
      <trkpt lat="44.43494" lon="1.35567">
        <ele>236</ele>
        <time>2019-04-14T08:56:11Z</time>
      </trkpt>
      <trkpt lat="44.43496" lon="1.35568">
        <ele>236</ele>
        <time>2019-04-14T08:56:12Z</time>
      </trkpt>
      <trkpt lat="44.43497" lon="1.35568">
        <ele>236</ele>
        <time>2019-04-14T08:56:13Z</time>
      </trkpt>
      <trkpt lat="44.43498" lon="1.35568">
        <ele>236</ele>
        <time>2019-04-14T08:56:14Z</time>
      </trkpt>
      <trkpt lat="44.43498" lon="1.35568">
        <ele>236</ele>
        <time>2019-04-14T08:56:15Z</time>
      </trkpt>
      <trkpt lat="44.43498" lon="1.35568">
        <ele>236</ele>
        <time>2019-04-14T08:56:16Z</time>
      </trkpt>
      <trkpt lat="44.43498" lon="1.35568">
        <ele>236</ele>
        <time>2019-04-14T08:56:17Z</time>
      </trkpt>
      <trkpt lat="44.43499" lon="1.35569">
        <ele>236</ele>
        <time>2019-04-14T08:56:18Z</time>
      </trkpt>
      <trkpt lat="44.43499" lon="1.35569">
        <ele>236</ele>
        <time>2019-04-14T08:56:19Z</time>
      </trkpt>
      <trkpt lat="44.43499" lon="1.35569">
        <ele>236</ele>
        <time>2019-04-14T08:56:20Z</time>
      </trkpt>
      <trkpt lat="44.435" lon="1.3557">
        <ele>236</ele>
        <time>2019-04-14T08:56:21Z</time>
      </trkpt>
      <trkpt lat="44.43523" lon="1.35562">
        <ele>233</ele>
        <time>2019-04-14T08:59:27Z</time>
      </trkpt>
      <trkpt lat="44.43524" lon="1.35563">
        <ele>233</ele>
        <time>2019-04-14T08:59:28Z</time>
      </trkpt>
      <trkpt lat="44.43525" lon="1.35563">
        <ele>233</ele>
        <time>2019-04-14T08:59:29Z</time>
      </trkpt>
      <trkpt lat="44.43526" lon="1.35563">
        <ele>233</ele>
        <time>2019-04-14T08:59:30Z</time>
      </trkpt>
      <trkpt lat="44.43527" lon="1.35561">
        <ele>233</ele>
        <time>2019-04-14T08:59:31Z</time>
      </trkpt>
      <trkpt lat="44.43529" lon="1.3556">
        <ele>232</ele>
        <time>2019-04-14T08:59:32Z</time>
      </trkpt>
      <trkpt lat="44.43532" lon="1.35558">
        <ele>232</ele>
        <time>2019-04-14T08:59:33Z</time>
      </trkpt>
      <trkpt lat="44.43534" lon="1.35557">
        <ele>231</ele>
        <time>2019-04-14T08:59:34Z</time>
      </trkpt>
      <trkpt lat="44.43537" lon="1.35557">
        <ele>231</ele>
        <time>2019-04-14T08:59:35Z</time>
      </trkpt>
      <trkpt lat="44.43538" lon="1.35558">
        <ele>231</ele>
        <time>2019-04-14T08:59:36Z</time>
      </trkpt>
      <trkpt lat="44.43539" lon="1.3556">
        <ele>232</ele>
        <time>2019-04-14T08:59:37Z</time>
      </trkpt>
      <trkpt lat="44.43539" lon="1.35561">
        <ele>232</ele>
        <time>2019-04-14T08:59:38Z</time>
      </trkpt>
      <trkpt lat="44.4354" lon="1.35562">
        <ele>232</ele>
        <time>2019-04-14T08:59:39Z</time>
      </trkpt>
      <trkpt lat="44.43541" lon="1.35565">
        <ele>232</ele>
        <time>2019-04-14T08:59:40Z</time>
      </trkpt>
      <trkpt lat="44.43541" lon="1.35566">
        <ele>233</ele>
        <time>2019-04-14T08:59:41Z</time>
      </trkpt>
      <trkpt lat="44.43543" lon="1.35569">
        <ele>233</ele>
        <time>2019-04-14T08:59:42Z</time>
      </trkpt>
      <trkpt lat="44.43544" lon="1.35571">
        <ele>234</ele>
        <time>2019-04-14T08:59:43Z</time>
      </trkpt>
      <trkpt lat="44.43545" lon="1.35573">
        <ele>234</ele>
        <time>2019-04-14T08:59:44Z</time>
      </trkpt>
      <trkpt lat="44.43546" lon="1.35575">
        <ele>235</ele>
        <time>2019-04-14T08:59:45Z</time>
      </trkpt>
      <trkpt lat="44.43548" lon="1.35576">
        <ele>235</ele>
        <time>2019-04-14T08:59:46Z</time>
      </trkpt>
      <trkpt lat="44.4355" lon="1.35577">
        <ele>235</ele>
        <time>2019-04-14T08:59:47Z</time>
      </trkpt>
      <trkpt lat="44.43551" lon="1.35577">
        <ele>235</ele>
        <time>2019-04-14T08:59:48Z</time>
      </trkpt>
      <trkpt lat="44.43552" lon="1.35579">
        <ele>236</ele>
        <time>2019-04-14T08:59:49Z</time>
      </trkpt>
      <trkpt lat="44.43554" lon="1.3558">
        <ele>236</ele>
        <time>2019-04-14T08:59:50Z</time>
      </trkpt>
      <trkpt lat="44.43555" lon="1.35581">
        <ele>236</ele>
        <time>2019-04-14T08:59:51Z</time>
      </trkpt>
      <trkpt lat="44.43556" lon="1.35581">
        <ele>236</ele>
        <time>2019-04-14T08:59:52Z</time>
      </trkpt>
      <trkpt lat="44.43556" lon="1.35581">
        <ele>236</ele>
        <time>2019-04-14T08:59:53Z</time>
      </trkpt>
      <trkpt lat="44.43557" lon="1.35581">
        <ele>236</ele>
        <time>2019-04-14T08:59:54Z</time>
      </trkpt>
      <trkpt lat="44.43557" lon="1.35582">
        <ele>236</ele>
        <time>2019-04-14T08:59:55Z</time>
      </trkpt>
      <trkpt lat="44.43558" lon="1.35583">
        <ele>236</ele>
        <time>2019-04-14T08:59:56Z</time>
      </trkpt>
      <trkpt lat="44.43558" lon="1.35584">
        <ele>236</ele>
        <time>2019-04-14T08:59:57Z</time>
      </trkpt>
      <trkpt lat="44.43558" lon="1.35584">
        <ele>236</ele>
        <time>2019-04-14T08:59:58Z</time>
      </trkpt>
      <trkpt lat="44.43558" lon="1.35584">
        <ele>236</ele>
        <time>2019-04-14T08:59:59Z</time>
      </trkpt>
      <trkpt lat="44.43566" lon="1.35598">
        <ele>238</ele>
        <time>2019-04-14T09:00:11Z</time>
      </trkpt>
      <trkpt lat="44.43567" lon="1.35598">
        <ele>238</ele>
        <time>2019-04-14T09:00:12Z</time>
      </trkpt>
      <trkpt lat="44.43568" lon="1.35598">
        <ele>238</ele>
        <time>2019-04-14T09:00:13Z</time>
      </trkpt>
      <trkpt lat="44.43569" lon="1.35598">
        <ele>238</ele>
        <time>2019-04-14T09:00:14Z</time>
      </trkpt>
      <trkpt lat="44.4357" lon="1.35598">
        <ele>238</ele>
        <time>2019-04-14T09:00:15Z</time>
      </trkpt>
      <trkpt lat="44.4357" lon="1.35597">
        <ele>238</ele>
        <time>2019-04-14T09:00:16Z</time>
      </trkpt>
      <trkpt lat="44.43572" lon="1.35597">
        <ele>238</ele>
        <time>2019-04-14T09:00:17Z</time>
      </trkpt>
      <trkpt lat="44.43573" lon="1.35596">
        <ele>238</ele>
        <time>2019-04-14T09:00:18Z</time>
      </trkpt>
      <trkpt lat="44.43574" lon="1.35596">
        <ele>238</ele>
        <time>2019-04-14T09:00:19Z</time>
      </trkpt>
      <trkpt lat="44.43576" lon="1.35596">
        <ele>238</ele>
        <time>2019-04-14T09:00:20Z</time>
      </trkpt>
      <trkpt lat="44.43578" lon="1.35596">
        <ele>238</ele>
        <time>2019-04-14T09:00:21Z</time>
      </trkpt>
      <trkpt lat="44.43579" lon="1.35597">
        <ele>238</ele>
        <time>2019-04-14T09:00:22Z</time>
      </trkpt>
      <trkpt lat="44.43581" lon="1.35597">
        <ele>238</ele>
        <time>2019-04-14T09:00:23Z</time>
      </trkpt>
      <trkpt lat="44.43583" lon="1.35597">
        <ele>238</ele>
        <time>2019-04-14T09:00:24Z</time>
      </trkpt>
      <trkpt lat="44.43585" lon="1.35597">
        <ele>238</ele>
        <time>2019-04-14T09:00:25Z</time>
      </trkpt>
      <trkpt lat="44.43587" lon="1.35597">
        <ele>238</ele>
        <time>2019-04-14T09:00:26Z</time>
      </trkpt>
      <trkpt lat="44.43589" lon="1.35597">
        <ele>238</ele>
        <time>2019-04-14T09:00:27Z</time>
      </trkpt>
      <trkpt lat="44.43591" lon="1.35597">
        <ele>238</ele>
        <time>2019-04-14T09:00:28Z</time>
      </trkpt>
      <trkpt lat="44.43593" lon="1.35597">
        <ele>238</ele>
        <time>2019-04-14T09:00:29Z</time>
      </trkpt>
      <trkpt lat="44.43595" lon="1.35596">
        <ele>237</ele>
        <time>2019-04-14T09:00:30Z</time>
      </trkpt>
      <trkpt lat="44.43595" lon="1.35594">
        <ele>237</ele>
        <time>2019-04-14T09:00:31Z</time>
      </trkpt>
      <trkpt lat="44.43595" lon="1.35593">
        <ele>237</ele>
        <time>2019-04-14T09:00:32Z</time>
      </trkpt>
      <trkpt lat="44.43594" lon="1.35592">
        <ele>237</ele>
        <time>2019-04-14T09:00:33Z</time>
      </trkpt>
      <trkpt lat="44.43593" lon="1.35592">
        <ele>237</ele>
        <time>2019-04-14T09:00:34Z</time>
      </trkpt>
      <trkpt lat="44.43592" lon="1.35591">
        <ele>237</ele>
        <time>2019-04-14T09:00:35Z</time>
      </trkpt>
      <trkpt lat="44.4359" lon="1.35591">
        <ele>237</ele>
        <time>2019-04-14T09:00:36Z</time>
      </trkpt>
      <trkpt lat="44.43589" lon="1.35592">
        <ele>237</ele>
        <time>2019-04-14T09:00:37Z</time>
      </trkpt>
      <trkpt lat="44.43587" lon="1.35593">
        <ele>237</ele>
        <time>2019-04-14T09:00:38Z</time>
      </trkpt>
      <trkpt lat="44.43586" lon="1.35593">
        <ele>237</ele>
        <time>2019-04-14T09:00:39Z</time>
      </trkpt>
      <trkpt lat="44.43585" lon="1.35593">
        <ele>237</ele>
        <time>2019-04-14T09:00:40Z</time>
      </trkpt>
      <trkpt lat="44.43583" lon="1.35594">
        <ele>237</ele>
        <time>2019-04-14T09:00:41Z</time>
      </trkpt>
      <trkpt lat="44.43582" lon="1.35594">
        <ele>237</ele>
        <time>2019-04-14T09:00:42Z</time>
      </trkpt>
      <trkpt lat="44.43581" lon="1.35594">
        <ele>237</ele>
        <time>2019-04-14T09:00:43Z</time>
      </trkpt>
      <trkpt lat="44.4358" lon="1.35594">
        <ele>238</ele>
        <time>2019-04-14T09:00:44Z</time>
      </trkpt>
      <trkpt lat="44.43579" lon="1.35594">
        <ele>238</ele>
        <time>2019-04-14T09:00:45Z</time>
      </trkpt>
      <trkpt lat="44.43578" lon="1.35594">
        <ele>238</ele>
        <time>2019-04-14T09:00:46Z</time>
      </trkpt>
      <trkpt lat="44.43576" lon="1.35595">
        <ele>238</ele>
        <time>2019-04-14T09:00:47Z</time>
      </trkpt>
      <trkpt lat="44.43575" lon="1.35595">
        <ele>238</ele>
        <time>2019-04-14T09:00:48Z</time>
      </trkpt>
      <trkpt lat="44.43574" lon="1.35596">
        <ele>238</ele>
        <time>2019-04-14T09:00:49Z</time>
      </trkpt>
      <trkpt lat="44.43574" lon="1.35596">
        <ele>238</ele>
        <time>2019-04-14T09:00:50Z</time>
      </trkpt>
      <trkpt lat="44.43573" lon="1.35598">
        <ele>238</ele>
        <time>2019-04-14T09:00:51Z</time>
      </trkpt>
      <trkpt lat="44.43573" lon="1.35599">
        <ele>238</ele>
        <time>2019-04-14T09:00:52Z</time>
      </trkpt>
      <trkpt lat="44.43574" lon="1.356">
        <ele>238</ele>
        <time>2019-04-14T09:00:53Z</time>
      </trkpt>
      <trkpt lat="44.43575" lon="1.35602">
        <ele>238</ele>
        <time>2019-04-14T09:00:54Z</time>
      </trkpt>
      <trkpt lat="44.43577" lon="1.35602">
        <ele>238</ele>
        <time>2019-04-14T09:00:55Z</time>
      </trkpt>
      <trkpt lat="44.43579" lon="1.35601">
        <ele>237</ele>
        <time>2019-04-14T09:00:56Z</time>
      </trkpt>
      <trkpt lat="44.4358" lon="1.356">
        <ele>237</ele>
        <time>2019-04-14T09:00:57Z</time>
      </trkpt>
      <trkpt lat="44.43581" lon="1.35599">
        <ele>237</ele>
        <time>2019-04-14T09:00:58Z</time>
      </trkpt>
      <trkpt lat="44.43582" lon="1.35598">
        <ele>237</ele>
        <time>2019-04-14T09:00:59Z</time>
      </trkpt>
      <trkpt lat="44.43583" lon="1.35597">
        <ele>237</ele>
        <time>2019-04-14T09:01:00Z</time>
      </trkpt>
      <trkpt lat="44.43584" lon="1.35596">
        <ele>237</ele>
        <time>2019-04-14T09:01:01Z</time>
      </trkpt>
      <trkpt lat="44.43585" lon="1.35595">
        <ele>237</ele>
        <time>2019-04-14T09:01:02Z</time>
      </trkpt>
      <trkpt lat="44.43587" lon="1.35594">
        <ele>237</ele>
        <time>2019-04-14T09:01:03Z</time>
      </trkpt>
      <trkpt lat="44.43589" lon="1.35595">
        <ele>237</ele>
        <time>2019-04-14T09:01:04Z</time>
      </trkpt>
      <trkpt lat="44.4359" lon="1.35595">
        <ele>237</ele>
        <time>2019-04-14T09:01:05Z</time>
      </trkpt>
      <trkpt lat="44.43592" lon="1.35596">
        <ele>237</ele>
        <time>2019-04-14T09:01:06Z</time>
      </trkpt>
      <trkpt lat="44.43594" lon="1.35597">
        <ele>237</ele>
        <time>2019-04-14T09:01:07Z</time>
      </trkpt>
      <trkpt lat="44.43595" lon="1.35598">
        <ele>237</ele>
        <time>2019-04-14T09:01:08Z</time>
      </trkpt>
      <trkpt lat="44.43597" lon="1.35598">
        <ele>237</ele>
        <time>2019-04-14T09:01:09Z</time>
      </trkpt>
      <trkpt lat="44.43598" lon="1.35599">
        <ele>237</ele>
        <time>2019-04-14T09:01:10Z</time>
      </trkpt>
      <trkpt lat="44.43599" lon="1.35601">
        <ele>237</ele>
        <time>2019-04-14T09:01:11Z</time>
      </trkpt>
      <trkpt lat="44.43599" lon="1.35603">
        <ele>237</ele>
        <time>2019-04-14T09:01:12Z</time>
      </trkpt>
      <trkpt lat="44.43599" lon="1.35604">
        <ele>237</ele>
        <time>2019-04-14T09:01:13Z</time>
      </trkpt>
      <trkpt lat="44.43599" lon="1.35606">
        <ele>237</ele>
        <time>2019-04-14T09:01:14Z</time>
      </trkpt>
      <trkpt lat="44.436" lon="1.35609">
        <ele>237</ele>
        <time>2019-04-14T09:01:15Z</time>
      </trkpt>
      <trkpt lat="44.436" lon="1.35611">
        <ele>237</ele>
        <time>2019-04-14T09:01:16Z</time>
      </trkpt>
      <trkpt lat="44.436" lon="1.35614">
        <ele>237</ele>
        <time>2019-04-14T09:01:17Z</time>
      </trkpt>
      <trkpt lat="44.43601" lon="1.35617">
        <ele>237</ele>
        <time>2019-04-14T09:01:18Z</time>
      </trkpt>
      <trkpt lat="44.43603" lon="1.3562">
        <ele>237</ele>
        <time>2019-04-14T09:01:19Z</time>
      </trkpt>
      <trkpt lat="44.43605" lon="1.35622">
        <ele>237</ele>
        <time>2019-04-14T09:01:20Z</time>
      </trkpt>
      <trkpt lat="44.43607" lon="1.35624">
        <ele>237</ele>
        <time>2019-04-14T09:01:21Z</time>
      </trkpt>
      <trkpt lat="44.43609" lon="1.35625">
        <ele>237</ele>
        <time>2019-04-14T09:01:22Z</time>
      </trkpt>
      <trkpt lat="44.43611" lon="1.35625">
        <ele>237</ele>
        <time>2019-04-14T09:01:23Z</time>
      </trkpt>
      <trkpt lat="44.43613" lon="1.35626">
        <ele>237</ele>
        <time>2019-04-14T09:01:24Z</time>
      </trkpt>
      <trkpt lat="44.43615" lon="1.35626">
        <ele>237</ele>
        <time>2019-04-14T09:01:25Z</time>
      </trkpt>
      <trkpt lat="44.43617" lon="1.35626">
        <ele>237</ele>
        <time>2019-04-14T09:01:26Z</time>
      </trkpt>
      <trkpt lat="44.43619" lon="1.35626">
        <ele>237</ele>
        <time>2019-04-14T09:01:27Z</time>
      </trkpt>
      <trkpt lat="44.43621" lon="1.35626">
        <ele>237</ele>
        <time>2019-04-14T09:01:28Z</time>
      </trkpt>
      <trkpt lat="44.43623" lon="1.35626">
        <ele>237</ele>
        <time>2019-04-14T09:01:29Z</time>
      </trkpt>
      <trkpt lat="44.43625" lon="1.35626">
        <ele>238</ele>
        <time>2019-04-14T09:01:30Z</time>
      </trkpt>
      <trkpt lat="44.43627" lon="1.35626">
        <ele>238</ele>
        <time>2019-04-14T09:01:31Z</time>
      </trkpt>
      <trkpt lat="44.43629" lon="1.35625">
        <ele>238</ele>
        <time>2019-04-14T09:01:32Z</time>
      </trkpt>
      <trkpt lat="44.4363" lon="1.35624">
        <ele>238</ele>
        <time>2019-04-14T09:01:33Z</time>
      </trkpt>
      <trkpt lat="44.43632" lon="1.35622">
        <ele>238</ele>
        <time>2019-04-14T09:01:34Z</time>
      </trkpt>
      <trkpt lat="44.43633" lon="1.3562">
        <ele>238</ele>
        <time>2019-04-14T09:01:35Z</time>
      </trkpt>
      <trkpt lat="44.43633" lon="1.35618">
        <ele>238</ele>
        <time>2019-04-14T09:01:36Z</time>
      </trkpt>
      <trkpt lat="44.43634" lon="1.35616">
        <ele>238</ele>
        <time>2019-04-14T09:01:37Z</time>
      </trkpt>
      <trkpt lat="44.43635" lon="1.35613">
        <ele>238</ele>
        <time>2019-04-14T09:01:38Z</time>
      </trkpt>
      <trkpt lat="44.43636" lon="1.35611">
        <ele>239</ele>
        <time>2019-04-14T09:01:39Z</time>
      </trkpt>
      <trkpt lat="44.43637" lon="1.35608">
        <ele>239</ele>
        <time>2019-04-14T09:01:40Z</time>
      </trkpt>
      <trkpt lat="44.43638" lon="1.35606">
        <ele>239</ele>
        <time>2019-04-14T09:01:41Z</time>
      </trkpt>
      <trkpt lat="44.43639" lon="1.35604">
        <ele>239</ele>
        <time>2019-04-14T09:01:42Z</time>
      </trkpt>
      <trkpt lat="44.43641" lon="1.35602">
        <ele>239</ele>
        <time>2019-04-14T09:01:43Z</time>
      </trkpt>
      <trkpt lat="44.43643" lon="1.356">
        <ele>239</ele>
        <time>2019-04-14T09:01:44Z</time>
      </trkpt>
      <trkpt lat="44.43644" lon="1.35599">
        <ele>239</ele>
        <time>2019-04-14T09:01:45Z</time>
      </trkpt>
      <trkpt lat="44.43646" lon="1.35598">
        <ele>239</ele>
        <time>2019-04-14T09:01:46Z</time>
      </trkpt>
      <trkpt lat="44.43648" lon="1.35597">
        <ele>239</ele>
        <time>2019-04-14T09:01:47Z</time>
      </trkpt>
      <trkpt lat="44.4365" lon="1.35595">
        <ele>239</ele>
        <time>2019-04-14T09:01:48Z</time>
      </trkpt>
      <trkpt lat="44.43652" lon="1.35594">
        <ele>238</ele>
        <time>2019-04-14T09:01:49Z</time>
      </trkpt>
      <trkpt lat="44.43654" lon="1.35593">
        <ele>238</ele>
        <time>2019-04-14T09:01:50Z</time>
      </trkpt>
      <trkpt lat="44.43656" lon="1.35592">
        <ele>238</ele>
        <time>2019-04-14T09:01:51Z</time>
      </trkpt>
      <trkpt lat="44.43658" lon="1.35591">
        <ele>238</ele>
        <time>2019-04-14T09:01:52Z</time>
      </trkpt>
      <trkpt lat="44.43661" lon="1.35591">
        <ele>238</ele>
        <time>2019-04-14T09:01:53Z</time>
      </trkpt>
      <trkpt lat="44.43664" lon="1.35591">
        <ele>238</ele>
        <time>2019-04-14T09:01:54Z</time>
      </trkpt>
      <trkpt lat="44.43667" lon="1.35591">
        <ele>238</ele>
        <time>2019-04-14T09:01:55Z</time>
      </trkpt>
      <trkpt lat="44.4367" lon="1.35591">
        <ele>238</ele>
        <time>2019-04-14T09:01:56Z</time>
      </trkpt>
      <trkpt lat="44.43672" lon="1.35592">
        <ele>238</ele>
        <time>2019-04-14T09:01:57Z</time>
      </trkpt>
      <trkpt lat="44.43675" lon="1.35593">
        <ele>237</ele>
        <time>2019-04-14T09:01:58Z</time>
      </trkpt>
      <trkpt lat="44.43678" lon="1.35594">
        <ele>237</ele>
        <time>2019-04-14T09:01:59Z</time>
      </trkpt>
      <trkpt lat="44.4368" lon="1.35595">
        <ele>237</ele>
        <time>2019-04-14T09:02:00Z</time>
      </trkpt>
      <trkpt lat="44.43682" lon="1.35598">
        <ele>237</ele>
        <time>2019-04-14T09:02:01Z</time>
      </trkpt>
      <trkpt lat="44.43683" lon="1.35601">
        <ele>237</ele>
        <time>2019-04-14T09:02:02Z</time>
      </trkpt>
      <trkpt lat="44.43684" lon="1.35604">
        <ele>237</ele>
        <time>2019-04-14T09:02:03Z</time>
      </trkpt>
      <trkpt lat="44.43684" lon="1.35608">
        <ele>237</ele>
        <time>2019-04-14T09:02:04Z</time>
      </trkpt>
      <trkpt lat="44.43685" lon="1.35613">
        <ele>237</ele>
        <time>2019-04-14T09:02:05Z</time>
      </trkpt>
      <trkpt lat="44.43685" lon="1.35616">
        <ele>237</ele>
        <time>2019-04-14T09:02:06Z</time>
      </trkpt>
      <trkpt lat="44.43686" lon="1.3562">
        <ele>237</ele>
        <time>2019-04-14T09:02:07Z</time>
      </trkpt>
      <trkpt lat="44.43686" lon="1.35623">
        <ele>237</ele>
        <time>2019-04-14T09:02:08Z</time>
      </trkpt>
      <trkpt lat="44.43686" lon="1.35627">
        <ele>237</ele>
        <time>2019-04-14T09:02:09Z</time>
      </trkpt>
      <trkpt lat="44.43686" lon="1.3563">
        <ele>237</ele>
        <time>2019-04-14T09:02:10Z</time>
      </trkpt>
      <trkpt lat="44.43686" lon="1.35634">
        <ele>237</ele>
        <time>2019-04-14T09:02:11Z</time>
      </trkpt>
      <trkpt lat="44.43686" lon="1.35637">
        <ele>236</ele>
        <time>2019-04-14T09:02:12Z</time>
      </trkpt>
      <trkpt lat="44.43686" lon="1.35641">
        <ele>236</ele>
        <time>2019-04-14T09:02:13Z</time>
      </trkpt>
      <trkpt lat="44.43686" lon="1.35645">
        <ele>236</ele>
        <time>2019-04-14T09:02:14Z</time>
      </trkpt>
      <trkpt lat="44.43687" lon="1.3565">
        <ele>236</ele>
        <time>2019-04-14T09:02:15Z</time>
      </trkpt>
      <trkpt lat="44.43687" lon="1.35655">
        <ele>236</ele>
        <time>2019-04-14T09:02:16Z</time>
      </trkpt>
      <trkpt lat="44.43687" lon="1.3566">
        <ele>235</ele>
        <time>2019-04-14T09:02:17Z</time>
      </trkpt>
      <trkpt lat="44.43688" lon="1.35666">
        <ele>235</ele>
        <time>2019-04-14T09:02:18Z</time>
      </trkpt>
      <trkpt lat="44.43688" lon="1.35672">
        <ele>235</ele>
        <time>2019-04-14T09:02:19Z</time>
      </trkpt>
      <trkpt lat="44.43688" lon="1.35678">
        <ele>235</ele>
        <time>2019-04-14T09:02:20Z</time>
      </trkpt>
      <trkpt lat="44.43688" lon="1.35685">
        <ele>234</ele>
        <time>2019-04-14T09:02:21Z</time>
      </trkpt>
      <trkpt lat="44.43689" lon="1.35692">
        <ele>233</ele>
        <time>2019-04-14T09:02:22Z</time>
      </trkpt>
      <trkpt lat="44.43689" lon="1.357">
        <ele>233</ele>
        <time>2019-04-14T09:02:23Z</time>
      </trkpt>
      <trkpt lat="44.4369" lon="1.35707">
        <ele>232</ele>
        <time>2019-04-14T09:02:24Z</time>
      </trkpt>
      <trkpt lat="44.4369" lon="1.35714">
        <ele>232</ele>
        <time>2019-04-14T09:02:25Z</time>
      </trkpt>
      <trkpt lat="44.4369" lon="1.35722">
        <ele>231</ele>
        <time>2019-04-14T09:02:26Z</time>
      </trkpt>
      <trkpt lat="44.43691" lon="1.35729">
        <ele>231</ele>
        <time>2019-04-14T09:02:27Z</time>
      </trkpt>
      <trkpt lat="44.43691" lon="1.35736">
        <ele>230</ele>
        <time>2019-04-14T09:02:28Z</time>
      </trkpt>
      <trkpt lat="44.43691" lon="1.35743">
        <ele>229</ele>
        <time>2019-04-14T09:02:29Z</time>
      </trkpt>
      <trkpt lat="44.43692" lon="1.35749">
        <ele>228</ele>
        <time>2019-04-14T09:02:30Z</time>
      </trkpt>
      <trkpt lat="44.43693" lon="1.35754">
        <ele>228</ele>
        <time>2019-04-14T09:02:31Z</time>
      </trkpt>
      <trkpt lat="44.43695" lon="1.35757">
        <ele>227</ele>
        <time>2019-04-14T09:02:32Z</time>
      </trkpt>
      <trkpt lat="44.43697" lon="1.35759">
        <ele>227</ele>
        <time>2019-04-14T09:02:33Z</time>
      </trkpt>
      <trkpt lat="44.43698" lon="1.3576">
        <ele>226</ele>
        <time>2019-04-14T09:02:34Z</time>
      </trkpt>
      <trkpt lat="44.43699" lon="1.35761">
        <ele>226</ele>
        <time>2019-04-14T09:02:35Z</time>
      </trkpt>
      <trkpt lat="44.437" lon="1.35761">
        <ele>226</ele>
        <time>2019-04-14T09:02:36Z</time>
      </trkpt>
      <trkpt lat="44.43701" lon="1.35761">
        <ele>226</ele>
        <time>2019-04-14T09:02:37Z</time>
      </trkpt>
      <trkpt lat="44.43703" lon="1.35761">
        <ele>226</ele>
        <time>2019-04-14T09:02:38Z</time>
      </trkpt>
      <trkpt lat="44.43705" lon="1.3576">
        <ele>226</ele>
        <time>2019-04-14T09:02:39Z</time>
      </trkpt>
      <trkpt lat="44.43707" lon="1.35759">
        <ele>226</ele>
        <time>2019-04-14T09:02:40Z</time>
      </trkpt>
      <trkpt lat="44.43709" lon="1.35759">
        <ele>226</ele>
        <time>2019-04-14T09:02:41Z</time>
      </trkpt>
      <trkpt lat="44.43712" lon="1.35759">
        <ele>226</ele>
        <time>2019-04-14T09:02:42Z</time>
      </trkpt>
      <trkpt lat="44.43715" lon="1.3576">
        <ele>226</ele>
        <time>2019-04-14T09:02:43Z</time>
      </trkpt>
      <trkpt lat="44.43717" lon="1.3576">
        <ele>226</ele>
        <time>2019-04-14T09:02:44Z</time>
      </trkpt>
      <trkpt lat="44.4372" lon="1.35761">
        <ele>226</ele>
        <time>2019-04-14T09:02:45Z</time>
      </trkpt>
      <trkpt lat="44.43723" lon="1.35762">
        <ele>225</ele>
        <time>2019-04-14T09:02:46Z</time>
      </trkpt>
      <trkpt lat="44.43726" lon="1.35765">
        <ele>225</ele>
        <time>2019-04-14T09:02:47Z</time>
      </trkpt>
      <trkpt lat="44.4373" lon="1.35768">
        <ele>224</ele>
        <time>2019-04-14T09:02:48Z</time>
      </trkpt>
      <trkpt lat="44.43735" lon="1.35771">
        <ele>224</ele>
        <time>2019-04-14T09:02:49Z</time>
      </trkpt>
      <trkpt lat="44.43739" lon="1.35775">
        <ele>223</ele>
        <time>2019-04-14T09:02:50Z</time>
      </trkpt>
      <trkpt lat="44.43745" lon="1.3578">
        <ele>222</ele>
        <time>2019-04-14T09:02:51Z</time>
      </trkpt>
      <trkpt lat="44.43751" lon="1.35786">
        <ele>221</ele>
        <time>2019-04-14T09:02:52Z</time>
      </trkpt>
      <trkpt lat="44.43757" lon="1.35791">
        <ele>220</ele>
        <time>2019-04-14T09:02:53Z</time>
      </trkpt>
      <trkpt lat="44.43763" lon="1.35797">
        <ele>218</ele>
        <time>2019-04-14T09:02:54Z</time>
      </trkpt>
      <trkpt lat="44.43768" lon="1.35802">
        <ele>217</ele>
        <time>2019-04-14T09:02:55Z</time>
      </trkpt>
      <trkpt lat="44.43772" lon="1.35807">
        <ele>217</ele>
        <time>2019-04-14T09:02:56Z</time>
      </trkpt>
      <trkpt lat="44.43777" lon="1.35811">
        <ele>216</ele>
        <time>2019-04-14T09:02:57Z</time>
      </trkpt>
      <trkpt lat="44.43782" lon="1.35816">
        <ele>215</ele>
        <time>2019-04-14T09:02:58Z</time>
      </trkpt>
      <trkpt lat="44.43787" lon="1.35821">
        <ele>214</ele>
        <time>2019-04-14T09:02:59Z</time>
      </trkpt>
      <trkpt lat="44.43791" lon="1.35826">
        <ele>213</ele>
        <time>2019-04-14T09:03:00Z</time>
      </trkpt>
      <trkpt lat="44.43796" lon="1.35829">
        <ele>213</ele>
        <time>2019-04-14T09:03:01Z</time>
      </trkpt>
      <trkpt lat="44.438" lon="1.35831">
        <ele>212</ele>
        <time>2019-04-14T09:03:02Z</time>
      </trkpt>
      <trkpt lat="44.43803" lon="1.35832">
        <ele>212</ele>
        <time>2019-04-14T09:03:03Z</time>
      </trkpt>
      <trkpt lat="44.43805" lon="1.35834">
        <ele>212</ele>
        <time>2019-04-14T09:03:04Z</time>
      </trkpt>
      <trkpt lat="44.43807" lon="1.35837">
        <ele>212</ele>
        <time>2019-04-14T09:03:05Z</time>
      </trkpt>
      <trkpt lat="44.43808" lon="1.35841">
        <ele>212</ele>
        <time>2019-04-14T09:03:06Z</time>
      </trkpt>
      <trkpt lat="44.43808" lon="1.35843">
        <ele>212</ele>
        <time>2019-04-14T09:03:07Z</time>
      </trkpt>
      <trkpt lat="44.43808" lon="1.35845">
        <ele>212</ele>
        <time>2019-04-14T09:03:08Z</time>
      </trkpt>
      <trkpt lat="44.43808" lon="1.35846">
        <ele>212</ele>
        <time>2019-04-14T09:03:09Z</time>
      </trkpt>
      <trkpt lat="44.43809" lon="1.35848">
        <ele>212</ele>
        <time>2019-04-14T09:03:10Z</time>
      </trkpt>
      <trkpt lat="44.43809" lon="1.3585">
        <ele>212</ele>
        <time>2019-04-14T09:03:11Z</time>
      </trkpt>
      <trkpt lat="44.43811" lon="1.35852">
        <ele>211</ele>
        <time>2019-04-14T09:03:12Z</time>
      </trkpt>
      <trkpt lat="44.43813" lon="1.35854">
        <ele>211</ele>
        <time>2019-04-14T09:03:13Z</time>
      </trkpt>
      <trkpt lat="44.43815" lon="1.35855">
        <ele>211</ele>
        <time>2019-04-14T09:03:14Z</time>
      </trkpt>
      <trkpt lat="44.43817" lon="1.35857">
        <ele>211</ele>
        <time>2019-04-14T09:03:15Z</time>
      </trkpt>
      <trkpt lat="44.43819" lon="1.3586">
        <ele>211</ele>
        <time>2019-04-14T09:03:16Z</time>
      </trkpt>
      <trkpt lat="44.4382" lon="1.35862">
        <ele>211</ele>
        <time>2019-04-14T09:03:17Z</time>
      </trkpt>
      <trkpt lat="44.43823" lon="1.35866">
        <ele>210</ele>
        <time>2019-04-14T09:03:18Z</time>
      </trkpt>
      <trkpt lat="44.43826" lon="1.35871">
        <ele>210</ele>
        <time>2019-04-14T09:03:19Z</time>
      </trkpt>
      <trkpt lat="44.43829" lon="1.35876">
        <ele>209</ele>
        <time>2019-04-14T09:03:20Z</time>
      </trkpt>
      <trkpt lat="44.43833" lon="1.35881">
        <ele>209</ele>
        <time>2019-04-14T09:03:21Z</time>
      </trkpt>
      <trkpt lat="44.43836" lon="1.35886">
        <ele>209</ele>
        <time>2019-04-14T09:03:22Z</time>
      </trkpt>
      <trkpt lat="44.4384" lon="1.35891">
        <ele>209</ele>
        <time>2019-04-14T09:03:23Z</time>
      </trkpt>
      <trkpt lat="44.43843" lon="1.35895">
        <ele>208</ele>
        <time>2019-04-14T09:03:24Z</time>
      </trkpt>
      <trkpt lat="44.43846" lon="1.359">
        <ele>208</ele>
        <time>2019-04-14T09:03:25Z</time>
      </trkpt>
      <trkpt lat="44.4385" lon="1.35903">
        <ele>208</ele>
        <time>2019-04-14T09:03:26Z</time>
      </trkpt>
      <trkpt lat="44.43854" lon="1.35905">
        <ele>208</ele>
        <time>2019-04-14T09:03:27Z</time>
      </trkpt>
      <trkpt lat="44.43858" lon="1.35907">
        <ele>208</ele>
        <time>2019-04-14T09:03:28Z</time>
      </trkpt>
      <trkpt lat="44.43861" lon="1.35908">
        <ele>208</ele>
        <time>2019-04-14T09:03:29Z</time>
      </trkpt>
      <trkpt lat="44.43864" lon="1.35912">
        <ele>208</ele>
        <time>2019-04-14T09:03:30Z</time>
      </trkpt>
      <trkpt lat="44.43866" lon="1.35916">
        <ele>208</ele>
        <time>2019-04-14T09:03:31Z</time>
      </trkpt>
      <trkpt lat="44.43868" lon="1.3592">
        <ele>207</ele>
        <time>2019-04-14T09:03:32Z</time>
      </trkpt>
      <trkpt lat="44.43868" lon="1.35925">
        <ele>207</ele>
        <time>2019-04-14T09:03:33Z</time>
      </trkpt>
      <trkpt lat="44.43869" lon="1.3593">
        <ele>207</ele>
        <time>2019-04-14T09:03:34Z</time>
      </trkpt>
      <trkpt lat="44.43871" lon="1.35934">
        <ele>207</ele>
        <time>2019-04-14T09:03:35Z</time>
      </trkpt>
      <trkpt lat="44.43874" lon="1.35936">
        <ele>206</ele>
        <time>2019-04-14T09:03:36Z</time>
      </trkpt>
      <trkpt lat="44.43877" lon="1.35938">
        <ele>206</ele>
        <time>2019-04-14T09:03:37Z</time>
      </trkpt>
      <trkpt lat="44.43881" lon="1.35939">
        <ele>206</ele>
        <time>2019-04-14T09:03:38Z</time>
      </trkpt>
      <trkpt lat="44.43884" lon="1.35941">
        <ele>205</ele>
        <time>2019-04-14T09:03:39Z</time>
      </trkpt>
      <trkpt lat="44.43887" lon="1.35944">
        <ele>205</ele>
        <time>2019-04-14T09:03:40Z</time>
      </trkpt>
      <trkpt lat="44.43891" lon="1.35945">
        <ele>205</ele>
        <time>2019-04-14T09:03:41Z</time>
      </trkpt>
      <trkpt lat="44.43895" lon="1.35944">
        <ele>204</ele>
        <time>2019-04-14T09:03:42Z</time>
      </trkpt>
      <trkpt lat="44.43898" lon="1.35943">
        <ele>204</ele>
        <time>2019-04-14T09:03:43Z</time>
      </trkpt>
      <trkpt lat="44.43901" lon="1.35942">
        <ele>204</ele>
        <time>2019-04-14T09:03:44Z</time>
      </trkpt>
      <trkpt lat="44.43904" lon="1.35942">
        <ele>204</ele>
        <time>2019-04-14T09:03:45Z</time>
      </trkpt>
      <trkpt lat="44.43907" lon="1.35943">
        <ele>204</ele>
        <time>2019-04-14T09:03:46Z</time>
      </trkpt>
      <trkpt lat="44.4391" lon="1.35944">
        <ele>203</ele>
        <time>2019-04-14T09:03:47Z</time>
      </trkpt>
      <trkpt lat="44.43912" lon="1.35945">
        <ele>203</ele>
        <time>2019-04-14T09:03:48Z</time>
      </trkpt>
      <trkpt lat="44.43914" lon="1.35944">
        <ele>203</ele>
        <time>2019-04-14T09:03:49Z</time>
      </trkpt>
      <trkpt lat="44.43916" lon="1.35943">
        <ele>202</ele>
        <time>2019-04-14T09:03:50Z</time>
      </trkpt>
      <trkpt lat="44.43918" lon="1.35944">
        <ele>202</ele>
        <time>2019-04-14T09:03:51Z</time>
      </trkpt>
      <trkpt lat="44.43919" lon="1.35944">
        <ele>202</ele>
        <time>2019-04-14T09:03:52Z</time>
      </trkpt>
      <trkpt lat="44.43922" lon="1.35946">
        <ele>201</ele>
        <time>2019-04-14T09:03:53Z</time>
      </trkpt>
      <trkpt lat="44.43924" lon="1.35947">
        <ele>201</ele>
        <time>2019-04-14T09:03:54Z</time>
      </trkpt>
      <trkpt lat="44.43927" lon="1.35948">
        <ele>200</ele>
        <time>2019-04-14T09:03:55Z</time>
      </trkpt>
      <trkpt lat="44.43929" lon="1.35949">
        <ele>200</ele>
        <time>2019-04-14T09:03:56Z</time>
      </trkpt>
      <trkpt lat="44.43931" lon="1.35951">
        <ele>200</ele>
        <time>2019-04-14T09:03:57Z</time>
      </trkpt>
      <trkpt lat="44.43932" lon="1.35953">
        <ele>199</ele>
        <time>2019-04-14T09:03:58Z</time>
      </trkpt>
      <trkpt lat="44.43932" lon="1.35957">
        <ele>199</ele>
        <time>2019-04-14T09:03:59Z</time>
      </trkpt>
      <trkpt lat="44.43932" lon="1.35961">
        <ele>199</ele>
        <time>2019-04-14T09:04:00Z</time>
      </trkpt>
      <trkpt lat="44.43931" lon="1.35964">
        <ele>199</ele>
        <time>2019-04-14T09:04:01Z</time>
      </trkpt>
      <trkpt lat="44.43931" lon="1.35967">
        <ele>198</ele>
        <time>2019-04-14T09:04:02Z</time>
      </trkpt>
      <trkpt lat="44.43931" lon="1.35969">
        <ele>198</ele>
        <time>2019-04-14T09:04:03Z</time>
      </trkpt>
      <trkpt lat="44.43931" lon="1.35971">
        <ele>198</ele>
        <time>2019-04-14T09:04:04Z</time>
      </trkpt>
      <trkpt lat="44.4393" lon="1.35972">
        <ele>198</ele>
        <time>2019-04-14T09:04:05Z</time>
      </trkpt>
      <trkpt lat="44.43931" lon="1.35974">
        <ele>198</ele>
        <time>2019-04-14T09:04:06Z</time>
      </trkpt>
      <trkpt lat="44.43932" lon="1.35976">
        <ele>197</ele>
        <time>2019-04-14T09:04:07Z</time>
      </trkpt>
      <trkpt lat="44.43933" lon="1.35978">
        <ele>196</ele>
        <time>2019-04-14T09:04:08Z</time>
      </trkpt>
      <trkpt lat="44.43934" lon="1.3598">
        <ele>196</ele>
        <time>2019-04-14T09:04:09Z</time>
      </trkpt>
      <trkpt lat="44.43935" lon="1.35982">
        <ele>195</ele>
        <time>2019-04-14T09:04:10Z</time>
      </trkpt>
      <trkpt lat="44.43937" lon="1.35984">
        <ele>194</ele>
        <time>2019-04-14T09:04:11Z</time>
      </trkpt>
      <trkpt lat="44.43938" lon="1.35985">
        <ele>194</ele>
        <time>2019-04-14T09:04:12Z</time>
      </trkpt>
      <trkpt lat="44.43939" lon="1.35986">
        <ele>193</ele>
        <time>2019-04-14T09:04:13Z</time>
      </trkpt>
      <trkpt lat="44.4394" lon="1.35986">
        <ele>192</ele>
        <time>2019-04-14T09:04:14Z</time>
      </trkpt>
      <trkpt lat="44.43942" lon="1.35987">
        <ele>192</ele>
        <time>2019-04-14T09:04:15Z</time>
      </trkpt>
      <trkpt lat="44.43944" lon="1.35987">
        <ele>191</ele>
        <time>2019-04-14T09:04:16Z</time>
      </trkpt>
      <trkpt lat="44.43946" lon="1.35988">
        <ele>190</ele>
        <time>2019-04-14T09:04:17Z</time>
      </trkpt>
      <trkpt lat="44.4395" lon="1.35989">
        <ele>190</ele>
        <time>2019-04-14T09:04:18Z</time>
      </trkpt>
      <trkpt lat="44.43954" lon="1.3599">
        <ele>189</ele>
        <time>2019-04-14T09:04:19Z</time>
      </trkpt>
      <trkpt lat="44.43957" lon="1.35991">
        <ele>188</ele>
        <time>2019-04-14T09:04:20Z</time>
      </trkpt>
      <trkpt lat="44.43962" lon="1.3599">
        <ele>187</ele>
        <time>2019-04-14T09:04:21Z</time>
      </trkpt>
      <trkpt lat="44.43966" lon="1.3599">
        <ele>186</ele>
        <time>2019-04-14T09:04:22Z</time>
      </trkpt>
      <trkpt lat="44.4397" lon="1.3599">
        <ele>186</ele>
        <time>2019-04-14T09:04:23Z</time>
      </trkpt>
      <trkpt lat="44.43974" lon="1.3599">
        <ele>185</ele>
        <time>2019-04-14T09:04:24Z</time>
      </trkpt>
      <trkpt lat="44.43975" lon="1.3599">
        <ele>184</ele>
        <time>2019-04-14T09:04:25Z</time>
      </trkpt>
      <trkpt lat="44.43977" lon="1.35991">
        <ele>183</ele>
        <time>2019-04-14T09:04:26Z</time>
      </trkpt>
      <trkpt lat="44.43979" lon="1.35991">
        <ele>183</ele>
        <time>2019-04-14T09:04:27Z</time>
      </trkpt>
      <trkpt lat="44.43981" lon="1.35989">
        <ele>183</ele>
        <time>2019-04-14T09:04:28Z</time>
      </trkpt>
      <trkpt lat="44.43985" lon="1.35988">
        <ele>182</ele>
        <time>2019-04-14T09:04:29Z</time>
      </trkpt>
      <trkpt lat="44.43988" lon="1.35987">
        <ele>181</ele>
        <time>2019-04-14T09:04:30Z</time>
      </trkpt>
      <trkpt lat="44.43991" lon="1.35988">
        <ele>181</ele>
        <time>2019-04-14T09:04:31Z</time>
      </trkpt>
      <trkpt lat="44.43994" lon="1.35989">
        <ele>180</ele>
        <time>2019-04-14T09:04:32Z</time>
      </trkpt>
      <trkpt lat="44.43997" lon="1.35991">
        <ele>177</ele>
        <time>2019-04-14T09:04:33Z</time>
      </trkpt>
      <trkpt lat="44.44" lon="1.3599">
        <ele>177</ele>
        <time>2019-04-14T09:04:34Z</time>
      </trkpt>
      <trkpt lat="44.44003" lon="1.35989">
        <ele>176</ele>
        <time>2019-04-14T09:04:35Z</time>
      </trkpt>
      <trkpt lat="44.44007" lon="1.35988">
        <ele>175</ele>
        <time>2019-04-14T09:04:36Z</time>
      </trkpt>
      <trkpt lat="44.4401" lon="1.35986">
        <ele>174</ele>
        <time>2019-04-14T09:04:37Z</time>
      </trkpt>
      <trkpt lat="44.44012" lon="1.35986">
        <ele>173</ele>
        <time>2019-04-14T09:04:38Z</time>
      </trkpt>
      <trkpt lat="44.44013" lon="1.35986">
        <ele>172</ele>
        <time>2019-04-14T09:04:39Z</time>
      </trkpt>
      <trkpt lat="44.44015" lon="1.35985">
        <ele>172</ele>
        <time>2019-04-14T09:04:40Z</time>
      </trkpt>
      <trkpt lat="44.44018" lon="1.35983">
        <ele>171</ele>
        <time>2019-04-14T09:04:41Z</time>
      </trkpt>
      <trkpt lat="44.44021" lon="1.35982">
        <ele>170</ele>
        <time>2019-04-14T09:04:42Z</time>
      </trkpt>
      <trkpt lat="44.44024" lon="1.3598">
        <ele>169</ele>
        <time>2019-04-14T09:04:43Z</time>
      </trkpt>
      <trkpt lat="44.44026" lon="1.35978">
        <ele>168</ele>
        <time>2019-04-14T09:04:44Z</time>
      </trkpt>
      <trkpt lat="44.44028" lon="1.35977">
        <ele>167</ele>
        <time>2019-04-14T09:04:45Z</time>
      </trkpt>
      <trkpt lat="44.4403" lon="1.35977">
        <ele>167</ele>
        <time>2019-04-14T09:04:46Z</time>
      </trkpt>
      <trkpt lat="44.44032" lon="1.35976">
        <ele>166</ele>
        <time>2019-04-14T09:04:47Z</time>
      </trkpt>
      <trkpt lat="44.44034" lon="1.35976">
        <ele>165</ele>
        <time>2019-04-14T09:04:48Z</time>
      </trkpt>
      <trkpt lat="44.44036" lon="1.35976">
        <ele>164</ele>
        <time>2019-04-14T09:04:49Z</time>
      </trkpt>
      <trkpt lat="44.44038" lon="1.35976">
        <ele>163</ele>
        <time>2019-04-14T09:04:50Z</time>
      </trkpt>
      <trkpt lat="44.44039" lon="1.35976">
        <ele>161</ele>
        <time>2019-04-14T09:04:51Z</time>
      </trkpt>
      <trkpt lat="44.4404" lon="1.35976">
        <ele>161</ele>
        <time>2019-04-14T09:04:52Z</time>
      </trkpt>
      <trkpt lat="44.44042" lon="1.35977">
        <ele>160</ele>
        <time>2019-04-14T09:04:53Z</time>
      </trkpt>
      <trkpt lat="44.44045" lon="1.35977">
        <ele>159</ele>
        <time>2019-04-14T09:04:54Z</time>
      </trkpt>
      <trkpt lat="44.44047" lon="1.35977">
        <ele>157</ele>
        <time>2019-04-14T09:04:55Z</time>
      </trkpt>
      <trkpt lat="44.4405" lon="1.35977">
        <ele>156</ele>
        <time>2019-04-14T09:04:56Z</time>
      </trkpt>
      <trkpt lat="44.44054" lon="1.35976">
        <ele>155</ele>
        <time>2019-04-14T09:04:57Z</time>
      </trkpt>
      <trkpt lat="44.44057" lon="1.35975">
        <ele>154</ele>
        <time>2019-04-14T09:04:58Z</time>
      </trkpt>
      <trkpt lat="44.4406" lon="1.35973">
        <ele>153</ele>
        <time>2019-04-14T09:04:59Z</time>
      </trkpt>
      <trkpt lat="44.44062" lon="1.3597">
        <ele>152</ele>
        <time>2019-04-14T09:05:00Z</time>
      </trkpt>
      <trkpt lat="44.44063" lon="1.35966">
        <ele>151</ele>
        <time>2019-04-14T09:05:01Z</time>
      </trkpt>
      <trkpt lat="44.44064" lon="1.35963">
        <ele>150</ele>
        <time>2019-04-14T09:05:02Z</time>
      </trkpt>
      <trkpt lat="44.44065" lon="1.3596">
        <ele>149</ele>
        <time>2019-04-14T09:05:03Z</time>
      </trkpt>
      <trkpt lat="44.44067" lon="1.35958">
        <ele>148</ele>
        <time>2019-04-14T09:05:04Z</time>
      </trkpt>
      <trkpt lat="44.4407" lon="1.35954">
        <ele>147</ele>
        <time>2019-04-14T09:05:05Z</time>
      </trkpt>
      <trkpt lat="44.44073" lon="1.35952">
        <ele>146</ele>
        <time>2019-04-14T09:05:06Z</time>
      </trkpt>
      <trkpt lat="44.44076" lon="1.35952">
        <ele>146</ele>
        <time>2019-04-14T09:05:07Z</time>
      </trkpt>
      <trkpt lat="44.44079" lon="1.35954">
        <ele>145</ele>
        <time>2019-04-14T09:05:08Z</time>
      </trkpt>
      <trkpt lat="44.4408" lon="1.35957">
        <ele>144</ele>
        <time>2019-04-14T09:05:09Z</time>
      </trkpt>
      <trkpt lat="44.4408" lon="1.35962">
        <ele>144</ele>
        <time>2019-04-14T09:05:10Z</time>
      </trkpt>
      <trkpt lat="44.44083" lon="1.35964">
        <ele>144</ele>
        <time>2019-04-14T09:05:11Z</time>
      </trkpt>
      <trkpt lat="44.44087" lon="1.35966">
        <ele>143</ele>
        <time>2019-04-14T09:05:12Z</time>
      </trkpt>
      <trkpt lat="44.44092" lon="1.3597">
        <ele>142</ele>
        <time>2019-04-14T09:05:13Z</time>
      </trkpt>
      <trkpt lat="44.44096" lon="1.35975">
        <ele>142</ele>
        <time>2019-04-14T09:05:14Z</time>
      </trkpt>
      <trkpt lat="44.44099" lon="1.35979">
        <ele>141</ele>
        <time>2019-04-14T09:05:15Z</time>
      </trkpt>
      <trkpt lat="44.44101" lon="1.35982">
        <ele>141</ele>
        <time>2019-04-14T09:05:16Z</time>
      </trkpt>
      <trkpt lat="44.44101" lon="1.35983">
        <ele>141</ele>
        <time>2019-04-14T09:05:17Z</time>
      </trkpt>
      <trkpt lat="44.44102" lon="1.35982">
        <ele>141</ele>
        <time>2019-04-14T09:05:18Z</time>
      </trkpt>
      <trkpt lat="44.44102" lon="1.35982">
        <ele>141</ele>
        <time>2019-04-14T09:05:19Z</time>
      </trkpt>
      <trkpt lat="44.44102" lon="1.35982">
        <ele>141</ele>
        <time>2019-04-14T09:05:20Z</time>
      </trkpt>
      <trkpt lat="44.44102" lon="1.35982">
        <ele>141</ele>
        <time>2019-04-14T09:05:21Z</time>
      </trkpt>
      <trkpt lat="44.44102" lon="1.35982">
        <ele>141</ele>
        <time>2019-04-14T09:05:22Z</time>
      </trkpt>
      <trkpt lat="44.44103" lon="1.35982">
        <ele>141</ele>
        <time>2019-04-14T09:05:23Z</time>
      </trkpt>
      <trkpt lat="44.44103" lon="1.35982">
        <ele>141</ele>
        <time>2019-04-14T09:05:24Z</time>
      </trkpt>
      <trkpt lat="44.44116" lon="1.35978">
        <ele>135</ele>
        <time>2019-04-14T09:10:01Z</time>
      </trkpt>
      <trkpt lat="44.44116" lon="1.35979">
        <ele>135</ele>
        <time>2019-04-14T09:10:02Z</time>
      </trkpt>
      <trkpt lat="44.44116" lon="1.35979">
        <ele>135</ele>
        <time>2019-04-14T09:10:03Z</time>
      </trkpt>
      <trkpt lat="44.44116" lon="1.35978">
        <ele>135</ele>
        <time>2019-04-14T09:10:04Z</time>
      </trkpt>
      <trkpt lat="44.44116" lon="1.35978">
        <ele>135</ele>
        <time>2019-04-14T09:10:05Z</time>
      </trkpt>
      <trkpt lat="44.44142" lon="1.35989">
        <ele>131</ele>
        <time>2019-04-14T09:10:19Z</time>
      </trkpt>
      <trkpt lat="44.44144" lon="1.35992">
        <ele>131</ele>
        <time>2019-04-14T09:10:20Z</time>
      </trkpt>
      <trkpt lat="44.44145" lon="1.35995">
        <ele>130</ele>
        <time>2019-04-14T09:10:21Z</time>
      </trkpt>
      <trkpt lat="44.44147" lon="1.35996">
        <ele>130</ele>
        <time>2019-04-14T09:10:22Z</time>
      </trkpt>
      <trkpt lat="44.44149" lon="1.35999">
        <ele>129</ele>
        <time>2019-04-14T09:10:23Z</time>
      </trkpt>
      <trkpt lat="44.4415" lon="1.36001">
        <ele>129</ele>
        <time>2019-04-14T09:10:24Z</time>
      </trkpt>
      <trkpt lat="44.44151" lon="1.36003">
        <ele>128</ele>
        <time>2019-04-14T09:10:25Z</time>
      </trkpt>
      <trkpt lat="44.44152" lon="1.36005">
        <ele>128</ele>
        <time>2019-04-14T09:10:26Z</time>
      </trkpt>
      <trkpt lat="44.44153" lon="1.36008">
        <ele>127</ele>
        <time>2019-04-14T09:10:27Z</time>
      </trkpt>
      <trkpt lat="44.44154" lon="1.36011">
        <ele>127</ele>
        <time>2019-04-14T09:10:28Z</time>
      </trkpt>
      <trkpt lat="44.44155" lon="1.36015">
        <ele>126</ele>
        <time>2019-04-14T09:10:29Z</time>
      </trkpt>
      <trkpt lat="44.44155" lon="1.36019">
        <ele>126</ele>
        <time>2019-04-14T09:10:30Z</time>
      </trkpt>
      <trkpt lat="44.44156" lon="1.36022">
        <ele>125</ele>
        <time>2019-04-14T09:10:31Z</time>
      </trkpt>
      <trkpt lat="44.44157" lon="1.36024">
        <ele>125</ele>
        <time>2019-04-14T09:10:32Z</time>
      </trkpt>
      <trkpt lat="44.44157" lon="1.36026">
        <ele>125</ele>
        <time>2019-04-14T09:10:33Z</time>
      </trkpt>
      <trkpt lat="44.44158" lon="1.36027">
        <ele>125</ele>
        <time>2019-04-14T09:10:34Z</time>
      </trkpt>
      <trkpt lat="44.44159" lon="1.36028">
        <ele>125</ele>
        <time>2019-04-14T09:10:35Z</time>
      </trkpt>
      <trkpt lat="44.44159" lon="1.3603">
        <ele>125</ele>
        <time>2019-04-14T09:10:36Z</time>
      </trkpt>
      <trkpt lat="44.44159" lon="1.36031">
        <ele>125</ele>
        <time>2019-04-14T09:10:37Z</time>
      </trkpt>
      <trkpt lat="44.44159" lon="1.36032">
        <ele>124</ele>
        <time>2019-04-14T09:10:38Z</time>
      </trkpt>
      <trkpt lat="44.44159" lon="1.36033">
        <ele>124</ele>
        <time>2019-04-14T09:10:39Z</time>
      </trkpt>
      <trkpt lat="44.44158" lon="1.36035">
        <ele>124</ele>
        <time>2019-04-14T09:10:40Z</time>
      </trkpt>
      <trkpt lat="44.44159" lon="1.36036">
        <ele>124</ele>
        <time>2019-04-14T09:10:41Z</time>
      </trkpt>
      <trkpt lat="44.44159" lon="1.36035">
        <ele>123</ele>
        <time>2019-04-14T09:10:42Z</time>
      </trkpt>
      <trkpt lat="44.44161" lon="1.36034">
        <ele>123</ele>
        <time>2019-04-14T09:10:43Z</time>
      </trkpt>
      <trkpt lat="44.44163" lon="1.36033">
        <ele>123</ele>
        <time>2019-04-14T09:10:44Z</time>
      </trkpt>
      <trkpt lat="44.44166" lon="1.36032">
        <ele>122</ele>
        <time>2019-04-14T09:10:45Z</time>
      </trkpt>
      <trkpt lat="44.4417" lon="1.36028">
        <ele>122</ele>
        <time>2019-04-14T09:10:46Z</time>
      </trkpt>
      <trkpt lat="44.44174" lon="1.36025">
        <ele>121</ele>
        <time>2019-04-14T09:10:47Z</time>
      </trkpt>
      <trkpt lat="44.44179" lon="1.36023">
        <ele>121</ele>
        <time>2019-04-14T09:10:48Z</time>
      </trkpt>
      <trkpt lat="44.44183" lon="1.3602">
        <ele>121</ele>
        <time>2019-04-14T09:10:49Z</time>
      </trkpt>
      <trkpt lat="44.4419" lon="1.36017">
        <ele>121</ele>
        <time>2019-04-14T09:10:50Z</time>
      </trkpt>
      <trkpt lat="44.44196" lon="1.36014">
        <ele>121</ele>
        <time>2019-04-14T09:10:51Z</time>
      </trkpt>
      <trkpt lat="44.44202" lon="1.3601">
        <ele>121</ele>
        <time>2019-04-14T09:10:52Z</time>
      </trkpt>
      <trkpt lat="44.44206" lon="1.36008">
        <ele>121</ele>
        <time>2019-04-14T09:10:53Z</time>
      </trkpt>
      <trkpt lat="44.4421" lon="1.36004">
        <ele>121</ele>
        <time>2019-04-14T09:10:54Z</time>
      </trkpt>
      <trkpt lat="44.44213" lon="1.35999">
        <ele>121</ele>
        <time>2019-04-14T09:10:55Z</time>
      </trkpt>
      <trkpt lat="44.44215" lon="1.35995">
        <ele>121</ele>
        <time>2019-04-14T09:10:56Z</time>
      </trkpt>
      <trkpt lat="44.44219" lon="1.35991">
        <ele>121</ele>
        <time>2019-04-14T09:10:57Z</time>
      </trkpt>
      <trkpt lat="44.44223" lon="1.35988">
        <ele>121</ele>
        <time>2019-04-14T09:10:58Z</time>
      </trkpt>
      <trkpt lat="44.44227" lon="1.35985">
        <ele>121</ele>
        <time>2019-04-14T09:10:59Z</time>
      </trkpt>
      <trkpt lat="44.44231" lon="1.35983">
        <ele>121</ele>
        <time>2019-04-14T09:11:00Z</time>
      </trkpt>
      <trkpt lat="44.44234" lon="1.3598">
        <ele>121</ele>
        <time>2019-04-14T09:11:01Z</time>
      </trkpt>
      <trkpt lat="44.44238" lon="1.35977">
        <ele>121</ele>
        <time>2019-04-14T09:11:02Z</time>
      </trkpt>
      <trkpt lat="44.44241" lon="1.35974">
        <ele>121</ele>
        <time>2019-04-14T09:11:03Z</time>
      </trkpt>
      <trkpt lat="44.44243" lon="1.3597">
        <ele>121</ele>
        <time>2019-04-14T09:11:04Z</time>
      </trkpt>
      <trkpt lat="44.44247" lon="1.35968">
        <ele>121</ele>
        <time>2019-04-14T09:11:05Z</time>
      </trkpt>
      <trkpt lat="44.4425" lon="1.35966">
        <ele>121</ele>
        <time>2019-04-14T09:11:06Z</time>
      </trkpt>
      <trkpt lat="44.44251" lon="1.35962">
        <ele>121</ele>
        <time>2019-04-14T09:11:07Z</time>
      </trkpt>
      <trkpt lat="44.44254" lon="1.35959">
        <ele>121</ele>
        <time>2019-04-14T09:11:08Z</time>
      </trkpt>
      <trkpt lat="44.44255" lon="1.35959">
        <ele>121</ele>
        <time>2019-04-14T09:11:09Z</time>
      </trkpt>
      <trkpt lat="44.44258" lon="1.35959">
        <ele>121</ele>
        <time>2019-04-14T09:11:10Z</time>
      </trkpt>
      <trkpt lat="44.4426" lon="1.35958">
        <ele>121</ele>
        <time>2019-04-14T09:11:11Z</time>
      </trkpt>
      <trkpt lat="44.4426" lon="1.35957">
        <ele>121</ele>
        <time>2019-04-14T09:11:12Z</time>
      </trkpt>
      <trkpt lat="44.4426" lon="1.35957">
        <ele>121</ele>
        <time>2019-04-14T09:11:13Z</time>
      </trkpt>
      <trkpt lat="44.4426" lon="1.35957">
        <ele>121</ele>
        <time>2019-04-14T09:11:14Z</time>
      </trkpt>
      <trkpt lat="44.44261" lon="1.35956">
        <ele>121</ele>
        <time>2019-04-14T09:11:15Z</time>
      </trkpt>
      <trkpt lat="44.44261" lon="1.35956">
        <ele>121</ele>
        <time>2019-04-14T09:11:16Z</time>
      </trkpt>
      <trkpt lat="44.44296" lon="1.35947">
        <ele>121</ele>
        <time>2019-04-14T09:11:40Z</time>
      </trkpt>
      <trkpt lat="44.44299" lon="1.35945">
        <ele>121</ele>
        <time>2019-04-14T09:11:41Z</time>
      </trkpt>
      <trkpt lat="44.44302" lon="1.35943">
        <ele>121</ele>
        <time>2019-04-14T09:11:42Z</time>
      </trkpt>
      <trkpt lat="44.44305" lon="1.3594">
        <ele>121</ele>
        <time>2019-04-14T09:11:43Z</time>
      </trkpt>
      <trkpt lat="44.44307" lon="1.35939">
        <ele>121</ele>
        <time>2019-04-14T09:11:44Z</time>
      </trkpt>
      <trkpt lat="44.44309" lon="1.35938">
        <ele>121</ele>
        <time>2019-04-14T09:11:45Z</time>
      </trkpt>
      <trkpt lat="44.44312" lon="1.35937">
        <ele>120</ele>
        <time>2019-04-14T09:11:46Z</time>
      </trkpt>
      <trkpt lat="44.44315" lon="1.35936">
        <ele>120</ele>
        <time>2019-04-14T09:11:47Z</time>
      </trkpt>
      <trkpt lat="44.44319" lon="1.35935">
        <ele>120</ele>
        <time>2019-04-14T09:11:48Z</time>
      </trkpt>
      <trkpt lat="44.44321" lon="1.35933">
        <ele>120</ele>
        <time>2019-04-14T09:11:49Z</time>
      </trkpt>
      <trkpt lat="44.44323" lon="1.3593">
        <ele>120</ele>
        <time>2019-04-14T09:11:50Z</time>
      </trkpt>
      <trkpt lat="44.44325" lon="1.35928">
        <ele>120</ele>
        <time>2019-04-14T09:11:51Z</time>
      </trkpt>
      <trkpt lat="44.44327" lon="1.35926">
        <ele>120</ele>
        <time>2019-04-14T09:11:52Z</time>
      </trkpt>
      <trkpt lat="44.4433" lon="1.35924">
        <ele>120</ele>
        <time>2019-04-14T09:11:53Z</time>
      </trkpt>
      <trkpt lat="44.44332" lon="1.35923">
        <ele>121</ele>
        <time>2019-04-14T09:11:54Z</time>
      </trkpt>
      <trkpt lat="44.44333" lon="1.35922">
        <ele>121</ele>
        <time>2019-04-14T09:11:55Z</time>
      </trkpt>
      <trkpt lat="44.44333" lon="1.35921">
        <ele>121</ele>
        <time>2019-04-14T09:11:56Z</time>
      </trkpt>
      <trkpt lat="44.44334" lon="1.35922">
        <ele>121</ele>
        <time>2019-04-14T09:11:57Z</time>
      </trkpt>
      <trkpt lat="44.44335" lon="1.35921">
        <ele>121</ele>
        <time>2019-04-14T09:11:58Z</time>
      </trkpt>
      <trkpt lat="44.44337" lon="1.35921">
        <ele>121</ele>
        <time>2019-04-14T09:11:59Z</time>
      </trkpt>
      <trkpt lat="44.4434" lon="1.3592">
        <ele>121</ele>
        <time>2019-04-14T09:12:00Z</time>
      </trkpt>
      <trkpt lat="44.44344" lon="1.35919">
        <ele>121</ele>
        <time>2019-04-14T09:12:01Z</time>
      </trkpt>
      <trkpt lat="44.44349" lon="1.35917">
        <ele>121</ele>
        <time>2019-04-14T09:12:02Z</time>
      </trkpt>
      <trkpt lat="44.44353" lon="1.35916">
        <ele>121</ele>
        <time>2019-04-14T09:12:03Z</time>
      </trkpt>
      <trkpt lat="44.44357" lon="1.35915">
        <ele>121</ele>
        <time>2019-04-14T09:12:04Z</time>
      </trkpt>
      <trkpt lat="44.44361" lon="1.35916">
        <ele>121</ele>
        <time>2019-04-14T09:12:05Z</time>
      </trkpt>
      <trkpt lat="44.44366" lon="1.35916">
        <ele>121</ele>
        <time>2019-04-14T09:12:06Z</time>
      </trkpt>
      <trkpt lat="44.4437" lon="1.35916">
        <ele>121</ele>
        <time>2019-04-14T09:12:07Z</time>
      </trkpt>
      <trkpt lat="44.44375" lon="1.35915">
        <ele>120</ele>
        <time>2019-04-14T09:12:08Z</time>
      </trkpt>
      <trkpt lat="44.44378" lon="1.35914">
        <ele>120</ele>
        <time>2019-04-14T09:12:09Z</time>
      </trkpt>
      <trkpt lat="44.4438" lon="1.35914">
        <ele>120</ele>
        <time>2019-04-14T09:12:10Z</time>
      </trkpt>
      <trkpt lat="44.44382" lon="1.35915">
        <ele>120</ele>
        <time>2019-04-14T09:12:11Z</time>
      </trkpt>
      <trkpt lat="44.44384" lon="1.35916">
        <ele>120</ele>
        <time>2019-04-14T09:12:12Z</time>
      </trkpt>
      <trkpt lat="44.44388" lon="1.35916">
        <ele>120</ele>
        <time>2019-04-14T09:12:13Z</time>
      </trkpt>
      <trkpt lat="44.44391" lon="1.35916">
        <ele>120</ele>
        <time>2019-04-14T09:12:14Z</time>
      </trkpt>
      <trkpt lat="44.44394" lon="1.35917">
        <ele>120</ele>
        <time>2019-04-14T09:12:15Z</time>
      </trkpt>
      <trkpt lat="44.44397" lon="1.35916">
        <ele>120</ele>
        <time>2019-04-14T09:12:16Z</time>
      </trkpt>
      <trkpt lat="44.44401" lon="1.35915">
        <ele>120</ele>
        <time>2019-04-14T09:12:17Z</time>
      </trkpt>
      <trkpt lat="44.44405" lon="1.35915">
        <ele>120</ele>
        <time>2019-04-14T09:12:18Z</time>
      </trkpt>
      <trkpt lat="44.44409" lon="1.35915">
        <ele>120</ele>
        <time>2019-04-14T09:12:19Z</time>
      </trkpt>
      <trkpt lat="44.4441" lon="1.35915">
        <ele>120</ele>
        <time>2019-04-14T09:12:20Z</time>
      </trkpt>
      <trkpt lat="44.44413" lon="1.35915">
        <ele>120</ele>
        <time>2019-04-14T09:12:21Z</time>
      </trkpt>
      <trkpt lat="44.44416" lon="1.35916">
        <ele>120</ele>
        <time>2019-04-14T09:12:22Z</time>
      </trkpt>
      <trkpt lat="44.44417" lon="1.35916">
        <ele>120</ele>
        <time>2019-04-14T09:12:23Z</time>
      </trkpt>
      <trkpt lat="44.44421" lon="1.35916">
        <ele>120</ele>
        <time>2019-04-14T09:12:24Z</time>
      </trkpt>
      <trkpt lat="44.44425" lon="1.35917">
        <ele>120</ele>
        <time>2019-04-14T09:12:25Z</time>
      </trkpt>
      <trkpt lat="44.44428" lon="1.35917">
        <ele>120</ele>
        <time>2019-04-14T09:12:26Z</time>
      </trkpt>
      <trkpt lat="44.44431" lon="1.35916">
        <ele>120</ele>
        <time>2019-04-14T09:12:27Z</time>
      </trkpt>
      <trkpt lat="44.44433" lon="1.35916">
        <ele>120</ele>
        <time>2019-04-14T09:12:28Z</time>
      </trkpt>
      <trkpt lat="44.44437" lon="1.35917">
        <ele>120</ele>
        <time>2019-04-14T09:12:29Z</time>
      </trkpt>
      <trkpt lat="44.44441" lon="1.35918">
        <ele>120</ele>
        <time>2019-04-14T09:12:30Z</time>
      </trkpt>
      <trkpt lat="44.44444" lon="1.35917">
        <ele>120</ele>
        <time>2019-04-14T09:12:31Z</time>
      </trkpt>
      <trkpt lat="44.44448" lon="1.35918">
        <ele>120</ele>
        <time>2019-04-14T09:12:32Z</time>
      </trkpt>
      <trkpt lat="44.44451" lon="1.35919">
        <ele>120</ele>
        <time>2019-04-14T09:12:33Z</time>
      </trkpt>
      <trkpt lat="44.44454" lon="1.35919">
        <ele>120</ele>
        <time>2019-04-14T09:12:34Z</time>
      </trkpt>
      <trkpt lat="44.44457" lon="1.3592">
        <ele>120</ele>
        <time>2019-04-14T09:12:35Z</time>
      </trkpt>
      <trkpt lat="44.44459" lon="1.3592">
        <ele>120</ele>
        <time>2019-04-14T09:12:36Z</time>
      </trkpt>
      <trkpt lat="44.44462" lon="1.35921">
        <ele>120</ele>
        <time>2019-04-14T09:12:37Z</time>
      </trkpt>
      <trkpt lat="44.44465" lon="1.35921">
        <ele>120</ele>
        <time>2019-04-14T09:12:38Z</time>
      </trkpt>
      <trkpt lat="44.44468" lon="1.35922">
        <ele>120</ele>
        <time>2019-04-14T09:12:39Z</time>
      </trkpt>
      <trkpt lat="44.4447" lon="1.35922">
        <ele>119</ele>
        <time>2019-04-14T09:12:40Z</time>
      </trkpt>
      <trkpt lat="44.44474" lon="1.35923">
        <ele>119</ele>
        <time>2019-04-14T09:12:41Z</time>
      </trkpt>
      <trkpt lat="44.44478" lon="1.35923">
        <ele>118</ele>
        <time>2019-04-14T09:12:42Z</time>
      </trkpt>
      <trkpt lat="44.44482" lon="1.35924">
        <ele>118</ele>
        <time>2019-04-14T09:12:43Z</time>
      </trkpt>
      <trkpt lat="44.44487" lon="1.35923">
        <ele>118</ele>
        <time>2019-04-14T09:12:44Z</time>
      </trkpt>
      <trkpt lat="44.44491" lon="1.35923">
        <ele>118</ele>
        <time>2019-04-14T09:12:45Z</time>
      </trkpt>
      <trkpt lat="44.44494" lon="1.35924">
        <ele>118</ele>
        <time>2019-04-14T09:12:46Z</time>
      </trkpt>
      <trkpt lat="44.44497" lon="1.35926">
        <ele>118</ele>
        <time>2019-04-14T09:12:47Z</time>
      </trkpt>
      <trkpt lat="44.44501" lon="1.35927">
        <ele>118</ele>
        <time>2019-04-14T09:12:48Z</time>
      </trkpt>
      <trkpt lat="44.44505" lon="1.3593">
        <ele>118</ele>
        <time>2019-04-14T09:12:49Z</time>
      </trkpt>
      <trkpt lat="44.44507" lon="1.35931">
        <ele>118</ele>
        <time>2019-04-14T09:12:50Z</time>
      </trkpt>
      <trkpt lat="44.4451" lon="1.35931">
        <ele>118</ele>
        <time>2019-04-14T09:12:51Z</time>
      </trkpt>
      <trkpt lat="44.44511" lon="1.35932">
        <ele>118</ele>
        <time>2019-04-14T09:12:52Z</time>
      </trkpt>
      <trkpt lat="44.44514" lon="1.35934">
        <ele>118</ele>
        <time>2019-04-14T09:12:53Z</time>
      </trkpt>
      <trkpt lat="44.44519" lon="1.35935">
        <ele>118</ele>
        <time>2019-04-14T09:12:54Z</time>
      </trkpt>
      <trkpt lat="44.44522" lon="1.35935">
        <ele>118</ele>
        <time>2019-04-14T09:12:55Z</time>
      </trkpt>
      <trkpt lat="44.44524" lon="1.35936">
        <ele>118</ele>
        <time>2019-04-14T09:12:56Z</time>
      </trkpt>
      <trkpt lat="44.44527" lon="1.35938">
        <ele>118</ele>
        <time>2019-04-14T09:12:57Z</time>
      </trkpt>
      <trkpt lat="44.44529" lon="1.35939">
        <ele>118</ele>
        <time>2019-04-14T09:12:58Z</time>
      </trkpt>
      <trkpt lat="44.44531" lon="1.3594">
        <ele>117</ele>
        <time>2019-04-14T09:12:59Z</time>
      </trkpt>
      <trkpt lat="44.44534" lon="1.35941">
        <ele>117</ele>
        <time>2019-04-14T09:13:00Z</time>
      </trkpt>
      <trkpt lat="44.44535" lon="1.35943">
        <ele>117</ele>
        <time>2019-04-14T09:13:01Z</time>
      </trkpt>
      <trkpt lat="44.44537" lon="1.35943">
        <ele>117</ele>
        <time>2019-04-14T09:13:02Z</time>
      </trkpt>
      <trkpt lat="44.4454" lon="1.35943">
        <ele>117</ele>
        <time>2019-04-14T09:13:03Z</time>
      </trkpt>
      <trkpt lat="44.44544" lon="1.35943">
        <ele>118</ele>
        <time>2019-04-14T09:13:04Z</time>
      </trkpt>
      <trkpt lat="44.44547" lon="1.35943">
        <ele>118</ele>
        <time>2019-04-14T09:13:05Z</time>
      </trkpt>
      <trkpt lat="44.44551" lon="1.35944">
        <ele>118</ele>
        <time>2019-04-14T09:13:06Z</time>
      </trkpt>
      <trkpt lat="44.44553" lon="1.35946">
        <ele>118</ele>
        <time>2019-04-14T09:13:07Z</time>
      </trkpt>
      <trkpt lat="44.44554" lon="1.35945">
        <ele>118</ele>
        <time>2019-04-14T09:13:08Z</time>
      </trkpt>
      <trkpt lat="44.44556" lon="1.35945">
        <ele>118</ele>
        <time>2019-04-14T09:13:09Z</time>
      </trkpt>
      <trkpt lat="44.44558" lon="1.35946">
        <ele>119</ele>
        <time>2019-04-14T09:13:10Z</time>
      </trkpt>
      <trkpt lat="44.44561" lon="1.35947">
        <ele>119</ele>
        <time>2019-04-14T09:13:11Z</time>
      </trkpt>
      <trkpt lat="44.44564" lon="1.35948">
        <ele>118</ele>
        <time>2019-04-14T09:13:12Z</time>
      </trkpt>
      <trkpt lat="44.44566" lon="1.35948">
        <ele>118</ele>
        <time>2019-04-14T09:13:13Z</time>
      </trkpt>
      <trkpt lat="44.44567" lon="1.35949">
        <ele>118</ele>
        <time>2019-04-14T09:13:14Z</time>
      </trkpt>
      <trkpt lat="44.44569" lon="1.35951">
        <ele>118</ele>
        <time>2019-04-14T09:13:15Z</time>
      </trkpt>
      <trkpt lat="44.4457" lon="1.35953">
        <ele>118</ele>
        <time>2019-04-14T09:13:16Z</time>
      </trkpt>
      <trkpt lat="44.44572" lon="1.35956">
        <ele>118</ele>
        <time>2019-04-14T09:13:17Z</time>
      </trkpt>
      <trkpt lat="44.44574" lon="1.35956">
        <ele>118</ele>
        <time>2019-04-14T09:13:18Z</time>
      </trkpt>
      <trkpt lat="44.44575" lon="1.35956">
        <ele>118</ele>
        <time>2019-04-14T09:13:19Z</time>
      </trkpt>
      <trkpt lat="44.44577" lon="1.35956">
        <ele>118</ele>
        <time>2019-04-14T09:13:20Z</time>
      </trkpt>
      <trkpt lat="44.44577" lon="1.35956">
        <ele>118</ele>
        <time>2019-04-14T09:13:21Z</time>
      </trkpt>
      <trkpt lat="44.44577" lon="1.35956">
        <ele>118</ele>
        <time>2019-04-14T09:13:22Z</time>
      </trkpt>
      <trkpt lat="44.44577" lon="1.35956">
        <ele>118</ele>
        <time>2019-04-14T09:13:23Z</time>
      </trkpt>
      <trkpt lat="44.44578" lon="1.35957">
        <ele>118</ele>
        <time>2019-04-14T09:13:24Z</time>
      </trkpt>
      <trkpt lat="44.44578" lon="1.35957">
        <ele>118</ele>
        <time>2019-04-14T09:13:25Z</time>
      </trkpt>
      <trkpt lat="44.44579" lon="1.35958">
        <ele>118</ele>
        <time>2019-04-14T09:13:26Z</time>
      </trkpt>
      <trkpt lat="44.44579" lon="1.35958">
        <ele>118</ele>
        <time>2019-04-14T09:13:27Z</time>
      </trkpt>
      <trkpt lat="44.4461" lon="1.35974">
        <ele>116</ele>
        <time>2019-04-14T09:13:58Z</time>
      </trkpt>
      <trkpt lat="44.44611" lon="1.35974">
        <ele>116</ele>
        <time>2019-04-14T09:13:59Z</time>
      </trkpt>
      <trkpt lat="44.44612" lon="1.35975">
        <ele>116</ele>
        <time>2019-04-14T09:14:00Z</time>
      </trkpt>
      <trkpt lat="44.44613" lon="1.35975">
        <ele>116</ele>
        <time>2019-04-14T09:14:01Z</time>
      </trkpt>
      <trkpt lat="44.44613" lon="1.35976">
        <ele>116</ele>
        <time>2019-04-14T09:14:02Z</time>
      </trkpt>
      <trkpt lat="44.44615" lon="1.35976">
        <ele>116</ele>
        <time>2019-04-14T09:14:03Z</time>
      </trkpt>
      <trkpt lat="44.44617" lon="1.35976">
        <ele>116</ele>
        <time>2019-04-14T09:14:04Z</time>
      </trkpt>
      <trkpt lat="44.4462" lon="1.35977">
        <ele>116</ele>
        <time>2019-04-14T09:14:05Z</time>
      </trkpt>
      <trkpt lat="44.44622" lon="1.35977">
        <ele>116</ele>
        <time>2019-04-14T09:14:06Z</time>
      </trkpt>
      <trkpt lat="44.44624" lon="1.35978">
        <ele>116</ele>
        <time>2019-04-14T09:14:07Z</time>
      </trkpt>
      <trkpt lat="44.44626" lon="1.35979">
        <ele>115</ele>
        <time>2019-04-14T09:14:08Z</time>
      </trkpt>
      <trkpt lat="44.4463" lon="1.35981">
        <ele>116</ele>
        <time>2019-04-14T09:14:09Z</time>
      </trkpt>
      <trkpt lat="44.44632" lon="1.35982">
        <ele>115</ele>
        <time>2019-04-14T09:14:10Z</time>
      </trkpt>
      <trkpt lat="44.44635" lon="1.35983">
        <ele>115</ele>
        <time>2019-04-14T09:14:11Z</time>
      </trkpt>
      <trkpt lat="44.44638" lon="1.35983">
        <ele>115</ele>
        <time>2019-04-14T09:14:12Z</time>
      </trkpt>
      <trkpt lat="44.44641" lon="1.35983">
        <ele>115</ele>
        <time>2019-04-14T09:14:13Z</time>
      </trkpt>
      <trkpt lat="44.44643" lon="1.35983">
        <ele>115</ele>
        <time>2019-04-14T09:14:14Z</time>
      </trkpt>
      <trkpt lat="44.44645" lon="1.35986">
        <ele>115</ele>
        <time>2019-04-14T09:14:15Z</time>
      </trkpt>
      <trkpt lat="44.44649" lon="1.35989">
        <ele>115</ele>
        <time>2019-04-14T09:14:16Z</time>
      </trkpt>
      <trkpt lat="44.44651" lon="1.35991">
        <ele>115</ele>
        <time>2019-04-14T09:14:17Z</time>
      </trkpt>
      <trkpt lat="44.44654" lon="1.35994">
        <ele>115</ele>
        <time>2019-04-14T09:14:18Z</time>
      </trkpt>
      <trkpt lat="44.44657" lon="1.35995">
        <ele>114</ele>
        <time>2019-04-14T09:14:19Z</time>
      </trkpt>
      <trkpt lat="44.44659" lon="1.35996">
        <ele>114</ele>
        <time>2019-04-14T09:14:20Z</time>
      </trkpt>
      <trkpt lat="44.44661" lon="1.35996">
        <ele>114</ele>
        <time>2019-04-14T09:14:21Z</time>
      </trkpt>
      <trkpt lat="44.44662" lon="1.35996">
        <ele>114</ele>
        <time>2019-04-14T09:14:22Z</time>
      </trkpt>
      <trkpt lat="44.44665" lon="1.35997">
        <ele>114</ele>
        <time>2019-04-14T09:14:23Z</time>
      </trkpt>
      <trkpt lat="44.44668" lon="1.35998">
        <ele>114</ele>
        <time>2019-04-14T09:14:24Z</time>
      </trkpt>
      <trkpt lat="44.44671" lon="1.35998">
        <ele>114</ele>
        <time>2019-04-14T09:14:25Z</time>
      </trkpt>
      <trkpt lat="44.44673" lon="1.35998">
        <ele>114</ele>
        <time>2019-04-14T09:14:26Z</time>
      </trkpt>
      <trkpt lat="44.44675" lon="1.35999">
        <ele>114</ele>
        <time>2019-04-14T09:14:27Z</time>
      </trkpt>
      <trkpt lat="44.44678" lon="1.36">
        <ele>114</ele>
        <time>2019-04-14T09:14:28Z</time>
      </trkpt>
      <trkpt lat="44.44679" lon="1.35999">
        <ele>114</ele>
        <time>2019-04-14T09:14:29Z</time>
      </trkpt>
      <trkpt lat="44.44683" lon="1.35998">
        <ele>114</ele>
        <time>2019-04-14T09:14:30Z</time>
      </trkpt>
      <trkpt lat="44.44686" lon="1.35997">
        <ele>115</ele>
        <time>2019-04-14T09:14:31Z</time>
      </trkpt>
      <trkpt lat="44.44689" lon="1.35996">
        <ele>115</ele>
        <time>2019-04-14T09:14:32Z</time>
      </trkpt>
      <trkpt lat="44.44692" lon="1.35995">
        <ele>115</ele>
        <time>2019-04-14T09:14:33Z</time>
      </trkpt>
      <trkpt lat="44.44694" lon="1.35996">
        <ele>115</ele>
        <time>2019-04-14T09:14:34Z</time>
      </trkpt>
      <trkpt lat="44.44696" lon="1.35997">
        <ele>115</ele>
        <time>2019-04-14T09:14:35Z</time>
      </trkpt>
      <trkpt lat="44.44698" lon="1.35997">
        <ele>115</ele>
        <time>2019-04-14T09:14:36Z</time>
      </trkpt>
      <trkpt lat="44.447" lon="1.35997">
        <ele>115</ele>
        <time>2019-04-14T09:14:37Z</time>
      </trkpt>
      <trkpt lat="44.44703" lon="1.35998">
        <ele>115</ele>
        <time>2019-04-14T09:14:38Z</time>
      </trkpt>
      <trkpt lat="44.44706" lon="1.35999">
        <ele>115</ele>
        <time>2019-04-14T09:14:39Z</time>
      </trkpt>
      <trkpt lat="44.44708" lon="1.35999">
        <ele>115</ele>
        <time>2019-04-14T09:14:40Z</time>
      </trkpt>
      <trkpt lat="44.4471" lon="1.36">
        <ele>115</ele>
        <time>2019-04-14T09:14:41Z</time>
      </trkpt>
      <trkpt lat="44.44713" lon="1.36003">
        <ele>114</ele>
        <time>2019-04-14T09:14:42Z</time>
      </trkpt>
      <trkpt lat="44.44717" lon="1.36005">
        <ele>114</ele>
        <time>2019-04-14T09:14:43Z</time>
      </trkpt>
      <trkpt lat="44.4472" lon="1.36005">
        <ele>113</ele>
        <time>2019-04-14T09:14:44Z</time>
      </trkpt>
      <trkpt lat="44.44723" lon="1.36005">
        <ele>113</ele>
        <time>2019-04-14T09:14:45Z</time>
      </trkpt>
      <trkpt lat="44.44725" lon="1.36006">
        <ele>113</ele>
        <time>2019-04-14T09:14:46Z</time>
      </trkpt>
      <trkpt lat="44.44728" lon="1.36006">
        <ele>113</ele>
        <time>2019-04-14T09:14:47Z</time>
      </trkpt>
      <trkpt lat="44.44728" lon="1.36007">
        <ele>113</ele>
        <time>2019-04-14T09:14:48Z</time>
      </trkpt>
      <trkpt lat="44.44731" lon="1.36008">
        <ele>113</ele>
        <time>2019-04-14T09:14:49Z</time>
      </trkpt>
      <trkpt lat="44.44735" lon="1.36008">
        <ele>113</ele>
        <time>2019-04-14T09:14:50Z</time>
      </trkpt>
      <trkpt lat="44.44738" lon="1.36008">
        <ele>112</ele>
        <time>2019-04-14T09:14:51Z</time>
      </trkpt>
      <trkpt lat="44.44739" lon="1.36007">
        <ele>113</ele>
        <time>2019-04-14T09:14:52Z</time>
      </trkpt>
      <trkpt lat="44.44743" lon="1.36007">
        <ele>113</ele>
        <time>2019-04-14T09:14:53Z</time>
      </trkpt>
      <trkpt lat="44.44746" lon="1.36007">
        <ele>113</ele>
        <time>2019-04-14T09:14:54Z</time>
      </trkpt>
      <trkpt lat="44.44749" lon="1.36006">
        <ele>113</ele>
        <time>2019-04-14T09:14:55Z</time>
      </trkpt>
      <trkpt lat="44.44753" lon="1.36005">
        <ele>113</ele>
        <time>2019-04-14T09:14:56Z</time>
      </trkpt>
      <trkpt lat="44.44756" lon="1.36003">
        <ele>113</ele>
        <time>2019-04-14T09:14:57Z</time>
      </trkpt>
      <trkpt lat="44.4476" lon="1.36003">
        <ele>113</ele>
        <time>2019-04-14T09:14:58Z</time>
      </trkpt>
      <trkpt lat="44.44763" lon="1.36003">
        <ele>113</ele>
        <time>2019-04-14T09:14:59Z</time>
      </trkpt>
      <trkpt lat="44.44765" lon="1.36003">
        <ele>114</ele>
        <time>2019-04-14T09:15:00Z</time>
      </trkpt>
      <trkpt lat="44.44767" lon="1.36002">
        <ele>114</ele>
        <time>2019-04-14T09:15:01Z</time>
      </trkpt>
      <trkpt lat="44.44769" lon="1.36001">
        <ele>114</ele>
        <time>2019-04-14T09:15:02Z</time>
      </trkpt>
      <trkpt lat="44.44771" lon="1.36">
        <ele>114</ele>
        <time>2019-04-14T09:15:03Z</time>
      </trkpt>
      <trkpt lat="44.44773" lon="1.35998">
        <ele>114</ele>
        <time>2019-04-14T09:15:04Z</time>
      </trkpt>
      <trkpt lat="44.44776" lon="1.35998">
        <ele>114</ele>
        <time>2019-04-14T09:15:05Z</time>
      </trkpt>
      <trkpt lat="44.44779" lon="1.35998">
        <ele>114</ele>
        <time>2019-04-14T09:15:06Z</time>
      </trkpt>
      <trkpt lat="44.44782" lon="1.35998">
        <ele>114</ele>
        <time>2019-04-14T09:15:07Z</time>
      </trkpt>
      <trkpt lat="44.44784" lon="1.35998">
        <ele>114</ele>
        <time>2019-04-14T09:15:08Z</time>
      </trkpt>
      <trkpt lat="44.44788" lon="1.35999">
        <ele>113</ele>
        <time>2019-04-14T09:15:09Z</time>
      </trkpt>
      <trkpt lat="44.44791" lon="1.35998">
        <ele>113</ele>
        <time>2019-04-14T09:15:10Z</time>
      </trkpt>
      <trkpt lat="44.44795" lon="1.35997">
        <ele>112</ele>
        <time>2019-04-14T09:15:11Z</time>
      </trkpt>
      <trkpt lat="44.44799" lon="1.35995">
        <ele>112</ele>
        <time>2019-04-14T09:15:12Z</time>
      </trkpt>
      <trkpt lat="44.44801" lon="1.35991">
        <ele>112</ele>
        <time>2019-04-14T09:15:13Z</time>
      </trkpt>
      <trkpt lat="44.44805" lon="1.35987">
        <ele>112</ele>
        <time>2019-04-14T09:15:14Z</time>
      </trkpt>
      <trkpt lat="44.44809" lon="1.35986">
        <ele>112</ele>
        <time>2019-04-14T09:15:15Z</time>
      </trkpt>
      <trkpt lat="44.44813" lon="1.35984">
        <ele>112</ele>
        <time>2019-04-14T09:15:16Z</time>
      </trkpt>
      <trkpt lat="44.44815" lon="1.35982">
        <ele>112</ele>
        <time>2019-04-14T09:15:17Z</time>
      </trkpt>
      <trkpt lat="44.44818" lon="1.3598">
        <ele>112</ele>
        <time>2019-04-14T09:15:18Z</time>
      </trkpt>
      <trkpt lat="44.44821" lon="1.3598">
        <ele>112</ele>
        <time>2019-04-14T09:15:19Z</time>
      </trkpt>
      <trkpt lat="44.44823" lon="1.35978">
        <ele>112</ele>
        <time>2019-04-14T09:15:20Z</time>
      </trkpt>
      <trkpt lat="44.44825" lon="1.35975">
        <ele>112</ele>
        <time>2019-04-14T09:15:21Z</time>
      </trkpt>
      <trkpt lat="44.44827" lon="1.35973">
        <ele>112</ele>
        <time>2019-04-14T09:15:22Z</time>
      </trkpt>
      <trkpt lat="44.44827" lon="1.35971">
        <ele>112</ele>
        <time>2019-04-14T09:15:23Z</time>
      </trkpt>
      <trkpt lat="44.44832" lon="1.35969">
        <ele>112</ele>
        <time>2019-04-14T09:15:24Z</time>
      </trkpt>
      <trkpt lat="44.44835" lon="1.35967">
        <ele>112</ele>
        <time>2019-04-14T09:15:25Z</time>
      </trkpt>
      <trkpt lat="44.44838" lon="1.35966">
        <ele>112</ele>
        <time>2019-04-14T09:15:26Z</time>
      </trkpt>
      <trkpt lat="44.44841" lon="1.35963">
        <ele>112</ele>
        <time>2019-04-14T09:15:27Z</time>
      </trkpt>
      <trkpt lat="44.44845" lon="1.35961">
        <ele>112</ele>
        <time>2019-04-14T09:15:28Z</time>
      </trkpt>
      <trkpt lat="44.44848" lon="1.3596">
        <ele>112</ele>
        <time>2019-04-14T09:15:29Z</time>
      </trkpt>
      <trkpt lat="44.44851" lon="1.35959">
        <ele>112</ele>
        <time>2019-04-14T09:15:30Z</time>
      </trkpt>
      <trkpt lat="44.44853" lon="1.35958">
        <ele>112</ele>
        <time>2019-04-14T09:15:31Z</time>
      </trkpt>
      <trkpt lat="44.44854" lon="1.35956">
        <ele>112</ele>
        <time>2019-04-14T09:15:32Z</time>
      </trkpt>
      <trkpt lat="44.44858" lon="1.35953">
        <ele>112</ele>
        <time>2019-04-14T09:15:33Z</time>
      </trkpt>
      <trkpt lat="44.44862" lon="1.35951">
        <ele>111</ele>
        <time>2019-04-14T09:15:34Z</time>
      </trkpt>
      <trkpt lat="44.44865" lon="1.35948">
        <ele>111</ele>
        <time>2019-04-14T09:15:35Z</time>
      </trkpt>
      <trkpt lat="44.44869" lon="1.35945">
        <ele>111</ele>
        <time>2019-04-14T09:15:36Z</time>
      </trkpt>
      <trkpt lat="44.44872" lon="1.35943">
        <ele>111</ele>
        <time>2019-04-14T09:15:37Z</time>
      </trkpt>
      <trkpt lat="44.44874" lon="1.3594">
        <ele>112</ele>
        <time>2019-04-14T09:15:38Z</time>
      </trkpt>
      <trkpt lat="44.44876" lon="1.35939">
        <ele>112</ele>
        <time>2019-04-14T09:15:39Z</time>
      </trkpt>
      <trkpt lat="44.44878" lon="1.35937">
        <ele>111</ele>
        <time>2019-04-14T09:15:40Z</time>
      </trkpt>
      <trkpt lat="44.44881" lon="1.35935">
        <ele>111</ele>
        <time>2019-04-14T09:15:41Z</time>
      </trkpt>
      <trkpt lat="44.44884" lon="1.35933">
        <ele>111</ele>
        <time>2019-04-14T09:15:42Z</time>
      </trkpt>
      <trkpt lat="44.44886" lon="1.35931">
        <ele>111</ele>
        <time>2019-04-14T09:15:43Z</time>
      </trkpt>
      <trkpt lat="44.44888" lon="1.35929">
        <ele>111</ele>
        <time>2019-04-14T09:15:44Z</time>
      </trkpt>
      <trkpt lat="44.44889" lon="1.35926">
        <ele>111</ele>
        <time>2019-04-14T09:15:45Z</time>
      </trkpt>
      <trkpt lat="44.44891" lon="1.35922">
        <ele>111</ele>
        <time>2019-04-14T09:15:46Z</time>
      </trkpt>
      <trkpt lat="44.44893" lon="1.35918">
        <ele>111</ele>
        <time>2019-04-14T09:15:47Z</time>
      </trkpt>
      <trkpt lat="44.44893" lon="1.35916">
        <ele>111</ele>
        <time>2019-04-14T09:15:48Z</time>
      </trkpt>
      <trkpt lat="44.44895" lon="1.35913">
        <ele>111</ele>
        <time>2019-04-14T09:15:49Z</time>
      </trkpt>
      <trkpt lat="44.44897" lon="1.3591">
        <ele>111</ele>
        <time>2019-04-14T09:15:50Z</time>
      </trkpt>
      <trkpt lat="44.44899" lon="1.35907">
        <ele>111</ele>
        <time>2019-04-14T09:15:51Z</time>
      </trkpt>
      <trkpt lat="44.44902" lon="1.35904">
        <ele>111</ele>
        <time>2019-04-14T09:15:52Z</time>
      </trkpt>
      <trkpt lat="44.44904" lon="1.35902">
        <ele>111</ele>
        <time>2019-04-14T09:15:53Z</time>
      </trkpt>
      <trkpt lat="44.44907" lon="1.359">
        <ele>111</ele>
        <time>2019-04-14T09:15:54Z</time>
      </trkpt>
      <trkpt lat="44.4491" lon="1.35898">
        <ele>111</ele>
        <time>2019-04-14T09:15:55Z</time>
      </trkpt>
      <trkpt lat="44.44913" lon="1.35896">
        <ele>111</ele>
        <time>2019-04-14T09:15:56Z</time>
      </trkpt>
      <trkpt lat="44.44914" lon="1.35894">
        <ele>111</ele>
        <time>2019-04-14T09:15:57Z</time>
      </trkpt>
      <trkpt lat="44.44917" lon="1.35891">
        <ele>111</ele>
        <time>2019-04-14T09:15:58Z</time>
      </trkpt>
      <trkpt lat="44.4492" lon="1.35889">
        <ele>111</ele>
        <time>2019-04-14T09:15:59Z</time>
      </trkpt>
      <trkpt lat="44.44923" lon="1.35887">
        <ele>111</ele>
        <time>2019-04-14T09:16:00Z</time>
      </trkpt>
      <trkpt lat="44.44926" lon="1.35884">
        <ele>111</ele>
        <time>2019-04-14T09:16:01Z</time>
      </trkpt>
      <trkpt lat="44.44929" lon="1.35881">
        <ele>111</ele>
        <time>2019-04-14T09:16:02Z</time>
      </trkpt>
      <trkpt lat="44.44932" lon="1.35878">
        <ele>111</ele>
        <time>2019-04-14T09:16:03Z</time>
      </trkpt>
      <trkpt lat="44.44935" lon="1.35874">
        <ele>111</ele>
        <time>2019-04-14T09:16:04Z</time>
      </trkpt>
      <trkpt lat="44.44938" lon="1.35872">
        <ele>111</ele>
        <time>2019-04-14T09:16:05Z</time>
      </trkpt>
      <trkpt lat="44.44939" lon="1.35869">
        <ele>111</ele>
        <time>2019-04-14T09:16:06Z</time>
      </trkpt>
      <trkpt lat="44.44941" lon="1.35866">
        <ele>111</ele>
        <time>2019-04-14T09:16:07Z</time>
      </trkpt>
      <trkpt lat="44.44943" lon="1.35864">
        <ele>111</ele>
        <time>2019-04-14T09:16:08Z</time>
      </trkpt>
      <trkpt lat="44.44946" lon="1.35862">
        <ele>111</ele>
        <time>2019-04-14T09:16:09Z</time>
      </trkpt>
      <trkpt lat="44.44948" lon="1.3586">
        <ele>111</ele>
        <time>2019-04-14T09:16:10Z</time>
      </trkpt>
      <trkpt lat="44.44951" lon="1.35859">
        <ele>111</ele>
        <time>2019-04-14T09:16:11Z</time>
      </trkpt>
      <trkpt lat="44.44952" lon="1.35858">
        <ele>111</ele>
        <time>2019-04-14T09:16:12Z</time>
      </trkpt>
      <trkpt lat="44.44954" lon="1.35855">
        <ele>110</ele>
        <time>2019-04-14T09:16:13Z</time>
      </trkpt>
      <trkpt lat="44.44955" lon="1.35852">
        <ele>110</ele>
        <time>2019-04-14T09:16:14Z</time>
      </trkpt>
      <trkpt lat="44.44957" lon="1.35848">
        <ele>110</ele>
        <time>2019-04-14T09:16:15Z</time>
      </trkpt>
      <trkpt lat="44.44959" lon="1.35846">
        <ele>111</ele>
        <time>2019-04-14T09:16:16Z</time>
      </trkpt>
      <trkpt lat="44.44962" lon="1.35843">
        <ele>111</ele>
        <time>2019-04-14T09:16:17Z</time>
      </trkpt>
      <trkpt lat="44.44965" lon="1.35841">
        <ele>111</ele>
        <time>2019-04-14T09:16:18Z</time>
      </trkpt>
      <trkpt lat="44.44967" lon="1.3584">
        <ele>111</ele>
        <time>2019-04-14T09:16:19Z</time>
      </trkpt>
      <trkpt lat="44.44967" lon="1.35838">
        <ele>112</ele>
        <time>2019-04-14T09:16:20Z</time>
      </trkpt>
      <trkpt lat="44.44968" lon="1.35838">
        <ele>112</ele>
        <time>2019-04-14T09:16:21Z</time>
      </trkpt>
      <trkpt lat="44.44966" lon="1.35836">
        <ele>112</ele>
        <time>2019-04-14T09:16:22Z</time>
      </trkpt>
      <trkpt lat="44.44968" lon="1.35833">
        <ele>112</ele>
        <time>2019-04-14T09:16:23Z</time>
      </trkpt>
      <trkpt lat="44.44969" lon="1.35831">
        <ele>112</ele>
        <time>2019-04-14T09:16:24Z</time>
      </trkpt>
      <trkpt lat="44.44973" lon="1.35828">
        <ele>112</ele>
        <time>2019-04-14T09:16:25Z</time>
      </trkpt>
      <trkpt lat="44.44975" lon="1.35824">
        <ele>113</ele>
        <time>2019-04-14T09:16:26Z</time>
      </trkpt>
      <trkpt lat="44.44977" lon="1.35821">
        <ele>113</ele>
        <time>2019-04-14T09:16:27Z</time>
      </trkpt>
      <trkpt lat="44.44979" lon="1.35818">
        <ele>113</ele>
        <time>2019-04-14T09:16:28Z</time>
      </trkpt>
      <trkpt lat="44.4498" lon="1.35816">
        <ele>113</ele>
        <time>2019-04-14T09:16:29Z</time>
      </trkpt>
      <trkpt lat="44.44983" lon="1.35813">
        <ele>113</ele>
        <time>2019-04-14T09:16:30Z</time>
      </trkpt>
      <trkpt lat="44.44984" lon="1.35809">
        <ele>112</ele>
        <time>2019-04-14T09:16:31Z</time>
      </trkpt>
      <trkpt lat="44.44987" lon="1.35805">
        <ele>112</ele>
        <time>2019-04-14T09:16:32Z</time>
      </trkpt>
      <trkpt lat="44.4499" lon="1.35801">
        <ele>112</ele>
        <time>2019-04-14T09:16:33Z</time>
      </trkpt>
      <trkpt lat="44.44992" lon="1.35798">
        <ele>111</ele>
        <time>2019-04-14T09:16:34Z</time>
      </trkpt>
      <trkpt lat="44.44992" lon="1.35794">
        <ele>111</ele>
        <time>2019-04-14T09:16:35Z</time>
      </trkpt>
      <trkpt lat="44.44993" lon="1.3579">
        <ele>111</ele>
        <time>2019-04-14T09:16:36Z</time>
      </trkpt>
      <trkpt lat="44.44993" lon="1.35788">
        <ele>113</ele>
        <time>2019-04-14T09:16:37Z</time>
      </trkpt>
      <trkpt lat="44.44993" lon="1.35787">
        <ele>111</ele>
        <time>2019-04-14T09:16:38Z</time>
      </trkpt>
      <trkpt lat="44.44993" lon="1.35787">
        <ele>111</ele>
        <time>2019-04-14T09:16:39Z</time>
      </trkpt>
      <trkpt lat="44.44993" lon="1.35786">
        <ele>111</ele>
        <time>2019-04-14T09:16:40Z</time>
      </trkpt>
      <trkpt lat="44.44994" lon="1.35785">
        <ele>111</ele>
        <time>2019-04-14T09:16:41Z</time>
      </trkpt>
      <trkpt lat="44.44994" lon="1.35785">
        <ele>111</ele>
        <time>2019-04-14T09:16:42Z</time>
      </trkpt>
      <trkpt lat="44.44994" lon="1.35784">
        <ele>111</ele>
        <time>2019-04-14T09:16:43Z</time>
      </trkpt>
      <trkpt lat="44.44996" lon="1.35784">
        <ele>111</ele>
        <time>2019-04-14T09:16:44Z</time>
      </trkpt>
      <trkpt lat="44.45015" lon="1.35782">
        <ele>107</ele>
        <time>2019-04-14T09:17:12Z</time>
      </trkpt>
      <trkpt lat="44.45016" lon="1.3578">
        <ele>107</ele>
        <time>2019-04-14T09:17:13Z</time>
      </trkpt>
      <trkpt lat="44.45017" lon="1.35778">
        <ele>107</ele>
        <time>2019-04-14T09:17:14Z</time>
      </trkpt>
      <trkpt lat="44.45018" lon="1.35775">
        <ele>107</ele>
        <time>2019-04-14T09:17:15Z</time>
      </trkpt>
      <trkpt lat="44.45019" lon="1.35773">
        <ele>107</ele>
        <time>2019-04-14T09:17:16Z</time>
      </trkpt>
      <trkpt lat="44.45019" lon="1.35772">
        <ele>106</ele>
        <time>2019-04-14T09:17:17Z</time>
      </trkpt>
      <trkpt lat="44.45019" lon="1.35771">
        <ele>106</ele>
        <time>2019-04-14T09:17:18Z</time>
      </trkpt>
      <trkpt lat="44.45019" lon="1.3577">
        <ele>106</ele>
        <time>2019-04-14T09:17:19Z</time>
      </trkpt>
      <trkpt lat="44.4502" lon="1.35769">
        <ele>106</ele>
        <time>2019-04-14T09:17:20Z</time>
      </trkpt>
      <trkpt lat="44.4502" lon="1.35768">
        <ele>106</ele>
        <time>2019-04-14T09:17:21Z</time>
      </trkpt>
      <trkpt lat="44.4502" lon="1.35769">
        <ele>106</ele>
        <time>2019-04-14T09:17:22Z</time>
      </trkpt>
      <trkpt lat="44.4502" lon="1.35769">
        <ele>106</ele>
        <time>2019-04-14T09:17:23Z</time>
      </trkpt>
      <trkpt lat="44.4502" lon="1.35769">
        <ele>106</ele>
        <time>2019-04-14T09:17:24Z</time>
      </trkpt>
      <trkpt lat="44.4502" lon="1.35769">
        <ele>106</ele>
        <time>2019-04-14T09:17:25Z</time>
      </trkpt>
      <trkpt lat="44.4502" lon="1.35768">
        <ele>106</ele>
        <time>2019-04-14T09:17:26Z</time>
      </trkpt>
      <trkpt lat="44.45019" lon="1.35768">
        <ele>106</ele>
        <time>2019-04-14T09:17:27Z</time>
      </trkpt>
      <trkpt lat="44.45002" lon="1.35748">
        <ele>106</ele>
        <time>2019-04-14T09:17:43Z</time>
      </trkpt>
      <trkpt lat="44.44999" lon="1.35746">
        <ele>106</ele>
        <time>2019-04-14T09:17:44Z</time>
      </trkpt>
      <trkpt lat="44.44996" lon="1.35745">
        <ele>106</ele>
        <time>2019-04-14T09:17:45Z</time>
      </trkpt>
      <trkpt lat="44.44994" lon="1.35744">
        <ele>107</ele>
        <time>2019-04-14T09:17:46Z</time>
      </trkpt>
      <trkpt lat="44.44993" lon="1.35744">
        <ele>107</ele>
        <time>2019-04-14T09:17:47Z</time>
      </trkpt>
      <trkpt lat="44.44991" lon="1.35742">
        <ele>107</ele>
        <time>2019-04-14T09:17:48Z</time>
      </trkpt>
      <trkpt lat="44.44989" lon="1.3574">
        <ele>107</ele>
        <time>2019-04-14T09:17:49Z</time>
      </trkpt>
      <trkpt lat="44.44988" lon="1.35738">
        <ele>107</ele>
        <time>2019-04-14T09:17:50Z</time>
      </trkpt>
      <trkpt lat="44.44984" lon="1.35736">
        <ele>107</ele>
        <time>2019-04-14T09:17:51Z</time>
      </trkpt>
      <trkpt lat="44.44981" lon="1.35734">
        <ele>107</ele>
        <time>2019-04-14T09:17:52Z</time>
      </trkpt>
      <trkpt lat="44.44981" lon="1.35732">
        <ele>107</ele>
        <time>2019-04-14T09:17:53Z</time>
      </trkpt>
      <trkpt lat="44.44979" lon="1.3573">
        <ele>108</ele>
        <time>2019-04-14T09:17:54Z</time>
      </trkpt>
      <trkpt lat="44.44976" lon="1.35729">
        <ele>108</ele>
        <time>2019-04-14T09:17:55Z</time>
      </trkpt>
      <trkpt lat="44.44973" lon="1.35727">
        <ele>108</ele>
        <time>2019-04-14T09:17:56Z</time>
      </trkpt>
      <trkpt lat="44.4497" lon="1.35726">
        <ele>108</ele>
        <time>2019-04-14T09:17:57Z</time>
      </trkpt>
      <trkpt lat="44.44966" lon="1.35726">
        <ele>108</ele>
        <time>2019-04-14T09:17:58Z</time>
      </trkpt>
      <trkpt lat="44.44964" lon="1.35725">
        <ele>108</ele>
        <time>2019-04-14T09:17:59Z</time>
      </trkpt>
      <trkpt lat="44.44962" lon="1.35724">
        <ele>108</ele>
        <time>2019-04-14T09:18:00Z</time>
      </trkpt>
      <trkpt lat="44.44961" lon="1.35723">
        <ele>108</ele>
        <time>2019-04-14T09:18:01Z</time>
      </trkpt>
      <trkpt lat="44.44957" lon="1.35721">
        <ele>108</ele>
        <time>2019-04-14T09:18:02Z</time>
      </trkpt>
      <trkpt lat="44.44955" lon="1.35718">
        <ele>108</ele>
        <time>2019-04-14T09:18:03Z</time>
      </trkpt>
      <trkpt lat="44.44951" lon="1.35715">
        <ele>108</ele>
        <time>2019-04-14T09:18:04Z</time>
      </trkpt>
      <trkpt lat="44.44947" lon="1.35713">
        <ele>108</ele>
        <time>2019-04-14T09:18:05Z</time>
      </trkpt>
      <trkpt lat="44.44944" lon="1.35711">
        <ele>108</ele>
        <time>2019-04-14T09:18:06Z</time>
      </trkpt>
      <trkpt lat="44.44941" lon="1.35709">
        <ele>108</ele>
        <time>2019-04-14T09:18:07Z</time>
      </trkpt>
      <trkpt lat="44.44939" lon="1.35708">
        <ele>107</ele>
        <time>2019-04-14T09:18:08Z</time>
      </trkpt>
      <trkpt lat="44.44935" lon="1.35703">
        <ele>107</ele>
        <time>2019-04-14T09:18:09Z</time>
      </trkpt>
      <trkpt lat="44.44932" lon="1.35699">
        <ele>107</ele>
        <time>2019-04-14T09:18:10Z</time>
      </trkpt>
      <trkpt lat="44.44929" lon="1.35698">
        <ele>107</ele>
        <time>2019-04-14T09:18:11Z</time>
      </trkpt>
      <trkpt lat="44.44927" lon="1.35698">
        <ele>107</ele>
        <time>2019-04-14T09:18:12Z</time>
      </trkpt>
      <trkpt lat="44.44924" lon="1.35697">
        <ele>107</ele>
        <time>2019-04-14T09:18:13Z</time>
      </trkpt>
      <trkpt lat="44.44921" lon="1.35696">
        <ele>108</ele>
        <time>2019-04-14T09:18:14Z</time>
      </trkpt>
      <trkpt lat="44.44919" lon="1.35694">
        <ele>108</ele>
        <time>2019-04-14T09:18:15Z</time>
      </trkpt>
      <trkpt lat="44.44917" lon="1.35692">
        <ele>107</ele>
        <time>2019-04-14T09:18:16Z</time>
      </trkpt>
      <trkpt lat="44.44913" lon="1.35691">
        <ele>107</ele>
        <time>2019-04-14T09:18:17Z</time>
      </trkpt>
      <trkpt lat="44.4491" lon="1.35689">
        <ele>108</ele>
        <time>2019-04-14T09:18:18Z</time>
      </trkpt>
      <trkpt lat="44.44907" lon="1.35688">
        <ele>108</ele>
        <time>2019-04-14T09:18:19Z</time>
      </trkpt>
      <trkpt lat="44.44905" lon="1.35687">
        <ele>108</ele>
        <time>2019-04-14T09:18:20Z</time>
      </trkpt>
      <trkpt lat="44.44904" lon="1.35688">
        <ele>108</ele>
        <time>2019-04-14T09:18:21Z</time>
      </trkpt>
      <trkpt lat="44.44901" lon="1.35688">
        <ele>108</ele>
        <time>2019-04-14T09:18:22Z</time>
      </trkpt>
      <trkpt lat="44.44899" lon="1.35688">
        <ele>109</ele>
        <time>2019-04-14T09:18:23Z</time>
      </trkpt>
      <trkpt lat="44.44897" lon="1.35688">
        <ele>109</ele>
        <time>2019-04-14T09:18:24Z</time>
      </trkpt>
      <trkpt lat="44.44895" lon="1.35689">
        <ele>110</ele>
        <time>2019-04-14T09:18:25Z</time>
      </trkpt>
      <trkpt lat="44.44894" lon="1.35688">
        <ele>110</ele>
        <time>2019-04-14T09:18:26Z</time>
      </trkpt>
      <trkpt lat="44.44892" lon="1.35688">
        <ele>110</ele>
        <time>2019-04-14T09:18:27Z</time>
      </trkpt>
      <trkpt lat="44.44889" lon="1.35688">
        <ele>110</ele>
        <time>2019-04-14T09:18:28Z</time>
      </trkpt>
      <trkpt lat="44.44885" lon="1.35687">
        <ele>110</ele>
        <time>2019-04-14T09:18:29Z</time>
      </trkpt>
      <trkpt lat="44.44882" lon="1.35687">
        <ele>110</ele>
        <time>2019-04-14T09:18:30Z</time>
      </trkpt>
      <trkpt lat="44.44879" lon="1.35687">
        <ele>110</ele>
        <time>2019-04-14T09:18:31Z</time>
      </trkpt>
      <trkpt lat="44.44876" lon="1.35687">
        <ele>111</ele>
        <time>2019-04-14T09:18:32Z</time>
      </trkpt>
      <trkpt lat="44.44874" lon="1.35686">
        <ele>111</ele>
        <time>2019-04-14T09:18:33Z</time>
      </trkpt>
      <trkpt lat="44.44872" lon="1.35685">
        <ele>111</ele>
        <time>2019-04-14T09:18:34Z</time>
      </trkpt>
      <trkpt lat="44.44871" lon="1.35685">
        <ele>111</ele>
        <time>2019-04-14T09:18:35Z</time>
      </trkpt>
      <trkpt lat="44.44869" lon="1.35684">
        <ele>111</ele>
        <time>2019-04-14T09:18:36Z</time>
      </trkpt>
      <trkpt lat="44.44868" lon="1.35683">
        <ele>111</ele>
        <time>2019-04-14T09:18:37Z</time>
      </trkpt>
      <trkpt lat="44.44867" lon="1.35681">
        <ele>110</ele>
        <time>2019-04-14T09:18:38Z</time>
      </trkpt>
      <trkpt lat="44.44865" lon="1.35676">
        <ele>109</ele>
        <time>2019-04-14T09:18:39Z</time>
      </trkpt>
      <trkpt lat="44.44863" lon="1.35673">
        <ele>109</ele>
        <time>2019-04-14T09:18:40Z</time>
      </trkpt>
      <trkpt lat="44.44859" lon="1.35672">
        <ele>109</ele>
        <time>2019-04-14T09:18:41Z</time>
      </trkpt>
      <trkpt lat="44.44857" lon="1.35672">
        <ele>109</ele>
        <time>2019-04-14T09:18:42Z</time>
      </trkpt>
      <trkpt lat="44.44855" lon="1.35672">
        <ele>109</ele>
        <time>2019-04-14T09:18:43Z</time>
      </trkpt>
      <trkpt lat="44.44852" lon="1.35671">
        <ele>110</ele>
        <time>2019-04-14T09:18:44Z</time>
      </trkpt>
      <trkpt lat="44.44849" lon="1.3567">
        <ele>109</ele>
        <time>2019-04-14T09:18:45Z</time>
      </trkpt>
      <trkpt lat="44.44846" lon="1.35669">
        <ele>109</ele>
        <time>2019-04-14T09:18:46Z</time>
      </trkpt>
      <trkpt lat="44.44843" lon="1.35666">
        <ele>109</ele>
        <time>2019-04-14T09:18:47Z</time>
      </trkpt>
      <trkpt lat="44.44841" lon="1.35665">
        <ele>109</ele>
        <time>2019-04-14T09:18:48Z</time>
      </trkpt>
      <trkpt lat="44.44839" lon="1.35663">
        <ele>109</ele>
        <time>2019-04-14T09:18:49Z</time>
      </trkpt>
      <trkpt lat="44.44837" lon="1.35661">
        <ele>109</ele>
        <time>2019-04-14T09:18:50Z</time>
      </trkpt>
      <trkpt lat="44.44834" lon="1.3566">
        <ele>109</ele>
        <time>2019-04-14T09:18:51Z</time>
      </trkpt>
      <trkpt lat="44.44831" lon="1.35658">
        <ele>109</ele>
        <time>2019-04-14T09:18:52Z</time>
      </trkpt>
      <trkpt lat="44.44828" lon="1.35654">
        <ele>109</ele>
        <time>2019-04-14T09:18:53Z</time>
      </trkpt>
      <trkpt lat="44.44826" lon="1.35652">
        <ele>109</ele>
        <time>2019-04-14T09:18:54Z</time>
      </trkpt>
      <trkpt lat="44.44823" lon="1.35649">
        <ele>109</ele>
        <time>2019-04-14T09:18:55Z</time>
      </trkpt>
      <trkpt lat="44.4482" lon="1.35648">
        <ele>109</ele>
        <time>2019-04-14T09:18:56Z</time>
      </trkpt>
      <trkpt lat="44.44817" lon="1.35646">
        <ele>109</ele>
        <time>2019-04-14T09:18:57Z</time>
      </trkpt>
      <trkpt lat="44.44813" lon="1.35646">
        <ele>109</ele>
        <time>2019-04-14T09:18:58Z</time>
      </trkpt>
      <trkpt lat="44.4481" lon="1.35645">
        <ele>109</ele>
        <time>2019-04-14T09:18:59Z</time>
      </trkpt>
      <trkpt lat="44.44806" lon="1.35642">
        <ele>109</ele>
        <time>2019-04-14T09:19:00Z</time>
      </trkpt>
      <trkpt lat="44.44803" lon="1.35641">
        <ele>109</ele>
        <time>2019-04-14T09:19:01Z</time>
      </trkpt>
      <trkpt lat="44.44801" lon="1.3564">
        <ele>109</ele>
        <time>2019-04-14T09:19:02Z</time>
      </trkpt>
      <trkpt lat="44.448" lon="1.3564">
        <ele>109</ele>
        <time>2019-04-14T09:19:03Z</time>
      </trkpt>
      <trkpt lat="44.44796" lon="1.35637">
        <ele>109</ele>
        <time>2019-04-14T09:19:04Z</time>
      </trkpt>
      <trkpt lat="44.44794" lon="1.35635">
        <ele>109</ele>
        <time>2019-04-14T09:19:05Z</time>
      </trkpt>
      <trkpt lat="44.44791" lon="1.35634">
        <ele>109</ele>
        <time>2019-04-14T09:19:06Z</time>
      </trkpt>
      <trkpt lat="44.44788" lon="1.35634">
        <ele>110</ele>
        <time>2019-04-14T09:19:07Z</time>
      </trkpt>
      <trkpt lat="44.44785" lon="1.35633">
        <ele>110</ele>
        <time>2019-04-14T09:19:08Z</time>
      </trkpt>
      <trkpt lat="44.44782" lon="1.35633">
        <ele>110</ele>
        <time>2019-04-14T09:19:09Z</time>
      </trkpt>
      <trkpt lat="44.44779" lon="1.35632">
        <ele>110</ele>
        <time>2019-04-14T09:19:10Z</time>
      </trkpt>
      <trkpt lat="44.44776" lon="1.3563">
        <ele>110</ele>
        <time>2019-04-14T09:19:11Z</time>
      </trkpt>
      <trkpt lat="44.44773" lon="1.35629">
        <ele>110</ele>
        <time>2019-04-14T09:19:12Z</time>
      </trkpt>
      <trkpt lat="44.44771" lon="1.35629">
        <ele>110</ele>
        <time>2019-04-14T09:19:13Z</time>
      </trkpt>
      <trkpt lat="44.44769" lon="1.35628">
        <ele>110</ele>
        <time>2019-04-14T09:19:14Z</time>
      </trkpt>
      <trkpt lat="44.44766" lon="1.35627">
        <ele>110</ele>
        <time>2019-04-14T09:19:15Z</time>
      </trkpt>
      <trkpt lat="44.44763" lon="1.35626">
        <ele>110</ele>
        <time>2019-04-14T09:19:16Z</time>
      </trkpt>
      <trkpt lat="44.4476" lon="1.35625">
        <ele>110</ele>
        <time>2019-04-14T09:19:17Z</time>
      </trkpt>
      <trkpt lat="44.44757" lon="1.35623">
        <ele>110</ele>
        <time>2019-04-14T09:19:18Z</time>
      </trkpt>
      <trkpt lat="44.44754" lon="1.35622">
        <ele>110</ele>
        <time>2019-04-14T09:19:19Z</time>
      </trkpt>
      <trkpt lat="44.4475" lon="1.3562">
        <ele>110</ele>
        <time>2019-04-14T09:19:20Z</time>
      </trkpt>
      <trkpt lat="44.44746" lon="1.35619">
        <ele>110</ele>
        <time>2019-04-14T09:19:21Z</time>
      </trkpt>
      <trkpt lat="44.44744" lon="1.35619">
        <ele>111</ele>
        <time>2019-04-14T09:19:22Z</time>
      </trkpt>
      <trkpt lat="44.44742" lon="1.35618">
        <ele>111</ele>
        <time>2019-04-14T09:19:23Z</time>
      </trkpt>
      <trkpt lat="44.44739" lon="1.35618">
        <ele>111</ele>
        <time>2019-04-14T09:19:24Z</time>
      </trkpt>
      <trkpt lat="44.44736" lon="1.35618">
        <ele>111</ele>
        <time>2019-04-14T09:19:25Z</time>
      </trkpt>
      <trkpt lat="44.44733" lon="1.35616">
        <ele>111</ele>
        <time>2019-04-14T09:19:26Z</time>
      </trkpt>
      <trkpt lat="44.44731" lon="1.35615">
        <ele>111</ele>
        <time>2019-04-14T09:19:27Z</time>
      </trkpt>
      <trkpt lat="44.44729" lon="1.35614">
        <ele>111</ele>
        <time>2019-04-14T09:19:28Z</time>
      </trkpt>
      <trkpt lat="44.44726" lon="1.35614">
        <ele>111</ele>
        <time>2019-04-14T09:19:29Z</time>
      </trkpt>
      <trkpt lat="44.44722" lon="1.35613">
        <ele>111</ele>
        <time>2019-04-14T09:19:30Z</time>
      </trkpt>
      <trkpt lat="44.44719" lon="1.35612">
        <ele>112</ele>
        <time>2019-04-14T09:19:31Z</time>
      </trkpt>
      <trkpt lat="44.44716" lon="1.35609">
        <ele>112</ele>
        <time>2019-04-14T09:19:32Z</time>
      </trkpt>
      <trkpt lat="44.44713" lon="1.35607">
        <ele>112</ele>
        <time>2019-04-14T09:19:33Z</time>
      </trkpt>
      <trkpt lat="44.4471" lon="1.35605">
        <ele>112</ele>
        <time>2019-04-14T09:19:34Z</time>
      </trkpt>
      <trkpt lat="44.44707" lon="1.35605">
        <ele>112</ele>
        <time>2019-04-14T09:19:35Z</time>
      </trkpt>
      <trkpt lat="44.44703" lon="1.35605">
        <ele>112</ele>
        <time>2019-04-14T09:19:36Z</time>
      </trkpt>
      <trkpt lat="44.447" lon="1.35606">
        <ele>112</ele>
        <time>2019-04-14T09:19:37Z</time>
      </trkpt>
      <trkpt lat="44.44698" lon="1.35604">
        <ele>112</ele>
        <time>2019-04-14T09:19:38Z</time>
      </trkpt>
      <trkpt lat="44.44694" lon="1.35603">
        <ele>112</ele>
        <time>2019-04-14T09:19:39Z</time>
      </trkpt>
      <trkpt lat="44.44691" lon="1.35602">
        <ele>112</ele>
        <time>2019-04-14T09:19:40Z</time>
      </trkpt>
      <trkpt lat="44.44687" lon="1.35601">
        <ele>112</ele>
        <time>2019-04-14T09:19:41Z</time>
      </trkpt>
      <trkpt lat="44.44683" lon="1.35599">
        <ele>112</ele>
        <time>2019-04-14T09:19:42Z</time>
      </trkpt>
      <trkpt lat="44.44679" lon="1.35598">
        <ele>112</ele>
        <time>2019-04-14T09:19:43Z</time>
      </trkpt>
      <trkpt lat="44.44675" lon="1.35598">
        <ele>112</ele>
        <time>2019-04-14T09:19:44Z</time>
      </trkpt>
      <trkpt lat="44.44671" lon="1.35598">
        <ele>112</ele>
        <time>2019-04-14T09:19:45Z</time>
      </trkpt>
      <trkpt lat="44.44667" lon="1.35599">
        <ele>113</ele>
        <time>2019-04-14T09:19:46Z</time>
      </trkpt>
      <trkpt lat="44.44665" lon="1.35599">
        <ele>113</ele>
        <time>2019-04-14T09:19:47Z</time>
      </trkpt>
      <trkpt lat="44.44664" lon="1.356">
        <ele>113</ele>
        <time>2019-04-14T09:19:48Z</time>
      </trkpt>
      <trkpt lat="44.44662" lon="1.35602">
        <ele>113</ele>
        <time>2019-04-14T09:19:49Z</time>
      </trkpt>
      <trkpt lat="44.44661" lon="1.356">
        <ele>113</ele>
        <time>2019-04-14T09:19:50Z</time>
      </trkpt>
      <trkpt lat="44.44659" lon="1.35598">
        <ele>113</ele>
        <time>2019-04-14T09:19:51Z</time>
      </trkpt>
      <trkpt lat="44.44656" lon="1.35598">
        <ele>113</ele>
        <time>2019-04-14T09:19:52Z</time>
      </trkpt>
      <trkpt lat="44.44653" lon="1.35596">
        <ele>113</ele>
        <time>2019-04-14T09:19:53Z</time>
      </trkpt>
      <trkpt lat="44.4465" lon="1.35595">
        <ele>113</ele>
        <time>2019-04-14T09:19:54Z</time>
      </trkpt>
      <trkpt lat="44.44649" lon="1.35595">
        <ele>113</ele>
        <time>2019-04-14T09:19:55Z</time>
      </trkpt>
      <trkpt lat="44.44646" lon="1.35596">
        <ele>113</ele>
        <time>2019-04-14T09:19:56Z</time>
      </trkpt>
      <trkpt lat="44.44643" lon="1.35596">
        <ele>113</ele>
        <time>2019-04-14T09:19:57Z</time>
      </trkpt>
      <trkpt lat="44.4464" lon="1.35595">
        <ele>113</ele>
        <time>2019-04-14T09:19:58Z</time>
      </trkpt>
      <trkpt lat="44.44637" lon="1.35594">
        <ele>113</ele>
        <time>2019-04-14T09:19:59Z</time>
      </trkpt>
      <trkpt lat="44.44634" lon="1.35594">
        <ele>113</ele>
        <time>2019-04-14T09:20:00Z</time>
      </trkpt>
      <trkpt lat="44.44631" lon="1.35594">
        <ele>113</ele>
        <time>2019-04-14T09:20:01Z</time>
      </trkpt>
      <trkpt lat="44.44627" lon="1.35594">
        <ele>113</ele>
        <time>2019-04-14T09:20:02Z</time>
      </trkpt>
      <trkpt lat="44.44624" lon="1.35593">
        <ele>113</ele>
        <time>2019-04-14T09:20:03Z</time>
      </trkpt>
      <trkpt lat="44.4462" lon="1.35592">
        <ele>113</ele>
        <time>2019-04-14T09:20:04Z</time>
      </trkpt>
      <trkpt lat="44.44616" lon="1.35591">
        <ele>113</ele>
        <time>2019-04-14T09:20:05Z</time>
      </trkpt>
      <trkpt lat="44.44613" lon="1.3559">
        <ele>113</ele>
        <time>2019-04-14T09:20:06Z</time>
      </trkpt>
      <trkpt lat="44.44609" lon="1.3559">
        <ele>113</ele>
        <time>2019-04-14T09:20:07Z</time>
      </trkpt>
      <trkpt lat="44.44606" lon="1.35589">
        <ele>113</ele>
        <time>2019-04-14T09:20:08Z</time>
      </trkpt>
      <trkpt lat="44.44603" lon="1.35586">
        <ele>113</ele>
        <time>2019-04-14T09:20:09Z</time>
      </trkpt>
      <trkpt lat="44.446" lon="1.35583">
        <ele>113</ele>
        <time>2019-04-14T09:20:10Z</time>
      </trkpt>
      <trkpt lat="44.44596" lon="1.35581">
        <ele>113</ele>
        <time>2019-04-14T09:20:11Z</time>
      </trkpt>
      <trkpt lat="44.44593" lon="1.3558">
        <ele>112</ele>
        <time>2019-04-14T09:20:12Z</time>
      </trkpt>
      <trkpt lat="44.4459" lon="1.35579">
        <ele>113</ele>
        <time>2019-04-14T09:20:13Z</time>
      </trkpt>
      <trkpt lat="44.44589" lon="1.3558">
        <ele>113</ele>
        <time>2019-04-14T09:20:14Z</time>
      </trkpt>
      <trkpt lat="44.44587" lon="1.3558">
        <ele>113</ele>
        <time>2019-04-14T09:20:15Z</time>
      </trkpt>
      <trkpt lat="44.44586" lon="1.3558">
        <ele>113</ele>
        <time>2019-04-14T09:20:16Z</time>
      </trkpt>
      <trkpt lat="44.44585" lon="1.35581">
        <ele>113</ele>
        <time>2019-04-14T09:20:17Z</time>
      </trkpt>
      <trkpt lat="44.44585" lon="1.35582">
        <ele>114</ele>
        <time>2019-04-14T09:20:18Z</time>
      </trkpt>
      <trkpt lat="44.44583" lon="1.35582">
        <ele>113</ele>
        <time>2019-04-14T09:20:19Z</time>
      </trkpt>
      <trkpt lat="44.44581" lon="1.35581">
        <ele>113</ele>
        <time>2019-04-14T09:20:20Z</time>
      </trkpt>
      <trkpt lat="44.44579" lon="1.35578">
        <ele>113</ele>
        <time>2019-04-14T09:20:21Z</time>
      </trkpt>
      <trkpt lat="44.44576" lon="1.35577">
        <ele>112</ele>
        <time>2019-04-14T09:20:22Z</time>
      </trkpt>
      <trkpt lat="44.44573" lon="1.35576">
        <ele>112</ele>
        <time>2019-04-14T09:20:23Z</time>
      </trkpt>
      <trkpt lat="44.4457" lon="1.35575">
        <ele>112</ele>
        <time>2019-04-14T09:20:24Z</time>
      </trkpt>
      <trkpt lat="44.44568" lon="1.35574">
        <ele>112</ele>
        <time>2019-04-14T09:20:25Z</time>
      </trkpt>
      <trkpt lat="44.44565" lon="1.35574">
        <ele>112</ele>
        <time>2019-04-14T09:20:26Z</time>
      </trkpt>
      <trkpt lat="44.44563" lon="1.35575">
        <ele>112</ele>
        <time>2019-04-14T09:20:27Z</time>
      </trkpt>
      <trkpt lat="44.4456" lon="1.35574">
        <ele>112</ele>
        <time>2019-04-14T09:20:28Z</time>
      </trkpt>
      <trkpt lat="44.44558" lon="1.35574">
        <ele>112</ele>
        <time>2019-04-14T09:20:29Z</time>
      </trkpt>
      <trkpt lat="44.44555" lon="1.35575">
        <ele>112</ele>
        <time>2019-04-14T09:20:30Z</time>
      </trkpt>
      <trkpt lat="44.44553" lon="1.35574">
        <ele>112</ele>
        <time>2019-04-14T09:20:31Z</time>
      </trkpt>
      <trkpt lat="44.4455" lon="1.35573">
        <ele>113</ele>
        <time>2019-04-14T09:20:32Z</time>
      </trkpt>
      <trkpt lat="44.44547" lon="1.3557">
        <ele>113</ele>
        <time>2019-04-14T09:20:33Z</time>
      </trkpt>
      <trkpt lat="44.44544" lon="1.35568">
        <ele>113</ele>
        <time>2019-04-14T09:20:34Z</time>
      </trkpt>
      <trkpt lat="44.44541" lon="1.35565">
        <ele>112</ele>
        <time>2019-04-14T09:20:35Z</time>
      </trkpt>
      <trkpt lat="44.44538" lon="1.35561">
        <ele>112</ele>
        <time>2019-04-14T09:20:36Z</time>
      </trkpt>
      <trkpt lat="44.44534" lon="1.35561">
        <ele>112</ele>
        <time>2019-04-14T09:20:37Z</time>
      </trkpt>
      <trkpt lat="44.44531" lon="1.35562">
        <ele>113</ele>
        <time>2019-04-14T09:20:38Z</time>
      </trkpt>
      <trkpt lat="44.44528" lon="1.35561">
        <ele>113</ele>
        <time>2019-04-14T09:20:39Z</time>
      </trkpt>
      <trkpt lat="44.44525" lon="1.3556">
        <ele>113</ele>
        <time>2019-04-14T09:20:40Z</time>
      </trkpt>
      <trkpt lat="44.44522" lon="1.35558">
        <ele>113</ele>
        <time>2019-04-14T09:20:41Z</time>
      </trkpt>
      <trkpt lat="44.44519" lon="1.35556">
        <ele>113</ele>
        <time>2019-04-14T09:20:42Z</time>
      </trkpt>
      <trkpt lat="44.44517" lon="1.35555">
        <ele>114</ele>
        <time>2019-04-14T09:20:43Z</time>
      </trkpt>
      <trkpt lat="44.44514" lon="1.35554">
        <ele>114</ele>
        <time>2019-04-14T09:20:44Z</time>
      </trkpt>
      <trkpt lat="44.44512" lon="1.35552">
        <ele>114</ele>
        <time>2019-04-14T09:20:45Z</time>
      </trkpt>
      <trkpt lat="44.44508" lon="1.35552">
        <ele>114</ele>
        <time>2019-04-14T09:20:46Z</time>
      </trkpt>
      <trkpt lat="44.44506" lon="1.35551">
        <ele>114</ele>
        <time>2019-04-14T09:20:47Z</time>
      </trkpt>
      <trkpt lat="44.44504" lon="1.3555">
        <ele>114</ele>
        <time>2019-04-14T09:20:48Z</time>
      </trkpt>
      <trkpt lat="44.44502" lon="1.35548">
        <ele>114</ele>
        <time>2019-04-14T09:20:49Z</time>
      </trkpt>
      <trkpt lat="44.44499" lon="1.35547">
        <ele>114</ele>
        <time>2019-04-14T09:20:50Z</time>
      </trkpt>
      <trkpt lat="44.44496" lon="1.35545">
        <ele>114</ele>
        <time>2019-04-14T09:20:51Z</time>
      </trkpt>
      <trkpt lat="44.44493" lon="1.35542">
        <ele>114</ele>
        <time>2019-04-14T09:20:52Z</time>
      </trkpt>
      <trkpt lat="44.44489" lon="1.35541">
        <ele>114</ele>
        <time>2019-04-14T09:20:53Z</time>
      </trkpt>
      <trkpt lat="44.44485" lon="1.3554">
        <ele>113</ele>
        <time>2019-04-14T09:20:54Z</time>
      </trkpt>
      <trkpt lat="44.44482" lon="1.35538">
        <ele>114</ele>
        <time>2019-04-14T09:20:55Z</time>
      </trkpt>
      <trkpt lat="44.4448" lon="1.35536">
        <ele>114</ele>
        <time>2019-04-14T09:20:56Z</time>
      </trkpt>
      <trkpt lat="44.44478" lon="1.35535">
        <ele>113</ele>
        <time>2019-04-14T09:20:57Z</time>
      </trkpt>
      <trkpt lat="44.44474" lon="1.35533">
        <ele>113</ele>
        <time>2019-04-14T09:20:58Z</time>
      </trkpt>
      <trkpt lat="44.44471" lon="1.3553">
        <ele>113</ele>
        <time>2019-04-14T09:20:59Z</time>
      </trkpt>
      <trkpt lat="44.44469" lon="1.3553">
        <ele>114</ele>
        <time>2019-04-14T09:21:00Z</time>
      </trkpt>
      <trkpt lat="44.44466" lon="1.3553">
        <ele>114</ele>
        <time>2019-04-14T09:21:01Z</time>
      </trkpt>
      <trkpt lat="44.44465" lon="1.35528">
        <ele>115</ele>
        <time>2019-04-14T09:21:02Z</time>
      </trkpt>
      <trkpt lat="44.44463" lon="1.3553">
        <ele>115</ele>
        <time>2019-04-14T09:21:03Z</time>
      </trkpt>
      <trkpt lat="44.44462" lon="1.35532">
        <ele>116</ele>
        <time>2019-04-14T09:21:04Z</time>
      </trkpt>
      <trkpt lat="44.4446" lon="1.35531">
        <ele>116</ele>
        <time>2019-04-14T09:21:05Z</time>
      </trkpt>
      <trkpt lat="44.44457" lon="1.35531">
        <ele>116</ele>
        <time>2019-04-14T09:21:06Z</time>
      </trkpt>
      <trkpt lat="44.44455" lon="1.35529">
        <ele>116</ele>
        <time>2019-04-14T09:21:07Z</time>
      </trkpt>
      <trkpt lat="44.44452" lon="1.35528">
        <ele>116</ele>
        <time>2019-04-14T09:21:08Z</time>
      </trkpt>
      <trkpt lat="44.44449" lon="1.35527">
        <ele>115</ele>
        <time>2019-04-14T09:21:09Z</time>
      </trkpt>
      <trkpt lat="44.44448" lon="1.35525">
        <ele>115</ele>
        <time>2019-04-14T09:21:10Z</time>
      </trkpt>
      <trkpt lat="44.44447" lon="1.35524">
        <ele>115</ele>
        <time>2019-04-14T09:21:11Z</time>
      </trkpt>
      <trkpt lat="44.44445" lon="1.35524">
        <ele>115</ele>
        <time>2019-04-14T09:21:12Z</time>
      </trkpt>
      <trkpt lat="44.44445" lon="1.35524">
        <ele>115</ele>
        <time>2019-04-14T09:21:13Z</time>
      </trkpt>
      <trkpt lat="44.44444" lon="1.35524">
        <ele>115</ele>
        <time>2019-04-14T09:21:14Z</time>
      </trkpt>
      <trkpt lat="44.44443" lon="1.35524">
        <ele>115</ele>
        <time>2019-04-14T09:21:15Z</time>
      </trkpt>
      <trkpt lat="44.44443" lon="1.35525">
        <ele>115</ele>
        <time>2019-04-14T09:21:16Z</time>
      </trkpt>
      <trkpt lat="44.44442" lon="1.35525">
        <ele>115</ele>
        <time>2019-04-14T09:21:17Z</time>
      </trkpt>
      <trkpt lat="44.44442" lon="1.35525">
        <ele>115</ele>
        <time>2019-04-14T09:21:18Z</time>
      </trkpt>
      <trkpt lat="44.44441" lon="1.35525">
        <ele>115</ele>
        <time>2019-04-14T09:21:19Z</time>
      </trkpt>
      <trkpt lat="44.44441" lon="1.35525">
        <ele>115</ele>
        <time>2019-04-14T09:21:20Z</time>
      </trkpt>
      <trkpt lat="44.44441" lon="1.35526">
        <ele>115</ele>
        <time>2019-04-14T09:21:21Z</time>
      </trkpt>
      <trkpt lat="44.44441" lon="1.35526">
        <ele>115</ele>
        <time>2019-04-14T09:21:22Z</time>
      </trkpt>
      <trkpt lat="44.44441" lon="1.35526">
        <ele>115</ele>
        <time>2019-04-14T09:21:23Z</time>
      </trkpt>
      <trkpt lat="44.44427" lon="1.35532">
        <ele>119</ele>
        <time>2019-04-14T09:21:36Z</time>
      </trkpt>
      <trkpt lat="44.44425" lon="1.35534">
        <ele>120</ele>
        <time>2019-04-14T09:21:37Z</time>
      </trkpt>
      <trkpt lat="44.44424" lon="1.35533">
        <ele>120</ele>
        <time>2019-04-14T09:21:38Z</time>
      </trkpt>
      <trkpt lat="44.44423" lon="1.35534">
        <ele>120</ele>
        <time>2019-04-14T09:21:39Z</time>
      </trkpt>
      <trkpt lat="44.44422" lon="1.35534">
        <ele>120</ele>
        <time>2019-04-14T09:21:40Z</time>
      </trkpt>
      <trkpt lat="44.44422" lon="1.35534">
        <ele>120</ele>
        <time>2019-04-14T09:21:41Z</time>
      </trkpt>
      <trkpt lat="44.44422" lon="1.35534">
        <ele>120</ele>
        <time>2019-04-14T09:21:42Z</time>
      </trkpt>
      <trkpt lat="44.44422" lon="1.35534">
        <ele>120</ele>
        <time>2019-04-14T09:21:43Z</time>
      </trkpt>
      <trkpt lat="44.44422" lon="1.35534">
        <ele>120</ele>
        <time>2019-04-14T09:21:44Z</time>
      </trkpt>
      <trkpt lat="44.44422" lon="1.35534">
        <ele>120</ele>
        <time>2019-04-14T09:21:45Z</time>
      </trkpt>
      <trkpt lat="44.44422" lon="1.35534">
        <ele>120</ele>
        <time>2019-04-14T09:21:46Z</time>
      </trkpt>
      <trkpt lat="44.44399" lon="1.35524">
        <ele>119</ele>
        <time>2019-04-14T09:22:06Z</time>
      </trkpt>
      <trkpt lat="44.44397" lon="1.35522">
        <ele>119</ele>
        <time>2019-04-14T09:22:07Z</time>
      </trkpt>
      <trkpt lat="44.44395" lon="1.35521">
        <ele>119</ele>
        <time>2019-04-14T09:22:08Z</time>
      </trkpt>
      <trkpt lat="44.44392" lon="1.3552">
        <ele>119</ele>
        <time>2019-04-14T09:22:09Z</time>
      </trkpt>
      <trkpt lat="44.44391" lon="1.35519">
        <ele>119</ele>
        <time>2019-04-14T09:22:10Z</time>
      </trkpt>
      <trkpt lat="44.44388" lon="1.35518">
        <ele>119</ele>
        <time>2019-04-14T09:22:11Z</time>
      </trkpt>
      <trkpt lat="44.44386" lon="1.35517">
        <ele>119</ele>
        <time>2019-04-14T09:22:12Z</time>
      </trkpt>
      <trkpt lat="44.44384" lon="1.35516">
        <ele>119</ele>
        <time>2019-04-14T09:22:13Z</time>
      </trkpt>
      <trkpt lat="44.44382" lon="1.35515">
        <ele>119</ele>
        <time>2019-04-14T09:22:14Z</time>
      </trkpt>
      <trkpt lat="44.44381" lon="1.35514">
        <ele>119</ele>
        <time>2019-04-14T09:22:15Z</time>
      </trkpt>
      <trkpt lat="44.44381" lon="1.3551">
        <ele>119</ele>
        <time>2019-04-14T09:22:16Z</time>
      </trkpt>
      <trkpt lat="44.44377" lon="1.35512">
        <ele>118</ele>
        <time>2019-04-14T09:22:17Z</time>
      </trkpt>
      <trkpt lat="44.44374" lon="1.35512">
        <ele>118</ele>
        <time>2019-04-14T09:22:18Z</time>
      </trkpt>
      <trkpt lat="44.44372" lon="1.35512">
        <ele>119</ele>
        <time>2019-04-14T09:22:19Z</time>
      </trkpt>
      <trkpt lat="44.4437" lon="1.35512">
        <ele>119</ele>
        <time>2019-04-14T09:22:20Z</time>
      </trkpt>
      <trkpt lat="44.44368" lon="1.35514">
        <ele>119</ele>
        <time>2019-04-14T09:22:21Z</time>
      </trkpt>
      <trkpt lat="44.44366" lon="1.35514">
        <ele>120</ele>
        <time>2019-04-14T09:22:22Z</time>
      </trkpt>
      <trkpt lat="44.44364" lon="1.35513">
        <ele>120</ele>
        <time>2019-04-14T09:22:23Z</time>
      </trkpt>
      <trkpt lat="44.44362" lon="1.35511">
        <ele>120</ele>
        <time>2019-04-14T09:22:24Z</time>
      </trkpt>
      <trkpt lat="44.4436" lon="1.35509">
        <ele>119</ele>
        <time>2019-04-14T09:22:25Z</time>
      </trkpt>
      <trkpt lat="44.44358" lon="1.35507">
        <ele>119</ele>
        <time>2019-04-14T09:22:26Z</time>
      </trkpt>
      <trkpt lat="44.44356" lon="1.35504">
        <ele>118</ele>
        <time>2019-04-14T09:22:27Z</time>
      </trkpt>
      <trkpt lat="44.44353" lon="1.35503">
        <ele>118</ele>
        <time>2019-04-14T09:22:28Z</time>
      </trkpt>
      <trkpt lat="44.4435" lon="1.35503">
        <ele>118</ele>
        <time>2019-04-14T09:22:29Z</time>
      </trkpt>
      <trkpt lat="44.44346" lon="1.35502">
        <ele>118</ele>
        <time>2019-04-14T09:22:30Z</time>
      </trkpt>
      <trkpt lat="44.44343" lon="1.35501">
        <ele>118</ele>
        <time>2019-04-14T09:22:31Z</time>
      </trkpt>
      <trkpt lat="44.44341" lon="1.35501">
        <ele>118</ele>
        <time>2019-04-14T09:22:32Z</time>
      </trkpt>
      <trkpt lat="44.44338" lon="1.355">
        <ele>118</ele>
        <time>2019-04-14T09:22:33Z</time>
      </trkpt>
      <trkpt lat="44.44335" lon="1.35499">
        <ele>118</ele>
        <time>2019-04-14T09:22:34Z</time>
      </trkpt>
      <trkpt lat="44.44333" lon="1.35499">
        <ele>119</ele>
        <time>2019-04-14T09:22:35Z</time>
      </trkpt>
      <trkpt lat="44.44331" lon="1.35499">
        <ele>119</ele>
        <time>2019-04-14T09:22:36Z</time>
      </trkpt>
      <trkpt lat="44.44329" lon="1.35497">
        <ele>118</ele>
        <time>2019-04-14T09:22:37Z</time>
      </trkpt>
      <trkpt lat="44.44326" lon="1.35497">
        <ele>118</ele>
        <time>2019-04-14T09:22:38Z</time>
      </trkpt>
      <trkpt lat="44.44323" lon="1.35496">
        <ele>118</ele>
        <time>2019-04-14T09:22:39Z</time>
      </trkpt>
      <trkpt lat="44.4432" lon="1.35495">
        <ele>118</ele>
        <time>2019-04-14T09:22:40Z</time>
      </trkpt>
      <trkpt lat="44.44317" lon="1.35493">
        <ele>118</ele>
        <time>2019-04-14T09:22:41Z</time>
      </trkpt>
      <trkpt lat="44.44315" lon="1.35492">
        <ele>118</ele>
        <time>2019-04-14T09:22:42Z</time>
      </trkpt>
      <trkpt lat="44.44312" lon="1.35489">
        <ele>118</ele>
        <time>2019-04-14T09:22:43Z</time>
      </trkpt>
      <trkpt lat="44.44309" lon="1.35486">
        <ele>118</ele>
        <time>2019-04-14T09:22:44Z</time>
      </trkpt>
      <trkpt lat="44.44306" lon="1.35486">
        <ele>118</ele>
        <time>2019-04-14T09:22:45Z</time>
      </trkpt>
      <trkpt lat="44.44304" lon="1.35486">
        <ele>118</ele>
        <time>2019-04-14T09:22:46Z</time>
      </trkpt>
      <trkpt lat="44.44301" lon="1.35485">
        <ele>117</ele>
        <time>2019-04-14T09:22:47Z</time>
      </trkpt>
      <trkpt lat="44.44298" lon="1.35484">
        <ele>117</ele>
        <time>2019-04-14T09:22:48Z</time>
      </trkpt>
      <trkpt lat="44.44295" lon="1.35484">
        <ele>118</ele>
        <time>2019-04-14T09:22:49Z</time>
      </trkpt>
      <trkpt lat="44.44293" lon="1.35484">
        <ele>118</ele>
        <time>2019-04-14T09:22:50Z</time>
      </trkpt>
      <trkpt lat="44.4429" lon="1.35485">
        <ele>118</ele>
        <time>2019-04-14T09:22:51Z</time>
      </trkpt>
      <trkpt lat="44.44287" lon="1.35485">
        <ele>119</ele>
        <time>2019-04-14T09:22:52Z</time>
      </trkpt>
      <trkpt lat="44.44285" lon="1.35486">
        <ele>119</ele>
        <time>2019-04-14T09:22:54Z</time>
      </trkpt>
      <trkpt lat="44.4428" lon="1.35484">
        <ele>119</ele>
        <time>2019-04-14T09:22:55Z</time>
      </trkpt>
      <trkpt lat="44.44277" lon="1.35483">
        <ele>119</ele>
        <time>2019-04-14T09:22:56Z</time>
      </trkpt>
      <trkpt lat="44.44274" lon="1.35482">
        <ele>119</ele>
        <time>2019-04-14T09:22:57Z</time>
      </trkpt>
      <trkpt lat="44.44271" lon="1.3548">
        <ele>119</ele>
        <time>2019-04-14T09:22:58Z</time>
      </trkpt>
      <trkpt lat="44.44269" lon="1.35478">
        <ele>119</ele>
        <time>2019-04-14T09:22:59Z</time>
      </trkpt>
      <trkpt lat="44.44266" lon="1.35475">
        <ele>118</ele>
        <time>2019-04-14T09:23:00Z</time>
      </trkpt>
      <trkpt lat="44.44264" lon="1.35474">
        <ele>118</ele>
        <time>2019-04-14T09:23:01Z</time>
      </trkpt>
      <trkpt lat="44.4426" lon="1.35471">
        <ele>118</ele>
        <time>2019-04-14T09:23:02Z</time>
      </trkpt>
      <trkpt lat="44.44256" lon="1.3547">
        <ele>118</ele>
        <time>2019-04-14T09:23:03Z</time>
      </trkpt>
      <trkpt lat="44.44253" lon="1.3547">
        <ele>118</ele>
        <time>2019-04-14T09:23:04Z</time>
      </trkpt>
      <trkpt lat="44.4425" lon="1.35469">
        <ele>118</ele>
        <time>2019-04-14T09:23:05Z</time>
      </trkpt>
      <trkpt lat="44.44247" lon="1.35467">
        <ele>118</ele>
        <time>2019-04-14T09:23:06Z</time>
      </trkpt>
      <trkpt lat="44.44244" lon="1.35467">
        <ele>118</ele>
        <time>2019-04-14T09:23:07Z</time>
      </trkpt>
      <trkpt lat="44.44242" lon="1.35466">
        <ele>118</ele>
        <time>2019-04-14T09:23:08Z</time>
      </trkpt>
      <trkpt lat="44.4424" lon="1.35466">
        <ele>118</ele>
        <time>2019-04-14T09:23:09Z</time>
      </trkpt>
      <trkpt lat="44.44238" lon="1.35466">
        <ele>119</ele>
        <time>2019-04-14T09:23:10Z</time>
      </trkpt>
      <trkpt lat="44.44236" lon="1.35468">
        <ele>119</ele>
        <time>2019-04-14T09:23:11Z</time>
      </trkpt>
      <trkpt lat="44.44233" lon="1.35469">
        <ele>119</ele>
        <time>2019-04-14T09:23:13Z</time>
      </trkpt>
      <trkpt lat="44.44228" lon="1.35466">
        <ele>119</ele>
        <time>2019-04-14T09:23:14Z</time>
      </trkpt>
      <trkpt lat="44.44225" lon="1.35465">
        <ele>119</ele>
        <time>2019-04-14T09:23:15Z</time>
      </trkpt>
      <trkpt lat="44.44222" lon="1.35465">
        <ele>120</ele>
        <time>2019-04-14T09:23:16Z</time>
      </trkpt>
      <trkpt lat="44.44219" lon="1.35465">
        <ele>120</ele>
        <time>2019-04-14T09:23:17Z</time>
      </trkpt>
      <trkpt lat="44.44217" lon="1.35464">
        <ele>120</ele>
        <time>2019-04-14T09:23:18Z</time>
      </trkpt>
      <trkpt lat="44.44214" lon="1.35464">
        <ele>120</ele>
        <time>2019-04-14T09:23:19Z</time>
      </trkpt>
      <trkpt lat="44.44211" lon="1.35462">
        <ele>120</ele>
        <time>2019-04-14T09:23:20Z</time>
      </trkpt>
      <trkpt lat="44.44209" lon="1.35461">
        <ele>120</ele>
        <time>2019-04-14T09:23:21Z</time>
      </trkpt>
      <trkpt lat="44.44206" lon="1.35459">
        <ele>120</ele>
        <time>2019-04-14T09:23:22Z</time>
      </trkpt>
      <trkpt lat="44.44203" lon="1.35458">
        <ele>120</ele>
        <time>2019-04-14T09:23:23Z</time>
      </trkpt>
      <trkpt lat="44.442" lon="1.35458">
        <ele>120</ele>
        <time>2019-04-14T09:23:24Z</time>
      </trkpt>
      <trkpt lat="44.44197" lon="1.35458">
        <ele>120</ele>
        <time>2019-04-14T09:23:25Z</time>
      </trkpt>
      <trkpt lat="44.44195" lon="1.35457">
        <ele>121</ele>
        <time>2019-04-14T09:23:26Z</time>
      </trkpt>
      <trkpt lat="44.44192" lon="1.35456">
        <ele>121</ele>
        <time>2019-04-14T09:23:27Z</time>
      </trkpt>
      <trkpt lat="44.4419" lon="1.35456">
        <ele>121</ele>
        <time>2019-04-14T09:23:28Z</time>
      </trkpt>
      <trkpt lat="44.44188" lon="1.35455">
        <ele>121</ele>
        <time>2019-04-14T09:23:29Z</time>
      </trkpt>
      <trkpt lat="44.44186" lon="1.35454">
        <ele>121</ele>
        <time>2019-04-14T09:23:31Z</time>
      </trkpt>
      <trkpt lat="44.44183" lon="1.35449">
        <ele>120</ele>
        <time>2019-04-14T09:23:32Z</time>
      </trkpt>
      <trkpt lat="44.4418" lon="1.35447">
        <ele>120</ele>
        <time>2019-04-14T09:23:33Z</time>
      </trkpt>
      <trkpt lat="44.44178" lon="1.35445">
        <ele>120</ele>
        <time>2019-04-14T09:23:34Z</time>
      </trkpt>
      <trkpt lat="44.44175" lon="1.35443">
        <ele>120</ele>
        <time>2019-04-14T09:23:35Z</time>
      </trkpt>
      <trkpt lat="44.44171" lon="1.35441">
        <ele>120</ele>
        <time>2019-04-14T09:23:36Z</time>
      </trkpt>
      <trkpt lat="44.44168" lon="1.35439">
        <ele>121</ele>
        <time>2019-04-14T09:23:37Z</time>
      </trkpt>
      <trkpt lat="44.44164" lon="1.35438">
        <ele>121</ele>
        <time>2019-04-14T09:23:38Z</time>
      </trkpt>
      <trkpt lat="44.44161" lon="1.35437">
        <ele>121</ele>
        <time>2019-04-14T09:23:39Z</time>
      </trkpt>
      <trkpt lat="44.44158" lon="1.35438">
        <ele>121</ele>
        <time>2019-04-14T09:23:40Z</time>
      </trkpt>
      <trkpt lat="44.44156" lon="1.35439">
        <ele>121</ele>
        <time>2019-04-14T09:23:41Z</time>
      </trkpt>
      <trkpt lat="44.44153" lon="1.35438">
        <ele>121</ele>
        <time>2019-04-14T09:23:42Z</time>
      </trkpt>
      <trkpt lat="44.4415" lon="1.35437">
        <ele>121</ele>
        <time>2019-04-14T09:23:43Z</time>
      </trkpt>
      <trkpt lat="44.44149" lon="1.35436">
        <ele>121</ele>
        <time>2019-04-14T09:23:44Z</time>
      </trkpt>
      <trkpt lat="44.44147" lon="1.35433">
        <ele>121</ele>
        <time>2019-04-14T09:23:45Z</time>
      </trkpt>
      <trkpt lat="44.44147" lon="1.35431">
        <ele>121</ele>
        <time>2019-04-14T09:23:46Z</time>
      </trkpt>
      <trkpt lat="44.44146" lon="1.35429">
        <ele>121</ele>
        <time>2019-04-14T09:23:48Z</time>
      </trkpt>
      <trkpt lat="44.44142" lon="1.35425">
        <ele>120</ele>
        <time>2019-04-14T09:23:49Z</time>
      </trkpt>
      <trkpt lat="44.4414" lon="1.35425">
        <ele>120</ele>
        <time>2019-04-14T09:23:50Z</time>
      </trkpt>
      <trkpt lat="44.44137" lon="1.35425">
        <ele>120</ele>
        <time>2019-04-14T09:23:51Z</time>
      </trkpt>
      <trkpt lat="44.44135" lon="1.35423">
        <ele>120</ele>
        <time>2019-04-14T09:23:52Z</time>
      </trkpt>
      <trkpt lat="44.44133" lon="1.3542">
        <ele>120</ele>
        <time>2019-04-14T09:23:53Z</time>
      </trkpt>
      <trkpt lat="44.44132" lon="1.35418">
        <ele>120</ele>
        <time>2019-04-14T09:23:54Z</time>
      </trkpt>
      <trkpt lat="44.4413" lon="1.35417">
        <ele>120</ele>
        <time>2019-04-14T09:23:55Z</time>
      </trkpt>
      <trkpt lat="44.44128" lon="1.35416">
        <ele>120</ele>
        <time>2019-04-14T09:23:56Z</time>
      </trkpt>
      <trkpt lat="44.44126" lon="1.35413">
        <ele>121</ele>
        <time>2019-04-14T09:23:57Z</time>
      </trkpt>
      <trkpt lat="44.44123" lon="1.3541">
        <ele>121</ele>
        <time>2019-04-14T09:23:58Z</time>
      </trkpt>
      <trkpt lat="44.4412" lon="1.35407">
        <ele>121</ele>
        <time>2019-04-14T09:23:59Z</time>
      </trkpt>
      <trkpt lat="44.44117" lon="1.35405">
        <ele>121</ele>
        <time>2019-04-14T09:24:00Z</time>
      </trkpt>
      <trkpt lat="44.44116" lon="1.35403">
        <ele>121</ele>
        <time>2019-04-14T09:24:01Z</time>
      </trkpt>
      <trkpt lat="44.44115" lon="1.35402">
        <ele>121</ele>
        <time>2019-04-14T09:24:02Z</time>
      </trkpt>
      <trkpt lat="44.44113" lon="1.354">
        <ele>121</ele>
        <time>2019-04-14T09:24:03Z</time>
      </trkpt>
      <trkpt lat="44.44111" lon="1.35399">
        <ele>121</ele>
        <time>2019-04-14T09:24:04Z</time>
      </trkpt>
      <trkpt lat="44.44109" lon="1.35396">
        <ele>121</ele>
        <time>2019-04-14T09:24:05Z</time>
      </trkpt>
      <trkpt lat="44.44107" lon="1.35393">
        <ele>121</ele>
        <time>2019-04-14T09:24:07Z</time>
      </trkpt>
      <trkpt lat="44.44105" lon="1.3539">
        <ele>121</ele>
        <time>2019-04-14T09:24:08Z</time>
      </trkpt>
      <trkpt lat="44.44104" lon="1.35387">
        <ele>121</ele>
        <time>2019-04-14T09:24:09Z</time>
      </trkpt>
      <trkpt lat="44.44099" lon="1.35381">
        <ele>121</ele>
        <time>2019-04-14T09:24:10Z</time>
      </trkpt>
      <trkpt lat="44.44096" lon="1.3538">
        <ele>121</ele>
        <time>2019-04-14T09:24:11Z</time>
      </trkpt>
      <trkpt lat="44.44094" lon="1.35377">
        <ele>121</ele>
        <time>2019-04-14T09:24:12Z</time>
      </trkpt>
      <trkpt lat="44.44091" lon="1.35375">
        <ele>121</ele>
        <time>2019-04-14T09:24:13Z</time>
      </trkpt>
      <trkpt lat="44.44089" lon="1.35372">
        <ele>121</ele>
        <time>2019-04-14T09:24:14Z</time>
      </trkpt>
      <trkpt lat="44.44087" lon="1.3537">
        <ele>121</ele>
        <time>2019-04-14T09:24:15Z</time>
      </trkpt>
      <trkpt lat="44.44085" lon="1.35367">
        <ele>121</ele>
        <time>2019-04-14T09:24:16Z</time>
      </trkpt>
      <trkpt lat="44.44083" lon="1.35365">
        <ele>121</ele>
        <time>2019-04-14T09:24:17Z</time>
      </trkpt>
      <trkpt lat="44.44079" lon="1.35361">
        <ele>121</ele>
        <time>2019-04-14T09:24:18Z</time>
      </trkpt>
      <trkpt lat="44.44075" lon="1.35358">
        <ele>122</ele>
        <time>2019-04-14T09:24:19Z</time>
      </trkpt>
      <trkpt lat="44.44074" lon="1.35355">
        <ele>122</ele>
        <time>2019-04-14T09:24:20Z</time>
      </trkpt>
      <trkpt lat="44.44072" lon="1.35353">
        <ele>122</ele>
        <time>2019-04-14T09:24:22Z</time>
      </trkpt>
      <trkpt lat="44.4407" lon="1.35351">
        <ele>122</ele>
        <time>2019-04-14T09:24:23Z</time>
      </trkpt>
      <trkpt lat="44.44067" lon="1.35348">
        <ele>122</ele>
        <time>2019-04-14T09:24:24Z</time>
      </trkpt>
      <trkpt lat="44.44064" lon="1.35347">
        <ele>122</ele>
        <time>2019-04-14T09:24:25Z</time>
      </trkpt>
      <trkpt lat="44.44062" lon="1.35345">
        <ele>122</ele>
        <time>2019-04-14T09:24:26Z</time>
      </trkpt>
      <trkpt lat="44.44057" lon="1.35341">
        <ele>123</ele>
        <time>2019-04-14T09:24:27Z</time>
      </trkpt>
      <trkpt lat="44.44055" lon="1.35339">
        <ele>123</ele>
        <time>2019-04-14T09:24:28Z</time>
      </trkpt>
      <trkpt lat="44.44052" lon="1.35336">
        <ele>123</ele>
        <time>2019-04-14T09:24:29Z</time>
      </trkpt>
      <trkpt lat="44.4405" lon="1.35333">
        <ele>124</ele>
        <time>2019-04-14T09:24:30Z</time>
      </trkpt>
      <trkpt lat="44.44048" lon="1.3533">
        <ele>124</ele>
        <time>2019-04-14T09:24:31Z</time>
      </trkpt>
      <trkpt lat="44.44046" lon="1.35327">
        <ele>124</ele>
        <time>2019-04-14T09:24:32Z</time>
      </trkpt>
      <trkpt lat="44.44045" lon="1.35324">
        <ele>123</ele>
        <time>2019-04-14T09:24:33Z</time>
      </trkpt>
      <trkpt lat="44.44044" lon="1.35319">
        <ele>123</ele>
        <time>2019-04-14T09:24:34Z</time>
      </trkpt>
      <trkpt lat="44.44043" lon="1.35316">
        <ele>123</ele>
        <time>2019-04-14T09:24:35Z</time>
      </trkpt>
      <trkpt lat="44.44041" lon="1.35314">
        <ele>123</ele>
        <time>2019-04-14T09:24:36Z</time>
      </trkpt>
      <trkpt lat="44.44038" lon="1.35311">
        <ele>123</ele>
        <time>2019-04-14T09:24:37Z</time>
      </trkpt>
      <trkpt lat="44.44035" lon="1.35309">
        <ele>123</ele>
        <time>2019-04-14T09:24:38Z</time>
      </trkpt>
      <trkpt lat="44.44034" lon="1.35308">
        <ele>123</ele>
        <time>2019-04-14T09:24:39Z</time>
      </trkpt>
      <trkpt lat="44.44033" lon="1.35305">
        <ele>123</ele>
        <time>2019-04-14T09:24:40Z</time>
      </trkpt>
      <trkpt lat="44.44032" lon="1.35303">
        <ele>123</ele>
        <time>2019-04-14T09:24:41Z</time>
      </trkpt>
      <trkpt lat="44.44031" lon="1.35301">
        <ele>123</ele>
        <time>2019-04-14T09:24:42Z</time>
      </trkpt>
      <trkpt lat="44.44029" lon="1.35298">
        <ele>123</ele>
        <time>2019-04-14T09:24:43Z</time>
      </trkpt>
      <trkpt lat="44.44028" lon="1.35296">
        <ele>123</ele>
        <time>2019-04-14T09:24:44Z</time>
      </trkpt>
      <trkpt lat="44.44027" lon="1.35292">
        <ele>123</ele>
        <time>2019-04-14T09:24:45Z</time>
      </trkpt>
      <trkpt lat="44.44026" lon="1.35288">
        <ele>123</ele>
        <time>2019-04-14T09:24:46Z</time>
      </trkpt>
      <trkpt lat="44.44024" lon="1.35284">
        <ele>123</ele>
        <time>2019-04-14T09:24:47Z</time>
      </trkpt>
      <trkpt lat="44.44022" lon="1.3528">
        <ele>123</ele>
        <time>2019-04-14T09:24:49Z</time>
      </trkpt>
      <trkpt lat="44.44022" lon="1.35277">
        <ele>123</ele>
        <time>2019-04-14T09:24:50Z</time>
      </trkpt>
      <trkpt lat="44.44019" lon="1.35273">
        <ele>123</ele>
        <time>2019-04-14T09:24:51Z</time>
      </trkpt>
      <trkpt lat="44.44017" lon="1.35271">
        <ele>123</ele>
        <time>2019-04-14T09:24:52Z</time>
      </trkpt>
      <trkpt lat="44.44015" lon="1.35268">
        <ele>123</ele>
        <time>2019-04-14T09:24:53Z</time>
      </trkpt>
      <trkpt lat="44.44013" lon="1.35266">
        <ele>122</ele>
        <time>2019-04-14T09:24:54Z</time>
      </trkpt>
      <trkpt lat="44.44011" lon="1.35264">
        <ele>122</ele>
        <time>2019-04-14T09:24:55Z</time>
      </trkpt>
      <trkpt lat="44.4401" lon="1.35262">
        <ele>122</ele>
        <time>2019-04-14T09:24:56Z</time>
      </trkpt>
      <trkpt lat="44.44007" lon="1.35261">
        <ele>122</ele>
        <time>2019-04-14T09:24:57Z</time>
      </trkpt>
      <trkpt lat="44.44006" lon="1.35261">
        <ele>122</ele>
        <time>2019-04-14T09:24:58Z</time>
      </trkpt>
      <trkpt lat="44.44003" lon="1.35259">
        <ele>122</ele>
        <time>2019-04-14T09:24:59Z</time>
      </trkpt>
      <trkpt lat="44.44001" lon="1.35257">
        <ele>122</ele>
        <time>2019-04-14T09:25:00Z</time>
      </trkpt>
      <trkpt lat="44.43997" lon="1.35254">
        <ele>122</ele>
        <time>2019-04-14T09:25:01Z</time>
      </trkpt>
      <trkpt lat="44.43993" lon="1.35253">
        <ele>122</ele>
        <time>2019-04-14T09:25:02Z</time>
      </trkpt>
      <trkpt lat="44.43991" lon="1.35252">
        <ele>122</ele>
        <time>2019-04-14T09:25:03Z</time>
      </trkpt>
      <trkpt lat="44.43987" lon="1.35251">
        <ele>123</ele>
        <time>2019-04-14T09:25:04Z</time>
      </trkpt>
      <trkpt lat="44.43984" lon="1.3525">
        <ele>123</ele>
        <time>2019-04-14T09:25:06Z</time>
      </trkpt>
      <trkpt lat="44.43982" lon="1.35251">
        <ele>123</ele>
        <time>2019-04-14T09:25:07Z</time>
      </trkpt>
      <trkpt lat="44.43979" lon="1.35251">
        <ele>123</ele>
        <time>2019-04-14T09:25:08Z</time>
      </trkpt>
      <trkpt lat="44.43974" lon="1.35252">
        <ele>123</ele>
        <time>2019-04-14T09:25:09Z</time>
      </trkpt>
      <trkpt lat="44.43972" lon="1.35252">
        <ele>124</ele>
        <time>2019-04-14T09:25:10Z</time>
      </trkpt>
      <trkpt lat="44.43969" lon="1.35253">
        <ele>124</ele>
        <time>2019-04-14T09:25:11Z</time>
      </trkpt>
      <trkpt lat="44.43967" lon="1.35253">
        <ele>124</ele>
        <time>2019-04-14T09:25:12Z</time>
      </trkpt>
      <trkpt lat="44.43965" lon="1.35252">
        <ele>125</ele>
        <time>2019-04-14T09:25:13Z</time>
      </trkpt>
      <trkpt lat="44.43963" lon="1.35251">
        <ele>125</ele>
        <time>2019-04-14T09:25:14Z</time>
      </trkpt>
      <trkpt lat="44.4396" lon="1.35251">
        <ele>125</ele>
        <time>2019-04-14T09:25:15Z</time>
      </trkpt>
      <trkpt lat="44.43957" lon="1.35251">
        <ele>125</ele>
        <time>2019-04-14T09:25:16Z</time>
      </trkpt>
      <trkpt lat="44.43955" lon="1.35251">
        <ele>126</ele>
        <time>2019-04-14T09:25:17Z</time>
      </trkpt>
      <trkpt lat="44.43953" lon="1.35251">
        <ele>126</ele>
        <time>2019-04-14T09:25:18Z</time>
      </trkpt>
      <trkpt lat="44.43951" lon="1.35252">
        <ele>126</ele>
        <time>2019-04-14T09:25:19Z</time>
      </trkpt>
      <trkpt lat="44.43949" lon="1.35252">
        <ele>127</ele>
        <time>2019-04-14T09:25:20Z</time>
      </trkpt>
      <trkpt lat="44.43947" lon="1.35251">
        <ele>127</ele>
        <time>2019-04-14T09:25:21Z</time>
      </trkpt>
      <trkpt lat="44.43944" lon="1.3525">
        <ele>127</ele>
        <time>2019-04-14T09:25:22Z</time>
      </trkpt>
      <trkpt lat="44.43941" lon="1.35249">
        <ele>128</ele>
        <time>2019-04-14T09:25:23Z</time>
      </trkpt>
      <trkpt lat="44.43939" lon="1.35247">
        <ele>127</ele>
        <time>2019-04-14T09:25:25Z</time>
      </trkpt>
      <trkpt lat="44.43937" lon="1.35244">
        <ele>127</ele>
        <time>2019-04-14T09:25:26Z</time>
      </trkpt>
      <trkpt lat="44.43935" lon="1.35242">
        <ele>127</ele>
        <time>2019-04-14T09:25:27Z</time>
      </trkpt>
      <trkpt lat="44.43932" lon="1.3524">
        <ele>127</ele>
        <time>2019-04-14T09:25:28Z</time>
      </trkpt>
      <trkpt lat="44.43929" lon="1.35239">
        <ele>127</ele>
        <time>2019-04-14T09:25:29Z</time>
      </trkpt>
      <trkpt lat="44.43926" lon="1.35239">
        <ele>128</ele>
        <time>2019-04-14T09:25:30Z</time>
      </trkpt>
      <trkpt lat="44.43924" lon="1.35239">
        <ele>128</ele>
        <time>2019-04-14T09:25:31Z</time>
      </trkpt>
      <trkpt lat="44.43919" lon="1.35239">
        <ele>129</ele>
        <time>2019-04-14T09:25:32Z</time>
      </trkpt>
      <trkpt lat="44.43917" lon="1.35239">
        <ele>129</ele>
        <time>2019-04-14T09:25:33Z</time>
      </trkpt>
      <trkpt lat="44.43914" lon="1.35238">
        <ele>129</ele>
        <time>2019-04-14T09:25:34Z</time>
      </trkpt>
      <trkpt lat="44.43911" lon="1.35238">
        <ele>129</ele>
        <time>2019-04-14T09:25:35Z</time>
      </trkpt>
      <trkpt lat="44.43909" lon="1.35236">
        <ele>128</ele>
        <time>2019-04-14T09:25:36Z</time>
      </trkpt>
      <trkpt lat="44.43906" lon="1.35234">
        <ele>128</ele>
        <time>2019-04-14T09:25:37Z</time>
      </trkpt>
      <trkpt lat="44.43902" lon="1.35232">
        <ele>128</ele>
        <time>2019-04-14T09:25:38Z</time>
      </trkpt>
      <trkpt lat="44.43899" lon="1.35229">
        <ele>128</ele>
        <time>2019-04-14T09:25:39Z</time>
      </trkpt>
      <trkpt lat="44.43895" lon="1.35228">
        <ele>128</ele>
        <time>2019-04-14T09:25:40Z</time>
      </trkpt>
      <trkpt lat="44.43892" lon="1.35227">
        <ele>128</ele>
        <time>2019-04-14T09:25:41Z</time>
      </trkpt>
      <trkpt lat="44.4389" lon="1.35226">
        <ele>128</ele>
        <time>2019-04-14T09:25:42Z</time>
      </trkpt>
      <trkpt lat="44.43886" lon="1.35225">
        <ele>128</ele>
        <time>2019-04-14T09:25:43Z</time>
      </trkpt>
      <trkpt lat="44.43883" lon="1.35225">
        <ele>128</ele>
        <time>2019-04-14T09:25:44Z</time>
      </trkpt>
      <trkpt lat="44.4388" lon="1.35225">
        <ele>128</ele>
        <time>2019-04-14T09:25:45Z</time>
      </trkpt>
      <trkpt lat="44.43878" lon="1.35224">
        <ele>128</ele>
        <time>2019-04-14T09:25:46Z</time>
      </trkpt>
      <trkpt lat="44.43875" lon="1.35224">
        <ele>128</ele>
        <time>2019-04-14T09:25:48Z</time>
      </trkpt>
      <trkpt lat="44.43872" lon="1.35224">
        <ele>128</ele>
        <time>2019-04-14T09:25:49Z</time>
      </trkpt>
      <trkpt lat="44.4387" lon="1.35222">
        <ele>128</ele>
        <time>2019-04-14T09:25:50Z</time>
      </trkpt>
      <trkpt lat="44.43868" lon="1.35222">
        <ele>128</ele>
        <time>2019-04-14T09:25:51Z</time>
      </trkpt>
      <trkpt lat="44.43866" lon="1.35221">
        <ele>129</ele>
        <time>2019-04-14T09:25:52Z</time>
      </trkpt>
      <trkpt lat="44.43863" lon="1.3522">
        <ele>129</ele>
        <time>2019-04-14T09:25:53Z</time>
      </trkpt>
      <trkpt lat="44.4386" lon="1.35219">
        <ele>129</ele>
        <time>2019-04-14T09:25:54Z</time>
      </trkpt>
      <trkpt lat="44.43859" lon="1.35219">
        <ele>129</ele>
        <time>2019-04-14T09:25:55Z</time>
      </trkpt>
      <trkpt lat="44.43859" lon="1.3522">
        <ele>129</ele>
        <time>2019-04-14T09:25:56Z</time>
      </trkpt>
      <trkpt lat="44.43857" lon="1.35219">
        <ele>129</ele>
        <time>2019-04-14T09:25:57Z</time>
      </trkpt>
      <trkpt lat="44.43854" lon="1.35218">
        <ele>130</ele>
        <time>2019-04-14T09:25:58Z</time>
      </trkpt>
      <trkpt lat="44.43852" lon="1.35217">
        <ele>130</ele>
        <time>2019-04-14T09:25:59Z</time>
      </trkpt>
      <trkpt lat="44.43849" lon="1.35216">
        <ele>130</ele>
        <time>2019-04-14T09:26:00Z</time>
      </trkpt>
      <trkpt lat="44.43846" lon="1.35214">
        <ele>130</ele>
        <time>2019-04-14T09:26:01Z</time>
      </trkpt>
      <trkpt lat="44.43843" lon="1.35212">
        <ele>130</ele>
        <time>2019-04-14T09:26:02Z</time>
      </trkpt>
      <trkpt lat="44.4384" lon="1.35209">
        <ele>130</ele>
        <time>2019-04-14T09:26:03Z</time>
      </trkpt>
      <trkpt lat="44.43837" lon="1.35208">
        <ele>130</ele>
        <time>2019-04-14T09:26:04Z</time>
      </trkpt>
      <trkpt lat="44.43834" lon="1.35209">
        <ele>130</ele>
        <time>2019-04-14T09:26:05Z</time>
      </trkpt>
      <trkpt lat="44.43831" lon="1.35209">
        <ele>130</ele>
        <time>2019-04-14T09:26:06Z</time>
      </trkpt>
      <trkpt lat="44.43828" lon="1.35209">
        <ele>130</ele>
        <time>2019-04-14T09:26:07Z</time>
      </trkpt>
      <trkpt lat="44.43826" lon="1.35209">
        <ele>130</ele>
        <time>2019-04-14T09:26:08Z</time>
      </trkpt>
      <trkpt lat="44.43823" lon="1.35209">
        <ele>130</ele>
        <time>2019-04-14T09:26:09Z</time>
      </trkpt>
      <trkpt lat="44.4382" lon="1.35208">
        <ele>130</ele>
        <time>2019-04-14T09:26:10Z</time>
      </trkpt>
      <trkpt lat="44.43817" lon="1.35206">
        <ele>130</ele>
        <time>2019-04-14T09:26:11Z</time>
      </trkpt>
      <trkpt lat="44.43814" lon="1.35205">
        <ele>130</ele>
        <time>2019-04-14T09:26:12Z</time>
      </trkpt>
      <trkpt lat="44.43811" lon="1.35204">
        <ele>130</ele>
        <time>2019-04-14T09:26:13Z</time>
      </trkpt>
      <trkpt lat="44.43809" lon="1.35205">
        <ele>130</ele>
        <time>2019-04-14T09:26:15Z</time>
      </trkpt>
      <trkpt lat="44.43806" lon="1.35204">
        <ele>131</ele>
        <time>2019-04-14T09:26:16Z</time>
      </trkpt>
      <trkpt lat="44.43804" lon="1.35203">
        <ele>131</ele>
        <time>2019-04-14T09:26:17Z</time>
      </trkpt>
      <trkpt lat="44.43802" lon="1.35201">
        <ele>131</ele>
        <time>2019-04-14T09:26:18Z</time>
      </trkpt>
      <trkpt lat="44.43799" lon="1.35201">
        <ele>131</ele>
        <time>2019-04-14T09:26:19Z</time>
      </trkpt>
      <trkpt lat="44.43796" lon="1.352">
        <ele>131</ele>
        <time>2019-04-14T09:26:20Z</time>
      </trkpt>
      <trkpt lat="44.43792" lon="1.35199">
        <ele>131</ele>
        <time>2019-04-14T09:26:21Z</time>
      </trkpt>
      <trkpt lat="44.43789" lon="1.35198">
        <ele>131</ele>
        <time>2019-04-14T09:26:22Z</time>
      </trkpt>
      <trkpt lat="44.43782" lon="1.35194">
        <ele>131</ele>
        <time>2019-04-14T09:26:23Z</time>
      </trkpt>
      <trkpt lat="44.43778" lon="1.35192">
        <ele>131</ele>
        <time>2019-04-14T09:26:24Z</time>
      </trkpt>
      <trkpt lat="44.43774" lon="1.35191">
        <ele>131</ele>
        <time>2019-04-14T09:26:25Z</time>
      </trkpt>
      <trkpt lat="44.4377" lon="1.35189">
        <ele>131</ele>
        <time>2019-04-14T09:26:26Z</time>
      </trkpt>
      <trkpt lat="44.43767" lon="1.35188">
        <ele>131</ele>
        <time>2019-04-14T09:26:27Z</time>
      </trkpt>
      <trkpt lat="44.43764" lon="1.35186">
        <ele>132</ele>
        <time>2019-04-14T09:26:28Z</time>
      </trkpt>
      <trkpt lat="44.4376" lon="1.35185">
        <ele>132</ele>
        <time>2019-04-14T09:26:29Z</time>
      </trkpt>
      <trkpt lat="44.43756" lon="1.35184">
        <ele>132</ele>
        <time>2019-04-14T09:26:31Z</time>
      </trkpt>
      <trkpt lat="44.43753" lon="1.35182">
        <ele>132</ele>
        <time>2019-04-14T09:26:32Z</time>
      </trkpt>
      <trkpt lat="44.43749" lon="1.35181">
        <ele>132</ele>
        <time>2019-04-14T09:26:33Z</time>
      </trkpt>
      <trkpt lat="44.43744" lon="1.3518">
        <ele>132</ele>
        <time>2019-04-14T09:26:34Z</time>
      </trkpt>
      <trkpt lat="44.4374" lon="1.35178">
        <ele>132</ele>
        <time>2019-04-14T09:26:35Z</time>
      </trkpt>
      <trkpt lat="44.43736" lon="1.35177">
        <ele>132</ele>
        <time>2019-04-14T09:26:36Z</time>
      </trkpt>
      <trkpt lat="44.43732" lon="1.35176">
        <ele>132</ele>
        <time>2019-04-14T09:26:37Z</time>
      </trkpt>
      <trkpt lat="44.43728" lon="1.35175">
        <ele>132</ele>
        <time>2019-04-14T09:26:38Z</time>
      </trkpt>
      <trkpt lat="44.43725" lon="1.35175">
        <ele>132</ele>
        <time>2019-04-14T09:26:39Z</time>
      </trkpt>
      <trkpt lat="44.43721" lon="1.35175">
        <ele>132</ele>
        <time>2019-04-14T09:26:40Z</time>
      </trkpt>
      <trkpt lat="44.43717" lon="1.35173">
        <ele>132</ele>
        <time>2019-04-14T09:26:41Z</time>
      </trkpt>
      <trkpt lat="44.43714" lon="1.35173">
        <ele>132</ele>
        <time>2019-04-14T09:26:42Z</time>
      </trkpt>
      <trkpt lat="44.4371" lon="1.35171">
        <ele>132</ele>
        <time>2019-04-14T09:26:43Z</time>
      </trkpt>
      <trkpt lat="44.43706" lon="1.3517">
        <ele>132</ele>
        <time>2019-04-14T09:26:44Z</time>
      </trkpt>
      <trkpt lat="44.43701" lon="1.35169">
        <ele>132</ele>
        <time>2019-04-14T09:26:45Z</time>
      </trkpt>
      <trkpt lat="44.43698" lon="1.35169">
        <ele>132</ele>
        <time>2019-04-14T09:26:46Z</time>
      </trkpt>
      <trkpt lat="44.43694" lon="1.35168">
        <ele>132</ele>
        <time>2019-04-14T09:26:47Z</time>
      </trkpt>
      <trkpt lat="44.43691" lon="1.35167">
        <ele>132</ele>
        <time>2019-04-14T09:26:48Z</time>
      </trkpt>
      <trkpt lat="44.43688" lon="1.35166">
        <ele>132</ele>
        <time>2019-04-14T09:26:49Z</time>
      </trkpt>
      <trkpt lat="44.43686" lon="1.35165">
        <ele>132</ele>
        <time>2019-04-14T09:26:50Z</time>
      </trkpt>
      <trkpt lat="44.43683" lon="1.35163">
        <ele>132</ele>
        <time>2019-04-14T09:26:51Z</time>
      </trkpt>
      <trkpt lat="44.43677" lon="1.35161">
        <ele>132</ele>
        <time>2019-04-14T09:26:52Z</time>
      </trkpt>
      <trkpt lat="44.43674" lon="1.35162">
        <ele>132</ele>
        <time>2019-04-14T09:26:53Z</time>
      </trkpt>
      <trkpt lat="44.43671" lon="1.35161">
        <ele>132</ele>
        <time>2019-04-14T09:26:54Z</time>
      </trkpt>
      <trkpt lat="44.43667" lon="1.35161">
        <ele>132</ele>
        <time>2019-04-14T09:26:55Z</time>
      </trkpt>
      <trkpt lat="44.43664" lon="1.3516">
        <ele>132</ele>
        <time>2019-04-14T09:26:56Z</time>
      </trkpt>
      <trkpt lat="44.43661" lon="1.3516">
        <ele>132</ele>
        <time>2019-04-14T09:26:57Z</time>
      </trkpt>
      <trkpt lat="44.43657" lon="1.3516">
        <ele>132</ele>
        <time>2019-04-14T09:26:58Z</time>
      </trkpt>
      <trkpt lat="44.43654" lon="1.3516">
        <ele>132</ele>
        <time>2019-04-14T09:26:59Z</time>
      </trkpt>
      <trkpt lat="44.4365" lon="1.3516">
        <ele>133</ele>
        <time>2019-04-14T09:27:00Z</time>
      </trkpt>
      <trkpt lat="44.43647" lon="1.35159">
        <ele>133</ele>
        <time>2019-04-14T09:27:01Z</time>
      </trkpt>
      <trkpt lat="44.43643" lon="1.3516">
        <ele>133</ele>
        <time>2019-04-14T09:27:02Z</time>
      </trkpt>
      <trkpt lat="44.43641" lon="1.35159">
        <ele>133</ele>
        <time>2019-04-14T09:27:03Z</time>
      </trkpt>
      <trkpt lat="44.43638" lon="1.35159">
        <ele>133</ele>
        <time>2019-04-14T09:27:05Z</time>
      </trkpt>
      <trkpt lat="44.43636" lon="1.35159">
        <ele>133</ele>
        <time>2019-04-14T09:27:06Z</time>
      </trkpt>
      <trkpt lat="44.43632" lon="1.35159">
        <ele>134</ele>
        <time>2019-04-14T09:27:07Z</time>
      </trkpt>
      <trkpt lat="44.43628" lon="1.35158">
        <ele>134</ele>
        <time>2019-04-14T09:27:08Z</time>
      </trkpt>
      <trkpt lat="44.43625" lon="1.35158">
        <ele>134</ele>
        <time>2019-04-14T09:27:09Z</time>
      </trkpt>
      <trkpt lat="44.43623" lon="1.35156">
        <ele>135</ele>
        <time>2019-04-14T09:27:10Z</time>
      </trkpt>
      <trkpt lat="44.43619" lon="1.35156">
        <ele>135</ele>
        <time>2019-04-14T09:27:11Z</time>
      </trkpt>
      <trkpt lat="44.43616" lon="1.35155">
        <ele>135</ele>
        <time>2019-04-14T09:27:12Z</time>
      </trkpt>
      <trkpt lat="44.43614" lon="1.35154">
        <ele>135</ele>
        <time>2019-04-14T09:27:13Z</time>
      </trkpt>
      <trkpt lat="44.43612" lon="1.35154">
        <ele>135</ele>
        <time>2019-04-14T09:27:14Z</time>
      </trkpt>
      <trkpt lat="44.43608" lon="1.35152">
        <ele>134</ele>
        <time>2019-04-14T09:27:15Z</time>
      </trkpt>
      <trkpt lat="44.43606" lon="1.35149">
        <ele>134</ele>
        <time>2019-04-14T09:27:16Z</time>
      </trkpt>
      <trkpt lat="44.43604" lon="1.35146">
        <ele>134</ele>
        <time>2019-04-14T09:27:17Z</time>
      </trkpt>
      <trkpt lat="44.436" lon="1.35142">
        <ele>133</ele>
        <time>2019-04-14T09:27:19Z</time>
      </trkpt>
      <trkpt lat="44.43596" lon="1.3514">
        <ele>133</ele>
        <time>2019-04-14T09:27:20Z</time>
      </trkpt>
      <trkpt lat="44.43593" lon="1.35137">
        <ele>133</ele>
        <time>2019-04-14T09:27:21Z</time>
      </trkpt>
      <trkpt lat="44.4359" lon="1.35134">
        <ele>133</ele>
        <time>2019-04-14T09:27:22Z</time>
      </trkpt>
      <trkpt lat="44.43587" lon="1.35132">
        <ele>133</ele>
        <time>2019-04-14T09:27:23Z</time>
      </trkpt>
      <trkpt lat="44.43584" lon="1.35129">
        <ele>133</ele>
        <time>2019-04-14T09:27:24Z</time>
      </trkpt>
      <trkpt lat="44.43581" lon="1.35127">
        <ele>133</ele>
        <time>2019-04-14T09:27:25Z</time>
      </trkpt>
      <trkpt lat="44.43579" lon="1.35125">
        <ele>133</ele>
        <time>2019-04-14T09:27:26Z</time>
      </trkpt>
      <trkpt lat="44.43576" lon="1.35123">
        <ele>133</ele>
        <time>2019-04-14T09:27:27Z</time>
      </trkpt>
      <trkpt lat="44.43575" lon="1.35119">
        <ele>133</ele>
        <time>2019-04-14T09:27:28Z</time>
      </trkpt>
      <trkpt lat="44.43573" lon="1.35117">
        <ele>133</ele>
        <time>2019-04-14T09:27:29Z</time>
      </trkpt>
      <trkpt lat="44.4357" lon="1.35115">
        <ele>133</ele>
        <time>2019-04-14T09:27:30Z</time>
      </trkpt>
      <trkpt lat="44.43568" lon="1.35113">
        <ele>134</ele>
        <time>2019-04-14T09:27:31Z</time>
      </trkpt>
      <trkpt lat="44.43566" lon="1.35112">
        <ele>134</ele>
        <time>2019-04-14T09:27:32Z</time>
      </trkpt>
      <trkpt lat="44.43561" lon="1.35108">
        <ele>134</ele>
        <time>2019-04-14T09:27:33Z</time>
      </trkpt>
      <trkpt lat="44.43558" lon="1.35105">
        <ele>134</ele>
        <time>2019-04-14T09:27:34Z</time>
      </trkpt>
      <trkpt lat="44.43555" lon="1.35103">
        <ele>134</ele>
        <time>2019-04-14T09:27:35Z</time>
      </trkpt>
      <trkpt lat="44.43552" lon="1.35101">
        <ele>134</ele>
        <time>2019-04-14T09:27:36Z</time>
      </trkpt>
      <trkpt lat="44.43549" lon="1.35099">
        <ele>134</ele>
        <time>2019-04-14T09:27:38Z</time>
      </trkpt>
      <trkpt lat="44.43546" lon="1.35096">
        <ele>134</ele>
        <time>2019-04-14T09:27:39Z</time>
      </trkpt>
      <trkpt lat="44.43543" lon="1.35092">
        <ele>134</ele>
        <time>2019-04-14T09:27:40Z</time>
      </trkpt>
      <trkpt lat="44.4354" lon="1.35089">
        <ele>134</ele>
        <time>2019-04-14T09:27:41Z</time>
      </trkpt>
      <trkpt lat="44.43536" lon="1.35086">
        <ele>134</ele>
        <time>2019-04-14T09:27:42Z</time>
      </trkpt>
      <trkpt lat="44.43533" lon="1.35084">
        <ele>134</ele>
        <time>2019-04-14T09:27:43Z</time>
      </trkpt>
      <trkpt lat="44.4353" lon="1.35085">
        <ele>134</ele>
        <time>2019-04-14T09:27:44Z</time>
      </trkpt>
      <trkpt lat="44.43529" lon="1.35084">
        <ele>134</ele>
        <time>2019-04-14T09:27:45Z</time>
      </trkpt>
      <trkpt lat="44.43527" lon="1.35082">
        <ele>134</ele>
        <time>2019-04-14T09:27:46Z</time>
      </trkpt>
      <trkpt lat="44.43522" lon="1.35078">
        <ele>134</ele>
        <time>2019-04-14T09:27:47Z</time>
      </trkpt>
      <trkpt lat="44.43519" lon="1.35075">
        <ele>134</ele>
        <time>2019-04-14T09:27:48Z</time>
      </trkpt>
      <trkpt lat="44.43515" lon="1.35071">
        <ele>134</ele>
        <time>2019-04-14T09:27:49Z</time>
      </trkpt>
      <trkpt lat="44.43512" lon="1.35067">
        <ele>134</ele>
        <time>2019-04-14T09:27:50Z</time>
      </trkpt>
      <trkpt lat="44.43509" lon="1.35064">
        <ele>134</ele>
        <time>2019-04-14T09:27:51Z</time>
      </trkpt>
      <trkpt lat="44.43507" lon="1.35061">
        <ele>134</ele>
        <time>2019-04-14T09:27:52Z</time>
      </trkpt>
      <trkpt lat="44.43504" lon="1.35058">
        <ele>134</ele>
        <time>2019-04-14T09:27:53Z</time>
      </trkpt>
      <trkpt lat="44.435" lon="1.35057">
        <ele>134</ele>
        <time>2019-04-14T09:27:54Z</time>
      </trkpt>
      <trkpt lat="44.43495" lon="1.35055">
        <ele>134</ele>
        <time>2019-04-14T09:27:55Z</time>
      </trkpt>
      <trkpt lat="44.43491" lon="1.35052">
        <ele>134</ele>
        <time>2019-04-14T09:27:56Z</time>
      </trkpt>
      <trkpt lat="44.43485" lon="1.35049">
        <ele>134</ele>
        <time>2019-04-14T09:27:57Z</time>
      </trkpt>
      <trkpt lat="44.4348" lon="1.35046">
        <ele>134</ele>
        <time>2019-04-14T09:27:59Z</time>
      </trkpt>
      <trkpt lat="44.43477" lon="1.35044">
        <ele>134</ele>
        <time>2019-04-14T09:28:00Z</time>
      </trkpt>
      <trkpt lat="44.43475" lon="1.35042">
        <ele>134</ele>
        <time>2019-04-14T09:28:01Z</time>
      </trkpt>
      <trkpt lat="44.43471" lon="1.3504">
        <ele>134</ele>
        <time>2019-04-14T09:28:02Z</time>
      </trkpt>
      <trkpt lat="44.43467" lon="1.35039">
        <ele>135</ele>
        <time>2019-04-14T09:28:03Z</time>
      </trkpt>
      <trkpt lat="44.43464" lon="1.35039">
        <ele>135</ele>
        <time>2019-04-14T09:28:04Z</time>
      </trkpt>
      <trkpt lat="44.4346" lon="1.35039">
        <ele>135</ele>
        <time>2019-04-14T09:28:05Z</time>
      </trkpt>
      <trkpt lat="44.43456" lon="1.35038">
        <ele>135</ele>
        <time>2019-04-14T09:28:06Z</time>
      </trkpt>
      <trkpt lat="44.43452" lon="1.35038">
        <ele>135</ele>
        <time>2019-04-14T09:28:07Z</time>
      </trkpt>
      <trkpt lat="44.43449" lon="1.35038">
        <ele>136</ele>
        <time>2019-04-14T09:28:08Z</time>
      </trkpt>
      <trkpt lat="44.43447" lon="1.35038">
        <ele>136</ele>
        <time>2019-04-14T09:28:09Z</time>
      </trkpt>
      <trkpt lat="44.43445" lon="1.35037">
        <ele>136</ele>
        <time>2019-04-14T09:28:10Z</time>
      </trkpt>
      <trkpt lat="44.43442" lon="1.35038">
        <ele>136</ele>
        <time>2019-04-14T09:28:11Z</time>
      </trkpt>
      <trkpt lat="44.43439" lon="1.35038">
        <ele>136</ele>
        <time>2019-04-14T09:28:12Z</time>
      </trkpt>
      <trkpt lat="44.43435" lon="1.35038">
        <ele>136</ele>
        <time>2019-04-14T09:28:13Z</time>
      </trkpt>
      <trkpt lat="44.43431" lon="1.35038">
        <ele>136</ele>
        <time>2019-04-14T09:28:14Z</time>
      </trkpt>
      <trkpt lat="44.43428" lon="1.3504">
        <ele>136</ele>
        <time>2019-04-14T09:28:15Z</time>
      </trkpt>
      <trkpt lat="44.43425" lon="1.3504">
        <ele>136</ele>
        <time>2019-04-14T09:28:16Z</time>
      </trkpt>
      <trkpt lat="44.43421" lon="1.35041">
        <ele>136</ele>
        <time>2019-04-14T09:28:17Z</time>
      </trkpt>
      <trkpt lat="44.43417" lon="1.35042">
        <ele>136</ele>
        <time>2019-04-14T09:28:18Z</time>
      </trkpt>
      <trkpt lat="44.43414" lon="1.35042">
        <ele>136</ele>
        <time>2019-04-14T09:28:19Z</time>
      </trkpt>
      <trkpt lat="44.4341" lon="1.35043">
        <ele>136</ele>
        <time>2019-04-14T09:28:20Z</time>
      </trkpt>
      <trkpt lat="44.43407" lon="1.35044">
        <ele>137</ele>
        <time>2019-04-14T09:28:21Z</time>
      </trkpt>
      <trkpt lat="44.43403" lon="1.35043">
        <ele>137</ele>
        <time>2019-04-14T09:28:22Z</time>
      </trkpt>
      <trkpt lat="44.434" lon="1.35044">
        <ele>137</ele>
        <time>2019-04-14T09:28:23Z</time>
      </trkpt>
      <trkpt lat="44.43397" lon="1.35045">
        <ele>137</ele>
        <time>2019-04-14T09:28:24Z</time>
      </trkpt>
      <trkpt lat="44.43393" lon="1.35047">
        <ele>137</ele>
        <time>2019-04-14T09:28:25Z</time>
      </trkpt>
      <trkpt lat="44.43389" lon="1.35047">
        <ele>137</ele>
        <time>2019-04-14T09:28:26Z</time>
      </trkpt>
      <trkpt lat="44.43385" lon="1.35048">
        <ele>137</ele>
        <time>2019-04-14T09:28:27Z</time>
      </trkpt>
      <trkpt lat="44.43377" lon="1.35049">
        <ele>137</ele>
        <time>2019-04-14T09:28:28Z</time>
      </trkpt>
      <trkpt lat="44.43373" lon="1.35049">
        <ele>137</ele>
        <time>2019-04-14T09:28:29Z</time>
      </trkpt>
      <trkpt lat="44.43368" lon="1.35049">
        <ele>136</ele>
        <time>2019-04-14T09:28:30Z</time>
      </trkpt>
      <trkpt lat="44.43365" lon="1.35051">
        <ele>136</ele>
        <time>2019-04-14T09:28:31Z</time>
      </trkpt>
      <trkpt lat="44.43361" lon="1.35051">
        <ele>136</ele>
        <time>2019-04-14T09:28:32Z</time>
      </trkpt>
      <trkpt lat="44.43358" lon="1.35053">
        <ele>137</ele>
        <time>2019-04-14T09:28:33Z</time>
      </trkpt>
      <trkpt lat="44.43354" lon="1.35054">
        <ele>137</ele>
        <time>2019-04-14T09:28:34Z</time>
      </trkpt>
      <trkpt lat="44.43351" lon="1.35055">
        <ele>137</ele>
        <time>2019-04-14T09:28:36Z</time>
      </trkpt>
      <trkpt lat="44.43348" lon="1.35057">
        <ele>137</ele>
        <time>2019-04-14T09:28:37Z</time>
      </trkpt>
      <trkpt lat="44.43346" lon="1.3506">
        <ele>137</ele>
        <time>2019-04-14T09:28:38Z</time>
      </trkpt>
      <trkpt lat="44.43346" lon="1.35064">
        <ele>137</ele>
        <time>2019-04-14T09:28:39Z</time>
      </trkpt>
      <trkpt lat="44.43344" lon="1.35066">
        <ele>137</ele>
        <time>2019-04-14T09:28:40Z</time>
      </trkpt>
      <trkpt lat="44.43342" lon="1.35067">
        <ele>137</ele>
        <time>2019-04-14T09:28:41Z</time>
      </trkpt>
      <trkpt lat="44.4334" lon="1.35068">
        <ele>137</ele>
        <time>2019-04-14T09:28:42Z</time>
      </trkpt>
      <trkpt lat="44.43337" lon="1.35069">
        <ele>137</ele>
        <time>2019-04-14T09:28:43Z</time>
      </trkpt>
      <trkpt lat="44.43335" lon="1.35072">
        <ele>137</ele>
        <time>2019-04-14T09:28:44Z</time>
      </trkpt>
      <trkpt lat="44.43333" lon="1.35075">
        <ele>138</ele>
        <time>2019-04-14T09:28:45Z</time>
      </trkpt>
      <trkpt lat="44.4333" lon="1.35078">
        <ele>138</ele>
        <time>2019-04-14T09:28:46Z</time>
      </trkpt>
      <trkpt lat="44.43328" lon="1.35078">
        <ele>138</ele>
        <time>2019-04-14T09:28:47Z</time>
      </trkpt>
      <trkpt lat="44.43325" lon="1.35078">
        <ele>137</ele>
        <time>2019-04-14T09:28:48Z</time>
      </trkpt>
      <trkpt lat="44.43322" lon="1.35078">
        <ele>137</ele>
        <time>2019-04-14T09:28:49Z</time>
      </trkpt>
      <trkpt lat="44.43319" lon="1.35076">
        <ele>137</ele>
        <time>2019-04-14T09:28:50Z</time>
      </trkpt>
      <trkpt lat="44.43315" lon="1.35074">
        <ele>137</ele>
        <time>2019-04-14T09:28:51Z</time>
      </trkpt>
      <trkpt lat="44.43312" lon="1.35074">
        <ele>137</ele>
        <time>2019-04-14T09:28:52Z</time>
      </trkpt>
      <trkpt lat="44.43307" lon="1.35075">
        <ele>137</ele>
        <time>2019-04-14T09:28:53Z</time>
      </trkpt>
      <trkpt lat="44.43303" lon="1.35076">
        <ele>137</ele>
        <time>2019-04-14T09:28:54Z</time>
      </trkpt>
      <trkpt lat="44.433" lon="1.35078">
        <ele>137</ele>
        <time>2019-04-14T09:28:55Z</time>
      </trkpt>
      <trkpt lat="44.43296" lon="1.35079">
        <ele>138</ele>
        <time>2019-04-14T09:28:56Z</time>
      </trkpt>
      <trkpt lat="44.43293" lon="1.3508">
        <ele>138</ele>
        <time>2019-04-14T09:28:57Z</time>
      </trkpt>
      <trkpt lat="44.4329" lon="1.35081">
        <ele>138</ele>
        <time>2019-04-14T09:28:58Z</time>
      </trkpt>
      <trkpt lat="44.43287" lon="1.35083">
        <ele>138</ele>
        <time>2019-04-14T09:28:59Z</time>
      </trkpt>
      <trkpt lat="44.43284" lon="1.35084">
        <ele>138</ele>
        <time>2019-04-14T09:29:00Z</time>
      </trkpt>
      <trkpt lat="44.43281" lon="1.35084">
        <ele>139</ele>
        <time>2019-04-14T09:29:01Z</time>
      </trkpt>
      <trkpt lat="44.43279" lon="1.35082">
        <ele>138</ele>
        <time>2019-04-14T09:29:02Z</time>
      </trkpt>
      <trkpt lat="44.43277" lon="1.35077">
        <ele>138</ele>
        <time>2019-04-14T09:29:04Z</time>
      </trkpt>
      <trkpt lat="44.43277" lon="1.35075">
        <ele>138</ele>
        <time>2019-04-14T09:29:05Z</time>
      </trkpt>
      <trkpt lat="44.43278" lon="1.35072">
        <ele>138</ele>
        <time>2019-04-14T09:29:06Z</time>
      </trkpt>
      <trkpt lat="44.4328" lon="1.3507">
        <ele>138</ele>
        <time>2019-04-14T09:29:07Z</time>
      </trkpt>
      <trkpt lat="44.43281" lon="1.35068">
        <ele>138</ele>
        <time>2019-04-14T09:29:08Z</time>
      </trkpt>
      <trkpt lat="44.43281" lon="1.35067">
        <ele>138</ele>
        <time>2019-04-14T09:29:09Z</time>
      </trkpt>
      <trkpt lat="44.43281" lon="1.35067">
        <ele>138</ele>
        <time>2019-04-14T09:29:10Z</time>
      </trkpt>
      <trkpt lat="44.43281" lon="1.35067">
        <ele>138</ele>
        <time>2019-04-14T09:29:11Z</time>
      </trkpt>
      <trkpt lat="44.43281" lon="1.35067">
        <ele>138</ele>
        <time>2019-04-14T09:29:12Z</time>
      </trkpt>
      <trkpt lat="44.43281" lon="1.35067">
        <ele>138</ele>
        <time>2019-04-14T09:29:13Z</time>
      </trkpt>
      <trkpt lat="44.43281" lon="1.35067">
        <ele>138</ele>
        <time>2019-04-14T09:29:14Z</time>
      </trkpt>
      <trkpt lat="44.43281" lon="1.35067">
        <ele>138</ele>
        <time>2019-04-14T09:29:15Z</time>
      </trkpt>
      <trkpt lat="44.4328" lon="1.35067">
        <ele>138</ele>
        <time>2019-04-14T09:29:16Z</time>
      </trkpt>
      <trkpt lat="44.43265" lon="1.35056">
        <ele>140</ele>
        <time>2019-04-14T09:30:01Z</time>
      </trkpt>
      <trkpt lat="44.43264" lon="1.35057">
        <ele>141</ele>
        <time>2019-04-14T09:30:02Z</time>
      </trkpt>
      <trkpt lat="44.43262" lon="1.35057">
        <ele>141</ele>
        <time>2019-04-14T09:30:03Z</time>
      </trkpt>
      <trkpt lat="44.4326" lon="1.35058">
        <ele>141</ele>
        <time>2019-04-14T09:30:04Z</time>
      </trkpt>
      <trkpt lat="44.43259" lon="1.35059">
        <ele>141</ele>
        <time>2019-04-14T09:30:05Z</time>
      </trkpt>
      <trkpt lat="44.43257" lon="1.35059">
        <ele>142</ele>
        <time>2019-04-14T09:30:06Z</time>
      </trkpt>
      <trkpt lat="44.43255" lon="1.3506">
        <ele>142</ele>
        <time>2019-04-14T09:30:07Z</time>
      </trkpt>
      <trkpt lat="44.43253" lon="1.3506">
        <ele>142</ele>
        <time>2019-04-14T09:30:08Z</time>
      </trkpt>
      <trkpt lat="44.43251" lon="1.35061">
        <ele>142</ele>
        <time>2019-04-14T09:30:09Z</time>
      </trkpt>
      <trkpt lat="44.43249" lon="1.35062">
        <ele>143</ele>
        <time>2019-04-14T09:30:10Z</time>
      </trkpt>
      <trkpt lat="44.43248" lon="1.35062">
        <ele>143</ele>
        <time>2019-04-14T09:30:11Z</time>
      </trkpt>
      <trkpt lat="44.43247" lon="1.35061">
        <ele>143</ele>
        <time>2019-04-14T09:30:12Z</time>
      </trkpt>
      <trkpt lat="44.43246" lon="1.35061">
        <ele>144</ele>
        <time>2019-04-14T09:30:13Z</time>
      </trkpt>
      <trkpt lat="44.43244" lon="1.35062">
        <ele>144</ele>
        <time>2019-04-14T09:30:14Z</time>
      </trkpt>
      <trkpt lat="44.43242" lon="1.35063">
        <ele>144</ele>
        <time>2019-04-14T09:30:15Z</time>
      </trkpt>
      <trkpt lat="44.4324" lon="1.35063">
        <ele>144</ele>
        <time>2019-04-14T09:30:16Z</time>
      </trkpt>
      <trkpt lat="44.43238" lon="1.35064">
        <ele>145</ele>
        <time>2019-04-14T09:30:17Z</time>
      </trkpt>
      <trkpt lat="44.43236" lon="1.35064">
        <ele>145</ele>
        <time>2019-04-14T09:30:18Z</time>
      </trkpt>
      <trkpt lat="44.43234" lon="1.35064">
        <ele>145</ele>
        <time>2019-04-14T09:30:19Z</time>
      </trkpt>
      <trkpt lat="44.43232" lon="1.35064">
        <ele>146</ele>
        <time>2019-04-14T09:30:20Z</time>
      </trkpt>
      <trkpt lat="44.4323" lon="1.35063">
        <ele>146</ele>
        <time>2019-04-14T09:30:21Z</time>
      </trkpt>
      <trkpt lat="44.43229" lon="1.35063">
        <ele>146</ele>
        <time>2019-04-14T09:30:22Z</time>
      </trkpt>
      <trkpt lat="44.43227" lon="1.35062">
        <ele>146</ele>
        <time>2019-04-14T09:30:23Z</time>
      </trkpt>
      <trkpt lat="44.43226" lon="1.35061">
        <ele>147</ele>
        <time>2019-04-14T09:30:24Z</time>
      </trkpt>
      <trkpt lat="44.43225" lon="1.35061">
        <ele>147</ele>
        <time>2019-04-14T09:30:25Z</time>
      </trkpt>
      <trkpt lat="44.43225" lon="1.3506">
        <ele>147</ele>
        <time>2019-04-14T09:30:26Z</time>
      </trkpt>
      <trkpt lat="44.43223" lon="1.35059">
        <ele>148</ele>
        <time>2019-04-14T09:30:27Z</time>
      </trkpt>
      <trkpt lat="44.43222" lon="1.35058">
        <ele>148</ele>
        <time>2019-04-14T09:30:28Z</time>
      </trkpt>
      <trkpt lat="44.43221" lon="1.35058">
        <ele>148</ele>
        <time>2019-04-14T09:30:29Z</time>
      </trkpt>
      <trkpt lat="44.4322" lon="1.35058">
        <ele>148</ele>
        <time>2019-04-14T09:30:30Z</time>
      </trkpt>
      <trkpt lat="44.43219" lon="1.35058">
        <ele>148</ele>
        <time>2019-04-14T09:30:31Z</time>
      </trkpt>
      <trkpt lat="44.43218" lon="1.35059">
        <ele>148</ele>
        <time>2019-04-14T09:30:32Z</time>
      </trkpt>
      <trkpt lat="44.43217" lon="1.35061">
        <ele>148</ele>
        <time>2019-04-14T09:30:33Z</time>
      </trkpt>
      <trkpt lat="44.43218" lon="1.35062">
        <ele>148</ele>
        <time>2019-04-14T09:30:34Z</time>
      </trkpt>
      <trkpt lat="44.43218" lon="1.35066">
        <ele>148</ele>
        <time>2019-04-14T09:30:35Z</time>
      </trkpt>
      <trkpt lat="44.43217" lon="1.35068">
        <ele>147</ele>
        <time>2019-04-14T09:30:36Z</time>
      </trkpt>
      <trkpt lat="44.43215" lon="1.35069">
        <ele>147</ele>
        <time>2019-04-14T09:30:37Z</time>
      </trkpt>
      <trkpt lat="44.43213" lon="1.3507">
        <ele>147</ele>
        <time>2019-04-14T09:30:38Z</time>
      </trkpt>
      <trkpt lat="44.4321" lon="1.35069">
        <ele>147</ele>
        <time>2019-04-14T09:30:39Z</time>
      </trkpt>
      <trkpt lat="44.43208" lon="1.3507">
        <ele>146</ele>
        <time>2019-04-14T09:30:41Z</time>
      </trkpt>
      <trkpt lat="44.43207" lon="1.35069">
        <ele>145</ele>
        <time>2019-04-14T09:30:42Z</time>
      </trkpt>
      <trkpt lat="44.43205" lon="1.35071">
        <ele>144</ele>
        <time>2019-04-14T09:30:43Z</time>
      </trkpt>
      <trkpt lat="44.43203" lon="1.35073">
        <ele>144</ele>
        <time>2019-04-14T09:30:44Z</time>
      </trkpt>
      <trkpt lat="44.43199" lon="1.35075">
        <ele>142</ele>
        <time>2019-04-14T09:30:45Z</time>
      </trkpt>
      <trkpt lat="44.43196" lon="1.35075">
        <ele>142</ele>
        <time>2019-04-14T09:30:46Z</time>
      </trkpt>
      <trkpt lat="44.43193" lon="1.35075">
        <ele>142</ele>
        <time>2019-04-14T09:30:47Z</time>
      </trkpt>
      <trkpt lat="44.43191" lon="1.35075">
        <ele>142</ele>
        <time>2019-04-14T09:30:48Z</time>
      </trkpt>
      <trkpt lat="44.43188" lon="1.35075">
        <ele>142</ele>
        <time>2019-04-14T09:30:49Z</time>
      </trkpt>
      <trkpt lat="44.43188" lon="1.35073">
        <ele>142</ele>
        <time>2019-04-14T09:30:50Z</time>
      </trkpt>
      <trkpt lat="44.43185" lon="1.35073">
        <ele>142</ele>
        <time>2019-04-14T09:30:51Z</time>
      </trkpt>
      <trkpt lat="44.43183" lon="1.35072">
        <ele>142</ele>
        <time>2019-04-14T09:30:52Z</time>
      </trkpt>
      <trkpt lat="44.43181" lon="1.35073">
        <ele>142</ele>
        <time>2019-04-14T09:30:53Z</time>
      </trkpt>
      <trkpt lat="44.4318" lon="1.35074">
        <ele>142</ele>
        <time>2019-04-14T09:30:54Z</time>
      </trkpt>
      <trkpt lat="44.4318" lon="1.35074">
        <ele>142</ele>
        <time>2019-04-14T09:30:55Z</time>
      </trkpt>
      <trkpt lat="44.4318" lon="1.35075">
        <ele>142</ele>
        <time>2019-04-14T09:30:56Z</time>
      </trkpt>
      <trkpt lat="44.4318" lon="1.35075">
        <ele>142</ele>
        <time>2019-04-14T09:30:57Z</time>
      </trkpt>
      <trkpt lat="44.43181" lon="1.35075">
        <ele>142</ele>
        <time>2019-04-14T09:30:58Z</time>
      </trkpt>
      <trkpt lat="44.43181" lon="1.35075">
        <ele>142</ele>
        <time>2019-04-14T09:30:59Z</time>
      </trkpt>
      <trkpt lat="44.43181" lon="1.35075">
        <ele>142</ele>
        <time>2019-04-14T09:31:00Z</time>
      </trkpt>
      <trkpt lat="44.43181" lon="1.35075">
        <ele>142</ele>
        <time>2019-04-14T09:31:01Z</time>
      </trkpt>
      <trkpt lat="44.43156" lon="1.35092">
        <ele>142</ele>
        <time>2019-04-14T09:32:14Z</time>
      </trkpt>
      <trkpt lat="44.43154" lon="1.35093">
        <ele>142</ele>
        <time>2019-04-14T09:32:15Z</time>
      </trkpt>
      <trkpt lat="44.43152" lon="1.35093">
        <ele>142</ele>
        <time>2019-04-14T09:32:16Z</time>
      </trkpt>
      <trkpt lat="44.4315" lon="1.35094">
        <ele>142</ele>
        <time>2019-04-14T09:32:17Z</time>
      </trkpt>
      <trkpt lat="44.43148" lon="1.35095">
        <ele>142</ele>
        <time>2019-04-14T09:32:18Z</time>
      </trkpt>
      <trkpt lat="44.43147" lon="1.35095">
        <ele>142</ele>
        <time>2019-04-14T09:32:19Z</time>
      </trkpt>
      <trkpt lat="44.43146" lon="1.35096">
        <ele>142</ele>
        <time>2019-04-14T09:32:20Z</time>
      </trkpt>
      <trkpt lat="44.43142" lon="1.35097">
        <ele>142</ele>
        <time>2019-04-14T09:32:21Z</time>
      </trkpt>
      <trkpt lat="44.4314" lon="1.35099">
        <ele>142</ele>
        <time>2019-04-14T09:32:22Z</time>
      </trkpt>
      <trkpt lat="44.43139" lon="1.35099">
        <ele>143</ele>
        <time>2019-04-14T09:32:23Z</time>
      </trkpt>
      <trkpt lat="44.43138" lon="1.35099">
        <ele>143</ele>
        <time>2019-04-14T09:32:24Z</time>
      </trkpt>
      <trkpt lat="44.43137" lon="1.351">
        <ele>143</ele>
        <time>2019-04-14T09:32:25Z</time>
      </trkpt>
      <trkpt lat="44.43135" lon="1.35101">
        <ele>143</ele>
        <time>2019-04-14T09:32:26Z</time>
      </trkpt>
      <trkpt lat="44.43134" lon="1.35101">
        <ele>144</ele>
        <time>2019-04-14T09:32:27Z</time>
      </trkpt>
      <trkpt lat="44.43132" lon="1.351">
        <ele>144</ele>
        <time>2019-04-14T09:32:28Z</time>
      </trkpt>
      <trkpt lat="44.43131" lon="1.35099">
        <ele>145</ele>
        <time>2019-04-14T09:32:29Z</time>
      </trkpt>
      <trkpt lat="44.43128" lon="1.351">
        <ele>145</ele>
        <time>2019-04-14T09:32:30Z</time>
      </trkpt>
      <trkpt lat="44.43126" lon="1.351">
        <ele>146</ele>
        <time>2019-04-14T09:32:32Z</time>
      </trkpt>
      <trkpt lat="44.43125" lon="1.35101">
        <ele>146</ele>
        <time>2019-04-14T09:32:33Z</time>
      </trkpt>
      <trkpt lat="44.43123" lon="1.35102">
        <ele>146</ele>
        <time>2019-04-14T09:32:34Z</time>
      </trkpt>
      <trkpt lat="44.43122" lon="1.35103">
        <ele>146</ele>
        <time>2019-04-14T09:32:35Z</time>
      </trkpt>
      <trkpt lat="44.4312" lon="1.35104">
        <ele>146</ele>
        <time>2019-04-14T09:32:36Z</time>
      </trkpt>
      <trkpt lat="44.43119" lon="1.35104">
        <ele>146</ele>
        <time>2019-04-14T09:32:37Z</time>
      </trkpt>
      <trkpt lat="44.43117" lon="1.35104">
        <ele>146</ele>
        <time>2019-04-14T09:32:38Z</time>
      </trkpt>
      <trkpt lat="44.43116" lon="1.35105">
        <ele>146</ele>
        <time>2019-04-14T09:32:39Z</time>
      </trkpt>
      <trkpt lat="44.43114" lon="1.35106">
        <ele>146</ele>
        <time>2019-04-14T09:32:40Z</time>
      </trkpt>
      <trkpt lat="44.43112" lon="1.35107">
        <ele>146</ele>
        <time>2019-04-14T09:32:41Z</time>
      </trkpt>
      <trkpt lat="44.43111" lon="1.35107">
        <ele>146</ele>
        <time>2019-04-14T09:32:42Z</time>
      </trkpt>
      <trkpt lat="44.43109" lon="1.35107">
        <ele>147</ele>
        <time>2019-04-14T09:32:43Z</time>
      </trkpt>
      <trkpt lat="44.43108" lon="1.35107">
        <ele>147</ele>
        <time>2019-04-14T09:32:44Z</time>
      </trkpt>
      <trkpt lat="44.43106" lon="1.35108">
        <ele>147</ele>
        <time>2019-04-14T09:32:45Z</time>
      </trkpt>
      <trkpt lat="44.43105" lon="1.35109">
        <ele>147</ele>
        <time>2019-04-14T09:32:46Z</time>
      </trkpt>
      <trkpt lat="44.43103" lon="1.3511">
        <ele>146</ele>
        <time>2019-04-14T09:32:47Z</time>
      </trkpt>
      <trkpt lat="44.43101" lon="1.35112">
        <ele>146</ele>
        <time>2019-04-14T09:32:48Z</time>
      </trkpt>
      <trkpt lat="44.43099" lon="1.35114">
        <ele>146</ele>
        <time>2019-04-14T09:32:49Z</time>
      </trkpt>
      <trkpt lat="44.43097" lon="1.35116">
        <ele>146</ele>
        <time>2019-04-14T09:32:50Z</time>
      </trkpt>
      <trkpt lat="44.43095" lon="1.35118">
        <ele>146</ele>
        <time>2019-04-14T09:32:51Z</time>
      </trkpt>
      <trkpt lat="44.43094" lon="1.35119">
        <ele>146</ele>
        <time>2019-04-14T09:32:52Z</time>
      </trkpt>
      <trkpt lat="44.43091" lon="1.35122">
        <ele>147</ele>
        <time>2019-04-14T09:32:53Z</time>
      </trkpt>
      <trkpt lat="44.43089" lon="1.35123">
        <ele>147</ele>
        <time>2019-04-14T09:32:54Z</time>
      </trkpt>
      <trkpt lat="44.43088" lon="1.35124">
        <ele>147</ele>
        <time>2019-04-14T09:32:55Z</time>
      </trkpt>
      <trkpt lat="44.43088" lon="1.35125">
        <ele>147</ele>
        <time>2019-04-14T09:32:56Z</time>
      </trkpt>
      <trkpt lat="44.43088" lon="1.35126">
        <ele>147</ele>
        <time>2019-04-14T09:32:57Z</time>
      </trkpt>
      <trkpt lat="44.43086" lon="1.35127">
        <ele>147</ele>
        <time>2019-04-14T09:32:58Z</time>
      </trkpt>
      <trkpt lat="44.43083" lon="1.3513">
        <ele>147</ele>
        <time>2019-04-14T09:32:59Z</time>
      </trkpt>
      <trkpt lat="44.4308" lon="1.35132">
        <ele>147</ele>
        <time>2019-04-14T09:33:00Z</time>
      </trkpt>
      <trkpt lat="44.43078" lon="1.35132">
        <ele>147</ele>
        <time>2019-04-14T09:33:01Z</time>
      </trkpt>
      <trkpt lat="44.43077" lon="1.35134">
        <ele>147</ele>
        <time>2019-04-14T09:33:02Z</time>
      </trkpt>
      <trkpt lat="44.43076" lon="1.35136">
        <ele>147</ele>
        <time>2019-04-14T09:33:03Z</time>
      </trkpt>
      <trkpt lat="44.43074" lon="1.35139">
        <ele>147</ele>
        <time>2019-04-14T09:33:04Z</time>
      </trkpt>
      <trkpt lat="44.43072" lon="1.35141">
        <ele>147</ele>
        <time>2019-04-14T09:33:05Z</time>
      </trkpt>
      <trkpt lat="44.43068" lon="1.35145">
        <ele>147</ele>
        <time>2019-04-14T09:33:06Z</time>
      </trkpt>
      <trkpt lat="44.43068" lon="1.35146">
        <ele>147</ele>
        <time>2019-04-14T09:33:07Z</time>
      </trkpt>
      <trkpt lat="44.43065" lon="1.35149">
        <ele>147</ele>
        <time>2019-04-14T09:33:09Z</time>
      </trkpt>
      <trkpt lat="44.43065" lon="1.3515">
        <ele>147</ele>
        <time>2019-04-14T09:33:10Z</time>
      </trkpt>
      <trkpt lat="44.43065" lon="1.3515">
        <ele>147</ele>
        <time>2019-04-14T09:33:11Z</time>
      </trkpt>
      <trkpt lat="44.43065" lon="1.3515">
        <ele>147</ele>
        <time>2019-04-14T09:33:12Z</time>
      </trkpt>
      <trkpt lat="44.43066" lon="1.3515">
        <ele>147</ele>
        <time>2019-04-14T09:33:14Z</time>
      </trkpt>
      <trkpt lat="44.43048" lon="1.35168">
        <ele>148</ele>
        <time>2019-04-14T09:33:32Z</time>
      </trkpt>
      <trkpt lat="44.43046" lon="1.35169">
        <ele>148</ele>
        <time>2019-04-14T09:33:34Z</time>
      </trkpt>
      <trkpt lat="44.43042" lon="1.35172">
        <ele>148</ele>
        <time>2019-04-14T09:33:35Z</time>
      </trkpt>
      <trkpt lat="44.4304" lon="1.35174">
        <ele>148</ele>
        <time>2019-04-14T09:33:36Z</time>
      </trkpt>
      <trkpt lat="44.4304" lon="1.35175">
        <ele>148</ele>
        <time>2019-04-14T09:33:37Z</time>
      </trkpt>
      <trkpt lat="44.43039" lon="1.35177">
        <ele>148</ele>
        <time>2019-04-14T09:33:38Z</time>
      </trkpt>
      <trkpt lat="44.43038" lon="1.35179">
        <ele>149</ele>
        <time>2019-04-14T09:33:39Z</time>
      </trkpt>
      <trkpt lat="44.43038" lon="1.3518">
        <ele>149</ele>
        <time>2019-04-14T09:33:40Z</time>
      </trkpt>
      <trkpt lat="44.43037" lon="1.35182">
        <ele>149</ele>
        <time>2019-04-14T09:33:41Z</time>
      </trkpt>
      <trkpt lat="44.43035" lon="1.35182">
        <ele>148</ele>
        <time>2019-04-14T09:33:42Z</time>
      </trkpt>
      <trkpt lat="44.43033" lon="1.3518">
        <ele>149</ele>
        <time>2019-04-14T09:33:43Z</time>
      </trkpt>
      <trkpt lat="44.43031" lon="1.35183">
        <ele>148</ele>
        <time>2019-04-14T09:33:44Z</time>
      </trkpt>
      <trkpt lat="44.4303" lon="1.35186">
        <ele>148</ele>
        <time>2019-04-14T09:33:45Z</time>
      </trkpt>
      <trkpt lat="44.43028" lon="1.35188">
        <ele>148</ele>
        <time>2019-04-14T09:33:47Z</time>
      </trkpt>
      <trkpt lat="44.43026" lon="1.35189">
        <ele>148</ele>
        <time>2019-04-14T09:33:48Z</time>
      </trkpt>
      <trkpt lat="44.43027" lon="1.35188">
        <ele>148</ele>
        <time>2019-04-14T09:33:49Z</time>
      </trkpt>
      <trkpt lat="44.43028" lon="1.3519">
        <ele>148</ele>
        <time>2019-04-14T09:33:50Z</time>
      </trkpt>
      <trkpt lat="44.43027" lon="1.35192">
        <ele>148</ele>
        <time>2019-04-14T09:33:51Z</time>
      </trkpt>
      <trkpt lat="44.43026" lon="1.35192">
        <ele>148</ele>
        <time>2019-04-14T09:33:53Z</time>
      </trkpt>
      <trkpt lat="44.43024" lon="1.35198">
        <ele>148</ele>
        <time>2019-04-14T09:33:54Z</time>
      </trkpt>
      <trkpt lat="44.43023" lon="1.352">
        <ele>148</ele>
        <time>2019-04-14T09:33:55Z</time>
      </trkpt>
      <trkpt lat="44.43021" lon="1.35203">
        <ele>148</ele>
        <time>2019-04-14T09:33:56Z</time>
      </trkpt>
      <trkpt lat="44.4302" lon="1.35204">
        <ele>148</ele>
        <time>2019-04-14T09:33:57Z</time>
      </trkpt>
      <trkpt lat="44.43019" lon="1.35206">
        <ele>148</ele>
        <time>2019-04-14T09:33:58Z</time>
      </trkpt>
      <trkpt lat="44.43019" lon="1.35205">
        <ele>148</ele>
        <time>2019-04-14T09:33:59Z</time>
      </trkpt>
      <trkpt lat="44.43017" lon="1.35207">
        <ele>148</ele>
        <time>2019-04-14T09:34:00Z</time>
      </trkpt>
      <trkpt lat="44.43015" lon="1.35208">
        <ele>148</ele>
        <time>2019-04-14T09:34:01Z</time>
      </trkpt>
      <trkpt lat="44.43014" lon="1.35209">
        <ele>149</ele>
        <time>2019-04-14T09:34:02Z</time>
      </trkpt>
      <trkpt lat="44.43013" lon="1.3521">
        <ele>149</ele>
        <time>2019-04-14T09:34:03Z</time>
      </trkpt>
      <trkpt lat="44.43011" lon="1.35211">
        <ele>149</ele>
        <time>2019-04-14T09:34:04Z</time>
      </trkpt>
      <trkpt lat="44.4301" lon="1.3521">
        <ele>149</ele>
        <time>2019-04-14T09:34:05Z</time>
      </trkpt>
      <trkpt lat="44.43008" lon="1.35211">
        <ele>150</ele>
        <time>2019-04-14T09:34:06Z</time>
      </trkpt>
      <trkpt lat="44.43007" lon="1.35212">
        <ele>150</ele>
        <time>2019-04-14T09:34:07Z</time>
      </trkpt>
      <trkpt lat="44.43005" lon="1.35215">
        <ele>150</ele>
        <time>2019-04-14T09:34:08Z</time>
      </trkpt>
      <trkpt lat="44.43003" lon="1.35218">
        <ele>150</ele>
        <time>2019-04-14T09:34:09Z</time>
      </trkpt>
      <trkpt lat="44.43001" lon="1.3522">
        <ele>151</ele>
        <time>2019-04-14T09:34:10Z</time>
      </trkpt>
      <trkpt lat="44.42999" lon="1.35222">
        <ele>151</ele>
        <time>2019-04-14T09:34:11Z</time>
      </trkpt>
      <trkpt lat="44.42996" lon="1.35225">
        <ele>151</ele>
        <time>2019-04-14T09:34:13Z</time>
      </trkpt>
      <trkpt lat="44.42995" lon="1.35225">
        <ele>151</ele>
        <time>2019-04-14T09:34:14Z</time>
      </trkpt>
      <trkpt lat="44.42994" lon="1.35226">
        <ele>151</ele>
        <time>2019-04-14T09:34:16Z</time>
      </trkpt>
      <trkpt lat="44.42993" lon="1.35228">
        <ele>151</ele>
        <time>2019-04-14T09:34:17Z</time>
      </trkpt>
      <trkpt lat="44.42992" lon="1.35229">
        <ele>151</ele>
        <time>2019-04-14T09:34:18Z</time>
      </trkpt>
      <trkpt lat="44.42989" lon="1.3523">
        <ele>151</ele>
        <time>2019-04-14T09:34:19Z</time>
      </trkpt>
      <trkpt lat="44.42988" lon="1.35231">
        <ele>151</ele>
        <time>2019-04-14T09:34:20Z</time>
      </trkpt>
      <trkpt lat="44.42987" lon="1.35233">
        <ele>151</ele>
        <time>2019-04-14T09:34:21Z</time>
      </trkpt>
      <trkpt lat="44.42985" lon="1.35235">
        <ele>151</ele>
        <time>2019-04-14T09:34:22Z</time>
      </trkpt>
      <trkpt lat="44.42983" lon="1.35237">
        <ele>151</ele>
        <time>2019-04-14T09:34:23Z</time>
      </trkpt>
      <trkpt lat="44.42984" lon="1.35238">
        <ele>151</ele>
        <time>2019-04-14T09:34:24Z</time>
      </trkpt>
      <trkpt lat="44.42984" lon="1.3524">
        <ele>151</ele>
        <time>2019-04-14T09:34:25Z</time>
      </trkpt>
      <trkpt lat="44.42982" lon="1.35242">
        <ele>151</ele>
        <time>2019-04-14T09:34:26Z</time>
      </trkpt>
      <trkpt lat="44.42979" lon="1.35246">
        <ele>151</ele>
        <time>2019-04-14T09:34:27Z</time>
      </trkpt>
      <trkpt lat="44.42978" lon="1.35246">
        <ele>152</ele>
        <time>2019-04-14T09:34:29Z</time>
      </trkpt>
      <trkpt lat="44.42976" lon="1.35247">
        <ele>151</ele>
        <time>2019-04-14T09:34:30Z</time>
      </trkpt>
      <trkpt lat="44.42975" lon="1.35247">
        <ele>152</ele>
        <time>2019-04-14T09:34:31Z</time>
      </trkpt>
      <trkpt lat="44.42974" lon="1.3525">
        <ele>152</ele>
        <time>2019-04-14T09:34:32Z</time>
      </trkpt>
      <trkpt lat="44.4297" lon="1.35251">
        <ele>152</ele>
        <time>2019-04-14T09:34:34Z</time>
      </trkpt>
      <trkpt lat="44.42968" lon="1.35253">
        <ele>152</ele>
        <time>2019-04-14T09:34:35Z</time>
      </trkpt>
      <trkpt lat="44.42966" lon="1.35254">
        <ele>153</ele>
        <time>2019-04-14T09:34:36Z</time>
      </trkpt>
      <trkpt lat="44.42963" lon="1.35255">
        <ele>153</ele>
        <time>2019-04-14T09:34:37Z</time>
      </trkpt>
      <trkpt lat="44.42943" lon="1.35291">
        <ele>154</ele>
        <time>2019-04-14T09:34:55Z</time>
      </trkpt>
      <trkpt lat="44.42938" lon="1.35295">
        <ele>154</ele>
        <time>2019-04-14T09:34:56Z</time>
      </trkpt>
      <trkpt lat="44.42936" lon="1.35298">
        <ele>154</ele>
        <time>2019-04-14T09:34:57Z</time>
      </trkpt>
      <trkpt lat="44.42934" lon="1.35299">
        <ele>154</ele>
        <time>2019-04-14T09:34:58Z</time>
      </trkpt>
      <trkpt lat="44.42933" lon="1.35301">
        <ele>154</ele>
        <time>2019-04-14T09:34:59Z</time>
      </trkpt>
      <trkpt lat="44.42932" lon="1.35303">
        <ele>154</ele>
        <time>2019-04-14T09:35:00Z</time>
      </trkpt>
      <trkpt lat="44.42932" lon="1.35305">
        <ele>154</ele>
        <time>2019-04-14T09:35:01Z</time>
      </trkpt>
      <trkpt lat="44.42931" lon="1.35305">
        <ele>154</ele>
        <time>2019-04-14T09:35:02Z</time>
      </trkpt>
      <trkpt lat="44.42929" lon="1.35307">
        <ele>154</ele>
        <time>2019-04-14T09:35:03Z</time>
      </trkpt>
      <trkpt lat="44.42927" lon="1.35309">
        <ele>154</ele>
        <time>2019-04-14T09:35:04Z</time>
      </trkpt>
      <trkpt lat="44.42923" lon="1.35313">
        <ele>154</ele>
        <time>2019-04-14T09:35:05Z</time>
      </trkpt>
      <trkpt lat="44.42921" lon="1.35315">
        <ele>154</ele>
        <time>2019-04-14T09:35:06Z</time>
      </trkpt>
      <trkpt lat="44.42919" lon="1.35316">
        <ele>154</ele>
        <time>2019-04-14T09:35:07Z</time>
      </trkpt>
      <trkpt lat="44.42918" lon="1.35317">
        <ele>155</ele>
        <time>2019-04-14T09:35:09Z</time>
      </trkpt>
      <trkpt lat="44.42916" lon="1.3532">
        <ele>154</ele>
        <time>2019-04-14T09:35:10Z</time>
      </trkpt>
      <trkpt lat="44.42914" lon="1.35321">
        <ele>155</ele>
        <time>2019-04-14T09:35:11Z</time>
      </trkpt>
      <trkpt lat="44.42912" lon="1.35326">
        <ele>154</ele>
        <time>2019-04-14T09:35:12Z</time>
      </trkpt>
      <trkpt lat="44.42911" lon="1.35328">
        <ele>154</ele>
        <time>2019-04-14T09:35:13Z</time>
      </trkpt>
      <trkpt lat="44.42909" lon="1.35329">
        <ele>154</ele>
        <time>2019-04-14T09:35:14Z</time>
      </trkpt>
      <trkpt lat="44.42906" lon="1.35331">
        <ele>154</ele>
        <time>2019-04-14T09:35:15Z</time>
      </trkpt>
      <trkpt lat="44.42903" lon="1.35332">
        <ele>154</ele>
        <time>2019-04-14T09:35:16Z</time>
      </trkpt>
      <trkpt lat="44.429" lon="1.35335">
        <ele>154</ele>
        <time>2019-04-14T09:35:17Z</time>
      </trkpt>
      <trkpt lat="44.42899" lon="1.35336">
        <ele>154</ele>
        <time>2019-04-14T09:35:18Z</time>
      </trkpt>
      <trkpt lat="44.42897" lon="1.35337">
        <ele>155</ele>
        <time>2019-04-14T09:35:19Z</time>
      </trkpt>
      <trkpt lat="44.42894" lon="1.35338">
        <ele>155</ele>
        <time>2019-04-14T09:35:20Z</time>
      </trkpt>
      <trkpt lat="44.42892" lon="1.35339">
        <ele>155</ele>
        <time>2019-04-14T09:35:21Z</time>
      </trkpt>
      <trkpt lat="44.4289" lon="1.35339">
        <ele>155</ele>
        <time>2019-04-14T09:35:22Z</time>
      </trkpt>
      <trkpt lat="44.42888" lon="1.35339">
        <ele>155</ele>
        <time>2019-04-14T09:35:23Z</time>
      </trkpt>
      <trkpt lat="44.42886" lon="1.35339">
        <ele>155</ele>
        <time>2019-04-14T09:35:24Z</time>
      </trkpt>
      <trkpt lat="44.42884" lon="1.35339">
        <ele>155</ele>
        <time>2019-04-14T09:35:25Z</time>
      </trkpt>
      <trkpt lat="44.42881" lon="1.35339">
        <ele>155</ele>
        <time>2019-04-14T09:35:26Z</time>
      </trkpt>
      <trkpt lat="44.42878" lon="1.35339">
        <ele>156</ele>
        <time>2019-04-14T09:35:27Z</time>
      </trkpt>
      <trkpt lat="44.42876" lon="1.35338">
        <ele>156</ele>
        <time>2019-04-14T09:35:28Z</time>
      </trkpt>
      <trkpt lat="44.42874" lon="1.35338">
        <ele>156</ele>
        <time>2019-04-14T09:35:29Z</time>
      </trkpt>
      <trkpt lat="44.42873" lon="1.35337">
        <ele>156</ele>
        <time>2019-04-14T09:35:31Z</time>
      </trkpt>
      <trkpt lat="44.42872" lon="1.35337">
        <ele>156</ele>
        <time>2019-04-14T09:35:32Z</time>
      </trkpt>
      <trkpt lat="44.4287" lon="1.35337">
        <ele>156</ele>
        <time>2019-04-14T09:35:33Z</time>
      </trkpt>
      <trkpt lat="44.42869" lon="1.35336">
        <ele>156</ele>
        <time>2019-04-14T09:35:34Z</time>
      </trkpt>
      <trkpt lat="44.42865" lon="1.35337">
        <ele>156</ele>
        <time>2019-04-14T09:35:35Z</time>
      </trkpt>
      <trkpt lat="44.42863" lon="1.35337">
        <ele>156</ele>
        <time>2019-04-14T09:35:36Z</time>
      </trkpt>
      <trkpt lat="44.42861" lon="1.35337">
        <ele>156</ele>
        <time>2019-04-14T09:35:37Z</time>
      </trkpt>
      <trkpt lat="44.4286" lon="1.35337">
        <ele>156</ele>
        <time>2019-04-14T09:35:38Z</time>
      </trkpt>
      <trkpt lat="44.42858" lon="1.35336">
        <ele>156</ele>
        <time>2019-04-14T09:35:39Z</time>
      </trkpt>
      <trkpt lat="44.42857" lon="1.35335">
        <ele>156</ele>
        <time>2019-04-14T09:35:40Z</time>
      </trkpt>
      <trkpt lat="44.42856" lon="1.35334">
        <ele>156</ele>
        <time>2019-04-14T09:35:41Z</time>
      </trkpt>
      <trkpt lat="44.42854" lon="1.35333">
        <ele>156</ele>
        <time>2019-04-14T09:35:42Z</time>
      </trkpt>
      <trkpt lat="44.42853" lon="1.35333">
        <ele>157</ele>
        <time>2019-04-14T09:35:43Z</time>
      </trkpt>
      <trkpt lat="44.42852" lon="1.35332">
        <ele>157</ele>
        <time>2019-04-14T09:35:44Z</time>
      </trkpt>
      <trkpt lat="44.42851" lon="1.35331">
        <ele>157</ele>
        <time>2019-04-14T09:35:45Z</time>
      </trkpt>
      <trkpt lat="44.4285" lon="1.3533">
        <ele>157</ele>
        <time>2019-04-14T09:35:46Z</time>
      </trkpt>
      <trkpt lat="44.42848" lon="1.35329">
        <ele>157</ele>
        <time>2019-04-14T09:35:47Z</time>
      </trkpt>
      <trkpt lat="44.42846" lon="1.35328">
        <ele>156</ele>
        <time>2019-04-14T09:35:48Z</time>
      </trkpt>
      <trkpt lat="44.42843" lon="1.35328">
        <ele>156</ele>
        <time>2019-04-14T09:35:49Z</time>
      </trkpt>
      <trkpt lat="44.42841" lon="1.35326">
        <ele>156</ele>
        <time>2019-04-14T09:35:50Z</time>
      </trkpt>
      <trkpt lat="44.42839" lon="1.35325">
        <ele>156</ele>
        <time>2019-04-14T09:35:51Z</time>
      </trkpt>
      <trkpt lat="44.42837" lon="1.35324">
        <ele>156</ele>
        <time>2019-04-14T09:35:52Z</time>
      </trkpt>
      <trkpt lat="44.42834" lon="1.35323">
        <ele>156</ele>
        <time>2019-04-14T09:35:53Z</time>
      </trkpt>
      <trkpt lat="44.42832" lon="1.35321">
        <ele>156</ele>
        <time>2019-04-14T09:35:54Z</time>
      </trkpt>
      <trkpt lat="44.4283" lon="1.35319">
        <ele>156</ele>
        <time>2019-04-14T09:35:55Z</time>
      </trkpt>
      <trkpt lat="44.42829" lon="1.35317">
        <ele>156</ele>
        <time>2019-04-14T09:35:56Z</time>
      </trkpt>
      <trkpt lat="44.42826" lon="1.35316">
        <ele>155</ele>
        <time>2019-04-14T09:35:57Z</time>
      </trkpt>
      <trkpt lat="44.42824" lon="1.35315">
        <ele>155</ele>
        <time>2019-04-14T09:35:58Z</time>
      </trkpt>
      <trkpt lat="44.42822" lon="1.35315">
        <ele>156</ele>
        <time>2019-04-14T09:36:00Z</time>
      </trkpt>
      <trkpt lat="44.42819" lon="1.35312">
        <ele>156</ele>
        <time>2019-04-14T09:36:01Z</time>
      </trkpt>
      <trkpt lat="44.42817" lon="1.35311">
        <ele>156</ele>
        <time>2019-04-14T09:36:02Z</time>
      </trkpt>
      <trkpt lat="44.42816" lon="1.35309">
        <ele>156</ele>
        <time>2019-04-14T09:36:03Z</time>
      </trkpt>
      <trkpt lat="44.42815" lon="1.35308">
        <ele>156</ele>
        <time>2019-04-14T09:36:04Z</time>
      </trkpt>
      <trkpt lat="44.42814" lon="1.35306">
        <ele>156</ele>
        <time>2019-04-14T09:36:05Z</time>
      </trkpt>
      <trkpt lat="44.42812" lon="1.35303">
        <ele>156</ele>
        <time>2019-04-14T09:36:06Z</time>
      </trkpt>
      <trkpt lat="44.4281" lon="1.35302">
        <ele>156</ele>
        <time>2019-04-14T09:36:07Z</time>
      </trkpt>
      <trkpt lat="44.42808" lon="1.35301">
        <ele>157</ele>
        <time>2019-04-14T09:36:08Z</time>
      </trkpt>
      <trkpt lat="44.42805" lon="1.35299">
        <ele>157</ele>
        <time>2019-04-14T09:36:09Z</time>
      </trkpt>
      <trkpt lat="44.42804" lon="1.35296">
        <ele>157</ele>
        <time>2019-04-14T09:36:10Z</time>
      </trkpt>
      <trkpt lat="44.42801" lon="1.35295">
        <ele>157</ele>
        <time>2019-04-14T09:36:11Z</time>
      </trkpt>
      <trkpt lat="44.42799" lon="1.35293">
        <ele>157</ele>
        <time>2019-04-14T09:36:12Z</time>
      </trkpt>
      <trkpt lat="44.42798" lon="1.35292">
        <ele>157</ele>
        <time>2019-04-14T09:36:13Z</time>
      </trkpt>
      <trkpt lat="44.42797" lon="1.35291">
        <ele>157</ele>
        <time>2019-04-14T09:36:14Z</time>
      </trkpt>
      <trkpt lat="44.42797" lon="1.3529">
        <ele>157</ele>
        <time>2019-04-14T09:36:15Z</time>
      </trkpt>
      <trkpt lat="44.42796" lon="1.35288">
        <ele>157</ele>
        <time>2019-04-14T09:36:16Z</time>
      </trkpt>
      <trkpt lat="44.42796" lon="1.35288">
        <ele>157</ele>
        <time>2019-04-14T09:36:17Z</time>
      </trkpt>
      <trkpt lat="44.42796" lon="1.35287">
        <ele>157</ele>
        <time>2019-04-14T09:36:18Z</time>
      </trkpt>
      <trkpt lat="44.42796" lon="1.35287">
        <ele>157</ele>
        <time>2019-04-14T09:36:19Z</time>
      </trkpt>
      <trkpt lat="44.42795" lon="1.35286">
        <ele>157</ele>
        <time>2019-04-14T09:36:20Z</time>
      </trkpt>
      <trkpt lat="44.42795" lon="1.35284">
        <ele>158</ele>
        <time>2019-04-14T09:36:21Z</time>
      </trkpt>
      <trkpt lat="44.42795" lon="1.35282">
        <ele>158</ele>
        <time>2019-04-14T09:36:22Z</time>
      </trkpt>
      <trkpt lat="44.42795" lon="1.35283">
        <ele>158</ele>
        <time>2019-04-14T09:36:23Z</time>
      </trkpt>
      <trkpt lat="44.42793" lon="1.35282">
        <ele>158</ele>
        <time>2019-04-14T09:36:24Z</time>
      </trkpt>
      <trkpt lat="44.42815" lon="1.35283">
        <ele>162</ele>
        <time>2019-04-14T09:36:48Z</time>
      </trkpt>
      <trkpt lat="44.42817" lon="1.35283">
        <ele>162</ele>
        <time>2019-04-14T09:36:49Z</time>
      </trkpt>
      <trkpt lat="44.42819" lon="1.35284">
        <ele>162</ele>
        <time>2019-04-14T09:36:50Z</time>
      </trkpt>
      <trkpt lat="44.4282" lon="1.35285">
        <ele>163</ele>
        <time>2019-04-14T09:36:51Z</time>
      </trkpt>
      <trkpt lat="44.42822" lon="1.35283">
        <ele>163</ele>
        <time>2019-04-14T09:36:52Z</time>
      </trkpt>
      <trkpt lat="44.42823" lon="1.35283">
        <ele>163</ele>
        <time>2019-04-14T09:36:53Z</time>
      </trkpt>
      <trkpt lat="44.42824" lon="1.35284">
        <ele>163</ele>
        <time>2019-04-14T09:36:54Z</time>
      </trkpt>
      <trkpt lat="44.42825" lon="1.35285">
        <ele>164</ele>
        <time>2019-04-14T09:36:56Z</time>
      </trkpt>
      <trkpt lat="44.42829" lon="1.35288">
        <ele>164</ele>
        <time>2019-04-14T09:36:57Z</time>
      </trkpt>
      <trkpt lat="44.4283" lon="1.35289">
        <ele>164</ele>
        <time>2019-04-14T09:36:58Z</time>
      </trkpt>
      <trkpt lat="44.42831" lon="1.3529">
        <ele>165</ele>
        <time>2019-04-14T09:36:59Z</time>
      </trkpt>
      <trkpt lat="44.42833" lon="1.35291">
        <ele>165</ele>
        <time>2019-04-14T09:37:01Z</time>
      </trkpt>
      <trkpt lat="44.42835" lon="1.35292">
        <ele>166</ele>
        <time>2019-04-14T09:37:02Z</time>
      </trkpt>
      <trkpt lat="44.42837" lon="1.35292">
        <ele>166</ele>
        <time>2019-04-14T09:37:03Z</time>
      </trkpt>
      <trkpt lat="44.42838" lon="1.35293">
        <ele>166</ele>
        <time>2019-04-14T09:37:04Z</time>
      </trkpt>
      <trkpt lat="44.42839" lon="1.35294">
        <ele>166</ele>
        <time>2019-04-14T09:37:05Z</time>
      </trkpt>
      <trkpt lat="44.4284" lon="1.35295">
        <ele>167</ele>
        <time>2019-04-14T09:37:06Z</time>
      </trkpt>
      <trkpt lat="44.42841" lon="1.35296">
        <ele>167</ele>
        <time>2019-04-14T09:37:07Z</time>
      </trkpt>
      <trkpt lat="44.42842" lon="1.35297">
        <ele>167</ele>
        <time>2019-04-14T09:37:08Z</time>
      </trkpt>
      <trkpt lat="44.42844" lon="1.35298">
        <ele>167</ele>
        <time>2019-04-14T09:37:09Z</time>
      </trkpt>
      <trkpt lat="44.42846" lon="1.35299">
        <ele>168</ele>
        <time>2019-04-14T09:37:10Z</time>
      </trkpt>
      <trkpt lat="44.42847" lon="1.35299">
        <ele>168</ele>
        <time>2019-04-14T09:37:11Z</time>
      </trkpt>
      <trkpt lat="44.42849" lon="1.353">
        <ele>168</ele>
        <time>2019-04-14T09:37:12Z</time>
      </trkpt>
      <trkpt lat="44.42851" lon="1.353">
        <ele>169</ele>
        <time>2019-04-14T09:37:13Z</time>
      </trkpt>
      <trkpt lat="44.42853" lon="1.353">
        <ele>169</ele>
        <time>2019-04-14T09:37:14Z</time>
      </trkpt>
      <trkpt lat="44.42855" lon="1.353">
        <ele>169</ele>
        <time>2019-04-14T09:37:15Z</time>
      </trkpt>
      <trkpt lat="44.42856" lon="1.353">
        <ele>169</ele>
        <time>2019-04-14T09:37:16Z</time>
      </trkpt>
      <trkpt lat="44.42857" lon="1.353">
        <ele>170</ele>
        <time>2019-04-14T09:37:17Z</time>
      </trkpt>
      <trkpt lat="44.42858" lon="1.35301">
        <ele>170</ele>
        <time>2019-04-14T09:37:18Z</time>
      </trkpt>
      <trkpt lat="44.42859" lon="1.353">
        <ele>170</ele>
        <time>2019-04-14T09:37:19Z</time>
      </trkpt>
      <trkpt lat="44.4286" lon="1.353">
        <ele>170</ele>
        <time>2019-04-14T09:37:20Z</time>
      </trkpt>
      <trkpt lat="44.42861" lon="1.353">
        <ele>170</ele>
        <time>2019-04-14T09:37:21Z</time>
      </trkpt>
      <trkpt lat="44.42862" lon="1.35299">
        <ele>170</ele>
        <time>2019-04-14T09:37:22Z</time>
      </trkpt>
      <trkpt lat="44.42862" lon="1.353">
        <ele>170</ele>
        <time>2019-04-14T09:37:23Z</time>
      </trkpt>
      <trkpt lat="44.42862" lon="1.353">
        <ele>170</ele>
        <time>2019-04-14T09:37:24Z</time>
      </trkpt>
      <trkpt lat="44.42862" lon="1.35301">
        <ele>170</ele>
        <time>2019-04-14T09:37:25Z</time>
      </trkpt>
      <trkpt lat="44.42863" lon="1.353">
        <ele>170</ele>
        <time>2019-04-14T09:37:26Z</time>
      </trkpt>
      <trkpt lat="44.42864" lon="1.353">
        <ele>170</ele>
        <time>2019-04-14T09:37:27Z</time>
      </trkpt>
      <trkpt lat="44.42864" lon="1.35299">
        <ele>170</ele>
        <time>2019-04-14T09:37:28Z</time>
      </trkpt>
      <trkpt lat="44.42864" lon="1.35299">
        <ele>170</ele>
        <time>2019-04-14T09:37:29Z</time>
      </trkpt>
      <trkpt lat="44.42865" lon="1.35299">
        <ele>170</ele>
        <time>2019-04-14T09:37:30Z</time>
      </trkpt>
      <trkpt lat="44.42865" lon="1.35299">
        <ele>170</ele>
        <time>2019-04-14T09:37:31Z</time>
      </trkpt>
      <trkpt lat="44.42865" lon="1.35299">
        <ele>170</ele>
        <time>2019-04-14T09:37:32Z</time>
      </trkpt>
      <trkpt lat="44.42864" lon="1.35299">
        <ele>170</ele>
        <time>2019-04-14T09:37:33Z</time>
      </trkpt>
      <trkpt lat="44.42864" lon="1.35299">
        <ele>167</ele>
        <time>2019-04-14T09:37:34Z</time>
      </trkpt>
      <trkpt lat="44.42864" lon="1.35299">
        <ele>170</ele>
        <time>2019-04-14T09:37:35Z</time>
      </trkpt>
      <trkpt lat="44.42854" lon="1.35287">
        <ele>172</ele>
        <time>2019-04-14T09:42:25Z</time>
      </trkpt>
      <trkpt lat="44.42853" lon="1.35286">
        <ele>172</ele>
        <time>2019-04-14T09:42:26Z</time>
      </trkpt>
      <trkpt lat="44.42852" lon="1.35285">
        <ele>172</ele>
        <time>2019-04-14T09:42:27Z</time>
      </trkpt>
      <trkpt lat="44.42851" lon="1.35284">
        <ele>172</ele>
        <time>2019-04-14T09:42:28Z</time>
      </trkpt>
      <trkpt lat="44.42851" lon="1.35284">
        <ele>173</ele>
        <time>2019-04-14T09:42:29Z</time>
      </trkpt>
      <trkpt lat="44.4285" lon="1.35283">
        <ele>173</ele>
        <time>2019-04-14T09:42:30Z</time>
      </trkpt>
      <trkpt lat="44.4285" lon="1.35282">
        <ele>173</ele>
        <time>2019-04-14T09:42:31Z</time>
      </trkpt>
      <trkpt lat="44.4285" lon="1.35281">
        <ele>173</ele>
        <time>2019-04-14T09:42:32Z</time>
      </trkpt>
      <trkpt lat="44.42849" lon="1.3528">
        <ele>173</ele>
        <time>2019-04-14T09:42:33Z</time>
      </trkpt>
      <trkpt lat="44.42848" lon="1.35279">
        <ele>173</ele>
        <time>2019-04-14T09:42:34Z</time>
      </trkpt>
      <trkpt lat="44.42848" lon="1.35278">
        <ele>174</ele>
        <time>2019-04-14T09:42:35Z</time>
      </trkpt>
      <trkpt lat="44.42847" lon="1.35278">
        <ele>174</ele>
        <time>2019-04-14T09:42:36Z</time>
      </trkpt>
      <trkpt lat="44.42847" lon="1.35277">
        <ele>174</ele>
        <time>2019-04-14T09:42:37Z</time>
      </trkpt>
      <trkpt lat="44.42846" lon="1.35274">
        <ele>174</ele>
        <time>2019-04-14T09:42:38Z</time>
      </trkpt>
      <trkpt lat="44.42845" lon="1.35273">
        <ele>174</ele>
        <time>2019-04-14T09:42:39Z</time>
      </trkpt>
      <trkpt lat="44.42845" lon="1.35273">
        <ele>175</ele>
        <time>2019-04-14T09:42:40Z</time>
      </trkpt>
      <trkpt lat="44.42844" lon="1.35272">
        <ele>175</ele>
        <time>2019-04-14T09:42:41Z</time>
      </trkpt>
      <trkpt lat="44.42843" lon="1.35271">
        <ele>175</ele>
        <time>2019-04-14T09:42:42Z</time>
      </trkpt>
      <trkpt lat="44.42842" lon="1.3527">
        <ele>175</ele>
        <time>2019-04-14T09:42:43Z</time>
      </trkpt>
      <trkpt lat="44.42841" lon="1.35268">
        <ele>175</ele>
        <time>2019-04-14T09:42:44Z</time>
      </trkpt>
      <trkpt lat="44.4284" lon="1.35267">
        <ele>175</ele>
        <time>2019-04-14T09:42:45Z</time>
      </trkpt>
      <trkpt lat="44.42839" lon="1.35265">
        <ele>175</ele>
        <time>2019-04-14T09:42:46Z</time>
      </trkpt>
      <trkpt lat="44.42839" lon="1.35265">
        <ele>176</ele>
        <time>2019-04-14T09:42:47Z</time>
      </trkpt>
      <trkpt lat="44.42838" lon="1.35264">
        <ele>176</ele>
        <time>2019-04-14T09:42:48Z</time>
      </trkpt>
      <trkpt lat="44.42838" lon="1.35263">
        <ele>176</ele>
        <time>2019-04-14T09:42:49Z</time>
      </trkpt>
      <trkpt lat="44.42837" lon="1.35262">
        <ele>176</ele>
        <time>2019-04-14T09:42:50Z</time>
      </trkpt>
      <trkpt lat="44.42836" lon="1.35261">
        <ele>176</ele>
        <time>2019-04-14T09:42:51Z</time>
      </trkpt>
      <trkpt lat="44.42835" lon="1.35261">
        <ele>176</ele>
        <time>2019-04-14T09:42:52Z</time>
      </trkpt>
      <trkpt lat="44.42834" lon="1.35259">
        <ele>176</ele>
        <time>2019-04-14T09:42:53Z</time>
      </trkpt>
      <trkpt lat="44.42833" lon="1.35259">
        <ele>177</ele>
        <time>2019-04-14T09:42:54Z</time>
      </trkpt>
      <trkpt lat="44.42832" lon="1.35257">
        <ele>177</ele>
        <time>2019-04-14T09:42:55Z</time>
      </trkpt>
      <trkpt lat="44.42831" lon="1.35257">
        <ele>177</ele>
        <time>2019-04-14T09:42:56Z</time>
      </trkpt>
      <trkpt lat="44.4283" lon="1.35255">
        <ele>177</ele>
        <time>2019-04-14T09:42:57Z</time>
      </trkpt>
      <trkpt lat="44.42829" lon="1.35254">
        <ele>177</ele>
        <time>2019-04-14T09:42:58Z</time>
      </trkpt>
      <trkpt lat="44.42829" lon="1.35254">
        <ele>177</ele>
        <time>2019-04-14T09:42:59Z</time>
      </trkpt>
      <trkpt lat="44.42828" lon="1.35253">
        <ele>178</ele>
        <time>2019-04-14T09:43:00Z</time>
      </trkpt>
      <trkpt lat="44.42827" lon="1.35252">
        <ele>178</ele>
        <time>2019-04-14T09:43:01Z</time>
      </trkpt>
      <trkpt lat="44.42826" lon="1.35251">
        <ele>178</ele>
        <time>2019-04-14T09:43:02Z</time>
      </trkpt>
      <trkpt lat="44.42826" lon="1.3525">
        <ele>178</ele>
        <time>2019-04-14T09:43:03Z</time>
      </trkpt>
      <trkpt lat="44.42825" lon="1.35249">
        <ele>178</ele>
        <time>2019-04-14T09:43:04Z</time>
      </trkpt>
      <trkpt lat="44.42824" lon="1.35248">
        <ele>178</ele>
        <time>2019-04-14T09:43:05Z</time>
      </trkpt>
      <trkpt lat="44.42824" lon="1.35247">
        <ele>178</ele>
        <time>2019-04-14T09:43:06Z</time>
      </trkpt>
      <trkpt lat="44.42824" lon="1.35246">
        <ele>179</ele>
        <time>2019-04-14T09:43:07Z</time>
      </trkpt>
      <trkpt lat="44.42824" lon="1.35245">
        <ele>179</ele>
        <time>2019-04-14T09:43:08Z</time>
      </trkpt>
      <trkpt lat="44.42823" lon="1.35244">
        <ele>179</ele>
        <time>2019-04-14T09:43:09Z</time>
      </trkpt>
      <trkpt lat="44.42823" lon="1.35243">
        <ele>179</ele>
        <time>2019-04-14T09:43:10Z</time>
      </trkpt>
      <trkpt lat="44.42823" lon="1.35243">
        <ele>179</ele>
        <time>2019-04-14T09:43:11Z</time>
      </trkpt>
      <trkpt lat="44.42822" lon="1.35242">
        <ele>180</ele>
        <time>2019-04-14T09:43:12Z</time>
      </trkpt>
      <trkpt lat="44.42821" lon="1.35241">
        <ele>180</ele>
        <time>2019-04-14T09:43:13Z</time>
      </trkpt>
      <trkpt lat="44.42821" lon="1.3524">
        <ele>180</ele>
        <time>2019-04-14T09:43:14Z</time>
      </trkpt>
      <trkpt lat="44.4282" lon="1.3524">
        <ele>180</ele>
        <time>2019-04-14T09:43:15Z</time>
      </trkpt>
      <trkpt lat="44.42819" lon="1.35239">
        <ele>180</ele>
        <time>2019-04-14T09:43:16Z</time>
      </trkpt>
      <trkpt lat="44.42819" lon="1.35238">
        <ele>181</ele>
        <time>2019-04-14T09:43:17Z</time>
      </trkpt>
      <trkpt lat="44.42818" lon="1.35237">
        <ele>181</ele>
        <time>2019-04-14T09:43:18Z</time>
      </trkpt>
      <trkpt lat="44.42816" lon="1.35236">
        <ele>181</ele>
        <time>2019-04-14T09:43:19Z</time>
      </trkpt>
      <trkpt lat="44.42815" lon="1.35235">
        <ele>181</ele>
        <time>2019-04-14T09:43:20Z</time>
      </trkpt>
      <trkpt lat="44.42815" lon="1.35234">
        <ele>182</ele>
        <time>2019-04-14T09:43:21Z</time>
      </trkpt>
      <trkpt lat="44.42814" lon="1.35233">
        <ele>182</ele>
        <time>2019-04-14T09:43:22Z</time>
      </trkpt>
      <trkpt lat="44.42814" lon="1.35232">
        <ele>182</ele>
        <time>2019-04-14T09:43:23Z</time>
      </trkpt>
      <trkpt lat="44.42813" lon="1.35231">
        <ele>182</ele>
        <time>2019-04-14T09:43:24Z</time>
      </trkpt>
      <trkpt lat="44.42812" lon="1.3523">
        <ele>182</ele>
        <time>2019-04-14T09:43:25Z</time>
      </trkpt>
      <trkpt lat="44.42812" lon="1.3523">
        <ele>182</ele>
        <time>2019-04-14T09:43:26Z</time>
      </trkpt>
      <trkpt lat="44.42811" lon="1.35229">
        <ele>183</ele>
        <time>2019-04-14T09:43:27Z</time>
      </trkpt>
      <trkpt lat="44.4281" lon="1.35228">
        <ele>183</ele>
        <time>2019-04-14T09:43:28Z</time>
      </trkpt>
      <trkpt lat="44.4281" lon="1.35227">
        <ele>183</ele>
        <time>2019-04-14T09:43:29Z</time>
      </trkpt>
      <trkpt lat="44.42809" lon="1.35226">
        <ele>183</ele>
        <time>2019-04-14T09:43:30Z</time>
      </trkpt>
      <trkpt lat="44.42785" lon="1.35191">
        <ele>191</ele>
        <time>2019-04-14T09:44:27Z</time>
      </trkpt>
      <trkpt lat="44.42784" lon="1.3519">
        <ele>191</ele>
        <time>2019-04-14T09:44:28Z</time>
      </trkpt>
      <trkpt lat="44.42783" lon="1.35189">
        <ele>192</ele>
        <time>2019-04-14T09:44:29Z</time>
      </trkpt>
      <trkpt lat="44.42782" lon="1.35189">
        <ele>192</ele>
        <time>2019-04-14T09:44:30Z</time>
      </trkpt>
      <trkpt lat="44.42781" lon="1.35187">
        <ele>192</ele>
        <time>2019-04-14T09:44:31Z</time>
      </trkpt>
      <trkpt lat="44.4278" lon="1.35187">
        <ele>192</ele>
        <time>2019-04-14T09:44:32Z</time>
      </trkpt>
      <trkpt lat="44.4278" lon="1.35186">
        <ele>193</ele>
        <time>2019-04-14T09:44:33Z</time>
      </trkpt>
      <trkpt lat="44.42779" lon="1.35185">
        <ele>193</ele>
        <time>2019-04-14T09:44:34Z</time>
      </trkpt>
      <trkpt lat="44.42778" lon="1.35184">
        <ele>193</ele>
        <time>2019-04-14T09:44:35Z</time>
      </trkpt>
      <trkpt lat="44.42777" lon="1.35183">
        <ele>193</ele>
        <time>2019-04-14T09:44:36Z</time>
      </trkpt>
      <trkpt lat="44.42777" lon="1.35182">
        <ele>194</ele>
        <time>2019-04-14T09:44:37Z</time>
      </trkpt>
      <trkpt lat="44.42776" lon="1.35181">
        <ele>194</ele>
        <time>2019-04-14T09:44:38Z</time>
      </trkpt>
      <trkpt lat="44.42775" lon="1.3518">
        <ele>194</ele>
        <time>2019-04-14T09:44:39Z</time>
      </trkpt>
      <trkpt lat="44.42774" lon="1.35179">
        <ele>194</ele>
        <time>2019-04-14T09:44:40Z</time>
      </trkpt>
      <trkpt lat="44.42773" lon="1.35178">
        <ele>195</ele>
        <time>2019-04-14T09:44:41Z</time>
      </trkpt>
      <trkpt lat="44.42772" lon="1.35177">
        <ele>195</ele>
        <time>2019-04-14T09:44:42Z</time>
      </trkpt>
      <trkpt lat="44.42771" lon="1.35176">
        <ele>196</ele>
        <time>2019-04-14T09:44:43Z</time>
      </trkpt>
      <trkpt lat="44.4277" lon="1.35175">
        <ele>196</ele>
        <time>2019-04-14T09:44:44Z</time>
      </trkpt>
      <trkpt lat="44.42769" lon="1.35174">
        <ele>196</ele>
        <time>2019-04-14T09:44:45Z</time>
      </trkpt>
      <trkpt lat="44.42768" lon="1.35173">
        <ele>196</ele>
        <time>2019-04-14T09:44:46Z</time>
      </trkpt>
      <trkpt lat="44.42767" lon="1.35171">
        <ele>197</ele>
        <time>2019-04-14T09:44:47Z</time>
      </trkpt>
      <trkpt lat="44.42766" lon="1.3517">
        <ele>197</ele>
        <time>2019-04-14T09:44:48Z</time>
      </trkpt>
      <trkpt lat="44.42765" lon="1.3517">
        <ele>197</ele>
        <time>2019-04-14T09:44:49Z</time>
      </trkpt>
      <trkpt lat="44.42764" lon="1.35169">
        <ele>197</ele>
        <time>2019-04-14T09:44:50Z</time>
      </trkpt>
      <trkpt lat="44.42763" lon="1.35168">
        <ele>197</ele>
        <time>2019-04-14T09:44:51Z</time>
      </trkpt>
      <trkpt lat="44.42762" lon="1.35167">
        <ele>198</ele>
        <time>2019-04-14T09:44:52Z</time>
      </trkpt>
      <trkpt lat="44.42761" lon="1.35166">
        <ele>198</ele>
        <time>2019-04-14T09:44:53Z</time>
      </trkpt>
      <trkpt lat="44.4276" lon="1.35165">
        <ele>198</ele>
        <time>2019-04-14T09:44:54Z</time>
      </trkpt>
      <trkpt lat="44.42758" lon="1.35165">
        <ele>198</ele>
        <time>2019-04-14T09:44:55Z</time>
      </trkpt>
      <trkpt lat="44.42757" lon="1.35164">
        <ele>198</ele>
        <time>2019-04-14T09:44:56Z</time>
      </trkpt>
      <trkpt lat="44.42756" lon="1.35164">
        <ele>199</ele>
        <time>2019-04-14T09:44:57Z</time>
      </trkpt>
      <trkpt lat="44.42755" lon="1.35163">
        <ele>199</ele>
        <time>2019-04-14T09:44:58Z</time>
      </trkpt>
      <trkpt lat="44.42755" lon="1.35162">
        <ele>199</ele>
        <time>2019-04-14T09:44:59Z</time>
      </trkpt>
      <trkpt lat="44.42754" lon="1.35162">
        <ele>199</ele>
        <time>2019-04-14T09:45:00Z</time>
      </trkpt>
      <trkpt lat="44.42753" lon="1.35161">
        <ele>199</ele>
        <time>2019-04-14T09:45:01Z</time>
      </trkpt>
      <trkpt lat="44.42752" lon="1.3516">
        <ele>200</ele>
        <time>2019-04-14T09:45:02Z</time>
      </trkpt>
      <trkpt lat="44.42751" lon="1.3516">
        <ele>200</ele>
        <time>2019-04-14T09:45:03Z</time>
      </trkpt>
      <trkpt lat="44.42751" lon="1.35159">
        <ele>200</ele>
        <time>2019-04-14T09:45:04Z</time>
      </trkpt>
      <trkpt lat="44.42749" lon="1.35158">
        <ele>200</ele>
        <time>2019-04-14T09:45:05Z</time>
      </trkpt>
      <trkpt lat="44.42748" lon="1.35157">
        <ele>200</ele>
        <time>2019-04-14T09:45:06Z</time>
      </trkpt>
      <trkpt lat="44.42747" lon="1.35156">
        <ele>201</ele>
        <time>2019-04-14T09:45:07Z</time>
      </trkpt>
      <trkpt lat="44.42746" lon="1.35156">
        <ele>201</ele>
        <time>2019-04-14T09:45:08Z</time>
      </trkpt>
      <trkpt lat="44.42745" lon="1.35155">
        <ele>201</ele>
        <time>2019-04-14T09:45:09Z</time>
      </trkpt>
      <trkpt lat="44.42744" lon="1.35154">
        <ele>201</ele>
        <time>2019-04-14T09:45:10Z</time>
      </trkpt>
      <trkpt lat="44.42742" lon="1.35154">
        <ele>201</ele>
        <time>2019-04-14T09:45:11Z</time>
      </trkpt>
      <trkpt lat="44.42741" lon="1.35153">
        <ele>201</ele>
        <time>2019-04-14T09:45:12Z</time>
      </trkpt>
      <trkpt lat="44.4274" lon="1.35153">
        <ele>202</ele>
        <time>2019-04-14T09:45:13Z</time>
      </trkpt>
      <trkpt lat="44.42739" lon="1.35152">
        <ele>202</ele>
        <time>2019-04-14T09:45:14Z</time>
      </trkpt>
      <trkpt lat="44.42738" lon="1.35151">
        <ele>202</ele>
        <time>2019-04-14T09:45:15Z</time>
      </trkpt>
      <trkpt lat="44.42737" lon="1.3515">
        <ele>202</ele>
        <time>2019-04-14T09:45:16Z</time>
      </trkpt>
      <trkpt lat="44.42736" lon="1.3515">
        <ele>202</ele>
        <time>2019-04-14T09:45:17Z</time>
      </trkpt>
      <trkpt lat="44.42735" lon="1.35149">
        <ele>203</ele>
        <time>2019-04-14T09:45:18Z</time>
      </trkpt>
      <trkpt lat="44.42735" lon="1.35148">
        <ele>203</ele>
        <time>2019-04-14T09:45:19Z</time>
      </trkpt>
      <trkpt lat="44.42734" lon="1.35148">
        <ele>203</ele>
        <time>2019-04-14T09:45:20Z</time>
      </trkpt>
      <trkpt lat="44.42733" lon="1.35147">
        <ele>203</ele>
        <time>2019-04-14T09:45:21Z</time>
      </trkpt>
      <trkpt lat="44.42733" lon="1.35146">
        <ele>204</ele>
        <time>2019-04-14T09:45:22Z</time>
      </trkpt>
      <trkpt lat="44.42732" lon="1.35145">
        <ele>204</ele>
        <time>2019-04-14T09:45:23Z</time>
      </trkpt>
      <trkpt lat="44.42731" lon="1.35144">
        <ele>204</ele>
        <time>2019-04-14T09:45:24Z</time>
      </trkpt>
      <trkpt lat="44.4273" lon="1.35144">
        <ele>204</ele>
        <time>2019-04-14T09:45:25Z</time>
      </trkpt>
      <trkpt lat="44.4273" lon="1.35143">
        <ele>204</ele>
        <time>2019-04-14T09:45:26Z</time>
      </trkpt>
      <trkpt lat="44.42729" lon="1.35143">
        <ele>205</ele>
        <time>2019-04-14T09:45:27Z</time>
      </trkpt>
      <trkpt lat="44.42728" lon="1.35142">
        <ele>205</ele>
        <time>2019-04-14T09:45:28Z</time>
      </trkpt>
      <trkpt lat="44.42727" lon="1.35142">
        <ele>205</ele>
        <time>2019-04-14T09:45:29Z</time>
      </trkpt>
      <trkpt lat="44.42726" lon="1.35142">
        <ele>205</ele>
        <time>2019-04-14T09:45:30Z</time>
      </trkpt>
      <trkpt lat="44.42725" lon="1.35141">
        <ele>205</ele>
        <time>2019-04-14T09:45:31Z</time>
      </trkpt>
      <trkpt lat="44.42724" lon="1.35141">
        <ele>206</ele>
        <time>2019-04-14T09:45:32Z</time>
      </trkpt>
      <trkpt lat="44.42723" lon="1.3514">
        <ele>206</ele>
        <time>2019-04-14T09:45:33Z</time>
      </trkpt>
      <trkpt lat="44.42723" lon="1.35139">
        <ele>206</ele>
        <time>2019-04-14T09:45:34Z</time>
      </trkpt>
      <trkpt lat="44.42722" lon="1.35138">
        <ele>206</ele>
        <time>2019-04-14T09:45:35Z</time>
      </trkpt>
      <trkpt lat="44.42721" lon="1.35138">
        <ele>207</ele>
        <time>2019-04-14T09:45:36Z</time>
      </trkpt>
      <trkpt lat="44.4272" lon="1.35137">
        <ele>207</ele>
        <time>2019-04-14T09:45:37Z</time>
      </trkpt>
      <trkpt lat="44.42719" lon="1.35137">
        <ele>207</ele>
        <time>2019-04-14T09:45:38Z</time>
      </trkpt>
      <trkpt lat="44.42718" lon="1.35136">
        <ele>207</ele>
        <time>2019-04-14T09:45:39Z</time>
      </trkpt>
      <trkpt lat="44.42718" lon="1.35136">
        <ele>207</ele>
        <time>2019-04-14T09:45:40Z</time>
      </trkpt>
      <trkpt lat="44.42718" lon="1.35135">
        <ele>208</ele>
        <time>2019-04-14T09:45:41Z</time>
      </trkpt>
      <trkpt lat="44.42718" lon="1.35135">
        <ele>208</ele>
        <time>2019-04-14T09:45:42Z</time>
      </trkpt>
      <trkpt lat="44.42717" lon="1.35135">
        <ele>208</ele>
        <time>2019-04-14T09:45:43Z</time>
      </trkpt>
      <trkpt lat="44.42716" lon="1.35134">
        <ele>208</ele>
        <time>2019-04-14T09:45:44Z</time>
      </trkpt>
      <trkpt lat="44.42716" lon="1.35133">
        <ele>208</ele>
        <time>2019-04-14T09:45:45Z</time>
      </trkpt>
      <trkpt lat="44.42715" lon="1.35133">
        <ele>209</ele>
        <time>2019-04-14T09:45:46Z</time>
      </trkpt>
      <trkpt lat="44.42715" lon="1.35133">
        <ele>209</ele>
        <time>2019-04-14T09:45:47Z</time>
      </trkpt>
      <trkpt lat="44.42734" lon="1.35126">
        <ele>214</ele>
        <time>2019-04-14T09:46:52Z</time>
      </trkpt>
      <trkpt lat="44.42736" lon="1.35125">
        <ele>214</ele>
        <time>2019-04-14T09:46:53Z</time>
      </trkpt>
      <trkpt lat="44.42737" lon="1.35125">
        <ele>215</ele>
        <time>2019-04-14T09:46:54Z</time>
      </trkpt>
      <trkpt lat="44.42739" lon="1.35125">
        <ele>215</ele>
        <time>2019-04-14T09:46:55Z</time>
      </trkpt>
      <trkpt lat="44.4274" lon="1.35125">
        <ele>215</ele>
        <time>2019-04-14T09:46:56Z</time>
      </trkpt>
      <trkpt lat="44.42741" lon="1.35124">
        <ele>215</ele>
        <time>2019-04-14T09:46:57Z</time>
      </trkpt>
      <trkpt lat="44.42742" lon="1.35124">
        <ele>216</ele>
        <time>2019-04-14T09:46:58Z</time>
      </trkpt>
      <trkpt lat="44.42743" lon="1.35124">
        <ele>216</ele>
        <time>2019-04-14T09:46:59Z</time>
      </trkpt>
      <trkpt lat="44.42744" lon="1.35124">
        <ele>216</ele>
        <time>2019-04-14T09:47:00Z</time>
      </trkpt>
      <trkpt lat="44.42746" lon="1.35124">
        <ele>216</ele>
        <time>2019-04-14T09:47:01Z</time>
      </trkpt>
      <trkpt lat="44.42747" lon="1.35123">
        <ele>217</ele>
        <time>2019-04-14T09:47:02Z</time>
      </trkpt>
      <trkpt lat="44.42748" lon="1.35123">
        <ele>217</ele>
        <time>2019-04-14T09:47:03Z</time>
      </trkpt>
      <trkpt lat="44.42749" lon="1.35123">
        <ele>217</ele>
        <time>2019-04-14T09:47:04Z</time>
      </trkpt>
      <trkpt lat="44.42751" lon="1.35123">
        <ele>217</ele>
        <time>2019-04-14T09:47:05Z</time>
      </trkpt>
      <trkpt lat="44.42752" lon="1.35123">
        <ele>217</ele>
        <time>2019-04-14T09:47:06Z</time>
      </trkpt>
      <trkpt lat="44.42754" lon="1.35123">
        <ele>218</ele>
        <time>2019-04-14T09:47:07Z</time>
      </trkpt>
      <trkpt lat="44.42756" lon="1.35123">
        <ele>218</ele>
        <time>2019-04-14T09:47:08Z</time>
      </trkpt>
      <trkpt lat="44.42757" lon="1.35123">
        <ele>218</ele>
        <time>2019-04-14T09:47:09Z</time>
      </trkpt>
      <trkpt lat="44.42758" lon="1.35123">
        <ele>218</ele>
        <time>2019-04-14T09:47:10Z</time>
      </trkpt>
      <trkpt lat="44.4276" lon="1.35123">
        <ele>218</ele>
        <time>2019-04-14T09:47:11Z</time>
      </trkpt>
      <trkpt lat="44.42762" lon="1.35122">
        <ele>219</ele>
        <time>2019-04-14T09:47:12Z</time>
      </trkpt>
      <trkpt lat="44.42763" lon="1.35122">
        <ele>219</ele>
        <time>2019-04-14T09:47:13Z</time>
      </trkpt>
      <trkpt lat="44.42765" lon="1.35121">
        <ele>219</ele>
        <time>2019-04-14T09:47:14Z</time>
      </trkpt>
      <trkpt lat="44.42765" lon="1.35121">
        <ele>219</ele>
        <time>2019-04-14T09:47:15Z</time>
      </trkpt>
      <trkpt lat="44.42766" lon="1.35121">
        <ele>219</ele>
        <time>2019-04-14T09:47:16Z</time>
      </trkpt>
      <trkpt lat="44.42768" lon="1.35121">
        <ele>220</ele>
        <time>2019-04-14T09:47:17Z</time>
      </trkpt>
      <trkpt lat="44.42769" lon="1.35121">
        <ele>220</ele>
        <time>2019-04-14T09:47:18Z</time>
      </trkpt>
      <trkpt lat="44.4277" lon="1.35121">
        <ele>220</ele>
        <time>2019-04-14T09:47:19Z</time>
      </trkpt>
      <trkpt lat="44.42771" lon="1.35121">
        <ele>220</ele>
        <time>2019-04-14T09:47:20Z</time>
      </trkpt>
      <trkpt lat="44.42773" lon="1.35121">
        <ele>221</ele>
        <time>2019-04-14T09:47:21Z</time>
      </trkpt>
      <trkpt lat="44.42774" lon="1.3512">
        <ele>221</ele>
        <time>2019-04-14T09:47:22Z</time>
      </trkpt>
      <trkpt lat="44.42776" lon="1.3512">
        <ele>221</ele>
        <time>2019-04-14T09:47:23Z</time>
      </trkpt>
      <trkpt lat="44.42777" lon="1.3512">
        <ele>221</ele>
        <time>2019-04-14T09:47:24Z</time>
      </trkpt>
      <trkpt lat="44.42778" lon="1.3512">
        <ele>222</ele>
        <time>2019-04-14T09:47:25Z</time>
      </trkpt>
      <trkpt lat="44.4278" lon="1.35119">
        <ele>222</ele>
        <time>2019-04-14T09:47:26Z</time>
      </trkpt>
      <trkpt lat="44.42781" lon="1.35119">
        <ele>222</ele>
        <time>2019-04-14T09:47:27Z</time>
      </trkpt>
      <trkpt lat="44.42782" lon="1.35118">
        <ele>222</ele>
        <time>2019-04-14T09:47:28Z</time>
      </trkpt>
      <trkpt lat="44.42784" lon="1.35118">
        <ele>223</ele>
        <time>2019-04-14T09:47:29Z</time>
      </trkpt>
      <trkpt lat="44.42785" lon="1.35118">
        <ele>223</ele>
        <time>2019-04-14T09:47:30Z</time>
      </trkpt>
      <trkpt lat="44.42786" lon="1.35118">
        <ele>223</ele>
        <time>2019-04-14T09:47:31Z</time>
      </trkpt>
      <trkpt lat="44.42787" lon="1.35118">
        <ele>223</ele>
        <time>2019-04-14T09:47:32Z</time>
      </trkpt>
      <trkpt lat="44.42788" lon="1.35118">
        <ele>224</ele>
        <time>2019-04-14T09:47:33Z</time>
      </trkpt>
      <trkpt lat="44.42789" lon="1.35118">
        <ele>224</ele>
        <time>2019-04-14T09:47:34Z</time>
      </trkpt>
      <trkpt lat="44.42789" lon="1.35118">
        <ele>224</ele>
        <time>2019-04-14T09:47:35Z</time>
      </trkpt>
      <trkpt lat="44.4279" lon="1.35118">
        <ele>224</ele>
        <time>2019-04-14T09:47:36Z</time>
      </trkpt>
      <trkpt lat="44.42791" lon="1.35118">
        <ele>225</ele>
        <time>2019-04-14T09:47:37Z</time>
      </trkpt>
      <trkpt lat="44.42792" lon="1.35117">
        <ele>225</ele>
        <time>2019-04-14T09:47:38Z</time>
      </trkpt>
      <trkpt lat="44.42793" lon="1.35117">
        <ele>225</ele>
        <time>2019-04-14T09:47:39Z</time>
      </trkpt>
      <trkpt lat="44.42794" lon="1.35117">
        <ele>226</ele>
        <time>2019-04-14T09:47:40Z</time>
      </trkpt>
      <trkpt lat="44.42796" lon="1.35117">
        <ele>226</ele>
        <time>2019-04-14T09:47:41Z</time>
      </trkpt>
      <trkpt lat="44.42798" lon="1.35117">
        <ele>226</ele>
        <time>2019-04-14T09:47:42Z</time>
      </trkpt>
      <trkpt lat="44.42799" lon="1.35117">
        <ele>226</ele>
        <time>2019-04-14T09:47:43Z</time>
      </trkpt>
      <trkpt lat="44.428" lon="1.35117">
        <ele>227</ele>
        <time>2019-04-14T09:47:44Z</time>
      </trkpt>
      <trkpt lat="44.42801" lon="1.35117">
        <ele>227</ele>
        <time>2019-04-14T09:47:45Z</time>
      </trkpt>
      <trkpt lat="44.42803" lon="1.35117">
        <ele>227</ele>
        <time>2019-04-14T09:47:46Z</time>
      </trkpt>
      <trkpt lat="44.42804" lon="1.35117">
        <ele>227</ele>
        <time>2019-04-14T09:47:47Z</time>
      </trkpt>
      <trkpt lat="44.42805" lon="1.35117">
        <ele>228</ele>
        <time>2019-04-14T09:47:48Z</time>
      </trkpt>
      <trkpt lat="44.42806" lon="1.35117">
        <ele>228</ele>
        <time>2019-04-14T09:47:49Z</time>
      </trkpt>
      <trkpt lat="44.42807" lon="1.35117">
        <ele>228</ele>
        <time>2019-04-14T09:47:50Z</time>
      </trkpt>
      <trkpt lat="44.42808" lon="1.35117">
        <ele>228</ele>
        <time>2019-04-14T09:47:51Z</time>
      </trkpt>
      <trkpt lat="44.42808" lon="1.35118">
        <ele>229</ele>
        <time>2019-04-14T09:47:52Z</time>
      </trkpt>
      <trkpt lat="44.42809" lon="1.35117">
        <ele>229</ele>
        <time>2019-04-14T09:47:53Z</time>
      </trkpt>
      <trkpt lat="44.42811" lon="1.35118">
        <ele>229</ele>
        <time>2019-04-14T09:47:54Z</time>
      </trkpt>
      <trkpt lat="44.42812" lon="1.35118">
        <ele>229</ele>
        <time>2019-04-14T09:47:55Z</time>
      </trkpt>
      <trkpt lat="44.42814" lon="1.35118">
        <ele>229</ele>
        <time>2019-04-14T09:47:56Z</time>
      </trkpt>
      <trkpt lat="44.42814" lon="1.35117">
        <ele>229</ele>
        <time>2019-04-14T09:47:57Z</time>
      </trkpt>
      <trkpt lat="44.42816" lon="1.35116">
        <ele>230</ele>
        <time>2019-04-14T09:47:58Z</time>
      </trkpt>
      <trkpt lat="44.42817" lon="1.35115">
        <ele>230</ele>
        <time>2019-04-14T09:47:59Z</time>
      </trkpt>
      <trkpt lat="44.42818" lon="1.35114">
        <ele>230</ele>
        <time>2019-04-14T09:48:00Z</time>
      </trkpt>
      <trkpt lat="44.42818" lon="1.35112">
        <ele>230</ele>
        <time>2019-04-14T09:48:01Z</time>
      </trkpt>
      <trkpt lat="44.42818" lon="1.35111">
        <ele>230</ele>
        <time>2019-04-14T09:48:02Z</time>
      </trkpt>
      <trkpt lat="44.42818" lon="1.3511">
        <ele>231</ele>
        <time>2019-04-14T09:48:03Z</time>
      </trkpt>
      <trkpt lat="44.42818" lon="1.35109">
        <ele>231</ele>
        <time>2019-04-14T09:48:04Z</time>
      </trkpt>
      <trkpt lat="44.42817" lon="1.35109">
        <ele>231</ele>
        <time>2019-04-14T09:48:05Z</time>
      </trkpt>
      <trkpt lat="44.42816" lon="1.35108">
        <ele>231</ele>
        <time>2019-04-14T09:48:06Z</time>
      </trkpt>
      <trkpt lat="44.42816" lon="1.35107">
        <ele>231</ele>
        <time>2019-04-14T09:48:07Z</time>
      </trkpt>
      <trkpt lat="44.42815" lon="1.35106">
        <ele>231</ele>
        <time>2019-04-14T09:48:08Z</time>
      </trkpt>
      <trkpt lat="44.42814" lon="1.35105">
        <ele>232</ele>
        <time>2019-04-14T09:48:09Z</time>
      </trkpt>
      <trkpt lat="44.42814" lon="1.35105">
        <ele>232</ele>
        <time>2019-04-14T09:48:10Z</time>
      </trkpt>
      <trkpt lat="44.42814" lon="1.35104">
        <ele>232</ele>
        <time>2019-04-14T09:48:11Z</time>
      </trkpt>
      <trkpt lat="44.42814" lon="1.35102">
        <ele>232</ele>
        <time>2019-04-14T09:48:12Z</time>
      </trkpt>
      <trkpt lat="44.42814" lon="1.35101">
        <ele>232</ele>
        <time>2019-04-14T09:48:13Z</time>
      </trkpt>
      <trkpt lat="44.42814" lon="1.351">
        <ele>232</ele>
        <time>2019-04-14T09:48:14Z</time>
      </trkpt>
      <trkpt lat="44.42814" lon="1.35098">
        <ele>232</ele>
        <time>2019-04-14T09:48:15Z</time>
      </trkpt>
      <trkpt lat="44.42815" lon="1.35097">
        <ele>232</ele>
        <time>2019-04-14T09:48:16Z</time>
      </trkpt>
      <trkpt lat="44.42815" lon="1.35096">
        <ele>232</ele>
        <time>2019-04-14T09:48:17Z</time>
      </trkpt>
      <trkpt lat="44.42815" lon="1.35095">
        <ele>232</ele>
        <time>2019-04-14T09:48:18Z</time>
      </trkpt>
      <trkpt lat="44.42816" lon="1.35093">
        <ele>233</ele>
        <time>2019-04-14T09:48:19Z</time>
      </trkpt>
      <trkpt lat="44.42816" lon="1.35092">
        <ele>233</ele>
        <time>2019-04-14T09:48:20Z</time>
      </trkpt>
      <trkpt lat="44.42817" lon="1.3509">
        <ele>233</ele>
        <time>2019-04-14T09:48:21Z</time>
      </trkpt>
      <trkpt lat="44.42818" lon="1.35089">
        <ele>233</ele>
        <time>2019-04-14T09:48:22Z</time>
      </trkpt>
      <trkpt lat="44.42819" lon="1.35088">
        <ele>233</ele>
        <time>2019-04-14T09:48:23Z</time>
      </trkpt>
      <trkpt lat="44.42819" lon="1.35087">
        <ele>233</ele>
        <time>2019-04-14T09:48:24Z</time>
      </trkpt>
      <trkpt lat="44.4282" lon="1.35086">
        <ele>233</ele>
        <time>2019-04-14T09:48:25Z</time>
      </trkpt>
      <trkpt lat="44.4282" lon="1.35086">
        <ele>233</ele>
        <time>2019-04-14T09:48:26Z</time>
      </trkpt>
      <trkpt lat="44.42821" lon="1.35086">
        <ele>233</ele>
        <time>2019-04-14T09:48:27Z</time>
      </trkpt>
      <trkpt lat="44.42821" lon="1.35087">
        <ele>233</ele>
        <time>2019-04-14T09:48:28Z</time>
      </trkpt>
      <trkpt lat="44.42821" lon="1.35087">
        <ele>233</ele>
        <time>2019-04-14T09:48:29Z</time>
      </trkpt>
      <trkpt lat="44.42821" lon="1.35086">
        <ele>233</ele>
        <time>2019-04-14T09:48:30Z</time>
      </trkpt>
      <trkpt lat="44.42821" lon="1.35086">
        <ele>233</ele>
        <time>2019-04-14T09:48:31Z</time>
      </trkpt>
      <trkpt lat="44.42821" lon="1.35086">
        <ele>233</ele>
        <time>2019-04-14T09:48:32Z</time>
      </trkpt>
      <trkpt lat="44.4282" lon="1.35086">
        <ele>233</ele>
        <time>2019-04-14T09:48:33Z</time>
      </trkpt>
      <trkpt lat="44.42819" lon="1.35079">
        <ele>234</ele>
        <time>2019-04-14T09:53:17Z</time>
      </trkpt>
      <trkpt lat="44.42818" lon="1.35079">
        <ele>234</ele>
        <time>2019-04-14T09:53:18Z</time>
      </trkpt>
      <trkpt lat="44.42817" lon="1.35078">
        <ele>234</ele>
        <time>2019-04-14T09:53:19Z</time>
      </trkpt>
      <trkpt lat="44.42816" lon="1.35078">
        <ele>234</ele>
        <time>2019-04-14T09:53:20Z</time>
      </trkpt>
      <trkpt lat="44.42814" lon="1.35078">
        <ele>234</ele>
        <time>2019-04-14T09:53:21Z</time>
      </trkpt>
      <trkpt lat="44.42813" lon="1.35077">
        <ele>234</ele>
        <time>2019-04-14T09:53:22Z</time>
      </trkpt>
      <trkpt lat="44.42811" lon="1.35076">
        <ele>234</ele>
        <time>2019-04-14T09:53:23Z</time>
      </trkpt>
      <trkpt lat="44.4281" lon="1.35074">
        <ele>234</ele>
        <time>2019-04-14T09:53:24Z</time>
      </trkpt>
      <trkpt lat="44.42808" lon="1.35074">
        <ele>234</ele>
        <time>2019-04-14T09:53:25Z</time>
      </trkpt>
      <trkpt lat="44.42806" lon="1.35073">
        <ele>234</ele>
        <time>2019-04-14T09:53:26Z</time>
      </trkpt>
      <trkpt lat="44.42805" lon="1.35072">
        <ele>235</ele>
        <time>2019-04-14T09:53:27Z</time>
      </trkpt>
      <trkpt lat="44.42803" lon="1.35071">
        <ele>235</ele>
        <time>2019-04-14T09:53:28Z</time>
      </trkpt>
      <trkpt lat="44.42801" lon="1.35069">
        <ele>235</ele>
        <time>2019-04-14T09:53:29Z</time>
      </trkpt>
      <trkpt lat="44.42799" lon="1.35069">
        <ele>235</ele>
        <time>2019-04-14T09:53:30Z</time>
      </trkpt>
      <trkpt lat="44.42798" lon="1.35069">
        <ele>235</ele>
        <time>2019-04-14T09:53:31Z</time>
      </trkpt>
      <trkpt lat="44.42796" lon="1.35068">
        <ele>235</ele>
        <time>2019-04-14T09:53:32Z</time>
      </trkpt>
      <trkpt lat="44.42794" lon="1.35068">
        <ele>235</ele>
        <time>2019-04-14T09:53:33Z</time>
      </trkpt>
      <trkpt lat="44.42793" lon="1.35067">
        <ele>236</ele>
        <time>2019-04-14T09:53:34Z</time>
      </trkpt>
      <trkpt lat="44.42791" lon="1.35067">
        <ele>236</ele>
        <time>2019-04-14T09:53:35Z</time>
      </trkpt>
      <trkpt lat="44.42789" lon="1.35067">
        <ele>236</ele>
        <time>2019-04-14T09:53:36Z</time>
      </trkpt>
      <trkpt lat="44.42787" lon="1.35067">
        <ele>236</ele>
        <time>2019-04-14T09:53:37Z</time>
      </trkpt>
      <trkpt lat="44.42785" lon="1.35066">
        <ele>236</ele>
        <time>2019-04-14T09:53:38Z</time>
      </trkpt>
      <trkpt lat="44.42783" lon="1.35066">
        <ele>236</ele>
        <time>2019-04-14T09:53:39Z</time>
      </trkpt>
      <trkpt lat="44.42782" lon="1.35065">
        <ele>236</ele>
        <time>2019-04-14T09:53:40Z</time>
      </trkpt>
      <trkpt lat="44.42781" lon="1.35065">
        <ele>236</ele>
        <time>2019-04-14T09:53:41Z</time>
      </trkpt>
      <trkpt lat="44.42779" lon="1.35064">
        <ele>237</ele>
        <time>2019-04-14T09:53:42Z</time>
      </trkpt>
      <trkpt lat="44.42778" lon="1.35064">
        <ele>237</ele>
        <time>2019-04-14T09:53:43Z</time>
      </trkpt>
      <trkpt lat="44.42777" lon="1.35063">
        <ele>237</ele>
        <time>2019-04-14T09:53:44Z</time>
      </trkpt>
      <trkpt lat="44.42776" lon="1.35062">
        <ele>237</ele>
        <time>2019-04-14T09:53:45Z</time>
      </trkpt>
      <trkpt lat="44.42775" lon="1.35061">
        <ele>237</ele>
        <time>2019-04-14T09:53:46Z</time>
      </trkpt>
      <trkpt lat="44.42773" lon="1.35061">
        <ele>237</ele>
        <time>2019-04-14T09:53:47Z</time>
      </trkpt>
      <trkpt lat="44.42772" lon="1.3506">
        <ele>238</ele>
        <time>2019-04-14T09:53:48Z</time>
      </trkpt>
      <trkpt lat="44.4277" lon="1.35059">
        <ele>238</ele>
        <time>2019-04-14T09:53:49Z</time>
      </trkpt>
      <trkpt lat="44.42769" lon="1.35058">
        <ele>238</ele>
        <time>2019-04-14T09:53:50Z</time>
      </trkpt>
      <trkpt lat="44.42768" lon="1.35058">
        <ele>238</ele>
        <time>2019-04-14T09:53:51Z</time>
      </trkpt>
      <trkpt lat="44.42766" lon="1.35057">
        <ele>238</ele>
        <time>2019-04-14T09:53:52Z</time>
      </trkpt>
      <trkpt lat="44.42765" lon="1.35056">
        <ele>238</ele>
        <time>2019-04-14T09:53:53Z</time>
      </trkpt>
      <trkpt lat="44.42764" lon="1.35056">
        <ele>239</ele>
        <time>2019-04-14T09:53:54Z</time>
      </trkpt>
      <trkpt lat="44.42763" lon="1.35055">
        <ele>239</ele>
        <time>2019-04-14T09:53:55Z</time>
      </trkpt>
      <trkpt lat="44.42761" lon="1.35054">
        <ele>239</ele>
        <time>2019-04-14T09:53:56Z</time>
      </trkpt>
      <trkpt lat="44.4276" lon="1.35053">
        <ele>239</ele>
        <time>2019-04-14T09:53:57Z</time>
      </trkpt>
      <trkpt lat="44.42758" lon="1.35052">
        <ele>239</ele>
        <time>2019-04-14T09:53:58Z</time>
      </trkpt>
      <trkpt lat="44.42757" lon="1.35051">
        <ele>239</ele>
        <time>2019-04-14T09:53:59Z</time>
      </trkpt>
      <trkpt lat="44.42756" lon="1.3505">
        <ele>240</ele>
        <time>2019-04-14T09:54:00Z</time>
      </trkpt>
      <trkpt lat="44.42754" lon="1.3505">
        <ele>240</ele>
        <time>2019-04-14T09:54:01Z</time>
      </trkpt>
      <trkpt lat="44.42753" lon="1.35049">
        <ele>240</ele>
        <time>2019-04-14T09:54:02Z</time>
      </trkpt>
      <trkpt lat="44.42752" lon="1.35048">
        <ele>240</ele>
        <time>2019-04-14T09:54:03Z</time>
      </trkpt>
      <trkpt lat="44.4275" lon="1.35048">
        <ele>241</ele>
        <time>2019-04-14T09:54:04Z</time>
      </trkpt>
      <trkpt lat="44.42749" lon="1.35047">
        <ele>241</ele>
        <time>2019-04-14T09:54:05Z</time>
      </trkpt>
      <trkpt lat="44.42748" lon="1.35047">
        <ele>241</ele>
        <time>2019-04-14T09:54:06Z</time>
      </trkpt>
      <trkpt lat="44.42747" lon="1.35046">
        <ele>241</ele>
        <time>2019-04-14T09:54:07Z</time>
      </trkpt>
      <trkpt lat="44.42745" lon="1.35045">
        <ele>241</ele>
        <time>2019-04-14T09:54:08Z</time>
      </trkpt>
      <trkpt lat="44.42744" lon="1.35045">
        <ele>242</ele>
        <time>2019-04-14T09:54:09Z</time>
      </trkpt>
      <trkpt lat="44.42742" lon="1.35044">
        <ele>242</ele>
        <time>2019-04-14T09:54:10Z</time>
      </trkpt>
      <trkpt lat="44.42741" lon="1.35044">
        <ele>242</ele>
        <time>2019-04-14T09:54:11Z</time>
      </trkpt>
      <trkpt lat="44.4274" lon="1.35043">
        <ele>242</ele>
        <time>2019-04-14T09:54:12Z</time>
      </trkpt>
      <trkpt lat="44.42739" lon="1.35043">
        <ele>243</ele>
        <time>2019-04-14T09:54:13Z</time>
      </trkpt>
      <trkpt lat="44.42738" lon="1.35042">
        <ele>243</ele>
        <time>2019-04-14T09:54:14Z</time>
      </trkpt>
      <trkpt lat="44.42736" lon="1.35042">
        <ele>243</ele>
        <time>2019-04-14T09:54:15Z</time>
      </trkpt>
      <trkpt lat="44.42735" lon="1.35042">
        <ele>243</ele>
        <time>2019-04-14T09:54:16Z</time>
      </trkpt>
      <trkpt lat="44.42734" lon="1.35041">
        <ele>243</ele>
        <time>2019-04-14T09:54:17Z</time>
      </trkpt>
      <trkpt lat="44.42732" lon="1.35041">
        <ele>243</ele>
        <time>2019-04-14T09:54:18Z</time>
      </trkpt>
      <trkpt lat="44.42731" lon="1.3504">
        <ele>244</ele>
        <time>2019-04-14T09:54:19Z</time>
      </trkpt>
      <trkpt lat="44.4273" lon="1.3504">
        <ele>244</ele>
        <time>2019-04-14T09:54:20Z</time>
      </trkpt>
      <trkpt lat="44.42729" lon="1.3504">
        <ele>244</ele>
        <time>2019-04-14T09:54:21Z</time>
      </trkpt>
      <trkpt lat="44.42728" lon="1.35039">
        <ele>244</ele>
        <time>2019-04-14T09:54:22Z</time>
      </trkpt>
      <trkpt lat="44.42727" lon="1.35038">
        <ele>244</ele>
        <time>2019-04-14T09:54:23Z</time>
      </trkpt>
      <trkpt lat="44.42727" lon="1.35038">
        <ele>245</ele>
        <time>2019-04-14T09:54:24Z</time>
      </trkpt>
      <trkpt lat="44.42726" lon="1.35038">
        <ele>245</ele>
        <time>2019-04-14T09:54:25Z</time>
      </trkpt>
      <trkpt lat="44.42724" lon="1.35037">
        <ele>245</ele>
        <time>2019-04-14T09:54:26Z</time>
      </trkpt>
      <trkpt lat="44.42723" lon="1.35037">
        <ele>245</ele>
        <time>2019-04-14T09:54:27Z</time>
      </trkpt>
      <trkpt lat="44.42722" lon="1.35037">
        <ele>245</ele>
        <time>2019-04-14T09:54:28Z</time>
      </trkpt>
      <trkpt lat="44.4272" lon="1.35037">
        <ele>245</ele>
        <time>2019-04-14T09:54:29Z</time>
      </trkpt>
      <trkpt lat="44.42719" lon="1.35036">
        <ele>246</ele>
        <time>2019-04-14T09:54:30Z</time>
      </trkpt>
      <trkpt lat="44.42717" lon="1.35036">
        <ele>246</ele>
        <time>2019-04-14T09:54:31Z</time>
      </trkpt>
      <trkpt lat="44.42716" lon="1.35035">
        <ele>246</ele>
        <time>2019-04-14T09:54:32Z</time>
      </trkpt>
      <trkpt lat="44.42714" lon="1.35034">
        <ele>246</ele>
        <time>2019-04-14T09:54:33Z</time>
      </trkpt>
      <trkpt lat="44.42713" lon="1.35034">
        <ele>246</ele>
        <time>2019-04-14T09:54:34Z</time>
      </trkpt>
      <trkpt lat="44.42712" lon="1.35033">
        <ele>246</ele>
        <time>2019-04-14T09:54:35Z</time>
      </trkpt>
      <trkpt lat="44.42711" lon="1.35033">
        <ele>247</ele>
        <time>2019-04-14T09:54:36Z</time>
      </trkpt>
      <trkpt lat="44.42709" lon="1.35033">
        <ele>247</ele>
        <time>2019-04-14T09:54:37Z</time>
      </trkpt>
      <trkpt lat="44.42707" lon="1.35032">
        <ele>247</ele>
        <time>2019-04-14T09:54:38Z</time>
      </trkpt>
      <trkpt lat="44.42706" lon="1.35032">
        <ele>247</ele>
        <time>2019-04-14T09:54:39Z</time>
      </trkpt>
      <trkpt lat="44.42705" lon="1.35032">
        <ele>247</ele>
        <time>2019-04-14T09:54:40Z</time>
      </trkpt>
      <trkpt lat="44.42704" lon="1.35031">
        <ele>248</ele>
        <time>2019-04-14T09:54:41Z</time>
      </trkpt>
      <trkpt lat="44.42702" lon="1.3503">
        <ele>248</ele>
        <time>2019-04-14T09:54:42Z</time>
      </trkpt>
      <trkpt lat="44.427" lon="1.3503">
        <ele>248</ele>
        <time>2019-04-14T09:54:43Z</time>
      </trkpt>
      <trkpt lat="44.42699" lon="1.3503">
        <ele>249</ele>
        <time>2019-04-14T09:54:44Z</time>
      </trkpt>
      <trkpt lat="44.42698" lon="1.35031">
        <ele>249</ele>
        <time>2019-04-14T09:54:45Z</time>
      </trkpt>
      <trkpt lat="44.42697" lon="1.3503">
        <ele>249</ele>
        <time>2019-04-14T09:54:46Z</time>
      </trkpt>
      <trkpt lat="44.42695" lon="1.3503">
        <ele>249</ele>
        <time>2019-04-14T09:54:47Z</time>
      </trkpt>
      <trkpt lat="44.42694" lon="1.3503">
        <ele>249</ele>
        <time>2019-04-14T09:54:48Z</time>
      </trkpt>
      <trkpt lat="44.42692" lon="1.3503">
        <ele>249</ele>
        <time>2019-04-14T09:54:49Z</time>
      </trkpt>
      <trkpt lat="44.42691" lon="1.3503">
        <ele>249</ele>
        <time>2019-04-14T09:54:50Z</time>
      </trkpt>
      <trkpt lat="44.42689" lon="1.3503">
        <ele>250</ele>
        <time>2019-04-14T09:54:51Z</time>
      </trkpt>
      <trkpt lat="44.42688" lon="1.3503">
        <ele>250</ele>
        <time>2019-04-14T09:54:52Z</time>
      </trkpt>
      <trkpt lat="44.42686" lon="1.3503">
        <ele>250</ele>
        <time>2019-04-14T09:54:53Z</time>
      </trkpt>
      <trkpt lat="44.42685" lon="1.3503">
        <ele>250</ele>
        <time>2019-04-14T09:54:54Z</time>
      </trkpt>
      <trkpt lat="44.42683" lon="1.3503">
        <ele>250</ele>
        <time>2019-04-14T09:54:55Z</time>
      </trkpt>
      <trkpt lat="44.42682" lon="1.3503">
        <ele>251</ele>
        <time>2019-04-14T09:54:56Z</time>
      </trkpt>
      <trkpt lat="44.4268" lon="1.3503">
        <ele>251</ele>
        <time>2019-04-14T09:54:57Z</time>
      </trkpt>
      <trkpt lat="44.42679" lon="1.3503">
        <ele>251</ele>
        <time>2019-04-14T09:54:58Z</time>
      </trkpt>
      <trkpt lat="44.42678" lon="1.3503">
        <ele>251</ele>
        <time>2019-04-14T09:54:59Z</time>
      </trkpt>
      <trkpt lat="44.42677" lon="1.35029">
        <ele>251</ele>
        <time>2019-04-14T09:55:00Z</time>
      </trkpt>
      <trkpt lat="44.42675" lon="1.35029">
        <ele>251</ele>
        <time>2019-04-14T09:55:01Z</time>
      </trkpt>
      <trkpt lat="44.42674" lon="1.35029">
        <ele>252</ele>
        <time>2019-04-14T09:55:02Z</time>
      </trkpt>
      <trkpt lat="44.42673" lon="1.35029">
        <ele>252</ele>
        <time>2019-04-14T09:55:03Z</time>
      </trkpt>
      <trkpt lat="44.42671" lon="1.35029">
        <ele>252</ele>
        <time>2019-04-14T09:55:04Z</time>
      </trkpt>
      <trkpt lat="44.4267" lon="1.35029">
        <ele>252</ele>
        <time>2019-04-14T09:55:05Z</time>
      </trkpt>
      <trkpt lat="44.42669" lon="1.35028">
        <ele>252</ele>
        <time>2019-04-14T09:55:06Z</time>
      </trkpt>
      <trkpt lat="44.42667" lon="1.35028">
        <ele>252</ele>
        <time>2019-04-14T09:55:07Z</time>
      </trkpt>
      <trkpt lat="44.42666" lon="1.35028">
        <ele>253</ele>
        <time>2019-04-14T09:55:08Z</time>
      </trkpt>
      <trkpt lat="44.42665" lon="1.35028">
        <ele>253</ele>
        <time>2019-04-14T09:55:09Z</time>
      </trkpt>
      <trkpt lat="44.42664" lon="1.35027">
        <ele>253</ele>
        <time>2019-04-14T09:55:10Z</time>
      </trkpt>
      <trkpt lat="44.42663" lon="1.35028">
        <ele>253</ele>
        <time>2019-04-14T09:55:11Z</time>
      </trkpt>
      <trkpt lat="44.42661" lon="1.35028">
        <ele>253</ele>
        <time>2019-04-14T09:55:12Z</time>
      </trkpt>
      <trkpt lat="44.4266" lon="1.35028">
        <ele>253</ele>
        <time>2019-04-14T09:55:13Z</time>
      </trkpt>
      <trkpt lat="44.42659" lon="1.35028">
        <ele>253</ele>
        <time>2019-04-14T09:55:14Z</time>
      </trkpt>
      <trkpt lat="44.42658" lon="1.35028">
        <ele>254</ele>
        <time>2019-04-14T09:55:15Z</time>
      </trkpt>
      <trkpt lat="44.42657" lon="1.35029">
        <ele>254</ele>
        <time>2019-04-14T09:55:16Z</time>
      </trkpt>
      <trkpt lat="44.42656" lon="1.35028">
        <ele>254</ele>
        <time>2019-04-14T09:55:17Z</time>
      </trkpt>
      <trkpt lat="44.42654" lon="1.35028">
        <ele>254</ele>
        <time>2019-04-14T09:55:18Z</time>
      </trkpt>
      <trkpt lat="44.42653" lon="1.35028">
        <ele>254</ele>
        <time>2019-04-14T09:55:19Z</time>
      </trkpt>
      <trkpt lat="44.42651" lon="1.35028">
        <ele>254</ele>
        <time>2019-04-14T09:55:20Z</time>
      </trkpt>
      <trkpt lat="44.4265" lon="1.35028">
        <ele>255</ele>
        <time>2019-04-14T09:55:21Z</time>
      </trkpt>
      <trkpt lat="44.42648" lon="1.35028">
        <ele>255</ele>
        <time>2019-04-14T09:55:22Z</time>
      </trkpt>
      <trkpt lat="44.42647" lon="1.35028">
        <ele>255</ele>
        <time>2019-04-14T09:55:23Z</time>
      </trkpt>
      <trkpt lat="44.42646" lon="1.35028">
        <ele>255</ele>
        <time>2019-04-14T09:55:24Z</time>
      </trkpt>
      <trkpt lat="44.42645" lon="1.35028">
        <ele>255</ele>
        <time>2019-04-14T09:55:25Z</time>
      </trkpt>
      <trkpt lat="44.42643" lon="1.35028">
        <ele>255</ele>
        <time>2019-04-14T09:55:26Z</time>
      </trkpt>
      <trkpt lat="44.42642" lon="1.35028">
        <ele>255</ele>
        <time>2019-04-14T09:55:27Z</time>
      </trkpt>
      <trkpt lat="44.42641" lon="1.35028">
        <ele>256</ele>
        <time>2019-04-14T09:55:28Z</time>
      </trkpt>
      <trkpt lat="44.42639" lon="1.35028">
        <ele>256</ele>
        <time>2019-04-14T09:55:29Z</time>
      </trkpt>
      <trkpt lat="44.42638" lon="1.35028">
        <ele>256</ele>
        <time>2019-04-14T09:55:30Z</time>
      </trkpt>
      <trkpt lat="44.42636" lon="1.35028">
        <ele>256</ele>
        <time>2019-04-14T09:55:31Z</time>
      </trkpt>
      <trkpt lat="44.42635" lon="1.35028">
        <ele>256</ele>
        <time>2019-04-14T09:55:32Z</time>
      </trkpt>
      <trkpt lat="44.42633" lon="1.35028">
        <ele>257</ele>
        <time>2019-04-14T09:55:33Z</time>
      </trkpt>
      <trkpt lat="44.42632" lon="1.35028">
        <ele>257</ele>
        <time>2019-04-14T09:55:34Z</time>
      </trkpt>
      <trkpt lat="44.42631" lon="1.35028">
        <ele>257</ele>
        <time>2019-04-14T09:55:35Z</time>
      </trkpt>
      <trkpt lat="44.42629" lon="1.35027">
        <ele>257</ele>
        <time>2019-04-14T09:55:36Z</time>
      </trkpt>
      <trkpt lat="44.42628" lon="1.35027">
        <ele>257</ele>
        <time>2019-04-14T09:55:37Z</time>
      </trkpt>
      <trkpt lat="44.42626" lon="1.35027">
        <ele>257</ele>
        <time>2019-04-14T09:55:38Z</time>
      </trkpt>
      <trkpt lat="44.42625" lon="1.35027">
        <ele>258</ele>
        <time>2019-04-14T09:55:39Z</time>
      </trkpt>
      <trkpt lat="44.42623" lon="1.35027">
        <ele>258</ele>
        <time>2019-04-14T09:55:40Z</time>
      </trkpt>
      <trkpt lat="44.42621" lon="1.35027">
        <ele>258</ele>
        <time>2019-04-14T09:55:41Z</time>
      </trkpt>
      <trkpt lat="44.4262" lon="1.35027">
        <ele>258</ele>
        <time>2019-04-14T09:55:42Z</time>
      </trkpt>
      <trkpt lat="44.42618" lon="1.35027">
        <ele>258</ele>
        <time>2019-04-14T09:55:43Z</time>
      </trkpt>
      <trkpt lat="44.42617" lon="1.35027">
        <ele>259</ele>
        <time>2019-04-14T09:55:44Z</time>
      </trkpt>
      <trkpt lat="44.42616" lon="1.35027">
        <ele>259</ele>
        <time>2019-04-14T09:55:45Z</time>
      </trkpt>
      <trkpt lat="44.42614" lon="1.35027">
        <ele>259</ele>
        <time>2019-04-14T09:55:46Z</time>
      </trkpt>
      <trkpt lat="44.42613" lon="1.35026">
        <ele>259</ele>
        <time>2019-04-14T09:55:47Z</time>
      </trkpt>
      <trkpt lat="44.42612" lon="1.35026">
        <ele>259</ele>
        <time>2019-04-14T09:55:48Z</time>
      </trkpt>
      <trkpt lat="44.4261" lon="1.35026">
        <ele>259</ele>
        <time>2019-04-14T09:55:49Z</time>
      </trkpt>
      <trkpt lat="44.42608" lon="1.35027">
        <ele>259</ele>
        <time>2019-04-14T09:55:50Z</time>
      </trkpt>
      <trkpt lat="44.42607" lon="1.35027">
        <ele>260</ele>
        <time>2019-04-14T09:55:51Z</time>
      </trkpt>
      <trkpt lat="44.42605" lon="1.35028">
        <ele>260</ele>
        <time>2019-04-14T09:55:52Z</time>
      </trkpt>
      <trkpt lat="44.42603" lon="1.35028">
        <ele>260</ele>
        <time>2019-04-14T09:55:53Z</time>
      </trkpt>
      <trkpt lat="44.42602" lon="1.35028">
        <ele>260</ele>
        <time>2019-04-14T09:55:54Z</time>
      </trkpt>
      <trkpt lat="44.426" lon="1.35027">
        <ele>260</ele>
        <time>2019-04-14T09:55:55Z</time>
      </trkpt>
      <trkpt lat="44.42599" lon="1.35027">
        <ele>260</ele>
        <time>2019-04-14T09:55:56Z</time>
      </trkpt>
      <trkpt lat="44.42598" lon="1.35027">
        <ele>260</ele>
        <time>2019-04-14T09:55:57Z</time>
      </trkpt>
      <trkpt lat="44.42596" lon="1.35027">
        <ele>261</ele>
        <time>2019-04-14T09:55:58Z</time>
      </trkpt>
      <trkpt lat="44.42595" lon="1.35028">
        <ele>261</ele>
        <time>2019-04-14T09:55:59Z</time>
      </trkpt>
      <trkpt lat="44.42594" lon="1.35028">
        <ele>261</ele>
        <time>2019-04-14T09:56:00Z</time>
      </trkpt>
      <trkpt lat="44.42592" lon="1.35028">
        <ele>261</ele>
        <time>2019-04-14T09:56:01Z</time>
      </trkpt>
      <trkpt lat="44.42592" lon="1.35028">
        <ele>261</ele>
        <time>2019-04-14T09:56:02Z</time>
      </trkpt>
      <trkpt lat="44.42591" lon="1.35029">
        <ele>261</ele>
        <time>2019-04-14T09:56:03Z</time>
      </trkpt>
      <trkpt lat="44.42589" lon="1.35029">
        <ele>261</ele>
        <time>2019-04-14T09:56:04Z</time>
      </trkpt>
      <trkpt lat="44.42588" lon="1.3503">
        <ele>261</ele>
        <time>2019-04-14T09:56:05Z</time>
      </trkpt>
      <trkpt lat="44.42587" lon="1.35031">
        <ele>262</ele>
        <time>2019-04-14T09:56:06Z</time>
      </trkpt>
      <trkpt lat="44.42586" lon="1.35031">
        <ele>262</ele>
        <time>2019-04-14T09:56:07Z</time>
      </trkpt>
      <trkpt lat="44.42585" lon="1.35031">
        <ele>262</ele>
        <time>2019-04-14T09:56:08Z</time>
      </trkpt>
      <trkpt lat="44.42584" lon="1.35031">
        <ele>262</ele>
        <time>2019-04-14T09:56:09Z</time>
      </trkpt>
      <trkpt lat="44.42582" lon="1.35031">
        <ele>262</ele>
        <time>2019-04-14T09:56:10Z</time>
      </trkpt>
      <trkpt lat="44.42581" lon="1.35032">
        <ele>262</ele>
        <time>2019-04-14T09:56:11Z</time>
      </trkpt>
      <trkpt lat="44.4258" lon="1.35032">
        <ele>262</ele>
        <time>2019-04-14T09:56:12Z</time>
      </trkpt>
      <trkpt lat="44.42578" lon="1.35031">
        <ele>263</ele>
        <time>2019-04-14T09:56:13Z</time>
      </trkpt>
      <trkpt lat="44.42577" lon="1.3503">
        <ele>263</ele>
        <time>2019-04-14T09:56:14Z</time>
      </trkpt>
      <trkpt lat="44.42575" lon="1.3503">
        <ele>263</ele>
        <time>2019-04-14T09:56:15Z</time>
      </trkpt>
      <trkpt lat="44.42573" lon="1.35029">
        <ele>263</ele>
        <time>2019-04-14T09:56:16Z</time>
      </trkpt>
      <trkpt lat="44.42572" lon="1.35027">
        <ele>263</ele>
        <time>2019-04-14T09:56:17Z</time>
      </trkpt>
      <trkpt lat="44.42571" lon="1.35026">
        <ele>264</ele>
        <time>2019-04-14T09:56:18Z</time>
      </trkpt>
      <trkpt lat="44.42571" lon="1.35024">
        <ele>264</ele>
        <time>2019-04-14T09:56:19Z</time>
      </trkpt>
      <trkpt lat="44.4257" lon="1.35022">
        <ele>264</ele>
        <time>2019-04-14T09:56:20Z</time>
      </trkpt>
      <trkpt lat="44.4257" lon="1.3502">
        <ele>264</ele>
        <time>2019-04-14T09:56:21Z</time>
      </trkpt>
      <trkpt lat="44.4257" lon="1.35018">
        <ele>264</ele>
        <time>2019-04-14T09:56:22Z</time>
      </trkpt>
      <trkpt lat="44.42569" lon="1.35016">
        <ele>264</ele>
        <time>2019-04-14T09:56:23Z</time>
      </trkpt>
      <trkpt lat="44.42569" lon="1.35013">
        <ele>264</ele>
        <time>2019-04-14T09:56:24Z</time>
      </trkpt>
      <trkpt lat="44.42568" lon="1.35011">
        <ele>264</ele>
        <time>2019-04-14T09:56:25Z</time>
      </trkpt>
      <trkpt lat="44.42568" lon="1.35009">
        <ele>265</ele>
        <time>2019-04-14T09:56:26Z</time>
      </trkpt>
      <trkpt lat="44.42567" lon="1.35006">
        <ele>265</ele>
        <time>2019-04-14T09:56:27Z</time>
      </trkpt>
      <trkpt lat="44.42567" lon="1.35004">
        <ele>265</ele>
        <time>2019-04-14T09:56:28Z</time>
      </trkpt>
      <trkpt lat="44.42567" lon="1.35001">
        <ele>265</ele>
        <time>2019-04-14T09:56:29Z</time>
      </trkpt>
      <trkpt lat="44.42567" lon="1.34999">
        <ele>265</ele>
        <time>2019-04-14T09:56:30Z</time>
      </trkpt>
      <trkpt lat="44.42566" lon="1.34997">
        <ele>265</ele>
        <time>2019-04-14T09:56:31Z</time>
      </trkpt>
      <trkpt lat="44.42566" lon="1.34995">
        <ele>265</ele>
        <time>2019-04-14T09:56:32Z</time>
      </trkpt>
      <trkpt lat="44.42565" lon="1.34992">
        <ele>265</ele>
        <time>2019-04-14T09:56:33Z</time>
      </trkpt>
      <trkpt lat="44.42565" lon="1.3499">
        <ele>265</ele>
        <time>2019-04-14T09:56:34Z</time>
      </trkpt>
      <trkpt lat="44.42564" lon="1.34988">
        <ele>265</ele>
        <time>2019-04-14T09:56:35Z</time>
      </trkpt>
      <trkpt lat="44.42565" lon="1.34985">
        <ele>265</ele>
        <time>2019-04-14T09:56:36Z</time>
      </trkpt>
      <trkpt lat="44.42565" lon="1.34983">
        <ele>265</ele>
        <time>2019-04-14T09:56:37Z</time>
      </trkpt>
      <trkpt lat="44.42564" lon="1.3498">
        <ele>265</ele>
        <time>2019-04-14T09:56:38Z</time>
      </trkpt>
      <trkpt lat="44.42563" lon="1.34978">
        <ele>266</ele>
        <time>2019-04-14T09:56:39Z</time>
      </trkpt>
      <trkpt lat="44.42563" lon="1.34976">
        <ele>266</ele>
        <time>2019-04-14T09:56:40Z</time>
      </trkpt>
      <trkpt lat="44.42562" lon="1.34974">
        <ele>266</ele>
        <time>2019-04-14T09:56:41Z</time>
      </trkpt>
      <trkpt lat="44.42561" lon="1.34971">
        <ele>266</ele>
        <time>2019-04-14T09:56:42Z</time>
      </trkpt>
      <trkpt lat="44.4256" lon="1.34969">
        <ele>266</ele>
        <time>2019-04-14T09:56:43Z</time>
      </trkpt>
      <trkpt lat="44.4256" lon="1.34966">
        <ele>266</ele>
        <time>2019-04-14T09:56:44Z</time>
      </trkpt>
      <trkpt lat="44.4256" lon="1.34963">
        <ele>266</ele>
        <time>2019-04-14T09:56:45Z</time>
      </trkpt>
      <trkpt lat="44.4256" lon="1.3496">
        <ele>266</ele>
        <time>2019-04-14T09:56:46Z</time>
      </trkpt>
      <trkpt lat="44.42559" lon="1.34958">
        <ele>266</ele>
        <time>2019-04-14T09:56:47Z</time>
      </trkpt>
      <trkpt lat="44.42558" lon="1.34955">
        <ele>266</ele>
        <time>2019-04-14T09:56:48Z</time>
      </trkpt>
      <trkpt lat="44.42558" lon="1.34952">
        <ele>266</ele>
        <time>2019-04-14T09:56:49Z</time>
      </trkpt>
      <trkpt lat="44.42557" lon="1.34949">
        <ele>265</ele>
        <time>2019-04-14T09:56:50Z</time>
      </trkpt>
      <trkpt lat="44.42556" lon="1.34946">
        <ele>265</ele>
        <time>2019-04-14T09:56:51Z</time>
      </trkpt>
      <trkpt lat="44.42555" lon="1.34943">
        <ele>265</ele>
        <time>2019-04-14T09:56:52Z</time>
      </trkpt>
      <trkpt lat="44.42555" lon="1.3494">
        <ele>265</ele>
        <time>2019-04-14T09:56:53Z</time>
      </trkpt>
      <trkpt lat="44.42554" lon="1.34937">
        <ele>265</ele>
        <time>2019-04-14T09:56:54Z</time>
      </trkpt>
      <trkpt lat="44.42553" lon="1.34933">
        <ele>265</ele>
        <time>2019-04-14T09:56:55Z</time>
      </trkpt>
      <trkpt lat="44.42552" lon="1.34929">
        <ele>265</ele>
        <time>2019-04-14T09:56:56Z</time>
      </trkpt>
      <trkpt lat="44.42551" lon="1.34926">
        <ele>265</ele>
        <time>2019-04-14T09:56:57Z</time>
      </trkpt>
      <trkpt lat="44.4255" lon="1.34922">
        <ele>265</ele>
        <time>2019-04-14T09:56:58Z</time>
      </trkpt>
      <trkpt lat="44.42549" lon="1.34918">
        <ele>265</ele>
        <time>2019-04-14T09:56:59Z</time>
      </trkpt>
      <trkpt lat="44.42547" lon="1.34913">
        <ele>265</ele>
        <time>2019-04-14T09:57:00Z</time>
      </trkpt>
      <trkpt lat="44.42546" lon="1.34909">
        <ele>264</ele>
        <time>2019-04-14T09:57:01Z</time>
      </trkpt>
      <trkpt lat="44.42545" lon="1.34904">
        <ele>264</ele>
        <time>2019-04-14T09:57:02Z</time>
      </trkpt>
      <trkpt lat="44.42544" lon="1.349">
        <ele>264</ele>
        <time>2019-04-14T09:57:03Z</time>
      </trkpt>
      <trkpt lat="44.42542" lon="1.34896">
        <ele>264</ele>
        <time>2019-04-14T09:57:04Z</time>
      </trkpt>
      <trkpt lat="44.4254" lon="1.34893">
        <ele>264</ele>
        <time>2019-04-14T09:57:05Z</time>
      </trkpt>
      <trkpt lat="44.42539" lon="1.34891">
        <ele>264</ele>
        <time>2019-04-14T09:57:06Z</time>
      </trkpt>
      <trkpt lat="44.42537" lon="1.3489">
        <ele>264</ele>
        <time>2019-04-14T09:57:07Z</time>
      </trkpt>
      <trkpt lat="44.42535" lon="1.34888">
        <ele>264</ele>
        <time>2019-04-14T09:57:08Z</time>
      </trkpt>
      <trkpt lat="44.42533" lon="1.34887">
        <ele>265</ele>
        <time>2019-04-14T09:57:09Z</time>
      </trkpt>
      <trkpt lat="44.42531" lon="1.34887">
        <ele>265</ele>
        <time>2019-04-14T09:57:10Z</time>
      </trkpt>
      <trkpt lat="44.4253" lon="1.34887">
        <ele>265</ele>
        <time>2019-04-14T09:57:11Z</time>
      </trkpt>
      <trkpt lat="44.42528" lon="1.34888">
        <ele>265</ele>
        <time>2019-04-14T09:57:12Z</time>
      </trkpt>
      <trkpt lat="44.42526" lon="1.34889">
        <ele>265</ele>
        <time>2019-04-14T09:57:13Z</time>
      </trkpt>
      <trkpt lat="44.42524" lon="1.3489">
        <ele>266</ele>
        <time>2019-04-14T09:57:14Z</time>
      </trkpt>
      <trkpt lat="44.42522" lon="1.3489">
        <ele>266</ele>
        <time>2019-04-14T09:57:15Z</time>
      </trkpt>
      <trkpt lat="44.4252" lon="1.34891">
        <ele>266</ele>
        <time>2019-04-14T09:57:16Z</time>
      </trkpt>
      <trkpt lat="44.42518" lon="1.34891">
        <ele>266</ele>
        <time>2019-04-14T09:57:17Z</time>
      </trkpt>
      <trkpt lat="44.42516" lon="1.34892">
        <ele>267</ele>
        <time>2019-04-14T09:57:18Z</time>
      </trkpt>
      <trkpt lat="44.42514" lon="1.34892">
        <ele>267</ele>
        <time>2019-04-14T09:57:19Z</time>
      </trkpt>
      <trkpt lat="44.42513" lon="1.34892">
        <ele>267</ele>
        <time>2019-04-14T09:57:20Z</time>
      </trkpt>
      <trkpt lat="44.42511" lon="1.34893">
        <ele>268</ele>
        <time>2019-04-14T09:57:21Z</time>
      </trkpt>
      <trkpt lat="44.4251" lon="1.34893">
        <ele>268</ele>
        <time>2019-04-14T09:57:22Z</time>
      </trkpt>
      <trkpt lat="44.42508" lon="1.34894">
        <ele>268</ele>
        <time>2019-04-14T09:57:23Z</time>
      </trkpt>
      <trkpt lat="44.42506" lon="1.34894">
        <ele>268</ele>
        <time>2019-04-14T09:57:24Z</time>
      </trkpt>
      <trkpt lat="44.42504" lon="1.34895">
        <ele>268</ele>
        <time>2019-04-14T09:57:25Z</time>
      </trkpt>
      <trkpt lat="44.42502" lon="1.34895">
        <ele>269</ele>
        <time>2019-04-14T09:57:26Z</time>
      </trkpt>
      <trkpt lat="44.425" lon="1.34896">
        <ele>269</ele>
        <time>2019-04-14T09:57:27Z</time>
      </trkpt>
      <trkpt lat="44.42498" lon="1.34896">
        <ele>269</ele>
        <time>2019-04-14T09:57:28Z</time>
      </trkpt>
      <trkpt lat="44.42497" lon="1.34895">
        <ele>269</ele>
        <time>2019-04-14T09:57:29Z</time>
      </trkpt>
      <trkpt lat="44.42495" lon="1.34894">
        <ele>269</ele>
        <time>2019-04-14T09:57:30Z</time>
      </trkpt>
      <trkpt lat="44.42494" lon="1.34893">
        <ele>269</ele>
        <time>2019-04-14T09:57:31Z</time>
      </trkpt>
      <trkpt lat="44.42493" lon="1.34891">
        <ele>270</ele>
        <time>2019-04-14T09:57:32Z</time>
      </trkpt>
      <trkpt lat="44.42493" lon="1.34889">
        <ele>270</ele>
        <time>2019-04-14T09:57:33Z</time>
      </trkpt>
      <trkpt lat="44.42492" lon="1.34887">
        <ele>270</ele>
        <time>2019-04-14T09:57:34Z</time>
      </trkpt>
      <trkpt lat="44.42491" lon="1.34885">
        <ele>270</ele>
        <time>2019-04-14T09:57:35Z</time>
      </trkpt>
      <trkpt lat="44.42491" lon="1.34882">
        <ele>270</ele>
        <time>2019-04-14T09:57:36Z</time>
      </trkpt>
      <trkpt lat="44.4249" lon="1.3488">
        <ele>270</ele>
        <time>2019-04-14T09:57:37Z</time>
      </trkpt>
      <trkpt lat="44.42489" lon="1.34878">
        <ele>270</ele>
        <time>2019-04-14T09:57:38Z</time>
      </trkpt>
      <trkpt lat="44.42489" lon="1.34876">
        <ele>270</ele>
        <time>2019-04-14T09:57:39Z</time>
      </trkpt>
      <trkpt lat="44.42488" lon="1.34873">
        <ele>271</ele>
        <time>2019-04-14T09:57:40Z</time>
      </trkpt>
      <trkpt lat="44.42487" lon="1.34871">
        <ele>271</ele>
        <time>2019-04-14T09:57:41Z</time>
      </trkpt>
      <trkpt lat="44.42486" lon="1.34869">
        <ele>271</ele>
        <time>2019-04-14T09:57:42Z</time>
      </trkpt>
      <trkpt lat="44.42486" lon="1.34867">
        <ele>271</ele>
        <time>2019-04-14T09:57:43Z</time>
      </trkpt>
      <trkpt lat="44.42485" lon="1.34865">
        <ele>271</ele>
        <time>2019-04-14T09:57:44Z</time>
      </trkpt>
      <trkpt lat="44.42484" lon="1.34863">
        <ele>272</ele>
        <time>2019-04-14T09:57:45Z</time>
      </trkpt>
      <trkpt lat="44.42484" lon="1.34861">
        <ele>272</ele>
        <time>2019-04-14T09:57:46Z</time>
      </trkpt>
      <trkpt lat="44.42483" lon="1.34859">
        <ele>272</ele>
        <time>2019-04-14T09:57:47Z</time>
      </trkpt>
      <trkpt lat="44.42482" lon="1.34856">
        <ele>272</ele>
        <time>2019-04-14T09:57:48Z</time>
      </trkpt>
      <trkpt lat="44.42481" lon="1.34854">
        <ele>272</ele>
        <time>2019-04-14T09:57:49Z</time>
      </trkpt>
      <trkpt lat="44.4248" lon="1.34852">
        <ele>273</ele>
        <time>2019-04-14T09:57:50Z</time>
      </trkpt>
      <trkpt lat="44.42479" lon="1.3485">
        <ele>273</ele>
        <time>2019-04-14T09:57:51Z</time>
      </trkpt>
      <trkpt lat="44.42479" lon="1.34848">
        <ele>273</ele>
        <time>2019-04-14T09:57:52Z</time>
      </trkpt>
      <trkpt lat="44.42478" lon="1.34846">
        <ele>273</ele>
        <time>2019-04-14T09:57:53Z</time>
      </trkpt>
      <trkpt lat="44.42477" lon="1.34844">
        <ele>274</ele>
        <time>2019-04-14T09:57:54Z</time>
      </trkpt>
      <trkpt lat="44.42476" lon="1.34842">
        <ele>274</ele>
        <time>2019-04-14T09:57:55Z</time>
      </trkpt>
      <trkpt lat="44.42476" lon="1.3484">
        <ele>274</ele>
        <time>2019-04-14T09:57:56Z</time>
      </trkpt>
      <trkpt lat="44.42476" lon="1.34838">
        <ele>274</ele>
        <time>2019-04-14T09:57:57Z</time>
      </trkpt>
      <trkpt lat="44.42475" lon="1.34836">
        <ele>275</ele>
        <time>2019-04-14T09:57:58Z</time>
      </trkpt>
      <trkpt lat="44.42474" lon="1.34835">
        <ele>275</ele>
        <time>2019-04-14T09:57:59Z</time>
      </trkpt>
      <trkpt lat="44.42473" lon="1.34833">
        <ele>275</ele>
        <time>2019-04-14T09:58:00Z</time>
      </trkpt>
      <trkpt lat="44.42472" lon="1.34832">
        <ele>275</ele>
        <time>2019-04-14T09:58:01Z</time>
      </trkpt>
      <trkpt lat="44.42471" lon="1.3483">
        <ele>275</ele>
        <time>2019-04-14T09:58:02Z</time>
      </trkpt>
      <trkpt lat="44.4247" lon="1.34829">
        <ele>275</ele>
        <time>2019-04-14T09:58:03Z</time>
      </trkpt>
      <trkpt lat="44.42469" lon="1.34829">
        <ele>276</ele>
        <time>2019-04-14T09:58:04Z</time>
      </trkpt>
      <trkpt lat="44.42467" lon="1.34828">
        <ele>276</ele>
        <time>2019-04-14T09:58:05Z</time>
      </trkpt>
      <trkpt lat="44.42466" lon="1.34828">
        <ele>276</ele>
        <time>2019-04-14T09:58:06Z</time>
      </trkpt>
      <trkpt lat="44.42465" lon="1.34828">
        <ele>276</ele>
        <time>2019-04-14T09:58:07Z</time>
      </trkpt>
      <trkpt lat="44.42464" lon="1.34828">
        <ele>276</ele>
        <time>2019-04-14T09:58:08Z</time>
      </trkpt>
      <trkpt lat="44.42462" lon="1.34828">
        <ele>276</ele>
        <time>2019-04-14T09:58:09Z</time>
      </trkpt>
      <trkpt lat="44.42461" lon="1.34829">
        <ele>276</ele>
        <time>2019-04-14T09:58:10Z</time>
      </trkpt>
      <trkpt lat="44.42461" lon="1.3483">
        <ele>276</ele>
        <time>2019-04-14T09:58:11Z</time>
      </trkpt>
      <trkpt lat="44.4246" lon="1.34832">
        <ele>276</ele>
        <time>2019-04-14T09:58:12Z</time>
      </trkpt>
      <trkpt lat="44.42459" lon="1.34833">
        <ele>276</ele>
        <time>2019-04-14T09:58:13Z</time>
      </trkpt>
      <trkpt lat="44.42457" lon="1.34834">
        <ele>276</ele>
        <time>2019-04-14T09:58:14Z</time>
      </trkpt>
      <trkpt lat="44.42456" lon="1.34835">
        <ele>276</ele>
        <time>2019-04-14T09:58:15Z</time>
      </trkpt>
      <trkpt lat="44.42454" lon="1.34837">
        <ele>276</ele>
        <time>2019-04-14T09:58:16Z</time>
      </trkpt>
      <trkpt lat="44.42453" lon="1.34838">
        <ele>276</ele>
        <time>2019-04-14T09:58:17Z</time>
      </trkpt>
      <trkpt lat="44.42452" lon="1.3484">
        <ele>276</ele>
        <time>2019-04-14T09:58:18Z</time>
      </trkpt>
      <trkpt lat="44.42452" lon="1.34842">
        <ele>276</ele>
        <time>2019-04-14T09:58:19Z</time>
      </trkpt>
      <trkpt lat="44.42451" lon="1.34844">
        <ele>276</ele>
        <time>2019-04-14T09:58:20Z</time>
      </trkpt>
      <trkpt lat="44.4245" lon="1.34845">
        <ele>276</ele>
        <time>2019-04-14T09:58:21Z</time>
      </trkpt>
      <trkpt lat="44.42448" lon="1.34847">
        <ele>276</ele>
        <time>2019-04-14T09:58:22Z</time>
      </trkpt>
      <trkpt lat="44.42447" lon="1.34849">
        <ele>276</ele>
        <time>2019-04-14T09:58:23Z</time>
      </trkpt>
      <trkpt lat="44.42446" lon="1.3485">
        <ele>276</ele>
        <time>2019-04-14T09:58:24Z</time>
      </trkpt>
      <trkpt lat="44.42445" lon="1.34853">
        <ele>276</ele>
        <time>2019-04-14T09:58:25Z</time>
      </trkpt>
      <trkpt lat="44.42444" lon="1.34855">
        <ele>276</ele>
        <time>2019-04-14T09:58:26Z</time>
      </trkpt>
      <trkpt lat="44.42443" lon="1.34857">
        <ele>276</ele>
        <time>2019-04-14T09:58:27Z</time>
      </trkpt>
      <trkpt lat="44.42441" lon="1.34859">
        <ele>276</ele>
        <time>2019-04-14T09:58:28Z</time>
      </trkpt>
      <trkpt lat="44.42441" lon="1.34862">
        <ele>276</ele>
        <time>2019-04-14T09:58:29Z</time>
      </trkpt>
      <trkpt lat="44.42439" lon="1.34864">
        <ele>277</ele>
        <time>2019-04-14T09:58:30Z</time>
      </trkpt>
      <trkpt lat="44.42438" lon="1.34866">
        <ele>276</ele>
        <time>2019-04-14T09:58:31Z</time>
      </trkpt>
      <trkpt lat="44.42437" lon="1.34869">
        <ele>277</ele>
        <time>2019-04-14T09:58:32Z</time>
      </trkpt>
      <trkpt lat="44.42436" lon="1.34871">
        <ele>276</ele>
        <time>2019-04-14T09:58:33Z</time>
      </trkpt>
      <trkpt lat="44.42435" lon="1.34873">
        <ele>277</ele>
        <time>2019-04-14T09:58:34Z</time>
      </trkpt>
      <trkpt lat="44.42433" lon="1.34875">
        <ele>277</ele>
        <time>2019-04-14T09:58:35Z</time>
      </trkpt>
      <trkpt lat="44.42432" lon="1.34877">
        <ele>277</ele>
        <time>2019-04-14T09:58:36Z</time>
      </trkpt>
      <trkpt lat="44.4243" lon="1.3488">
        <ele>277</ele>
        <time>2019-04-14T09:58:37Z</time>
      </trkpt>
      <trkpt lat="44.42429" lon="1.34882">
        <ele>277</ele>
        <time>2019-04-14T09:58:38Z</time>
      </trkpt>
      <trkpt lat="44.42427" lon="1.34885">
        <ele>277</ele>
        <time>2019-04-14T09:58:39Z</time>
      </trkpt>
      <trkpt lat="44.42426" lon="1.34888">
        <ele>277</ele>
        <time>2019-04-14T09:58:40Z</time>
      </trkpt>
      <trkpt lat="44.42424" lon="1.34891">
        <ele>277</ele>
        <time>2019-04-14T09:58:41Z</time>
      </trkpt>
      <trkpt lat="44.42423" lon="1.34894">
        <ele>277</ele>
        <time>2019-04-14T09:58:42Z</time>
      </trkpt>
      <trkpt lat="44.42422" lon="1.34897">
        <ele>277</ele>
        <time>2019-04-14T09:58:43Z</time>
      </trkpt>
      <trkpt lat="44.4242" lon="1.349">
        <ele>277</ele>
        <time>2019-04-14T09:58:44Z</time>
      </trkpt>
      <trkpt lat="44.42418" lon="1.34903">
        <ele>276</ele>
        <time>2019-04-14T09:58:45Z</time>
      </trkpt>
      <trkpt lat="44.42416" lon="1.34906">
        <ele>276</ele>
        <time>2019-04-14T09:58:46Z</time>
      </trkpt>
      <trkpt lat="44.42414" lon="1.34908">
        <ele>276</ele>
        <time>2019-04-14T09:58:47Z</time>
      </trkpt>
      <trkpt lat="44.42412" lon="1.34909">
        <ele>276</ele>
        <time>2019-04-14T09:58:48Z</time>
      </trkpt>
      <trkpt lat="44.4241" lon="1.34909">
        <ele>276</ele>
        <time>2019-04-14T09:58:49Z</time>
      </trkpt>
      <trkpt lat="44.42408" lon="1.34908">
        <ele>276</ele>
        <time>2019-04-14T09:58:50Z</time>
      </trkpt>
      <trkpt lat="44.42406" lon="1.34907">
        <ele>277</ele>
        <time>2019-04-14T09:58:51Z</time>
      </trkpt>
      <trkpt lat="44.42405" lon="1.34905">
        <ele>276</ele>
        <time>2019-04-14T09:58:52Z</time>
      </trkpt>
      <trkpt lat="44.42403" lon="1.34903">
        <ele>277</ele>
        <time>2019-04-14T09:58:53Z</time>
      </trkpt>
      <trkpt lat="44.42402" lon="1.34901">
        <ele>277</ele>
        <time>2019-04-14T09:58:54Z</time>
      </trkpt>
      <trkpt lat="44.42401" lon="1.34899">
        <ele>277</ele>
        <time>2019-04-14T09:58:55Z</time>
      </trkpt>
      <trkpt lat="44.424" lon="1.34896">
        <ele>276</ele>
        <time>2019-04-14T09:58:56Z</time>
      </trkpt>
      <trkpt lat="44.42398" lon="1.34893">
        <ele>276</ele>
        <time>2019-04-14T09:58:57Z</time>
      </trkpt>
      <trkpt lat="44.42397" lon="1.34888">
        <ele>276</ele>
        <time>2019-04-14T09:58:58Z</time>
      </trkpt>
      <trkpt lat="44.42397" lon="1.34884">
        <ele>276</ele>
        <time>2019-04-14T09:58:59Z</time>
      </trkpt>
      <trkpt lat="44.42396" lon="1.34879">
        <ele>276</ele>
        <time>2019-04-14T09:59:00Z</time>
      </trkpt>
      <trkpt lat="44.42395" lon="1.34878">
        <ele>276</ele>
        <time>2019-04-14T09:59:01Z</time>
      </trkpt>
      <trkpt lat="44.42393" lon="1.34875">
        <ele>275</ele>
        <time>2019-04-14T09:59:02Z</time>
      </trkpt>
      <trkpt lat="44.42389" lon="1.34872">
        <ele>275</ele>
        <time>2019-04-14T09:59:03Z</time>
      </trkpt>
      <trkpt lat="44.42387" lon="1.34868">
        <ele>275</ele>
        <time>2019-04-14T09:59:04Z</time>
      </trkpt>
      <trkpt lat="44.42385" lon="1.34864">
        <ele>274</ele>
        <time>2019-04-14T09:59:05Z</time>
      </trkpt>
      <trkpt lat="44.42385" lon="1.3486">
        <ele>274</ele>
        <time>2019-04-14T09:59:06Z</time>
      </trkpt>
      <trkpt lat="44.42386" lon="1.34856">
        <ele>274</ele>
        <time>2019-04-14T09:59:07Z</time>
      </trkpt>
      <trkpt lat="44.42388" lon="1.34853">
        <ele>273</ele>
        <time>2019-04-14T09:59:08Z</time>
      </trkpt>
      <trkpt lat="44.4239" lon="1.3485">
        <ele>273</ele>
        <time>2019-04-14T09:59:09Z</time>
      </trkpt>
      <trkpt lat="44.42392" lon="1.34848">
        <ele>273</ele>
        <time>2019-04-14T09:59:10Z</time>
      </trkpt>
      <trkpt lat="44.42393" lon="1.34845">
        <ele>273</ele>
        <time>2019-04-14T09:59:11Z</time>
      </trkpt>
      <trkpt lat="44.42394" lon="1.34843">
        <ele>273</ele>
        <time>2019-04-14T09:59:12Z</time>
      </trkpt>
      <trkpt lat="44.42395" lon="1.34843">
        <ele>273</ele>
        <time>2019-04-14T09:59:13Z</time>
      </trkpt>
      <trkpt lat="44.42396" lon="1.34842">
        <ele>274</ele>
        <time>2019-04-14T09:59:14Z</time>
      </trkpt>
      <trkpt lat="44.42398" lon="1.3484">
        <ele>274</ele>
        <time>2019-04-14T09:59:15Z</time>
      </trkpt>
      <trkpt lat="44.42401" lon="1.34838">
        <ele>274</ele>
        <time>2019-04-14T09:59:16Z</time>
      </trkpt>
      <trkpt lat="44.42402" lon="1.34836">
        <ele>274</ele>
        <time>2019-04-14T09:59:17Z</time>
      </trkpt>
      <trkpt lat="44.42404" lon="1.34834">
        <ele>274</ele>
        <time>2019-04-14T09:59:18Z</time>
      </trkpt>
      <trkpt lat="44.42406" lon="1.34831">
        <ele>274</ele>
        <time>2019-04-14T09:59:19Z</time>
      </trkpt>
      <trkpt lat="44.42408" lon="1.3483">
        <ele>274</ele>
        <time>2019-04-14T09:59:20Z</time>
      </trkpt>
      <trkpt lat="44.4241" lon="1.34828">
        <ele>274</ele>
        <time>2019-04-14T09:59:21Z</time>
      </trkpt>
      <trkpt lat="44.42411" lon="1.34826">
        <ele>274</ele>
        <time>2019-04-14T09:59:22Z</time>
      </trkpt>
      <trkpt lat="44.42411" lon="1.34824">
        <ele>274</ele>
        <time>2019-04-14T09:59:23Z</time>
      </trkpt>
      <trkpt lat="44.4241" lon="1.34822">
        <ele>274</ele>
        <time>2019-04-14T09:59:24Z</time>
      </trkpt>
      <trkpt lat="44.42409" lon="1.34821">
        <ele>274</ele>
        <time>2019-04-14T09:59:25Z</time>
      </trkpt>
      <trkpt lat="44.42407" lon="1.34819">
        <ele>273</ele>
        <time>2019-04-14T09:59:26Z</time>
      </trkpt>
      <trkpt lat="44.42407" lon="1.34816">
        <ele>273</ele>
        <time>2019-04-14T09:59:27Z</time>
      </trkpt>
      <trkpt lat="44.42407" lon="1.34814">
        <ele>273</ele>
        <time>2019-04-14T09:59:28Z</time>
      </trkpt>
      <trkpt lat="44.42408" lon="1.34811">
        <ele>273</ele>
        <time>2019-04-14T09:59:29Z</time>
      </trkpt>
      <trkpt lat="44.42409" lon="1.34809">
        <ele>273</ele>
        <time>2019-04-14T09:59:30Z</time>
      </trkpt>
      <trkpt lat="44.42411" lon="1.34806">
        <ele>273</ele>
        <time>2019-04-14T09:59:31Z</time>
      </trkpt>
      <trkpt lat="44.42412" lon="1.34804">
        <ele>274</ele>
        <time>2019-04-14T09:59:32Z</time>
      </trkpt>
      <trkpt lat="44.42413" lon="1.34801">
        <ele>273</ele>
        <time>2019-04-14T09:59:33Z</time>
      </trkpt>
      <trkpt lat="44.42414" lon="1.34799">
        <ele>273</ele>
        <time>2019-04-14T09:59:34Z</time>
      </trkpt>
      <trkpt lat="44.42416" lon="1.34796">
        <ele>273</ele>
        <time>2019-04-14T09:59:35Z</time>
      </trkpt>
      <trkpt lat="44.42417" lon="1.34794">
        <ele>273</ele>
        <time>2019-04-14T09:59:36Z</time>
      </trkpt>
      <trkpt lat="44.42419" lon="1.34793">
        <ele>273</ele>
        <time>2019-04-14T09:59:37Z</time>
      </trkpt>
      <trkpt lat="44.4242" lon="1.34792">
        <ele>274</ele>
        <time>2019-04-14T09:59:38Z</time>
      </trkpt>
      <trkpt lat="44.42421" lon="1.3479">
        <ele>274</ele>
        <time>2019-04-14T09:59:39Z</time>
      </trkpt>
      <trkpt lat="44.42422" lon="1.34787">
        <ele>274</ele>
        <time>2019-04-14T09:59:40Z</time>
      </trkpt>
      <trkpt lat="44.42423" lon="1.34786">
        <ele>274</ele>
        <time>2019-04-14T09:59:41Z</time>
      </trkpt>
      <trkpt lat="44.42424" lon="1.34784">
        <ele>274</ele>
        <time>2019-04-14T09:59:42Z</time>
      </trkpt>
      <trkpt lat="44.42425" lon="1.34782">
        <ele>274</ele>
        <time>2019-04-14T09:59:43Z</time>
      </trkpt>
      <trkpt lat="44.42427" lon="1.34781">
        <ele>274</ele>
        <time>2019-04-14T09:59:44Z</time>
      </trkpt>
      <trkpt lat="44.42428" lon="1.3478">
        <ele>274</ele>
        <time>2019-04-14T09:59:45Z</time>
      </trkpt>
      <trkpt lat="44.42429" lon="1.34779">
        <ele>274</ele>
        <time>2019-04-14T09:59:46Z</time>
      </trkpt>
      <trkpt lat="44.4243" lon="1.34778">
        <ele>274</ele>
        <time>2019-04-14T09:59:47Z</time>
      </trkpt>
      <trkpt lat="44.4243" lon="1.34778">
        <ele>275</ele>
        <time>2019-04-14T09:59:48Z</time>
      </trkpt>
      <trkpt lat="44.4243" lon="1.34778">
        <ele>275</ele>
        <time>2019-04-14T09:59:49Z</time>
      </trkpt>
      <trkpt lat="44.42431" lon="1.34778">
        <ele>275</ele>
        <time>2019-04-14T09:59:50Z</time>
      </trkpt>
      <trkpt lat="44.42431" lon="1.34779">
        <ele>275</ele>
        <time>2019-04-14T09:59:51Z</time>
      </trkpt>
      <trkpt lat="44.42432" lon="1.34779">
        <ele>275</ele>
        <time>2019-04-14T09:59:52Z</time>
      </trkpt>
      <trkpt lat="44.42433" lon="1.3478">
        <ele>275</ele>
        <time>2019-04-14T09:59:53Z</time>
      </trkpt>
      <trkpt lat="44.42435" lon="1.34779">
        <ele>275</ele>
        <time>2019-04-14T09:59:54Z</time>
      </trkpt>
      <trkpt lat="44.42436" lon="1.34778">
        <ele>275</ele>
        <time>2019-04-14T09:59:55Z</time>
      </trkpt>
      <trkpt lat="44.4244" lon="1.3477">
        <ele>275</ele>
        <time>2019-04-14T10:00:00Z</time>
      </trkpt>
      <trkpt lat="44.4244" lon="1.34769">
        <ele>275</ele>
        <time>2019-04-14T10:00:01Z</time>
      </trkpt>
      <trkpt lat="44.4244" lon="1.34769">
        <ele>275</ele>
        <time>2019-04-14T10:00:02Z</time>
      </trkpt>
      <trkpt lat="44.4244" lon="1.34769">
        <ele>275</ele>
        <time>2019-04-14T10:00:03Z</time>
      </trkpt>
      <trkpt lat="44.42441" lon="1.34769">
        <ele>275</ele>
        <time>2019-04-14T10:00:04Z</time>
      </trkpt>
      <trkpt lat="44.42441" lon="1.34769">
        <ele>275</ele>
        <time>2019-04-14T10:00:05Z</time>
      </trkpt>
      <trkpt lat="44.42441" lon="1.34769">
        <ele>275</ele>
        <time>2019-04-14T10:00:06Z</time>
      </trkpt>
      <trkpt lat="44.42441" lon="1.34769">
        <ele>275</ele>
        <time>2019-04-14T10:00:07Z</time>
      </trkpt>
      <trkpt lat="44.42441" lon="1.34769">
        <ele>275</ele>
        <time>2019-04-14T10:00:08Z</time>
      </trkpt>
      <trkpt lat="44.4243" lon="1.34741">
        <ele>272</ele>
        <time>2019-04-14T10:01:17Z</time>
      </trkpt>
      <trkpt lat="44.42429" lon="1.34739">
        <ele>272</ele>
        <time>2019-04-14T10:01:18Z</time>
      </trkpt>
      <trkpt lat="44.42429" lon="1.34737">
        <ele>271</ele>
        <time>2019-04-14T10:01:19Z</time>
      </trkpt>
      <trkpt lat="44.42429" lon="1.34734">
        <ele>271</ele>
        <time>2019-04-14T10:01:20Z</time>
      </trkpt>
      <trkpt lat="44.42429" lon="1.34731">
        <ele>271</ele>
        <time>2019-04-14T10:01:21Z</time>
      </trkpt>
      <trkpt lat="44.4243" lon="1.34729">
        <ele>271</ele>
        <time>2019-04-14T10:01:22Z</time>
      </trkpt>
      <trkpt lat="44.42431" lon="1.34727">
        <ele>271</ele>
        <time>2019-04-14T10:01:23Z</time>
      </trkpt>
      <trkpt lat="44.42431" lon="1.34726">
        <ele>270</ele>
        <time>2019-04-14T10:01:24Z</time>
      </trkpt>
      <trkpt lat="44.42432" lon="1.34724">
        <ele>270</ele>
        <time>2019-04-14T10:01:25Z</time>
      </trkpt>
      <trkpt lat="44.42433" lon="1.34721">
        <ele>270</ele>
        <time>2019-04-14T10:01:26Z</time>
      </trkpt>
      <trkpt lat="44.42432" lon="1.34718">
        <ele>270</ele>
        <time>2019-04-14T10:01:27Z</time>
      </trkpt>
      <trkpt lat="44.42432" lon="1.34716">
        <ele>269</ele>
        <time>2019-04-14T10:01:28Z</time>
      </trkpt>
      <trkpt lat="44.42432" lon="1.34713">
        <ele>269</ele>
        <time>2019-04-14T10:01:29Z</time>
      </trkpt>
      <trkpt lat="44.42433" lon="1.3471">
        <ele>269</ele>
        <time>2019-04-14T10:01:30Z</time>
      </trkpt>
      <trkpt lat="44.42434" lon="1.34709">
        <ele>269</ele>
        <time>2019-04-14T10:01:31Z</time>
      </trkpt>
      <trkpt lat="44.42435" lon="1.34707">
        <ele>269</ele>
        <time>2019-04-14T10:01:32Z</time>
      </trkpt>
      <trkpt lat="44.42437" lon="1.34706">
        <ele>269</ele>
        <time>2019-04-14T10:01:33Z</time>
      </trkpt>
      <trkpt lat="44.42438" lon="1.34704">
        <ele>269</ele>
        <time>2019-04-14T10:01:34Z</time>
      </trkpt>
      <trkpt lat="44.4244" lon="1.34702">
        <ele>269</ele>
        <time>2019-04-14T10:01:35Z</time>
      </trkpt>
      <trkpt lat="44.42441" lon="1.347">
        <ele>269</ele>
        <time>2019-04-14T10:01:36Z</time>
      </trkpt>
      <trkpt lat="44.42443" lon="1.34699">
        <ele>269</ele>
        <time>2019-04-14T10:01:37Z</time>
      </trkpt>
      <trkpt lat="44.42445" lon="1.34698">
        <ele>269</ele>
        <time>2019-04-14T10:01:38Z</time>
      </trkpt>
      <trkpt lat="44.42448" lon="1.34697">
        <ele>270</ele>
        <time>2019-04-14T10:01:39Z</time>
      </trkpt>
      <trkpt lat="44.42449" lon="1.34696">
        <ele>270</ele>
        <time>2019-04-14T10:01:40Z</time>
      </trkpt>
      <trkpt lat="44.42451" lon="1.34695">
        <ele>270</ele>
        <time>2019-04-14T10:01:41Z</time>
      </trkpt>
      <trkpt lat="44.42453" lon="1.34693">
        <ele>270</ele>
        <time>2019-04-14T10:01:42Z</time>
      </trkpt>
      <trkpt lat="44.42454" lon="1.34691">
        <ele>270</ele>
        <time>2019-04-14T10:01:43Z</time>
      </trkpt>
      <trkpt lat="44.42456" lon="1.34689">
        <ele>270</ele>
        <time>2019-04-14T10:01:44Z</time>
      </trkpt>
      <trkpt lat="44.42457" lon="1.34688">
        <ele>270</ele>
        <time>2019-04-14T10:01:45Z</time>
      </trkpt>
      <trkpt lat="44.42459" lon="1.34687">
        <ele>270</ele>
        <time>2019-04-14T10:01:46Z</time>
      </trkpt>
      <trkpt lat="44.4246" lon="1.34687">
        <ele>270</ele>
        <time>2019-04-14T10:01:47Z</time>
      </trkpt>
      <trkpt lat="44.42461" lon="1.34686">
        <ele>271</ele>
        <time>2019-04-14T10:01:48Z</time>
      </trkpt>
      <trkpt lat="44.42463" lon="1.34685">
        <ele>271</ele>
        <time>2019-04-14T10:01:49Z</time>
      </trkpt>
      <trkpt lat="44.42465" lon="1.34684">
        <ele>271</ele>
        <time>2019-04-14T10:01:50Z</time>
      </trkpt>
      <trkpt lat="44.42466" lon="1.34682">
        <ele>271</ele>
        <time>2019-04-14T10:01:51Z</time>
      </trkpt>
      <trkpt lat="44.42467" lon="1.3468">
        <ele>271</ele>
        <time>2019-04-14T10:01:52Z</time>
      </trkpt>
      <trkpt lat="44.42469" lon="1.34678">
        <ele>271</ele>
        <time>2019-04-14T10:01:53Z</time>
      </trkpt>
      <trkpt lat="44.4247" lon="1.34677">
        <ele>271</ele>
        <time>2019-04-14T10:01:54Z</time>
      </trkpt>
      <trkpt lat="44.42471" lon="1.34674">
        <ele>271</ele>
        <time>2019-04-14T10:01:55Z</time>
      </trkpt>
      <trkpt lat="44.42471" lon="1.34671">
        <ele>271</ele>
        <time>2019-04-14T10:01:56Z</time>
      </trkpt>
      <trkpt lat="44.42472" lon="1.34669">
        <ele>270</ele>
        <time>2019-04-14T10:01:57Z</time>
      </trkpt>
      <trkpt lat="44.42471" lon="1.34668">
        <ele>270</ele>
        <time>2019-04-14T10:01:58Z</time>
      </trkpt>
      <trkpt lat="44.42471" lon="1.34667">
        <ele>270</ele>
        <time>2019-04-14T10:01:59Z</time>
      </trkpt>
      <trkpt lat="44.42472" lon="1.34667">
        <ele>270</ele>
        <time>2019-04-14T10:02:00Z</time>
      </trkpt>
      <trkpt lat="44.42472" lon="1.34666">
        <ele>270</ele>
        <time>2019-04-14T10:02:01Z</time>
      </trkpt>
      <trkpt lat="44.42472" lon="1.34666">
        <ele>270</ele>
        <time>2019-04-14T10:02:02Z</time>
      </trkpt>
      <trkpt lat="44.42472" lon="1.34666">
        <ele>270</ele>
        <time>2019-04-14T10:02:03Z</time>
      </trkpt>
      <trkpt lat="44.42472" lon="1.34666">
        <ele>270</ele>
        <time>2019-04-14T10:02:04Z</time>
      </trkpt>
      <trkpt lat="44.42472" lon="1.34666">
        <ele>270</ele>
        <time>2019-04-14T10:02:05Z</time>
      </trkpt>
      <trkpt lat="44.4248" lon="1.34642">
        <ele>268</ele>
        <time>2019-04-14T10:02:33Z</time>
      </trkpt>
      <trkpt lat="44.42481" lon="1.34638">
        <ele>268</ele>
        <time>2019-04-14T10:02:34Z</time>
      </trkpt>
      <trkpt lat="44.42483" lon="1.34635">
        <ele>268</ele>
        <time>2019-04-14T10:02:35Z</time>
      </trkpt>
      <trkpt lat="44.42486" lon="1.3463">
        <ele>267</ele>
        <time>2019-04-14T10:02:36Z</time>
      </trkpt>
      <trkpt lat="44.42487" lon="1.34626">
        <ele>267</ele>
        <time>2019-04-14T10:02:37Z</time>
      </trkpt>
      <trkpt lat="44.42489" lon="1.34621">
        <ele>266</ele>
        <time>2019-04-14T10:02:38Z</time>
      </trkpt>
      <trkpt lat="44.4249" lon="1.34616">
        <ele>266</ele>
        <time>2019-04-14T10:02:39Z</time>
      </trkpt>
      <trkpt lat="44.42492" lon="1.34612">
        <ele>266</ele>
        <time>2019-04-14T10:02:40Z</time>
      </trkpt>
      <trkpt lat="44.42492" lon="1.34608">
        <ele>265</ele>
        <time>2019-04-14T10:02:41Z</time>
      </trkpt>
      <trkpt lat="44.42492" lon="1.34606">
        <ele>264</ele>
        <time>2019-04-14T10:02:42Z</time>
      </trkpt>
      <trkpt lat="44.42493" lon="1.34604">
        <ele>264</ele>
        <time>2019-04-14T10:02:43Z</time>
      </trkpt>
      <trkpt lat="44.42494" lon="1.34602">
        <ele>264</ele>
        <time>2019-04-14T10:02:44Z</time>
      </trkpt>
      <trkpt lat="44.42494" lon="1.346">
        <ele>264</ele>
        <time>2019-04-14T10:02:45Z</time>
      </trkpt>
      <trkpt lat="44.42493" lon="1.34598">
        <ele>263</ele>
        <time>2019-04-14T10:02:46Z</time>
      </trkpt>
      <trkpt lat="44.42492" lon="1.34596">
        <ele>263</ele>
        <time>2019-04-14T10:02:47Z</time>
      </trkpt>
      <trkpt lat="44.42492" lon="1.34593">
        <ele>262</ele>
        <time>2019-04-14T10:02:48Z</time>
      </trkpt>
      <trkpt lat="44.42491" lon="1.3459">
        <ele>262</ele>
        <time>2019-04-14T10:02:49Z</time>
      </trkpt>
      <trkpt lat="44.42492" lon="1.34587">
        <ele>262</ele>
        <time>2019-04-14T10:02:50Z</time>
      </trkpt>
      <trkpt lat="44.42493" lon="1.34584">
        <ele>261</ele>
        <time>2019-04-14T10:02:51Z</time>
      </trkpt>
      <trkpt lat="44.42496" lon="1.34581">
        <ele>261</ele>
        <time>2019-04-14T10:02:52Z</time>
      </trkpt>
      <trkpt lat="44.42498" lon="1.34579">
        <ele>261</ele>
        <time>2019-04-14T10:02:53Z</time>
      </trkpt>
      <trkpt lat="44.425" lon="1.34577">
        <ele>260</ele>
        <time>2019-04-14T10:02:54Z</time>
      </trkpt>
      <trkpt lat="44.42501" lon="1.34574">
        <ele>260</ele>
        <time>2019-04-14T10:02:55Z</time>
      </trkpt>
      <trkpt lat="44.42501" lon="1.34571">
        <ele>260</ele>
        <time>2019-04-14T10:02:56Z</time>
      </trkpt>
      <trkpt lat="44.425" lon="1.34568">
        <ele>259</ele>
        <time>2019-04-14T10:02:57Z</time>
      </trkpt>
      <trkpt lat="44.425" lon="1.34565">
        <ele>258</ele>
        <time>2019-04-14T10:02:58Z</time>
      </trkpt>
      <trkpt lat="44.42501" lon="1.34563">
        <ele>258</ele>
        <time>2019-04-14T10:02:59Z</time>
      </trkpt>
      <trkpt lat="44.42502" lon="1.34561">
        <ele>258</ele>
        <time>2019-04-14T10:03:00Z</time>
      </trkpt>
      <trkpt lat="44.42504" lon="1.34558">
        <ele>258</ele>
        <time>2019-04-14T10:03:01Z</time>
      </trkpt>
      <trkpt lat="44.42505" lon="1.34554">
        <ele>257</ele>
        <time>2019-04-14T10:03:02Z</time>
      </trkpt>
      <trkpt lat="44.42506" lon="1.34549">
        <ele>257</ele>
        <time>2019-04-14T10:03:03Z</time>
      </trkpt>
      <trkpt lat="44.42509" lon="1.34546">
        <ele>256</ele>
        <time>2019-04-14T10:03:04Z</time>
      </trkpt>
      <trkpt lat="44.42511" lon="1.34543">
        <ele>255</ele>
        <time>2019-04-14T10:03:05Z</time>
      </trkpt>
      <trkpt lat="44.42515" lon="1.34539">
        <ele>255</ele>
        <time>2019-04-14T10:03:06Z</time>
      </trkpt>
      <trkpt lat="44.42518" lon="1.34536">
        <ele>254</ele>
        <time>2019-04-14T10:03:07Z</time>
      </trkpt>
      <trkpt lat="44.4252" lon="1.34534">
        <ele>254</ele>
        <time>2019-04-14T10:03:08Z</time>
      </trkpt>
      <trkpt lat="44.42521" lon="1.34533">
        <ele>254</ele>
        <time>2019-04-14T10:03:09Z</time>
      </trkpt>
      <trkpt lat="44.42522" lon="1.34532">
        <ele>254</ele>
        <time>2019-04-14T10:03:10Z</time>
      </trkpt>
      <trkpt lat="44.42523" lon="1.34532">
        <ele>254</ele>
        <time>2019-04-14T10:03:11Z</time>
      </trkpt>
      <trkpt lat="44.42524" lon="1.34532">
        <ele>254</ele>
        <time>2019-04-14T10:03:12Z</time>
      </trkpt>
      <trkpt lat="44.42525" lon="1.34532">
        <ele>255</ele>
        <time>2019-04-14T10:03:13Z</time>
      </trkpt>
      <trkpt lat="44.42526" lon="1.34531">
        <ele>255</ele>
        <time>2019-04-14T10:03:14Z</time>
      </trkpt>
      <trkpt lat="44.42528" lon="1.3453">
        <ele>255</ele>
        <time>2019-04-14T10:03:15Z</time>
      </trkpt>
      <trkpt lat="44.4253" lon="1.3453">
        <ele>255</ele>
        <time>2019-04-14T10:03:16Z</time>
      </trkpt>
      <trkpt lat="44.42532" lon="1.3453">
        <ele>255</ele>
        <time>2019-04-14T10:03:17Z</time>
      </trkpt>
      <trkpt lat="44.42534" lon="1.34531">
        <ele>255</ele>
        <time>2019-04-14T10:03:18Z</time>
      </trkpt>
      <trkpt lat="44.42536" lon="1.34532">
        <ele>255</ele>
        <time>2019-04-14T10:03:19Z</time>
      </trkpt>
      <trkpt lat="44.42538" lon="1.34533">
        <ele>255</ele>
        <time>2019-04-14T10:03:20Z</time>
      </trkpt>
      <trkpt lat="44.42541" lon="1.34532">
        <ele>255</ele>
        <time>2019-04-14T10:03:21Z</time>
      </trkpt>
      <trkpt lat="44.42544" lon="1.34532">
        <ele>255</ele>
        <time>2019-04-14T10:03:22Z</time>
      </trkpt>
      <trkpt lat="44.42547" lon="1.34532">
        <ele>255</ele>
        <time>2019-04-14T10:03:23Z</time>
      </trkpt>
      <trkpt lat="44.42549" lon="1.34532">
        <ele>255</ele>
        <time>2019-04-14T10:03:24Z</time>
      </trkpt>
      <trkpt lat="44.42552" lon="1.34533">
        <ele>255</ele>
        <time>2019-04-14T10:03:25Z</time>
      </trkpt>
      <trkpt lat="44.42554" lon="1.34535">
        <ele>255</ele>
        <time>2019-04-14T10:03:26Z</time>
      </trkpt>
      <trkpt lat="44.42556" lon="1.34537">
        <ele>255</ele>
        <time>2019-04-14T10:03:27Z</time>
      </trkpt>
      <trkpt lat="44.42559" lon="1.34537">
        <ele>255</ele>
        <time>2019-04-14T10:03:28Z</time>
      </trkpt>
      <trkpt lat="44.42561" lon="1.34539">
        <ele>255</ele>
        <time>2019-04-14T10:03:29Z</time>
      </trkpt>
      <trkpt lat="44.42564" lon="1.34541">
        <ele>256</ele>
        <time>2019-04-14T10:03:30Z</time>
      </trkpt>
      <trkpt lat="44.42566" lon="1.34543">
        <ele>256</ele>
        <time>2019-04-14T10:03:31Z</time>
      </trkpt>
      <trkpt lat="44.42567" lon="1.34545">
        <ele>256</ele>
        <time>2019-04-14T10:03:32Z</time>
      </trkpt>
      <trkpt lat="44.42568" lon="1.34546">
        <ele>256</ele>
        <time>2019-04-14T10:03:33Z</time>
      </trkpt>
      <trkpt lat="44.42568" lon="1.34545">
        <ele>256</ele>
        <time>2019-04-14T10:03:34Z</time>
      </trkpt>
      <trkpt lat="44.42568" lon="1.34545">
        <ele>256</ele>
        <time>2019-04-14T10:03:35Z</time>
      </trkpt>
      <trkpt lat="44.42568" lon="1.34545">
        <ele>256</ele>
        <time>2019-04-14T10:03:36Z</time>
      </trkpt>
      <trkpt lat="44.42568" lon="1.34545">
        <ele>256</ele>
        <time>2019-04-14T10:03:37Z</time>
      </trkpt>
      <trkpt lat="44.42569" lon="1.34545">
        <ele>256</ele>
        <time>2019-04-14T10:03:38Z</time>
      </trkpt>
      <trkpt lat="44.4257" lon="1.34545">
        <ele>256</ele>
        <time>2019-04-14T10:03:39Z</time>
      </trkpt>
      <trkpt lat="44.4257" lon="1.34545">
        <ele>256</ele>
        <time>2019-04-14T10:03:40Z</time>
      </trkpt>
      <trkpt lat="44.42593" lon="1.34539">
        <ele>251</ele>
        <time>2019-04-14T10:06:06Z</time>
      </trkpt>
      <trkpt lat="44.42594" lon="1.34539">
        <ele>251</ele>
        <time>2019-04-14T10:06:07Z</time>
      </trkpt>
      <trkpt lat="44.42594" lon="1.34538">
        <ele>251</ele>
        <time>2019-04-14T10:06:08Z</time>
      </trkpt>
      <trkpt lat="44.42595" lon="1.34537">
        <ele>251</ele>
        <time>2019-04-14T10:06:09Z</time>
      </trkpt>
      <trkpt lat="44.42596" lon="1.34537">
        <ele>251</ele>
        <time>2019-04-14T10:06:10Z</time>
      </trkpt>
      <trkpt lat="44.42597" lon="1.34536">
        <ele>251</ele>
        <time>2019-04-14T10:06:11Z</time>
      </trkpt>
      <trkpt lat="44.42598" lon="1.34535">
        <ele>251</ele>
        <time>2019-04-14T10:06:12Z</time>
      </trkpt>
      <trkpt lat="44.426" lon="1.34533">
        <ele>250</ele>
        <time>2019-04-14T10:06:13Z</time>
      </trkpt>
      <trkpt lat="44.42602" lon="1.34533">
        <ele>250</ele>
        <time>2019-04-14T10:06:14Z</time>
      </trkpt>
      <trkpt lat="44.42604" lon="1.34535">
        <ele>249</ele>
        <time>2019-04-14T10:06:15Z</time>
      </trkpt>
      <trkpt lat="44.42606" lon="1.34536">
        <ele>249</ele>
        <time>2019-04-14T10:06:16Z</time>
      </trkpt>
      <trkpt lat="44.42607" lon="1.34539">
        <ele>249</ele>
        <time>2019-04-14T10:06:17Z</time>
      </trkpt>
      <trkpt lat="44.42608" lon="1.34542">
        <ele>249</ele>
        <time>2019-04-14T10:06:18Z</time>
      </trkpt>
      <trkpt lat="44.42609" lon="1.34546">
        <ele>250</ele>
        <time>2019-04-14T10:06:19Z</time>
      </trkpt>
      <trkpt lat="44.4261" lon="1.3455">
        <ele>250</ele>
        <time>2019-04-14T10:06:20Z</time>
      </trkpt>
      <trkpt lat="44.4261" lon="1.34552">
        <ele>250</ele>
        <time>2019-04-14T10:06:21Z</time>
      </trkpt>
      <trkpt lat="44.4261" lon="1.34555">
        <ele>251</ele>
        <time>2019-04-14T10:06:22Z</time>
      </trkpt>
      <trkpt lat="44.42611" lon="1.34556">
        <ele>251</ele>
        <time>2019-04-14T10:06:23Z</time>
      </trkpt>
      <trkpt lat="44.42611" lon="1.34557">
        <ele>251</ele>
        <time>2019-04-14T10:06:24Z</time>
      </trkpt>
      <trkpt lat="44.42611" lon="1.34557">
        <ele>251</ele>
        <time>2019-04-14T10:06:25Z</time>
      </trkpt>
      <trkpt lat="44.42611" lon="1.34557">
        <ele>251</ele>
        <time>2019-04-14T10:06:26Z</time>
      </trkpt>
      <trkpt lat="44.42611" lon="1.34557">
        <ele>251</ele>
        <time>2019-04-14T10:06:27Z</time>
      </trkpt>
      <trkpt lat="44.42611" lon="1.34558">
        <ele>251</ele>
        <time>2019-04-14T10:06:28Z</time>
      </trkpt>
      <trkpt lat="44.42611" lon="1.34558">
        <ele>251</ele>
        <time>2019-04-14T10:06:29Z</time>
      </trkpt>
      <trkpt lat="44.42612" lon="1.34557">
        <ele>251</ele>
        <time>2019-04-14T10:06:30Z</time>
      </trkpt>
      <trkpt lat="44.42612" lon="1.34557">
        <ele>251</ele>
        <time>2019-04-14T10:06:31Z</time>
      </trkpt>
      <trkpt lat="44.42643" lon="1.34549">
        <ele>244</ele>
        <time>2019-04-14T10:08:12Z</time>
      </trkpt>
      <trkpt lat="44.42645" lon="1.34549">
        <ele>243</ele>
        <time>2019-04-14T10:08:13Z</time>
      </trkpt>
      <trkpt lat="44.42647" lon="1.34549">
        <ele>242</ele>
        <time>2019-04-14T10:08:14Z</time>
      </trkpt>
      <trkpt lat="44.42649" lon="1.34548">
        <ele>242</ele>
        <time>2019-04-14T10:08:15Z</time>
      </trkpt>
      <trkpt lat="44.4265" lon="1.34549">
        <ele>241</ele>
        <time>2019-04-14T10:08:16Z</time>
      </trkpt>
      <trkpt lat="44.42652" lon="1.34551">
        <ele>241</ele>
        <time>2019-04-14T10:08:17Z</time>
      </trkpt>
      <trkpt lat="44.42655" lon="1.34552">
        <ele>241</ele>
        <time>2019-04-14T10:08:18Z</time>
      </trkpt>
      <trkpt lat="44.42657" lon="1.34555">
        <ele>241</ele>
        <time>2019-04-14T10:08:19Z</time>
      </trkpt>
      <trkpt lat="44.42659" lon="1.34559">
        <ele>240</ele>
        <time>2019-04-14T10:08:20Z</time>
      </trkpt>
      <trkpt lat="44.42662" lon="1.34563">
        <ele>240</ele>
        <time>2019-04-14T10:08:21Z</time>
      </trkpt>
      <trkpt lat="44.42663" lon="1.34567">
        <ele>240</ele>
        <time>2019-04-14T10:08:22Z</time>
      </trkpt>
      <trkpt lat="44.42664" lon="1.34571">
        <ele>240</ele>
        <time>2019-04-14T10:08:23Z</time>
      </trkpt>
      <trkpt lat="44.42663" lon="1.34574">
        <ele>240</ele>
        <time>2019-04-14T10:08:24Z</time>
      </trkpt>
      <trkpt lat="44.42664" lon="1.34576">
        <ele>241</ele>
        <time>2019-04-14T10:08:25Z</time>
      </trkpt>
      <trkpt lat="44.42665" lon="1.34578">
        <ele>241</ele>
        <time>2019-04-14T10:08:26Z</time>
      </trkpt>
      <trkpt lat="44.42666" lon="1.34581">
        <ele>241</ele>
        <time>2019-04-14T10:08:27Z</time>
      </trkpt>
      <trkpt lat="44.42667" lon="1.34583">
        <ele>241</ele>
        <time>2019-04-14T10:08:28Z</time>
      </trkpt>
      <trkpt lat="44.42668" lon="1.34586">
        <ele>241</ele>
        <time>2019-04-14T10:08:29Z</time>
      </trkpt>
      <trkpt lat="44.4267" lon="1.34588">
        <ele>241</ele>
        <time>2019-04-14T10:08:30Z</time>
      </trkpt>
      <trkpt lat="44.42672" lon="1.34591">
        <ele>241</ele>
        <time>2019-04-14T10:08:31Z</time>
      </trkpt>
      <trkpt lat="44.42674" lon="1.34593">
        <ele>241</ele>
        <time>2019-04-14T10:08:32Z</time>
      </trkpt>
      <trkpt lat="44.42676" lon="1.34596">
        <ele>241</ele>
        <time>2019-04-14T10:08:33Z</time>
      </trkpt>
      <trkpt lat="44.42678" lon="1.34599">
        <ele>241</ele>
        <time>2019-04-14T10:08:34Z</time>
      </trkpt>
      <trkpt lat="44.4268" lon="1.34602">
        <ele>241</ele>
        <time>2019-04-14T10:08:35Z</time>
      </trkpt>
      <trkpt lat="44.42683" lon="1.34605">
        <ele>241</ele>
        <time>2019-04-14T10:08:36Z</time>
      </trkpt>
      <trkpt lat="44.42686" lon="1.34608">
        <ele>241</ele>
        <time>2019-04-14T10:08:37Z</time>
      </trkpt>
      <trkpt lat="44.42689" lon="1.34611">
        <ele>241</ele>
        <time>2019-04-14T10:08:38Z</time>
      </trkpt>
      <trkpt lat="44.42693" lon="1.34615">
        <ele>240</ele>
        <time>2019-04-14T10:08:39Z</time>
      </trkpt>
      <trkpt lat="44.42696" lon="1.34618">
        <ele>240</ele>
        <time>2019-04-14T10:08:40Z</time>
      </trkpt>
      <trkpt lat="44.42699" lon="1.34621">
        <ele>241</ele>
        <time>2019-04-14T10:08:41Z</time>
      </trkpt>
      <trkpt lat="44.42701" lon="1.34624">
        <ele>241</ele>
        <time>2019-04-14T10:08:42Z</time>
      </trkpt>
      <trkpt lat="44.42703" lon="1.34627">
        <ele>241</ele>
        <time>2019-04-14T10:08:43Z</time>
      </trkpt>
      <trkpt lat="44.42705" lon="1.3463">
        <ele>241</ele>
        <time>2019-04-14T10:08:44Z</time>
      </trkpt>
      <trkpt lat="44.42707" lon="1.34633">
        <ele>241</ele>
        <time>2019-04-14T10:08:45Z</time>
      </trkpt>
      <trkpt lat="44.4271" lon="1.34636">
        <ele>241</ele>
        <time>2019-04-14T10:08:46Z</time>
      </trkpt>
      <trkpt lat="44.42713" lon="1.3464">
        <ele>240</ele>
        <time>2019-04-14T10:08:47Z</time>
      </trkpt>
      <trkpt lat="44.42716" lon="1.34643">
        <ele>240</ele>
        <time>2019-04-14T10:08:48Z</time>
      </trkpt>
      <trkpt lat="44.42719" lon="1.34647">
        <ele>240</ele>
        <time>2019-04-14T10:08:49Z</time>
      </trkpt>
      <trkpt lat="44.4272" lon="1.3465">
        <ele>240</ele>
        <time>2019-04-14T10:08:50Z</time>
      </trkpt>
      <trkpt lat="44.42722" lon="1.34651">
        <ele>240</ele>
        <time>2019-04-14T10:08:51Z</time>
      </trkpt>
      <trkpt lat="44.42725" lon="1.34652">
        <ele>240</ele>
        <time>2019-04-14T10:08:52Z</time>
      </trkpt>
      <trkpt lat="44.42728" lon="1.34654">
        <ele>240</ele>
        <time>2019-04-14T10:08:53Z</time>
      </trkpt>
      <trkpt lat="44.42731" lon="1.34654">
        <ele>239</ele>
        <time>2019-04-14T10:08:54Z</time>
      </trkpt>
      <trkpt lat="44.42735" lon="1.34655">
        <ele>239</ele>
        <time>2019-04-14T10:08:55Z</time>
      </trkpt>
      <trkpt lat="44.42739" lon="1.34657">
        <ele>238</ele>
        <time>2019-04-14T10:08:56Z</time>
      </trkpt>
      <trkpt lat="44.42742" lon="1.34659">
        <ele>238</ele>
        <time>2019-04-14T10:08:57Z</time>
      </trkpt>
      <trkpt lat="44.42744" lon="1.34662">
        <ele>237</ele>
        <time>2019-04-14T10:08:58Z</time>
      </trkpt>
      <trkpt lat="44.42744" lon="1.34665">
        <ele>237</ele>
        <time>2019-04-14T10:08:59Z</time>
      </trkpt>
      <trkpt lat="44.42744" lon="1.34667">
        <ele>237</ele>
        <time>2019-04-14T10:09:00Z</time>
      </trkpt>
      <trkpt lat="44.42745" lon="1.34669">
        <ele>238</ele>
        <time>2019-04-14T10:09:01Z</time>
      </trkpt>
      <trkpt lat="44.42745" lon="1.34671">
        <ele>238</ele>
        <time>2019-04-14T10:09:02Z</time>
      </trkpt>
      <trkpt lat="44.42745" lon="1.34672">
        <ele>238</ele>
        <time>2019-04-14T10:09:03Z</time>
      </trkpt>
      <trkpt lat="44.42746" lon="1.34673">
        <ele>238</ele>
        <time>2019-04-14T10:09:04Z</time>
      </trkpt>
      <trkpt lat="44.42746" lon="1.34673">
        <ele>238</ele>
        <time>2019-04-14T10:09:05Z</time>
      </trkpt>
      <trkpt lat="44.42746" lon="1.34673">
        <ele>238</ele>
        <time>2019-04-14T10:09:06Z</time>
      </trkpt>
      <trkpt lat="44.42746" lon="1.34673">
        <ele>238</ele>
        <time>2019-04-14T10:09:07Z</time>
      </trkpt>
      <trkpt lat="44.42746" lon="1.34673">
        <ele>238</ele>
        <time>2019-04-14T10:09:08Z</time>
      </trkpt>
      <trkpt lat="44.42746" lon="1.34673">
        <ele>238</ele>
        <time>2019-04-14T10:09:09Z</time>
      </trkpt>
      <trkpt lat="44.42746" lon="1.34673">
        <ele>237</ele>
        <time>2019-04-14T10:09:10Z</time>
      </trkpt>
      <trkpt lat="44.42761" lon="1.34701">
        <ele>235</ele>
        <time>2019-04-14T10:10:11Z</time>
      </trkpt>
      <trkpt lat="44.42759" lon="1.34703">
        <ele>236</ele>
        <time>2019-04-14T10:10:12Z</time>
      </trkpt>
      <trkpt lat="44.42759" lon="1.34705">
        <ele>236</ele>
        <time>2019-04-14T10:10:13Z</time>
      </trkpt>
      <trkpt lat="44.42759" lon="1.34707">
        <ele>236</ele>
        <time>2019-04-14T10:10:14Z</time>
      </trkpt>
      <trkpt lat="44.42758" lon="1.3471">
        <ele>236</ele>
        <time>2019-04-14T10:10:15Z</time>
      </trkpt>
      <trkpt lat="44.42757" lon="1.34713">
        <ele>236</ele>
        <time>2019-04-14T10:10:16Z</time>
      </trkpt>
      <trkpt lat="44.42755" lon="1.34714">
        <ele>236</ele>
        <time>2019-04-14T10:10:17Z</time>
      </trkpt>
      <trkpt lat="44.42754" lon="1.34715">
        <ele>236</ele>
        <time>2019-04-14T10:10:18Z</time>
      </trkpt>
      <trkpt lat="44.42753" lon="1.34715">
        <ele>236</ele>
        <time>2019-04-14T10:10:19Z</time>
      </trkpt>
      <trkpt lat="44.42751" lon="1.34715">
        <ele>236</ele>
        <time>2019-04-14T10:10:20Z</time>
      </trkpt>
      <trkpt lat="44.4275" lon="1.34713">
        <ele>237</ele>
        <time>2019-04-14T10:10:21Z</time>
      </trkpt>
      <trkpt lat="44.42749" lon="1.34711">
        <ele>237</ele>
        <time>2019-04-14T10:10:22Z</time>
      </trkpt>
      <trkpt lat="44.42748" lon="1.34709">
        <ele>237</ele>
        <time>2019-04-14T10:10:23Z</time>
      </trkpt>
      <trkpt lat="44.42747" lon="1.34708">
        <ele>238</ele>
        <time>2019-04-14T10:10:24Z</time>
      </trkpt>
      <trkpt lat="44.42745" lon="1.34707">
        <ele>238</ele>
        <time>2019-04-14T10:10:25Z</time>
      </trkpt>
      <trkpt lat="44.42744" lon="1.34707">
        <ele>238</ele>
        <time>2019-04-14T10:10:26Z</time>
      </trkpt>
      <trkpt lat="44.42743" lon="1.34707">
        <ele>239</ele>
        <time>2019-04-14T10:10:27Z</time>
      </trkpt>
      <trkpt lat="44.42742" lon="1.34706">
        <ele>239</ele>
        <time>2019-04-14T10:10:28Z</time>
      </trkpt>
      <trkpt lat="44.42741" lon="1.34706">
        <ele>240</ele>
        <time>2019-04-14T10:10:29Z</time>
      </trkpt>
      <trkpt lat="44.4274" lon="1.34706">
        <ele>240</ele>
        <time>2019-04-14T10:10:30Z</time>
      </trkpt>
      <trkpt lat="44.42739" lon="1.34705">
        <ele>240</ele>
        <time>2019-04-14T10:10:31Z</time>
      </trkpt>
      <trkpt lat="44.42737" lon="1.34705">
        <ele>241</ele>
        <time>2019-04-14T10:10:32Z</time>
      </trkpt>
      <trkpt lat="44.42736" lon="1.34704">
        <ele>241</ele>
        <time>2019-04-14T10:10:33Z</time>
      </trkpt>
      <trkpt lat="44.42734" lon="1.34703">
        <ele>241</ele>
        <time>2019-04-14T10:10:34Z</time>
      </trkpt>
      <trkpt lat="44.42733" lon="1.34702">
        <ele>242</ele>
        <time>2019-04-14T10:10:35Z</time>
      </trkpt>
      <trkpt lat="44.42731" lon="1.34702">
        <ele>242</ele>
        <time>2019-04-14T10:10:36Z</time>
      </trkpt>
      <trkpt lat="44.4273" lon="1.34703">
        <ele>242</ele>
        <time>2019-04-14T10:10:37Z</time>
      </trkpt>
      <trkpt lat="44.42728" lon="1.34703">
        <ele>242</ele>
        <time>2019-04-14T10:10:38Z</time>
      </trkpt>
      <trkpt lat="44.42726" lon="1.34703">
        <ele>243</ele>
        <time>2019-04-14T10:10:39Z</time>
      </trkpt>
      <trkpt lat="44.42724" lon="1.34704">
        <ele>243</ele>
        <time>2019-04-14T10:10:40Z</time>
      </trkpt>
      <trkpt lat="44.42722" lon="1.34706">
        <ele>243</ele>
        <time>2019-04-14T10:10:41Z</time>
      </trkpt>
      <trkpt lat="44.42721" lon="1.34707">
        <ele>243</ele>
        <time>2019-04-14T10:10:42Z</time>
      </trkpt>
      <trkpt lat="44.4272" lon="1.34709">
        <ele>243</ele>
        <time>2019-04-14T10:10:43Z</time>
      </trkpt>
      <trkpt lat="44.42717" lon="1.3471">
        <ele>243</ele>
        <time>2019-04-14T10:10:44Z</time>
      </trkpt>
      <trkpt lat="44.42716" lon="1.3471">
        <ele>244</ele>
        <time>2019-04-14T10:10:45Z</time>
      </trkpt>
      <trkpt lat="44.42715" lon="1.3471">
        <ele>244</ele>
        <time>2019-04-14T10:10:46Z</time>
      </trkpt>
      <trkpt lat="44.42714" lon="1.34709">
        <ele>244</ele>
        <time>2019-04-14T10:10:47Z</time>
      </trkpt>
      <trkpt lat="44.42713" lon="1.34709">
        <ele>244</ele>
        <time>2019-04-14T10:10:48Z</time>
      </trkpt>
      <trkpt lat="44.42711" lon="1.34709">
        <ele>244</ele>
        <time>2019-04-14T10:10:49Z</time>
      </trkpt>
      <trkpt lat="44.4271" lon="1.34709">
        <ele>245</ele>
        <time>2019-04-14T10:10:50Z</time>
      </trkpt>
      <trkpt lat="44.42709" lon="1.34709">
        <ele>245</ele>
        <time>2019-04-14T10:10:51Z</time>
      </trkpt>
      <trkpt lat="44.42707" lon="1.34709">
        <ele>245</ele>
        <time>2019-04-14T10:10:52Z</time>
      </trkpt>
      <trkpt lat="44.42705" lon="1.34708">
        <ele>246</ele>
        <time>2019-04-14T10:10:53Z</time>
      </trkpt>
      <trkpt lat="44.42703" lon="1.34709">
        <ele>246</ele>
        <time>2019-04-14T10:10:54Z</time>
      </trkpt>
      <trkpt lat="44.42701" lon="1.3471">
        <ele>246</ele>
        <time>2019-04-14T10:10:55Z</time>
      </trkpt>
      <trkpt lat="44.427" lon="1.34711">
        <ele>246</ele>
        <time>2019-04-14T10:10:56Z</time>
      </trkpt>
      <trkpt lat="44.42699" lon="1.34712">
        <ele>246</ele>
        <time>2019-04-14T10:10:57Z</time>
      </trkpt>
      <trkpt lat="44.42698" lon="1.34712">
        <ele>246</ele>
        <time>2019-04-14T10:10:58Z</time>
      </trkpt>
      <trkpt lat="44.42697" lon="1.34713">
        <ele>246</ele>
        <time>2019-04-14T10:10:59Z</time>
      </trkpt>
      <trkpt lat="44.42695" lon="1.34713">
        <ele>246</ele>
        <time>2019-04-14T10:11:00Z</time>
      </trkpt>
      <trkpt lat="44.42694" lon="1.34713">
        <ele>247</ele>
        <time>2019-04-14T10:11:01Z</time>
      </trkpt>
      <trkpt lat="44.42692" lon="1.34715">
        <ele>247</ele>
        <time>2019-04-14T10:11:02Z</time>
      </trkpt>
      <trkpt lat="44.4269" lon="1.34716">
        <ele>247</ele>
        <time>2019-04-14T10:11:03Z</time>
      </trkpt>
      <trkpt lat="44.42689" lon="1.34717">
        <ele>247</ele>
        <time>2019-04-14T10:11:04Z</time>
      </trkpt>
      <trkpt lat="44.42688" lon="1.34718">
        <ele>247</ele>
        <time>2019-04-14T10:11:05Z</time>
      </trkpt>
      <trkpt lat="44.42687" lon="1.34718">
        <ele>248</ele>
        <time>2019-04-14T10:11:06Z</time>
      </trkpt>
      <trkpt lat="44.42685" lon="1.34718">
        <ele>248</ele>
        <time>2019-04-14T10:11:07Z</time>
      </trkpt>
      <trkpt lat="44.42685" lon="1.34719">
        <ele>248</ele>
        <time>2019-04-14T10:11:08Z</time>
      </trkpt>
      <trkpt lat="44.42684" lon="1.34721">
        <ele>248</ele>
        <time>2019-04-14T10:11:09Z</time>
      </trkpt>
      <trkpt lat="44.42683" lon="1.34723">
        <ele>248</ele>
        <time>2019-04-14T10:11:10Z</time>
      </trkpt>
      <trkpt lat="44.42682" lon="1.34724">
        <ele>249</ele>
        <time>2019-04-14T10:11:11Z</time>
      </trkpt>
      <trkpt lat="44.42681" lon="1.34724">
        <ele>249</ele>
        <time>2019-04-14T10:11:12Z</time>
      </trkpt>
      <trkpt lat="44.42679" lon="1.34724">
        <ele>249</ele>
        <time>2019-04-14T10:11:13Z</time>
      </trkpt>
      <trkpt lat="44.42678" lon="1.34725">
        <ele>249</ele>
        <time>2019-04-14T10:11:14Z</time>
      </trkpt>
      <trkpt lat="44.42677" lon="1.34725">
        <ele>249</ele>
        <time>2019-04-14T10:11:15Z</time>
      </trkpt>
      <trkpt lat="44.42675" lon="1.34726">
        <ele>250</ele>
        <time>2019-04-14T10:11:16Z</time>
      </trkpt>
      <trkpt lat="44.42674" lon="1.34726">
        <ele>250</ele>
        <time>2019-04-14T10:11:17Z</time>
      </trkpt>
      <trkpt lat="44.42673" lon="1.34727">
        <ele>250</ele>
        <time>2019-04-14T10:11:18Z</time>
      </trkpt>
      <trkpt lat="44.42672" lon="1.34729">
        <ele>250</ele>
        <time>2019-04-14T10:11:19Z</time>
      </trkpt>
      <trkpt lat="44.4267" lon="1.34729">
        <ele>250</ele>
        <time>2019-04-14T10:11:20Z</time>
      </trkpt>
      <trkpt lat="44.42669" lon="1.3473">
        <ele>250</ele>
        <time>2019-04-14T10:11:21Z</time>
      </trkpt>
      <trkpt lat="44.42668" lon="1.34731">
        <ele>250</ele>
        <time>2019-04-14T10:11:22Z</time>
      </trkpt>
      <trkpt lat="44.42667" lon="1.34733">
        <ele>250</ele>
        <time>2019-04-14T10:11:23Z</time>
      </trkpt>
      <trkpt lat="44.42665" lon="1.34734">
        <ele>250</ele>
        <time>2019-04-14T10:11:24Z</time>
      </trkpt>
      <trkpt lat="44.42665" lon="1.34736">
        <ele>250</ele>
        <time>2019-04-14T10:11:25Z</time>
      </trkpt>
      <trkpt lat="44.42663" lon="1.34737">
        <ele>250</ele>
        <time>2019-04-14T10:11:26Z</time>
      </trkpt>
      <trkpt lat="44.42663" lon="1.34738">
        <ele>250</ele>
        <time>2019-04-14T10:11:27Z</time>
      </trkpt>
      <trkpt lat="44.42661" lon="1.34739">
        <ele>250</ele>
        <time>2019-04-14T10:11:28Z</time>
      </trkpt>
      <trkpt lat="44.42659" lon="1.3474">
        <ele>250</ele>
        <time>2019-04-14T10:11:29Z</time>
      </trkpt>
      <trkpt lat="44.42659" lon="1.34742">
        <ele>250</ele>
        <time>2019-04-14T10:11:30Z</time>
      </trkpt>
      <trkpt lat="44.42658" lon="1.34743">
        <ele>250</ele>
        <time>2019-04-14T10:11:31Z</time>
      </trkpt>
      <trkpt lat="44.42657" lon="1.34744">
        <ele>250</ele>
        <time>2019-04-14T10:11:32Z</time>
      </trkpt>
      <trkpt lat="44.42656" lon="1.34745">
        <ele>250</ele>
        <time>2019-04-14T10:11:33Z</time>
      </trkpt>
      <trkpt lat="44.42655" lon="1.34746">
        <ele>250</ele>
        <time>2019-04-14T10:11:34Z</time>
      </trkpt>
      <trkpt lat="44.42654" lon="1.34747">
        <ele>250</ele>
        <time>2019-04-14T10:11:35Z</time>
      </trkpt>
      <trkpt lat="44.42652" lon="1.34748">
        <ele>251</ele>
        <time>2019-04-14T10:11:36Z</time>
      </trkpt>
      <trkpt lat="44.4265" lon="1.3475">
        <ele>251</ele>
        <time>2019-04-14T10:11:37Z</time>
      </trkpt>
      <trkpt lat="44.42649" lon="1.34751">
        <ele>251</ele>
        <time>2019-04-14T10:11:38Z</time>
      </trkpt>
      <trkpt lat="44.42647" lon="1.34752">
        <ele>251</ele>
        <time>2019-04-14T10:11:39Z</time>
      </trkpt>
      <trkpt lat="44.42645" lon="1.34753">
        <ele>251</ele>
        <time>2019-04-14T10:11:40Z</time>
      </trkpt>
      <trkpt lat="44.42644" lon="1.34755">
        <ele>251</ele>
        <time>2019-04-14T10:11:41Z</time>
      </trkpt>
      <trkpt lat="44.42642" lon="1.34757">
        <ele>251</ele>
        <time>2019-04-14T10:11:42Z</time>
      </trkpt>
      <trkpt lat="44.4264" lon="1.34759">
        <ele>251</ele>
        <time>2019-04-14T10:11:43Z</time>
      </trkpt>
      <trkpt lat="44.42638" lon="1.34761">
        <ele>251</ele>
        <time>2019-04-14T10:11:44Z</time>
      </trkpt>
      <trkpt lat="44.42636" lon="1.34762">
        <ele>251</ele>
        <time>2019-04-14T10:11:45Z</time>
      </trkpt>
      <trkpt lat="44.42635" lon="1.34765">
        <ele>251</ele>
        <time>2019-04-14T10:11:46Z</time>
      </trkpt>
      <trkpt lat="44.42632" lon="1.34767">
        <ele>252</ele>
        <time>2019-04-14T10:11:47Z</time>
      </trkpt>
      <trkpt lat="44.4263" lon="1.34769">
        <ele>252</ele>
        <time>2019-04-14T10:11:48Z</time>
      </trkpt>
      <trkpt lat="44.42629" lon="1.3477">
        <ele>252</ele>
        <time>2019-04-14T10:11:49Z</time>
      </trkpt>
      <trkpt lat="44.42626" lon="1.34772">
        <ele>252</ele>
        <time>2019-04-14T10:11:50Z</time>
      </trkpt>
      <trkpt lat="44.42624" lon="1.34773">
        <ele>252</ele>
        <time>2019-04-14T10:11:51Z</time>
      </trkpt>
      <trkpt lat="44.42623" lon="1.34775">
        <ele>252</ele>
        <time>2019-04-14T10:11:52Z</time>
      </trkpt>
      <trkpt lat="44.42621" lon="1.34777">
        <ele>252</ele>
        <time>2019-04-14T10:11:53Z</time>
      </trkpt>
      <trkpt lat="44.42622" lon="1.34777">
        <ele>252</ele>
        <time>2019-04-14T10:11:54Z</time>
      </trkpt>
      <trkpt lat="44.4262" lon="1.34778">
        <ele>252</ele>
        <time>2019-04-14T10:11:55Z</time>
      </trkpt>
      <trkpt lat="44.42619" lon="1.3478">
        <ele>253</ele>
        <time>2019-04-14T10:11:56Z</time>
      </trkpt>
      <trkpt lat="44.42617" lon="1.34782">
        <ele>253</ele>
        <time>2019-04-14T10:11:57Z</time>
      </trkpt>
      <trkpt lat="44.42615" lon="1.34784">
        <ele>253</ele>
        <time>2019-04-14T10:11:58Z</time>
      </trkpt>
      <trkpt lat="44.42614" lon="1.34786">
        <ele>253</ele>
        <time>2019-04-14T10:11:59Z</time>
      </trkpt>
      <trkpt lat="44.42612" lon="1.34788">
        <ele>253</ele>
        <time>2019-04-14T10:12:00Z</time>
      </trkpt>
      <trkpt lat="44.4261" lon="1.34789">
        <ele>254</ele>
        <time>2019-04-14T10:12:01Z</time>
      </trkpt>
      <trkpt lat="44.42608" lon="1.3479">
        <ele>254</ele>
        <time>2019-04-14T10:12:02Z</time>
      </trkpt>
      <trkpt lat="44.42608" lon="1.34791">
        <ele>254</ele>
        <time>2019-04-14T10:12:03Z</time>
      </trkpt>
      <trkpt lat="44.42608" lon="1.34793">
        <ele>254</ele>
        <time>2019-04-14T10:12:04Z</time>
      </trkpt>
      <trkpt lat="44.42608" lon="1.34795">
        <ele>254</ele>
        <time>2019-04-14T10:12:05Z</time>
      </trkpt>
      <trkpt lat="44.42607" lon="1.34798">
        <ele>253</ele>
        <time>2019-04-14T10:12:06Z</time>
      </trkpt>
      <trkpt lat="44.42606" lon="1.34801">
        <ele>253</ele>
        <time>2019-04-14T10:12:07Z</time>
      </trkpt>
      <trkpt lat="44.42606" lon="1.34805">
        <ele>253</ele>
        <time>2019-04-14T10:12:08Z</time>
      </trkpt>
      <trkpt lat="44.42605" lon="1.34807">
        <ele>253</ele>
        <time>2019-04-14T10:12:09Z</time>
      </trkpt>
      <trkpt lat="44.42605" lon="1.3481">
        <ele>253</ele>
        <time>2019-04-14T10:12:10Z</time>
      </trkpt>
      <trkpt lat="44.42604" lon="1.34812">
        <ele>253</ele>
        <time>2019-04-14T10:12:11Z</time>
      </trkpt>
      <trkpt lat="44.42603" lon="1.34815">
        <ele>253</ele>
        <time>2019-04-14T10:12:12Z</time>
      </trkpt>
      <trkpt lat="44.42603" lon="1.34818">
        <ele>253</ele>
        <time>2019-04-14T10:12:13Z</time>
      </trkpt>
      <trkpt lat="44.42603" lon="1.34821">
        <ele>253</ele>
        <time>2019-04-14T10:12:14Z</time>
      </trkpt>
      <trkpt lat="44.42602" lon="1.34825">
        <ele>252</ele>
        <time>2019-04-14T10:12:15Z</time>
      </trkpt>
      <trkpt lat="44.42605" lon="1.34829">
        <ele>252</ele>
        <time>2019-04-14T10:12:16Z</time>
      </trkpt>
      <trkpt lat="44.42607" lon="1.34835">
        <ele>251</ele>
        <time>2019-04-14T10:12:17Z</time>
      </trkpt>
      <trkpt lat="44.4261" lon="1.3484">
        <ele>251</ele>
        <time>2019-04-14T10:12:18Z</time>
      </trkpt>
      <trkpt lat="44.42612" lon="1.34845">
        <ele>251</ele>
        <time>2019-04-14T10:12:19Z</time>
      </trkpt>
      <trkpt lat="44.42612" lon="1.34851">
        <ele>251</ele>
        <time>2019-04-14T10:12:20Z</time>
      </trkpt>
      <trkpt lat="44.42614" lon="1.34855">
        <ele>251</ele>
        <time>2019-04-14T10:12:21Z</time>
      </trkpt>
      <trkpt lat="44.42616" lon="1.34857">
        <ele>251</ele>
        <time>2019-04-14T10:12:22Z</time>
      </trkpt>
      <trkpt lat="44.42617" lon="1.34858">
        <ele>250</ele>
        <time>2019-04-14T10:12:23Z</time>
      </trkpt>
      <trkpt lat="44.42619" lon="1.3486">
        <ele>250</ele>
        <time>2019-04-14T10:12:24Z</time>
      </trkpt>
      <trkpt lat="44.42621" lon="1.34861">
        <ele>250</ele>
        <time>2019-04-14T10:12:25Z</time>
      </trkpt>
      <trkpt lat="44.42623" lon="1.34862">
        <ele>250</ele>
        <time>2019-04-14T10:12:26Z</time>
      </trkpt>
      <trkpt lat="44.42625" lon="1.34864">
        <ele>250</ele>
        <time>2019-04-14T10:12:27Z</time>
      </trkpt>
      <trkpt lat="44.42627" lon="1.34867">
        <ele>250</ele>
        <time>2019-04-14T10:12:28Z</time>
      </trkpt>
      <trkpt lat="44.42629" lon="1.34869">
        <ele>250</ele>
        <time>2019-04-14T10:12:29Z</time>
      </trkpt>
      <trkpt lat="44.4263" lon="1.34873">
        <ele>250</ele>
        <time>2019-04-14T10:12:30Z</time>
      </trkpt>
      <trkpt lat="44.42632" lon="1.34875">
        <ele>250</ele>
        <time>2019-04-14T10:12:31Z</time>
      </trkpt>
      <trkpt lat="44.42634" lon="1.34878">
        <ele>251</ele>
        <time>2019-04-14T10:12:32Z</time>
      </trkpt>
      <trkpt lat="44.42636" lon="1.34881">
        <ele>251</ele>
        <time>2019-04-14T10:12:33Z</time>
      </trkpt>
      <trkpt lat="44.42638" lon="1.34884">
        <ele>251</ele>
        <time>2019-04-14T10:12:34Z</time>
      </trkpt>
      <trkpt lat="44.42639" lon="1.34885">
        <ele>251</ele>
        <time>2019-04-14T10:12:35Z</time>
      </trkpt>
      <trkpt lat="44.42642" lon="1.34887">
        <ele>251</ele>
        <time>2019-04-14T10:12:36Z</time>
      </trkpt>
      <trkpt lat="44.42644" lon="1.34889">
        <ele>250</ele>
        <time>2019-04-14T10:12:37Z</time>
      </trkpt>
      <trkpt lat="44.42646" lon="1.34891">
        <ele>251</ele>
        <time>2019-04-14T10:12:38Z</time>
      </trkpt>
      <trkpt lat="44.42648" lon="1.34892">
        <ele>250</ele>
        <time>2019-04-14T10:12:39Z</time>
      </trkpt>
      <trkpt lat="44.4265" lon="1.34895">
        <ele>250</ele>
        <time>2019-04-14T10:12:40Z</time>
      </trkpt>
      <trkpt lat="44.42653" lon="1.34897">
        <ele>250</ele>
        <time>2019-04-14T10:12:41Z</time>
      </trkpt>
      <trkpt lat="44.42655" lon="1.34899">
        <ele>249</ele>
        <time>2019-04-14T10:12:42Z</time>
      </trkpt>
      <trkpt lat="44.42657" lon="1.34902">
        <ele>249</ele>
        <time>2019-04-14T10:12:43Z</time>
      </trkpt>
      <trkpt lat="44.42659" lon="1.34905">
        <ele>249</ele>
        <time>2019-04-14T10:12:44Z</time>
      </trkpt>
      <trkpt lat="44.4266" lon="1.34908">
        <ele>249</ele>
        <time>2019-04-14T10:12:45Z</time>
      </trkpt>
      <trkpt lat="44.4266" lon="1.34911">
        <ele>249</ele>
        <time>2019-04-14T10:12:46Z</time>
      </trkpt>
      <trkpt lat="44.4266" lon="1.34914">
        <ele>249</ele>
        <time>2019-04-14T10:12:47Z</time>
      </trkpt>
      <trkpt lat="44.4266" lon="1.34917">
        <ele>249</ele>
        <time>2019-04-14T10:12:48Z</time>
      </trkpt>
      <trkpt lat="44.42661" lon="1.3492">
        <ele>249</ele>
        <time>2019-04-14T10:12:49Z</time>
      </trkpt>
      <trkpt lat="44.42662" lon="1.34922">
        <ele>249</ele>
        <time>2019-04-14T10:12:50Z</time>
      </trkpt>
      <trkpt lat="44.42664" lon="1.34923">
        <ele>249</ele>
        <time>2019-04-14T10:12:51Z</time>
      </trkpt>
      <trkpt lat="44.42667" lon="1.34924">
        <ele>249</ele>
        <time>2019-04-14T10:12:52Z</time>
      </trkpt>
      <trkpt lat="44.42669" lon="1.34927">
        <ele>249</ele>
        <time>2019-04-14T10:12:53Z</time>
      </trkpt>
      <trkpt lat="44.42671" lon="1.3493">
        <ele>248</ele>
        <time>2019-04-14T10:12:54Z</time>
      </trkpt>
      <trkpt lat="44.42673" lon="1.34934">
        <ele>248</ele>
        <time>2019-04-14T10:12:55Z</time>
      </trkpt>
      <trkpt lat="44.42675" lon="1.34937">
        <ele>248</ele>
        <time>2019-04-14T10:12:56Z</time>
      </trkpt>
      <trkpt lat="44.42677" lon="1.3494">
        <ele>248</ele>
        <time>2019-04-14T10:12:57Z</time>
      </trkpt>
      <trkpt lat="44.42678" lon="1.34941">
        <ele>247</ele>
        <time>2019-04-14T10:12:58Z</time>
      </trkpt>
      <trkpt lat="44.4268" lon="1.34941">
        <ele>247</ele>
        <time>2019-04-14T10:12:59Z</time>
      </trkpt>
      <trkpt lat="44.42682" lon="1.34939">
        <ele>247</ele>
        <time>2019-04-14T10:13:00Z</time>
      </trkpt>
      <trkpt lat="44.42683" lon="1.34937">
        <ele>246</ele>
        <time>2019-04-14T10:13:01Z</time>
      </trkpt>
      <trkpt lat="44.42685" lon="1.34936">
        <ele>246</ele>
        <time>2019-04-14T10:13:02Z</time>
      </trkpt>
      <trkpt lat="44.42687" lon="1.34937">
        <ele>246</ele>
        <time>2019-04-14T10:13:03Z</time>
      </trkpt>
      <trkpt lat="44.4269" lon="1.34938">
        <ele>245</ele>
        <time>2019-04-14T10:13:04Z</time>
      </trkpt>
      <trkpt lat="44.42693" lon="1.34939">
        <ele>245</ele>
        <time>2019-04-14T10:13:05Z</time>
      </trkpt>
      <trkpt lat="44.42695" lon="1.34941">
        <ele>244</ele>
        <time>2019-04-14T10:13:06Z</time>
      </trkpt>
      <trkpt lat="44.42696" lon="1.34942">
        <ele>244</ele>
        <time>2019-04-14T10:13:07Z</time>
      </trkpt>
      <trkpt lat="44.42697" lon="1.34943">
        <ele>244</ele>
        <time>2019-04-14T10:13:08Z</time>
      </trkpt>
      <trkpt lat="44.42699" lon="1.34943">
        <ele>244</ele>
        <time>2019-04-14T10:13:09Z</time>
      </trkpt>
      <trkpt lat="44.42702" lon="1.34944">
        <ele>244</ele>
        <time>2019-04-14T10:13:10Z</time>
      </trkpt>
      <trkpt lat="44.42704" lon="1.34945">
        <ele>243</ele>
        <time>2019-04-14T10:13:11Z</time>
      </trkpt>
      <trkpt lat="44.42706" lon="1.34947">
        <ele>243</ele>
        <time>2019-04-14T10:13:12Z</time>
      </trkpt>
      <trkpt lat="44.42709" lon="1.34949">
        <ele>243</ele>
        <time>2019-04-14T10:13:13Z</time>
      </trkpt>
      <trkpt lat="44.4271" lon="1.34951">
        <ele>242</ele>
        <time>2019-04-14T10:13:14Z</time>
      </trkpt>
      <trkpt lat="44.42712" lon="1.34953">
        <ele>242</ele>
        <time>2019-04-14T10:13:15Z</time>
      </trkpt>
      <trkpt lat="44.42714" lon="1.34955">
        <ele>241</ele>
        <time>2019-04-14T10:13:16Z</time>
      </trkpt>
      <trkpt lat="44.42715" lon="1.34957">
        <ele>241</ele>
        <time>2019-04-14T10:13:17Z</time>
      </trkpt>
      <trkpt lat="44.42716" lon="1.34959">
        <ele>241</ele>
        <time>2019-04-14T10:13:18Z</time>
      </trkpt>
      <trkpt lat="44.42717" lon="1.34961">
        <ele>241</ele>
        <time>2019-04-14T10:13:19Z</time>
      </trkpt>
      <trkpt lat="44.42718" lon="1.34963">
        <ele>241</ele>
        <time>2019-04-14T10:13:20Z</time>
      </trkpt>
      <trkpt lat="44.42719" lon="1.34966">
        <ele>241</ele>
        <time>2019-04-14T10:13:21Z</time>
      </trkpt>
      <trkpt lat="44.4272" lon="1.34968">
        <ele>241</ele>
        <time>2019-04-14T10:13:22Z</time>
      </trkpt>
      <trkpt lat="44.42722" lon="1.34971">
        <ele>241</ele>
        <time>2019-04-14T10:13:23Z</time>
      </trkpt>
      <trkpt lat="44.42722" lon="1.34974">
        <ele>241</ele>
        <time>2019-04-14T10:13:24Z</time>
      </trkpt>
      <trkpt lat="44.42722" lon="1.34976">
        <ele>241</ele>
        <time>2019-04-14T10:13:25Z</time>
      </trkpt>
      <trkpt lat="44.42721" lon="1.34978">
        <ele>241</ele>
        <time>2019-04-14T10:13:26Z</time>
      </trkpt>
      <trkpt lat="44.42721" lon="1.3498">
        <ele>241</ele>
        <time>2019-04-14T10:13:27Z</time>
      </trkpt>
      <trkpt lat="44.42722" lon="1.34981">
        <ele>241</ele>
        <time>2019-04-14T10:13:28Z</time>
      </trkpt>
      <trkpt lat="44.42722" lon="1.34983">
        <ele>241</ele>
        <time>2019-04-14T10:13:29Z</time>
      </trkpt>
      <trkpt lat="44.42721" lon="1.34985">
        <ele>241</ele>
        <time>2019-04-14T10:13:30Z</time>
      </trkpt>
      <trkpt lat="44.42723" lon="1.34988">
        <ele>241</ele>
        <time>2019-04-14T10:13:31Z</time>
      </trkpt>
      <trkpt lat="44.42725" lon="1.34991">
        <ele>241</ele>
        <time>2019-04-14T10:13:32Z</time>
      </trkpt>
      <trkpt lat="44.42727" lon="1.34995">
        <ele>240</ele>
        <time>2019-04-14T10:13:33Z</time>
      </trkpt>
      <trkpt lat="44.42727" lon="1.34999">
        <ele>240</ele>
        <time>2019-04-14T10:13:34Z</time>
      </trkpt>
      <trkpt lat="44.42729" lon="1.35002">
        <ele>240</ele>
        <time>2019-04-14T10:13:35Z</time>
      </trkpt>
      <trkpt lat="44.42731" lon="1.35005">
        <ele>240</ele>
        <time>2019-04-14T10:13:36Z</time>
      </trkpt>
      <trkpt lat="44.42732" lon="1.35009">
        <ele>239</ele>
        <time>2019-04-14T10:13:37Z</time>
      </trkpt>
      <trkpt lat="44.42734" lon="1.35012">
        <ele>239</ele>
        <time>2019-04-14T10:13:38Z</time>
      </trkpt>
      <trkpt lat="44.42736" lon="1.35013">
        <ele>239</ele>
        <time>2019-04-14T10:13:39Z</time>
      </trkpt>
      <trkpt lat="44.42738" lon="1.35013">
        <ele>239</ele>
        <time>2019-04-14T10:13:40Z</time>
      </trkpt>
      <trkpt lat="44.4274" lon="1.35014">
        <ele>238</ele>
        <time>2019-04-14T10:13:41Z</time>
      </trkpt>
      <trkpt lat="44.42742" lon="1.35014">
        <ele>238</ele>
        <time>2019-04-14T10:13:42Z</time>
      </trkpt>
      <trkpt lat="44.42745" lon="1.35015">
        <ele>237</ele>
        <time>2019-04-14T10:13:43Z</time>
      </trkpt>
      <trkpt lat="44.42747" lon="1.35015">
        <ele>237</ele>
        <time>2019-04-14T10:13:44Z</time>
      </trkpt>
      <trkpt lat="44.4275" lon="1.35018">
        <ele>237</ele>
        <time>2019-04-14T10:13:45Z</time>
      </trkpt>
      <trkpt lat="44.42753" lon="1.35018">
        <ele>236</ele>
        <time>2019-04-14T10:13:46Z</time>
      </trkpt>
      <trkpt lat="44.42756" lon="1.35017">
        <ele>236</ele>
        <time>2019-04-14T10:13:47Z</time>
      </trkpt>
      <trkpt lat="44.42757" lon="1.35016">
        <ele>235</ele>
        <time>2019-04-14T10:13:48Z</time>
      </trkpt>
      <trkpt lat="44.42759" lon="1.35015">
        <ele>235</ele>
        <time>2019-04-14T10:13:49Z</time>
      </trkpt>
      <trkpt lat="44.4276" lon="1.35015">
        <ele>234</ele>
        <time>2019-04-14T10:13:50Z</time>
      </trkpt>
      <trkpt lat="44.4276" lon="1.35015">
        <ele>234</ele>
        <time>2019-04-14T10:13:51Z</time>
      </trkpt>
      <trkpt lat="44.42761" lon="1.35015">
        <ele>234</ele>
        <time>2019-04-14T10:13:52Z</time>
      </trkpt>
      <trkpt lat="44.42762" lon="1.35015">
        <ele>234</ele>
        <time>2019-04-14T10:13:53Z</time>
      </trkpt>
      <trkpt lat="44.42763" lon="1.35014">
        <ele>233</ele>
        <time>2019-04-14T10:13:54Z</time>
      </trkpt>
      <trkpt lat="44.42764" lon="1.35013">
        <ele>233</ele>
        <time>2019-04-14T10:13:55Z</time>
      </trkpt>
      <trkpt lat="44.42764" lon="1.35011">
        <ele>233</ele>
        <time>2019-04-14T10:13:56Z</time>
      </trkpt>
      <trkpt lat="44.42764" lon="1.35007">
        <ele>233</ele>
        <time>2019-04-14T10:13:57Z</time>
      </trkpt>
      <trkpt lat="44.42764" lon="1.35004">
        <ele>233</ele>
        <time>2019-04-14T10:13:58Z</time>
      </trkpt>
      <trkpt lat="44.42765" lon="1.35002">
        <ele>233</ele>
        <time>2019-04-14T10:13:59Z</time>
      </trkpt>
      <trkpt lat="44.42765" lon="1.34999">
        <ele>233</ele>
        <time>2019-04-14T10:14:00Z</time>
      </trkpt>
      <trkpt lat="44.42764" lon="1.34998">
        <ele>233</ele>
        <time>2019-04-14T10:14:01Z</time>
      </trkpt>
      <trkpt lat="44.42764" lon="1.34998">
        <ele>233</ele>
        <time>2019-04-14T10:14:02Z</time>
      </trkpt>
      <trkpt lat="44.42764" lon="1.34998">
        <ele>233</ele>
        <time>2019-04-14T10:14:03Z</time>
      </trkpt>
      <trkpt lat="44.42765" lon="1.34999">
        <ele>233</ele>
        <time>2019-04-14T10:14:04Z</time>
      </trkpt>
      <trkpt lat="44.42765" lon="1.34998">
        <ele>233</ele>
        <time>2019-04-14T10:14:05Z</time>
      </trkpt>
      <trkpt lat="44.42765" lon="1.34998">
        <ele>233</ele>
        <time>2019-04-14T10:14:06Z</time>
      </trkpt>
      <trkpt lat="44.42765" lon="1.34997">
        <ele>233</ele>
        <time>2019-04-14T10:14:07Z</time>
      </trkpt>
      <trkpt lat="44.42766" lon="1.34996">
        <ele>233</ele>
        <time>2019-04-14T10:14:08Z</time>
      </trkpt>
      <trkpt lat="44.42782" lon="1.35003">
        <ele>230</ele>
        <time>2019-04-14T10:15:36Z</time>
      </trkpt>
      <trkpt lat="44.42783" lon="1.35005">
        <ele>230</ele>
        <time>2019-04-14T10:15:37Z</time>
      </trkpt>
      <trkpt lat="44.42782" lon="1.35006">
        <ele>230</ele>
        <time>2019-04-14T10:15:38Z</time>
      </trkpt>
      <trkpt lat="44.42782" lon="1.35008">
        <ele>230</ele>
        <time>2019-04-14T10:15:39Z</time>
      </trkpt>
      <trkpt lat="44.42783" lon="1.3501">
        <ele>231</ele>
        <time>2019-04-14T10:15:40Z</time>
      </trkpt>
      <trkpt lat="44.42784" lon="1.35012">
        <ele>231</ele>
        <time>2019-04-14T10:15:41Z</time>
      </trkpt>
      <trkpt lat="44.42784" lon="1.35016">
        <ele>231</ele>
        <time>2019-04-14T10:15:42Z</time>
      </trkpt>
      <trkpt lat="44.42786" lon="1.35017">
        <ele>231</ele>
        <time>2019-04-14T10:15:43Z</time>
      </trkpt>
      <trkpt lat="44.42787" lon="1.35018">
        <ele>231</ele>
        <time>2019-04-14T10:15:44Z</time>
      </trkpt>
      <trkpt lat="44.42789" lon="1.3502">
        <ele>231</ele>
        <time>2019-04-14T10:15:45Z</time>
      </trkpt>
      <trkpt lat="44.42791" lon="1.35021">
        <ele>230</ele>
        <time>2019-04-14T10:15:46Z</time>
      </trkpt>
      <trkpt lat="44.42794" lon="1.35022">
        <ele>230</ele>
        <time>2019-04-14T10:15:47Z</time>
      </trkpt>
      <trkpt lat="44.42796" lon="1.35024">
        <ele>229</ele>
        <time>2019-04-14T10:15:48Z</time>
      </trkpt>
      <trkpt lat="44.42796" lon="1.35027">
        <ele>229</ele>
        <time>2019-04-14T10:15:49Z</time>
      </trkpt>
      <trkpt lat="44.42797" lon="1.3503">
        <ele>229</ele>
        <time>2019-04-14T10:15:50Z</time>
      </trkpt>
      <trkpt lat="44.42798" lon="1.35033">
        <ele>229</ele>
        <time>2019-04-14T10:15:51Z</time>
      </trkpt>
      <trkpt lat="44.42799" lon="1.35036">
        <ele>229</ele>
        <time>2019-04-14T10:15:52Z</time>
      </trkpt>
      <trkpt lat="44.42801" lon="1.35039">
        <ele>229</ele>
        <time>2019-04-14T10:15:53Z</time>
      </trkpt>
      <trkpt lat="44.42803" lon="1.35042">
        <ele>229</ele>
        <time>2019-04-14T10:15:54Z</time>
      </trkpt>
      <trkpt lat="44.42805" lon="1.35045">
        <ele>229</ele>
        <time>2019-04-14T10:15:55Z</time>
      </trkpt>
      <trkpt lat="44.42806" lon="1.35046">
        <ele>229</ele>
        <time>2019-04-14T10:15:56Z</time>
      </trkpt>
      <trkpt lat="44.42807" lon="1.35047">
        <ele>229</ele>
        <time>2019-04-14T10:15:57Z</time>
      </trkpt>
      <trkpt lat="44.42809" lon="1.35049">
        <ele>229</ele>
        <time>2019-04-14T10:15:58Z</time>
      </trkpt>
      <trkpt lat="44.4281" lon="1.35051">
        <ele>229</ele>
        <time>2019-04-14T10:15:59Z</time>
      </trkpt>
      <trkpt lat="44.42811" lon="1.35053">
        <ele>229</ele>
        <time>2019-04-14T10:16:00Z</time>
      </trkpt>
      <trkpt lat="44.42813" lon="1.35054">
        <ele>229</ele>
        <time>2019-04-14T10:16:01Z</time>
      </trkpt>
      <trkpt lat="44.42814" lon="1.35055">
        <ele>229</ele>
        <time>2019-04-14T10:16:02Z</time>
      </trkpt>
      <trkpt lat="44.42816" lon="1.35056">
        <ele>229</ele>
        <time>2019-04-14T10:16:03Z</time>
      </trkpt>
      <trkpt lat="44.42817" lon="1.35056">
        <ele>229</ele>
        <time>2019-04-14T10:16:04Z</time>
      </trkpt>
      <trkpt lat="44.42819" lon="1.35055">
        <ele>228</ele>
        <time>2019-04-14T10:16:05Z</time>
      </trkpt>
      <trkpt lat="44.42822" lon="1.35057">
        <ele>228</ele>
        <time>2019-04-14T10:16:06Z</time>
      </trkpt>
      <trkpt lat="44.42822" lon="1.35058">
        <ele>228</ele>
        <time>2019-04-14T10:16:07Z</time>
      </trkpt>
      <trkpt lat="44.42825" lon="1.35057">
        <ele>227</ele>
        <time>2019-04-14T10:16:08Z</time>
      </trkpt>
      <trkpt lat="44.42828" lon="1.35055">
        <ele>226</ele>
        <time>2019-04-14T10:16:09Z</time>
      </trkpt>
      <trkpt lat="44.42831" lon="1.35055">
        <ele>226</ele>
        <time>2019-04-14T10:16:10Z</time>
      </trkpt>
      <trkpt lat="44.42834" lon="1.35056">
        <ele>225</ele>
        <time>2019-04-14T10:16:11Z</time>
      </trkpt>
      <trkpt lat="44.42838" lon="1.35057">
        <ele>225</ele>
        <time>2019-04-14T10:16:12Z</time>
      </trkpt>
      <trkpt lat="44.42842" lon="1.35059">
        <ele>224</ele>
        <time>2019-04-14T10:16:13Z</time>
      </trkpt>
      <trkpt lat="44.42846" lon="1.35061">
        <ele>224</ele>
        <time>2019-04-14T10:16:14Z</time>
      </trkpt>
      <trkpt lat="44.42849" lon="1.35064">
        <ele>224</ele>
        <time>2019-04-14T10:16:15Z</time>
      </trkpt>
      <trkpt lat="44.42853" lon="1.35064">
        <ele>224</ele>
        <time>2019-04-14T10:16:16Z</time>
      </trkpt>
      <trkpt lat="44.42857" lon="1.35064">
        <ele>223</ele>
        <time>2019-04-14T10:16:17Z</time>
      </trkpt>
      <trkpt lat="44.4286" lon="1.35063">
        <ele>223</ele>
        <time>2019-04-14T10:16:18Z</time>
      </trkpt>
      <trkpt lat="44.42863" lon="1.35061">
        <ele>222</ele>
        <time>2019-04-14T10:16:19Z</time>
      </trkpt>
      <trkpt lat="44.42865" lon="1.3506">
        <ele>222</ele>
        <time>2019-04-14T10:16:20Z</time>
      </trkpt>
      <trkpt lat="44.42868" lon="1.35059">
        <ele>221</ele>
        <time>2019-04-14T10:16:21Z</time>
      </trkpt>
      <trkpt lat="44.42871" lon="1.35059">
        <ele>221</ele>
        <time>2019-04-14T10:16:22Z</time>
      </trkpt>
      <trkpt lat="44.42874" lon="1.35058">
        <ele>221</ele>
        <time>2019-04-14T10:16:23Z</time>
      </trkpt>
      <trkpt lat="44.42877" lon="1.35056">
        <ele>220</ele>
        <time>2019-04-14T10:16:24Z</time>
      </trkpt>
      <trkpt lat="44.42882" lon="1.35055">
        <ele>219</ele>
        <time>2019-04-14T10:16:25Z</time>
      </trkpt>
      <trkpt lat="44.42885" lon="1.35057">
        <ele>219</ele>
        <time>2019-04-14T10:16:26Z</time>
      </trkpt>
      <trkpt lat="44.4289" lon="1.35057">
        <ele>218</ele>
        <time>2019-04-14T10:16:27Z</time>
      </trkpt>
      <trkpt lat="44.42893" lon="1.35055">
        <ele>217</ele>
        <time>2019-04-14T10:16:28Z</time>
      </trkpt>
      <trkpt lat="44.42895" lon="1.35049">
        <ele>217</ele>
        <time>2019-04-14T10:16:29Z</time>
      </trkpt>
      <trkpt lat="44.42894" lon="1.35045">
        <ele>216</ele>
        <time>2019-04-14T10:16:30Z</time>
      </trkpt>
      <trkpt lat="44.42896" lon="1.35042">
        <ele>215</ele>
        <time>2019-04-14T10:16:31Z</time>
      </trkpt>
      <trkpt lat="44.42898" lon="1.35041">
        <ele>215</ele>
        <time>2019-04-14T10:16:32Z</time>
      </trkpt>
      <trkpt lat="44.42901" lon="1.35041">
        <ele>214</ele>
        <time>2019-04-14T10:16:33Z</time>
      </trkpt>
      <trkpt lat="44.42903" lon="1.35041">
        <ele>214</ele>
        <time>2019-04-14T10:16:34Z</time>
      </trkpt>
      <trkpt lat="44.42905" lon="1.35042">
        <ele>214</ele>
        <time>2019-04-14T10:16:35Z</time>
      </trkpt>
      <trkpt lat="44.42907" lon="1.35042">
        <ele>213</ele>
        <time>2019-04-14T10:16:36Z</time>
      </trkpt>
      <trkpt lat="44.42911" lon="1.35043">
        <ele>213</ele>
        <time>2019-04-14T10:16:37Z</time>
      </trkpt>
      <trkpt lat="44.42915" lon="1.35042">
        <ele>213</ele>
        <time>2019-04-14T10:16:38Z</time>
      </trkpt>
      <trkpt lat="44.42918" lon="1.3504">
        <ele>212</ele>
        <time>2019-04-14T10:16:39Z</time>
      </trkpt>
      <trkpt lat="44.42922" lon="1.35037">
        <ele>211</ele>
        <time>2019-04-14T10:16:40Z</time>
      </trkpt>
      <trkpt lat="44.42925" lon="1.35034">
        <ele>210</ele>
        <time>2019-04-14T10:16:41Z</time>
      </trkpt>
      <trkpt lat="44.42929" lon="1.35033">
        <ele>209</ele>
        <time>2019-04-14T10:16:42Z</time>
      </trkpt>
      <trkpt lat="44.42931" lon="1.35035">
        <ele>209</ele>
        <time>2019-04-14T10:16:43Z</time>
      </trkpt>
      <trkpt lat="44.42934" lon="1.35037">
        <ele>209</ele>
        <time>2019-04-14T10:16:44Z</time>
      </trkpt>
      <trkpt lat="44.42937" lon="1.35037">
        <ele>208</ele>
        <time>2019-04-14T10:16:45Z</time>
      </trkpt>
      <trkpt lat="44.42939" lon="1.35038">
        <ele>208</ele>
        <time>2019-04-14T10:16:46Z</time>
      </trkpt>
      <trkpt lat="44.42941" lon="1.35038">
        <ele>208</ele>
        <time>2019-04-14T10:16:47Z</time>
      </trkpt>
      <trkpt lat="44.42942" lon="1.35036">
        <ele>207</ele>
        <time>2019-04-14T10:16:48Z</time>
      </trkpt>
      <trkpt lat="44.42943" lon="1.35033">
        <ele>207</ele>
        <time>2019-04-14T10:16:49Z</time>
      </trkpt>
      <trkpt lat="44.42943" lon="1.3503">
        <ele>207</ele>
        <time>2019-04-14T10:16:50Z</time>
      </trkpt>
      <trkpt lat="44.42946" lon="1.3503">
        <ele>206</ele>
        <time>2019-04-14T10:16:51Z</time>
      </trkpt>
      <trkpt lat="44.4295" lon="1.3503">
        <ele>206</ele>
        <time>2019-04-14T10:16:52Z</time>
      </trkpt>
      <trkpt lat="44.42954" lon="1.3503">
        <ele>205</ele>
        <time>2019-04-14T10:16:53Z</time>
      </trkpt>
      <trkpt lat="44.42958" lon="1.3503">
        <ele>205</ele>
        <time>2019-04-14T10:16:54Z</time>
      </trkpt>
      <trkpt lat="44.42961" lon="1.35028">
        <ele>204</ele>
        <time>2019-04-14T10:16:55Z</time>
      </trkpt>
      <trkpt lat="44.42965" lon="1.35027">
        <ele>203</ele>
        <time>2019-04-14T10:16:56Z</time>
      </trkpt>
      <trkpt lat="44.4297" lon="1.35027">
        <ele>203</ele>
        <time>2019-04-14T10:16:57Z</time>
      </trkpt>
      <trkpt lat="44.42973" lon="1.35025">
        <ele>202</ele>
        <time>2019-04-14T10:16:58Z</time>
      </trkpt>
      <trkpt lat="44.42977" lon="1.35024">
        <ele>201</ele>
        <time>2019-04-14T10:16:59Z</time>
      </trkpt>
      <trkpt lat="44.42981" lon="1.35023">
        <ele>201</ele>
        <time>2019-04-14T10:17:00Z</time>
      </trkpt>
      <trkpt lat="44.42984" lon="1.35024">
        <ele>200</ele>
        <time>2019-04-14T10:17:01Z</time>
      </trkpt>
      <trkpt lat="44.42988" lon="1.35023">
        <ele>200</ele>
        <time>2019-04-14T10:17:02Z</time>
      </trkpt>
      <trkpt lat="44.42993" lon="1.3502">
        <ele>199</ele>
        <time>2019-04-14T10:17:03Z</time>
      </trkpt>
      <trkpt lat="44.42998" lon="1.35018">
        <ele>198</ele>
        <time>2019-04-14T10:17:04Z</time>
      </trkpt>
      <trkpt lat="44.43003" lon="1.35016">
        <ele>197</ele>
        <time>2019-04-14T10:17:05Z</time>
      </trkpt>
      <trkpt lat="44.43006" lon="1.35014">
        <ele>196</ele>
        <time>2019-04-14T10:17:06Z</time>
      </trkpt>
      <trkpt lat="44.4301" lon="1.35013">
        <ele>196</ele>
        <time>2019-04-14T10:17:07Z</time>
      </trkpt>
      <trkpt lat="44.43015" lon="1.3501">
        <ele>195</ele>
        <time>2019-04-14T10:17:08Z</time>
      </trkpt>
      <trkpt lat="44.43019" lon="1.35006">
        <ele>194</ele>
        <time>2019-04-14T10:17:09Z</time>
      </trkpt>
      <trkpt lat="44.43022" lon="1.35002">
        <ele>193</ele>
        <time>2019-04-14T10:17:10Z</time>
      </trkpt>
      <trkpt lat="44.43026" lon="1.34999">
        <ele>192</ele>
        <time>2019-04-14T10:17:11Z</time>
      </trkpt>
      <trkpt lat="44.43029" lon="1.34997">
        <ele>192</ele>
        <time>2019-04-14T10:17:12Z</time>
      </trkpt>
      <trkpt lat="44.43032" lon="1.34995">
        <ele>191</ele>
        <time>2019-04-14T10:17:13Z</time>
      </trkpt>
      <trkpt lat="44.43033" lon="1.34992">
        <ele>190</ele>
        <time>2019-04-14T10:17:14Z</time>
      </trkpt>
      <trkpt lat="44.43035" lon="1.34989">
        <ele>189</ele>
        <time>2019-04-14T10:17:15Z</time>
      </trkpt>
      <trkpt lat="44.43038" lon="1.34986">
        <ele>188</ele>
        <time>2019-04-14T10:17:16Z</time>
      </trkpt>
      <trkpt lat="44.4304" lon="1.34984">
        <ele>188</ele>
        <time>2019-04-14T10:17:17Z</time>
      </trkpt>
      <trkpt lat="44.43043" lon="1.34984">
        <ele>187</ele>
        <time>2019-04-14T10:17:18Z</time>
      </trkpt>
      <trkpt lat="44.43045" lon="1.34985">
        <ele>187</ele>
        <time>2019-04-14T10:17:19Z</time>
      </trkpt>
      <trkpt lat="44.43048" lon="1.34985">
        <ele>187</ele>
        <time>2019-04-14T10:17:20Z</time>
      </trkpt>
      <trkpt lat="44.43051" lon="1.34986">
        <ele>187</ele>
        <time>2019-04-14T10:17:21Z</time>
      </trkpt>
      <trkpt lat="44.43053" lon="1.34988">
        <ele>187</ele>
        <time>2019-04-14T10:17:22Z</time>
      </trkpt>
      <trkpt lat="44.43055" lon="1.3499">
        <ele>186</ele>
        <time>2019-04-14T10:17:23Z</time>
      </trkpt>
      <trkpt lat="44.43056" lon="1.34992">
        <ele>187</ele>
        <time>2019-04-14T10:17:24Z</time>
      </trkpt>
      <trkpt lat="44.43058" lon="1.34993">
        <ele>187</ele>
        <time>2019-04-14T10:17:25Z</time>
      </trkpt>
      <trkpt lat="44.4306" lon="1.34992">
        <ele>186</ele>
        <time>2019-04-14T10:17:26Z</time>
      </trkpt>
      <trkpt lat="44.43063" lon="1.34991">
        <ele>186</ele>
        <time>2019-04-14T10:17:27Z</time>
      </trkpt>
      <trkpt lat="44.43065" lon="1.3499">
        <ele>185</ele>
        <time>2019-04-14T10:17:28Z</time>
      </trkpt>
      <trkpt lat="44.43068" lon="1.34986">
        <ele>185</ele>
        <time>2019-04-14T10:17:29Z</time>
      </trkpt>
      <trkpt lat="44.4307" lon="1.34983">
        <ele>184</ele>
        <time>2019-04-14T10:17:30Z</time>
      </trkpt>
      <trkpt lat="44.43072" lon="1.34979">
        <ele>183</ele>
        <time>2019-04-14T10:17:31Z</time>
      </trkpt>
      <trkpt lat="44.43074" lon="1.34977">
        <ele>182</ele>
        <time>2019-04-14T10:17:32Z</time>
      </trkpt>
      <trkpt lat="44.43076" lon="1.34976">
        <ele>180</ele>
        <time>2019-04-14T10:17:33Z</time>
      </trkpt>
      <trkpt lat="44.43079" lon="1.34976">
        <ele>180</ele>
        <time>2019-04-14T10:17:34Z</time>
      </trkpt>
      <trkpt lat="44.43082" lon="1.34977">
        <ele>179</ele>
        <time>2019-04-14T10:17:35Z</time>
      </trkpt>
      <trkpt lat="44.43085" lon="1.34978">
        <ele>178</ele>
        <time>2019-04-14T10:17:36Z</time>
      </trkpt>
      <trkpt lat="44.43088" lon="1.34979">
        <ele>178</ele>
        <time>2019-04-14T10:17:37Z</time>
      </trkpt>
      <trkpt lat="44.43092" lon="1.34981">
        <ele>177</ele>
        <time>2019-04-14T10:17:38Z</time>
      </trkpt>
      <trkpt lat="44.43095" lon="1.34983">
        <ele>176</ele>
        <time>2019-04-14T10:17:39Z</time>
      </trkpt>
      <trkpt lat="44.43099" lon="1.34985">
        <ele>175</ele>
        <time>2019-04-14T10:17:40Z</time>
      </trkpt>
      <trkpt lat="44.43102" lon="1.34988">
        <ele>175</ele>
        <time>2019-04-14T10:17:41Z</time>
      </trkpt>
      <trkpt lat="44.43105" lon="1.34989">
        <ele>174</ele>
        <time>2019-04-14T10:17:42Z</time>
      </trkpt>
      <trkpt lat="44.43108" lon="1.34989">
        <ele>173</ele>
        <time>2019-04-14T10:17:43Z</time>
      </trkpt>
      <trkpt lat="44.43111" lon="1.3499">
        <ele>172</ele>
        <time>2019-04-14T10:17:44Z</time>
      </trkpt>
      <trkpt lat="44.43115" lon="1.34993">
        <ele>171</ele>
        <time>2019-04-14T10:17:45Z</time>
      </trkpt>
      <trkpt lat="44.43118" lon="1.34996">
        <ele>170</ele>
        <time>2019-04-14T10:17:46Z</time>
      </trkpt>
      <trkpt lat="44.43121" lon="1.34998">
        <ele>170</ele>
        <time>2019-04-14T10:17:47Z</time>
      </trkpt>
      <trkpt lat="44.43123" lon="1.35">
        <ele>169</ele>
        <time>2019-04-14T10:17:48Z</time>
      </trkpt>
      <trkpt lat="44.43123" lon="1.35">
        <ele>169</ele>
        <time>2019-04-14T10:17:49Z</time>
      </trkpt>
      <trkpt lat="44.43123" lon="1.35">
        <ele>169</ele>
        <time>2019-04-14T10:17:50Z</time>
      </trkpt>
      <trkpt lat="44.43124" lon="1.35">
        <ele>169</ele>
        <time>2019-04-14T10:17:51Z</time>
      </trkpt>
      <trkpt lat="44.43124" lon="1.35001">
        <ele>169</ele>
        <time>2019-04-14T10:17:52Z</time>
      </trkpt>
      <trkpt lat="44.43124" lon="1.35001">
        <ele>169</ele>
        <time>2019-04-14T10:17:53Z</time>
      </trkpt>
      <trkpt lat="44.43124" lon="1.35001">
        <ele>169</ele>
        <time>2019-04-14T10:17:54Z</time>
      </trkpt>
      <trkpt lat="44.43124" lon="1.35001">
        <ele>169</ele>
        <time>2019-04-14T10:17:55Z</time>
      </trkpt>
      <trkpt lat="44.43124" lon="1.35001">
        <ele>169</ele>
        <time>2019-04-14T10:17:56Z</time>
      </trkpt>
      <trkpt lat="44.43141" lon="1.34998">
        <ele>163</ele>
        <time>2019-04-14T10:22:41Z</time>
      </trkpt>
      <trkpt lat="44.43142" lon="1.35">
        <ele>163</ele>
        <time>2019-04-14T10:22:42Z</time>
      </trkpt>
      <trkpt lat="44.43144" lon="1.35001">
        <ele>163</ele>
        <time>2019-04-14T10:22:43Z</time>
      </trkpt>
      <trkpt lat="44.43145" lon="1.35001">
        <ele>162</ele>
        <time>2019-04-14T10:22:44Z</time>
      </trkpt>
      <trkpt lat="44.43146" lon="1.35">
        <ele>162</ele>
        <time>2019-04-14T10:22:45Z</time>
      </trkpt>
      <trkpt lat="44.43147" lon="1.34998">
        <ele>161</ele>
        <time>2019-04-14T10:22:46Z</time>
      </trkpt>
      <trkpt lat="44.43148" lon="1.34996">
        <ele>160</ele>
        <time>2019-04-14T10:22:47Z</time>
      </trkpt>
      <trkpt lat="44.43149" lon="1.34994">
        <ele>160</ele>
        <time>2019-04-14T10:22:48Z</time>
      </trkpt>
      <trkpt lat="44.43149" lon="1.34991">
        <ele>159</ele>
        <time>2019-04-14T10:22:49Z</time>
      </trkpt>
      <trkpt lat="44.43148" lon="1.34989">
        <ele>159</ele>
        <time>2019-04-14T10:22:50Z</time>
      </trkpt>
      <trkpt lat="44.43147" lon="1.34987">
        <ele>159</ele>
        <time>2019-04-14T10:22:51Z</time>
      </trkpt>
      <trkpt lat="44.43146" lon="1.34986">
        <ele>159</ele>
        <time>2019-04-14T10:22:52Z</time>
      </trkpt>
      <trkpt lat="44.43147" lon="1.34984">
        <ele>159</ele>
        <time>2019-04-14T10:22:53Z</time>
      </trkpt>
      <trkpt lat="44.43147" lon="1.34982">
        <ele>158</ele>
        <time>2019-04-14T10:22:54Z</time>
      </trkpt>
      <trkpt lat="44.43149" lon="1.34981">
        <ele>158</ele>
        <time>2019-04-14T10:22:55Z</time>
      </trkpt>
      <trkpt lat="44.43152" lon="1.3498">
        <ele>157</ele>
        <time>2019-04-14T10:22:56Z</time>
      </trkpt>
      <trkpt lat="44.43154" lon="1.34978">
        <ele>156</ele>
        <time>2019-04-14T10:22:57Z</time>
      </trkpt>
      <trkpt lat="44.43155" lon="1.34977">
        <ele>155</ele>
        <time>2019-04-14T10:22:58Z</time>
      </trkpt>
      <trkpt lat="44.43156" lon="1.34977">
        <ele>154</ele>
        <time>2019-04-14T10:22:59Z</time>
      </trkpt>
      <trkpt lat="44.43157" lon="1.34979">
        <ele>154</ele>
        <time>2019-04-14T10:23:00Z</time>
      </trkpt>
      <trkpt lat="44.43159" lon="1.3498">
        <ele>154</ele>
        <time>2019-04-14T10:23:01Z</time>
      </trkpt>
      <trkpt lat="44.43162" lon="1.34983">
        <ele>153</ele>
        <time>2019-04-14T10:23:02Z</time>
      </trkpt>
      <trkpt lat="44.43163" lon="1.34986">
        <ele>153</ele>
        <time>2019-04-14T10:23:03Z</time>
      </trkpt>
      <trkpt lat="44.43166" lon="1.34986">
        <ele>152</ele>
        <time>2019-04-14T10:23:04Z</time>
      </trkpt>
      <trkpt lat="44.43167" lon="1.34984">
        <ele>152</ele>
        <time>2019-04-14T10:23:05Z</time>
      </trkpt>
      <trkpt lat="44.43168" lon="1.34981">
        <ele>151</ele>
        <time>2019-04-14T10:23:06Z</time>
      </trkpt>
      <trkpt lat="44.43169" lon="1.34977">
        <ele>150</ele>
        <time>2019-04-14T10:23:07Z</time>
      </trkpt>
      <trkpt lat="44.43171" lon="1.34974">
        <ele>149</ele>
        <time>2019-04-14T10:23:08Z</time>
      </trkpt>
      <trkpt lat="44.43172" lon="1.34973">
        <ele>148</ele>
        <time>2019-04-14T10:23:09Z</time>
      </trkpt>
      <trkpt lat="44.43174" lon="1.34973">
        <ele>147</ele>
        <time>2019-04-14T10:23:10Z</time>
      </trkpt>
      <trkpt lat="44.43175" lon="1.34974">
        <ele>146</ele>
        <time>2019-04-14T10:23:11Z</time>
      </trkpt>
      <trkpt lat="44.43176" lon="1.34976">
        <ele>146</ele>
        <time>2019-04-14T10:23:12Z</time>
      </trkpt>
      <trkpt lat="44.43178" lon="1.34978">
        <ele>146</ele>
        <time>2019-04-14T10:23:13Z</time>
      </trkpt>
      <trkpt lat="44.43181" lon="1.34979">
        <ele>145</ele>
        <time>2019-04-14T10:23:14Z</time>
      </trkpt>
      <trkpt lat="44.43183" lon="1.34981">
        <ele>144</ele>
        <time>2019-04-14T10:23:15Z</time>
      </trkpt>
      <trkpt lat="44.43185" lon="1.34983">
        <ele>144</ele>
        <time>2019-04-14T10:23:16Z</time>
      </trkpt>
      <trkpt lat="44.43187" lon="1.34985">
        <ele>143</ele>
        <time>2019-04-14T10:23:17Z</time>
      </trkpt>
      <trkpt lat="44.43188" lon="1.34987">
        <ele>143</ele>
        <time>2019-04-14T10:23:18Z</time>
      </trkpt>
      <trkpt lat="44.43191" lon="1.34989">
        <ele>142</ele>
        <time>2019-04-14T10:23:19Z</time>
      </trkpt>
      <trkpt lat="44.43195" lon="1.34993">
        <ele>142</ele>
        <time>2019-04-14T10:23:20Z</time>
      </trkpt>
      <trkpt lat="44.432" lon="1.34996">
        <ele>142</ele>
        <time>2019-04-14T10:23:21Z</time>
      </trkpt>
      <trkpt lat="44.43203" lon="1.34999">
        <ele>141</ele>
        <time>2019-04-14T10:23:22Z</time>
      </trkpt>
      <trkpt lat="44.43207" lon="1.35001">
        <ele>140</ele>
        <time>2019-04-14T10:23:23Z</time>
      </trkpt>
      <trkpt lat="44.4321" lon="1.35">
        <ele>139</ele>
        <time>2019-04-14T10:23:24Z</time>
      </trkpt>
      <trkpt lat="44.43212" lon="1.34997">
        <ele>138</ele>
        <time>2019-04-14T10:23:25Z</time>
      </trkpt>
      <trkpt lat="44.43215" lon="1.34997">
        <ele>138</ele>
        <time>2019-04-14T10:23:26Z</time>
      </trkpt>
      <trkpt lat="44.43217" lon="1.34996">
        <ele>137</ele>
        <time>2019-04-14T10:23:27Z</time>
      </trkpt>
      <trkpt lat="44.43219" lon="1.34997">
        <ele>137</ele>
        <time>2019-04-14T10:23:28Z</time>
      </trkpt>
      <trkpt lat="44.43221" lon="1.35">
        <ele>137</ele>
        <time>2019-04-14T10:23:29Z</time>
      </trkpt>
      <trkpt lat="44.43224" lon="1.35001">
        <ele>136</ele>
        <time>2019-04-14T10:23:30Z</time>
      </trkpt>
      <trkpt lat="44.43226" lon="1.35002">
        <ele>136</ele>
        <time>2019-04-14T10:23:31Z</time>
      </trkpt>
      <trkpt lat="44.43229" lon="1.35005">
        <ele>136</ele>
        <time>2019-04-14T10:23:32Z</time>
      </trkpt>
      <trkpt lat="44.43232" lon="1.35007">
        <ele>136</ele>
        <time>2019-04-14T10:23:33Z</time>
      </trkpt>
      <trkpt lat="44.43235" lon="1.35011">
        <ele>136</ele>
        <time>2019-04-14T10:23:34Z</time>
      </trkpt>
      <trkpt lat="44.43238" lon="1.35014">
        <ele>136</ele>
        <time>2019-04-14T10:23:35Z</time>
      </trkpt>
      <trkpt lat="44.4324" lon="1.35016">
        <ele>136</ele>
        <time>2019-04-14T10:23:36Z</time>
      </trkpt>
      <trkpt lat="44.43241" lon="1.35016">
        <ele>136</ele>
        <time>2019-04-14T10:23:37Z</time>
      </trkpt>
      <trkpt lat="44.43243" lon="1.35015">
        <ele>135</ele>
        <time>2019-04-14T10:23:38Z</time>
      </trkpt>
      <trkpt lat="44.43244" lon="1.35013">
        <ele>135</ele>
        <time>2019-04-14T10:23:39Z</time>
      </trkpt>
      <trkpt lat="44.43244" lon="1.35011">
        <ele>134</ele>
        <time>2019-04-14T10:23:40Z</time>
      </trkpt>
      <trkpt lat="44.43244" lon="1.3501">
        <ele>134</ele>
        <time>2019-04-14T10:23:41Z</time>
      </trkpt>
      <trkpt lat="44.43243" lon="1.35009">
        <ele>134</ele>
        <time>2019-04-14T10:23:42Z</time>
      </trkpt>
      <trkpt lat="44.43242" lon="1.35008">
        <ele>134</ele>
        <time>2019-04-14T10:23:43Z</time>
      </trkpt>
      <trkpt lat="44.43241" lon="1.35006">
        <ele>134</ele>
        <time>2019-04-14T10:23:44Z</time>
      </trkpt>
      <trkpt lat="44.4324" lon="1.35005">
        <ele>134</ele>
        <time>2019-04-14T10:23:45Z</time>
      </trkpt>
      <trkpt lat="44.43239" lon="1.35004">
        <ele>134</ele>
        <time>2019-04-14T10:23:46Z</time>
      </trkpt>
      <trkpt lat="44.43237" lon="1.35002">
        <ele>134</ele>
        <time>2019-04-14T10:23:47Z</time>
      </trkpt>
      <trkpt lat="44.43235" lon="1.35001">
        <ele>134</ele>
        <time>2019-04-14T10:23:48Z</time>
      </trkpt>
      <trkpt lat="44.43235" lon="1.35">
        <ele>130</ele>
        <time>2019-04-14T10:23:49Z</time>
      </trkpt>
      <trkpt lat="44.43235" lon="1.35">
        <ele>135</ele>
        <time>2019-04-14T10:23:50Z</time>
      </trkpt>
      <trkpt lat="44.43235" lon="1.35">
        <ele>134</ele>
        <time>2019-04-14T10:23:51Z</time>
      </trkpt>
      <trkpt lat="44.43235" lon="1.35">
        <ele>134</ele>
        <time>2019-04-14T10:23:52Z</time>
      </trkpt>
      <trkpt lat="44.43234" lon="1.34999">
        <ele>134</ele>
        <time>2019-04-14T10:23:53Z</time>
      </trkpt>
      <trkpt lat="44.43234" lon="1.34998">
        <ele>134</ele>
        <time>2019-04-14T10:23:54Z</time>
      </trkpt>
      <trkpt lat="44.43232" lon="1.34998">
        <ele>135</ele>
        <time>2019-04-14T10:23:55Z</time>
      </trkpt>
      <trkpt lat="44.43232" lon="1.34997">
        <ele>135</ele>
        <time>2019-04-14T10:23:56Z</time>
      </trkpt>
      <trkpt lat="44.43231" lon="1.34997">
        <ele>135</ele>
        <time>2019-04-14T10:23:57Z</time>
      </trkpt>
      <trkpt lat="44.43232" lon="1.34997">
        <ele>135</ele>
        <time>2019-04-14T10:23:58Z</time>
      </trkpt>
      <trkpt lat="44.43233" lon="1.34998">
        <ele>135</ele>
        <time>2019-04-14T10:23:59Z</time>
      </trkpt>
      <trkpt lat="44.43233" lon="1.34998">
        <ele>135</ele>
        <time>2019-04-14T10:24:00Z</time>
      </trkpt>
      <trkpt lat="44.43233" lon="1.34998">
        <ele>135</ele>
        <time>2019-04-14T10:24:01Z</time>
      </trkpt>
      <trkpt lat="44.43233" lon="1.34998">
        <ele>135</ele>
        <time>2019-04-14T10:24:02Z</time>
      </trkpt>
      <trkpt lat="44.43234" lon="1.34999">
        <ele>135</ele>
        <time>2019-04-14T10:24:03Z</time>
      </trkpt>
      <trkpt lat="44.43225" lon="1.34979">
        <ele>136</ele>
        <time>2019-04-14T10:24:53Z</time>
      </trkpt>
      <trkpt lat="44.43223" lon="1.34977">
        <ele>136</ele>
        <time>2019-04-14T10:24:54Z</time>
      </trkpt>
      <trkpt lat="44.43223" lon="1.34976">
        <ele>136</ele>
        <time>2019-04-14T10:24:55Z</time>
      </trkpt>
      <trkpt lat="44.43222" lon="1.34975">
        <ele>136</ele>
        <time>2019-04-14T10:24:56Z</time>
      </trkpt>
      <trkpt lat="44.43224" lon="1.34977">
        <ele>136</ele>
        <time>2019-04-14T10:24:57Z</time>
      </trkpt>
      <trkpt lat="44.43223" lon="1.34976">
        <ele>136</ele>
        <time>2019-04-14T10:24:58Z</time>
      </trkpt>
      <trkpt lat="44.43222" lon="1.34974">
        <ele>136</ele>
        <time>2019-04-14T10:24:59Z</time>
      </trkpt>
      <trkpt lat="44.4322" lon="1.34972">
        <ele>136</ele>
        <time>2019-04-14T10:25:00Z</time>
      </trkpt>
      <trkpt lat="44.43217" lon="1.34968">
        <ele>136</ele>
        <time>2019-04-14T10:25:01Z</time>
      </trkpt>
      <trkpt lat="44.43215" lon="1.34965">
        <ele>136</ele>
        <time>2019-04-14T10:25:02Z</time>
      </trkpt>
      <trkpt lat="44.43212" lon="1.34963">
        <ele>136</ele>
        <time>2019-04-14T10:25:03Z</time>
      </trkpt>
      <trkpt lat="44.43209" lon="1.34959">
        <ele>137</ele>
        <time>2019-04-14T10:25:04Z</time>
      </trkpt>
      <trkpt lat="44.43207" lon="1.34955">
        <ele>137</ele>
        <time>2019-04-14T10:25:05Z</time>
      </trkpt>
      <trkpt lat="44.43204" lon="1.34951">
        <ele>136</ele>
        <time>2019-04-14T10:25:06Z</time>
      </trkpt>
      <trkpt lat="44.432" lon="1.34948">
        <ele>136</ele>
        <time>2019-04-14T10:25:07Z</time>
      </trkpt>
      <trkpt lat="44.43198" lon="1.34945">
        <ele>136</ele>
        <time>2019-04-14T10:25:08Z</time>
      </trkpt>
      <trkpt lat="44.43197" lon="1.3494">
        <ele>136</ele>
        <time>2019-04-14T10:25:09Z</time>
      </trkpt>
      <trkpt lat="44.43196" lon="1.34937">
        <ele>136</ele>
        <time>2019-04-14T10:25:10Z</time>
      </trkpt>
      <trkpt lat="44.43195" lon="1.34933">
        <ele>136</ele>
        <time>2019-04-14T10:25:11Z</time>
      </trkpt>
      <trkpt lat="44.43193" lon="1.3493">
        <ele>136</ele>
        <time>2019-04-14T10:25:12Z</time>
      </trkpt>
      <trkpt lat="44.43189" lon="1.34927">
        <ele>136</ele>
        <time>2019-04-14T10:25:13Z</time>
      </trkpt>
      <trkpt lat="44.43187" lon="1.34923">
        <ele>136</ele>
        <time>2019-04-14T10:25:14Z</time>
      </trkpt>
      <trkpt lat="44.43186" lon="1.34919">
        <ele>136</ele>
        <time>2019-04-14T10:25:15Z</time>
      </trkpt>
      <trkpt lat="44.43183" lon="1.34915">
        <ele>136</ele>
        <time>2019-04-14T10:25:16Z</time>
      </trkpt>
      <trkpt lat="44.43181" lon="1.34911">
        <ele>136</ele>
        <time>2019-04-14T10:25:17Z</time>
      </trkpt>
      <trkpt lat="44.43179" lon="1.34907">
        <ele>136</ele>
        <time>2019-04-14T10:25:18Z</time>
      </trkpt>
      <trkpt lat="44.43178" lon="1.34904">
        <ele>136</ele>
        <time>2019-04-14T10:25:19Z</time>
      </trkpt>
      <trkpt lat="44.43175" lon="1.34899">
        <ele>136</ele>
        <time>2019-04-14T10:25:20Z</time>
      </trkpt>
      <trkpt lat="44.43172" lon="1.34894">
        <ele>136</ele>
        <time>2019-04-14T10:25:21Z</time>
      </trkpt>
      <trkpt lat="44.43171" lon="1.3489">
        <ele>137</ele>
        <time>2019-04-14T10:25:22Z</time>
      </trkpt>
      <trkpt lat="44.4317" lon="1.34887">
        <ele>137</ele>
        <time>2019-04-14T10:25:23Z</time>
      </trkpt>
      <trkpt lat="44.43168" lon="1.34883">
        <ele>137</ele>
        <time>2019-04-14T10:25:24Z</time>
      </trkpt>
      <trkpt lat="44.43166" lon="1.34879">
        <ele>137</ele>
        <time>2019-04-14T10:25:25Z</time>
      </trkpt>
      <trkpt lat="44.43163" lon="1.34875">
        <ele>137</ele>
        <time>2019-04-14T10:25:26Z</time>
      </trkpt>
      <trkpt lat="44.43161" lon="1.34872">
        <ele>137</ele>
        <time>2019-04-14T10:25:27Z</time>
      </trkpt>
      <trkpt lat="44.4316" lon="1.3487">
        <ele>137</ele>
        <time>2019-04-14T10:25:28Z</time>
      </trkpt>
      <trkpt lat="44.43159" lon="1.34867">
        <ele>137</ele>
        <time>2019-04-14T10:25:29Z</time>
      </trkpt>
      <trkpt lat="44.4316" lon="1.34865">
        <ele>137</ele>
        <time>2019-04-14T10:25:30Z</time>
      </trkpt>
      <trkpt lat="44.4316" lon="1.34864">
        <ele>137</ele>
        <time>2019-04-14T10:25:31Z</time>
      </trkpt>
      <trkpt lat="44.43158" lon="1.34862">
        <ele>137</ele>
        <time>2019-04-14T10:25:32Z</time>
      </trkpt>
      <trkpt lat="44.43157" lon="1.3486">
        <ele>137</ele>
        <time>2019-04-14T10:25:33Z</time>
      </trkpt>
      <trkpt lat="44.43155" lon="1.34858">
        <ele>137</ele>
        <time>2019-04-14T10:25:34Z</time>
      </trkpt>
      <trkpt lat="44.43153" lon="1.34856">
        <ele>137</ele>
        <time>2019-04-14T10:25:35Z</time>
      </trkpt>
      <trkpt lat="44.43151" lon="1.34854">
        <ele>137</ele>
        <time>2019-04-14T10:25:36Z</time>
      </trkpt>
      <trkpt lat="44.43147" lon="1.34852">
        <ele>137</ele>
        <time>2019-04-14T10:25:37Z</time>
      </trkpt>
      <trkpt lat="44.43144" lon="1.3485">
        <ele>137</ele>
        <time>2019-04-14T10:25:38Z</time>
      </trkpt>
      <trkpt lat="44.4314" lon="1.34847">
        <ele>138</ele>
        <time>2019-04-14T10:25:39Z</time>
      </trkpt>
      <trkpt lat="44.43134" lon="1.34843">
        <ele>138</ele>
        <time>2019-04-14T10:25:40Z</time>
      </trkpt>
      <trkpt lat="44.43132" lon="1.34841">
        <ele>138</ele>
        <time>2019-04-14T10:25:41Z</time>
      </trkpt>
      <trkpt lat="44.43127" lon="1.34839">
        <ele>138</ele>
        <time>2019-04-14T10:25:42Z</time>
      </trkpt>
      <trkpt lat="44.43124" lon="1.34836">
        <ele>138</ele>
        <time>2019-04-14T10:25:43Z</time>
      </trkpt>
      <trkpt lat="44.43122" lon="1.34833">
        <ele>138</ele>
        <time>2019-04-14T10:25:44Z</time>
      </trkpt>
      <trkpt lat="44.4312" lon="1.34831">
        <ele>138</ele>
        <time>2019-04-14T10:25:45Z</time>
      </trkpt>
      <trkpt lat="44.43118" lon="1.34828">
        <ele>138</ele>
        <time>2019-04-14T10:25:46Z</time>
      </trkpt>
      <trkpt lat="44.43118" lon="1.34824">
        <ele>138</ele>
        <time>2019-04-14T10:25:47Z</time>
      </trkpt>
      <trkpt lat="44.43119" lon="1.34821">
        <ele>138</ele>
        <time>2019-04-14T10:25:48Z</time>
      </trkpt>
      <trkpt lat="44.43118" lon="1.34818">
        <ele>138</ele>
        <time>2019-04-14T10:25:49Z</time>
      </trkpt>
      <trkpt lat="44.43119" lon="1.34816">
        <ele>138</ele>
        <time>2019-04-14T10:25:50Z</time>
      </trkpt>
      <trkpt lat="44.4312" lon="1.34813">
        <ele>138</ele>
        <time>2019-04-14T10:25:51Z</time>
      </trkpt>
      <trkpt lat="44.4312" lon="1.3481">
        <ele>138</ele>
        <time>2019-04-14T10:25:52Z</time>
      </trkpt>
      <trkpt lat="44.43119" lon="1.34807">
        <ele>138</ele>
        <time>2019-04-14T10:25:53Z</time>
      </trkpt>
      <trkpt lat="44.43119" lon="1.34803">
        <ele>138</ele>
        <time>2019-04-14T10:25:54Z</time>
      </trkpt>
      <trkpt lat="44.4312" lon="1.34798">
        <ele>138</ele>
        <time>2019-04-14T10:25:55Z</time>
      </trkpt>
      <trkpt lat="44.4312" lon="1.34795">
        <ele>138</ele>
        <time>2019-04-14T10:25:56Z</time>
      </trkpt>
      <trkpt lat="44.4312" lon="1.34792">
        <ele>138</ele>
        <time>2019-04-14T10:25:57Z</time>
      </trkpt>
      <trkpt lat="44.43118" lon="1.3479">
        <ele>138</ele>
        <time>2019-04-14T10:25:58Z</time>
      </trkpt>
      <trkpt lat="44.43116" lon="1.34787">
        <ele>138</ele>
        <time>2019-04-14T10:25:59Z</time>
      </trkpt>
      <trkpt lat="44.43112" lon="1.34782">
        <ele>139</ele>
        <time>2019-04-14T10:26:00Z</time>
      </trkpt>
      <trkpt lat="44.43111" lon="1.34777">
        <ele>139</ele>
        <time>2019-04-14T10:26:01Z</time>
      </trkpt>
      <trkpt lat="44.43108" lon="1.34773">
        <ele>139</ele>
        <time>2019-04-14T10:26:02Z</time>
      </trkpt>
      <trkpt lat="44.43107" lon="1.34768">
        <ele>139</ele>
        <time>2019-04-14T10:26:03Z</time>
      </trkpt>
      <trkpt lat="44.43107" lon="1.34765">
        <ele>139</ele>
        <time>2019-04-14T10:26:04Z</time>
      </trkpt>
      <trkpt lat="44.43108" lon="1.34762">
        <ele>139</ele>
        <time>2019-04-14T10:26:05Z</time>
      </trkpt>
      <trkpt lat="44.43106" lon="1.34757">
        <ele>139</ele>
        <time>2019-04-14T10:26:06Z</time>
      </trkpt>
      <trkpt lat="44.43104" lon="1.34753">
        <ele>139</ele>
        <time>2019-04-14T10:26:07Z</time>
      </trkpt>
      <trkpt lat="44.43105" lon="1.3475">
        <ele>139</ele>
        <time>2019-04-14T10:26:08Z</time>
      </trkpt>
      <trkpt lat="44.43099" lon="1.34747">
        <ele>139</ele>
        <time>2019-04-14T10:26:09Z</time>
      </trkpt>
      <trkpt lat="44.43097" lon="1.34744">
        <ele>140</ele>
        <time>2019-04-14T10:26:10Z</time>
      </trkpt>
      <trkpt lat="44.43096" lon="1.34741">
        <ele>140</ele>
        <time>2019-04-14T10:26:11Z</time>
      </trkpt>
      <trkpt lat="44.43099" lon="1.34737">
        <ele>140</ele>
        <time>2019-04-14T10:26:12Z</time>
      </trkpt>
      <trkpt lat="44.43101" lon="1.34735">
        <ele>140</ele>
        <time>2019-04-14T10:26:13Z</time>
      </trkpt>
      <trkpt lat="44.43099" lon="1.34731">
        <ele>140</ele>
        <time>2019-04-14T10:26:14Z</time>
      </trkpt>
      <trkpt lat="44.43095" lon="1.34727">
        <ele>140</ele>
        <time>2019-04-14T10:26:15Z</time>
      </trkpt>
      <trkpt lat="44.43089" lon="1.34722">
        <ele>140</ele>
        <time>2019-04-14T10:26:16Z</time>
      </trkpt>
      <trkpt lat="44.43089" lon="1.3472">
        <ele>140</ele>
        <time>2019-04-14T10:26:17Z</time>
      </trkpt>
      <trkpt lat="44.43088" lon="1.34717">
        <ele>140</ele>
        <time>2019-04-14T10:26:18Z</time>
      </trkpt>
      <trkpt lat="44.43085" lon="1.34715">
        <ele>140</ele>
        <time>2019-04-14T10:26:19Z</time>
      </trkpt>
      <trkpt lat="44.43085" lon="1.34712">
        <ele>140</ele>
        <time>2019-04-14T10:26:20Z</time>
      </trkpt>
      <trkpt lat="44.43083" lon="1.34709">
        <ele>140</ele>
        <time>2019-04-14T10:26:21Z</time>
      </trkpt>
      <trkpt lat="44.43079" lon="1.34706">
        <ele>140</ele>
        <time>2019-04-14T10:26:22Z</time>
      </trkpt>
      <trkpt lat="44.43073" lon="1.347">
        <ele>140</ele>
        <time>2019-04-14T10:26:23Z</time>
      </trkpt>
      <trkpt lat="44.43071" lon="1.34697">
        <ele>140</ele>
        <time>2019-04-14T10:26:24Z</time>
      </trkpt>
      <trkpt lat="44.43071" lon="1.34693">
        <ele>140</ele>
        <time>2019-04-14T10:26:25Z</time>
      </trkpt>
      <trkpt lat="44.43069" lon="1.34691">
        <ele>140</ele>
        <time>2019-04-14T10:26:26Z</time>
      </trkpt>
      <trkpt lat="44.43067" lon="1.34687">
        <ele>140</ele>
        <time>2019-04-14T10:26:27Z</time>
      </trkpt>
      <trkpt lat="44.43063" lon="1.34684">
        <ele>140</ele>
        <time>2019-04-14T10:26:28Z</time>
      </trkpt>
      <trkpt lat="44.4306" lon="1.34681">
        <ele>140</ele>
        <time>2019-04-14T10:26:29Z</time>
      </trkpt>
      <trkpt lat="44.4306" lon="1.34679">
        <ele>140</ele>
        <time>2019-04-14T10:26:30Z</time>
      </trkpt>
      <trkpt lat="44.43061" lon="1.34676">
        <ele>140</ele>
        <time>2019-04-14T10:26:31Z</time>
      </trkpt>
      <trkpt lat="44.43055" lon="1.34673">
        <ele>141</ele>
        <time>2019-04-14T10:26:32Z</time>
      </trkpt>
      <trkpt lat="44.43053" lon="1.3467">
        <ele>141</ele>
        <time>2019-04-14T10:26:33Z</time>
      </trkpt>
      <trkpt lat="44.43054" lon="1.34667">
        <ele>141</ele>
        <time>2019-04-14T10:26:34Z</time>
      </trkpt>
      <trkpt lat="44.43054" lon="1.34665">
        <ele>141</ele>
        <time>2019-04-14T10:26:35Z</time>
      </trkpt>
      <trkpt lat="44.43051" lon="1.34661">
        <ele>141</ele>
        <time>2019-04-14T10:26:36Z</time>
      </trkpt>
      <trkpt lat="44.4305" lon="1.34658">
        <ele>141</ele>
        <time>2019-04-14T10:26:37Z</time>
      </trkpt>
      <trkpt lat="44.43048" lon="1.34657">
        <ele>141</ele>
        <time>2019-04-14T10:26:38Z</time>
      </trkpt>
      <trkpt lat="44.43045" lon="1.34654">
        <ele>141</ele>
        <time>2019-04-14T10:26:39Z</time>
      </trkpt>
      <trkpt lat="44.43046" lon="1.34652">
        <ele>141</ele>
        <time>2019-04-14T10:26:40Z</time>
      </trkpt>
      <trkpt lat="44.43045" lon="1.34649">
        <ele>141</ele>
        <time>2019-04-14T10:26:41Z</time>
      </trkpt>
      <trkpt lat="44.43042" lon="1.34646">
        <ele>141</ele>
        <time>2019-04-14T10:26:42Z</time>
      </trkpt>
      <trkpt lat="44.43038" lon="1.34643">
        <ele>141</ele>
        <time>2019-04-14T10:26:43Z</time>
      </trkpt>
      <trkpt lat="44.43036" lon="1.3464">
        <ele>141</ele>
        <time>2019-04-14T10:26:44Z</time>
      </trkpt>
      <trkpt lat="44.43032" lon="1.34637">
        <ele>141</ele>
        <time>2019-04-14T10:26:45Z</time>
      </trkpt>
      <trkpt lat="44.43034" lon="1.34634">
        <ele>141</ele>
        <time>2019-04-14T10:26:46Z</time>
      </trkpt>
      <trkpt lat="44.43028" lon="1.34632">
        <ele>141</ele>
        <time>2019-04-14T10:26:47Z</time>
      </trkpt>
      <trkpt lat="44.43024" lon="1.34628">
        <ele>141</ele>
        <time>2019-04-14T10:26:48Z</time>
      </trkpt>
      <trkpt lat="44.43023" lon="1.34626">
        <ele>142</ele>
        <time>2019-04-14T10:26:49Z</time>
      </trkpt>
      <trkpt lat="44.43021" lon="1.34622">
        <ele>142</ele>
        <time>2019-04-14T10:26:50Z</time>
      </trkpt>
      <trkpt lat="44.43017" lon="1.3462">
        <ele>142</ele>
        <time>2019-04-14T10:26:51Z</time>
      </trkpt>
      <trkpt lat="44.43017" lon="1.34616">
        <ele>142</ele>
        <time>2019-04-14T10:26:52Z</time>
      </trkpt>
      <trkpt lat="44.43013" lon="1.34614">
        <ele>142</ele>
        <time>2019-04-14T10:26:53Z</time>
      </trkpt>
      <trkpt lat="44.43009" lon="1.34611">
        <ele>142</ele>
        <time>2019-04-14T10:26:54Z</time>
      </trkpt>
      <trkpt lat="44.43007" lon="1.34607">
        <ele>142</ele>
        <time>2019-04-14T10:26:55Z</time>
      </trkpt>
      <trkpt lat="44.43006" lon="1.34604">
        <ele>142</ele>
        <time>2019-04-14T10:26:56Z</time>
      </trkpt>
      <trkpt lat="44.43007" lon="1.34601">
        <ele>142</ele>
        <time>2019-04-14T10:26:57Z</time>
      </trkpt>
      <trkpt lat="44.43007" lon="1.34599">
        <ele>142</ele>
        <time>2019-04-14T10:26:58Z</time>
      </trkpt>
      <trkpt lat="44.43006" lon="1.34597">
        <ele>142</ele>
        <time>2019-04-14T10:26:59Z</time>
      </trkpt>
      <trkpt lat="44.43006" lon="1.34593">
        <ele>142</ele>
        <time>2019-04-14T10:27:00Z</time>
      </trkpt>
      <trkpt lat="44.43005" lon="1.34589">
        <ele>142</ele>
        <time>2019-04-14T10:27:01Z</time>
      </trkpt>
      <trkpt lat="44.43005" lon="1.34587">
        <ele>143</ele>
        <time>2019-04-14T10:27:02Z</time>
      </trkpt>
      <trkpt lat="44.43006" lon="1.34584">
        <ele>143</ele>
        <time>2019-04-14T10:27:03Z</time>
      </trkpt>
      <trkpt lat="44.43005" lon="1.34581">
        <ele>143</ele>
        <time>2019-04-14T10:27:04Z</time>
      </trkpt>
      <trkpt lat="44.43003" lon="1.34579">
        <ele>143</ele>
        <time>2019-04-14T10:27:05Z</time>
      </trkpt>
      <trkpt lat="44.43001" lon="1.34575">
        <ele>143</ele>
        <time>2019-04-14T10:27:06Z</time>
      </trkpt>
      <trkpt lat="44.43" lon="1.34572">
        <ele>143</ele>
        <time>2019-04-14T10:27:07Z</time>
      </trkpt>
      <trkpt lat="44.42998" lon="1.34569">
        <ele>143</ele>
        <time>2019-04-14T10:27:08Z</time>
      </trkpt>
      <trkpt lat="44.42997" lon="1.34565">
        <ele>143</ele>
        <time>2019-04-14T10:27:09Z</time>
      </trkpt>
      <trkpt lat="44.42996" lon="1.34563">
        <ele>143</ele>
        <time>2019-04-14T10:27:10Z</time>
      </trkpt>
      <trkpt lat="44.42994" lon="1.3456">
        <ele>143</ele>
        <time>2019-04-14T10:27:11Z</time>
      </trkpt>
      <trkpt lat="44.42992" lon="1.34557">
        <ele>143</ele>
        <time>2019-04-14T10:27:12Z</time>
      </trkpt>
      <trkpt lat="44.4299" lon="1.34554">
        <ele>143</ele>
        <time>2019-04-14T10:27:13Z</time>
      </trkpt>
      <trkpt lat="44.4299" lon="1.34552">
        <ele>143</ele>
        <time>2019-04-14T10:27:14Z</time>
      </trkpt>
      <trkpt lat="44.42991" lon="1.34549">
        <ele>144</ele>
        <time>2019-04-14T10:27:15Z</time>
      </trkpt>
      <trkpt lat="44.4299" lon="1.34545">
        <ele>144</ele>
        <time>2019-04-14T10:27:16Z</time>
      </trkpt>
      <trkpt lat="44.42988" lon="1.34542">
        <ele>144</ele>
        <time>2019-04-14T10:27:17Z</time>
      </trkpt>
      <trkpt lat="44.42984" lon="1.34538">
        <ele>144</ele>
        <time>2019-04-14T10:27:18Z</time>
      </trkpt>
      <trkpt lat="44.42984" lon="1.34534">
        <ele>144</ele>
        <time>2019-04-14T10:27:19Z</time>
      </trkpt>
      <trkpt lat="44.42983" lon="1.34532">
        <ele>144</ele>
        <time>2019-04-14T10:27:20Z</time>
      </trkpt>
      <trkpt lat="44.42982" lon="1.34527">
        <ele>144</ele>
        <time>2019-04-14T10:27:21Z</time>
      </trkpt>
      <trkpt lat="44.42982" lon="1.34522">
        <ele>144</ele>
        <time>2019-04-14T10:27:22Z</time>
      </trkpt>
      <trkpt lat="44.42982" lon="1.3452">
        <ele>144</ele>
        <time>2019-04-14T10:27:23Z</time>
      </trkpt>
      <trkpt lat="44.42977" lon="1.34516">
        <ele>144</ele>
        <time>2019-04-14T10:27:24Z</time>
      </trkpt>
      <trkpt lat="44.42975" lon="1.34513">
        <ele>144</ele>
        <time>2019-04-14T10:27:25Z</time>
      </trkpt>
      <trkpt lat="44.42974" lon="1.3451">
        <ele>144</ele>
        <time>2019-04-14T10:27:26Z</time>
      </trkpt>
      <trkpt lat="44.42975" lon="1.34507">
        <ele>144</ele>
        <time>2019-04-14T10:27:27Z</time>
      </trkpt>
      <trkpt lat="44.42974" lon="1.34504">
        <ele>144</ele>
        <time>2019-04-14T10:27:28Z</time>
      </trkpt>
      <trkpt lat="44.42972" lon="1.34501">
        <ele>144</ele>
        <time>2019-04-14T10:27:29Z</time>
      </trkpt>
      <trkpt lat="44.4297" lon="1.34499">
        <ele>144</ele>
        <time>2019-04-14T10:27:30Z</time>
      </trkpt>
      <trkpt lat="44.42971" lon="1.34496">
        <ele>144</ele>
        <time>2019-04-14T10:27:31Z</time>
      </trkpt>
      <trkpt lat="44.4297" lon="1.34494">
        <ele>144</ele>
        <time>2019-04-14T10:27:32Z</time>
      </trkpt>
      <trkpt lat="44.42968" lon="1.34491">
        <ele>144</ele>
        <time>2019-04-14T10:27:33Z</time>
      </trkpt>
      <trkpt lat="44.42967" lon="1.34488">
        <ele>144</ele>
        <time>2019-04-14T10:27:34Z</time>
      </trkpt>
      <trkpt lat="44.42965" lon="1.34486">
        <ele>145</ele>
        <time>2019-04-14T10:27:35Z</time>
      </trkpt>
      <trkpt lat="44.42964" lon="1.34484">
        <ele>145</ele>
        <time>2019-04-14T10:27:36Z</time>
      </trkpt>
      <trkpt lat="44.42962" lon="1.34481">
        <ele>145</ele>
        <time>2019-04-14T10:27:37Z</time>
      </trkpt>
      <trkpt lat="44.42959" lon="1.34478">
        <ele>145</ele>
        <time>2019-04-14T10:27:38Z</time>
      </trkpt>
      <trkpt lat="44.42959" lon="1.34476">
        <ele>145</ele>
        <time>2019-04-14T10:27:39Z</time>
      </trkpt>
      <trkpt lat="44.42956" lon="1.34474">
        <ele>145</ele>
        <time>2019-04-14T10:27:40Z</time>
      </trkpt>
      <trkpt lat="44.42955" lon="1.34472">
        <ele>145</ele>
        <time>2019-04-14T10:27:41Z</time>
      </trkpt>
      <trkpt lat="44.42954" lon="1.3447">
        <ele>145</ele>
        <time>2019-04-14T10:27:42Z</time>
      </trkpt>
      <trkpt lat="44.42953" lon="1.34468">
        <ele>145</ele>
        <time>2019-04-14T10:27:43Z</time>
      </trkpt>
      <trkpt lat="44.42953" lon="1.34466">
        <ele>146</ele>
        <time>2019-04-14T10:27:44Z</time>
      </trkpt>
      <trkpt lat="44.42951" lon="1.34464">
        <ele>146</ele>
        <time>2019-04-14T10:27:45Z</time>
      </trkpt>
      <trkpt lat="44.42948" lon="1.3446">
        <ele>146</ele>
        <time>2019-04-14T10:27:46Z</time>
      </trkpt>
      <trkpt lat="44.42947" lon="1.34457">
        <ele>146</ele>
        <time>2019-04-14T10:27:47Z</time>
      </trkpt>
      <trkpt lat="44.42945" lon="1.34452">
        <ele>146</ele>
        <time>2019-04-14T10:27:48Z</time>
      </trkpt>
      <trkpt lat="44.42943" lon="1.3445">
        <ele>146</ele>
        <time>2019-04-14T10:27:49Z</time>
      </trkpt>
      <trkpt lat="44.42939" lon="1.34446">
        <ele>146</ele>
        <time>2019-04-14T10:27:50Z</time>
      </trkpt>
      <trkpt lat="44.42936" lon="1.34443">
        <ele>146</ele>
        <time>2019-04-14T10:27:51Z</time>
      </trkpt>
      <trkpt lat="44.42934" lon="1.3444">
        <ele>146</ele>
        <time>2019-04-14T10:27:52Z</time>
      </trkpt>
      <trkpt lat="44.42932" lon="1.34439">
        <ele>146</ele>
        <time>2019-04-14T10:27:53Z</time>
      </trkpt>
      <trkpt lat="44.42932" lon="1.34438">
        <ele>147</ele>
        <time>2019-04-14T10:27:54Z</time>
      </trkpt>
      <trkpt lat="44.42929" lon="1.34435">
        <ele>147</ele>
        <time>2019-04-14T10:27:55Z</time>
      </trkpt>
      <trkpt lat="44.42928" lon="1.34433">
        <ele>147</ele>
        <time>2019-04-14T10:27:56Z</time>
      </trkpt>
      <trkpt lat="44.42925" lon="1.34431">
        <ele>147</ele>
        <time>2019-04-14T10:27:57Z</time>
      </trkpt>
      <trkpt lat="44.42923" lon="1.34428">
        <ele>146</ele>
        <time>2019-04-14T10:27:58Z</time>
      </trkpt>
      <trkpt lat="44.42919" lon="1.34426">
        <ele>146</ele>
        <time>2019-04-14T10:27:59Z</time>
      </trkpt>
      <trkpt lat="44.42914" lon="1.34422">
        <ele>146</ele>
        <time>2019-04-14T10:28:00Z</time>
      </trkpt>
      <trkpt lat="44.42911" lon="1.34419">
        <ele>146</ele>
        <time>2019-04-14T10:28:01Z</time>
      </trkpt>
      <trkpt lat="44.42906" lon="1.34419">
        <ele>146</ele>
        <time>2019-04-14T10:28:02Z</time>
      </trkpt>
      <trkpt lat="44.42902" lon="1.34418">
        <ele>146</ele>
        <time>2019-04-14T10:28:03Z</time>
      </trkpt>
      <trkpt lat="44.42902" lon="1.34415">
        <ele>146</ele>
        <time>2019-04-14T10:28:04Z</time>
      </trkpt>
      <trkpt lat="44.42901" lon="1.34413">
        <ele>147</ele>
        <time>2019-04-14T10:28:05Z</time>
      </trkpt>
      <trkpt lat="44.42901" lon="1.34411">
        <ele>147</ele>
        <time>2019-04-14T10:28:06Z</time>
      </trkpt>
      <trkpt lat="44.42899" lon="1.3441">
        <ele>147</ele>
        <time>2019-04-14T10:28:07Z</time>
      </trkpt>
      <trkpt lat="44.42898" lon="1.34407">
        <ele>147</ele>
        <time>2019-04-14T10:28:08Z</time>
      </trkpt>
      <trkpt lat="44.42897" lon="1.34404">
        <ele>147</ele>
        <time>2019-04-14T10:28:09Z</time>
      </trkpt>
      <trkpt lat="44.42894" lon="1.344">
        <ele>147</ele>
        <time>2019-04-14T10:28:10Z</time>
      </trkpt>
      <trkpt lat="44.42893" lon="1.34396">
        <ele>147</ele>
        <time>2019-04-14T10:28:11Z</time>
      </trkpt>
      <trkpt lat="44.4289" lon="1.34393">
        <ele>147</ele>
        <time>2019-04-14T10:28:12Z</time>
      </trkpt>
      <trkpt lat="44.42887" lon="1.34391">
        <ele>147</ele>
        <time>2019-04-14T10:28:13Z</time>
      </trkpt>
      <trkpt lat="44.42885" lon="1.34388">
        <ele>147</ele>
        <time>2019-04-14T10:28:14Z</time>
      </trkpt>
      <trkpt lat="44.42884" lon="1.34386">
        <ele>147</ele>
        <time>2019-04-14T10:28:15Z</time>
      </trkpt>
      <trkpt lat="44.42882" lon="1.34384">
        <ele>147</ele>
        <time>2019-04-14T10:28:16Z</time>
      </trkpt>
      <trkpt lat="44.42881" lon="1.3438">
        <ele>147</ele>
        <time>2019-04-14T10:28:17Z</time>
      </trkpt>
      <trkpt lat="44.42879" lon="1.34379">
        <ele>147</ele>
        <time>2019-04-14T10:28:18Z</time>
      </trkpt>
      <trkpt lat="44.42876" lon="1.34376">
        <ele>147</ele>
        <time>2019-04-14T10:28:19Z</time>
      </trkpt>
      <trkpt lat="44.42875" lon="1.34375">
        <ele>147</ele>
        <time>2019-04-14T10:28:20Z</time>
      </trkpt>
      <trkpt lat="44.42871" lon="1.34374">
        <ele>148</ele>
        <time>2019-04-14T10:28:21Z</time>
      </trkpt>
      <trkpt lat="44.42869" lon="1.3437">
        <ele>148</ele>
        <time>2019-04-14T10:28:22Z</time>
      </trkpt>
      <trkpt lat="44.42865" lon="1.34367">
        <ele>148</ele>
        <time>2019-04-14T10:28:23Z</time>
      </trkpt>
      <trkpt lat="44.42861" lon="1.34364">
        <ele>148</ele>
        <time>2019-04-14T10:28:24Z</time>
      </trkpt>
      <trkpt lat="44.42859" lon="1.34361">
        <ele>148</ele>
        <time>2019-04-14T10:28:25Z</time>
      </trkpt>
      <trkpt lat="44.42857" lon="1.34358">
        <ele>148</ele>
        <time>2019-04-14T10:28:26Z</time>
      </trkpt>
      <trkpt lat="44.42856" lon="1.34357">
        <ele>148</ele>
        <time>2019-04-14T10:28:27Z</time>
      </trkpt>
      <trkpt lat="44.42854" lon="1.34354">
        <ele>148</ele>
        <time>2019-04-14T10:28:28Z</time>
      </trkpt>
      <trkpt lat="44.42852" lon="1.34352">
        <ele>148</ele>
        <time>2019-04-14T10:28:29Z</time>
      </trkpt>
      <trkpt lat="44.42853" lon="1.34349">
        <ele>148</ele>
        <time>2019-04-14T10:28:30Z</time>
      </trkpt>
      <trkpt lat="44.42853" lon="1.34348">
        <ele>148</ele>
        <time>2019-04-14T10:28:31Z</time>
      </trkpt>
      <trkpt lat="44.4285" lon="1.34346">
        <ele>149</ele>
        <time>2019-04-14T10:28:32Z</time>
      </trkpt>
      <trkpt lat="44.42846" lon="1.34343">
        <ele>149</ele>
        <time>2019-04-14T10:28:33Z</time>
      </trkpt>
      <trkpt lat="44.42846" lon="1.34339">
        <ele>149</ele>
        <time>2019-04-14T10:28:34Z</time>
      </trkpt>
      <trkpt lat="44.42843" lon="1.34336">
        <ele>149</ele>
        <time>2019-04-14T10:28:35Z</time>
      </trkpt>
      <trkpt lat="44.4284" lon="1.34333">
        <ele>149</ele>
        <time>2019-04-14T10:28:36Z</time>
      </trkpt>
      <trkpt lat="44.42837" lon="1.3433">
        <ele>149</ele>
        <time>2019-04-14T10:28:37Z</time>
      </trkpt>
      <trkpt lat="44.42835" lon="1.34329">
        <ele>149</ele>
        <time>2019-04-14T10:28:38Z</time>
      </trkpt>
      <trkpt lat="44.42836" lon="1.34328">
        <ele>149</ele>
        <time>2019-04-14T10:28:39Z</time>
      </trkpt>
      <trkpt lat="44.42836" lon="1.34327">
        <ele>150</ele>
        <time>2019-04-14T10:28:40Z</time>
      </trkpt>
      <trkpt lat="44.42834" lon="1.34326">
        <ele>150</ele>
        <time>2019-04-14T10:28:41Z</time>
      </trkpt>
      <trkpt lat="44.42834" lon="1.34325">
        <ele>150</ele>
        <time>2019-04-14T10:28:42Z</time>
      </trkpt>
      <trkpt lat="44.42831" lon="1.34324">
        <ele>150</ele>
        <time>2019-04-14T10:28:43Z</time>
      </trkpt>
      <trkpt lat="44.4283" lon="1.34322">
        <ele>151</ele>
        <time>2019-04-14T10:28:44Z</time>
      </trkpt>
      <trkpt lat="44.42828" lon="1.3432">
        <ele>151</ele>
        <time>2019-04-14T10:28:45Z</time>
      </trkpt>
      <trkpt lat="44.42825" lon="1.34318">
        <ele>151</ele>
        <time>2019-04-14T10:28:46Z</time>
      </trkpt>
      <trkpt lat="44.42823" lon="1.34314">
        <ele>150</ele>
        <time>2019-04-14T10:28:47Z</time>
      </trkpt>
      <trkpt lat="44.4282" lon="1.3431">
        <ele>151</ele>
        <time>2019-04-14T10:28:48Z</time>
      </trkpt>
      <trkpt lat="44.42818" lon="1.34308">
        <ele>151</ele>
        <time>2019-04-14T10:28:49Z</time>
      </trkpt>
      <trkpt lat="44.42816" lon="1.34307">
        <ele>151</ele>
        <time>2019-04-14T10:28:50Z</time>
      </trkpt>
      <trkpt lat="44.42815" lon="1.34306">
        <ele>151</ele>
        <time>2019-04-14T10:28:51Z</time>
      </trkpt>
      <trkpt lat="44.42812" lon="1.34304">
        <ele>151</ele>
        <time>2019-04-14T10:28:52Z</time>
      </trkpt>
      <trkpt lat="44.4281" lon="1.34301">
        <ele>151</ele>
        <time>2019-04-14T10:28:53Z</time>
      </trkpt>
      <trkpt lat="44.42807" lon="1.34298">
        <ele>151</ele>
        <time>2019-04-14T10:28:54Z</time>
      </trkpt>
      <trkpt lat="44.42807" lon="1.34296">
        <ele>151</ele>
        <time>2019-04-14T10:28:55Z</time>
      </trkpt>
      <trkpt lat="44.42806" lon="1.34294">
        <ele>151</ele>
        <time>2019-04-14T10:28:56Z</time>
      </trkpt>
      <trkpt lat="44.42805" lon="1.34292">
        <ele>151</ele>
        <time>2019-04-14T10:28:57Z</time>
      </trkpt>
      <trkpt lat="44.42804" lon="1.3429">
        <ele>151</ele>
        <time>2019-04-14T10:28:58Z</time>
      </trkpt>
      <trkpt lat="44.42801" lon="1.34288">
        <ele>151</ele>
        <time>2019-04-14T10:28:59Z</time>
      </trkpt>
      <trkpt lat="44.42797" lon="1.34285">
        <ele>151</ele>
        <time>2019-04-14T10:29:00Z</time>
      </trkpt>
      <trkpt lat="44.42795" lon="1.34283">
        <ele>151</ele>
        <time>2019-04-14T10:29:01Z</time>
      </trkpt>
      <trkpt lat="44.42793" lon="1.34281">
        <ele>152</ele>
        <time>2019-04-14T10:29:02Z</time>
      </trkpt>
      <trkpt lat="44.4279" lon="1.3428">
        <ele>152</ele>
        <time>2019-04-14T10:29:03Z</time>
      </trkpt>
      <trkpt lat="44.42786" lon="1.34278">
        <ele>152</ele>
        <time>2019-04-14T10:29:04Z</time>
      </trkpt>
      <trkpt lat="44.42784" lon="1.34275">
        <ele>152</ele>
        <time>2019-04-14T10:29:05Z</time>
      </trkpt>
      <trkpt lat="44.42779" lon="1.34273">
        <ele>152</ele>
        <time>2019-04-14T10:29:06Z</time>
      </trkpt>
      <trkpt lat="44.42777" lon="1.34271">
        <ele>152</ele>
        <time>2019-04-14T10:29:07Z</time>
      </trkpt>
      <trkpt lat="44.42775" lon="1.34269">
        <ele>152</ele>
        <time>2019-04-14T10:29:08Z</time>
      </trkpt>
      <trkpt lat="44.42775" lon="1.34268">
        <ele>152</ele>
        <time>2019-04-14T10:29:09Z</time>
      </trkpt>
      <trkpt lat="44.42774" lon="1.34267">
        <ele>151</ele>
        <time>2019-04-14T10:29:10Z</time>
      </trkpt>
      <trkpt lat="44.42771" lon="1.34265">
        <ele>151</ele>
        <time>2019-04-14T10:29:11Z</time>
      </trkpt>
      <trkpt lat="44.42769" lon="1.34264">
        <ele>151</ele>
        <time>2019-04-14T10:29:12Z</time>
      </trkpt>
      <trkpt lat="44.42765" lon="1.34263">
        <ele>152</ele>
        <time>2019-04-14T10:29:13Z</time>
      </trkpt>
      <trkpt lat="44.4276" lon="1.34261">
        <ele>152</ele>
        <time>2019-04-14T10:29:14Z</time>
      </trkpt>
      <trkpt lat="44.42759" lon="1.34261">
        <ele>152</ele>
        <time>2019-04-14T10:29:15Z</time>
      </trkpt>
      <trkpt lat="44.42756" lon="1.34259">
        <ele>152</ele>
        <time>2019-04-14T10:29:16Z</time>
      </trkpt>
      <trkpt lat="44.42752" lon="1.34258">
        <ele>152</ele>
        <time>2019-04-14T10:29:17Z</time>
      </trkpt>
      <trkpt lat="44.42751" lon="1.34256">
        <ele>152</ele>
        <time>2019-04-14T10:29:18Z</time>
      </trkpt>
      <trkpt lat="44.42748" lon="1.34255">
        <ele>152</ele>
        <time>2019-04-14T10:29:19Z</time>
      </trkpt>
      <trkpt lat="44.42745" lon="1.34254">
        <ele>152</ele>
        <time>2019-04-14T10:29:20Z</time>
      </trkpt>
      <trkpt lat="44.42744" lon="1.34252">
        <ele>152</ele>
        <time>2019-04-14T10:29:21Z</time>
      </trkpt>
      <trkpt lat="44.42741" lon="1.34251">
        <ele>152</ele>
        <time>2019-04-14T10:29:22Z</time>
      </trkpt>
      <trkpt lat="44.42739" lon="1.34249">
        <ele>152</ele>
        <time>2019-04-14T10:29:23Z</time>
      </trkpt>
      <trkpt lat="44.42737" lon="1.34249">
        <ele>152</ele>
        <time>2019-04-14T10:29:24Z</time>
      </trkpt>
      <trkpt lat="44.42736" lon="1.34248">
        <ele>153</ele>
        <time>2019-04-14T10:29:25Z</time>
      </trkpt>
      <trkpt lat="44.42735" lon="1.34247">
        <ele>153</ele>
        <time>2019-04-14T10:29:26Z</time>
      </trkpt>
      <trkpt lat="44.42732" lon="1.34247">
        <ele>153</ele>
        <time>2019-04-14T10:29:27Z</time>
      </trkpt>
      <trkpt lat="44.42732" lon="1.34247">
        <ele>152</ele>
        <time>2019-04-14T10:29:28Z</time>
      </trkpt>
      <trkpt lat="44.42729" lon="1.34246">
        <ele>152</ele>
        <time>2019-04-14T10:29:29Z</time>
      </trkpt>
      <trkpt lat="44.42727" lon="1.34246">
        <ele>153</ele>
        <time>2019-04-14T10:29:30Z</time>
      </trkpt>
      <trkpt lat="44.42726" lon="1.34246">
        <ele>153</ele>
        <time>2019-04-14T10:29:31Z</time>
      </trkpt>
      <trkpt lat="44.42724" lon="1.34245">
        <ele>153</ele>
        <time>2019-04-14T10:29:32Z</time>
      </trkpt>
      <trkpt lat="44.42722" lon="1.34244">
        <ele>153</ele>
        <time>2019-04-14T10:29:33Z</time>
      </trkpt>
      <trkpt lat="44.4272" lon="1.34243">
        <ele>153</ele>
        <time>2019-04-14T10:29:34Z</time>
      </trkpt>
      <trkpt lat="44.42716" lon="1.34243">
        <ele>153</ele>
        <time>2019-04-14T10:29:35Z</time>
      </trkpt>
      <trkpt lat="44.42714" lon="1.34243">
        <ele>153</ele>
        <time>2019-04-14T10:29:36Z</time>
      </trkpt>
      <trkpt lat="44.42713" lon="1.34242">
        <ele>153</ele>
        <time>2019-04-14T10:29:37Z</time>
      </trkpt>
      <trkpt lat="44.42711" lon="1.34241">
        <ele>153</ele>
        <time>2019-04-14T10:29:38Z</time>
      </trkpt>
      <trkpt lat="44.42708" lon="1.34239">
        <ele>153</ele>
        <time>2019-04-14T10:29:39Z</time>
      </trkpt>
      <trkpt lat="44.42707" lon="1.34238">
        <ele>152</ele>
        <time>2019-04-14T10:29:40Z</time>
      </trkpt>
      <trkpt lat="44.42705" lon="1.34237">
        <ele>152</ele>
        <time>2019-04-14T10:29:41Z</time>
      </trkpt>
      <trkpt lat="44.42702" lon="1.34237">
        <ele>152</ele>
        <time>2019-04-14T10:29:42Z</time>
      </trkpt>
      <trkpt lat="44.427" lon="1.34237">
        <ele>153</ele>
        <time>2019-04-14T10:29:43Z</time>
      </trkpt>
      <trkpt lat="44.42696" lon="1.34235">
        <ele>153</ele>
        <time>2019-04-14T10:29:44Z</time>
      </trkpt>
      <trkpt lat="44.42694" lon="1.34235">
        <ele>153</ele>
        <time>2019-04-14T10:29:45Z</time>
      </trkpt>
      <trkpt lat="44.42692" lon="1.34234">
        <ele>153</ele>
        <time>2019-04-14T10:29:46Z</time>
      </trkpt>
      <trkpt lat="44.4269" lon="1.34233">
        <ele>153</ele>
        <time>2019-04-14T10:29:47Z</time>
      </trkpt>
      <trkpt lat="44.42686" lon="1.34231">
        <ele>153</ele>
        <time>2019-04-14T10:29:48Z</time>
      </trkpt>
      <trkpt lat="44.42683" lon="1.34231">
        <ele>153</ele>
        <time>2019-04-14T10:29:49Z</time>
      </trkpt>
      <trkpt lat="44.42681" lon="1.3423">
        <ele>153</ele>
        <time>2019-04-14T10:29:50Z</time>
      </trkpt>
      <trkpt lat="44.4268" lon="1.34229">
        <ele>154</ele>
        <time>2019-04-14T10:29:51Z</time>
      </trkpt>
      <trkpt lat="44.42677" lon="1.34228">
        <ele>154</ele>
        <time>2019-04-14T10:29:52Z</time>
      </trkpt>
      <trkpt lat="44.42676" lon="1.34228">
        <ele>154</ele>
        <time>2019-04-14T10:29:53Z</time>
      </trkpt>
      <trkpt lat="44.42675" lon="1.34227">
        <ele>154</ele>
        <time>2019-04-14T10:29:54Z</time>
      </trkpt>
      <trkpt lat="44.42674" lon="1.34226">
        <ele>154</ele>
        <time>2019-04-14T10:29:55Z</time>
      </trkpt>
      <trkpt lat="44.42672" lon="1.34226">
        <ele>154</ele>
        <time>2019-04-14T10:29:56Z</time>
      </trkpt>
      <trkpt lat="44.42671" lon="1.34226">
        <ele>154</ele>
        <time>2019-04-14T10:29:57Z</time>
      </trkpt>
      <trkpt lat="44.42666" lon="1.34225">
        <ele>154</ele>
        <time>2019-04-14T10:29:58Z</time>
      </trkpt>
      <trkpt lat="44.42666" lon="1.34228">
        <ele>154</ele>
        <time>2019-04-14T10:29:59Z</time>
      </trkpt>
      <trkpt lat="44.42662" lon="1.3423">
        <ele>154</ele>
        <time>2019-04-14T10:30:00Z</time>
      </trkpt>
      <trkpt lat="44.42643" lon="1.34224">
        <ele>155</ele>
        <time>2019-04-14T10:30:06Z</time>
      </trkpt>
      <trkpt lat="44.42642" lon="1.34223">
        <ele>155</ele>
        <time>2019-04-14T10:30:07Z</time>
      </trkpt>
      <trkpt lat="44.4264" lon="1.34223">
        <ele>155</ele>
        <time>2019-04-14T10:30:08Z</time>
      </trkpt>
      <trkpt lat="44.42638" lon="1.34223">
        <ele>155</ele>
        <time>2019-04-14T10:30:09Z</time>
      </trkpt>
      <trkpt lat="44.42638" lon="1.34223">
        <ele>155</ele>
        <time>2019-04-14T10:30:10Z</time>
      </trkpt>
      <trkpt lat="44.42635" lon="1.34222">
        <ele>155</ele>
        <time>2019-04-14T10:30:11Z</time>
      </trkpt>
      <trkpt lat="44.42635" lon="1.34223">
        <ele>155</ele>
        <time>2019-04-14T10:30:12Z</time>
      </trkpt>
      <trkpt lat="44.42633" lon="1.34223">
        <ele>155</ele>
        <time>2019-04-14T10:30:13Z</time>
      </trkpt>
      <trkpt lat="44.42632" lon="1.34223">
        <ele>155</ele>
        <time>2019-04-14T10:30:14Z</time>
      </trkpt>
      <trkpt lat="44.4263" lon="1.34223">
        <ele>155</ele>
        <time>2019-04-14T10:30:15Z</time>
      </trkpt>
      <trkpt lat="44.42629" lon="1.34222">
        <ele>155</ele>
        <time>2019-04-14T10:30:16Z</time>
      </trkpt>
      <trkpt lat="44.42627" lon="1.34222">
        <ele>155</ele>
        <time>2019-04-14T10:30:17Z</time>
      </trkpt>
      <trkpt lat="44.42625" lon="1.34221">
        <ele>155</ele>
        <time>2019-04-14T10:30:18Z</time>
      </trkpt>
      <trkpt lat="44.42624" lon="1.34221">
        <ele>155</ele>
        <time>2019-04-14T10:30:19Z</time>
      </trkpt>
      <trkpt lat="44.42624" lon="1.34221">
        <ele>155</ele>
        <time>2019-04-14T10:30:20Z</time>
      </trkpt>
      <trkpt lat="44.42584" lon="1.34213">
        <ele>158</ele>
        <time>2019-04-14T10:30:49Z</time>
      </trkpt>
      <trkpt lat="44.42581" lon="1.34213">
        <ele>158</ele>
        <time>2019-04-14T10:30:50Z</time>
      </trkpt>
      <trkpt lat="44.42578" lon="1.34212">
        <ele>158</ele>
        <time>2019-04-14T10:30:51Z</time>
      </trkpt>
      <trkpt lat="44.42576" lon="1.34212">
        <ele>158</ele>
        <time>2019-04-14T10:30:52Z</time>
      </trkpt>
      <trkpt lat="44.42574" lon="1.34212">
        <ele>159</ele>
        <time>2019-04-14T10:30:53Z</time>
      </trkpt>
      <trkpt lat="44.42572" lon="1.34212">
        <ele>158</ele>
        <time>2019-04-14T10:30:54Z</time>
      </trkpt>
      <trkpt lat="44.42569" lon="1.34211">
        <ele>159</ele>
        <time>2019-04-14T10:30:55Z</time>
      </trkpt>
      <trkpt lat="44.42567" lon="1.34211">
        <ele>159</ele>
        <time>2019-04-14T10:30:56Z</time>
      </trkpt>
      <trkpt lat="44.42564" lon="1.34211">
        <ele>159</ele>
        <time>2019-04-14T10:30:57Z</time>
      </trkpt>
      <trkpt lat="44.42562" lon="1.34211">
        <ele>159</ele>
        <time>2019-04-14T10:30:58Z</time>
      </trkpt>
      <trkpt lat="44.42559" lon="1.34212">
        <ele>159</ele>
        <time>2019-04-14T10:30:59Z</time>
      </trkpt>
      <trkpt lat="44.42556" lon="1.34212">
        <ele>159</ele>
        <time>2019-04-14T10:31:00Z</time>
      </trkpt>
      <trkpt lat="44.42553" lon="1.34212">
        <ele>159</ele>
        <time>2019-04-14T10:31:01Z</time>
      </trkpt>
      <trkpt lat="44.42551" lon="1.34212">
        <ele>159</ele>
        <time>2019-04-14T10:31:02Z</time>
      </trkpt>
      <trkpt lat="44.42549" lon="1.34213">
        <ele>159</ele>
        <time>2019-04-14T10:31:03Z</time>
      </trkpt>
      <trkpt lat="44.42547" lon="1.34212">
        <ele>159</ele>
        <time>2019-04-14T10:31:04Z</time>
      </trkpt>
      <trkpt lat="44.42545" lon="1.34212">
        <ele>159</ele>
        <time>2019-04-14T10:31:05Z</time>
      </trkpt>
      <trkpt lat="44.42544" lon="1.34213">
        <ele>159</ele>
        <time>2019-04-14T10:31:06Z</time>
      </trkpt>
      <trkpt lat="44.42542" lon="1.34214">
        <ele>159</ele>
        <time>2019-04-14T10:31:07Z</time>
      </trkpt>
      <trkpt lat="44.4254" lon="1.34214">
        <ele>159</ele>
        <time>2019-04-14T10:31:08Z</time>
      </trkpt>
      <trkpt lat="44.42537" lon="1.34214">
        <ele>159</ele>
        <time>2019-04-14T10:31:09Z</time>
      </trkpt>
      <trkpt lat="44.42535" lon="1.34215">
        <ele>159</ele>
        <time>2019-04-14T10:31:10Z</time>
      </trkpt>
      <trkpt lat="44.42533" lon="1.34217">
        <ele>159</ele>
        <time>2019-04-14T10:31:11Z</time>
      </trkpt>
      <trkpt lat="44.42531" lon="1.34217">
        <ele>159</ele>
        <time>2019-04-14T10:31:12Z</time>
      </trkpt>
      <trkpt lat="44.42529" lon="1.34218">
        <ele>159</ele>
        <time>2019-04-14T10:31:13Z</time>
      </trkpt>
      <trkpt lat="44.42528" lon="1.34217">
        <ele>159</ele>
        <time>2019-04-14T10:31:14Z</time>
      </trkpt>
      <trkpt lat="44.42527" lon="1.34218">
        <ele>159</ele>
        <time>2019-04-14T10:31:15Z</time>
      </trkpt>
      <trkpt lat="44.42524" lon="1.34219">
        <ele>159</ele>
        <time>2019-04-14T10:31:16Z</time>
      </trkpt>
      <trkpt lat="44.42522" lon="1.34221">
        <ele>159</ele>
        <time>2019-04-14T10:31:17Z</time>
      </trkpt>
      <trkpt lat="44.42519" lon="1.34223">
        <ele>159</ele>
        <time>2019-04-14T10:31:18Z</time>
      </trkpt>
      <trkpt lat="44.42517" lon="1.34225">
        <ele>159</ele>
        <time>2019-04-14T10:31:19Z</time>
      </trkpt>
      <trkpt lat="44.42516" lon="1.34227">
        <ele>159</ele>
        <time>2019-04-14T10:31:20Z</time>
      </trkpt>
      <trkpt lat="44.42514" lon="1.34229">
        <ele>159</ele>
        <time>2019-04-14T10:31:21Z</time>
      </trkpt>
      <trkpt lat="44.42512" lon="1.3423">
        <ele>159</ele>
        <time>2019-04-14T10:31:22Z</time>
      </trkpt>
      <trkpt lat="44.4251" lon="1.34231">
        <ele>159</ele>
        <time>2019-04-14T10:31:23Z</time>
      </trkpt>
      <trkpt lat="44.42508" lon="1.34232">
        <ele>159</ele>
        <time>2019-04-14T10:31:24Z</time>
      </trkpt>
      <trkpt lat="44.42507" lon="1.34235">
        <ele>158</ele>
        <time>2019-04-14T10:31:25Z</time>
      </trkpt>
      <trkpt lat="44.42504" lon="1.34235">
        <ele>158</ele>
        <time>2019-04-14T10:31:26Z</time>
      </trkpt>
      <trkpt lat="44.42502" lon="1.34235">
        <ele>158</ele>
        <time>2019-04-14T10:31:27Z</time>
      </trkpt>
      <trkpt lat="44.42499" lon="1.34236">
        <ele>158</ele>
        <time>2019-04-14T10:31:28Z</time>
      </trkpt>
      <trkpt lat="44.42497" lon="1.34238">
        <ele>158</ele>
        <time>2019-04-14T10:31:29Z</time>
      </trkpt>
      <trkpt lat="44.42496" lon="1.34241">
        <ele>158</ele>
        <time>2019-04-14T10:31:30Z</time>
      </trkpt>
      <trkpt lat="44.42493" lon="1.34243">
        <ele>158</ele>
        <time>2019-04-14T10:31:31Z</time>
      </trkpt>
      <trkpt lat="44.42492" lon="1.34246">
        <ele>158</ele>
        <time>2019-04-14T10:31:32Z</time>
      </trkpt>
      <trkpt lat="44.4249" lon="1.34248">
        <ele>158</ele>
        <time>2019-04-14T10:31:33Z</time>
      </trkpt>
      <trkpt lat="44.4249" lon="1.3425">
        <ele>158</ele>
        <time>2019-04-14T10:31:34Z</time>
      </trkpt>
      <trkpt lat="44.42487" lon="1.34252">
        <ele>158</ele>
        <time>2019-04-14T10:31:35Z</time>
      </trkpt>
      <trkpt lat="44.42485" lon="1.34254">
        <ele>158</ele>
        <time>2019-04-14T10:31:36Z</time>
      </trkpt>
      <trkpt lat="44.42482" lon="1.34256">
        <ele>158</ele>
        <time>2019-04-14T10:31:37Z</time>
      </trkpt>
      <trkpt lat="44.42481" lon="1.34259">
        <ele>158</ele>
        <time>2019-04-14T10:31:38Z</time>
      </trkpt>
      <trkpt lat="44.42478" lon="1.34261">
        <ele>159</ele>
        <time>2019-04-14T10:31:39Z</time>
      </trkpt>
      <trkpt lat="44.42477" lon="1.34263">
        <ele>159</ele>
        <time>2019-04-14T10:31:40Z</time>
      </trkpt>
      <trkpt lat="44.42476" lon="1.34265">
        <ele>158</ele>
        <time>2019-04-14T10:31:41Z</time>
      </trkpt>
      <trkpt lat="44.42476" lon="1.34267">
        <ele>158</ele>
        <time>2019-04-14T10:31:42Z</time>
      </trkpt>
      <trkpt lat="44.42472" lon="1.34268">
        <ele>158</ele>
        <time>2019-04-14T10:31:43Z</time>
      </trkpt>
      <trkpt lat="44.42469" lon="1.3427">
        <ele>158</ele>
        <time>2019-04-14T10:31:44Z</time>
      </trkpt>
      <trkpt lat="44.42467" lon="1.34271">
        <ele>158</ele>
        <time>2019-04-14T10:31:45Z</time>
      </trkpt>
      <trkpt lat="44.42466" lon="1.34274">
        <ele>158</ele>
        <time>2019-04-14T10:31:46Z</time>
      </trkpt>
      <trkpt lat="44.42465" lon="1.34276">
        <ele>158</ele>
        <time>2019-04-14T10:31:47Z</time>
      </trkpt>
      <trkpt lat="44.42464" lon="1.34278">
        <ele>158</ele>
        <time>2019-04-14T10:31:48Z</time>
      </trkpt>
      <trkpt lat="44.42464" lon="1.34279">
        <ele>158</ele>
        <time>2019-04-14T10:31:49Z</time>
      </trkpt>
      <trkpt lat="44.42462" lon="1.3428">
        <ele>159</ele>
        <time>2019-04-14T10:31:50Z</time>
      </trkpt>
      <trkpt lat="44.42462" lon="1.34283">
        <ele>159</ele>
        <time>2019-04-14T10:31:51Z</time>
      </trkpt>
      <trkpt lat="44.42461" lon="1.34284">
        <ele>159</ele>
        <time>2019-04-14T10:31:52Z</time>
      </trkpt>
      <trkpt lat="44.4246" lon="1.34286">
        <ele>160</ele>
        <time>2019-04-14T10:31:53Z</time>
      </trkpt>
      <trkpt lat="44.4246" lon="1.34285">
        <ele>159</ele>
        <time>2019-04-14T10:31:54Z</time>
      </trkpt>
      <trkpt lat="44.4246" lon="1.34286">
        <ele>159</ele>
        <time>2019-04-14T10:31:55Z</time>
      </trkpt>
      <trkpt lat="44.4246" lon="1.34286">
        <ele>159</ele>
        <time>2019-04-14T10:31:56Z</time>
      </trkpt>
      <trkpt lat="44.42459" lon="1.34286">
        <ele>160</ele>
        <time>2019-04-14T10:31:57Z</time>
      </trkpt>
      <trkpt lat="44.42458" lon="1.34287">
        <ele>160</ele>
        <time>2019-04-14T10:31:58Z</time>
      </trkpt>
      <trkpt lat="44.42456" lon="1.34288">
        <ele>160</ele>
        <time>2019-04-14T10:31:59Z</time>
      </trkpt>
      <trkpt lat="44.42438" lon="1.343">
        <ele>161</ele>
        <time>2019-04-14T10:32:09Z</time>
      </trkpt>
      <trkpt lat="44.42436" lon="1.34302">
        <ele>161</ele>
        <time>2019-04-14T10:32:10Z</time>
      </trkpt>
      <trkpt lat="44.42435" lon="1.34304">
        <ele>161</ele>
        <time>2019-04-14T10:32:11Z</time>
      </trkpt>
      <trkpt lat="44.42432" lon="1.34304">
        <ele>161</ele>
        <time>2019-04-14T10:32:12Z</time>
      </trkpt>
      <trkpt lat="44.4243" lon="1.34306">
        <ele>161</ele>
        <time>2019-04-14T10:32:13Z</time>
      </trkpt>
      <trkpt lat="44.42429" lon="1.34309">
        <ele>161</ele>
        <time>2019-04-14T10:32:14Z</time>
      </trkpt>
      <trkpt lat="44.42427" lon="1.34311">
        <ele>161</ele>
        <time>2019-04-14T10:32:15Z</time>
      </trkpt>
      <trkpt lat="44.42423" lon="1.34311">
        <ele>161</ele>
        <time>2019-04-14T10:32:16Z</time>
      </trkpt>
      <trkpt lat="44.4242" lon="1.34311">
        <ele>160</ele>
        <time>2019-04-14T10:32:17Z</time>
      </trkpt>
      <trkpt lat="44.42416" lon="1.34312">
        <ele>160</ele>
        <time>2019-04-14T10:32:18Z</time>
      </trkpt>
      <trkpt lat="44.42413" lon="1.34313">
        <ele>160</ele>
        <time>2019-04-14T10:32:19Z</time>
      </trkpt>
      <trkpt lat="44.42411" lon="1.34316">
        <ele>160</ele>
        <time>2019-04-14T10:32:20Z</time>
      </trkpt>
      <trkpt lat="44.4241" lon="1.34319">
        <ele>160</ele>
        <time>2019-04-14T10:32:21Z</time>
      </trkpt>
      <trkpt lat="44.42408" lon="1.34322">
        <ele>161</ele>
        <time>2019-04-14T10:32:22Z</time>
      </trkpt>
      <trkpt lat="44.42405" lon="1.34324">
        <ele>161</ele>
        <time>2019-04-14T10:32:23Z</time>
      </trkpt>
      <trkpt lat="44.42404" lon="1.34326">
        <ele>161</ele>
        <time>2019-04-14T10:32:24Z</time>
      </trkpt>
      <trkpt lat="44.42402" lon="1.34328">
        <ele>161</ele>
        <time>2019-04-14T10:32:25Z</time>
      </trkpt>
      <trkpt lat="44.424" lon="1.34329">
        <ele>161</ele>
        <time>2019-04-14T10:32:26Z</time>
      </trkpt>
      <trkpt lat="44.42398" lon="1.3433">
        <ele>161</ele>
        <time>2019-04-14T10:32:27Z</time>
      </trkpt>
      <trkpt lat="44.42396" lon="1.34331">
        <ele>161</ele>
        <time>2019-04-14T10:32:28Z</time>
      </trkpt>
      <trkpt lat="44.42394" lon="1.34332">
        <ele>161</ele>
        <time>2019-04-14T10:32:29Z</time>
      </trkpt>
      <trkpt lat="44.42391" lon="1.34333">
        <ele>161</ele>
        <time>2019-04-14T10:32:30Z</time>
      </trkpt>
      <trkpt lat="44.42389" lon="1.34335">
        <ele>161</ele>
        <time>2019-04-14T10:32:31Z</time>
      </trkpt>
      <trkpt lat="44.42388" lon="1.34337">
        <ele>161</ele>
        <time>2019-04-14T10:32:32Z</time>
      </trkpt>
      <trkpt lat="44.42386" lon="1.34339">
        <ele>162</ele>
        <time>2019-04-14T10:32:33Z</time>
      </trkpt>
      <trkpt lat="44.42384" lon="1.34339">
        <ele>162</ele>
        <time>2019-04-14T10:32:34Z</time>
      </trkpt>
      <trkpt lat="44.42382" lon="1.34338">
        <ele>162</ele>
        <time>2019-04-14T10:32:35Z</time>
      </trkpt>
      <trkpt lat="44.42381" lon="1.34336">
        <ele>161</ele>
        <time>2019-04-14T10:32:36Z</time>
      </trkpt>
      <trkpt lat="44.42378" lon="1.34335">
        <ele>161</ele>
        <time>2019-04-14T10:32:37Z</time>
      </trkpt>
      <trkpt lat="44.42376" lon="1.34331">
        <ele>161</ele>
        <time>2019-04-14T10:32:38Z</time>
      </trkpt>
      <trkpt lat="44.42376" lon="1.34328">
        <ele>160</ele>
        <time>2019-04-14T10:32:39Z</time>
      </trkpt>
      <trkpt lat="44.42375" lon="1.34325">
        <ele>160</ele>
        <time>2019-04-14T10:32:40Z</time>
      </trkpt>
      <trkpt lat="44.42373" lon="1.34322">
        <ele>160</ele>
        <time>2019-04-14T10:32:41Z</time>
      </trkpt>
      <trkpt lat="44.42373" lon="1.34319">
        <ele>160</ele>
        <time>2019-04-14T10:32:42Z</time>
      </trkpt>
      <trkpt lat="44.42373" lon="1.34317">
        <ele>160</ele>
        <time>2019-04-14T10:32:43Z</time>
      </trkpt>
      <trkpt lat="44.42373" lon="1.34315">
        <ele>160</ele>
        <time>2019-04-14T10:32:44Z</time>
      </trkpt>
      <trkpt lat="44.42373" lon="1.34314">
        <ele>160</ele>
        <time>2019-04-14T10:32:45Z</time>
      </trkpt>
      <trkpt lat="44.42372" lon="1.34313">
        <ele>160</ele>
        <time>2019-04-14T10:32:46Z</time>
      </trkpt>
      <trkpt lat="44.42373" lon="1.34312">
        <ele>160</ele>
        <time>2019-04-14T10:32:47Z</time>
      </trkpt>
      <trkpt lat="44.42373" lon="1.34311">
        <ele>160</ele>
        <time>2019-04-14T10:32:48Z</time>
      </trkpt>
      <trkpt lat="44.42373" lon="1.3431">
        <ele>160</ele>
        <time>2019-04-14T10:32:49Z</time>
      </trkpt>
      <trkpt lat="44.42374" lon="1.34309">
        <ele>160</ele>
        <time>2019-04-14T10:32:50Z</time>
      </trkpt>
      <trkpt lat="44.42375" lon="1.34308">
        <ele>160</ele>
        <time>2019-04-14T10:32:51Z</time>
      </trkpt>
      <trkpt lat="44.42376" lon="1.34307">
        <ele>160</ele>
        <time>2019-04-14T10:32:52Z</time>
      </trkpt>
      <trkpt lat="44.42377" lon="1.34305">
        <ele>160</ele>
        <time>2019-04-14T10:32:53Z</time>
      </trkpt>
      <trkpt lat="44.42378" lon="1.34303">
        <ele>160</ele>
        <time>2019-04-14T10:32:54Z</time>
      </trkpt>
      <trkpt lat="44.42379" lon="1.34302">
        <ele>160</ele>
        <time>2019-04-14T10:32:55Z</time>
      </trkpt>
      <trkpt lat="44.42379" lon="1.34301">
        <ele>160</ele>
        <time>2019-04-14T10:32:56Z</time>
      </trkpt>
      <trkpt lat="44.42381" lon="1.34299">
        <ele>160</ele>
        <time>2019-04-14T10:32:57Z</time>
      </trkpt>
      <trkpt lat="44.42383" lon="1.34297">
        <ele>160</ele>
        <time>2019-04-14T10:32:58Z</time>
      </trkpt>
      <trkpt lat="44.42384" lon="1.34296">
        <ele>160</ele>
        <time>2019-04-14T10:32:59Z</time>
      </trkpt>
      <trkpt lat="44.42386" lon="1.34296">
        <ele>160</ele>
        <time>2019-04-14T10:33:00Z</time>
      </trkpt>
      <trkpt lat="44.42387" lon="1.34295">
        <ele>160</ele>
        <time>2019-04-14T10:33:01Z</time>
      </trkpt>
      <trkpt lat="44.42389" lon="1.34292">
        <ele>160</ele>
        <time>2019-04-14T10:33:02Z</time>
      </trkpt>
      <trkpt lat="44.4239" lon="1.34291">
        <ele>160</ele>
        <time>2019-04-14T10:33:03Z</time>
      </trkpt>
      <trkpt lat="44.42391" lon="1.34289">
        <ele>160</ele>
        <time>2019-04-14T10:33:04Z</time>
      </trkpt>
      <trkpt lat="44.42393" lon="1.34288">
        <ele>160</ele>
        <time>2019-04-14T10:33:05Z</time>
      </trkpt>
      <trkpt lat="44.42396" lon="1.34285">
        <ele>160</ele>
        <time>2019-04-14T10:33:06Z</time>
      </trkpt>
      <trkpt lat="44.42398" lon="1.34283">
        <ele>159</ele>
        <time>2019-04-14T10:33:07Z</time>
      </trkpt>
      <trkpt lat="44.42401" lon="1.34281">
        <ele>159</ele>
        <time>2019-04-14T10:33:08Z</time>
      </trkpt>
      <trkpt lat="44.42404" lon="1.34278">
        <ele>159</ele>
        <time>2019-04-14T10:33:09Z</time>
      </trkpt>
      <trkpt lat="44.42406" lon="1.34275">
        <ele>159</ele>
        <time>2019-04-14T10:33:10Z</time>
      </trkpt>
      <trkpt lat="44.42408" lon="1.34272">
        <ele>159</ele>
        <time>2019-04-14T10:33:11Z</time>
      </trkpt>
      <trkpt lat="44.42411" lon="1.34269">
        <ele>159</ele>
        <time>2019-04-14T10:33:12Z</time>
      </trkpt>
      <trkpt lat="44.42415" lon="1.34266">
        <ele>159</ele>
        <time>2019-04-14T10:33:13Z</time>
      </trkpt>
      <trkpt lat="44.42419" lon="1.34263">
        <ele>159</ele>
        <time>2019-04-14T10:33:14Z</time>
      </trkpt>
      <trkpt lat="44.42421" lon="1.3426">
        <ele>159</ele>
        <time>2019-04-14T10:33:15Z</time>
      </trkpt>
      <trkpt lat="44.42423" lon="1.34256">
        <ele>159</ele>
        <time>2019-04-14T10:33:16Z</time>
      </trkpt>
      <trkpt lat="44.42426" lon="1.34252">
        <ele>159</ele>
        <time>2019-04-14T10:33:17Z</time>
      </trkpt>
      <trkpt lat="44.42428" lon="1.34249">
        <ele>158</ele>
        <time>2019-04-14T10:33:18Z</time>
      </trkpt>
      <trkpt lat="44.42431" lon="1.34245">
        <ele>158</ele>
        <time>2019-04-14T10:33:19Z</time>
      </trkpt>
      <trkpt lat="44.42435" lon="1.34241">
        <ele>158</ele>
        <time>2019-04-14T10:33:20Z</time>
      </trkpt>
      <trkpt lat="44.42437" lon="1.34237">
        <ele>158</ele>
        <time>2019-04-14T10:33:21Z</time>
      </trkpt>
      <trkpt lat="44.42439" lon="1.34232">
        <ele>158</ele>
        <time>2019-04-14T10:33:22Z</time>
      </trkpt>
      <trkpt lat="44.42442" lon="1.34227">
        <ele>158</ele>
        <time>2019-04-14T10:33:23Z</time>
      </trkpt>
      <trkpt lat="44.42445" lon="1.34222">
        <ele>158</ele>
        <time>2019-04-14T10:33:24Z</time>
      </trkpt>
      <trkpt lat="44.42447" lon="1.34217">
        <ele>158</ele>
        <time>2019-04-14T10:33:25Z</time>
      </trkpt>
      <trkpt lat="44.4245" lon="1.34212">
        <ele>158</ele>
        <time>2019-04-14T10:33:26Z</time>
      </trkpt>
      <trkpt lat="44.42454" lon="1.34208">
        <ele>157</ele>
        <time>2019-04-14T10:33:27Z</time>
      </trkpt>
      <trkpt lat="44.42457" lon="1.34204">
        <ele>157</ele>
        <time>2019-04-14T10:33:28Z</time>
      </trkpt>
      <trkpt lat="44.4246" lon="1.342">
        <ele>157</ele>
        <time>2019-04-14T10:33:29Z</time>
      </trkpt>
      <trkpt lat="44.42463" lon="1.34196">
        <ele>157</ele>
        <time>2019-04-14T10:33:30Z</time>
      </trkpt>
      <trkpt lat="44.42466" lon="1.34192">
        <ele>157</ele>
        <time>2019-04-14T10:33:31Z</time>
      </trkpt>
      <trkpt lat="44.42469" lon="1.34188">
        <ele>157</ele>
        <time>2019-04-14T10:33:32Z</time>
      </trkpt>
      <trkpt lat="44.42471" lon="1.34184">
        <ele>157</ele>
        <time>2019-04-14T10:33:33Z</time>
      </trkpt>
      <trkpt lat="44.42473" lon="1.3418">
        <ele>157</ele>
        <time>2019-04-14T10:33:34Z</time>
      </trkpt>
      <trkpt lat="44.42474" lon="1.34176">
        <ele>157</ele>
        <time>2019-04-14T10:33:35Z</time>
      </trkpt>
      <trkpt lat="44.42476" lon="1.34172">
        <ele>157</ele>
        <time>2019-04-14T10:33:36Z</time>
      </trkpt>
      <trkpt lat="44.42478" lon="1.34168">
        <ele>157</ele>
        <time>2019-04-14T10:33:37Z</time>
      </trkpt>
      <trkpt lat="44.42481" lon="1.34164">
        <ele>157</ele>
        <time>2019-04-14T10:33:38Z</time>
      </trkpt>
      <trkpt lat="44.42484" lon="1.34162">
        <ele>157</ele>
        <time>2019-04-14T10:33:39Z</time>
      </trkpt>
      <trkpt lat="44.42489" lon="1.3416">
        <ele>157</ele>
        <time>2019-04-14T10:33:40Z</time>
      </trkpt>
      <trkpt lat="44.42493" lon="1.34157">
        <ele>157</ele>
        <time>2019-04-14T10:33:41Z</time>
      </trkpt>
      <trkpt lat="44.42497" lon="1.34155">
        <ele>157</ele>
        <time>2019-04-14T10:33:42Z</time>
      </trkpt>
      <trkpt lat="44.42499" lon="1.34152">
        <ele>158</ele>
        <time>2019-04-14T10:33:43Z</time>
      </trkpt>
      <trkpt lat="44.42501" lon="1.34149">
        <ele>158</ele>
        <time>2019-04-14T10:33:44Z</time>
      </trkpt>
      <trkpt lat="44.42503" lon="1.34148">
        <ele>158</ele>
        <time>2019-04-14T10:33:45Z</time>
      </trkpt>
      <trkpt lat="44.42506" lon="1.34148">
        <ele>158</ele>
        <time>2019-04-14T10:33:46Z</time>
      </trkpt>
      <trkpt lat="44.4251" lon="1.34149">
        <ele>157</ele>
        <time>2019-04-14T10:33:47Z</time>
      </trkpt>
      <trkpt lat="44.42513" lon="1.3415">
        <ele>157</ele>
        <time>2019-04-14T10:33:48Z</time>
      </trkpt>
      <trkpt lat="44.42517" lon="1.3415">
        <ele>157</ele>
        <time>2019-04-14T10:33:49Z</time>
      </trkpt>
      <trkpt lat="44.42521" lon="1.34151">
        <ele>157</ele>
        <time>2019-04-14T10:33:50Z</time>
      </trkpt>
      <trkpt lat="44.42524" lon="1.34152">
        <ele>157</ele>
        <time>2019-04-14T10:33:51Z</time>
      </trkpt>
      <trkpt lat="44.42529" lon="1.34151">
        <ele>157</ele>
        <time>2019-04-14T10:33:52Z</time>
      </trkpt>
      <trkpt lat="44.42534" lon="1.34152">
        <ele>157</ele>
        <time>2019-04-14T10:33:53Z</time>
      </trkpt>
      <trkpt lat="44.42537" lon="1.34152">
        <ele>157</ele>
        <time>2019-04-14T10:33:54Z</time>
      </trkpt>
      <trkpt lat="44.42541" lon="1.34152">
        <ele>157</ele>
        <time>2019-04-14T10:33:55Z</time>
      </trkpt>
      <trkpt lat="44.42545" lon="1.34152">
        <ele>157</ele>
        <time>2019-04-14T10:33:56Z</time>
      </trkpt>
      <trkpt lat="44.42549" lon="1.34153">
        <ele>157</ele>
        <time>2019-04-14T10:33:57Z</time>
      </trkpt>
      <trkpt lat="44.42553" lon="1.34154">
        <ele>156</ele>
        <time>2019-04-14T10:33:58Z</time>
      </trkpt>
      <trkpt lat="44.42557" lon="1.34153">
        <ele>156</ele>
        <time>2019-04-14T10:33:59Z</time>
      </trkpt>
      <trkpt lat="44.42562" lon="1.34152">
        <ele>156</ele>
        <time>2019-04-14T10:34:00Z</time>
      </trkpt>
      <trkpt lat="44.42567" lon="1.34152">
        <ele>156</ele>
        <time>2019-04-14T10:34:01Z</time>
      </trkpt>
      <trkpt lat="44.42571" lon="1.34153">
        <ele>156</ele>
        <time>2019-04-14T10:34:03Z</time>
      </trkpt>
      <trkpt lat="44.42581" lon="1.34153">
        <ele>156</ele>
        <time>2019-04-14T10:34:04Z</time>
      </trkpt>
      <trkpt lat="44.42586" lon="1.34152">
        <ele>156</ele>
        <time>2019-04-14T10:34:05Z</time>
      </trkpt>
      <trkpt lat="44.4259" lon="1.34151">
        <ele>156</ele>
        <time>2019-04-14T10:34:06Z</time>
      </trkpt>
      <trkpt lat="44.42596" lon="1.3415">
        <ele>156</ele>
        <time>2019-04-14T10:34:07Z</time>
      </trkpt>
      <trkpt lat="44.426" lon="1.34149">
        <ele>155</ele>
        <time>2019-04-14T10:34:08Z</time>
      </trkpt>
      <trkpt lat="44.42605" lon="1.3415">
        <ele>155</ele>
        <time>2019-04-14T10:34:09Z</time>
      </trkpt>
      <trkpt lat="44.4261" lon="1.34151">
        <ele>155</ele>
        <time>2019-04-14T10:34:10Z</time>
      </trkpt>
      <trkpt lat="44.42615" lon="1.34151">
        <ele>155</ele>
        <time>2019-04-14T10:34:11Z</time>
      </trkpt>
      <trkpt lat="44.42618" lon="1.3415">
        <ele>155</ele>
        <time>2019-04-14T10:34:12Z</time>
      </trkpt>
      <trkpt lat="44.42622" lon="1.34149">
        <ele>155</ele>
        <time>2019-04-14T10:34:13Z</time>
      </trkpt>
      <trkpt lat="44.42626" lon="1.34149">
        <ele>154</ele>
        <time>2019-04-14T10:34:14Z</time>
      </trkpt>
      <trkpt lat="44.4263" lon="1.3415">
        <ele>154</ele>
        <time>2019-04-14T10:34:15Z</time>
      </trkpt>
      <trkpt lat="44.42634" lon="1.34149">
        <ele>154</ele>
        <time>2019-04-14T10:34:16Z</time>
      </trkpt>
      <trkpt lat="44.42638" lon="1.34149">
        <ele>154</ele>
        <time>2019-04-14T10:34:17Z</time>
      </trkpt>
      <trkpt lat="44.42642" lon="1.34149">
        <ele>154</ele>
        <time>2019-04-14T10:34:18Z</time>
      </trkpt>
      <trkpt lat="44.42646" lon="1.34149">
        <ele>154</ele>
        <time>2019-04-14T10:34:19Z</time>
      </trkpt>
      <trkpt lat="44.42649" lon="1.34147">
        <ele>154</ele>
        <time>2019-04-14T10:34:20Z</time>
      </trkpt>
      <trkpt lat="44.42652" lon="1.34146">
        <ele>154</ele>
        <time>2019-04-14T10:34:21Z</time>
      </trkpt>
      <trkpt lat="44.42655" lon="1.34144">
        <ele>154</ele>
        <time>2019-04-14T10:34:22Z</time>
      </trkpt>
      <trkpt lat="44.42657" lon="1.34143">
        <ele>154</ele>
        <time>2019-04-14T10:34:23Z</time>
      </trkpt>
      <trkpt lat="44.42659" lon="1.34142">
        <ele>154</ele>
        <time>2019-04-14T10:34:24Z</time>
      </trkpt>
      <trkpt lat="44.42661" lon="1.34141">
        <ele>154</ele>
        <time>2019-04-14T10:34:25Z</time>
      </trkpt>
      <trkpt lat="44.42664" lon="1.34139">
        <ele>154</ele>
        <time>2019-04-14T10:34:26Z</time>
      </trkpt>
      <trkpt lat="44.42666" lon="1.34139">
        <ele>154</ele>
        <time>2019-04-14T10:34:27Z</time>
      </trkpt>
      <trkpt lat="44.42667" lon="1.34139">
        <ele>154</ele>
        <time>2019-04-14T10:34:28Z</time>
      </trkpt>
      <trkpt lat="44.42669" lon="1.34138">
        <ele>155</ele>
        <time>2019-04-14T10:34:29Z</time>
      </trkpt>
      <trkpt lat="44.42671" lon="1.34139">
        <ele>155</ele>
        <time>2019-04-14T10:34:30Z</time>
      </trkpt>
      <trkpt lat="44.42672" lon="1.34139">
        <ele>155</ele>
        <time>2019-04-14T10:34:31Z</time>
      </trkpt>
      <trkpt lat="44.42674" lon="1.34138">
        <ele>155</ele>
        <time>2019-04-14T10:34:33Z</time>
      </trkpt>
      <trkpt lat="44.42678" lon="1.34138">
        <ele>155</ele>
        <time>2019-04-14T10:34:34Z</time>
      </trkpt>
      <trkpt lat="44.42679" lon="1.34138">
        <ele>156</ele>
        <time>2019-04-14T10:34:35Z</time>
      </trkpt>
      <trkpt lat="44.42682" lon="1.34138">
        <ele>156</ele>
        <time>2019-04-14T10:34:36Z</time>
      </trkpt>
      <trkpt lat="44.42683" lon="1.34138">
        <ele>156</ele>
        <time>2019-04-14T10:34:37Z</time>
      </trkpt>
      <trkpt lat="44.42685" lon="1.34138">
        <ele>157</ele>
        <time>2019-04-14T10:34:38Z</time>
      </trkpt>
      <trkpt lat="44.42687" lon="1.34138">
        <ele>157</ele>
        <time>2019-04-14T10:34:39Z</time>
      </trkpt>
      <trkpt lat="44.42688" lon="1.34138">
        <ele>157</ele>
        <time>2019-04-14T10:34:40Z</time>
      </trkpt>
      <trkpt lat="44.4269" lon="1.34138">
        <ele>157</ele>
        <time>2019-04-14T10:34:41Z</time>
      </trkpt>
      <trkpt lat="44.42692" lon="1.34138">
        <ele>157</ele>
        <time>2019-04-14T10:34:42Z</time>
      </trkpt>
      <trkpt lat="44.42693" lon="1.34138">
        <ele>158</ele>
        <time>2019-04-14T10:34:43Z</time>
      </trkpt>
      <trkpt lat="44.42694" lon="1.34138">
        <ele>158</ele>
        <time>2019-04-14T10:34:44Z</time>
      </trkpt>
      <trkpt lat="44.42696" lon="1.34138">
        <ele>158</ele>
        <time>2019-04-14T10:34:45Z</time>
      </trkpt>
      <trkpt lat="44.42697" lon="1.34138">
        <ele>159</ele>
        <time>2019-04-14T10:34:46Z</time>
      </trkpt>
      <trkpt lat="44.42699" lon="1.34138">
        <ele>159</ele>
        <time>2019-04-14T10:34:47Z</time>
      </trkpt>
      <trkpt lat="44.427" lon="1.34138">
        <ele>159</ele>
        <time>2019-04-14T10:34:48Z</time>
      </trkpt>
      <trkpt lat="44.42701" lon="1.34137">
        <ele>159</ele>
        <time>2019-04-14T10:34:49Z</time>
      </trkpt>
      <trkpt lat="44.42702" lon="1.34138">
        <ele>160</ele>
        <time>2019-04-14T10:34:50Z</time>
      </trkpt>
      <trkpt lat="44.42703" lon="1.34138">
        <ele>160</ele>
        <time>2019-04-14T10:34:51Z</time>
      </trkpt>
      <trkpt lat="44.42705" lon="1.34138">
        <ele>160</ele>
        <time>2019-04-14T10:34:52Z</time>
      </trkpt>
      <trkpt lat="44.42706" lon="1.34138">
        <ele>160</ele>
        <time>2019-04-14T10:34:53Z</time>
      </trkpt>
      <trkpt lat="44.42708" lon="1.34138">
        <ele>160</ele>
        <time>2019-04-14T10:34:54Z</time>
      </trkpt>
      <trkpt lat="44.4271" lon="1.34138">
        <ele>161</ele>
        <time>2019-04-14T10:34:55Z</time>
      </trkpt>
      <trkpt lat="44.42712" lon="1.34138">
        <ele>161</ele>
        <time>2019-04-14T10:34:56Z</time>
      </trkpt>
      <trkpt lat="44.42714" lon="1.34138">
        <ele>161</ele>
        <time>2019-04-14T10:34:57Z</time>
      </trkpt>
      <trkpt lat="44.42715" lon="1.34138">
        <ele>161</ele>
        <time>2019-04-14T10:34:58Z</time>
      </trkpt>
      <trkpt lat="44.42716" lon="1.34138">
        <ele>162</ele>
        <time>2019-04-14T10:34:59Z</time>
      </trkpt>
      <trkpt lat="44.42718" lon="1.34138">
        <ele>162</ele>
        <time>2019-04-14T10:35:01Z</time>
      </trkpt>
      <trkpt lat="44.42722" lon="1.34137">
        <ele>162</ele>
        <time>2019-04-14T10:35:02Z</time>
      </trkpt>
      <trkpt lat="44.42725" lon="1.34138">
        <ele>163</ele>
        <time>2019-04-14T10:35:03Z</time>
      </trkpt>
      <trkpt lat="44.42727" lon="1.34138">
        <ele>163</ele>
        <time>2019-04-14T10:35:04Z</time>
      </trkpt>
      <trkpt lat="44.42728" lon="1.34138">
        <ele>163</ele>
        <time>2019-04-14T10:35:05Z</time>
      </trkpt>
      <trkpt lat="44.4273" lon="1.34138">
        <ele>163</ele>
        <time>2019-04-14T10:35:06Z</time>
      </trkpt>
      <trkpt lat="44.42732" lon="1.34138">
        <ele>163</ele>
        <time>2019-04-14T10:35:07Z</time>
      </trkpt>
      <trkpt lat="44.42733" lon="1.34138">
        <ele>164</ele>
        <time>2019-04-14T10:35:08Z</time>
      </trkpt>
      <trkpt lat="44.42735" lon="1.34138">
        <ele>164</ele>
        <time>2019-04-14T10:35:09Z</time>
      </trkpt>
      <trkpt lat="44.42736" lon="1.34139">
        <ele>164</ele>
        <time>2019-04-14T10:35:10Z</time>
      </trkpt>
      <trkpt lat="44.42737" lon="1.34139">
        <ele>164</ele>
        <time>2019-04-14T10:35:11Z</time>
      </trkpt>
      <trkpt lat="44.42738" lon="1.34139">
        <ele>165</ele>
        <time>2019-04-14T10:35:12Z</time>
      </trkpt>
      <trkpt lat="44.4274" lon="1.34139">
        <ele>165</ele>
        <time>2019-04-14T10:35:13Z</time>
      </trkpt>
      <trkpt lat="44.42741" lon="1.34139">
        <ele>165</ele>
        <time>2019-04-14T10:35:14Z</time>
      </trkpt>
      <trkpt lat="44.42743" lon="1.34139">
        <ele>165</ele>
        <time>2019-04-14T10:35:15Z</time>
      </trkpt>
      <trkpt lat="44.42744" lon="1.34139">
        <ele>166</ele>
        <time>2019-04-14T10:35:16Z</time>
      </trkpt>
      <trkpt lat="44.42745" lon="1.34139">
        <ele>166</ele>
        <time>2019-04-14T10:35:17Z</time>
      </trkpt>
      <trkpt lat="44.42746" lon="1.34139">
        <ele>166</ele>
        <time>2019-04-14T10:35:18Z</time>
      </trkpt>
      <trkpt lat="44.42747" lon="1.34139">
        <ele>166</ele>
        <time>2019-04-14T10:35:19Z</time>
      </trkpt>
      <trkpt lat="44.42749" lon="1.34139">
        <ele>166</ele>
        <time>2019-04-14T10:35:20Z</time>
      </trkpt>
      <trkpt lat="44.4275" lon="1.3414">
        <ele>167</ele>
        <time>2019-04-14T10:35:21Z</time>
      </trkpt>
      <trkpt lat="44.42752" lon="1.3414">
        <ele>167</ele>
        <time>2019-04-14T10:35:22Z</time>
      </trkpt>
      <trkpt lat="44.42753" lon="1.3414">
        <ele>167</ele>
        <time>2019-04-14T10:35:23Z</time>
      </trkpt>
      <trkpt lat="44.42755" lon="1.3414">
        <ele>167</ele>
        <time>2019-04-14T10:35:24Z</time>
      </trkpt>
      <trkpt lat="44.42755" lon="1.34141">
        <ele>168</ele>
        <time>2019-04-14T10:35:25Z</time>
      </trkpt>
      <trkpt lat="44.42757" lon="1.34141">
        <ele>168</ele>
        <time>2019-04-14T10:35:26Z</time>
      </trkpt>
      <trkpt lat="44.42758" lon="1.34141">
        <ele>168</ele>
        <time>2019-04-14T10:35:27Z</time>
      </trkpt>
      <trkpt lat="44.42759" lon="1.34141">
        <ele>168</ele>
        <time>2019-04-14T10:35:28Z</time>
      </trkpt>
      <trkpt lat="44.42759" lon="1.34141">
        <ele>169</ele>
        <time>2019-04-14T10:35:29Z</time>
      </trkpt>
      <trkpt lat="44.4276" lon="1.34141">
        <ele>169</ele>
        <time>2019-04-14T10:35:30Z</time>
      </trkpt>
      <trkpt lat="44.42761" lon="1.34141">
        <ele>169</ele>
        <time>2019-04-14T10:35:31Z</time>
      </trkpt>
      <trkpt lat="44.42762" lon="1.3414">
        <ele>169</ele>
        <time>2019-04-14T10:35:33Z</time>
      </trkpt>
      <trkpt lat="44.42764" lon="1.3414">
        <ele>169</ele>
        <time>2019-04-14T10:35:34Z</time>
      </trkpt>
      <trkpt lat="44.42765" lon="1.3414">
        <ele>170</ele>
        <time>2019-04-14T10:35:35Z</time>
      </trkpt>
      <trkpt lat="44.42768" lon="1.3414">
        <ele>170</ele>
        <time>2019-04-14T10:35:36Z</time>
      </trkpt>
      <trkpt lat="44.42769" lon="1.3414">
        <ele>170</ele>
        <time>2019-04-14T10:35:37Z</time>
      </trkpt>
      <trkpt lat="44.4277" lon="1.3414">
        <ele>170</ele>
        <time>2019-04-14T10:35:38Z</time>
      </trkpt>
      <trkpt lat="44.42771" lon="1.34141">
        <ele>171</ele>
        <time>2019-04-14T10:35:39Z</time>
      </trkpt>
      <trkpt lat="44.42773" lon="1.34141">
        <ele>171</ele>
        <time>2019-04-14T10:35:40Z</time>
      </trkpt>
      <trkpt lat="44.42774" lon="1.34141">
        <ele>171</ele>
        <time>2019-04-14T10:35:41Z</time>
      </trkpt>
      <trkpt lat="44.42775" lon="1.34142">
        <ele>171</ele>
        <time>2019-04-14T10:35:42Z</time>
      </trkpt>
      <trkpt lat="44.42776" lon="1.34142">
        <ele>172</ele>
        <time>2019-04-14T10:35:43Z</time>
      </trkpt>
      <trkpt lat="44.42778" lon="1.34142">
        <ele>172</ele>
        <time>2019-04-14T10:35:44Z</time>
      </trkpt>
      <trkpt lat="44.42778" lon="1.34142">
        <ele>172</ele>
        <time>2019-04-14T10:35:45Z</time>
      </trkpt>
      <trkpt lat="44.42779" lon="1.34143">
        <ele>172</ele>
        <time>2019-04-14T10:35:46Z</time>
      </trkpt>
      <trkpt lat="44.4278" lon="1.34144">
        <ele>172</ele>
        <time>2019-04-14T10:35:47Z</time>
      </trkpt>
      <trkpt lat="44.42781" lon="1.34144">
        <ele>172</ele>
        <time>2019-04-14T10:35:48Z</time>
      </trkpt>
      <trkpt lat="44.42783" lon="1.34145">
        <ele>173</ele>
        <time>2019-04-14T10:35:49Z</time>
      </trkpt>
      <trkpt lat="44.42784" lon="1.34146">
        <ele>173</ele>
        <time>2019-04-14T10:35:50Z</time>
      </trkpt>
      <trkpt lat="44.42785" lon="1.34146">
        <ele>173</ele>
        <time>2019-04-14T10:35:51Z</time>
      </trkpt>
      <trkpt lat="44.42786" lon="1.34147">
        <ele>173</ele>
        <time>2019-04-14T10:35:52Z</time>
      </trkpt>
      <trkpt lat="44.42787" lon="1.34148">
        <ele>173</ele>
        <time>2019-04-14T10:35:53Z</time>
      </trkpt>
      <trkpt lat="44.42789" lon="1.34148">
        <ele>174</ele>
        <time>2019-04-14T10:35:54Z</time>
      </trkpt>
      <trkpt lat="44.4279" lon="1.34149">
        <ele>174</ele>
        <time>2019-04-14T10:35:55Z</time>
      </trkpt>
      <trkpt lat="44.42791" lon="1.3415">
        <ele>174</ele>
        <time>2019-04-14T10:35:56Z</time>
      </trkpt>
      <trkpt lat="44.42792" lon="1.34151">
        <ele>174</ele>
        <time>2019-04-14T10:35:57Z</time>
      </trkpt>
      <trkpt lat="44.42794" lon="1.34151">
        <ele>174</ele>
        <time>2019-04-14T10:35:58Z</time>
      </trkpt>
      <trkpt lat="44.42795" lon="1.34152">
        <ele>175</ele>
        <time>2019-04-14T10:35:59Z</time>
      </trkpt>
      <trkpt lat="44.42796" lon="1.34153">
        <ele>175</ele>
        <time>2019-04-14T10:36:00Z</time>
      </trkpt>
      <trkpt lat="44.42797" lon="1.34154">
        <ele>175</ele>
        <time>2019-04-14T10:36:01Z</time>
      </trkpt>
      <trkpt lat="44.42798" lon="1.34155">
        <ele>175</ele>
        <time>2019-04-14T10:36:03Z</time>
      </trkpt>
      <trkpt lat="44.42799" lon="1.34155">
        <ele>175</ele>
        <time>2019-04-14T10:36:04Z</time>
      </trkpt>
      <trkpt lat="44.428" lon="1.34156">
        <ele>176</ele>
        <time>2019-04-14T10:36:05Z</time>
      </trkpt>
      <trkpt lat="44.42801" lon="1.34157">
        <ele>176</ele>
        <time>2019-04-14T10:36:06Z</time>
      </trkpt>
      <trkpt lat="44.42803" lon="1.34157">
        <ele>176</ele>
        <time>2019-04-14T10:36:07Z</time>
      </trkpt>
      <trkpt lat="44.42804" lon="1.34158">
        <ele>176</ele>
        <time>2019-04-14T10:36:08Z</time>
      </trkpt>
      <trkpt lat="44.42805" lon="1.34158">
        <ele>176</ele>
        <time>2019-04-14T10:36:09Z</time>
      </trkpt>
      <trkpt lat="44.42806" lon="1.34159">
        <ele>177</ele>
        <time>2019-04-14T10:36:10Z</time>
      </trkpt>
      <trkpt lat="44.42807" lon="1.3416">
        <ele>177</ele>
        <time>2019-04-14T10:36:11Z</time>
      </trkpt>
      <trkpt lat="44.42808" lon="1.34161">
        <ele>177</ele>
        <time>2019-04-14T10:36:12Z</time>
      </trkpt>
      <trkpt lat="44.4281" lon="1.34161">
        <ele>177</ele>
        <time>2019-04-14T10:36:13Z</time>
      </trkpt>
      <trkpt lat="44.42811" lon="1.34161">
        <ele>178</ele>
        <time>2019-04-14T10:36:14Z</time>
      </trkpt>
      <trkpt lat="44.42812" lon="1.34162">
        <ele>178</ele>
        <time>2019-04-14T10:36:15Z</time>
      </trkpt>
      <trkpt lat="44.42813" lon="1.34162">
        <ele>178</ele>
        <time>2019-04-14T10:36:16Z</time>
      </trkpt>
      <trkpt lat="44.42814" lon="1.34163">
        <ele>178</ele>
        <time>2019-04-14T10:36:17Z</time>
      </trkpt>
      <trkpt lat="44.42815" lon="1.34163">
        <ele>178</ele>
        <time>2019-04-14T10:36:18Z</time>
      </trkpt>
      <trkpt lat="44.42816" lon="1.34164">
        <ele>179</ele>
        <time>2019-04-14T10:36:19Z</time>
      </trkpt>
      <trkpt lat="44.42817" lon="1.34164">
        <ele>179</ele>
        <time>2019-04-14T10:36:20Z</time>
      </trkpt>
      <trkpt lat="44.42818" lon="1.34165">
        <ele>179</ele>
        <time>2019-04-14T10:36:21Z</time>
      </trkpt>
      <trkpt lat="44.4282" lon="1.34166">
        <ele>180</ele>
        <time>2019-04-14T10:36:22Z</time>
      </trkpt>
      <trkpt lat="44.42821" lon="1.34167">
        <ele>180</ele>
        <time>2019-04-14T10:36:23Z</time>
      </trkpt>
      <trkpt lat="44.42822" lon="1.34168">
        <ele>180</ele>
        <time>2019-04-14T10:36:24Z</time>
      </trkpt>
      <trkpt lat="44.42823" lon="1.34169">
        <ele>180</ele>
        <time>2019-04-14T10:36:25Z</time>
      </trkpt>
      <trkpt lat="44.42824" lon="1.3417">
        <ele>180</ele>
        <time>2019-04-14T10:36:26Z</time>
      </trkpt>
      <trkpt lat="44.42825" lon="1.34171">
        <ele>181</ele>
        <time>2019-04-14T10:36:27Z</time>
      </trkpt>
      <trkpt lat="44.42826" lon="1.34171">
        <ele>181</ele>
        <time>2019-04-14T10:36:28Z</time>
      </trkpt>
      <trkpt lat="44.42827" lon="1.34172">
        <ele>181</ele>
        <time>2019-04-14T10:36:29Z</time>
      </trkpt>
      <trkpt lat="44.42828" lon="1.34173">
        <ele>181</ele>
        <time>2019-04-14T10:36:30Z</time>
      </trkpt>
      <trkpt lat="44.42829" lon="1.34173">
        <ele>182</ele>
        <time>2019-04-14T10:36:31Z</time>
      </trkpt>
      <trkpt lat="44.4283" lon="1.34174">
        <ele>182</ele>
        <time>2019-04-14T10:36:32Z</time>
      </trkpt>
      <trkpt lat="44.42831" lon="1.34174">
        <ele>182</ele>
        <time>2019-04-14T10:36:33Z</time>
      </trkpt>
      <trkpt lat="44.42831" lon="1.34174">
        <ele>182</ele>
        <time>2019-04-14T10:36:34Z</time>
      </trkpt>
      <trkpt lat="44.42831" lon="1.34174">
        <ele>182</ele>
        <time>2019-04-14T10:36:35Z</time>
      </trkpt>
      <trkpt lat="44.42831" lon="1.34174">
        <ele>182</ele>
        <time>2019-04-14T10:36:36Z</time>
      </trkpt>
      <trkpt lat="44.42831" lon="1.34174">
        <ele>182</ele>
        <time>2019-04-14T10:36:37Z</time>
      </trkpt>
      <trkpt lat="44.42832" lon="1.34174">
        <ele>182</ele>
        <time>2019-04-14T10:36:38Z</time>
      </trkpt>
      <trkpt lat="44.42832" lon="1.34174">
        <ele>182</ele>
        <time>2019-04-14T10:36:39Z</time>
      </trkpt>
      <trkpt lat="44.42832" lon="1.34174">
        <ele>182</ele>
        <time>2019-04-14T10:36:40Z</time>
      </trkpt>
      <trkpt lat="44.42851" lon="1.34184">
        <ele>186</ele>
        <time>2019-04-14T10:37:05Z</time>
      </trkpt>
      <trkpt lat="44.42852" lon="1.34185">
        <ele>187</ele>
        <time>2019-04-14T10:37:06Z</time>
      </trkpt>
      <trkpt lat="44.42853" lon="1.34185">
        <ele>187</ele>
        <time>2019-04-14T10:37:07Z</time>
      </trkpt>
      <trkpt lat="44.42854" lon="1.34185">
        <ele>187</ele>
        <time>2019-04-14T10:37:09Z</time>
      </trkpt>
      <trkpt lat="44.42854" lon="1.34185">
        <ele>187</ele>
        <time>2019-04-14T10:37:10Z</time>
      </trkpt>
      <trkpt lat="44.42855" lon="1.34185">
        <ele>187</ele>
        <time>2019-04-14T10:37:11Z</time>
      </trkpt>
      <trkpt lat="44.42856" lon="1.34186">
        <ele>187</ele>
        <time>2019-04-14T10:37:12Z</time>
      </trkpt>
      <trkpt lat="44.42856" lon="1.34186">
        <ele>188</ele>
        <time>2019-04-14T10:37:13Z</time>
      </trkpt>
      <trkpt lat="44.42857" lon="1.34186">
        <ele>188</ele>
        <time>2019-04-14T10:37:14Z</time>
      </trkpt>
      <trkpt lat="44.42858" lon="1.34187">
        <ele>188</ele>
        <time>2019-04-14T10:37:15Z</time>
      </trkpt>
      <trkpt lat="44.42858" lon="1.34187">
        <ele>188</ele>
        <time>2019-04-14T10:37:16Z</time>
      </trkpt>
      <trkpt lat="44.42859" lon="1.34187">
        <ele>188</ele>
        <time>2019-04-14T10:37:17Z</time>
      </trkpt>
      <trkpt lat="44.4286" lon="1.34187">
        <ele>188</ele>
        <time>2019-04-14T10:37:18Z</time>
      </trkpt>
      <trkpt lat="44.42862" lon="1.34188">
        <ele>189</ele>
        <time>2019-04-14T10:37:19Z</time>
      </trkpt>
      <trkpt lat="44.42863" lon="1.34187">
        <ele>189</ele>
        <time>2019-04-14T10:37:20Z</time>
      </trkpt>
      <trkpt lat="44.42864" lon="1.34188">
        <ele>189</ele>
        <time>2019-04-14T10:37:21Z</time>
      </trkpt>
      <trkpt lat="44.42865" lon="1.34188">
        <ele>189</ele>
        <time>2019-04-14T10:37:22Z</time>
      </trkpt>
      <trkpt lat="44.42865" lon="1.34188">
        <ele>189</ele>
        <time>2019-04-14T10:37:23Z</time>
      </trkpt>
      <trkpt lat="44.42866" lon="1.34188">
        <ele>189</ele>
        <time>2019-04-14T10:37:24Z</time>
      </trkpt>
      <trkpt lat="44.42867" lon="1.34188">
        <ele>189</ele>
        <time>2019-04-14T10:37:25Z</time>
      </trkpt>
      <trkpt lat="44.42868" lon="1.34188">
        <ele>190</ele>
        <time>2019-04-14T10:37:26Z</time>
      </trkpt>
      <trkpt lat="44.42868" lon="1.34188">
        <ele>190</ele>
        <time>2019-04-14T10:37:27Z</time>
      </trkpt>
      <trkpt lat="44.42869" lon="1.34188">
        <ele>190</ele>
        <time>2019-04-14T10:37:28Z</time>
      </trkpt>
      <trkpt lat="44.4287" lon="1.34189">
        <ele>190</ele>
        <time>2019-04-14T10:37:29Z</time>
      </trkpt>
      <trkpt lat="44.42871" lon="1.34189">
        <ele>190</ele>
        <time>2019-04-14T10:37:30Z</time>
      </trkpt>
      <trkpt lat="44.42871" lon="1.34189">
        <ele>190</ele>
        <time>2019-04-14T10:37:31Z</time>
      </trkpt>
      <trkpt lat="44.42871" lon="1.34189">
        <ele>190</ele>
        <time>2019-04-14T10:37:33Z</time>
      </trkpt>
      <trkpt lat="44.42871" lon="1.34189">
        <ele>190</ele>
        <time>2019-04-14T10:37:34Z</time>
      </trkpt>
      <trkpt lat="44.42871" lon="1.34189">
        <ele>190</ele>
        <time>2019-04-14T10:37:35Z</time>
      </trkpt>
      <trkpt lat="44.42872" lon="1.34189">
        <ele>190</ele>
        <time>2019-04-14T10:37:36Z</time>
      </trkpt>
      <trkpt lat="44.42872" lon="1.34189">
        <ele>190</ele>
        <time>2019-04-14T10:37:37Z</time>
      </trkpt>
      <trkpt lat="44.42872" lon="1.34189">
        <ele>190</ele>
        <time>2019-04-14T10:37:38Z</time>
      </trkpt>
      <trkpt lat="44.42886" lon="1.34189">
        <ele>192</ele>
        <time>2019-04-14T10:37:56Z</time>
      </trkpt>
      <trkpt lat="44.42887" lon="1.3419">
        <ele>193</ele>
        <time>2019-04-14T10:37:58Z</time>
      </trkpt>
      <trkpt lat="44.42887" lon="1.34189">
        <ele>193</ele>
        <time>2019-04-14T10:37:59Z</time>
      </trkpt>
      <trkpt lat="44.42888" lon="1.34189">
        <ele>193</ele>
        <time>2019-04-14T10:38:00Z</time>
      </trkpt>
      <trkpt lat="44.4289" lon="1.34188">
        <ele>193</ele>
        <time>2019-04-14T10:38:01Z</time>
      </trkpt>
      <trkpt lat="44.42891" lon="1.34187">
        <ele>194</ele>
        <time>2019-04-14T10:38:02Z</time>
      </trkpt>
      <trkpt lat="44.42892" lon="1.34186">
        <ele>194</ele>
        <time>2019-04-14T10:38:03Z</time>
      </trkpt>
      <trkpt lat="44.42893" lon="1.34186">
        <ele>194</ele>
        <time>2019-04-14T10:38:04Z</time>
      </trkpt>
      <trkpt lat="44.42894" lon="1.34185">
        <ele>194</ele>
        <time>2019-04-14T10:38:05Z</time>
      </trkpt>
      <trkpt lat="44.42895" lon="1.34185">
        <ele>194</ele>
        <time>2019-04-14T10:38:06Z</time>
      </trkpt>
      <trkpt lat="44.42897" lon="1.34184">
        <ele>194</ele>
        <time>2019-04-14T10:38:07Z</time>
      </trkpt>
      <trkpt lat="44.42898" lon="1.34183">
        <ele>195</ele>
        <time>2019-04-14T10:38:08Z</time>
      </trkpt>
      <trkpt lat="44.42899" lon="1.34182">
        <ele>195</ele>
        <time>2019-04-14T10:38:09Z</time>
      </trkpt>
      <trkpt lat="44.429" lon="1.34182">
        <ele>195</ele>
        <time>2019-04-14T10:38:10Z</time>
      </trkpt>
      <trkpt lat="44.429" lon="1.34181">
        <ele>195</ele>
        <time>2019-04-14T10:38:11Z</time>
      </trkpt>
      <trkpt lat="44.42901" lon="1.3418">
        <ele>195</ele>
        <time>2019-04-14T10:38:12Z</time>
      </trkpt>
      <trkpt lat="44.42902" lon="1.3418">
        <ele>195</ele>
        <time>2019-04-14T10:38:13Z</time>
      </trkpt>
      <trkpt lat="44.42904" lon="1.34177">
        <ele>196</ele>
        <time>2019-04-14T10:38:14Z</time>
      </trkpt>
      <trkpt lat="44.42905" lon="1.34176">
        <ele>196</ele>
        <time>2019-04-14T10:38:15Z</time>
      </trkpt>
      <trkpt lat="44.42906" lon="1.34174">
        <ele>196</ele>
        <time>2019-04-14T10:38:16Z</time>
      </trkpt>
      <trkpt lat="44.42906" lon="1.34173">
        <ele>196</ele>
        <time>2019-04-14T10:38:17Z</time>
      </trkpt>
      <trkpt lat="44.42907" lon="1.34172">
        <ele>196</ele>
        <time>2019-04-14T10:38:18Z</time>
      </trkpt>
      <trkpt lat="44.42908" lon="1.3417">
        <ele>196</ele>
        <time>2019-04-14T10:38:19Z</time>
      </trkpt>
      <trkpt lat="44.42909" lon="1.34169">
        <ele>197</ele>
        <time>2019-04-14T10:38:20Z</time>
      </trkpt>
      <trkpt lat="44.42909" lon="1.34167">
        <ele>197</ele>
        <time>2019-04-14T10:38:21Z</time>
      </trkpt>
      <trkpt lat="44.4291" lon="1.34165">
        <ele>197</ele>
        <time>2019-04-14T10:38:22Z</time>
      </trkpt>
      <trkpt lat="44.4291" lon="1.34164">
        <ele>197</ele>
        <time>2019-04-14T10:38:23Z</time>
      </trkpt>
      <trkpt lat="44.4291" lon="1.34162">
        <ele>197</ele>
        <time>2019-04-14T10:38:24Z</time>
      </trkpt>
      <trkpt lat="44.4291" lon="1.34161">
        <ele>197</ele>
        <time>2019-04-14T10:38:25Z</time>
      </trkpt>
      <trkpt lat="44.4291" lon="1.3416">
        <ele>198</ele>
        <time>2019-04-14T10:38:26Z</time>
      </trkpt>
      <trkpt lat="44.42911" lon="1.34158">
        <ele>198</ele>
        <time>2019-04-14T10:38:27Z</time>
      </trkpt>
      <trkpt lat="44.42911" lon="1.34157">
        <ele>198</ele>
        <time>2019-04-14T10:38:28Z</time>
      </trkpt>
      <trkpt lat="44.42912" lon="1.34156">
        <ele>198</ele>
        <time>2019-04-14T10:38:29Z</time>
      </trkpt>
      <trkpt lat="44.42913" lon="1.34154">
        <ele>198</ele>
        <time>2019-04-14T10:38:31Z</time>
      </trkpt>
      <trkpt lat="44.42914" lon="1.34153">
        <ele>199</ele>
        <time>2019-04-14T10:38:32Z</time>
      </trkpt>
      <trkpt lat="44.42914" lon="1.34151">
        <ele>199</ele>
        <time>2019-04-14T10:38:33Z</time>
      </trkpt>
      <trkpt lat="44.42914" lon="1.3415">
        <ele>199</ele>
        <time>2019-04-14T10:38:34Z</time>
      </trkpt>
      <trkpt lat="44.42915" lon="1.34149">
        <ele>199</ele>
        <time>2019-04-14T10:38:35Z</time>
      </trkpt>
      <trkpt lat="44.42915" lon="1.34147">
        <ele>199</ele>
        <time>2019-04-14T10:38:36Z</time>
      </trkpt>
      <trkpt lat="44.42916" lon="1.34146">
        <ele>200</ele>
        <time>2019-04-14T10:38:37Z</time>
      </trkpt>
      <trkpt lat="44.42917" lon="1.34145">
        <ele>200</ele>
        <time>2019-04-14T10:38:38Z</time>
      </trkpt>
      <trkpt lat="44.42918" lon="1.34143">
        <ele>200</ele>
        <time>2019-04-14T10:38:39Z</time>
      </trkpt>
      <trkpt lat="44.42918" lon="1.34142">
        <ele>200</ele>
        <time>2019-04-14T10:38:40Z</time>
      </trkpt>
      <trkpt lat="44.42919" lon="1.34141">
        <ele>200</ele>
        <time>2019-04-14T10:38:41Z</time>
      </trkpt>
      <trkpt lat="44.42921" lon="1.34139">
        <ele>201</ele>
        <time>2019-04-14T10:38:42Z</time>
      </trkpt>
      <trkpt lat="44.42922" lon="1.34138">
        <ele>201</ele>
        <time>2019-04-14T10:38:43Z</time>
      </trkpt>
      <trkpt lat="44.42923" lon="1.34136">
        <ele>201</ele>
        <time>2019-04-14T10:38:44Z</time>
      </trkpt>
      <trkpt lat="44.42924" lon="1.34134">
        <ele>202</ele>
        <time>2019-04-14T10:38:46Z</time>
      </trkpt>
      <trkpt lat="44.42926" lon="1.34133">
        <ele>202</ele>
        <time>2019-04-14T10:38:47Z</time>
      </trkpt>
      <trkpt lat="44.42927" lon="1.34132">
        <ele>202</ele>
        <time>2019-04-14T10:38:48Z</time>
      </trkpt>
      <trkpt lat="44.42928" lon="1.3413">
        <ele>202</ele>
        <time>2019-04-14T10:38:49Z</time>
      </trkpt>
      <trkpt lat="44.42928" lon="1.34129">
        <ele>203</ele>
        <time>2019-04-14T10:38:50Z</time>
      </trkpt>
      <trkpt lat="44.42928" lon="1.34127">
        <ele>203</ele>
        <time>2019-04-14T10:38:51Z</time>
      </trkpt>
      <trkpt lat="44.42928" lon="1.34125">
        <ele>203</ele>
        <time>2019-04-14T10:38:52Z</time>
      </trkpt>
      <trkpt lat="44.42929" lon="1.34122">
        <ele>203</ele>
        <time>2019-04-14T10:38:53Z</time>
      </trkpt>
      <trkpt lat="44.42929" lon="1.3412">
        <ele>204</ele>
        <time>2019-04-14T10:38:54Z</time>
      </trkpt>
      <trkpt lat="44.4293" lon="1.34119">
        <ele>204</ele>
        <time>2019-04-14T10:38:56Z</time>
      </trkpt>
      <trkpt lat="44.42931" lon="1.34117">
        <ele>204</ele>
        <time>2019-04-14T10:38:57Z</time>
      </trkpt>
      <trkpt lat="44.42933" lon="1.34115">
        <ele>204</ele>
        <time>2019-04-14T10:38:58Z</time>
      </trkpt>
      <trkpt lat="44.42933" lon="1.34114">
        <ele>205</ele>
        <time>2019-04-14T10:38:59Z</time>
      </trkpt>
      <trkpt lat="44.42933" lon="1.34112">
        <ele>205</ele>
        <time>2019-04-14T10:39:00Z</time>
      </trkpt>
      <trkpt lat="44.42934" lon="1.34111">
        <ele>205</ele>
        <time>2019-04-14T10:39:01Z</time>
      </trkpt>
      <trkpt lat="44.42935" lon="1.3411">
        <ele>205</ele>
        <time>2019-04-14T10:39:02Z</time>
      </trkpt>
      <trkpt lat="44.42936" lon="1.34108">
        <ele>206</ele>
        <time>2019-04-14T10:39:03Z</time>
      </trkpt>
      <trkpt lat="44.42937" lon="1.34107">
        <ele>206</ele>
        <time>2019-04-14T10:39:04Z</time>
      </trkpt>
      <trkpt lat="44.42935" lon="1.34105">
        <ele>206</ele>
        <time>2019-04-14T10:39:05Z</time>
      </trkpt>
      <trkpt lat="44.42936" lon="1.34104">
        <ele>206</ele>
        <time>2019-04-14T10:39:06Z</time>
      </trkpt>
      <trkpt lat="44.42937" lon="1.34102">
        <ele>207</ele>
        <time>2019-04-14T10:39:08Z</time>
      </trkpt>
      <trkpt lat="44.42938" lon="1.34101">
        <ele>207</ele>
        <time>2019-04-14T10:39:09Z</time>
      </trkpt>
      <trkpt lat="44.42938" lon="1.34099">
        <ele>207</ele>
        <time>2019-04-14T10:39:10Z</time>
      </trkpt>
      <trkpt lat="44.42939" lon="1.34097">
        <ele>207</ele>
        <time>2019-04-14T10:39:11Z</time>
      </trkpt>
      <trkpt lat="44.42939" lon="1.34096">
        <ele>207</ele>
        <time>2019-04-14T10:39:12Z</time>
      </trkpt>
      <trkpt lat="44.4294" lon="1.34094">
        <ele>208</ele>
        <time>2019-04-14T10:39:13Z</time>
      </trkpt>
      <trkpt lat="44.4294" lon="1.34093">
        <ele>208</ele>
        <time>2019-04-14T10:39:14Z</time>
      </trkpt>
      <trkpt lat="44.42942" lon="1.34092">
        <ele>208</ele>
        <time>2019-04-14T10:39:15Z</time>
      </trkpt>
      <trkpt lat="44.42943" lon="1.34091">
        <ele>208</ele>
        <time>2019-04-14T10:39:16Z</time>
      </trkpt>
      <trkpt lat="44.42943" lon="1.3409">
        <ele>208</ele>
        <time>2019-04-14T10:39:17Z</time>
      </trkpt>
      <trkpt lat="44.42944" lon="1.34089">
        <ele>209</ele>
        <time>2019-04-14T10:39:18Z</time>
      </trkpt>
      <trkpt lat="44.42944" lon="1.34088">
        <ele>209</ele>
        <time>2019-04-14T10:39:19Z</time>
      </trkpt>
      <trkpt lat="44.42945" lon="1.34086">
        <ele>209</ele>
        <time>2019-04-14T10:39:20Z</time>
      </trkpt>
      <trkpt lat="44.42947" lon="1.34085">
        <ele>209</ele>
        <time>2019-04-14T10:39:21Z</time>
      </trkpt>
      <trkpt lat="44.42948" lon="1.34083">
        <ele>209</ele>
        <time>2019-04-14T10:39:22Z</time>
      </trkpt>
      <trkpt lat="44.42949" lon="1.34081">
        <ele>210</ele>
        <time>2019-04-14T10:39:23Z</time>
      </trkpt>
      <trkpt lat="44.4295" lon="1.3408">
        <ele>210</ele>
        <time>2019-04-14T10:39:24Z</time>
      </trkpt>
      <trkpt lat="44.42952" lon="1.34079">
        <ele>210</ele>
        <time>2019-04-14T10:39:25Z</time>
      </trkpt>
      <trkpt lat="44.42952" lon="1.34077">
        <ele>211</ele>
        <time>2019-04-14T10:39:27Z</time>
      </trkpt>
      <trkpt lat="44.42954" lon="1.34074">
        <ele>211</ele>
        <time>2019-04-14T10:39:29Z</time>
      </trkpt>
      <trkpt lat="44.42954" lon="1.34073">
        <ele>211</ele>
        <time>2019-04-14T10:39:30Z</time>
      </trkpt>
      <trkpt lat="44.42956" lon="1.34072">
        <ele>211</ele>
        <time>2019-04-14T10:39:31Z</time>
      </trkpt>
      <trkpt lat="44.42957" lon="1.34071">
        <ele>211</ele>
        <time>2019-04-14T10:39:32Z</time>
      </trkpt>
      <trkpt lat="44.42959" lon="1.3407">
        <ele>212</ele>
        <time>2019-04-14T10:39:33Z</time>
      </trkpt>
      <trkpt lat="44.42961" lon="1.34069">
        <ele>212</ele>
        <time>2019-04-14T10:39:34Z</time>
      </trkpt>
      <trkpt lat="44.42962" lon="1.34068">
        <ele>212</ele>
        <time>2019-04-14T10:39:35Z</time>
      </trkpt>
      <trkpt lat="44.42963" lon="1.34067">
        <ele>212</ele>
        <time>2019-04-14T10:39:36Z</time>
      </trkpt>
      <trkpt lat="44.42963" lon="1.34065">
        <ele>212</ele>
        <time>2019-04-14T10:39:37Z</time>
      </trkpt>
      <trkpt lat="44.42965" lon="1.34062">
        <ele>213</ele>
        <time>2019-04-14T10:39:38Z</time>
      </trkpt>
      <trkpt lat="44.42966" lon="1.34061">
        <ele>213</ele>
        <time>2019-04-14T10:39:39Z</time>
      </trkpt>
      <trkpt lat="44.42967" lon="1.3406">
        <ele>213</ele>
        <time>2019-04-14T10:39:40Z</time>
      </trkpt>
      <trkpt lat="44.42967" lon="1.34059">
        <ele>213</ele>
        <time>2019-04-14T10:39:41Z</time>
      </trkpt>
      <trkpt lat="44.42968" lon="1.34057">
        <ele>213</ele>
        <time>2019-04-14T10:39:42Z</time>
      </trkpt>
      <trkpt lat="44.42969" lon="1.34056">
        <ele>214</ele>
        <time>2019-04-14T10:39:43Z</time>
      </trkpt>
      <trkpt lat="44.42969" lon="1.34055">
        <ele>214</ele>
        <time>2019-04-14T10:39:44Z</time>
      </trkpt>
      <trkpt lat="44.4297" lon="1.34053">
        <ele>214</ele>
        <time>2019-04-14T10:39:45Z</time>
      </trkpt>
      <trkpt lat="44.42971" lon="1.34052">
        <ele>215</ele>
        <time>2019-04-14T10:39:46Z</time>
      </trkpt>
      <trkpt lat="44.42972" lon="1.3405">
        <ele>215</ele>
        <time>2019-04-14T10:39:47Z</time>
      </trkpt>
      <trkpt lat="44.42973" lon="1.34049">
        <ele>215</ele>
        <time>2019-04-14T10:39:49Z</time>
      </trkpt>
      <trkpt lat="44.42973" lon="1.34049">
        <ele>215</ele>
        <time>2019-04-14T10:39:50Z</time>
      </trkpt>
      <trkpt lat="44.42973" lon="1.34047">
        <ele>215</ele>
        <time>2019-04-14T10:39:51Z</time>
      </trkpt>
      <trkpt lat="44.42974" lon="1.34046">
        <ele>216</ele>
        <time>2019-04-14T10:39:52Z</time>
      </trkpt>
      <trkpt lat="44.42975" lon="1.34045">
        <ele>216</ele>
        <time>2019-04-14T10:39:53Z</time>
      </trkpt>
      <trkpt lat="44.42976" lon="1.34044">
        <ele>216</ele>
        <time>2019-04-14T10:39:54Z</time>
      </trkpt>
      <trkpt lat="44.42976" lon="1.34043">
        <ele>216</ele>
        <time>2019-04-14T10:39:55Z</time>
      </trkpt>
      <trkpt lat="44.42977" lon="1.34042">
        <ele>216</ele>
        <time>2019-04-14T10:39:56Z</time>
      </trkpt>
      <trkpt lat="44.42978" lon="1.34041">
        <ele>217</ele>
        <time>2019-04-14T10:39:57Z</time>
      </trkpt>
      <trkpt lat="44.42979" lon="1.3404">
        <ele>217</ele>
        <time>2019-04-14T10:39:58Z</time>
      </trkpt>
      <trkpt lat="44.4298" lon="1.34038">
        <ele>217</ele>
        <time>2019-04-14T10:39:59Z</time>
      </trkpt>
      <trkpt lat="44.42982" lon="1.34038">
        <ele>217</ele>
        <time>2019-04-14T10:40:00Z</time>
      </trkpt>
      <trkpt lat="44.42983" lon="1.34036">
        <ele>218</ele>
        <time>2019-04-14T10:40:01Z</time>
      </trkpt>
      <trkpt lat="44.42983" lon="1.34036">
        <ele>218</ele>
        <time>2019-04-14T10:40:02Z</time>
      </trkpt>
      <trkpt lat="44.42984" lon="1.34034">
        <ele>218</ele>
        <time>2019-04-14T10:40:03Z</time>
      </trkpt>
      <trkpt lat="44.42984" lon="1.34033">
        <ele>218</ele>
        <time>2019-04-14T10:40:04Z</time>
      </trkpt>
      <trkpt lat="44.42985" lon="1.34031">
        <ele>219</ele>
        <time>2019-04-14T10:40:05Z</time>
      </trkpt>
      <trkpt lat="44.42985" lon="1.3403">
        <ele>219</ele>
        <time>2019-04-14T10:40:07Z</time>
      </trkpt>
      <trkpt lat="44.42986" lon="1.34028">
        <ele>219</ele>
        <time>2019-04-14T10:40:08Z</time>
      </trkpt>
      <trkpt lat="44.42987" lon="1.34027">
        <ele>219</ele>
        <time>2019-04-14T10:40:09Z</time>
      </trkpt>
      <trkpt lat="44.42988" lon="1.34025">
        <ele>220</ele>
        <time>2019-04-14T10:40:10Z</time>
      </trkpt>
      <trkpt lat="44.42989" lon="1.34024">
        <ele>220</ele>
        <time>2019-04-14T10:40:11Z</time>
      </trkpt>
      <trkpt lat="44.4299" lon="1.3402">
        <ele>220</ele>
        <time>2019-04-14T10:40:12Z</time>
      </trkpt>
      <trkpt lat="44.42991" lon="1.34018">
        <ele>220</ele>
        <time>2019-04-14T10:40:13Z</time>
      </trkpt>
      <trkpt lat="44.42991" lon="1.34016">
        <ele>221</ele>
        <time>2019-04-14T10:40:14Z</time>
      </trkpt>
      <trkpt lat="44.42991" lon="1.34015">
        <ele>221</ele>
        <time>2019-04-14T10:40:15Z</time>
      </trkpt>
      <trkpt lat="44.42991" lon="1.34013">
        <ele>221</ele>
        <time>2019-04-14T10:40:16Z</time>
      </trkpt>
      <trkpt lat="44.42992" lon="1.34012">
        <ele>221</ele>
        <time>2019-04-14T10:40:17Z</time>
      </trkpt>
      <trkpt lat="44.42993" lon="1.34011">
        <ele>221</ele>
        <time>2019-04-14T10:40:18Z</time>
      </trkpt>
      <trkpt lat="44.42993" lon="1.34009">
        <ele>222</ele>
        <time>2019-04-14T10:40:19Z</time>
      </trkpt>
      <trkpt lat="44.42994" lon="1.34008">
        <ele>222</ele>
        <time>2019-04-14T10:40:20Z</time>
      </trkpt>
      <trkpt lat="44.42994" lon="1.34007">
        <ele>222</ele>
        <time>2019-04-14T10:40:21Z</time>
      </trkpt>
      <trkpt lat="44.42995" lon="1.34006">
        <ele>222</ele>
        <time>2019-04-14T10:40:22Z</time>
      </trkpt>
      <trkpt lat="44.42995" lon="1.34004">
        <ele>222</ele>
        <time>2019-04-14T10:40:23Z</time>
      </trkpt>
      <trkpt lat="44.42995" lon="1.34003">
        <ele>222</ele>
        <time>2019-04-14T10:40:24Z</time>
      </trkpt>
      <trkpt lat="44.42996" lon="1.34001">
        <ele>222</ele>
        <time>2019-04-14T10:40:25Z</time>
      </trkpt>
      <trkpt lat="44.42996" lon="1.34">
        <ele>223</ele>
        <time>2019-04-14T10:40:26Z</time>
      </trkpt>
      <trkpt lat="44.42997" lon="1.33999">
        <ele>223</ele>
        <time>2019-04-14T10:40:27Z</time>
      </trkpt>
      <trkpt lat="44.42998" lon="1.33998">
        <ele>223</ele>
        <time>2019-04-14T10:40:29Z</time>
      </trkpt>
      <trkpt lat="44.42998" lon="1.33997">
        <ele>223</ele>
        <time>2019-04-14T10:40:30Z</time>
      </trkpt>
      <trkpt lat="44.42999" lon="1.33996">
        <ele>223</ele>
        <time>2019-04-14T10:40:31Z</time>
      </trkpt>
      <trkpt lat="44.43" lon="1.33994">
        <ele>224</ele>
        <time>2019-04-14T10:40:32Z</time>
      </trkpt>
      <trkpt lat="44.43001" lon="1.33993">
        <ele>224</ele>
        <time>2019-04-14T10:40:33Z</time>
      </trkpt>
      <trkpt lat="44.43001" lon="1.33991">
        <ele>224</ele>
        <time>2019-04-14T10:40:34Z</time>
      </trkpt>
      <trkpt lat="44.43002" lon="1.3399">
        <ele>224</ele>
        <time>2019-04-14T10:40:35Z</time>
      </trkpt>
      <trkpt lat="44.43002" lon="1.33987">
        <ele>224</ele>
        <time>2019-04-14T10:40:36Z</time>
      </trkpt>
      <trkpt lat="44.43003" lon="1.33986">
        <ele>224</ele>
        <time>2019-04-14T10:40:37Z</time>
      </trkpt>
      <trkpt lat="44.43004" lon="1.33984">
        <ele>225</ele>
        <time>2019-04-14T10:40:38Z</time>
      </trkpt>
      <trkpt lat="44.43004" lon="1.33982">
        <ele>225</ele>
        <time>2019-04-14T10:40:39Z</time>
      </trkpt>
      <trkpt lat="44.43005" lon="1.33981">
        <ele>225</ele>
        <time>2019-04-14T10:40:40Z</time>
      </trkpt>
      <trkpt lat="44.43006" lon="1.3398">
        <ele>225</ele>
        <time>2019-04-14T10:40:41Z</time>
      </trkpt>
      <trkpt lat="44.43007" lon="1.33978">
        <ele>225</ele>
        <time>2019-04-14T10:40:42Z</time>
      </trkpt>
      <trkpt lat="44.43008" lon="1.33977">
        <ele>226</ele>
        <time>2019-04-14T10:40:43Z</time>
      </trkpt>
      <trkpt lat="44.43009" lon="1.33975">
        <ele>226</ele>
        <time>2019-04-14T10:40:44Z</time>
      </trkpt>
      <trkpt lat="44.4301" lon="1.33974">
        <ele>226</ele>
        <time>2019-04-14T10:40:45Z</time>
      </trkpt>
      <trkpt lat="44.4301" lon="1.33973">
        <ele>226</ele>
        <time>2019-04-14T10:40:46Z</time>
      </trkpt>
      <trkpt lat="44.43011" lon="1.33973">
        <ele>226</ele>
        <time>2019-04-14T10:40:47Z</time>
      </trkpt>
      <trkpt lat="44.43011" lon="1.33971">
        <ele>226</ele>
        <time>2019-04-14T10:40:48Z</time>
      </trkpt>
      <trkpt lat="44.43012" lon="1.3397">
        <ele>227</ele>
        <time>2019-04-14T10:40:49Z</time>
      </trkpt>
      <trkpt lat="44.43012" lon="1.33968">
        <ele>227</ele>
        <time>2019-04-14T10:40:50Z</time>
      </trkpt>
      <trkpt lat="44.43012" lon="1.33967">
        <ele>227</ele>
        <time>2019-04-14T10:40:51Z</time>
      </trkpt>
      <trkpt lat="44.43012" lon="1.33965">
        <ele>227</ele>
        <time>2019-04-14T10:40:52Z</time>
      </trkpt>
      <trkpt lat="44.43012" lon="1.33963">
        <ele>227</ele>
        <time>2019-04-14T10:40:53Z</time>
      </trkpt>
      <trkpt lat="44.43013" lon="1.33961">
        <ele>227</ele>
        <time>2019-04-14T10:40:54Z</time>
      </trkpt>
      <trkpt lat="44.43015" lon="1.3396">
        <ele>228</ele>
        <time>2019-04-14T10:40:55Z</time>
      </trkpt>
      <trkpt lat="44.43015" lon="1.33959">
        <ele>228</ele>
        <time>2019-04-14T10:40:56Z</time>
      </trkpt>
      <trkpt lat="44.43016" lon="1.33957">
        <ele>228</ele>
        <time>2019-04-14T10:40:58Z</time>
      </trkpt>
      <trkpt lat="44.43015" lon="1.33955">
        <ele>228</ele>
        <time>2019-04-14T10:40:59Z</time>
      </trkpt>
      <trkpt lat="44.43015" lon="1.33954">
        <ele>229</ele>
        <time>2019-04-14T10:41:00Z</time>
      </trkpt>
      <trkpt lat="44.43014" lon="1.33954">
        <ele>229</ele>
        <time>2019-04-14T10:41:01Z</time>
      </trkpt>
      <trkpt lat="44.43014" lon="1.33954">
        <ele>230</ele>
        <time>2019-04-14T10:41:02Z</time>
      </trkpt>
      <trkpt lat="44.43014" lon="1.33955">
        <ele>230</ele>
        <time>2019-04-14T10:41:03Z</time>
      </trkpt>
      <trkpt lat="44.43014" lon="1.33955">
        <ele>230</ele>
        <time>2019-04-14T10:41:04Z</time>
      </trkpt>
      <trkpt lat="44.43014" lon="1.33955">
        <ele>230</ele>
        <time>2019-04-14T10:41:05Z</time>
      </trkpt>
      <trkpt lat="44.43013" lon="1.33955">
        <ele>231</ele>
        <time>2019-04-14T10:41:06Z</time>
      </trkpt>
      <trkpt lat="44.43012" lon="1.33956">
        <ele>231</ele>
        <time>2019-04-14T10:41:07Z</time>
      </trkpt>
      <trkpt lat="44.43001" lon="1.33966">
        <ele>235</ele>
        <time>2019-04-14T10:41:25Z</time>
      </trkpt>
      <trkpt lat="44.43" lon="1.33967">
        <ele>235</ele>
        <time>2019-04-14T10:41:26Z</time>
      </trkpt>
      <trkpt lat="44.42999" lon="1.33968">
        <ele>236</ele>
        <time>2019-04-14T10:41:27Z</time>
      </trkpt>
      <trkpt lat="44.42998" lon="1.33968">
        <ele>236</ele>
        <time>2019-04-14T10:41:28Z</time>
      </trkpt>
      <trkpt lat="44.42997" lon="1.33969">
        <ele>236</ele>
        <time>2019-04-14T10:41:29Z</time>
      </trkpt>
      <trkpt lat="44.42996" lon="1.3397">
        <ele>236</ele>
        <time>2019-04-14T10:41:30Z</time>
      </trkpt>
      <trkpt lat="44.42995" lon="1.33971">
        <ele>236</ele>
        <time>2019-04-14T10:41:31Z</time>
      </trkpt>
      <trkpt lat="44.42991" lon="1.3397">
        <ele>236</ele>
        <time>2019-04-14T10:41:32Z</time>
      </trkpt>
      <trkpt lat="44.42989" lon="1.33971">
        <ele>237</ele>
        <time>2019-04-14T10:41:33Z</time>
      </trkpt>
      <trkpt lat="44.42987" lon="1.33971">
        <ele>237</ele>
        <time>2019-04-14T10:41:34Z</time>
      </trkpt>
      <trkpt lat="44.42986" lon="1.33972">
        <ele>237</ele>
        <time>2019-04-14T10:41:36Z</time>
      </trkpt>
      <trkpt lat="44.42985" lon="1.33973">
        <ele>237</ele>
        <time>2019-04-14T10:41:37Z</time>
      </trkpt>
      <trkpt lat="44.42983" lon="1.33973">
        <ele>237</ele>
        <time>2019-04-14T10:41:38Z</time>
      </trkpt>
      <trkpt lat="44.42982" lon="1.33973">
        <ele>237</ele>
        <time>2019-04-14T10:41:39Z</time>
      </trkpt>
      <trkpt lat="44.42981" lon="1.33974">
        <ele>237</ele>
        <time>2019-04-14T10:41:40Z</time>
      </trkpt>
      <trkpt lat="44.4298" lon="1.33975">
        <ele>237</ele>
        <time>2019-04-14T10:41:41Z</time>
      </trkpt>
      <trkpt lat="44.42978" lon="1.33976">
        <ele>237</ele>
        <time>2019-04-14T10:41:42Z</time>
      </trkpt>
      <trkpt lat="44.42977" lon="1.33976">
        <ele>238</ele>
        <time>2019-04-14T10:41:43Z</time>
      </trkpt>
      <trkpt lat="44.42976" lon="1.33976">
        <ele>238</ele>
        <time>2019-04-14T10:41:44Z</time>
      </trkpt>
      <trkpt lat="44.42975" lon="1.33977">
        <ele>238</ele>
        <time>2019-04-14T10:41:45Z</time>
      </trkpt>
      <trkpt lat="44.42974" lon="1.33977">
        <ele>239</ele>
        <time>2019-04-14T10:41:46Z</time>
      </trkpt>
      <trkpt lat="44.42973" lon="1.33977">
        <ele>239</ele>
        <time>2019-04-14T10:41:47Z</time>
      </trkpt>
      <trkpt lat="44.42972" lon="1.33978">
        <ele>239</ele>
        <time>2019-04-14T10:41:48Z</time>
      </trkpt>
      <trkpt lat="44.4297" lon="1.33979">
        <ele>240</ele>
        <time>2019-04-14T10:41:49Z</time>
      </trkpt>
      <trkpt lat="44.42969" lon="1.33979">
        <ele>240</ele>
        <time>2019-04-14T10:41:50Z</time>
      </trkpt>
      <trkpt lat="44.42969" lon="1.33979">
        <ele>240</ele>
        <time>2019-04-14T10:41:51Z</time>
      </trkpt>
      <trkpt lat="44.42968" lon="1.33979">
        <ele>241</ele>
        <time>2019-04-14T10:41:52Z</time>
      </trkpt>
      <trkpt lat="44.42967" lon="1.33978">
        <ele>241</ele>
        <time>2019-04-14T10:41:53Z</time>
      </trkpt>
      <trkpt lat="44.42966" lon="1.33978">
        <ele>241</ele>
        <time>2019-04-14T10:41:55Z</time>
      </trkpt>
      <trkpt lat="44.42965" lon="1.33977">
        <ele>242</ele>
        <time>2019-04-14T10:41:56Z</time>
      </trkpt>
      <trkpt lat="44.42964" lon="1.33977">
        <ele>242</ele>
        <time>2019-04-14T10:41:57Z</time>
      </trkpt>
      <trkpt lat="44.42963" lon="1.33977">
        <ele>242</ele>
        <time>2019-04-14T10:41:58Z</time>
      </trkpt>
      <trkpt lat="44.42962" lon="1.33977">
        <ele>242</ele>
        <time>2019-04-14T10:41:59Z</time>
      </trkpt>
      <trkpt lat="44.42961" lon="1.33978">
        <ele>243</ele>
        <time>2019-04-14T10:42:00Z</time>
      </trkpt>
      <trkpt lat="44.42959" lon="1.33979">
        <ele>243</ele>
        <time>2019-04-14T10:42:01Z</time>
      </trkpt>
      <trkpt lat="44.42958" lon="1.33979">
        <ele>243</ele>
        <time>2019-04-14T10:42:02Z</time>
      </trkpt>
      <trkpt lat="44.42956" lon="1.3398">
        <ele>243</ele>
        <time>2019-04-14T10:42:03Z</time>
      </trkpt>
      <trkpt lat="44.42955" lon="1.33981">
        <ele>243</ele>
        <time>2019-04-14T10:42:04Z</time>
      </trkpt>
      <trkpt lat="44.42953" lon="1.33982">
        <ele>243</ele>
        <time>2019-04-14T10:42:05Z</time>
      </trkpt>
      <trkpt lat="44.42952" lon="1.33983">
        <ele>243</ele>
        <time>2019-04-14T10:42:06Z</time>
      </trkpt>
      <trkpt lat="44.42951" lon="1.33984">
        <ele>244</ele>
        <time>2019-04-14T10:42:07Z</time>
      </trkpt>
      <trkpt lat="44.4295" lon="1.33984">
        <ele>244</ele>
        <time>2019-04-14T10:42:08Z</time>
      </trkpt>
      <trkpt lat="44.42949" lon="1.33985">
        <ele>244</ele>
        <time>2019-04-14T10:42:09Z</time>
      </trkpt>
      <trkpt lat="44.42948" lon="1.33985">
        <ele>244</ele>
        <time>2019-04-14T10:42:10Z</time>
      </trkpt>
      <trkpt lat="44.42947" lon="1.33986">
        <ele>244</ele>
        <time>2019-04-14T10:42:11Z</time>
      </trkpt>
      <trkpt lat="44.42946" lon="1.33985">
        <ele>245</ele>
        <time>2019-04-14T10:42:13Z</time>
      </trkpt>
      <trkpt lat="44.42944" lon="1.33985">
        <ele>245</ele>
        <time>2019-04-14T10:42:14Z</time>
      </trkpt>
      <trkpt lat="44.42943" lon="1.33984">
        <ele>246</ele>
        <time>2019-04-14T10:42:15Z</time>
      </trkpt>
      <trkpt lat="44.42943" lon="1.33984">
        <ele>246</ele>
        <time>2019-04-14T10:42:16Z</time>
      </trkpt>
      <trkpt lat="44.42941" lon="1.33983">
        <ele>246</ele>
        <time>2019-04-14T10:42:17Z</time>
      </trkpt>
      <trkpt lat="44.4294" lon="1.33983">
        <ele>246</ele>
        <time>2019-04-14T10:42:18Z</time>
      </trkpt>
      <trkpt lat="44.42939" lon="1.33982">
        <ele>246</ele>
        <time>2019-04-14T10:42:19Z</time>
      </trkpt>
      <trkpt lat="44.42938" lon="1.33981">
        <ele>247</ele>
        <time>2019-04-14T10:42:21Z</time>
      </trkpt>
      <trkpt lat="44.42937" lon="1.33981">
        <ele>247</ele>
        <time>2019-04-14T10:42:22Z</time>
      </trkpt>
      <trkpt lat="44.42937" lon="1.33981">
        <ele>247</ele>
        <time>2019-04-14T10:42:23Z</time>
      </trkpt>
      <trkpt lat="44.42936" lon="1.33982">
        <ele>247</ele>
        <time>2019-04-14T10:42:24Z</time>
      </trkpt>
      <trkpt lat="44.42935" lon="1.33983">
        <ele>247</ele>
        <time>2019-04-14T10:42:25Z</time>
      </trkpt>
      <trkpt lat="44.42935" lon="1.33984">
        <ele>247</ele>
        <time>2019-04-14T10:42:26Z</time>
      </trkpt>
      <trkpt lat="44.42934" lon="1.33985">
        <ele>247</ele>
        <time>2019-04-14T10:42:27Z</time>
      </trkpt>
      <trkpt lat="44.42932" lon="1.33984">
        <ele>247</ele>
        <time>2019-04-14T10:42:28Z</time>
      </trkpt>
      <trkpt lat="44.42927" lon="1.33985">
        <ele>248</ele>
        <time>2019-04-14T10:42:33Z</time>
      </trkpt>
      <trkpt lat="44.42926" lon="1.33985">
        <ele>248</ele>
        <time>2019-04-14T10:42:34Z</time>
      </trkpt>
      <trkpt lat="44.42925" lon="1.33985">
        <ele>249</ele>
        <time>2019-04-14T10:42:35Z</time>
      </trkpt>
      <trkpt lat="44.42924" lon="1.33985">
        <ele>249</ele>
        <time>2019-04-14T10:42:36Z</time>
      </trkpt>
      <trkpt lat="44.42923" lon="1.33985">
        <ele>249</ele>
        <time>2019-04-14T10:42:37Z</time>
      </trkpt>
      <trkpt lat="44.42921" lon="1.33985">
        <ele>249</ele>
        <time>2019-04-14T10:42:38Z</time>
      </trkpt>
      <trkpt lat="44.42919" lon="1.33984">
        <ele>249</ele>
        <time>2019-04-14T10:42:39Z</time>
      </trkpt>
      <trkpt lat="44.42918" lon="1.33983">
        <ele>249</ele>
        <time>2019-04-14T10:42:40Z</time>
      </trkpt>
      <trkpt lat="44.42917" lon="1.33983">
        <ele>249</ele>
        <time>2019-04-14T10:42:41Z</time>
      </trkpt>
      <trkpt lat="44.42916" lon="1.33982">
        <ele>249</ele>
        <time>2019-04-14T10:42:42Z</time>
      </trkpt>
      <trkpt lat="44.42915" lon="1.33981">
        <ele>249</ele>
        <time>2019-04-14T10:42:44Z</time>
      </trkpt>
      <trkpt lat="44.42914" lon="1.3398">
        <ele>250</ele>
        <time>2019-04-14T10:42:45Z</time>
      </trkpt>
      <trkpt lat="44.42913" lon="1.33979">
        <ele>250</ele>
        <time>2019-04-14T10:42:46Z</time>
      </trkpt>
      <trkpt lat="44.42911" lon="1.33976">
        <ele>250</ele>
        <time>2019-04-14T10:42:47Z</time>
      </trkpt>
      <trkpt lat="44.4291" lon="1.33975">
        <ele>250</ele>
        <time>2019-04-14T10:42:48Z</time>
      </trkpt>
      <trkpt lat="44.42909" lon="1.33974">
        <ele>250</ele>
        <time>2019-04-14T10:42:49Z</time>
      </trkpt>
      <trkpt lat="44.42909" lon="1.33972">
        <ele>250</ele>
        <time>2019-04-14T10:42:50Z</time>
      </trkpt>
      <trkpt lat="44.42909" lon="1.33971">
        <ele>250</ele>
        <time>2019-04-14T10:42:51Z</time>
      </trkpt>
      <trkpt lat="44.42908" lon="1.3397">
        <ele>250</ele>
        <time>2019-04-14T10:42:52Z</time>
      </trkpt>
      <trkpt lat="44.42908" lon="1.33969">
        <ele>250</ele>
        <time>2019-04-14T10:42:53Z</time>
      </trkpt>
      <trkpt lat="44.42908" lon="1.33968">
        <ele>251</ele>
        <time>2019-04-14T10:42:54Z</time>
      </trkpt>
      <trkpt lat="44.42907" lon="1.33966">
        <ele>251</ele>
        <time>2019-04-14T10:42:55Z</time>
      </trkpt>
      <trkpt lat="44.42907" lon="1.33965">
        <ele>251</ele>
        <time>2019-04-14T10:42:56Z</time>
      </trkpt>
      <trkpt lat="44.42906" lon="1.33963">
        <ele>251</ele>
        <time>2019-04-14T10:42:57Z</time>
      </trkpt>
      <trkpt lat="44.42906" lon="1.33962">
        <ele>251</ele>
        <time>2019-04-14T10:42:58Z</time>
      </trkpt>
      <trkpt lat="44.42906" lon="1.3396">
        <ele>251</ele>
        <time>2019-04-14T10:42:59Z</time>
      </trkpt>
      <trkpt lat="44.42906" lon="1.33959">
        <ele>251</ele>
        <time>2019-04-14T10:43:00Z</time>
      </trkpt>
      <trkpt lat="44.42906" lon="1.33957">
        <ele>251</ele>
        <time>2019-04-14T10:43:01Z</time>
      </trkpt>
      <trkpt lat="44.42906" lon="1.33956">
        <ele>251</ele>
        <time>2019-04-14T10:43:02Z</time>
      </trkpt>
      <trkpt lat="44.42906" lon="1.33955">
        <ele>251</ele>
        <time>2019-04-14T10:43:03Z</time>
      </trkpt>
      <trkpt lat="44.42905" lon="1.33954">
        <ele>251</ele>
        <time>2019-04-14T10:43:04Z</time>
      </trkpt>
      <trkpt lat="44.42905" lon="1.33953">
        <ele>251</ele>
        <time>2019-04-14T10:43:05Z</time>
      </trkpt>
      <trkpt lat="44.42904" lon="1.33953">
        <ele>251</ele>
        <time>2019-04-14T10:43:06Z</time>
      </trkpt>
      <trkpt lat="44.42905" lon="1.33953">
        <ele>251</ele>
        <time>2019-04-14T10:43:08Z</time>
      </trkpt>
      <trkpt lat="44.42904" lon="1.33953">
        <ele>251</ele>
        <time>2019-04-14T10:43:09Z</time>
      </trkpt>
      <trkpt lat="44.42904" lon="1.33953">
        <ele>251</ele>
        <time>2019-04-14T10:43:10Z</time>
      </trkpt>
      <trkpt lat="44.42904" lon="1.33953">
        <ele>251</ele>
        <time>2019-04-14T10:43:11Z</time>
      </trkpt>
      <trkpt lat="44.42894" lon="1.33935">
        <ele>248</ele>
        <time>2019-04-14T10:48:35Z</time>
      </trkpt>
      <trkpt lat="44.42892" lon="1.33933">
        <ele>247</ele>
        <time>2019-04-14T10:48:36Z</time>
      </trkpt>
      <trkpt lat="44.4289" lon="1.3393">
        <ele>247</ele>
        <time>2019-04-14T10:48:37Z</time>
      </trkpt>
      <trkpt lat="44.42888" lon="1.33927">
        <ele>247</ele>
        <time>2019-04-14T10:48:38Z</time>
      </trkpt>
      <trkpt lat="44.42886" lon="1.33925">
        <ele>247</ele>
        <time>2019-04-14T10:48:39Z</time>
      </trkpt>
      <trkpt lat="44.42885" lon="1.33922">
        <ele>247</ele>
        <time>2019-04-14T10:48:40Z</time>
      </trkpt>
      <trkpt lat="44.42883" lon="1.33919">
        <ele>247</ele>
        <time>2019-04-14T10:48:41Z</time>
      </trkpt>
      <trkpt lat="44.42882" lon="1.33916">
        <ele>247</ele>
        <time>2019-04-14T10:48:42Z</time>
      </trkpt>
      <trkpt lat="44.4288" lon="1.33914">
        <ele>247</ele>
        <time>2019-04-14T10:48:43Z</time>
      </trkpt>
      <trkpt lat="44.42879" lon="1.3391">
        <ele>247</ele>
        <time>2019-04-14T10:48:44Z</time>
      </trkpt>
      <trkpt lat="44.42878" lon="1.33908">
        <ele>248</ele>
        <time>2019-04-14T10:48:45Z</time>
      </trkpt>
      <trkpt lat="44.42877" lon="1.33906">
        <ele>248</ele>
        <time>2019-04-14T10:48:46Z</time>
      </trkpt>
      <trkpt lat="44.42877" lon="1.33903">
        <ele>248</ele>
        <time>2019-04-14T10:48:47Z</time>
      </trkpt>
      <trkpt lat="44.42876" lon="1.33901">
        <ele>248</ele>
        <time>2019-04-14T10:48:48Z</time>
      </trkpt>
      <trkpt lat="44.42875" lon="1.33899">
        <ele>248</ele>
        <time>2019-04-14T10:48:49Z</time>
      </trkpt>
      <trkpt lat="44.42875" lon="1.33897">
        <ele>248</ele>
        <time>2019-04-14T10:48:50Z</time>
      </trkpt>
      <trkpt lat="44.42873" lon="1.33894">
        <ele>249</ele>
        <time>2019-04-14T10:48:51Z</time>
      </trkpt>
      <trkpt lat="44.42872" lon="1.33892">
        <ele>249</ele>
        <time>2019-04-14T10:48:52Z</time>
      </trkpt>
      <trkpt lat="44.42871" lon="1.3389">
        <ele>249</ele>
        <time>2019-04-14T10:48:53Z</time>
      </trkpt>
      <trkpt lat="44.4287" lon="1.33887">
        <ele>249</ele>
        <time>2019-04-14T10:48:54Z</time>
      </trkpt>
      <trkpt lat="44.42868" lon="1.33885">
        <ele>249</ele>
        <time>2019-04-14T10:48:55Z</time>
      </trkpt>
      <trkpt lat="44.42866" lon="1.33882">
        <ele>249</ele>
        <time>2019-04-14T10:48:56Z</time>
      </trkpt>
      <trkpt lat="44.42865" lon="1.33879">
        <ele>250</ele>
        <time>2019-04-14T10:48:57Z</time>
      </trkpt>
      <trkpt lat="44.42863" lon="1.33877">
        <ele>250</ele>
        <time>2019-04-14T10:48:58Z</time>
      </trkpt>
      <trkpt lat="44.42862" lon="1.33874">
        <ele>250</ele>
        <time>2019-04-14T10:48:59Z</time>
      </trkpt>
      <trkpt lat="44.42861" lon="1.33872">
        <ele>250</ele>
        <time>2019-04-14T10:49:00Z</time>
      </trkpt>
      <trkpt lat="44.4286" lon="1.33869">
        <ele>250</ele>
        <time>2019-04-14T10:49:01Z</time>
      </trkpt>
      <trkpt lat="44.4286" lon="1.33867">
        <ele>251</ele>
        <time>2019-04-14T10:49:02Z</time>
      </trkpt>
      <trkpt lat="44.42859" lon="1.33864">
        <ele>251</ele>
        <time>2019-04-14T10:49:03Z</time>
      </trkpt>
      <trkpt lat="44.42859" lon="1.33862">
        <ele>251</ele>
        <time>2019-04-14T10:49:04Z</time>
      </trkpt>
      <trkpt lat="44.42859" lon="1.33861">
        <ele>252</ele>
        <time>2019-04-14T10:49:05Z</time>
      </trkpt>
      <trkpt lat="44.42858" lon="1.33858">
        <ele>252</ele>
        <time>2019-04-14T10:49:06Z</time>
      </trkpt>
      <trkpt lat="44.42858" lon="1.33857">
        <ele>252</ele>
        <time>2019-04-14T10:49:07Z</time>
      </trkpt>
      <trkpt lat="44.42857" lon="1.33855">
        <ele>252</ele>
        <time>2019-04-14T10:49:08Z</time>
      </trkpt>
      <trkpt lat="44.42856" lon="1.33855">
        <ele>252</ele>
        <time>2019-04-14T10:49:09Z</time>
      </trkpt>
      <trkpt lat="44.42854" lon="1.33853">
        <ele>252</ele>
        <time>2019-04-14T10:49:10Z</time>
      </trkpt>
      <trkpt lat="44.42852" lon="1.33853">
        <ele>252</ele>
        <time>2019-04-14T10:49:11Z</time>
      </trkpt>
      <trkpt lat="44.4285" lon="1.33853">
        <ele>252</ele>
        <time>2019-04-14T10:49:12Z</time>
      </trkpt>
      <trkpt lat="44.42848" lon="1.33852">
        <ele>251</ele>
        <time>2019-04-14T10:49:13Z</time>
      </trkpt>
      <trkpt lat="44.42846" lon="1.33851">
        <ele>251</ele>
        <time>2019-04-14T10:49:14Z</time>
      </trkpt>
      <trkpt lat="44.42844" lon="1.3385">
        <ele>251</ele>
        <time>2019-04-14T10:49:15Z</time>
      </trkpt>
      <trkpt lat="44.42843" lon="1.3385">
        <ele>251</ele>
        <time>2019-04-14T10:49:16Z</time>
      </trkpt>
      <trkpt lat="44.42842" lon="1.3385">
        <ele>250</ele>
        <time>2019-04-14T10:49:17Z</time>
      </trkpt>
      <trkpt lat="44.42839" lon="1.33849">
        <ele>250</ele>
        <time>2019-04-14T10:49:18Z</time>
      </trkpt>
      <trkpt lat="44.42837" lon="1.33848">
        <ele>250</ele>
        <time>2019-04-14T10:49:19Z</time>
      </trkpt>
      <trkpt lat="44.42835" lon="1.33847">
        <ele>250</ele>
        <time>2019-04-14T10:49:20Z</time>
      </trkpt>
      <trkpt lat="44.42834" lon="1.33846">
        <ele>250</ele>
        <time>2019-04-14T10:49:21Z</time>
      </trkpt>
      <trkpt lat="44.42832" lon="1.33845">
        <ele>249</ele>
        <time>2019-04-14T10:49:22Z</time>
      </trkpt>
      <trkpt lat="44.42831" lon="1.33843">
        <ele>249</ele>
        <time>2019-04-14T10:49:23Z</time>
      </trkpt>
      <trkpt lat="44.42829" lon="1.33842">
        <ele>249</ele>
        <time>2019-04-14T10:49:24Z</time>
      </trkpt>
      <trkpt lat="44.42828" lon="1.33841">
        <ele>249</ele>
        <time>2019-04-14T10:49:25Z</time>
      </trkpt>
      <trkpt lat="44.42827" lon="1.33839">
        <ele>249</ele>
        <time>2019-04-14T10:49:26Z</time>
      </trkpt>
      <trkpt lat="44.42826" lon="1.33837">
        <ele>249</ele>
        <time>2019-04-14T10:49:27Z</time>
      </trkpt>
      <trkpt lat="44.42825" lon="1.33835">
        <ele>249</ele>
        <time>2019-04-14T10:49:28Z</time>
      </trkpt>
      <trkpt lat="44.42824" lon="1.33833">
        <ele>249</ele>
        <time>2019-04-14T10:49:29Z</time>
      </trkpt>
      <trkpt lat="44.42822" lon="1.3383">
        <ele>249</ele>
        <time>2019-04-14T10:49:30Z</time>
      </trkpt>
      <trkpt lat="44.42821" lon="1.33828">
        <ele>249</ele>
        <time>2019-04-14T10:49:31Z</time>
      </trkpt>
      <trkpt lat="44.42821" lon="1.33826">
        <ele>250</ele>
        <time>2019-04-14T10:49:32Z</time>
      </trkpt>
      <trkpt lat="44.42821" lon="1.33825">
        <ele>250</ele>
        <time>2019-04-14T10:49:33Z</time>
      </trkpt>
      <trkpt lat="44.42822" lon="1.33825">
        <ele>250</ele>
        <time>2019-04-14T10:49:34Z</time>
      </trkpt>
      <trkpt lat="44.42821" lon="1.33825">
        <ele>250</ele>
        <time>2019-04-14T10:49:35Z</time>
      </trkpt>
      <trkpt lat="44.42821" lon="1.33824">
        <ele>250</ele>
        <time>2019-04-14T10:49:36Z</time>
      </trkpt>
      <trkpt lat="44.42822" lon="1.33823">
        <ele>251</ele>
        <time>2019-04-14T10:49:37Z</time>
      </trkpt>
      <trkpt lat="44.42821" lon="1.33822">
        <ele>251</ele>
        <time>2019-04-14T10:49:38Z</time>
      </trkpt>
      <trkpt lat="44.42821" lon="1.33823">
        <ele>251</ele>
        <time>2019-04-14T10:49:39Z</time>
      </trkpt>
      <trkpt lat="44.42821" lon="1.33822">
        <ele>251</ele>
        <time>2019-04-14T10:49:40Z</time>
      </trkpt>
      <trkpt lat="44.4282" lon="1.33821">
        <ele>251</ele>
        <time>2019-04-14T10:49:41Z</time>
      </trkpt>
      <trkpt lat="44.42819" lon="1.33819">
        <ele>251</ele>
        <time>2019-04-14T10:49:42Z</time>
      </trkpt>
      <trkpt lat="44.4282" lon="1.33817">
        <ele>252</ele>
        <time>2019-04-14T10:49:43Z</time>
      </trkpt>
      <trkpt lat="44.4282" lon="1.33815">
        <ele>252</ele>
        <time>2019-04-14T10:49:44Z</time>
      </trkpt>
      <trkpt lat="44.42823" lon="1.3381">
        <ele>254</ele>
        <time>2019-04-14T10:49:49Z</time>
      </trkpt>
      <trkpt lat="44.42823" lon="1.33809">
        <ele>254</ele>
        <time>2019-04-14T10:49:50Z</time>
      </trkpt>
      <trkpt lat="44.42823" lon="1.33808">
        <ele>254</ele>
        <time>2019-04-14T10:49:51Z</time>
      </trkpt>
      <trkpt lat="44.42823" lon="1.33807">
        <ele>255</ele>
        <time>2019-04-14T10:49:52Z</time>
      </trkpt>
      <trkpt lat="44.42822" lon="1.33806">
        <ele>255</ele>
        <time>2019-04-14T10:49:53Z</time>
      </trkpt>
      <trkpt lat="44.42822" lon="1.33805">
        <ele>255</ele>
        <time>2019-04-14T10:49:54Z</time>
      </trkpt>
      <trkpt lat="44.42822" lon="1.33804">
        <ele>255</ele>
        <time>2019-04-14T10:49:55Z</time>
      </trkpt>
      <trkpt lat="44.42821" lon="1.33803">
        <ele>255</ele>
        <time>2019-04-14T10:49:56Z</time>
      </trkpt>
      <trkpt lat="44.42821" lon="1.33803">
        <ele>255</ele>
        <time>2019-04-14T10:49:57Z</time>
      </trkpt>
      <trkpt lat="44.42821" lon="1.33802">
        <ele>255</ele>
        <time>2019-04-14T10:49:58Z</time>
      </trkpt>
      <trkpt lat="44.4282" lon="1.33801">
        <ele>255</ele>
        <time>2019-04-14T10:49:59Z</time>
      </trkpt>
      <trkpt lat="44.42819" lon="1.338">
        <ele>255</ele>
        <time>2019-04-14T10:50:00Z</time>
      </trkpt>
      <trkpt lat="44.42817" lon="1.338">
        <ele>255</ele>
        <time>2019-04-14T10:50:01Z</time>
      </trkpt>
      <trkpt lat="44.42814" lon="1.338">
        <ele>255</ele>
        <time>2019-04-14T10:50:02Z</time>
      </trkpt>
      <trkpt lat="44.42802" lon="1.33805">
        <ele>252</ele>
        <time>2019-04-14T10:50:07Z</time>
      </trkpt>
      <trkpt lat="44.42798" lon="1.33804">
        <ele>251</ele>
        <time>2019-04-14T10:50:08Z</time>
      </trkpt>
      <trkpt lat="44.42795" lon="1.33802">
        <ele>251</ele>
        <time>2019-04-14T10:50:09Z</time>
      </trkpt>
      <trkpt lat="44.42794" lon="1.338">
        <ele>251</ele>
        <time>2019-04-14T10:50:10Z</time>
      </trkpt>
      <trkpt lat="44.42793" lon="1.33797">
        <ele>251</ele>
        <time>2019-04-14T10:50:11Z</time>
      </trkpt>
      <trkpt lat="44.42792" lon="1.33795">
        <ele>252</ele>
        <time>2019-04-14T10:50:12Z</time>
      </trkpt>
      <trkpt lat="44.42791" lon="1.33793">
        <ele>252</ele>
        <time>2019-04-14T10:50:13Z</time>
      </trkpt>
      <trkpt lat="44.42789" lon="1.33792">
        <ele>252</ele>
        <time>2019-04-14T10:50:14Z</time>
      </trkpt>
      <trkpt lat="44.42787" lon="1.33791">
        <ele>252</ele>
        <time>2019-04-14T10:50:15Z</time>
      </trkpt>
      <trkpt lat="44.42785" lon="1.33792">
        <ele>252</ele>
        <time>2019-04-14T10:50:16Z</time>
      </trkpt>
      <trkpt lat="44.42781" lon="1.33793">
        <ele>251</ele>
        <time>2019-04-14T10:50:17Z</time>
      </trkpt>
      <trkpt lat="44.42778" lon="1.33794">
        <ele>250</ele>
        <time>2019-04-14T10:50:18Z</time>
      </trkpt>
      <trkpt lat="44.42775" lon="1.33795">
        <ele>250</ele>
        <time>2019-04-14T10:50:19Z</time>
      </trkpt>
      <trkpt lat="44.42773" lon="1.33796">
        <ele>249</ele>
        <time>2019-04-14T10:50:20Z</time>
      </trkpt>
      <trkpt lat="44.4277" lon="1.33797">
        <ele>248</ele>
        <time>2019-04-14T10:50:21Z</time>
      </trkpt>
      <trkpt lat="44.42767" lon="1.33796">
        <ele>248</ele>
        <time>2019-04-14T10:50:22Z</time>
      </trkpt>
      <trkpt lat="44.42764" lon="1.33793">
        <ele>248</ele>
        <time>2019-04-14T10:50:23Z</time>
      </trkpt>
      <trkpt lat="44.42762" lon="1.3379">
        <ele>248</ele>
        <time>2019-04-14T10:50:24Z</time>
      </trkpt>
      <trkpt lat="44.4276" lon="1.33787">
        <ele>248</ele>
        <time>2019-04-14T10:50:25Z</time>
      </trkpt>
      <trkpt lat="44.42759" lon="1.33784">
        <ele>248</ele>
        <time>2019-04-14T10:50:26Z</time>
      </trkpt>
      <trkpt lat="44.42758" lon="1.33781">
        <ele>249</ele>
        <time>2019-04-14T10:50:27Z</time>
      </trkpt>
      <trkpt lat="44.42757" lon="1.33778">
        <ele>249</ele>
        <time>2019-04-14T10:50:28Z</time>
      </trkpt>
      <trkpt lat="44.42757" lon="1.33775">
        <ele>249</ele>
        <time>2019-04-14T10:50:29Z</time>
      </trkpt>
      <trkpt lat="44.42756" lon="1.33772">
        <ele>249</ele>
        <time>2019-04-14T10:50:30Z</time>
      </trkpt>
      <trkpt lat="44.42756" lon="1.33769">
        <ele>249</ele>
        <time>2019-04-14T10:50:31Z</time>
      </trkpt>
      <trkpt lat="44.42755" lon="1.33766">
        <ele>250</ele>
        <time>2019-04-14T10:50:32Z</time>
      </trkpt>
      <trkpt lat="44.42754" lon="1.33763">
        <ele>250</ele>
        <time>2019-04-14T10:50:33Z</time>
      </trkpt>
      <trkpt lat="44.42753" lon="1.3376">
        <ele>250</ele>
        <time>2019-04-14T10:50:34Z</time>
      </trkpt>
      <trkpt lat="44.42752" lon="1.33757">
        <ele>250</ele>
        <time>2019-04-14T10:50:35Z</time>
      </trkpt>
      <trkpt lat="44.4275" lon="1.33755">
        <ele>250</ele>
        <time>2019-04-14T10:50:36Z</time>
      </trkpt>
      <trkpt lat="44.42749" lon="1.33752">
        <ele>250</ele>
        <time>2019-04-14T10:50:37Z</time>
      </trkpt>
      <trkpt lat="44.42747" lon="1.3375">
        <ele>250</ele>
        <time>2019-04-14T10:50:38Z</time>
      </trkpt>
      <trkpt lat="44.42744" lon="1.33747">
        <ele>250</ele>
        <time>2019-04-14T10:50:39Z</time>
      </trkpt>
      <trkpt lat="44.4274" lon="1.33745">
        <ele>249</ele>
        <time>2019-04-14T10:50:40Z</time>
      </trkpt>
      <trkpt lat="44.42737" lon="1.33741">
        <ele>249</ele>
        <time>2019-04-14T10:50:41Z</time>
      </trkpt>
      <trkpt lat="44.42733" lon="1.33735">
        <ele>248</ele>
        <time>2019-04-14T10:50:42Z</time>
      </trkpt>
      <trkpt lat="44.42729" lon="1.33729">
        <ele>247</ele>
        <time>2019-04-14T10:50:43Z</time>
      </trkpt>
      <trkpt lat="44.42725" lon="1.33722">
        <ele>247</ele>
        <time>2019-04-14T10:50:44Z</time>
      </trkpt>
      <trkpt lat="44.42721" lon="1.33716">
        <ele>247</ele>
        <time>2019-04-14T10:50:45Z</time>
      </trkpt>
      <trkpt lat="44.42717" lon="1.33711">
        <ele>247</ele>
        <time>2019-04-14T10:50:46Z</time>
      </trkpt>
      <trkpt lat="44.42714" lon="1.33707">
        <ele>247</ele>
        <time>2019-04-14T10:50:47Z</time>
      </trkpt>
      <trkpt lat="44.42712" lon="1.33703">
        <ele>247</ele>
        <time>2019-04-14T10:50:48Z</time>
      </trkpt>
      <trkpt lat="44.42711" lon="1.337">
        <ele>248</ele>
        <time>2019-04-14T10:50:49Z</time>
      </trkpt>
      <trkpt lat="44.4271" lon="1.33697">
        <ele>248</ele>
        <time>2019-04-14T10:50:50Z</time>
      </trkpt>
      <trkpt lat="44.4271" lon="1.33694">
        <ele>248</ele>
        <time>2019-04-14T10:50:51Z</time>
      </trkpt>
      <trkpt lat="44.4271" lon="1.33692">
        <ele>249</ele>
        <time>2019-04-14T10:50:52Z</time>
      </trkpt>
      <trkpt lat="44.4271" lon="1.3369">
        <ele>249</ele>
        <time>2019-04-14T10:50:53Z</time>
      </trkpt>
      <trkpt lat="44.4271" lon="1.33687">
        <ele>249</ele>
        <time>2019-04-14T10:50:54Z</time>
      </trkpt>
      <trkpt lat="44.42708" lon="1.33685">
        <ele>250</ele>
        <time>2019-04-14T10:50:55Z</time>
      </trkpt>
      <trkpt lat="44.42707" lon="1.33682">
        <ele>250</ele>
        <time>2019-04-14T10:50:56Z</time>
      </trkpt>
      <trkpt lat="44.42706" lon="1.3368">
        <ele>250</ele>
        <time>2019-04-14T10:50:57Z</time>
      </trkpt>
      <trkpt lat="44.42705" lon="1.33677">
        <ele>250</ele>
        <time>2019-04-14T10:50:58Z</time>
      </trkpt>
      <trkpt lat="44.42703" lon="1.33674">
        <ele>250</ele>
        <time>2019-04-14T10:50:59Z</time>
      </trkpt>
      <trkpt lat="44.42702" lon="1.33671">
        <ele>250</ele>
        <time>2019-04-14T10:51:00Z</time>
      </trkpt>
      <trkpt lat="44.42702" lon="1.33668">
        <ele>250</ele>
        <time>2019-04-14T10:51:01Z</time>
      </trkpt>
      <trkpt lat="44.42702" lon="1.33666">
        <ele>251</ele>
        <time>2019-04-14T10:51:02Z</time>
      </trkpt>
      <trkpt lat="44.42702" lon="1.33663">
        <ele>251</ele>
        <time>2019-04-14T10:51:03Z</time>
      </trkpt>
      <trkpt lat="44.42703" lon="1.33662">
        <ele>251</ele>
        <time>2019-04-14T10:51:04Z</time>
      </trkpt>
      <trkpt lat="44.42704" lon="1.3366">
        <ele>251</ele>
        <time>2019-04-14T10:51:05Z</time>
      </trkpt>
      <trkpt lat="44.42705" lon="1.33659">
        <ele>252</ele>
        <time>2019-04-14T10:51:06Z</time>
      </trkpt>
      <trkpt lat="44.42706" lon="1.33658">
        <ele>252</ele>
        <time>2019-04-14T10:51:07Z</time>
      </trkpt>
      <trkpt lat="44.42706" lon="1.33657">
        <ele>253</ele>
        <time>2019-04-14T10:51:08Z</time>
      </trkpt>
      <trkpt lat="44.42707" lon="1.33656">
        <ele>253</ele>
        <time>2019-04-14T10:51:09Z</time>
      </trkpt>
      <trkpt lat="44.42709" lon="1.33656">
        <ele>253</ele>
        <time>2019-04-14T10:51:10Z</time>
      </trkpt>
      <trkpt lat="44.4271" lon="1.33656">
        <ele>253</ele>
        <time>2019-04-14T10:51:11Z</time>
      </trkpt>
      <trkpt lat="44.42711" lon="1.33656">
        <ele>254</ele>
        <time>2019-04-14T10:51:12Z</time>
      </trkpt>
      <trkpt lat="44.42712" lon="1.33656">
        <ele>254</ele>
        <time>2019-04-14T10:51:13Z</time>
      </trkpt>
      <trkpt lat="44.42714" lon="1.33656">
        <ele>254</ele>
        <time>2019-04-14T10:51:14Z</time>
      </trkpt>
      <trkpt lat="44.42714" lon="1.33655">
        <ele>255</ele>
        <time>2019-04-14T10:51:15Z</time>
      </trkpt>
      <trkpt lat="44.42715" lon="1.33654">
        <ele>255</ele>
        <time>2019-04-14T10:51:16Z</time>
      </trkpt>
      <trkpt lat="44.42716" lon="1.33654">
        <ele>255</ele>
        <time>2019-04-14T10:51:17Z</time>
      </trkpt>
      <trkpt lat="44.42717" lon="1.33654">
        <ele>256</ele>
        <time>2019-04-14T10:51:18Z</time>
      </trkpt>
      <trkpt lat="44.42719" lon="1.33653">
        <ele>256</ele>
        <time>2019-04-14T10:51:19Z</time>
      </trkpt>
      <trkpt lat="44.4272" lon="1.33652">
        <ele>256</ele>
        <time>2019-04-14T10:51:20Z</time>
      </trkpt>
      <trkpt lat="44.42721" lon="1.3365">
        <ele>256</ele>
        <time>2019-04-14T10:51:21Z</time>
      </trkpt>
      <trkpt lat="44.42722" lon="1.33649">
        <ele>257</ele>
        <time>2019-04-14T10:51:22Z</time>
      </trkpt>
      <trkpt lat="44.42723" lon="1.33648">
        <ele>257</ele>
        <time>2019-04-14T10:51:23Z</time>
      </trkpt>
      <trkpt lat="44.42723" lon="1.33646">
        <ele>257</ele>
        <time>2019-04-14T10:51:24Z</time>
      </trkpt>
      <trkpt lat="44.42723" lon="1.33644">
        <ele>257</ele>
        <time>2019-04-14T10:51:25Z</time>
      </trkpt>
      <trkpt lat="44.42723" lon="1.33642">
        <ele>258</ele>
        <time>2019-04-14T10:51:26Z</time>
      </trkpt>
      <trkpt lat="44.42722" lon="1.3364">
        <ele>258</ele>
        <time>2019-04-14T10:51:27Z</time>
      </trkpt>
      <trkpt lat="44.42722" lon="1.33638">
        <ele>258</ele>
        <time>2019-04-14T10:51:28Z</time>
      </trkpt>
      <trkpt lat="44.42722" lon="1.33636">
        <ele>258</ele>
        <time>2019-04-14T10:51:29Z</time>
      </trkpt>
      <trkpt lat="44.42722" lon="1.33635">
        <ele>258</ele>
        <time>2019-04-14T10:51:30Z</time>
      </trkpt>
      <trkpt lat="44.42721" lon="1.33632">
        <ele>258</ele>
        <time>2019-04-14T10:51:31Z</time>
      </trkpt>
      <trkpt lat="44.42721" lon="1.33631">
        <ele>258</ele>
        <time>2019-04-14T10:51:32Z</time>
      </trkpt>
      <trkpt lat="44.4272" lon="1.33629">
        <ele>258</ele>
        <time>2019-04-14T10:51:33Z</time>
      </trkpt>
      <trkpt lat="44.42719" lon="1.33627">
        <ele>258</ele>
        <time>2019-04-14T10:51:34Z</time>
      </trkpt>
      <trkpt lat="44.42718" lon="1.33625">
        <ele>258</ele>
        <time>2019-04-14T10:51:35Z</time>
      </trkpt>
      <trkpt lat="44.42716" lon="1.33622">
        <ele>258</ele>
        <time>2019-04-14T10:51:36Z</time>
      </trkpt>
      <trkpt lat="44.42714" lon="1.33619">
        <ele>258</ele>
        <time>2019-04-14T10:51:37Z</time>
      </trkpt>
      <trkpt lat="44.42712" lon="1.33616">
        <ele>258</ele>
        <time>2019-04-14T10:51:38Z</time>
      </trkpt>
      <trkpt lat="44.4271" lon="1.33613">
        <ele>258</ele>
        <time>2019-04-14T10:51:39Z</time>
      </trkpt>
      <trkpt lat="44.42709" lon="1.3361">
        <ele>258</ele>
        <time>2019-04-14T10:51:40Z</time>
      </trkpt>
      <trkpt lat="44.42707" lon="1.33606">
        <ele>258</ele>
        <time>2019-04-14T10:51:41Z</time>
      </trkpt>
      <trkpt lat="44.42706" lon="1.33603">
        <ele>258</ele>
        <time>2019-04-14T10:51:42Z</time>
      </trkpt>
      <trkpt lat="44.42706" lon="1.33599">
        <ele>258</ele>
        <time>2019-04-14T10:51:43Z</time>
      </trkpt>
      <trkpt lat="44.42705" lon="1.33596">
        <ele>258</ele>
        <time>2019-04-14T10:51:44Z</time>
      </trkpt>
      <trkpt lat="44.42703" lon="1.33593">
        <ele>259</ele>
        <time>2019-04-14T10:51:45Z</time>
      </trkpt>
      <trkpt lat="44.42702" lon="1.33589">
        <ele>259</ele>
        <time>2019-04-14T10:51:46Z</time>
      </trkpt>
      <trkpt lat="44.42701" lon="1.33586">
        <ele>259</ele>
        <time>2019-04-14T10:51:47Z</time>
      </trkpt>
      <trkpt lat="44.42699" lon="1.33584">
        <ele>259</ele>
        <time>2019-04-14T10:51:48Z</time>
      </trkpt>
      <trkpt lat="44.42698" lon="1.33581">
        <ele>259</ele>
        <time>2019-04-14T10:51:49Z</time>
      </trkpt>
      <trkpt lat="44.42697" lon="1.33578">
        <ele>259</ele>
        <time>2019-04-14T10:51:50Z</time>
      </trkpt>
      <trkpt lat="44.42696" lon="1.33576">
        <ele>259</ele>
        <time>2019-04-14T10:51:51Z</time>
      </trkpt>
      <trkpt lat="44.42694" lon="1.33574">
        <ele>259</ele>
        <time>2019-04-14T10:51:52Z</time>
      </trkpt>
      <trkpt lat="44.42692" lon="1.33571">
        <ele>259</ele>
        <time>2019-04-14T10:51:53Z</time>
      </trkpt>
      <trkpt lat="44.42691" lon="1.33567">
        <ele>259</ele>
        <time>2019-04-14T10:51:54Z</time>
      </trkpt>
      <trkpt lat="44.42693" lon="1.33565">
        <ele>259</ele>
        <time>2019-04-14T10:51:55Z</time>
      </trkpt>
      <trkpt lat="44.42694" lon="1.33563">
        <ele>259</ele>
        <time>2019-04-14T10:51:56Z</time>
      </trkpt>
      <trkpt lat="44.42694" lon="1.3356">
        <ele>259</ele>
        <time>2019-04-14T10:51:57Z</time>
      </trkpt>
      <trkpt lat="44.42695" lon="1.33558">
        <ele>260</ele>
        <time>2019-04-14T10:51:58Z</time>
      </trkpt>
      <trkpt lat="44.42696" lon="1.33556">
        <ele>260</ele>
        <time>2019-04-14T10:51:59Z</time>
      </trkpt>
      <trkpt lat="44.42696" lon="1.33554">
        <ele>260</ele>
        <time>2019-04-14T10:52:00Z</time>
      </trkpt>
      <trkpt lat="44.42697" lon="1.33552">
        <ele>261</ele>
        <time>2019-04-14T10:52:01Z</time>
      </trkpt>
      <trkpt lat="44.42698" lon="1.33549">
        <ele>261</ele>
        <time>2019-04-14T10:52:02Z</time>
      </trkpt>
      <trkpt lat="44.42698" lon="1.33547">
        <ele>261</ele>
        <time>2019-04-14T10:52:03Z</time>
      </trkpt>
      <trkpt lat="44.42699" lon="1.33545">
        <ele>261</ele>
        <time>2019-04-14T10:52:04Z</time>
      </trkpt>
      <trkpt lat="44.427" lon="1.33544">
        <ele>262</ele>
        <time>2019-04-14T10:52:05Z</time>
      </trkpt>
      <trkpt lat="44.42701" lon="1.33543">
        <ele>262</ele>
        <time>2019-04-14T10:52:06Z</time>
      </trkpt>
      <trkpt lat="44.42702" lon="1.33541">
        <ele>262</ele>
        <time>2019-04-14T10:52:07Z</time>
      </trkpt>
      <trkpt lat="44.42702" lon="1.33539">
        <ele>263</ele>
        <time>2019-04-14T10:52:08Z</time>
      </trkpt>
      <trkpt lat="44.42702" lon="1.33537">
        <ele>263</ele>
        <time>2019-04-14T10:52:09Z</time>
      </trkpt>
      <trkpt lat="44.42703" lon="1.33535">
        <ele>263</ele>
        <time>2019-04-14T10:52:10Z</time>
      </trkpt>
      <trkpt lat="44.42704" lon="1.33533">
        <ele>263</ele>
        <time>2019-04-14T10:52:11Z</time>
      </trkpt>
      <trkpt lat="44.42705" lon="1.33531">
        <ele>264</ele>
        <time>2019-04-14T10:52:12Z</time>
      </trkpt>
      <trkpt lat="44.42706" lon="1.3353">
        <ele>264</ele>
        <time>2019-04-14T10:52:13Z</time>
      </trkpt>
      <trkpt lat="44.42706" lon="1.33529">
        <ele>264</ele>
        <time>2019-04-14T10:52:14Z</time>
      </trkpt>
      <trkpt lat="44.42708" lon="1.33529">
        <ele>264</ele>
        <time>2019-04-14T10:52:15Z</time>
      </trkpt>
      <trkpt lat="44.42709" lon="1.33528">
        <ele>265</ele>
        <time>2019-04-14T10:52:16Z</time>
      </trkpt>
      <trkpt lat="44.4271" lon="1.33527">
        <ele>265</ele>
        <time>2019-04-14T10:52:17Z</time>
      </trkpt>
      <trkpt lat="44.42711" lon="1.33526">
        <ele>265</ele>
        <time>2019-04-14T10:52:18Z</time>
      </trkpt>
      <trkpt lat="44.42712" lon="1.33524">
        <ele>265</ele>
        <time>2019-04-14T10:52:19Z</time>
      </trkpt>
      <trkpt lat="44.42714" lon="1.33523">
        <ele>265</ele>
        <time>2019-04-14T10:52:20Z</time>
      </trkpt>
      <trkpt lat="44.42715" lon="1.33522">
        <ele>265</ele>
        <time>2019-04-14T10:52:21Z</time>
      </trkpt>
      <trkpt lat="44.42716" lon="1.3352">
        <ele>266</ele>
        <time>2019-04-14T10:52:22Z</time>
      </trkpt>
      <trkpt lat="44.42717" lon="1.33518">
        <ele>266</ele>
        <time>2019-04-14T10:52:23Z</time>
      </trkpt>
      <trkpt lat="44.42717" lon="1.33517">
        <ele>266</ele>
        <time>2019-04-14T10:52:24Z</time>
      </trkpt>
      <trkpt lat="44.42717" lon="1.33515">
        <ele>266</ele>
        <time>2019-04-14T10:52:25Z</time>
      </trkpt>
      <trkpt lat="44.42718" lon="1.33513">
        <ele>267</ele>
        <time>2019-04-14T10:52:26Z</time>
      </trkpt>
      <trkpt lat="44.42718" lon="1.33512">
        <ele>267</ele>
        <time>2019-04-14T10:52:27Z</time>
      </trkpt>
      <trkpt lat="44.42719" lon="1.3351">
        <ele>267</ele>
        <time>2019-04-14T10:52:28Z</time>
      </trkpt>
      <trkpt lat="44.42719" lon="1.33508">
        <ele>267</ele>
        <time>2019-04-14T10:52:29Z</time>
      </trkpt>
      <trkpt lat="44.42719" lon="1.33506">
        <ele>267</ele>
        <time>2019-04-14T10:52:30Z</time>
      </trkpt>
      <trkpt lat="44.4272" lon="1.33504">
        <ele>267</ele>
        <time>2019-04-14T10:52:31Z</time>
      </trkpt>
      <trkpt lat="44.42721" lon="1.33501">
        <ele>267</ele>
        <time>2019-04-14T10:52:32Z</time>
      </trkpt>
      <trkpt lat="44.42721" lon="1.33499">
        <ele>267</ele>
        <time>2019-04-14T10:52:33Z</time>
      </trkpt>
      <trkpt lat="44.42722" lon="1.33497">
        <ele>267</ele>
        <time>2019-04-14T10:52:34Z</time>
      </trkpt>
      <trkpt lat="44.42723" lon="1.33495">
        <ele>268</ele>
        <time>2019-04-14T10:52:35Z</time>
      </trkpt>
      <trkpt lat="44.42723" lon="1.33494">
        <ele>268</ele>
        <time>2019-04-14T10:52:36Z</time>
      </trkpt>
      <trkpt lat="44.42724" lon="1.33492">
        <ele>268</ele>
        <time>2019-04-14T10:52:37Z</time>
      </trkpt>
      <trkpt lat="44.42725" lon="1.3349">
        <ele>268</ele>
        <time>2019-04-14T10:52:38Z</time>
      </trkpt>
      <trkpt lat="44.42726" lon="1.33488">
        <ele>268</ele>
        <time>2019-04-14T10:52:39Z</time>
      </trkpt>
      <trkpt lat="44.42726" lon="1.33486">
        <ele>268</ele>
        <time>2019-04-14T10:52:40Z</time>
      </trkpt>
      <trkpt lat="44.42727" lon="1.33484">
        <ele>268</ele>
        <time>2019-04-14T10:52:41Z</time>
      </trkpt>
      <trkpt lat="44.42728" lon="1.33482">
        <ele>269</ele>
        <time>2019-04-14T10:52:42Z</time>
      </trkpt>
      <trkpt lat="44.42728" lon="1.3348">
        <ele>269</ele>
        <time>2019-04-14T10:52:43Z</time>
      </trkpt>
      <trkpt lat="44.42729" lon="1.33478">
        <ele>269</ele>
        <time>2019-04-14T10:52:44Z</time>
      </trkpt>
      <trkpt lat="44.4273" lon="1.33477">
        <ele>269</ele>
        <time>2019-04-14T10:52:45Z</time>
      </trkpt>
      <trkpt lat="44.42731" lon="1.33475">
        <ele>269</ele>
        <time>2019-04-14T10:52:46Z</time>
      </trkpt>
      <trkpt lat="44.42732" lon="1.33474">
        <ele>269</ele>
        <time>2019-04-14T10:52:47Z</time>
      </trkpt>
      <trkpt lat="44.42734" lon="1.33472">
        <ele>269</ele>
        <time>2019-04-14T10:52:48Z</time>
      </trkpt>
      <trkpt lat="44.42735" lon="1.3347">
        <ele>269</ele>
        <time>2019-04-14T10:52:49Z</time>
      </trkpt>
      <trkpt lat="44.42736" lon="1.33469">
        <ele>270</ele>
        <time>2019-04-14T10:52:50Z</time>
      </trkpt>
      <trkpt lat="44.42737" lon="1.33467">
        <ele>270</ele>
        <time>2019-04-14T10:52:51Z</time>
      </trkpt>
      <trkpt lat="44.42739" lon="1.33465">
        <ele>270</ele>
        <time>2019-04-14T10:52:52Z</time>
      </trkpt>
      <trkpt lat="44.4274" lon="1.33464">
        <ele>270</ele>
        <time>2019-04-14T10:52:53Z</time>
      </trkpt>
      <trkpt lat="44.42742" lon="1.33462">
        <ele>270</ele>
        <time>2019-04-14T10:52:54Z</time>
      </trkpt>
      <trkpt lat="44.42743" lon="1.3346">
        <ele>270</ele>
        <time>2019-04-14T10:52:55Z</time>
      </trkpt>
      <trkpt lat="44.42743" lon="1.33458">
        <ele>270</ele>
        <time>2019-04-14T10:52:56Z</time>
      </trkpt>
      <trkpt lat="44.42744" lon="1.33456">
        <ele>270</ele>
        <time>2019-04-14T10:52:57Z</time>
      </trkpt>
      <trkpt lat="44.42745" lon="1.33454">
        <ele>271</ele>
        <time>2019-04-14T10:52:58Z</time>
      </trkpt>
      <trkpt lat="44.42746" lon="1.33452">
        <ele>271</ele>
        <time>2019-04-14T10:52:59Z</time>
      </trkpt>
      <trkpt lat="44.42748" lon="1.3345">
        <ele>271</ele>
        <time>2019-04-14T10:53:00Z</time>
      </trkpt>
      <trkpt lat="44.4275" lon="1.33449">
        <ele>271</ele>
        <time>2019-04-14T10:53:01Z</time>
      </trkpt>
      <trkpt lat="44.42752" lon="1.33448">
        <ele>271</ele>
        <time>2019-04-14T10:53:02Z</time>
      </trkpt>
      <trkpt lat="44.42753" lon="1.33447">
        <ele>271</ele>
        <time>2019-04-14T10:53:03Z</time>
      </trkpt>
      <trkpt lat="44.42754" lon="1.33445">
        <ele>271</ele>
        <time>2019-04-14T10:53:04Z</time>
      </trkpt>
      <trkpt lat="44.42754" lon="1.33443">
        <ele>271</ele>
        <time>2019-04-14T10:53:05Z</time>
      </trkpt>
      <trkpt lat="44.42754" lon="1.33441">
        <ele>271</ele>
        <time>2019-04-14T10:53:06Z</time>
      </trkpt>
      <trkpt lat="44.42755" lon="1.33439">
        <ele>271</ele>
        <time>2019-04-14T10:53:07Z</time>
      </trkpt>
      <trkpt lat="44.42755" lon="1.33436">
        <ele>271</ele>
        <time>2019-04-14T10:53:08Z</time>
      </trkpt>
      <trkpt lat="44.42756" lon="1.33434">
        <ele>271</ele>
        <time>2019-04-14T10:53:09Z</time>
      </trkpt>
      <trkpt lat="44.42757" lon="1.33433">
        <ele>272</ele>
        <time>2019-04-14T10:53:10Z</time>
      </trkpt>
      <trkpt lat="44.42757" lon="1.33431">
        <ele>272</ele>
        <time>2019-04-14T10:53:11Z</time>
      </trkpt>
      <trkpt lat="44.42758" lon="1.3343">
        <ele>272</ele>
        <time>2019-04-14T10:53:12Z</time>
      </trkpt>
      <trkpt lat="44.42758" lon="1.33429">
        <ele>272</ele>
        <time>2019-04-14T10:53:13Z</time>
      </trkpt>
      <trkpt lat="44.42758" lon="1.33429">
        <ele>272</ele>
        <time>2019-04-14T10:53:14Z</time>
      </trkpt>
      <trkpt lat="44.42758" lon="1.33429">
        <ele>272</ele>
        <time>2019-04-14T10:53:15Z</time>
      </trkpt>
      <trkpt lat="44.42758" lon="1.33428">
        <ele>272</ele>
        <time>2019-04-14T10:53:16Z</time>
      </trkpt>
      <trkpt lat="44.42758" lon="1.33428">
        <ele>271</ele>
        <time>2019-04-14T10:53:17Z</time>
      </trkpt>
      <trkpt lat="44.42758" lon="1.33428">
        <ele>272</ele>
        <time>2019-04-14T10:53:18Z</time>
      </trkpt>
      <trkpt lat="44.42758" lon="1.33428">
        <ele>271</ele>
        <time>2019-04-14T10:53:19Z</time>
      </trkpt>
      <trkpt lat="44.42758" lon="1.33427">
        <ele>272</ele>
        <time>2019-04-14T10:53:20Z</time>
      </trkpt>
      <trkpt lat="44.42746" lon="1.33416">
        <ele>270</ele>
        <time>2019-04-14T10:57:39Z</time>
      </trkpt>
      <trkpt lat="44.42743" lon="1.33413">
        <ele>270</ele>
        <time>2019-04-14T10:57:40Z</time>
      </trkpt>
      <trkpt lat="44.4274" lon="1.3341">
        <ele>269</ele>
        <time>2019-04-14T10:57:41Z</time>
      </trkpt>
      <trkpt lat="44.42737" lon="1.33409">
        <ele>269</ele>
        <time>2019-04-14T10:57:42Z</time>
      </trkpt>
      <trkpt lat="44.42734" lon="1.3341">
        <ele>269</ele>
        <time>2019-04-14T10:57:43Z</time>
      </trkpt>
      <trkpt lat="44.42731" lon="1.33409">
        <ele>269</ele>
        <time>2019-04-14T10:57:44Z</time>
      </trkpt>
      <trkpt lat="44.42728" lon="1.33407">
        <ele>268</ele>
        <time>2019-04-14T10:57:45Z</time>
      </trkpt>
      <trkpt lat="44.42727" lon="1.33406">
        <ele>268</ele>
        <time>2019-04-14T10:57:46Z</time>
      </trkpt>
      <trkpt lat="44.42726" lon="1.33405">
        <ele>268</ele>
        <time>2019-04-14T10:57:47Z</time>
      </trkpt>
      <trkpt lat="44.42725" lon="1.33404">
        <ele>268</ele>
        <time>2019-04-14T10:57:48Z</time>
      </trkpt>
      <trkpt lat="44.42722" lon="1.33403">
        <ele>267</ele>
        <time>2019-04-14T10:57:49Z</time>
      </trkpt>
      <trkpt lat="44.4272" lon="1.33402">
        <ele>267</ele>
        <time>2019-04-14T10:57:50Z</time>
      </trkpt>
      <trkpt lat="44.42716" lon="1.33402">
        <ele>267</ele>
        <time>2019-04-14T10:57:51Z</time>
      </trkpt>
      <trkpt lat="44.42713" lon="1.334">
        <ele>267</ele>
        <time>2019-04-14T10:57:52Z</time>
      </trkpt>
      <trkpt lat="44.42709" lon="1.33401">
        <ele>266</ele>
        <time>2019-04-14T10:57:53Z</time>
      </trkpt>
      <trkpt lat="44.42706" lon="1.33401">
        <ele>266</ele>
        <time>2019-04-14T10:57:54Z</time>
      </trkpt>
      <trkpt lat="44.42705" lon="1.33399">
        <ele>265</ele>
        <time>2019-04-14T10:57:55Z</time>
      </trkpt>
      <trkpt lat="44.42703" lon="1.33397">
        <ele>265</ele>
        <time>2019-04-14T10:57:56Z</time>
      </trkpt>
      <trkpt lat="44.42701" lon="1.33398">
        <ele>265</ele>
        <time>2019-04-14T10:57:57Z</time>
      </trkpt>
      <trkpt lat="44.42699" lon="1.33399">
        <ele>265</ele>
        <time>2019-04-14T10:57:58Z</time>
      </trkpt>
      <trkpt lat="44.42697" lon="1.33402">
        <ele>264</ele>
        <time>2019-04-14T10:57:59Z</time>
      </trkpt>
      <trkpt lat="44.42693" lon="1.33404">
        <ele>264</ele>
        <time>2019-04-14T10:58:00Z</time>
      </trkpt>
      <trkpt lat="44.42689" lon="1.33407">
        <ele>263</ele>
        <time>2019-04-14T10:58:01Z</time>
      </trkpt>
      <trkpt lat="44.42687" lon="1.33408">
        <ele>263</ele>
        <time>2019-04-14T10:58:02Z</time>
      </trkpt>
      <trkpt lat="44.42684" lon="1.33409">
        <ele>262</ele>
        <time>2019-04-14T10:58:03Z</time>
      </trkpt>
      <trkpt lat="44.4268" lon="1.3341">
        <ele>261</ele>
        <time>2019-04-14T10:58:04Z</time>
      </trkpt>
      <trkpt lat="44.42678" lon="1.33413">
        <ele>261</ele>
        <time>2019-04-14T10:58:05Z</time>
      </trkpt>
      <trkpt lat="44.42675" lon="1.33417">
        <ele>260</ele>
        <time>2019-04-14T10:58:06Z</time>
      </trkpt>
      <trkpt lat="44.42674" lon="1.33421">
        <ele>260</ele>
        <time>2019-04-14T10:58:07Z</time>
      </trkpt>
      <trkpt lat="44.42669" lon="1.33423">
        <ele>259</ele>
        <time>2019-04-14T10:58:08Z</time>
      </trkpt>
      <trkpt lat="44.42665" lon="1.33423">
        <ele>258</ele>
        <time>2019-04-14T10:58:09Z</time>
      </trkpt>
      <trkpt lat="44.42661" lon="1.33426">
        <ele>257</ele>
        <time>2019-04-14T10:58:10Z</time>
      </trkpt>
      <trkpt lat="44.42658" lon="1.33428">
        <ele>255</ele>
        <time>2019-04-14T10:58:11Z</time>
      </trkpt>
      <trkpt lat="44.42654" lon="1.33428">
        <ele>254</ele>
        <time>2019-04-14T10:58:12Z</time>
      </trkpt>
      <trkpt lat="44.42649" lon="1.33429">
        <ele>253</ele>
        <time>2019-04-14T10:58:13Z</time>
      </trkpt>
      <trkpt lat="44.42644" lon="1.33429">
        <ele>252</ele>
        <time>2019-04-14T10:58:14Z</time>
      </trkpt>
      <trkpt lat="44.42641" lon="1.33428">
        <ele>252</ele>
        <time>2019-04-14T10:58:15Z</time>
      </trkpt>
      <trkpt lat="44.42639" lon="1.33426">
        <ele>252</ele>
        <time>2019-04-14T10:58:16Z</time>
      </trkpt>
      <trkpt lat="44.42636" lon="1.33427">
        <ele>252</ele>
        <time>2019-04-14T10:58:17Z</time>
      </trkpt>
      <trkpt lat="44.42633" lon="1.33429">
        <ele>252</ele>
        <time>2019-04-14T10:58:18Z</time>
      </trkpt>
      <trkpt lat="44.42631" lon="1.33432">
        <ele>252</ele>
        <time>2019-04-14T10:58:19Z</time>
      </trkpt>
      <trkpt lat="44.42629" lon="1.33434">
        <ele>251</ele>
        <time>2019-04-14T10:58:20Z</time>
      </trkpt>
      <trkpt lat="44.42627" lon="1.33436">
        <ele>251</ele>
        <time>2019-04-14T10:58:21Z</time>
      </trkpt>
      <trkpt lat="44.42626" lon="1.33437">
        <ele>250</ele>
        <time>2019-04-14T10:58:22Z</time>
      </trkpt>
      <trkpt lat="44.42624" lon="1.33438">
        <ele>251</ele>
        <time>2019-04-14T10:58:23Z</time>
      </trkpt>
      <trkpt lat="44.42624" lon="1.3344">
        <ele>251</ele>
        <time>2019-04-14T10:58:24Z</time>
      </trkpt>
      <trkpt lat="44.42622" lon="1.33443">
        <ele>251</ele>
        <time>2019-04-14T10:58:25Z</time>
      </trkpt>
      <trkpt lat="44.4262" lon="1.33445">
        <ele>252</ele>
        <time>2019-04-14T10:58:26Z</time>
      </trkpt>
      <trkpt lat="44.42617" lon="1.33447">
        <ele>252</ele>
        <time>2019-04-14T10:58:27Z</time>
      </trkpt>
      <trkpt lat="44.42614" lon="1.33448">
        <ele>252</ele>
        <time>2019-04-14T10:58:28Z</time>
      </trkpt>
      <trkpt lat="44.42612" lon="1.33449">
        <ele>252</ele>
        <time>2019-04-14T10:58:29Z</time>
      </trkpt>
      <trkpt lat="44.4261" lon="1.33451">
        <ele>253</ele>
        <time>2019-04-14T10:58:30Z</time>
      </trkpt>
      <trkpt lat="44.42608" lon="1.33452">
        <ele>253</ele>
        <time>2019-04-14T10:58:31Z</time>
      </trkpt>
      <trkpt lat="44.42606" lon="1.33453">
        <ele>253</ele>
        <time>2019-04-14T10:58:32Z</time>
      </trkpt>
      <trkpt lat="44.42602" lon="1.33454">
        <ele>254</ele>
        <time>2019-04-14T10:58:33Z</time>
      </trkpt>
      <trkpt lat="44.42599" lon="1.33454">
        <ele>254</ele>
        <time>2019-04-14T10:58:34Z</time>
      </trkpt>
      <trkpt lat="44.42597" lon="1.33454">
        <ele>254</ele>
        <time>2019-04-14T10:58:35Z</time>
      </trkpt>
      <trkpt lat="44.42596" lon="1.33454">
        <ele>255</ele>
        <time>2019-04-14T10:58:36Z</time>
      </trkpt>
      <trkpt lat="44.42594" lon="1.33453">
        <ele>255</ele>
        <time>2019-04-14T10:58:37Z</time>
      </trkpt>
      <trkpt lat="44.42592" lon="1.33452">
        <ele>256</ele>
        <time>2019-04-14T10:58:38Z</time>
      </trkpt>
      <trkpt lat="44.4259" lon="1.33453">
        <ele>256</ele>
        <time>2019-04-14T10:58:39Z</time>
      </trkpt>
      <trkpt lat="44.42588" lon="1.33454">
        <ele>256</ele>
        <time>2019-04-14T10:58:40Z</time>
      </trkpt>
      <trkpt lat="44.42586" lon="1.33455">
        <ele>257</ele>
        <time>2019-04-14T10:58:41Z</time>
      </trkpt>
      <trkpt lat="44.42584" lon="1.33456">
        <ele>257</ele>
        <time>2019-04-14T10:58:42Z</time>
      </trkpt>
      <trkpt lat="44.42581" lon="1.33457">
        <ele>257</ele>
        <time>2019-04-14T10:58:43Z</time>
      </trkpt>
      <trkpt lat="44.42579" lon="1.33459">
        <ele>257</ele>
        <time>2019-04-14T10:58:44Z</time>
      </trkpt>
      <trkpt lat="44.42578" lon="1.33461">
        <ele>257</ele>
        <time>2019-04-14T10:58:45Z</time>
      </trkpt>
      <trkpt lat="44.42577" lon="1.33463">
        <ele>257</ele>
        <time>2019-04-14T10:58:46Z</time>
      </trkpt>
      <trkpt lat="44.42575" lon="1.33465">
        <ele>258</ele>
        <time>2019-04-14T10:58:47Z</time>
      </trkpt>
      <trkpt lat="44.42573" lon="1.33466">
        <ele>258</ele>
        <time>2019-04-14T10:58:48Z</time>
      </trkpt>
      <trkpt lat="44.42571" lon="1.33468">
        <ele>258</ele>
        <time>2019-04-14T10:58:49Z</time>
      </trkpt>
      <trkpt lat="44.4257" lon="1.3347">
        <ele>258</ele>
        <time>2019-04-14T10:58:50Z</time>
      </trkpt>
      <trkpt lat="44.42568" lon="1.33473">
        <ele>258</ele>
        <time>2019-04-14T10:58:51Z</time>
      </trkpt>
      <trkpt lat="44.42566" lon="1.33476">
        <ele>258</ele>
        <time>2019-04-14T10:58:52Z</time>
      </trkpt>
      <trkpt lat="44.42564" lon="1.33479">
        <ele>258</ele>
        <time>2019-04-14T10:58:53Z</time>
      </trkpt>
      <trkpt lat="44.42563" lon="1.33482">
        <ele>258</ele>
        <time>2019-04-14T10:58:54Z</time>
      </trkpt>
      <trkpt lat="44.42561" lon="1.33484">
        <ele>258</ele>
        <time>2019-04-14T10:58:55Z</time>
      </trkpt>
      <trkpt lat="44.42559" lon="1.33485">
        <ele>258</ele>
        <time>2019-04-14T10:58:56Z</time>
      </trkpt>
      <trkpt lat="44.42557" lon="1.33484">
        <ele>259</ele>
        <time>2019-04-14T10:58:57Z</time>
      </trkpt>
      <trkpt lat="44.42556" lon="1.33482">
        <ele>259</ele>
        <time>2019-04-14T10:58:58Z</time>
      </trkpt>
      <trkpt lat="44.42555" lon="1.33481">
        <ele>260</ele>
        <time>2019-04-14T10:58:59Z</time>
      </trkpt>
      <trkpt lat="44.42553" lon="1.3348">
        <ele>260</ele>
        <time>2019-04-14T10:59:00Z</time>
      </trkpt>
      <trkpt lat="44.42551" lon="1.33479">
        <ele>261</ele>
        <time>2019-04-14T10:59:01Z</time>
      </trkpt>
      <trkpt lat="44.4255" lon="1.3348">
        <ele>261</ele>
        <time>2019-04-14T10:59:02Z</time>
      </trkpt>
      <trkpt lat="44.42549" lon="1.33481">
        <ele>261</ele>
        <time>2019-04-14T10:59:03Z</time>
      </trkpt>
      <trkpt lat="44.42548" lon="1.33481">
        <ele>262</ele>
        <time>2019-04-14T10:59:04Z</time>
      </trkpt>
      <trkpt lat="44.42546" lon="1.33481">
        <ele>262</ele>
        <time>2019-04-14T10:59:05Z</time>
      </trkpt>
      <trkpt lat="44.42544" lon="1.3348">
        <ele>262</ele>
        <time>2019-04-14T10:59:06Z</time>
      </trkpt>
      <trkpt lat="44.42542" lon="1.33479">
        <ele>262</ele>
        <time>2019-04-14T10:59:07Z</time>
      </trkpt>
      <trkpt lat="44.42541" lon="1.33478">
        <ele>262</ele>
        <time>2019-04-14T10:59:08Z</time>
      </trkpt>
      <trkpt lat="44.42539" lon="1.33477">
        <ele>263</ele>
        <time>2019-04-14T10:59:09Z</time>
      </trkpt>
      <trkpt lat="44.42537" lon="1.33476">
        <ele>263</ele>
        <time>2019-04-14T10:59:10Z</time>
      </trkpt>
      <trkpt lat="44.42535" lon="1.33474">
        <ele>263</ele>
        <time>2019-04-14T10:59:11Z</time>
      </trkpt>
      <trkpt lat="44.42535" lon="1.33472">
        <ele>263</ele>
        <time>2019-04-14T10:59:12Z</time>
      </trkpt>
      <trkpt lat="44.42535" lon="1.3347">
        <ele>264</ele>
        <time>2019-04-14T10:59:13Z</time>
      </trkpt>
      <trkpt lat="44.42535" lon="1.33468">
        <ele>264</ele>
        <time>2019-04-14T10:59:14Z</time>
      </trkpt>
      <trkpt lat="44.42536" lon="1.33466">
        <ele>264</ele>
        <time>2019-04-14T10:59:15Z</time>
      </trkpt>
      <trkpt lat="44.42536" lon="1.33464">
        <ele>264</ele>
        <time>2019-04-14T10:59:16Z</time>
      </trkpt>
      <trkpt lat="44.42537" lon="1.33462">
        <ele>264</ele>
        <time>2019-04-14T10:59:17Z</time>
      </trkpt>
      <trkpt lat="44.42536" lon="1.33461">
        <ele>264</ele>
        <time>2019-04-14T10:59:18Z</time>
      </trkpt>
      <trkpt lat="44.42534" lon="1.33459">
        <ele>264</ele>
        <time>2019-04-14T10:59:19Z</time>
      </trkpt>
      <trkpt lat="44.42532" lon="1.33458">
        <ele>264</ele>
        <time>2019-04-14T10:59:20Z</time>
      </trkpt>
      <trkpt lat="44.42531" lon="1.33457">
        <ele>264</ele>
        <time>2019-04-14T10:59:21Z</time>
      </trkpt>
      <trkpt lat="44.4253" lon="1.33457">
        <ele>265</ele>
        <time>2019-04-14T10:59:22Z</time>
      </trkpt>
      <trkpt lat="44.42529" lon="1.33456">
        <ele>265</ele>
        <time>2019-04-14T10:59:23Z</time>
      </trkpt>
      <trkpt lat="44.42528" lon="1.33455">
        <ele>265</ele>
        <time>2019-04-14T10:59:24Z</time>
      </trkpt>
      <trkpt lat="44.42526" lon="1.33454">
        <ele>265</ele>
        <time>2019-04-14T10:59:25Z</time>
      </trkpt>
      <trkpt lat="44.42524" lon="1.33453">
        <ele>265</ele>
        <time>2019-04-14T10:59:26Z</time>
      </trkpt>
      <trkpt lat="44.42522" lon="1.33451">
        <ele>265</ele>
        <time>2019-04-14T10:59:27Z</time>
      </trkpt>
      <trkpt lat="44.4252" lon="1.3345">
        <ele>265</ele>
        <time>2019-04-14T10:59:28Z</time>
      </trkpt>
      <trkpt lat="44.42518" lon="1.33448">
        <ele>265</ele>
        <time>2019-04-14T10:59:29Z</time>
      </trkpt>
      <trkpt lat="44.42516" lon="1.33447">
        <ele>266</ele>
        <time>2019-04-14T10:59:30Z</time>
      </trkpt>
      <trkpt lat="44.42514" lon="1.33445">
        <ele>266</ele>
        <time>2019-04-14T10:59:31Z</time>
      </trkpt>
      <trkpt lat="44.42512" lon="1.33444">
        <ele>266</ele>
        <time>2019-04-14T10:59:32Z</time>
      </trkpt>
      <trkpt lat="44.4251" lon="1.33442">
        <ele>266</ele>
        <time>2019-04-14T10:59:33Z</time>
      </trkpt>
      <trkpt lat="44.42508" lon="1.3344">
        <ele>266</ele>
        <time>2019-04-14T10:59:34Z</time>
      </trkpt>
      <trkpt lat="44.42506" lon="1.33438">
        <ele>266</ele>
        <time>2019-04-14T10:59:35Z</time>
      </trkpt>
      <trkpt lat="44.42504" lon="1.33436">
        <ele>266</ele>
        <time>2019-04-14T10:59:36Z</time>
      </trkpt>
      <trkpt lat="44.42502" lon="1.33434">
        <ele>266</ele>
        <time>2019-04-14T10:59:37Z</time>
      </trkpt>
      <trkpt lat="44.425" lon="1.33433">
        <ele>266</ele>
        <time>2019-04-14T10:59:38Z</time>
      </trkpt>
      <trkpt lat="44.42498" lon="1.33431">
        <ele>266</ele>
        <time>2019-04-14T10:59:39Z</time>
      </trkpt>
      <trkpt lat="44.42497" lon="1.33429">
        <ele>266</ele>
        <time>2019-04-14T10:59:40Z</time>
      </trkpt>
      <trkpt lat="44.42495" lon="1.33428">
        <ele>266</ele>
        <time>2019-04-14T10:59:41Z</time>
      </trkpt>
      <trkpt lat="44.42492" lon="1.33426">
        <ele>266</ele>
        <time>2019-04-14T10:59:42Z</time>
      </trkpt>
      <trkpt lat="44.4249" lon="1.33424">
        <ele>266</ele>
        <time>2019-04-14T10:59:43Z</time>
      </trkpt>
      <trkpt lat="44.42488" lon="1.33422">
        <ele>266</ele>
        <time>2019-04-14T10:59:44Z</time>
      </trkpt>
      <trkpt lat="44.42486" lon="1.33421">
        <ele>266</ele>
        <time>2019-04-14T10:59:45Z</time>
      </trkpt>
      <trkpt lat="44.42483" lon="1.33419">
        <ele>266</ele>
        <time>2019-04-14T10:59:46Z</time>
      </trkpt>
      <trkpt lat="44.42481" lon="1.33417">
        <ele>266</ele>
        <time>2019-04-14T10:59:47Z</time>
      </trkpt>
      <trkpt lat="44.42479" lon="1.33416">
        <ele>267</ele>
        <time>2019-04-14T10:59:48Z</time>
      </trkpt>
      <trkpt lat="44.42477" lon="1.33414">
        <ele>267</ele>
        <time>2019-04-14T10:59:49Z</time>
      </trkpt>
      <trkpt lat="44.42475" lon="1.33413">
        <ele>267</ele>
        <time>2019-04-14T10:59:50Z</time>
      </trkpt>
      <trkpt lat="44.42473" lon="1.33411">
        <ele>267</ele>
        <time>2019-04-14T10:59:51Z</time>
      </trkpt>
      <trkpt lat="44.4247" lon="1.33409">
        <ele>267</ele>
        <time>2019-04-14T10:59:52Z</time>
      </trkpt>
      <trkpt lat="44.42468" lon="1.33408">
        <ele>267</ele>
        <time>2019-04-14T10:59:53Z</time>
      </trkpt>
      <trkpt lat="44.42466" lon="1.33406">
        <ele>267</ele>
        <time>2019-04-14T10:59:54Z</time>
      </trkpt>
      <trkpt lat="44.42464" lon="1.33405">
        <ele>268</ele>
        <time>2019-04-14T10:59:55Z</time>
      </trkpt>
      <trkpt lat="44.42462" lon="1.33403">
        <ele>268</ele>
        <time>2019-04-14T10:59:56Z</time>
      </trkpt>
      <trkpt lat="44.4246" lon="1.33401">
        <ele>268</ele>
        <time>2019-04-14T10:59:57Z</time>
      </trkpt>
      <trkpt lat="44.42458" lon="1.334">
        <ele>268</ele>
        <time>2019-04-14T10:59:58Z</time>
      </trkpt>
      <trkpt lat="44.42457" lon="1.33399">
        <ele>268</ele>
        <time>2019-04-14T10:59:59Z</time>
      </trkpt>
      <trkpt lat="44.42454" lon="1.33397">
        <ele>269</ele>
        <time>2019-04-14T11:00:00Z</time>
      </trkpt>
      <trkpt lat="44.42452" lon="1.33395">
        <ele>269</ele>
        <time>2019-04-14T11:00:01Z</time>
      </trkpt>
      <trkpt lat="44.4245" lon="1.33394">
        <ele>269</ele>
        <time>2019-04-14T11:00:02Z</time>
      </trkpt>
      <trkpt lat="44.42448" lon="1.33393">
        <ele>269</ele>
        <time>2019-04-14T11:00:03Z</time>
      </trkpt>
      <trkpt lat="44.42446" lon="1.33391">
        <ele>269</ele>
        <time>2019-04-14T11:00:04Z</time>
      </trkpt>
      <trkpt lat="44.42444" lon="1.3339">
        <ele>270</ele>
        <time>2019-04-14T11:00:05Z</time>
      </trkpt>
      <trkpt lat="44.42442" lon="1.33389">
        <ele>270</ele>
        <time>2019-04-14T11:00:06Z</time>
      </trkpt>
      <trkpt lat="44.4244" lon="1.33387">
        <ele>270</ele>
        <time>2019-04-14T11:00:07Z</time>
      </trkpt>
      <trkpt lat="44.42438" lon="1.33386">
        <ele>271</ele>
        <time>2019-04-14T11:00:08Z</time>
      </trkpt>
      <trkpt lat="44.42437" lon="1.33385">
        <ele>271</ele>
        <time>2019-04-14T11:00:09Z</time>
      </trkpt>
      <trkpt lat="44.42435" lon="1.33384">
        <ele>271</ele>
        <time>2019-04-14T11:00:10Z</time>
      </trkpt>
      <trkpt lat="44.42433" lon="1.33383">
        <ele>271</ele>
        <time>2019-04-14T11:00:11Z</time>
      </trkpt>
      <trkpt lat="44.42432" lon="1.33382">
        <ele>271</ele>
        <time>2019-04-14T11:00:12Z</time>
      </trkpt>
      <trkpt lat="44.4243" lon="1.3338">
        <ele>272</ele>
        <time>2019-04-14T11:00:13Z</time>
      </trkpt>
      <trkpt lat="44.42428" lon="1.33378">
        <ele>272</ele>
        <time>2019-04-14T11:00:14Z</time>
      </trkpt>
      <trkpt lat="44.42426" lon="1.33377">
        <ele>272</ele>
        <time>2019-04-14T11:00:15Z</time>
      </trkpt>
      <trkpt lat="44.42424" lon="1.33375">
        <ele>272</ele>
        <time>2019-04-14T11:00:16Z</time>
      </trkpt>
      <trkpt lat="44.42422" lon="1.33374">
        <ele>272</ele>
        <time>2019-04-14T11:00:17Z</time>
      </trkpt>
      <trkpt lat="44.4242" lon="1.33372">
        <ele>272</ele>
        <time>2019-04-14T11:00:18Z</time>
      </trkpt>
      <trkpt lat="44.42418" lon="1.33371">
        <ele>272</ele>
        <time>2019-04-14T11:00:19Z</time>
      </trkpt>
      <trkpt lat="44.42417" lon="1.3337">
        <ele>273</ele>
        <time>2019-04-14T11:00:20Z</time>
      </trkpt>
      <trkpt lat="44.42416" lon="1.33368">
        <ele>273</ele>
        <time>2019-04-14T11:00:21Z</time>
      </trkpt>
      <trkpt lat="44.42415" lon="1.33365">
        <ele>273</ele>
        <time>2019-04-14T11:00:22Z</time>
      </trkpt>
      <trkpt lat="44.42415" lon="1.33362">
        <ele>273</ele>
        <time>2019-04-14T11:00:23Z</time>
      </trkpt>
      <trkpt lat="44.42414" lon="1.3336">
        <ele>273</ele>
        <time>2019-04-14T11:00:24Z</time>
      </trkpt>
      <trkpt lat="44.42413" lon="1.33357">
        <ele>273</ele>
        <time>2019-04-14T11:00:25Z</time>
      </trkpt>
      <trkpt lat="44.42413" lon="1.33354">
        <ele>273</ele>
        <time>2019-04-14T11:00:26Z</time>
      </trkpt>
      <trkpt lat="44.42413" lon="1.33351">
        <ele>274</ele>
        <time>2019-04-14T11:00:27Z</time>
      </trkpt>
      <trkpt lat="44.42413" lon="1.33348">
        <ele>274</ele>
        <time>2019-04-14T11:00:28Z</time>
      </trkpt>
      <trkpt lat="44.42412" lon="1.33345">
        <ele>274</ele>
        <time>2019-04-14T11:00:29Z</time>
      </trkpt>
      <trkpt lat="44.42411" lon="1.33342">
        <ele>274</ele>
        <time>2019-04-14T11:00:30Z</time>
      </trkpt>
      <trkpt lat="44.4241" lon="1.3334">
        <ele>274</ele>
        <time>2019-04-14T11:00:31Z</time>
      </trkpt>
      <trkpt lat="44.42409" lon="1.33337">
        <ele>275</ele>
        <time>2019-04-14T11:00:32Z</time>
      </trkpt>
      <trkpt lat="44.42409" lon="1.33334">
        <ele>275</ele>
        <time>2019-04-14T11:00:33Z</time>
      </trkpt>
      <trkpt lat="44.42408" lon="1.33331">
        <ele>275</ele>
        <time>2019-04-14T11:00:34Z</time>
      </trkpt>
      <trkpt lat="44.42408" lon="1.33327">
        <ele>275</ele>
        <time>2019-04-14T11:00:35Z</time>
      </trkpt>
      <trkpt lat="44.42407" lon="1.33324">
        <ele>275</ele>
        <time>2019-04-14T11:00:36Z</time>
      </trkpt>
      <trkpt lat="44.42407" lon="1.33322">
        <ele>275</ele>
        <time>2019-04-14T11:00:37Z</time>
      </trkpt>
      <trkpt lat="44.42407" lon="1.33319">
        <ele>276</ele>
        <time>2019-04-14T11:00:38Z</time>
      </trkpt>
      <trkpt lat="44.42406" lon="1.33315">
        <ele>276</ele>
        <time>2019-04-14T11:00:39Z</time>
      </trkpt>
      <trkpt lat="44.42406" lon="1.33312">
        <ele>276</ele>
        <time>2019-04-14T11:00:40Z</time>
      </trkpt>
      <trkpt lat="44.42405" lon="1.33309">
        <ele>276</ele>
        <time>2019-04-14T11:00:41Z</time>
      </trkpt>
      <trkpt lat="44.42405" lon="1.33306">
        <ele>276</ele>
        <time>2019-04-14T11:00:42Z</time>
      </trkpt>
      <trkpt lat="44.42404" lon="1.33303">
        <ele>276</ele>
        <time>2019-04-14T11:00:43Z</time>
      </trkpt>
      <trkpt lat="44.42404" lon="1.333">
        <ele>277</ele>
        <time>2019-04-14T11:00:44Z</time>
      </trkpt>
      <trkpt lat="44.42403" lon="1.33298">
        <ele>277</ele>
        <time>2019-04-14T11:00:45Z</time>
      </trkpt>
      <trkpt lat="44.42402" lon="1.33295">
        <ele>277</ele>
        <time>2019-04-14T11:00:46Z</time>
      </trkpt>
      <trkpt lat="44.42401" lon="1.33292">
        <ele>277</ele>
        <time>2019-04-14T11:00:47Z</time>
      </trkpt>
      <trkpt lat="44.424" lon="1.33289">
        <ele>277</ele>
        <time>2019-04-14T11:00:48Z</time>
      </trkpt>
      <trkpt lat="44.42399" lon="1.33286">
        <ele>278</ele>
        <time>2019-04-14T11:00:49Z</time>
      </trkpt>
      <trkpt lat="44.42398" lon="1.33283">
        <ele>278</ele>
        <time>2019-04-14T11:00:50Z</time>
      </trkpt>
      <trkpt lat="44.42396" lon="1.3328">
        <ele>278</ele>
        <time>2019-04-14T11:00:51Z</time>
      </trkpt>
      <trkpt lat="44.42395" lon="1.33278">
        <ele>278</ele>
        <time>2019-04-14T11:00:52Z</time>
      </trkpt>
      <trkpt lat="44.42393" lon="1.33276">
        <ele>278</ele>
        <time>2019-04-14T11:00:53Z</time>
      </trkpt>
      <trkpt lat="44.42391" lon="1.33273">
        <ele>278</ele>
        <time>2019-04-14T11:00:54Z</time>
      </trkpt>
      <trkpt lat="44.42389" lon="1.3327">
        <ele>278</ele>
        <time>2019-04-14T11:00:55Z</time>
      </trkpt>
      <trkpt lat="44.42388" lon="1.33267">
        <ele>278</ele>
        <time>2019-04-14T11:00:56Z</time>
      </trkpt>
      <trkpt lat="44.42387" lon="1.33264">
        <ele>278</ele>
        <time>2019-04-14T11:00:57Z</time>
      </trkpt>
      <trkpt lat="44.42387" lon="1.33261">
        <ele>278</ele>
        <time>2019-04-14T11:00:58Z</time>
      </trkpt>
      <trkpt lat="44.42387" lon="1.33258">
        <ele>279</ele>
        <time>2019-04-14T11:00:59Z</time>
      </trkpt>
      <trkpt lat="44.42388" lon="1.33255">
        <ele>279</ele>
        <time>2019-04-14T11:01:00Z</time>
      </trkpt>
      <trkpt lat="44.42389" lon="1.33253">
        <ele>279</ele>
        <time>2019-04-14T11:01:01Z</time>
      </trkpt>
      <trkpt lat="44.4239" lon="1.3325">
        <ele>279</ele>
        <time>2019-04-14T11:01:02Z</time>
      </trkpt>
      <trkpt lat="44.4239" lon="1.33248">
        <ele>280</ele>
        <time>2019-04-14T11:01:03Z</time>
      </trkpt>
      <trkpt lat="44.42391" lon="1.33245">
        <ele>280</ele>
        <time>2019-04-14T11:01:04Z</time>
      </trkpt>
      <trkpt lat="44.42393" lon="1.33244">
        <ele>280</ele>
        <time>2019-04-14T11:01:05Z</time>
      </trkpt>
      <trkpt lat="44.42394" lon="1.33242">
        <ele>280</ele>
        <time>2019-04-14T11:01:06Z</time>
      </trkpt>
      <trkpt lat="44.42395" lon="1.3324">
        <ele>280</ele>
        <time>2019-04-14T11:01:07Z</time>
      </trkpt>
      <trkpt lat="44.42395" lon="1.33237">
        <ele>280</ele>
        <time>2019-04-14T11:01:08Z</time>
      </trkpt>
      <trkpt lat="44.42396" lon="1.33234">
        <ele>280</ele>
        <time>2019-04-14T11:01:09Z</time>
      </trkpt>
      <trkpt lat="44.42397" lon="1.33231">
        <ele>281</ele>
        <time>2019-04-14T11:01:10Z</time>
      </trkpt>
      <trkpt lat="44.42399" lon="1.33229">
        <ele>281</ele>
        <time>2019-04-14T11:01:11Z</time>
      </trkpt>
      <trkpt lat="44.424" lon="1.33227">
        <ele>281</ele>
        <time>2019-04-14T11:01:12Z</time>
      </trkpt>
      <trkpt lat="44.42401" lon="1.33224">
        <ele>281</ele>
        <time>2019-04-14T11:01:13Z</time>
      </trkpt>
      <trkpt lat="44.42402" lon="1.33222">
        <ele>281</ele>
        <time>2019-04-14T11:01:14Z</time>
      </trkpt>
      <trkpt lat="44.42404" lon="1.33219">
        <ele>281</ele>
        <time>2019-04-14T11:01:15Z</time>
      </trkpt>
      <trkpt lat="44.42404" lon="1.33216">
        <ele>282</ele>
        <time>2019-04-14T11:01:16Z</time>
      </trkpt>
      <trkpt lat="44.42405" lon="1.33214">
        <ele>282</ele>
        <time>2019-04-14T11:01:17Z</time>
      </trkpt>
      <trkpt lat="44.42406" lon="1.33211">
        <ele>282</ele>
        <time>2019-04-14T11:01:18Z</time>
      </trkpt>
      <trkpt lat="44.42407" lon="1.33208">
        <ele>282</ele>
        <time>2019-04-14T11:01:19Z</time>
      </trkpt>
      <trkpt lat="44.42408" lon="1.33205">
        <ele>282</ele>
        <time>2019-04-14T11:01:20Z</time>
      </trkpt>
      <trkpt lat="44.42408" lon="1.33202">
        <ele>282</ele>
        <time>2019-04-14T11:01:21Z</time>
      </trkpt>
      <trkpt lat="44.42409" lon="1.33199">
        <ele>282</ele>
        <time>2019-04-14T11:01:22Z</time>
      </trkpt>
      <trkpt lat="44.4241" lon="1.33196">
        <ele>283</ele>
        <time>2019-04-14T11:01:23Z</time>
      </trkpt>
      <trkpt lat="44.42411" lon="1.33193">
        <ele>283</ele>
        <time>2019-04-14T11:01:24Z</time>
      </trkpt>
      <trkpt lat="44.42412" lon="1.3319">
        <ele>283</ele>
        <time>2019-04-14T11:01:25Z</time>
      </trkpt>
      <trkpt lat="44.42413" lon="1.33186">
        <ele>283</ele>
        <time>2019-04-14T11:01:26Z</time>
      </trkpt>
      <trkpt lat="44.42414" lon="1.33183">
        <ele>283</ele>
        <time>2019-04-14T11:01:27Z</time>
      </trkpt>
      <trkpt lat="44.42415" lon="1.3318">
        <ele>283</ele>
        <time>2019-04-14T11:01:28Z</time>
      </trkpt>
      <trkpt lat="44.42416" lon="1.33177">
        <ele>283</ele>
        <time>2019-04-14T11:01:29Z</time>
      </trkpt>
      <trkpt lat="44.42417" lon="1.33173">
        <ele>283</ele>
        <time>2019-04-14T11:01:30Z</time>
      </trkpt>
      <trkpt lat="44.42418" lon="1.33171">
        <ele>283</ele>
        <time>2019-04-14T11:01:31Z</time>
      </trkpt>
      <trkpt lat="44.42419" lon="1.33168">
        <ele>283</ele>
        <time>2019-04-14T11:01:32Z</time>
      </trkpt>
      <trkpt lat="44.4242" lon="1.33165">
        <ele>283</ele>
        <time>2019-04-14T11:01:33Z</time>
      </trkpt>
      <trkpt lat="44.42421" lon="1.33162">
        <ele>283</ele>
        <time>2019-04-14T11:01:34Z</time>
      </trkpt>
      <trkpt lat="44.42422" lon="1.33159">
        <ele>283</ele>
        <time>2019-04-14T11:01:35Z</time>
      </trkpt>
      <trkpt lat="44.42423" lon="1.33156">
        <ele>283</ele>
        <time>2019-04-14T11:01:36Z</time>
      </trkpt>
      <trkpt lat="44.42425" lon="1.33152">
        <ele>283</ele>
        <time>2019-04-14T11:01:37Z</time>
      </trkpt>
      <trkpt lat="44.42426" lon="1.33149">
        <ele>283</ele>
        <time>2019-04-14T11:01:38Z</time>
      </trkpt>
      <trkpt lat="44.42427" lon="1.33145">
        <ele>283</ele>
        <time>2019-04-14T11:01:39Z</time>
      </trkpt>
      <trkpt lat="44.42428" lon="1.33141">
        <ele>283</ele>
        <time>2019-04-14T11:01:40Z</time>
      </trkpt>
      <trkpt lat="44.4243" lon="1.33137">
        <ele>283</ele>
        <time>2019-04-14T11:01:41Z</time>
      </trkpt>
      <trkpt lat="44.42431" lon="1.33133">
        <ele>283</ele>
        <time>2019-04-14T11:01:42Z</time>
      </trkpt>
      <trkpt lat="44.42433" lon="1.33129">
        <ele>283</ele>
        <time>2019-04-14T11:01:43Z</time>
      </trkpt>
      <trkpt lat="44.42435" lon="1.33124">
        <ele>283</ele>
        <time>2019-04-14T11:01:44Z</time>
      </trkpt>
      <trkpt lat="44.42436" lon="1.3312">
        <ele>283</ele>
        <time>2019-04-14T11:01:45Z</time>
      </trkpt>
      <trkpt lat="44.42438" lon="1.33116">
        <ele>283</ele>
        <time>2019-04-14T11:01:46Z</time>
      </trkpt>
      <trkpt lat="44.4244" lon="1.33112">
        <ele>282</ele>
        <time>2019-04-14T11:01:47Z</time>
      </trkpt>
      <trkpt lat="44.42442" lon="1.33107">
        <ele>282</ele>
        <time>2019-04-14T11:01:48Z</time>
      </trkpt>
      <trkpt lat="44.42444" lon="1.33103">
        <ele>282</ele>
        <time>2019-04-14T11:01:49Z</time>
      </trkpt>
      <trkpt lat="44.42446" lon="1.33098">
        <ele>282</ele>
        <time>2019-04-14T11:01:50Z</time>
      </trkpt>
      <trkpt lat="44.42447" lon="1.33093">
        <ele>282</ele>
        <time>2019-04-14T11:01:51Z</time>
      </trkpt>
      <trkpt lat="44.42449" lon="1.33089">
        <ele>282</ele>
        <time>2019-04-14T11:01:52Z</time>
      </trkpt>
      <trkpt lat="44.42453" lon="1.33085">
        <ele>282</ele>
        <time>2019-04-14T11:01:53Z</time>
      </trkpt>
      <trkpt lat="44.42455" lon="1.33081">
        <ele>281</ele>
        <time>2019-04-14T11:01:54Z</time>
      </trkpt>
      <trkpt lat="44.42457" lon="1.33075">
        <ele>281</ele>
        <time>2019-04-14T11:01:55Z</time>
      </trkpt>
      <trkpt lat="44.42459" lon="1.33071">
        <ele>281</ele>
        <time>2019-04-14T11:01:56Z</time>
      </trkpt>
      <trkpt lat="44.42461" lon="1.33066">
        <ele>281</ele>
        <time>2019-04-14T11:01:57Z</time>
      </trkpt>
      <trkpt lat="44.42463" lon="1.33061">
        <ele>281</ele>
        <time>2019-04-14T11:01:58Z</time>
      </trkpt>
      <trkpt lat="44.42466" lon="1.33057">
        <ele>281</ele>
        <time>2019-04-14T11:01:59Z</time>
      </trkpt>
      <trkpt lat="44.42467" lon="1.33051">
        <ele>281</ele>
        <time>2019-04-14T11:02:00Z</time>
      </trkpt>
      <trkpt lat="44.42469" lon="1.33045">
        <ele>281</ele>
        <time>2019-04-14T11:02:01Z</time>
      </trkpt>
      <trkpt lat="44.42471" lon="1.33039">
        <ele>281</ele>
        <time>2019-04-14T11:02:02Z</time>
      </trkpt>
      <trkpt lat="44.42474" lon="1.33034">
        <ele>280</ele>
        <time>2019-04-14T11:02:03Z</time>
      </trkpt>
      <trkpt lat="44.42477" lon="1.33029">
        <ele>280</ele>
        <time>2019-04-14T11:02:04Z</time>
      </trkpt>
      <trkpt lat="44.4248" lon="1.33023">
        <ele>280</ele>
        <time>2019-04-14T11:02:05Z</time>
      </trkpt>
      <trkpt lat="44.42483" lon="1.33017">
        <ele>280</ele>
        <time>2019-04-14T11:02:06Z</time>
      </trkpt>
      <trkpt lat="44.42485" lon="1.33011">
        <ele>280</ele>
        <time>2019-04-14T11:02:07Z</time>
      </trkpt>
      <trkpt lat="44.42487" lon="1.33005">
        <ele>280</ele>
        <time>2019-04-14T11:02:08Z</time>
      </trkpt>
      <trkpt lat="44.42489" lon="1.32999">
        <ele>280</ele>
        <time>2019-04-14T11:02:09Z</time>
      </trkpt>
      <trkpt lat="44.4249" lon="1.32994">
        <ele>280</ele>
        <time>2019-04-14T11:02:10Z</time>
      </trkpt>
      <trkpt lat="44.4249" lon="1.32988">
        <ele>280</ele>
        <time>2019-04-14T11:02:11Z</time>
      </trkpt>
      <trkpt lat="44.42489" lon="1.32984">
        <ele>280</ele>
        <time>2019-04-14T11:02:12Z</time>
      </trkpt>
      <trkpt lat="44.42487" lon="1.32979">
        <ele>280</ele>
        <time>2019-04-14T11:02:13Z</time>
      </trkpt>
      <trkpt lat="44.42485" lon="1.32975">
        <ele>280</ele>
        <time>2019-04-14T11:02:14Z</time>
      </trkpt>
      <trkpt lat="44.42483" lon="1.32971">
        <ele>280</ele>
        <time>2019-04-14T11:02:15Z</time>
      </trkpt>
      <trkpt lat="44.42481" lon="1.32967">
        <ele>280</ele>
        <time>2019-04-14T11:02:16Z</time>
      </trkpt>
      <trkpt lat="44.42479" lon="1.32961">
        <ele>280</ele>
        <time>2019-04-14T11:02:17Z</time>
      </trkpt>
      <trkpt lat="44.42476" lon="1.32955">
        <ele>279</ele>
        <time>2019-04-14T11:02:18Z</time>
      </trkpt>
      <trkpt lat="44.42472" lon="1.32949">
        <ele>279</ele>
        <time>2019-04-14T11:02:19Z</time>
      </trkpt>
      <trkpt lat="44.42468" lon="1.32942">
        <ele>278</ele>
        <time>2019-04-14T11:02:20Z</time>
      </trkpt>
      <trkpt lat="44.42465" lon="1.32935">
        <ele>278</ele>
        <time>2019-04-14T11:02:21Z</time>
      </trkpt>
      <trkpt lat="44.42461" lon="1.32928">
        <ele>278</ele>
        <time>2019-04-14T11:02:22Z</time>
      </trkpt>
      <trkpt lat="44.42457" lon="1.32921">
        <ele>277</ele>
        <time>2019-04-14T11:02:23Z</time>
      </trkpt>
      <trkpt lat="44.42454" lon="1.32913">
        <ele>277</ele>
        <time>2019-04-14T11:02:24Z</time>
      </trkpt>
      <trkpt lat="44.4245" lon="1.32905">
        <ele>276</ele>
        <time>2019-04-14T11:02:25Z</time>
      </trkpt>
      <trkpt lat="44.42446" lon="1.32897">
        <ele>276</ele>
        <time>2019-04-14T11:02:26Z</time>
      </trkpt>
      <trkpt lat="44.42442" lon="1.32887">
        <ele>275</ele>
        <time>2019-04-14T11:02:27Z</time>
      </trkpt>
      <trkpt lat="44.42439" lon="1.32878">
        <ele>275</ele>
        <time>2019-04-14T11:02:28Z</time>
      </trkpt>
      <trkpt lat="44.42435" lon="1.32868">
        <ele>274</ele>
        <time>2019-04-14T11:02:29Z</time>
      </trkpt>
      <trkpt lat="44.42432" lon="1.32858">
        <ele>274</ele>
        <time>2019-04-14T11:02:30Z</time>
      </trkpt>
      <trkpt lat="44.42428" lon="1.32849">
        <ele>274</ele>
        <time>2019-04-14T11:02:31Z</time>
      </trkpt>
      <trkpt lat="44.42423" lon="1.32842">
        <ele>274</ele>
        <time>2019-04-14T11:02:32Z</time>
      </trkpt>
      <trkpt lat="44.42418" lon="1.32837">
        <ele>274</ele>
        <time>2019-04-14T11:02:33Z</time>
      </trkpt>
      <trkpt lat="44.42413" lon="1.32833">
        <ele>274</ele>
        <time>2019-04-14T11:02:34Z</time>
      </trkpt>
      <trkpt lat="44.42408" lon="1.3283">
        <ele>275</ele>
        <time>2019-04-14T11:02:35Z</time>
      </trkpt>
      <trkpt lat="44.42402" lon="1.32828">
        <ele>275</ele>
        <time>2019-04-14T11:02:36Z</time>
      </trkpt>
      <trkpt lat="44.42397" lon="1.32826">
        <ele>275</ele>
        <time>2019-04-14T11:02:37Z</time>
      </trkpt>
      <trkpt lat="44.42392" lon="1.32825">
        <ele>275</ele>
        <time>2019-04-14T11:02:38Z</time>
      </trkpt>
      <trkpt lat="44.42387" lon="1.32823">
        <ele>276</ele>
        <time>2019-04-14T11:02:39Z</time>
      </trkpt>
      <trkpt lat="44.42383" lon="1.32822">
        <ele>276</ele>
        <time>2019-04-14T11:02:40Z</time>
      </trkpt>
      <trkpt lat="44.42379" lon="1.3282">
        <ele>276</ele>
        <time>2019-04-14T11:02:41Z</time>
      </trkpt>
      <trkpt lat="44.42375" lon="1.32819">
        <ele>276</ele>
        <time>2019-04-14T11:02:42Z</time>
      </trkpt>
      <trkpt lat="44.42372" lon="1.32818">
        <ele>277</ele>
        <time>2019-04-14T11:02:43Z</time>
      </trkpt>
      <trkpt lat="44.42369" lon="1.32816">
        <ele>277</ele>
        <time>2019-04-14T11:02:44Z</time>
      </trkpt>
      <trkpt lat="44.42366" lon="1.32815">
        <ele>277</ele>
        <time>2019-04-14T11:02:45Z</time>
      </trkpt>
      <trkpt lat="44.42364" lon="1.32814">
        <ele>278</ele>
        <time>2019-04-14T11:02:46Z</time>
      </trkpt>
      <trkpt lat="44.42361" lon="1.32812">
        <ele>278</ele>
        <time>2019-04-14T11:02:47Z</time>
      </trkpt>
      <trkpt lat="44.42358" lon="1.3281">
        <ele>278</ele>
        <time>2019-04-14T11:02:48Z</time>
      </trkpt>
      <trkpt lat="44.42355" lon="1.32809">
        <ele>279</ele>
        <time>2019-04-14T11:02:49Z</time>
      </trkpt>
      <trkpt lat="44.42352" lon="1.32807">
        <ele>279</ele>
        <time>2019-04-14T11:02:50Z</time>
      </trkpt>
      <trkpt lat="44.4235" lon="1.32805">
        <ele>279</ele>
        <time>2019-04-14T11:02:51Z</time>
      </trkpt>
      <trkpt lat="44.42347" lon="1.32803">
        <ele>279</ele>
        <time>2019-04-14T11:02:52Z</time>
      </trkpt>
      <trkpt lat="44.42345" lon="1.328">
        <ele>279</ele>
        <time>2019-04-14T11:02:53Z</time>
      </trkpt>
      <trkpt lat="44.42342" lon="1.32798">
        <ele>280</ele>
        <time>2019-04-14T11:02:54Z</time>
      </trkpt>
      <trkpt lat="44.42339" lon="1.32796">
        <ele>280</ele>
        <time>2019-04-14T11:02:55Z</time>
      </trkpt>
      <trkpt lat="44.42337" lon="1.32794">
        <ele>280</ele>
        <time>2019-04-14T11:02:56Z</time>
      </trkpt>
      <trkpt lat="44.42334" lon="1.32792">
        <ele>280</ele>
        <time>2019-04-14T11:02:57Z</time>
      </trkpt>
      <trkpt lat="44.42332" lon="1.3279">
        <ele>280</ele>
        <time>2019-04-14T11:02:58Z</time>
      </trkpt>
      <trkpt lat="44.42329" lon="1.32787">
        <ele>280</ele>
        <time>2019-04-14T11:02:59Z</time>
      </trkpt>
      <trkpt lat="44.42327" lon="1.32784">
        <ele>280</ele>
        <time>2019-04-14T11:03:00Z</time>
      </trkpt>
      <trkpt lat="44.42324" lon="1.32781">
        <ele>280</ele>
        <time>2019-04-14T11:03:01Z</time>
      </trkpt>
      <trkpt lat="44.42321" lon="1.32778">
        <ele>280</ele>
        <time>2019-04-14T11:03:02Z</time>
      </trkpt>
      <trkpt lat="44.42318" lon="1.32775">
        <ele>280</ele>
        <time>2019-04-14T11:03:03Z</time>
      </trkpt>
      <trkpt lat="44.42314" lon="1.32771">
        <ele>280</ele>
        <time>2019-04-14T11:03:04Z</time>
      </trkpt>
      <trkpt lat="44.42311" lon="1.32768">
        <ele>280</ele>
        <time>2019-04-14T11:03:05Z</time>
      </trkpt>
      <trkpt lat="44.42308" lon="1.32764">
        <ele>280</ele>
        <time>2019-04-14T11:03:06Z</time>
      </trkpt>
      <trkpt lat="44.42304" lon="1.3276">
        <ele>279</ele>
        <time>2019-04-14T11:03:07Z</time>
      </trkpt>
      <trkpt lat="44.423" lon="1.32755">
        <ele>279</ele>
        <time>2019-04-14T11:03:08Z</time>
      </trkpt>
      <trkpt lat="44.42296" lon="1.3275">
        <ele>279</ele>
        <time>2019-04-14T11:03:09Z</time>
      </trkpt>
      <trkpt lat="44.42293" lon="1.32744">
        <ele>279</ele>
        <time>2019-04-14T11:03:10Z</time>
      </trkpt>
      <trkpt lat="44.4229" lon="1.32737">
        <ele>279</ele>
        <time>2019-04-14T11:03:11Z</time>
      </trkpt>
      <trkpt lat="44.42287" lon="1.3273">
        <ele>278</ele>
        <time>2019-04-14T11:03:12Z</time>
      </trkpt>
      <trkpt lat="44.42285" lon="1.32722">
        <ele>278</ele>
        <time>2019-04-14T11:03:13Z</time>
      </trkpt>
      <trkpt lat="44.42283" lon="1.32713">
        <ele>278</ele>
        <time>2019-04-14T11:03:14Z</time>
      </trkpt>
      <trkpt lat="44.42282" lon="1.32704">
        <ele>278</ele>
        <time>2019-04-14T11:03:15Z</time>
      </trkpt>
      <trkpt lat="44.42282" lon="1.32695">
        <ele>277</ele>
        <time>2019-04-14T11:03:16Z</time>
      </trkpt>
      <trkpt lat="44.42281" lon="1.32685">
        <ele>277</ele>
        <time>2019-04-14T11:03:17Z</time>
      </trkpt>
      <trkpt lat="44.42281" lon="1.32676">
        <ele>277</ele>
        <time>2019-04-14T11:03:18Z</time>
      </trkpt>
      <trkpt lat="44.42281" lon="1.32666">
        <ele>276</ele>
        <time>2019-04-14T11:03:19Z</time>
      </trkpt>
      <trkpt lat="44.4228" lon="1.32657">
        <ele>276</ele>
        <time>2019-04-14T11:03:20Z</time>
      </trkpt>
      <trkpt lat="44.4228" lon="1.32647">
        <ele>276</ele>
        <time>2019-04-14T11:03:21Z</time>
      </trkpt>
      <trkpt lat="44.42278" lon="1.32639">
        <ele>276</ele>
        <time>2019-04-14T11:03:22Z</time>
      </trkpt>
      <trkpt lat="44.42275" lon="1.32631">
        <ele>276</ele>
        <time>2019-04-14T11:03:23Z</time>
      </trkpt>
      <trkpt lat="44.42271" lon="1.32625">
        <ele>276</ele>
        <time>2019-04-14T11:03:24Z</time>
      </trkpt>
      <trkpt lat="44.42267" lon="1.32619">
        <ele>275</ele>
        <time>2019-04-14T11:03:25Z</time>
      </trkpt>
      <trkpt lat="44.42263" lon="1.32614">
        <ele>275</ele>
        <time>2019-04-14T11:03:26Z</time>
      </trkpt>
      <trkpt lat="44.42259" lon="1.3261">
        <ele>275</ele>
        <time>2019-04-14T11:03:27Z</time>
      </trkpt>
      <trkpt lat="44.42255" lon="1.32605">
        <ele>275</ele>
        <time>2019-04-14T11:03:28Z</time>
      </trkpt>
      <trkpt lat="44.42251" lon="1.32601">
        <ele>275</ele>
        <time>2019-04-14T11:03:29Z</time>
      </trkpt>
      <trkpt lat="44.42247" lon="1.32596">
        <ele>275</ele>
        <time>2019-04-14T11:03:30Z</time>
      </trkpt>
      <trkpt lat="44.42243" lon="1.32592">
        <ele>275</ele>
        <time>2019-04-14T11:03:31Z</time>
      </trkpt>
      <trkpt lat="44.4224" lon="1.32588">
        <ele>275</ele>
        <time>2019-04-14T11:03:32Z</time>
      </trkpt>
      <trkpt lat="44.42236" lon="1.32583">
        <ele>275</ele>
        <time>2019-04-14T11:03:33Z</time>
      </trkpt>
      <trkpt lat="44.42233" lon="1.3258">
        <ele>276</ele>
        <time>2019-04-14T11:03:34Z</time>
      </trkpt>
      <trkpt lat="44.42229" lon="1.32576">
        <ele>276</ele>
        <time>2019-04-14T11:03:35Z</time>
      </trkpt>
      <trkpt lat="44.42226" lon="1.32572">
        <ele>276</ele>
        <time>2019-04-14T11:03:36Z</time>
      </trkpt>
      <trkpt lat="44.42223" lon="1.32568">
        <ele>276</ele>
        <time>2019-04-14T11:03:37Z</time>
      </trkpt>
      <trkpt lat="44.4222" lon="1.32565">
        <ele>277</ele>
        <time>2019-04-14T11:03:38Z</time>
      </trkpt>
      <trkpt lat="44.42217" lon="1.32561">
        <ele>277</ele>
        <time>2019-04-14T11:03:39Z</time>
      </trkpt>
      <trkpt lat="44.42215" lon="1.32558">
        <ele>277</ele>
        <time>2019-04-14T11:03:40Z</time>
      </trkpt>
      <trkpt lat="44.42212" lon="1.32554">
        <ele>277</ele>
        <time>2019-04-14T11:03:41Z</time>
      </trkpt>
      <trkpt lat="44.4221" lon="1.32551">
        <ele>277</ele>
        <time>2019-04-14T11:03:42Z</time>
      </trkpt>
      <trkpt lat="44.4221" lon="1.32547">
        <ele>278</ele>
        <time>2019-04-14T11:03:43Z</time>
      </trkpt>
      <trkpt lat="44.42209" lon="1.32544">
        <ele>278</ele>
        <time>2019-04-14T11:03:44Z</time>
      </trkpt>
      <trkpt lat="44.42209" lon="1.3254">
        <ele>278</ele>
        <time>2019-04-14T11:03:45Z</time>
      </trkpt>
      <trkpt lat="44.42208" lon="1.32536">
        <ele>278</ele>
        <time>2019-04-14T11:03:46Z</time>
      </trkpt>
      <trkpt lat="44.42206" lon="1.32532">
        <ele>278</ele>
        <time>2019-04-14T11:03:47Z</time>
      </trkpt>
      <trkpt lat="44.42206" lon="1.32528">
        <ele>279</ele>
        <time>2019-04-14T11:03:48Z</time>
      </trkpt>
      <trkpt lat="44.42204" lon="1.32524">
        <ele>279</ele>
        <time>2019-04-14T11:03:49Z</time>
      </trkpt>
      <trkpt lat="44.42203" lon="1.3252">
        <ele>279</ele>
        <time>2019-04-14T11:03:50Z</time>
      </trkpt>
      <trkpt lat="44.42202" lon="1.32516">
        <ele>279</ele>
        <time>2019-04-14T11:03:51Z</time>
      </trkpt>
      <trkpt lat="44.42201" lon="1.32512">
        <ele>279</ele>
        <time>2019-04-14T11:03:52Z</time>
      </trkpt>
      <trkpt lat="44.42199" lon="1.32507">
        <ele>279</ele>
        <time>2019-04-14T11:03:53Z</time>
      </trkpt>
      <trkpt lat="44.42198" lon="1.32503">
        <ele>279</ele>
        <time>2019-04-14T11:03:54Z</time>
      </trkpt>
      <trkpt lat="44.42196" lon="1.325">
        <ele>279</ele>
        <time>2019-04-14T11:03:55Z</time>
      </trkpt>
      <trkpt lat="44.42194" lon="1.32496">
        <ele>278</ele>
        <time>2019-04-14T11:03:56Z</time>
      </trkpt>
      <trkpt lat="44.4219" lon="1.32491">
        <ele>278</ele>
        <time>2019-04-14T11:03:57Z</time>
      </trkpt>
      <trkpt lat="44.42187" lon="1.32485">
        <ele>278</ele>
        <time>2019-04-14T11:03:58Z</time>
      </trkpt>
      <trkpt lat="44.42184" lon="1.3248">
        <ele>277</ele>
        <time>2019-04-14T11:03:59Z</time>
      </trkpt>
      <trkpt lat="44.4218" lon="1.32474">
        <ele>277</ele>
        <time>2019-04-14T11:04:00Z</time>
      </trkpt>
      <trkpt lat="44.42177" lon="1.32469">
        <ele>277</ele>
        <time>2019-04-14T11:04:01Z</time>
      </trkpt>
      <trkpt lat="44.42173" lon="1.32464">
        <ele>276</ele>
        <time>2019-04-14T11:04:02Z</time>
      </trkpt>
      <trkpt lat="44.42169" lon="1.3246">
        <ele>275</ele>
        <time>2019-04-14T11:04:03Z</time>
      </trkpt>
      <trkpt lat="44.42166" lon="1.32455">
        <ele>275</ele>
        <time>2019-04-14T11:04:04Z</time>
      </trkpt>
      <trkpt lat="44.42163" lon="1.3245">
        <ele>274</ele>
        <time>2019-04-14T11:04:05Z</time>
      </trkpt>
      <trkpt lat="44.4216" lon="1.32446">
        <ele>274</ele>
        <time>2019-04-14T11:04:06Z</time>
      </trkpt>
      <trkpt lat="44.42156" lon="1.32441">
        <ele>274</ele>
        <time>2019-04-14T11:04:07Z</time>
      </trkpt>
      <trkpt lat="44.42153" lon="1.32436">
        <ele>273</ele>
        <time>2019-04-14T11:04:08Z</time>
      </trkpt>
      <trkpt lat="44.4215" lon="1.3243">
        <ele>273</ele>
        <time>2019-04-14T11:04:09Z</time>
      </trkpt>
      <trkpt lat="44.42146" lon="1.32425">
        <ele>272</ele>
        <time>2019-04-14T11:04:10Z</time>
      </trkpt>
      <trkpt lat="44.42142" lon="1.3242">
        <ele>272</ele>
        <time>2019-04-14T11:04:11Z</time>
      </trkpt>
      <trkpt lat="44.42139" lon="1.32417">
        <ele>271</ele>
        <time>2019-04-14T11:04:12Z</time>
      </trkpt>
      <trkpt lat="44.42138" lon="1.32415">
        <ele>270</ele>
        <time>2019-04-14T11:04:13Z</time>
      </trkpt>
      <trkpt lat="44.42136" lon="1.32412">
        <ele>270</ele>
        <time>2019-04-14T11:04:14Z</time>
      </trkpt>
      <trkpt lat="44.42136" lon="1.3241">
        <ele>269</ele>
        <time>2019-04-14T11:04:15Z</time>
      </trkpt>
      <trkpt lat="44.42136" lon="1.32407">
        <ele>269</ele>
        <time>2019-04-14T11:04:16Z</time>
      </trkpt>
      <trkpt lat="44.42137" lon="1.32405">
        <ele>269</ele>
        <time>2019-04-14T11:04:17Z</time>
      </trkpt>
      <trkpt lat="44.42139" lon="1.32403">
        <ele>269</ele>
        <time>2019-04-14T11:04:18Z</time>
      </trkpt>
      <trkpt lat="44.4214" lon="1.32401">
        <ele>270</ele>
        <time>2019-04-14T11:04:19Z</time>
      </trkpt>
      <trkpt lat="44.42142" lon="1.32399">
        <ele>270</ele>
        <time>2019-04-14T11:04:20Z</time>
      </trkpt>
      <trkpt lat="44.42143" lon="1.32398">
        <ele>270</ele>
        <time>2019-04-14T11:04:21Z</time>
      </trkpt>
      <trkpt lat="44.42145" lon="1.32396">
        <ele>270</ele>
        <time>2019-04-14T11:04:22Z</time>
      </trkpt>
      <trkpt lat="44.42146" lon="1.32395">
        <ele>270</ele>
        <time>2019-04-14T11:04:23Z</time>
      </trkpt>
      <trkpt lat="44.42148" lon="1.32393">
        <ele>270</ele>
        <time>2019-04-14T11:04:24Z</time>
      </trkpt>
      <trkpt lat="44.4215" lon="1.32391">
        <ele>271</ele>
        <time>2019-04-14T11:04:25Z</time>
      </trkpt>
      <trkpt lat="44.42152" lon="1.3239">
        <ele>271</ele>
        <time>2019-04-14T11:04:26Z</time>
      </trkpt>
      <trkpt lat="44.42153" lon="1.32388">
        <ele>271</ele>
        <time>2019-04-14T11:04:27Z</time>
      </trkpt>
      <trkpt lat="44.42155" lon="1.32387">
        <ele>271</ele>
        <time>2019-04-14T11:04:28Z</time>
      </trkpt>
      <trkpt lat="44.42156" lon="1.32385">
        <ele>272</ele>
        <time>2019-04-14T11:04:29Z</time>
      </trkpt>
      <trkpt lat="44.42158" lon="1.32383">
        <ele>272</ele>
        <time>2019-04-14T11:04:30Z</time>
      </trkpt>
      <trkpt lat="44.42159" lon="1.32382">
        <ele>272</ele>
        <time>2019-04-14T11:04:31Z</time>
      </trkpt>
      <trkpt lat="44.4216" lon="1.32381">
        <ele>273</ele>
        <time>2019-04-14T11:04:32Z</time>
      </trkpt>
      <trkpt lat="44.42161" lon="1.32379">
        <ele>273</ele>
        <time>2019-04-14T11:04:33Z</time>
      </trkpt>
      <trkpt lat="44.42162" lon="1.32378">
        <ele>273</ele>
        <time>2019-04-14T11:04:34Z</time>
      </trkpt>
      <trkpt lat="44.42164" lon="1.32376">
        <ele>273</ele>
        <time>2019-04-14T11:04:35Z</time>
      </trkpt>
      <trkpt lat="44.42165" lon="1.32374">
        <ele>273</ele>
        <time>2019-04-14T11:04:36Z</time>
      </trkpt>
      <trkpt lat="44.42167" lon="1.32372">
        <ele>274</ele>
        <time>2019-04-14T11:04:37Z</time>
      </trkpt>
      <trkpt lat="44.42168" lon="1.3237">
        <ele>274</ele>
        <time>2019-04-14T11:04:38Z</time>
      </trkpt>
      <trkpt lat="44.4217" lon="1.32368">
        <ele>274</ele>
        <time>2019-04-14T11:04:39Z</time>
      </trkpt>
      <trkpt lat="44.42171" lon="1.32366">
        <ele>274</ele>
        <time>2019-04-14T11:04:40Z</time>
      </trkpt>
      <trkpt lat="44.42173" lon="1.32364">
        <ele>274</ele>
        <time>2019-04-14T11:04:41Z</time>
      </trkpt>
      <trkpt lat="44.42175" lon="1.32362">
        <ele>275</ele>
        <time>2019-04-14T11:04:42Z</time>
      </trkpt>
      <trkpt lat="44.42177" lon="1.3236">
        <ele>275</ele>
        <time>2019-04-14T11:04:43Z</time>
      </trkpt>
      <trkpt lat="44.42179" lon="1.32358">
        <ele>275</ele>
        <time>2019-04-14T11:04:44Z</time>
      </trkpt>
      <trkpt lat="44.42181" lon="1.32356">
        <ele>275</ele>
        <time>2019-04-14T11:04:45Z</time>
      </trkpt>
      <trkpt lat="44.42182" lon="1.32354">
        <ele>275</ele>
        <time>2019-04-14T11:04:46Z</time>
      </trkpt>
      <trkpt lat="44.42184" lon="1.32352">
        <ele>275</ele>
        <time>2019-04-14T11:04:47Z</time>
      </trkpt>
      <trkpt lat="44.42185" lon="1.3235">
        <ele>275</ele>
        <time>2019-04-14T11:04:48Z</time>
      </trkpt>
      <trkpt lat="44.42187" lon="1.32348">
        <ele>275</ele>
        <time>2019-04-14T11:04:49Z</time>
      </trkpt>
      <trkpt lat="44.42189" lon="1.32345">
        <ele>275</ele>
        <time>2019-04-14T11:04:50Z</time>
      </trkpt>
      <trkpt lat="44.4219" lon="1.32343">
        <ele>275</ele>
        <time>2019-04-14T11:04:51Z</time>
      </trkpt>
      <trkpt lat="44.42192" lon="1.32342">
        <ele>275</ele>
        <time>2019-04-14T11:04:52Z</time>
      </trkpt>
      <trkpt lat="44.42194" lon="1.3234">
        <ele>275</ele>
        <time>2019-04-14T11:04:53Z</time>
      </trkpt>
      <trkpt lat="44.42196" lon="1.32338">
        <ele>276</ele>
        <time>2019-04-14T11:04:54Z</time>
      </trkpt>
      <trkpt lat="44.42197" lon="1.32335">
        <ele>276</ele>
        <time>2019-04-14T11:04:55Z</time>
      </trkpt>
      <trkpt lat="44.42198" lon="1.32333">
        <ele>276</ele>
        <time>2019-04-14T11:04:56Z</time>
      </trkpt>
      <trkpt lat="44.422" lon="1.32331">
        <ele>276</ele>
        <time>2019-04-14T11:04:57Z</time>
      </trkpt>
      <trkpt lat="44.42201" lon="1.3233">
        <ele>276</ele>
        <time>2019-04-14T11:04:58Z</time>
      </trkpt>
      <trkpt lat="44.42203" lon="1.32328">
        <ele>276</ele>
        <time>2019-04-14T11:04:59Z</time>
      </trkpt>
      <trkpt lat="44.42204" lon="1.32326">
        <ele>276</ele>
        <time>2019-04-14T11:05:00Z</time>
      </trkpt>
      <trkpt lat="44.42206" lon="1.32325">
        <ele>276</ele>
        <time>2019-04-14T11:05:01Z</time>
      </trkpt>
      <trkpt lat="44.42207" lon="1.32323">
        <ele>277</ele>
        <time>2019-04-14T11:05:02Z</time>
      </trkpt>
      <trkpt lat="44.42209" lon="1.32322">
        <ele>277</ele>
        <time>2019-04-14T11:05:03Z</time>
      </trkpt>
      <trkpt lat="44.4221" lon="1.32321">
        <ele>277</ele>
        <time>2019-04-14T11:05:04Z</time>
      </trkpt>
      <trkpt lat="44.4221" lon="1.32319">
        <ele>277</ele>
        <time>2019-04-14T11:05:05Z</time>
      </trkpt>
      <trkpt lat="44.42211" lon="1.32318">
        <ele>277</ele>
        <time>2019-04-14T11:05:06Z</time>
      </trkpt>
      <trkpt lat="44.42212" lon="1.32317">
        <ele>277</ele>
        <time>2019-04-14T11:05:07Z</time>
      </trkpt>
      <trkpt lat="44.42213" lon="1.32316">
        <ele>277</ele>
        <time>2019-04-14T11:05:08Z</time>
      </trkpt>
      <trkpt lat="44.42214" lon="1.32315">
        <ele>277</ele>
        <time>2019-04-14T11:05:09Z</time>
      </trkpt>
      <trkpt lat="44.42215" lon="1.32313">
        <ele>277</ele>
        <time>2019-04-14T11:05:10Z</time>
      </trkpt>
      <trkpt lat="44.42215" lon="1.32313">
        <ele>277</ele>
        <time>2019-04-14T11:05:11Z</time>
      </trkpt>
      <trkpt lat="44.42216" lon="1.32312">
        <ele>277</ele>
        <time>2019-04-14T11:05:12Z</time>
      </trkpt>
      <trkpt lat="44.42217" lon="1.32311">
        <ele>277</ele>
        <time>2019-04-14T11:05:13Z</time>
      </trkpt>
      <trkpt lat="44.42218" lon="1.3231">
        <ele>277</ele>
        <time>2019-04-14T11:05:14Z</time>
      </trkpt>
      <trkpt lat="44.42219" lon="1.32308">
        <ele>277</ele>
        <time>2019-04-14T11:05:15Z</time>
      </trkpt>
      <trkpt lat="44.42221" lon="1.32307">
        <ele>277</ele>
        <time>2019-04-14T11:05:16Z</time>
      </trkpt>
      <trkpt lat="44.42223" lon="1.32305">
        <ele>277</ele>
        <time>2019-04-14T11:05:17Z</time>
      </trkpt>
      <trkpt lat="44.42224" lon="1.32303">
        <ele>278</ele>
        <time>2019-04-14T11:05:18Z</time>
      </trkpt>
      <trkpt lat="44.42226" lon="1.32301">
        <ele>278</ele>
        <time>2019-04-14T11:05:19Z</time>
      </trkpt>
      <trkpt lat="44.42228" lon="1.32299">
        <ele>278</ele>
        <time>2019-04-14T11:05:20Z</time>
      </trkpt>
      <trkpt lat="44.4223" lon="1.32297">
        <ele>278</ele>
        <time>2019-04-14T11:05:21Z</time>
      </trkpt>
      <trkpt lat="44.42232" lon="1.32295">
        <ele>278</ele>
        <time>2019-04-14T11:05:22Z</time>
      </trkpt>
      <trkpt lat="44.42234" lon="1.32293">
        <ele>278</ele>
        <time>2019-04-14T11:05:23Z</time>
      </trkpt>
      <trkpt lat="44.42236" lon="1.32291">
        <ele>278</ele>
        <time>2019-04-14T11:05:24Z</time>
      </trkpt>
      <trkpt lat="44.42238" lon="1.32289">
        <ele>278</ele>
        <time>2019-04-14T11:05:25Z</time>
      </trkpt>
      <trkpt lat="44.4224" lon="1.32287">
        <ele>278</ele>
        <time>2019-04-14T11:05:26Z</time>
      </trkpt>
      <trkpt lat="44.42242" lon="1.32286">
        <ele>278</ele>
        <time>2019-04-14T11:05:27Z</time>
      </trkpt>
      <trkpt lat="44.42244" lon="1.32284">
        <ele>278</ele>
        <time>2019-04-14T11:05:28Z</time>
      </trkpt>
      <trkpt lat="44.42247" lon="1.32281">
        <ele>279</ele>
        <time>2019-04-14T11:05:29Z</time>
      </trkpt>
      <trkpt lat="44.42249" lon="1.32279">
        <ele>279</ele>
        <time>2019-04-14T11:05:30Z</time>
      </trkpt>
      <trkpt lat="44.42252" lon="1.32277">
        <ele>279</ele>
        <time>2019-04-14T11:05:31Z</time>
      </trkpt>
      <trkpt lat="44.42254" lon="1.32275">
        <ele>279</ele>
        <time>2019-04-14T11:05:32Z</time>
      </trkpt>
      <trkpt lat="44.42256" lon="1.32273">
        <ele>279</ele>
        <time>2019-04-14T11:05:33Z</time>
      </trkpt>
      <trkpt lat="44.42258" lon="1.3227">
        <ele>279</ele>
        <time>2019-04-14T11:05:34Z</time>
      </trkpt>
      <trkpt lat="44.42261" lon="1.32268">
        <ele>279</ele>
        <time>2019-04-14T11:05:35Z</time>
      </trkpt>
      <trkpt lat="44.42263" lon="1.32266">
        <ele>280</ele>
        <time>2019-04-14T11:05:36Z</time>
      </trkpt>
      <trkpt lat="44.42266" lon="1.32263">
        <ele>280</ele>
        <time>2019-04-14T11:05:37Z</time>
      </trkpt>
      <trkpt lat="44.42268" lon="1.32261">
        <ele>280</ele>
        <time>2019-04-14T11:05:38Z</time>
      </trkpt>
      <trkpt lat="44.42271" lon="1.32258">
        <ele>280</ele>
        <time>2019-04-14T11:05:39Z</time>
      </trkpt>
      <trkpt lat="44.42273" lon="1.32256">
        <ele>280</ele>
        <time>2019-04-14T11:05:40Z</time>
      </trkpt>
      <trkpt lat="44.42276" lon="1.32253">
        <ele>280</ele>
        <time>2019-04-14T11:05:41Z</time>
      </trkpt>
      <trkpt lat="44.42279" lon="1.3225">
        <ele>280</ele>
        <time>2019-04-14T11:05:42Z</time>
      </trkpt>
      <trkpt lat="44.42282" lon="1.32248">
        <ele>281</ele>
        <time>2019-04-14T11:05:43Z</time>
      </trkpt>
      <trkpt lat="44.42284" lon="1.32245">
        <ele>281</ele>
        <time>2019-04-14T11:05:44Z</time>
      </trkpt>
      <trkpt lat="44.42287" lon="1.32243">
        <ele>281</ele>
        <time>2019-04-14T11:05:45Z</time>
      </trkpt>
      <trkpt lat="44.42289" lon="1.32241">
        <ele>281</ele>
        <time>2019-04-14T11:05:46Z</time>
      </trkpt>
      <trkpt lat="44.42292" lon="1.32239">
        <ele>281</ele>
        <time>2019-04-14T11:05:47Z</time>
      </trkpt>
      <trkpt lat="44.42294" lon="1.32237">
        <ele>282</ele>
        <time>2019-04-14T11:05:48Z</time>
      </trkpt>
      <trkpt lat="44.42297" lon="1.32234">
        <ele>282</ele>
        <time>2019-04-14T11:05:49Z</time>
      </trkpt>
      <trkpt lat="44.42299" lon="1.32231">
        <ele>282</ele>
        <time>2019-04-14T11:05:50Z</time>
      </trkpt>
      <trkpt lat="44.42301" lon="1.32229">
        <ele>282</ele>
        <time>2019-04-14T11:05:51Z</time>
      </trkpt>
      <trkpt lat="44.42304" lon="1.32227">
        <ele>282</ele>
        <time>2019-04-14T11:05:52Z</time>
      </trkpt>
      <trkpt lat="44.42306" lon="1.32225">
        <ele>283</ele>
        <time>2019-04-14T11:05:53Z</time>
      </trkpt>
      <trkpt lat="44.42309" lon="1.32222">
        <ele>283</ele>
        <time>2019-04-14T11:05:54Z</time>
      </trkpt>
      <trkpt lat="44.42311" lon="1.3222">
        <ele>283</ele>
        <time>2019-04-14T11:05:55Z</time>
      </trkpt>
      <trkpt lat="44.42314" lon="1.32218">
        <ele>283</ele>
        <time>2019-04-14T11:05:56Z</time>
      </trkpt>
      <trkpt lat="44.42316" lon="1.32216">
        <ele>283</ele>
        <time>2019-04-14T11:05:57Z</time>
      </trkpt>
      <trkpt lat="44.42319" lon="1.32214">
        <ele>284</ele>
        <time>2019-04-14T11:05:58Z</time>
      </trkpt>
      <trkpt lat="44.42321" lon="1.32212">
        <ele>284</ele>
        <time>2019-04-14T11:05:59Z</time>
      </trkpt>
      <trkpt lat="44.42323" lon="1.32209">
        <ele>284</ele>
        <time>2019-04-14T11:06:00Z</time>
      </trkpt>
      <trkpt lat="44.42325" lon="1.32207">
        <ele>284</ele>
        <time>2019-04-14T11:06:01Z</time>
      </trkpt>
      <trkpt lat="44.42327" lon="1.32204">
        <ele>285</ele>
        <time>2019-04-14T11:06:02Z</time>
      </trkpt>
      <trkpt lat="44.42329" lon="1.32202">
        <ele>285</ele>
        <time>2019-04-14T11:06:03Z</time>
      </trkpt>
      <trkpt lat="44.42332" lon="1.32199">
        <ele>285</ele>
        <time>2019-04-14T11:06:04Z</time>
      </trkpt>
      <trkpt lat="44.42334" lon="1.32197">
        <ele>285</ele>
        <time>2019-04-14T11:06:05Z</time>
      </trkpt>
      <trkpt lat="44.42336" lon="1.32195">
        <ele>285</ele>
        <time>2019-04-14T11:06:06Z</time>
      </trkpt>
      <trkpt lat="44.42338" lon="1.32192">
        <ele>285</ele>
        <time>2019-04-14T11:06:07Z</time>
      </trkpt>
      <trkpt lat="44.4234" lon="1.3219">
        <ele>285</ele>
        <time>2019-04-14T11:06:08Z</time>
      </trkpt>
      <trkpt lat="44.42343" lon="1.32188">
        <ele>285</ele>
        <time>2019-04-14T11:06:09Z</time>
      </trkpt>
      <trkpt lat="44.42345" lon="1.32185">
        <ele>286</ele>
        <time>2019-04-14T11:06:10Z</time>
      </trkpt>
      <trkpt lat="44.42347" lon="1.32183">
        <ele>286</ele>
        <time>2019-04-14T11:06:11Z</time>
      </trkpt>
      <trkpt lat="44.42349" lon="1.32181">
        <ele>286</ele>
        <time>2019-04-14T11:06:12Z</time>
      </trkpt>
      <trkpt lat="44.42351" lon="1.32178">
        <ele>286</ele>
        <time>2019-04-14T11:06:13Z</time>
      </trkpt>
      <trkpt lat="44.42353" lon="1.32176">
        <ele>286</ele>
        <time>2019-04-14T11:06:14Z</time>
      </trkpt>
      <trkpt lat="44.42355" lon="1.32173">
        <ele>286</ele>
        <time>2019-04-14T11:06:15Z</time>
      </trkpt>
      <trkpt lat="44.42358" lon="1.32171">
        <ele>286</ele>
        <time>2019-04-14T11:06:16Z</time>
      </trkpt>
      <trkpt lat="44.4236" lon="1.32169">
        <ele>286</ele>
        <time>2019-04-14T11:06:17Z</time>
      </trkpt>
      <trkpt lat="44.42361" lon="1.32166">
        <ele>286</ele>
        <time>2019-04-14T11:06:18Z</time>
      </trkpt>
      <trkpt lat="44.42364" lon="1.32164">
        <ele>286</ele>
        <time>2019-04-14T11:06:19Z</time>
      </trkpt>
      <trkpt lat="44.42366" lon="1.32161">
        <ele>287</ele>
        <time>2019-04-14T11:06:20Z</time>
      </trkpt>
      <trkpt lat="44.42368" lon="1.32159">
        <ele>287</ele>
        <time>2019-04-14T11:06:21Z</time>
      </trkpt>
      <trkpt lat="44.42371" lon="1.32156">
        <ele>287</ele>
        <time>2019-04-14T11:06:22Z</time>
      </trkpt>
      <trkpt lat="44.42373" lon="1.32153">
        <ele>287</ele>
        <time>2019-04-14T11:06:23Z</time>
      </trkpt>
      <trkpt lat="44.42375" lon="1.3215">
        <ele>286</ele>
        <time>2019-04-14T11:06:24Z</time>
      </trkpt>
      <trkpt lat="44.42378" lon="1.32147">
        <ele>286</ele>
        <time>2019-04-14T11:06:25Z</time>
      </trkpt>
      <trkpt lat="44.4238" lon="1.32144">
        <ele>286</ele>
        <time>2019-04-14T11:06:26Z</time>
      </trkpt>
      <trkpt lat="44.42383" lon="1.32141">
        <ele>286</ele>
        <time>2019-04-14T11:06:27Z</time>
      </trkpt>
      <trkpt lat="44.42386" lon="1.32138">
        <ele>286</ele>
        <time>2019-04-14T11:06:28Z</time>
      </trkpt>
      <trkpt lat="44.42388" lon="1.32135">
        <ele>286</ele>
        <time>2019-04-14T11:06:29Z</time>
      </trkpt>
      <trkpt lat="44.42391" lon="1.32132">
        <ele>286</ele>
        <time>2019-04-14T11:06:30Z</time>
      </trkpt>
      <trkpt lat="44.42394" lon="1.32129">
        <ele>286</ele>
        <time>2019-04-14T11:06:31Z</time>
      </trkpt>
      <trkpt lat="44.42396" lon="1.32125">
        <ele>286</ele>
        <time>2019-04-14T11:06:32Z</time>
      </trkpt>
      <trkpt lat="44.42399" lon="1.32122">
        <ele>286</ele>
        <time>2019-04-14T11:06:33Z</time>
      </trkpt>
      <trkpt lat="44.42402" lon="1.32119">
        <ele>286</ele>
        <time>2019-04-14T11:06:34Z</time>
      </trkpt>
      <trkpt lat="44.42405" lon="1.32115">
        <ele>286</ele>
        <time>2019-04-14T11:06:35Z</time>
      </trkpt>
      <trkpt lat="44.42409" lon="1.32113">
        <ele>286</ele>
        <time>2019-04-14T11:06:36Z</time>
      </trkpt>
      <trkpt lat="44.42411" lon="1.3211">
        <ele>286</ele>
        <time>2019-04-14T11:06:37Z</time>
      </trkpt>
      <trkpt lat="44.42414" lon="1.32107">
        <ele>287</ele>
        <time>2019-04-14T11:06:38Z</time>
      </trkpt>
      <trkpt lat="44.42416" lon="1.32105">
        <ele>287</ele>
        <time>2019-04-14T11:06:39Z</time>
      </trkpt>
      <trkpt lat="44.42419" lon="1.32102">
        <ele>287</ele>
        <time>2019-04-14T11:06:40Z</time>
      </trkpt>
      <trkpt lat="44.42421" lon="1.32099">
        <ele>287</ele>
        <time>2019-04-14T11:06:41Z</time>
      </trkpt>
      <trkpt lat="44.42424" lon="1.32095">
        <ele>287</ele>
        <time>2019-04-14T11:06:42Z</time>
      </trkpt>
      <trkpt lat="44.42426" lon="1.32091">
        <ele>287</ele>
        <time>2019-04-14T11:06:43Z</time>
      </trkpt>
      <trkpt lat="44.42429" lon="1.32088">
        <ele>287</ele>
        <time>2019-04-14T11:06:44Z</time>
      </trkpt>
      <trkpt lat="44.42431" lon="1.32085">
        <ele>287</ele>
        <time>2019-04-14T11:06:45Z</time>
      </trkpt>
      <trkpt lat="44.42433" lon="1.32081">
        <ele>287</ele>
        <time>2019-04-14T11:06:46Z</time>
      </trkpt>
      <trkpt lat="44.42436" lon="1.32077">
        <ele>287</ele>
        <time>2019-04-14T11:06:47Z</time>
      </trkpt>
      <trkpt lat="44.42439" lon="1.32073">
        <ele>287</ele>
        <time>2019-04-14T11:06:48Z</time>
      </trkpt>
      <trkpt lat="44.42442" lon="1.32069">
        <ele>287</ele>
        <time>2019-04-14T11:06:49Z</time>
      </trkpt>
      <trkpt lat="44.42445" lon="1.32066">
        <ele>287</ele>
        <time>2019-04-14T11:06:50Z</time>
      </trkpt>
      <trkpt lat="44.42448" lon="1.32063">
        <ele>287</ele>
        <time>2019-04-14T11:06:51Z</time>
      </trkpt>
      <trkpt lat="44.42451" lon="1.32059">
        <ele>287</ele>
        <time>2019-04-14T11:06:52Z</time>
      </trkpt>
      <trkpt lat="44.42453" lon="1.32056">
        <ele>287</ele>
        <time>2019-04-14T11:06:53Z</time>
      </trkpt>
      <trkpt lat="44.42456" lon="1.32053">
        <ele>287</ele>
        <time>2019-04-14T11:06:54Z</time>
      </trkpt>
      <trkpt lat="44.42459" lon="1.3205">
        <ele>287</ele>
        <time>2019-04-14T11:06:55Z</time>
      </trkpt>
      <trkpt lat="44.42461" lon="1.32048">
        <ele>287</ele>
        <time>2019-04-14T11:06:56Z</time>
      </trkpt>
      <trkpt lat="44.42464" lon="1.32045">
        <ele>287</ele>
        <time>2019-04-14T11:06:57Z</time>
      </trkpt>
      <trkpt lat="44.42467" lon="1.32042">
        <ele>287</ele>
        <time>2019-04-14T11:06:58Z</time>
      </trkpt>
      <trkpt lat="44.4247" lon="1.32039">
        <ele>287</ele>
        <time>2019-04-14T11:06:59Z</time>
      </trkpt>
      <trkpt lat="44.42473" lon="1.32036">
        <ele>287</ele>
        <time>2019-04-14T11:07:00Z</time>
      </trkpt>
      <trkpt lat="44.42476" lon="1.32034">
        <ele>287</ele>
        <time>2019-04-14T11:07:01Z</time>
      </trkpt>
      <trkpt lat="44.42479" lon="1.32032">
        <ele>287</ele>
        <time>2019-04-14T11:07:02Z</time>
      </trkpt>
      <trkpt lat="44.42482" lon="1.32029">
        <ele>287</ele>
        <time>2019-04-14T11:07:03Z</time>
      </trkpt>
      <trkpt lat="44.42485" lon="1.32026">
        <ele>287</ele>
        <time>2019-04-14T11:07:04Z</time>
      </trkpt>
      <trkpt lat="44.42488" lon="1.32024">
        <ele>287</ele>
        <time>2019-04-14T11:07:05Z</time>
      </trkpt>
      <trkpt lat="44.42491" lon="1.32021">
        <ele>287</ele>
        <time>2019-04-14T11:07:06Z</time>
      </trkpt>
      <trkpt lat="44.42495" lon="1.32019">
        <ele>287</ele>
        <time>2019-04-14T11:07:07Z</time>
      </trkpt>
      <trkpt lat="44.42498" lon="1.32017">
        <ele>287</ele>
        <time>2019-04-14T11:07:08Z</time>
      </trkpt>
      <trkpt lat="44.42502" lon="1.32014">
        <ele>287</ele>
        <time>2019-04-14T11:07:09Z</time>
      </trkpt>
      <trkpt lat="44.42505" lon="1.32011">
        <ele>287</ele>
        <time>2019-04-14T11:07:10Z</time>
      </trkpt>
      <trkpt lat="44.42509" lon="1.32009">
        <ele>287</ele>
        <time>2019-04-14T11:07:11Z</time>
      </trkpt>
      <trkpt lat="44.42513" lon="1.32007">
        <ele>287</ele>
        <time>2019-04-14T11:07:12Z</time>
      </trkpt>
      <trkpt lat="44.42516" lon="1.32004">
        <ele>287</ele>
        <time>2019-04-14T11:07:13Z</time>
      </trkpt>
      <trkpt lat="44.4252" lon="1.32003">
        <ele>287</ele>
        <time>2019-04-14T11:07:14Z</time>
      </trkpt>
      <trkpt lat="44.42525" lon="1.32001">
        <ele>287</ele>
        <time>2019-04-14T11:07:15Z</time>
      </trkpt>
      <trkpt lat="44.42529" lon="1.31999">
        <ele>287</ele>
        <time>2019-04-14T11:07:16Z</time>
      </trkpt>
      <trkpt lat="44.42532" lon="1.31996">
        <ele>287</ele>
        <time>2019-04-14T11:07:17Z</time>
      </trkpt>
      <trkpt lat="44.42536" lon="1.31994">
        <ele>286</ele>
        <time>2019-04-14T11:07:18Z</time>
      </trkpt>
      <trkpt lat="44.4254" lon="1.31992">
        <ele>286</ele>
        <time>2019-04-14T11:07:19Z</time>
      </trkpt>
      <trkpt lat="44.42543" lon="1.3199">
        <ele>286</ele>
        <time>2019-04-14T11:07:20Z</time>
      </trkpt>
      <trkpt lat="44.42547" lon="1.31987">
        <ele>287</ele>
        <time>2019-04-14T11:07:21Z</time>
      </trkpt>
      <trkpt lat="44.4255" lon="1.31985">
        <ele>287</ele>
        <time>2019-04-14T11:07:22Z</time>
      </trkpt>
      <trkpt lat="44.42553" lon="1.31981">
        <ele>286</ele>
        <time>2019-04-14T11:07:23Z</time>
      </trkpt>
      <trkpt lat="44.42557" lon="1.31978">
        <ele>286</ele>
        <time>2019-04-14T11:07:24Z</time>
      </trkpt>
      <trkpt lat="44.42561" lon="1.31975">
        <ele>286</ele>
        <time>2019-04-14T11:07:25Z</time>
      </trkpt>
      <trkpt lat="44.42564" lon="1.31971">
        <ele>286</ele>
        <time>2019-04-14T11:07:26Z</time>
      </trkpt>
      <trkpt lat="44.42568" lon="1.31968">
        <ele>285</ele>
        <time>2019-04-14T11:07:27Z</time>
      </trkpt>
      <trkpt lat="44.42571" lon="1.31964">
        <ele>285</ele>
        <time>2019-04-14T11:07:28Z</time>
      </trkpt>
      <trkpt lat="44.42575" lon="1.3196">
        <ele>285</ele>
        <time>2019-04-14T11:07:29Z</time>
      </trkpt>
      <trkpt lat="44.42579" lon="1.31955">
        <ele>285</ele>
        <time>2019-04-14T11:07:30Z</time>
      </trkpt>
      <trkpt lat="44.42583" lon="1.31951">
        <ele>284</ele>
        <time>2019-04-14T11:07:31Z</time>
      </trkpt>
      <trkpt lat="44.42587" lon="1.31945">
        <ele>284</ele>
        <time>2019-04-14T11:07:32Z</time>
      </trkpt>
      <trkpt lat="44.42591" lon="1.31939">
        <ele>284</ele>
        <time>2019-04-14T11:07:33Z</time>
      </trkpt>
      <trkpt lat="44.42595" lon="1.31934">
        <ele>283</ele>
        <time>2019-04-14T11:07:34Z</time>
      </trkpt>
      <trkpt lat="44.426" lon="1.31928">
        <ele>283</ele>
        <time>2019-04-14T11:07:35Z</time>
      </trkpt>
      <trkpt lat="44.42604" lon="1.31921">
        <ele>282</ele>
        <time>2019-04-14T11:07:36Z</time>
      </trkpt>
      <trkpt lat="44.42609" lon="1.31915">
        <ele>282</ele>
        <time>2019-04-14T11:07:37Z</time>
      </trkpt>
      <trkpt lat="44.42614" lon="1.31909">
        <ele>282</ele>
        <time>2019-04-14T11:07:38Z</time>
      </trkpt>
      <trkpt lat="44.42618" lon="1.31902">
        <ele>281</ele>
        <time>2019-04-14T11:07:39Z</time>
      </trkpt>
      <trkpt lat="44.42622" lon="1.31896">
        <ele>281</ele>
        <time>2019-04-14T11:07:40Z</time>
      </trkpt>
      <trkpt lat="44.42627" lon="1.3189">
        <ele>281</ele>
        <time>2019-04-14T11:07:41Z</time>
      </trkpt>
      <trkpt lat="44.42631" lon="1.31885">
        <ele>281</ele>
        <time>2019-04-14T11:07:42Z</time>
      </trkpt>
      <trkpt lat="44.42636" lon="1.31879">
        <ele>281</ele>
        <time>2019-04-14T11:07:43Z</time>
      </trkpt>
      <trkpt lat="44.4264" lon="1.31874">
        <ele>280</ele>
        <time>2019-04-14T11:07:44Z</time>
      </trkpt>
      <trkpt lat="44.42645" lon="1.3187">
        <ele>280</ele>
        <time>2019-04-14T11:07:45Z</time>
      </trkpt>
      <trkpt lat="44.4265" lon="1.31865">
        <ele>279</ele>
        <time>2019-04-14T11:07:46Z</time>
      </trkpt>
      <trkpt lat="44.42656" lon="1.3186">
        <ele>279</ele>
        <time>2019-04-14T11:07:47Z</time>
      </trkpt>
      <trkpt lat="44.42661" lon="1.31855">
        <ele>278</ele>
        <time>2019-04-14T11:07:48Z</time>
      </trkpt>
      <trkpt lat="44.42667" lon="1.3185">
        <ele>278</ele>
        <time>2019-04-14T11:07:49Z</time>
      </trkpt>
      <trkpt lat="44.42673" lon="1.31845">
        <ele>277</ele>
        <time>2019-04-14T11:07:50Z</time>
      </trkpt>
      <trkpt lat="44.4268" lon="1.31839">
        <ele>277</ele>
        <time>2019-04-14T11:07:51Z</time>
      </trkpt>
      <trkpt lat="44.42687" lon="1.31834">
        <ele>276</ele>
        <time>2019-04-14T11:07:52Z</time>
      </trkpt>
      <trkpt lat="44.42693" lon="1.31829">
        <ele>275</ele>
        <time>2019-04-14T11:07:53Z</time>
      </trkpt>
      <trkpt lat="44.427" lon="1.31822">
        <ele>275</ele>
        <time>2019-04-14T11:07:54Z</time>
      </trkpt>
      <trkpt lat="44.42706" lon="1.31815">
        <ele>274</ele>
        <time>2019-04-14T11:07:55Z</time>
      </trkpt>
      <trkpt lat="44.42713" lon="1.31807">
        <ele>273</ele>
        <time>2019-04-14T11:07:56Z</time>
      </trkpt>
      <trkpt lat="44.42719" lon="1.31799">
        <ele>272</ele>
        <time>2019-04-14T11:07:57Z</time>
      </trkpt>
      <trkpt lat="44.42726" lon="1.31793">
        <ele>272</ele>
        <time>2019-04-14T11:07:58Z</time>
      </trkpt>
      <trkpt lat="44.4273" lon="1.31788">
        <ele>271</ele>
        <time>2019-04-14T11:07:59Z</time>
      </trkpt>
      <trkpt lat="44.42734" lon="1.31784">
        <ele>270</ele>
        <time>2019-04-14T11:08:00Z</time>
      </trkpt>
      <trkpt lat="44.42737" lon="1.31782">
        <ele>270</ele>
        <time>2019-04-14T11:08:01Z</time>
      </trkpt>
      <trkpt lat="44.42739" lon="1.31782">
        <ele>269</ele>
        <time>2019-04-14T11:08:02Z</time>
      </trkpt>
      <trkpt lat="44.42741" lon="1.31783">
        <ele>269</ele>
        <time>2019-04-14T11:08:03Z</time>
      </trkpt>
      <trkpt lat="44.42742" lon="1.31785">
        <ele>269</ele>
        <time>2019-04-14T11:08:04Z</time>
      </trkpt>
      <trkpt lat="44.42741" lon="1.31788">
        <ele>269</ele>
        <time>2019-04-14T11:08:05Z</time>
      </trkpt>
      <trkpt lat="44.4274" lon="1.31791">
        <ele>269</ele>
        <time>2019-04-14T11:08:06Z</time>
      </trkpt>
      <trkpt lat="44.42739" lon="1.31794">
        <ele>269</ele>
        <time>2019-04-14T11:08:07Z</time>
      </trkpt>
      <trkpt lat="44.42737" lon="1.31798">
        <ele>269</ele>
        <time>2019-04-14T11:08:08Z</time>
      </trkpt>
      <trkpt lat="44.42736" lon="1.31802">
        <ele>269</ele>
        <time>2019-04-14T11:08:09Z</time>
      </trkpt>
      <trkpt lat="44.42735" lon="1.31807">
        <ele>269</ele>
        <time>2019-04-14T11:08:10Z</time>
      </trkpt>
      <trkpt lat="44.42733" lon="1.31811">
        <ele>269</ele>
        <time>2019-04-14T11:08:11Z</time>
      </trkpt>
      <trkpt lat="44.42732" lon="1.31816">
        <ele>269</ele>
        <time>2019-04-14T11:08:12Z</time>
      </trkpt>
      <trkpt lat="44.42731" lon="1.3182">
        <ele>269</ele>
        <time>2019-04-14T11:08:13Z</time>
      </trkpt>
      <trkpt lat="44.4273" lon="1.31825">
        <ele>269</ele>
        <time>2019-04-14T11:08:14Z</time>
      </trkpt>
      <trkpt lat="44.42729" lon="1.31829">
        <ele>269</ele>
        <time>2019-04-14T11:08:15Z</time>
      </trkpt>
      <trkpt lat="44.42727" lon="1.31834">
        <ele>270</ele>
        <time>2019-04-14T11:08:16Z</time>
      </trkpt>
      <trkpt lat="44.42727" lon="1.31838">
        <ele>270</ele>
        <time>2019-04-14T11:08:17Z</time>
      </trkpt>
      <trkpt lat="44.42726" lon="1.31843">
        <ele>270</ele>
        <time>2019-04-14T11:08:18Z</time>
      </trkpt>
      <trkpt lat="44.42725" lon="1.31847">
        <ele>270</ele>
        <time>2019-04-14T11:08:19Z</time>
      </trkpt>
      <trkpt lat="44.42724" lon="1.31852">
        <ele>270</ele>
        <time>2019-04-14T11:08:20Z</time>
      </trkpt>
      <trkpt lat="44.42724" lon="1.31857">
        <ele>270</ele>
        <time>2019-04-14T11:08:21Z</time>
      </trkpt>
      <trkpt lat="44.42723" lon="1.31861">
        <ele>270</ele>
        <time>2019-04-14T11:08:22Z</time>
      </trkpt>
      <trkpt lat="44.42723" lon="1.31866">
        <ele>270</ele>
        <time>2019-04-14T11:08:23Z</time>
      </trkpt>
      <trkpt lat="44.42723" lon="1.31871">
        <ele>270</ele>
        <time>2019-04-14T11:08:24Z</time>
      </trkpt>
      <trkpt lat="44.42723" lon="1.31875">
        <ele>271</ele>
        <time>2019-04-14T11:08:25Z</time>
      </trkpt>
      <trkpt lat="44.42724" lon="1.3188">
        <ele>271</ele>
        <time>2019-04-14T11:08:26Z</time>
      </trkpt>
      <trkpt lat="44.42724" lon="1.31884">
        <ele>271</ele>
        <time>2019-04-14T11:08:27Z</time>
      </trkpt>
      <trkpt lat="44.42724" lon="1.31889">
        <ele>271</ele>
        <time>2019-04-14T11:08:28Z</time>
      </trkpt>
      <trkpt lat="44.42724" lon="1.31894">
        <ele>271</ele>
        <time>2019-04-14T11:08:29Z</time>
      </trkpt>
      <trkpt lat="44.42724" lon="1.31898">
        <ele>271</ele>
        <time>2019-04-14T11:08:30Z</time>
      </trkpt>
      <trkpt lat="44.42724" lon="1.31903">
        <ele>271</ele>
        <time>2019-04-14T11:08:31Z</time>
      </trkpt>
      <trkpt lat="44.42724" lon="1.31908">
        <ele>272</ele>
        <time>2019-04-14T11:08:32Z</time>
      </trkpt>
      <trkpt lat="44.42725" lon="1.31912">
        <ele>272</ele>
        <time>2019-04-14T11:08:33Z</time>
      </trkpt>
      <trkpt lat="44.42725" lon="1.31917">
        <ele>272</ele>
        <time>2019-04-14T11:08:34Z</time>
      </trkpt>
      <trkpt lat="44.42725" lon="1.31921">
        <ele>272</ele>
        <time>2019-04-14T11:08:35Z</time>
      </trkpt>
      <trkpt lat="44.42725" lon="1.31925">
        <ele>272</ele>
        <time>2019-04-14T11:08:36Z</time>
      </trkpt>
      <trkpt lat="44.42726" lon="1.3193">
        <ele>273</ele>
        <time>2019-04-14T11:08:37Z</time>
      </trkpt>
      <trkpt lat="44.42726" lon="1.31934">
        <ele>273</ele>
        <time>2019-04-14T11:08:38Z</time>
      </trkpt>
      <trkpt lat="44.42726" lon="1.31938">
        <ele>273</ele>
        <time>2019-04-14T11:08:39Z</time>
      </trkpt>
      <trkpt lat="44.42726" lon="1.31942">
        <ele>273</ele>
        <time>2019-04-14T11:08:40Z</time>
      </trkpt>
      <trkpt lat="44.42727" lon="1.31947">
        <ele>274</ele>
        <time>2019-04-14T11:08:41Z</time>
      </trkpt>
      <trkpt lat="44.42727" lon="1.31951">
        <ele>274</ele>
        <time>2019-04-14T11:08:42Z</time>
      </trkpt>
      <trkpt lat="44.42727" lon="1.31956">
        <ele>274</ele>
        <time>2019-04-14T11:08:43Z</time>
      </trkpt>
      <trkpt lat="44.42727" lon="1.3196">
        <ele>274</ele>
        <time>2019-04-14T11:08:44Z</time>
      </trkpt>
      <trkpt lat="44.42727" lon="1.31965">
        <ele>275</ele>
        <time>2019-04-14T11:08:45Z</time>
      </trkpt>
      <trkpt lat="44.42727" lon="1.31969">
        <ele>275</ele>
        <time>2019-04-14T11:08:46Z</time>
      </trkpt>
      <trkpt lat="44.42727" lon="1.31974">
        <ele>275</ele>
        <time>2019-04-14T11:08:47Z</time>
      </trkpt>
      <trkpt lat="44.42728" lon="1.31978">
        <ele>275</ele>
        <time>2019-04-14T11:08:48Z</time>
      </trkpt>
      <trkpt lat="44.42728" lon="1.31983">
        <ele>275</ele>
        <time>2019-04-14T11:08:49Z</time>
      </trkpt>
      <trkpt lat="44.42728" lon="1.31987">
        <ele>276</ele>
        <time>2019-04-14T11:08:50Z</time>
      </trkpt>
      <trkpt lat="44.42728" lon="1.31992">
        <ele>276</ele>
        <time>2019-04-14T11:08:51Z</time>
      </trkpt>
      <trkpt lat="44.42727" lon="1.31996">
        <ele>276</ele>
        <time>2019-04-14T11:08:52Z</time>
      </trkpt>
      <trkpt lat="44.42727" lon="1.32">
        <ele>276</ele>
        <time>2019-04-14T11:08:53Z</time>
      </trkpt>
      <trkpt lat="44.42727" lon="1.32005">
        <ele>276</ele>
        <time>2019-04-14T11:08:54Z</time>
      </trkpt>
      <trkpt lat="44.42726" lon="1.32009">
        <ele>277</ele>
        <time>2019-04-14T11:08:55Z</time>
      </trkpt>
      <trkpt lat="44.42725" lon="1.32014">
        <ele>277</ele>
        <time>2019-04-14T11:08:56Z</time>
      </trkpt>
      <trkpt lat="44.42725" lon="1.32018">
        <ele>277</ele>
        <time>2019-04-14T11:08:57Z</time>
      </trkpt>
      <trkpt lat="44.42725" lon="1.32022">
        <ele>277</ele>
        <time>2019-04-14T11:08:58Z</time>
      </trkpt>
      <trkpt lat="44.42725" lon="1.32026">
        <ele>278</ele>
        <time>2019-04-14T11:08:59Z</time>
      </trkpt>
      <trkpt lat="44.42725" lon="1.32029">
        <ele>278</ele>
        <time>2019-04-14T11:09:00Z</time>
      </trkpt>
      <trkpt lat="44.42726" lon="1.32033">
        <ele>278</ele>
        <time>2019-04-14T11:09:01Z</time>
      </trkpt>
      <trkpt lat="44.42728" lon="1.32036">
        <ele>278</ele>
        <time>2019-04-14T11:09:02Z</time>
      </trkpt>
      <trkpt lat="44.42731" lon="1.32038">
        <ele>277</ele>
        <time>2019-04-14T11:09:03Z</time>
      </trkpt>
      <trkpt lat="44.42733" lon="1.32041">
        <ele>277</ele>
        <time>2019-04-14T11:09:04Z</time>
      </trkpt>
      <trkpt lat="44.42735" lon="1.32043">
        <ele>277</ele>
        <time>2019-04-14T11:09:05Z</time>
      </trkpt>
      <trkpt lat="44.42737" lon="1.32046">
        <ele>277</ele>
        <time>2019-04-14T11:09:06Z</time>
      </trkpt>
      <trkpt lat="44.4274" lon="1.32048">
        <ele>276</ele>
        <time>2019-04-14T11:09:07Z</time>
      </trkpt>
      <trkpt lat="44.42744" lon="1.3205">
        <ele>276</ele>
        <time>2019-04-14T11:09:08Z</time>
      </trkpt>
      <trkpt lat="44.42746" lon="1.32052">
        <ele>276</ele>
        <time>2019-04-14T11:09:09Z</time>
      </trkpt>
      <trkpt lat="44.42748" lon="1.32054">
        <ele>275</ele>
        <time>2019-04-14T11:09:10Z</time>
      </trkpt>
      <trkpt lat="44.42748" lon="1.32058">
        <ele>275</ele>
        <time>2019-04-14T11:09:11Z</time>
      </trkpt>
      <trkpt lat="44.42748" lon="1.32062">
        <ele>275</ele>
        <time>2019-04-14T11:09:12Z</time>
      </trkpt>
      <trkpt lat="44.42747" lon="1.32068">
        <ele>275</ele>
        <time>2019-04-14T11:09:13Z</time>
      </trkpt>
      <trkpt lat="44.42748" lon="1.32075">
        <ele>274</ele>
        <time>2019-04-14T11:09:14Z</time>
      </trkpt>
      <trkpt lat="44.42748" lon="1.32081">
        <ele>274</ele>
        <time>2019-04-14T11:09:15Z</time>
      </trkpt>
      <trkpt lat="44.42746" lon="1.32086">
        <ele>273</ele>
        <time>2019-04-14T11:09:16Z</time>
      </trkpt>
      <trkpt lat="44.42743" lon="1.3209">
        <ele>273</ele>
        <time>2019-04-14T11:09:17Z</time>
      </trkpt>
      <trkpt lat="44.42739" lon="1.32093">
        <ele>273</ele>
        <time>2019-04-14T11:09:18Z</time>
      </trkpt>
      <trkpt lat="44.42735" lon="1.32097">
        <ele>273</ele>
        <time>2019-04-14T11:09:19Z</time>
      </trkpt>
      <trkpt lat="44.42732" lon="1.32102">
        <ele>272</ele>
        <time>2019-04-14T11:09:20Z</time>
      </trkpt>
      <trkpt lat="44.42729" lon="1.32108">
        <ele>272</ele>
        <time>2019-04-14T11:09:21Z</time>
      </trkpt>
      <trkpt lat="44.42727" lon="1.32114">
        <ele>271</ele>
        <time>2019-04-14T11:09:22Z</time>
      </trkpt>
      <trkpt lat="44.42723" lon="1.32121">
        <ele>271</ele>
        <time>2019-04-14T11:09:23Z</time>
      </trkpt>
      <trkpt lat="44.42721" lon="1.32126">
        <ele>270</ele>
        <time>2019-04-14T11:09:24Z</time>
      </trkpt>
      <trkpt lat="44.42717" lon="1.3213">
        <ele>270</ele>
        <time>2019-04-14T11:09:25Z</time>
      </trkpt>
      <trkpt lat="44.42714" lon="1.32135">
        <ele>269</ele>
        <time>2019-04-14T11:09:26Z</time>
      </trkpt>
      <trkpt lat="44.42712" lon="1.32142">
        <ele>269</ele>
        <time>2019-04-14T11:09:27Z</time>
      </trkpt>
      <trkpt lat="44.4271" lon="1.32149">
        <ele>268</ele>
        <time>2019-04-14T11:09:28Z</time>
      </trkpt>
      <trkpt lat="44.42708" lon="1.32155">
        <ele>268</ele>
        <time>2019-04-14T11:09:29Z</time>
      </trkpt>
      <trkpt lat="44.42708" lon="1.32162">
        <ele>268</ele>
        <time>2019-04-14T11:09:30Z</time>
      </trkpt>
      <trkpt lat="44.42708" lon="1.32169">
        <ele>267</ele>
        <time>2019-04-14T11:09:31Z</time>
      </trkpt>
      <trkpt lat="44.42708" lon="1.32176">
        <ele>267</ele>
        <time>2019-04-14T11:09:32Z</time>
      </trkpt>
      <trkpt lat="44.42707" lon="1.32184">
        <ele>267</ele>
        <time>2019-04-14T11:09:33Z</time>
      </trkpt>
      <trkpt lat="44.42707" lon="1.32191">
        <ele>267</ele>
        <time>2019-04-14T11:09:34Z</time>
      </trkpt>
      <trkpt lat="44.42706" lon="1.32198">
        <ele>266</ele>
        <time>2019-04-14T11:09:35Z</time>
      </trkpt>
      <trkpt lat="44.42705" lon="1.32206">
        <ele>266</ele>
        <time>2019-04-14T11:09:36Z</time>
      </trkpt>
      <trkpt lat="44.42703" lon="1.32213">
        <ele>265</ele>
        <time>2019-04-14T11:09:37Z</time>
      </trkpt>
      <trkpt lat="44.42702" lon="1.32219">
        <ele>265</ele>
        <time>2019-04-14T11:09:38Z</time>
      </trkpt>
      <trkpt lat="44.42701" lon="1.32225">
        <ele>265</ele>
        <time>2019-04-14T11:09:39Z</time>
      </trkpt>
      <trkpt lat="44.42701" lon="1.32229">
        <ele>265</ele>
        <time>2019-04-14T11:09:40Z</time>
      </trkpt>
      <trkpt lat="44.42702" lon="1.32232">
        <ele>265</ele>
        <time>2019-04-14T11:09:41Z</time>
      </trkpt>
      <trkpt lat="44.42702" lon="1.32232">
        <ele>265</ele>
        <time>2019-04-14T11:09:42Z</time>
      </trkpt>
      <trkpt lat="44.42703" lon="1.32232">
        <ele>265</ele>
        <time>2019-04-14T11:09:43Z</time>
      </trkpt>
      <trkpt lat="44.42703" lon="1.32232">
        <ele>264</ele>
        <time>2019-04-14T11:09:44Z</time>
      </trkpt>
      <trkpt lat="44.42703" lon="1.32232">
        <ele>264</ele>
        <time>2019-04-14T11:09:45Z</time>
      </trkpt>
      <trkpt lat="44.42703" lon="1.32232">
        <ele>264</ele>
        <time>2019-04-14T11:09:46Z</time>
      </trkpt>
      <trkpt lat="44.42703" lon="1.32232">
        <ele>264</ele>
        <time>2019-04-14T11:09:47Z</time>
      </trkpt>
      <trkpt lat="44.42704" lon="1.32232">
        <ele>264</ele>
        <time>2019-04-14T11:09:48Z</time>
      </trkpt>
      <trkpt lat="44.42705" lon="1.32233">
        <ele>264</ele>
        <time>2019-04-14T11:09:49Z</time>
      </trkpt>
      <trkpt lat="44.42721" lon="1.32252">
        <ele>264</ele>
        <time>2019-04-14T11:10:26Z</time>
      </trkpt>
      <trkpt lat="44.42722" lon="1.32253">
        <ele>264</ele>
        <time>2019-04-14T11:10:27Z</time>
      </trkpt>
      <trkpt lat="44.42724" lon="1.32255">
        <ele>264</ele>
        <time>2019-04-14T11:10:28Z</time>
      </trkpt>
      <trkpt lat="44.42725" lon="1.32257">
        <ele>264</ele>
        <time>2019-04-14T11:10:29Z</time>
      </trkpt>
      <trkpt lat="44.42726" lon="1.3226">
        <ele>264</ele>
        <time>2019-04-14T11:10:30Z</time>
      </trkpt>
      <trkpt lat="44.42726" lon="1.32262">
        <ele>265</ele>
        <time>2019-04-14T11:10:31Z</time>
      </trkpt>
      <trkpt lat="44.42727" lon="1.32265">
        <ele>265</ele>
        <time>2019-04-14T11:10:32Z</time>
      </trkpt>
      <trkpt lat="44.42727" lon="1.32267">
        <ele>265</ele>
        <time>2019-04-14T11:10:33Z</time>
      </trkpt>
      <trkpt lat="44.42728" lon="1.32269">
        <ele>265</ele>
        <time>2019-04-14T11:10:34Z</time>
      </trkpt>
      <trkpt lat="44.42728" lon="1.32271">
        <ele>266</ele>
        <time>2019-04-14T11:10:35Z</time>
      </trkpt>
      <trkpt lat="44.42729" lon="1.32274">
        <ele>266</ele>
        <time>2019-04-14T11:10:36Z</time>
      </trkpt>
      <trkpt lat="44.4273" lon="1.32276">
        <ele>266</ele>
        <time>2019-04-14T11:10:37Z</time>
      </trkpt>
      <trkpt lat="44.42729" lon="1.32278">
        <ele>266</ele>
        <time>2019-04-14T11:10:38Z</time>
      </trkpt>
      <trkpt lat="44.42729" lon="1.3228">
        <ele>267</ele>
        <time>2019-04-14T11:10:39Z</time>
      </trkpt>
      <trkpt lat="44.42729" lon="1.32283">
        <ele>267</ele>
        <time>2019-04-14T11:10:40Z</time>
      </trkpt>
      <trkpt lat="44.42729" lon="1.32285">
        <ele>267</ele>
        <time>2019-04-14T11:10:41Z</time>
      </trkpt>
      <trkpt lat="44.42728" lon="1.32287">
        <ele>267</ele>
        <time>2019-04-14T11:10:42Z</time>
      </trkpt>
      <trkpt lat="44.42728" lon="1.32289">
        <ele>268</ele>
        <time>2019-04-14T11:10:43Z</time>
      </trkpt>
      <trkpt lat="44.42728" lon="1.32291">
        <ele>268</ele>
        <time>2019-04-14T11:10:44Z</time>
      </trkpt>
      <trkpt lat="44.42727" lon="1.32293">
        <ele>268</ele>
        <time>2019-04-14T11:10:45Z</time>
      </trkpt>
      <trkpt lat="44.42728" lon="1.32295">
        <ele>268</ele>
        <time>2019-04-14T11:10:46Z</time>
      </trkpt>
      <trkpt lat="44.42728" lon="1.32298">
        <ele>268</ele>
        <time>2019-04-14T11:10:47Z</time>
      </trkpt>
      <trkpt lat="44.42728" lon="1.323">
        <ele>268</ele>
        <time>2019-04-14T11:10:48Z</time>
      </trkpt>
      <trkpt lat="44.42727" lon="1.32302">
        <ele>268</ele>
        <time>2019-04-14T11:10:49Z</time>
      </trkpt>
      <trkpt lat="44.42726" lon="1.32303">
        <ele>269</ele>
        <time>2019-04-14T11:10:50Z</time>
      </trkpt>
      <trkpt lat="44.42726" lon="1.32304">
        <ele>269</ele>
        <time>2019-04-14T11:10:51Z</time>
      </trkpt>
      <trkpt lat="44.42725" lon="1.32306">
        <ele>269</ele>
        <time>2019-04-14T11:10:52Z</time>
      </trkpt>
      <trkpt lat="44.42725" lon="1.32308">
        <ele>269</ele>
        <time>2019-04-14T11:10:53Z</time>
      </trkpt>
      <trkpt lat="44.42725" lon="1.3231">
        <ele>270</ele>
        <time>2019-04-14T11:10:54Z</time>
      </trkpt>
      <trkpt lat="44.42724" lon="1.32312">
        <ele>270</ele>
        <time>2019-04-14T11:10:55Z</time>
      </trkpt>
      <trkpt lat="44.42724" lon="1.32316">
        <ele>270</ele>
        <time>2019-04-14T11:10:56Z</time>
      </trkpt>
      <trkpt lat="44.42724" lon="1.32318">
        <ele>270</ele>
        <time>2019-04-14T11:10:57Z</time>
      </trkpt>
      <trkpt lat="44.42723" lon="1.32321">
        <ele>270</ele>
        <time>2019-04-14T11:10:58Z</time>
      </trkpt>
      <trkpt lat="44.42723" lon="1.32323">
        <ele>270</ele>
        <time>2019-04-14T11:10:59Z</time>
      </trkpt>
      <trkpt lat="44.42722" lon="1.32325">
        <ele>270</ele>
        <time>2019-04-14T11:11:00Z</time>
      </trkpt>
      <trkpt lat="44.42721" lon="1.32326">
        <ele>270</ele>
        <time>2019-04-14T11:11:01Z</time>
      </trkpt>
      <trkpt lat="44.42721" lon="1.32327">
        <ele>271</ele>
        <time>2019-04-14T11:11:02Z</time>
      </trkpt>
      <trkpt lat="44.42719" lon="1.32328">
        <ele>271</ele>
        <time>2019-04-14T11:11:03Z</time>
      </trkpt>
      <trkpt lat="44.42718" lon="1.32329">
        <ele>271</ele>
        <time>2019-04-14T11:11:04Z</time>
      </trkpt>
      <trkpt lat="44.42718" lon="1.3233">
        <ele>272</ele>
        <time>2019-04-14T11:11:05Z</time>
      </trkpt>
      <trkpt lat="44.42717" lon="1.32332">
        <ele>272</ele>
        <time>2019-04-14T11:11:06Z</time>
      </trkpt>
      <trkpt lat="44.42716" lon="1.32333">
        <ele>272</ele>
        <time>2019-04-14T11:11:07Z</time>
      </trkpt>
      <trkpt lat="44.42716" lon="1.32335">
        <ele>272</ele>
        <time>2019-04-14T11:11:08Z</time>
      </trkpt>
      <trkpt lat="44.42715" lon="1.32337">
        <ele>272</ele>
        <time>2019-04-14T11:11:09Z</time>
      </trkpt>
      <trkpt lat="44.42715" lon="1.32339">
        <ele>273</ele>
        <time>2019-04-14T11:11:10Z</time>
      </trkpt>
      <trkpt lat="44.42714" lon="1.32341">
        <ele>273</ele>
        <time>2019-04-14T11:11:11Z</time>
      </trkpt>
      <trkpt lat="44.42714" lon="1.32343">
        <ele>273</ele>
        <time>2019-04-14T11:11:12Z</time>
      </trkpt>
      <trkpt lat="44.42713" lon="1.32345">
        <ele>273</ele>
        <time>2019-04-14T11:11:13Z</time>
      </trkpt>
      <trkpt lat="44.42712" lon="1.32347">
        <ele>273</ele>
        <time>2019-04-14T11:11:14Z</time>
      </trkpt>
      <trkpt lat="44.42712" lon="1.32348">
        <ele>273</ele>
        <time>2019-04-14T11:11:15Z</time>
      </trkpt>
      <trkpt lat="44.42711" lon="1.3235">
        <ele>273</ele>
        <time>2019-04-14T11:11:16Z</time>
      </trkpt>
      <trkpt lat="44.42711" lon="1.32352">
        <ele>274</ele>
        <time>2019-04-14T11:11:17Z</time>
      </trkpt>
      <trkpt lat="44.4271" lon="1.32354">
        <ele>274</ele>
        <time>2019-04-14T11:11:18Z</time>
      </trkpt>
      <trkpt lat="44.42711" lon="1.32356">
        <ele>274</ele>
        <time>2019-04-14T11:11:19Z</time>
      </trkpt>
      <trkpt lat="44.42711" lon="1.32359">
        <ele>274</ele>
        <time>2019-04-14T11:11:20Z</time>
      </trkpt>
      <trkpt lat="44.42711" lon="1.32361">
        <ele>274</ele>
        <time>2019-04-14T11:11:21Z</time>
      </trkpt>
      <trkpt lat="44.42712" lon="1.32364">
        <ele>274</ele>
        <time>2019-04-14T11:11:22Z</time>
      </trkpt>
      <trkpt lat="44.42712" lon="1.32366">
        <ele>274</ele>
        <time>2019-04-14T11:11:23Z</time>
      </trkpt>
      <trkpt lat="44.42713" lon="1.32368">
        <ele>273</ele>
        <time>2019-04-14T11:11:24Z</time>
      </trkpt>
      <trkpt lat="44.42715" lon="1.32371">
        <ele>273</ele>
        <time>2019-04-14T11:11:25Z</time>
      </trkpt>
      <trkpt lat="44.42717" lon="1.32374">
        <ele>273</ele>
        <time>2019-04-14T11:11:26Z</time>
      </trkpt>
      <trkpt lat="44.42719" lon="1.32377">
        <ele>272</ele>
        <time>2019-04-14T11:11:27Z</time>
      </trkpt>
      <trkpt lat="44.42721" lon="1.32379">
        <ele>272</ele>
        <time>2019-04-14T11:11:28Z</time>
      </trkpt>
      <trkpt lat="44.42723" lon="1.32381">
        <ele>271</ele>
        <time>2019-04-14T11:11:29Z</time>
      </trkpt>
      <trkpt lat="44.42724" lon="1.32382">
        <ele>271</ele>
        <time>2019-04-14T11:11:30Z</time>
      </trkpt>
      <trkpt lat="44.42726" lon="1.32384">
        <ele>271</ele>
        <time>2019-04-14T11:11:31Z</time>
      </trkpt>
      <trkpt lat="44.42728" lon="1.32385">
        <ele>270</ele>
        <time>2019-04-14T11:11:32Z</time>
      </trkpt>
      <trkpt lat="44.4273" lon="1.32387">
        <ele>270</ele>
        <time>2019-04-14T11:11:33Z</time>
      </trkpt>
      <trkpt lat="44.42732" lon="1.32387">
        <ele>269</ele>
        <time>2019-04-14T11:11:34Z</time>
      </trkpt>
      <trkpt lat="44.42733" lon="1.32387">
        <ele>269</ele>
        <time>2019-04-14T11:11:35Z</time>
      </trkpt>
      <trkpt lat="44.42734" lon="1.32388">
        <ele>269</ele>
        <time>2019-04-14T11:11:36Z</time>
      </trkpt>
      <trkpt lat="44.42735" lon="1.32388">
        <ele>269</ele>
        <time>2019-04-14T11:11:37Z</time>
      </trkpt>
      <trkpt lat="44.42737" lon="1.32389">
        <ele>268</ele>
        <time>2019-04-14T11:11:38Z</time>
      </trkpt>
      <trkpt lat="44.42738" lon="1.3239">
        <ele>268</ele>
        <time>2019-04-14T11:11:39Z</time>
      </trkpt>
      <trkpt lat="44.4274" lon="1.32391">
        <ele>268</ele>
        <time>2019-04-14T11:11:40Z</time>
      </trkpt>
      <trkpt lat="44.42741" lon="1.32392">
        <ele>268</ele>
        <time>2019-04-14T11:11:41Z</time>
      </trkpt>
      <trkpt lat="44.42742" lon="1.32393">
        <ele>268</ele>
        <time>2019-04-14T11:11:42Z</time>
      </trkpt>
      <trkpt lat="44.42743" lon="1.32395">
        <ele>268</ele>
        <time>2019-04-14T11:11:43Z</time>
      </trkpt>
      <trkpt lat="44.42744" lon="1.32396">
        <ele>269</ele>
        <time>2019-04-14T11:11:44Z</time>
      </trkpt>
      <trkpt lat="44.42745" lon="1.32397">
        <ele>269</ele>
        <time>2019-04-14T11:11:45Z</time>
      </trkpt>
      <trkpt lat="44.42745" lon="1.32397">
        <ele>269</ele>
        <time>2019-04-14T11:11:46Z</time>
      </trkpt>
      <trkpt lat="44.42745" lon="1.32398">
        <ele>269</ele>
        <time>2019-04-14T11:11:47Z</time>
      </trkpt>
      <trkpt lat="44.42746" lon="1.32399">
        <ele>270</ele>
        <time>2019-04-14T11:11:48Z</time>
      </trkpt>
      <trkpt lat="44.42748" lon="1.324">
        <ele>270</ele>
        <time>2019-04-14T11:11:49Z</time>
      </trkpt>
      <trkpt lat="44.42749" lon="1.32401">
        <ele>270</ele>
        <time>2019-04-14T11:11:50Z</time>
      </trkpt>
      <trkpt lat="44.4275" lon="1.32401">
        <ele>270</ele>
        <time>2019-04-14T11:11:51Z</time>
      </trkpt>
      <trkpt lat="44.42752" lon="1.32402">
        <ele>270</ele>
        <time>2019-04-14T11:11:52Z</time>
      </trkpt>
      <trkpt lat="44.42754" lon="1.32401">
        <ele>270</ele>
        <time>2019-04-14T11:11:53Z</time>
      </trkpt>
      <trkpt lat="44.42757" lon="1.32401">
        <ele>270</ele>
        <time>2019-04-14T11:11:54Z</time>
      </trkpt>
      <trkpt lat="44.42759" lon="1.32401">
        <ele>269</ele>
        <time>2019-04-14T11:11:55Z</time>
      </trkpt>
      <trkpt lat="44.42761" lon="1.32399">
        <ele>269</ele>
        <time>2019-04-14T11:11:56Z</time>
      </trkpt>
      <trkpt lat="44.42764" lon="1.32398">
        <ele>269</ele>
        <time>2019-04-14T11:11:57Z</time>
      </trkpt>
      <trkpt lat="44.42766" lon="1.32396">
        <ele>268</ele>
        <time>2019-04-14T11:11:58Z</time>
      </trkpt>
      <trkpt lat="44.42768" lon="1.32394">
        <ele>268</ele>
        <time>2019-04-14T11:11:59Z</time>
      </trkpt>
      <trkpt lat="44.4277" lon="1.32391">
        <ele>267</ele>
        <time>2019-04-14T11:12:00Z</time>
      </trkpt>
      <trkpt lat="44.42772" lon="1.32388">
        <ele>267</ele>
        <time>2019-04-14T11:12:01Z</time>
      </trkpt>
      <trkpt lat="44.42774" lon="1.32386">
        <ele>266</ele>
        <time>2019-04-14T11:12:02Z</time>
      </trkpt>
      <trkpt lat="44.42775" lon="1.32384">
        <ele>266</ele>
        <time>2019-04-14T11:12:03Z</time>
      </trkpt>
      <trkpt lat="44.42778" lon="1.32383">
        <ele>265</ele>
        <time>2019-04-14T11:12:04Z</time>
      </trkpt>
      <trkpt lat="44.42779" lon="1.32383">
        <ele>265</ele>
        <time>2019-04-14T11:12:05Z</time>
      </trkpt>
      <trkpt lat="44.4278" lon="1.32383">
        <ele>265</ele>
        <time>2019-04-14T11:12:06Z</time>
      </trkpt>
      <trkpt lat="44.42781" lon="1.32383">
        <ele>266</ele>
        <time>2019-04-14T11:12:07Z</time>
      </trkpt>
      <trkpt lat="44.42783" lon="1.32382">
        <ele>266</ele>
        <time>2019-04-14T11:12:08Z</time>
      </trkpt>
      <trkpt lat="44.42784" lon="1.32381">
        <ele>266</ele>
        <time>2019-04-14T11:12:09Z</time>
      </trkpt>
      <trkpt lat="44.42785" lon="1.32381">
        <ele>266</ele>
        <time>2019-04-14T11:12:10Z</time>
      </trkpt>
      <trkpt lat="44.42785" lon="1.32379">
        <ele>266</ele>
        <time>2019-04-14T11:12:11Z</time>
      </trkpt>
      <trkpt lat="44.42786" lon="1.32379">
        <ele>266</ele>
        <time>2019-04-14T11:12:12Z</time>
      </trkpt>
      <trkpt lat="44.42787" lon="1.32379">
        <ele>266</ele>
        <time>2019-04-14T11:12:13Z</time>
      </trkpt>
      <trkpt lat="44.42789" lon="1.32379">
        <ele>266</ele>
        <time>2019-04-14T11:12:14Z</time>
      </trkpt>
      <trkpt lat="44.42791" lon="1.32379">
        <ele>267</ele>
        <time>2019-04-14T11:12:15Z</time>
      </trkpt>
      <trkpt lat="44.42792" lon="1.32379">
        <ele>267</ele>
        <time>2019-04-14T11:12:16Z</time>
      </trkpt>
      <trkpt lat="44.42794" lon="1.32379">
        <ele>267</ele>
        <time>2019-04-14T11:12:17Z</time>
      </trkpt>
      <trkpt lat="44.42796" lon="1.32379">
        <ele>267</ele>
        <time>2019-04-14T11:12:18Z</time>
      </trkpt>
      <trkpt lat="44.42797" lon="1.32379">
        <ele>267</ele>
        <time>2019-04-14T11:12:19Z</time>
      </trkpt>
      <trkpt lat="44.42799" lon="1.32378">
        <ele>268</ele>
        <time>2019-04-14T11:12:20Z</time>
      </trkpt>
      <trkpt lat="44.428" lon="1.32377">
        <ele>268</ele>
        <time>2019-04-14T11:12:21Z</time>
      </trkpt>
      <trkpt lat="44.42802" lon="1.32376">
        <ele>267</ele>
        <time>2019-04-14T11:12:22Z</time>
      </trkpt>
      <trkpt lat="44.42804" lon="1.32374">
        <ele>267</ele>
        <time>2019-04-14T11:12:23Z</time>
      </trkpt>
      <trkpt lat="44.42806" lon="1.32373">
        <ele>267</ele>
        <time>2019-04-14T11:12:24Z</time>
      </trkpt>
      <trkpt lat="44.42809" lon="1.32372">
        <ele>267</ele>
        <time>2019-04-14T11:12:25Z</time>
      </trkpt>
      <trkpt lat="44.42811" lon="1.32372">
        <ele>267</ele>
        <time>2019-04-14T11:12:26Z</time>
      </trkpt>
      <trkpt lat="44.42813" lon="1.32371">
        <ele>267</ele>
        <time>2019-04-14T11:12:27Z</time>
      </trkpt>
      <trkpt lat="44.42815" lon="1.3237">
        <ele>267</ele>
        <time>2019-04-14T11:12:28Z</time>
      </trkpt>
      <trkpt lat="44.42817" lon="1.32369">
        <ele>267</ele>
        <time>2019-04-14T11:12:29Z</time>
      </trkpt>
      <trkpt lat="44.42819" lon="1.32368">
        <ele>267</ele>
        <time>2019-04-14T11:12:30Z</time>
      </trkpt>
      <trkpt lat="44.42821" lon="1.32368">
        <ele>267</ele>
        <time>2019-04-14T11:12:31Z</time>
      </trkpt>
      <trkpt lat="44.42823" lon="1.32368">
        <ele>267</ele>
        <time>2019-04-14T11:12:32Z</time>
      </trkpt>
      <trkpt lat="44.42825" lon="1.32368">
        <ele>267</ele>
        <time>2019-04-14T11:12:33Z</time>
      </trkpt>
      <trkpt lat="44.42827" lon="1.32368">
        <ele>268</ele>
        <time>2019-04-14T11:12:34Z</time>
      </trkpt>
      <trkpt lat="44.42828" lon="1.32368">
        <ele>268</ele>
        <time>2019-04-14T11:12:35Z</time>
      </trkpt>
      <trkpt lat="44.4283" lon="1.32368">
        <ele>268</ele>
        <time>2019-04-14T11:12:36Z</time>
      </trkpt>
      <trkpt lat="44.42832" lon="1.32368">
        <ele>268</ele>
        <time>2019-04-14T11:12:37Z</time>
      </trkpt>
      <trkpt lat="44.42833" lon="1.32368">
        <ele>268</ele>
        <time>2019-04-14T11:12:38Z</time>
      </trkpt>
      <trkpt lat="44.42834" lon="1.32366">
        <ele>268</ele>
        <time>2019-04-14T11:12:39Z</time>
      </trkpt>
      <trkpt lat="44.42835" lon="1.32365">
        <ele>268</ele>
        <time>2019-04-14T11:12:40Z</time>
      </trkpt>
      <trkpt lat="44.42835" lon="1.32364">
        <ele>268</ele>
        <time>2019-04-14T11:12:41Z</time>
      </trkpt>
      <trkpt lat="44.42838" lon="1.32362">
        <ele>268</ele>
        <time>2019-04-14T11:12:42Z</time>
      </trkpt>
      <trkpt lat="44.42841" lon="1.32361">
        <ele>267</ele>
        <time>2019-04-14T11:12:43Z</time>
      </trkpt>
      <trkpt lat="44.42844" lon="1.3236">
        <ele>267</ele>
        <time>2019-04-14T11:12:44Z</time>
      </trkpt>
      <trkpt lat="44.42848" lon="1.32359">
        <ele>267</ele>
        <time>2019-04-14T11:12:45Z</time>
      </trkpt>
      <trkpt lat="44.42851" lon="1.32358">
        <ele>267</ele>
        <time>2019-04-14T11:12:46Z</time>
      </trkpt>
      <trkpt lat="44.42854" lon="1.32355">
        <ele>267</ele>
        <time>2019-04-14T11:12:47Z</time>
      </trkpt>
      <trkpt lat="44.42855" lon="1.32352">
        <ele>267</ele>
        <time>2019-04-14T11:12:48Z</time>
      </trkpt>
      <trkpt lat="44.42859" lon="1.32351">
        <ele>266</ele>
        <time>2019-04-14T11:12:49Z</time>
      </trkpt>
      <trkpt lat="44.42863" lon="1.32348">
        <ele>266</ele>
        <time>2019-04-14T11:12:50Z</time>
      </trkpt>
      <trkpt lat="44.42867" lon="1.32344">
        <ele>265</ele>
        <time>2019-04-14T11:12:51Z</time>
      </trkpt>
      <trkpt lat="44.42872" lon="1.32341">
        <ele>265</ele>
        <time>2019-04-14T11:12:52Z</time>
      </trkpt>
      <trkpt lat="44.42876" lon="1.32339">
        <ele>264</ele>
        <time>2019-04-14T11:12:53Z</time>
      </trkpt>
      <trkpt lat="44.42881" lon="1.32338">
        <ele>264</ele>
        <time>2019-04-14T11:12:54Z</time>
      </trkpt>
      <trkpt lat="44.42884" lon="1.32339">
        <ele>264</ele>
        <time>2019-04-14T11:12:55Z</time>
      </trkpt>
      <trkpt lat="44.42886" lon="1.3234">
        <ele>264</ele>
        <time>2019-04-14T11:12:56Z</time>
      </trkpt>
      <trkpt lat="44.42887" lon="1.32341">
        <ele>265</ele>
        <time>2019-04-14T11:12:57Z</time>
      </trkpt>
      <trkpt lat="44.42888" lon="1.32341">
        <ele>265</ele>
        <time>2019-04-14T11:12:58Z</time>
      </trkpt>
      <trkpt lat="44.4289" lon="1.32342">
        <ele>265</ele>
        <time>2019-04-14T11:12:59Z</time>
      </trkpt>
      <trkpt lat="44.42891" lon="1.32343">
        <ele>266</ele>
        <time>2019-04-14T11:13:00Z</time>
      </trkpt>
      <trkpt lat="44.42892" lon="1.32342">
        <ele>266</ele>
        <time>2019-04-14T11:13:01Z</time>
      </trkpt>
      <trkpt lat="44.42893" lon="1.32342">
        <ele>266</ele>
        <time>2019-04-14T11:13:02Z</time>
      </trkpt>
      <trkpt lat="44.42895" lon="1.32343">
        <ele>266</ele>
        <time>2019-04-14T11:13:03Z</time>
      </trkpt>
      <trkpt lat="44.42897" lon="1.32344">
        <ele>267</ele>
        <time>2019-04-14T11:13:04Z</time>
      </trkpt>
      <trkpt lat="44.42898" lon="1.32345">
        <ele>267</ele>
        <time>2019-04-14T11:13:05Z</time>
      </trkpt>
      <trkpt lat="44.42899" lon="1.32346">
        <ele>267</ele>
        <time>2019-04-14T11:13:06Z</time>
      </trkpt>
      <trkpt lat="44.429" lon="1.32346">
        <ele>268</ele>
        <time>2019-04-14T11:13:07Z</time>
      </trkpt>
      <trkpt lat="44.42901" lon="1.32347">
        <ele>268</ele>
        <time>2019-04-14T11:13:08Z</time>
      </trkpt>
      <trkpt lat="44.42902" lon="1.32348">
        <ele>268</ele>
        <time>2019-04-14T11:13:09Z</time>
      </trkpt>
      <trkpt lat="44.42903" lon="1.32348">
        <ele>268</ele>
        <time>2019-04-14T11:13:10Z</time>
      </trkpt>
      <trkpt lat="44.42905" lon="1.32348">
        <ele>268</ele>
        <time>2019-04-14T11:13:11Z</time>
      </trkpt>
      <trkpt lat="44.42906" lon="1.32349">
        <ele>268</ele>
        <time>2019-04-14T11:13:12Z</time>
      </trkpt>
      <trkpt lat="44.42908" lon="1.32349">
        <ele>268</ele>
        <time>2019-04-14T11:13:13Z</time>
      </trkpt>
      <trkpt lat="44.4291" lon="1.3235">
        <ele>268</ele>
        <time>2019-04-14T11:13:14Z</time>
      </trkpt>
      <trkpt lat="44.42911" lon="1.32351">
        <ele>268</ele>
        <time>2019-04-14T11:13:15Z</time>
      </trkpt>
      <trkpt lat="44.42911" lon="1.32351">
        <ele>268</ele>
        <time>2019-04-14T11:13:16Z</time>
      </trkpt>
      <trkpt lat="44.42912" lon="1.32351">
        <ele>268</ele>
        <time>2019-04-14T11:13:17Z</time>
      </trkpt>
      <trkpt lat="44.42912" lon="1.32352">
        <ele>268</ele>
        <time>2019-04-14T11:13:18Z</time>
      </trkpt>
      <trkpt lat="44.42913" lon="1.32352">
        <ele>268</ele>
        <time>2019-04-14T11:13:19Z</time>
      </trkpt>
      <trkpt lat="44.42913" lon="1.32352">
        <ele>267</ele>
        <time>2019-04-14T11:13:20Z</time>
      </trkpt>
      <trkpt lat="44.42913" lon="1.32352">
        <ele>268</ele>
        <time>2019-04-14T11:13:21Z</time>
      </trkpt>
      <trkpt lat="44.42943" lon="1.32359">
        <ele>264</ele>
        <time>2019-04-14T11:14:38Z</time>
      </trkpt>
      <trkpt lat="44.42945" lon="1.32361">
        <ele>264</ele>
        <time>2019-04-14T11:14:39Z</time>
      </trkpt>
      <trkpt lat="44.42947" lon="1.32364">
        <ele>264</ele>
        <time>2019-04-14T11:14:40Z</time>
      </trkpt>
      <trkpt lat="44.42948" lon="1.32367">
        <ele>264</ele>
        <time>2019-04-14T11:14:41Z</time>
      </trkpt>
      <trkpt lat="44.4295" lon="1.32369">
        <ele>264</ele>
        <time>2019-04-14T11:14:42Z</time>
      </trkpt>
      <trkpt lat="44.42952" lon="1.32371">
        <ele>264</ele>
        <time>2019-04-14T11:14:43Z</time>
      </trkpt>
      <trkpt lat="44.42954" lon="1.32372">
        <ele>264</ele>
        <time>2019-04-14T11:14:44Z</time>
      </trkpt>
      <trkpt lat="44.42955" lon="1.32374">
        <ele>263</ele>
        <time>2019-04-14T11:14:45Z</time>
      </trkpt>
      <trkpt lat="44.42957" lon="1.32376">
        <ele>263</ele>
        <time>2019-04-14T11:14:46Z</time>
      </trkpt>
      <trkpt lat="44.42957" lon="1.32377">
        <ele>263</ele>
        <time>2019-04-14T11:14:47Z</time>
      </trkpt>
      <trkpt lat="44.42957" lon="1.32378">
        <ele>263</ele>
        <time>2019-04-14T11:14:48Z</time>
      </trkpt>
      <trkpt lat="44.42958" lon="1.32379">
        <ele>263</ele>
        <time>2019-04-14T11:14:49Z</time>
      </trkpt>
      <trkpt lat="44.4296" lon="1.32381">
        <ele>263</ele>
        <time>2019-04-14T11:14:50Z</time>
      </trkpt>
      <trkpt lat="44.4296" lon="1.32382">
        <ele>263</ele>
        <time>2019-04-14T11:14:51Z</time>
      </trkpt>
      <trkpt lat="44.4296" lon="1.32383">
        <ele>263</ele>
        <time>2019-04-14T11:14:52Z</time>
      </trkpt>
      <trkpt lat="44.4296" lon="1.32384">
        <ele>263</ele>
        <time>2019-04-14T11:14:53Z</time>
      </trkpt>
      <trkpt lat="44.4296" lon="1.32385">
        <ele>263</ele>
        <time>2019-04-14T11:14:54Z</time>
      </trkpt>
      <trkpt lat="44.42961" lon="1.32386">
        <ele>263</ele>
        <time>2019-04-14T11:14:55Z</time>
      </trkpt>
      <trkpt lat="44.4296" lon="1.32386">
        <ele>264</ele>
        <time>2019-04-14T11:14:56Z</time>
      </trkpt>
      <trkpt lat="44.4296" lon="1.32387">
        <ele>264</ele>
        <time>2019-04-14T11:14:57Z</time>
      </trkpt>
      <trkpt lat="44.42959" lon="1.32388">
        <ele>264</ele>
        <time>2019-04-14T11:14:58Z</time>
      </trkpt>
      <trkpt lat="44.42959" lon="1.3239">
        <ele>264</ele>
        <time>2019-04-14T11:14:59Z</time>
      </trkpt>
      <trkpt lat="44.4296" lon="1.32391">
        <ele>264</ele>
        <time>2019-04-14T11:15:00Z</time>
      </trkpt>
      <trkpt lat="44.4296" lon="1.32392">
        <ele>264</ele>
        <time>2019-04-14T11:15:01Z</time>
      </trkpt>
      <trkpt lat="44.4296" lon="1.32394">
        <ele>264</ele>
        <time>2019-04-14T11:15:02Z</time>
      </trkpt>
      <trkpt lat="44.4296" lon="1.32396">
        <ele>264</ele>
        <time>2019-04-14T11:15:03Z</time>
      </trkpt>
      <trkpt lat="44.4296" lon="1.32398">
        <ele>264</ele>
        <time>2019-04-14T11:15:04Z</time>
      </trkpt>
      <trkpt lat="44.4296" lon="1.324">
        <ele>264</ele>
        <time>2019-04-14T11:15:05Z</time>
      </trkpt>
      <trkpt lat="44.42961" lon="1.32402">
        <ele>264</ele>
        <time>2019-04-14T11:15:06Z</time>
      </trkpt>
      <trkpt lat="44.42963" lon="1.32406">
        <ele>264</ele>
        <time>2019-04-14T11:15:07Z</time>
      </trkpt>
      <trkpt lat="44.42964" lon="1.32409">
        <ele>264</ele>
        <time>2019-04-14T11:15:08Z</time>
      </trkpt>
      <trkpt lat="44.42965" lon="1.32412">
        <ele>264</ele>
        <time>2019-04-14T11:15:09Z</time>
      </trkpt>
      <trkpt lat="44.42966" lon="1.32415">
        <ele>264</ele>
        <time>2019-04-14T11:15:10Z</time>
      </trkpt>
      <trkpt lat="44.42967" lon="1.32418">
        <ele>264</ele>
        <time>2019-04-14T11:15:11Z</time>
      </trkpt>
      <trkpt lat="44.42967" lon="1.32421">
        <ele>265</ele>
        <time>2019-04-14T11:15:12Z</time>
      </trkpt>
      <trkpt lat="44.42967" lon="1.32424">
        <ele>265</ele>
        <time>2019-04-14T11:15:13Z</time>
      </trkpt>
      <trkpt lat="44.42968" lon="1.32427">
        <ele>265</ele>
        <time>2019-04-14T11:15:14Z</time>
      </trkpt>
      <trkpt lat="44.42969" lon="1.3243">
        <ele>265</ele>
        <time>2019-04-14T11:15:15Z</time>
      </trkpt>
      <trkpt lat="44.4297" lon="1.32433">
        <ele>265</ele>
        <time>2019-04-14T11:15:16Z</time>
      </trkpt>
      <trkpt lat="44.4297" lon="1.32436">
        <ele>265</ele>
        <time>2019-04-14T11:15:17Z</time>
      </trkpt>
      <trkpt lat="44.42971" lon="1.32439">
        <ele>265</ele>
        <time>2019-04-14T11:15:18Z</time>
      </trkpt>
      <trkpt lat="44.42971" lon="1.32442">
        <ele>265</ele>
        <time>2019-04-14T11:15:19Z</time>
      </trkpt>
      <trkpt lat="44.42971" lon="1.32445">
        <ele>265</ele>
        <time>2019-04-14T11:15:20Z</time>
      </trkpt>
      <trkpt lat="44.42971" lon="1.32448">
        <ele>265</ele>
        <time>2019-04-14T11:15:21Z</time>
      </trkpt>
      <trkpt lat="44.4297" lon="1.3245">
        <ele>265</ele>
        <time>2019-04-14T11:15:22Z</time>
      </trkpt>
      <trkpt lat="44.42971" lon="1.32453">
        <ele>265</ele>
        <time>2019-04-14T11:15:23Z</time>
      </trkpt>
      <trkpt lat="44.42972" lon="1.32456">
        <ele>265</ele>
        <time>2019-04-14T11:15:24Z</time>
      </trkpt>
      <trkpt lat="44.42973" lon="1.32459">
        <ele>265</ele>
        <time>2019-04-14T11:15:25Z</time>
      </trkpt>
      <trkpt lat="44.42973" lon="1.32463">
        <ele>265</ele>
        <time>2019-04-14T11:15:26Z</time>
      </trkpt>
      <trkpt lat="44.42973" lon="1.32465">
        <ele>265</ele>
        <time>2019-04-14T11:15:27Z</time>
      </trkpt>
      <trkpt lat="44.42972" lon="1.32468">
        <ele>266</ele>
        <time>2019-04-14T11:15:28Z</time>
      </trkpt>
      <trkpt lat="44.42971" lon="1.3247">
        <ele>266</ele>
        <time>2019-04-14T11:15:29Z</time>
      </trkpt>
      <trkpt lat="44.42971" lon="1.32472">
        <ele>266</ele>
        <time>2019-04-14T11:15:30Z</time>
      </trkpt>
      <trkpt lat="44.4297" lon="1.32473">
        <ele>267</ele>
        <time>2019-04-14T11:15:31Z</time>
      </trkpt>
      <trkpt lat="44.4297" lon="1.32475">
        <ele>267</ele>
        <time>2019-04-14T11:15:32Z</time>
      </trkpt>
      <trkpt lat="44.4297" lon="1.32477">
        <ele>267</ele>
        <time>2019-04-14T11:15:33Z</time>
      </trkpt>
      <trkpt lat="44.42969" lon="1.32478">
        <ele>267</ele>
        <time>2019-04-14T11:15:34Z</time>
      </trkpt>
      <trkpt lat="44.42968" lon="1.3248">
        <ele>268</ele>
        <time>2019-04-14T11:15:35Z</time>
      </trkpt>
      <trkpt lat="44.42968" lon="1.32482">
        <ele>268</ele>
        <time>2019-04-14T11:15:36Z</time>
      </trkpt>
      <trkpt lat="44.42968" lon="1.32483">
        <ele>268</ele>
        <time>2019-04-14T11:15:37Z</time>
      </trkpt>
      <trkpt lat="44.42967" lon="1.32485">
        <ele>268</ele>
        <time>2019-04-14T11:15:38Z</time>
      </trkpt>
      <trkpt lat="44.42967" lon="1.32486">
        <ele>268</ele>
        <time>2019-04-14T11:15:39Z</time>
      </trkpt>
      <trkpt lat="44.42967" lon="1.32488">
        <ele>268</ele>
        <time>2019-04-14T11:15:40Z</time>
      </trkpt>
      <trkpt lat="44.42966" lon="1.32489">
        <ele>269</ele>
        <time>2019-04-14T11:15:41Z</time>
      </trkpt>
      <trkpt lat="44.42966" lon="1.32491">
        <ele>269</ele>
        <time>2019-04-14T11:15:42Z</time>
      </trkpt>
      <trkpt lat="44.42966" lon="1.32493">
        <ele>269</ele>
        <time>2019-04-14T11:15:43Z</time>
      </trkpt>
      <trkpt lat="44.42966" lon="1.32495">
        <ele>269</ele>
        <time>2019-04-14T11:15:44Z</time>
      </trkpt>
      <trkpt lat="44.42967" lon="1.32497">
        <ele>269</ele>
        <time>2019-04-14T11:15:45Z</time>
      </trkpt>
      <trkpt lat="44.42966" lon="1.32499">
        <ele>269</ele>
        <time>2019-04-14T11:15:46Z</time>
      </trkpt>
      <trkpt lat="44.42967" lon="1.32501">
        <ele>269</ele>
        <time>2019-04-14T11:15:47Z</time>
      </trkpt>
      <trkpt lat="44.42967" lon="1.32503">
        <ele>269</ele>
        <time>2019-04-14T11:15:48Z</time>
      </trkpt>
      <trkpt lat="44.42967" lon="1.32505">
        <ele>269</ele>
        <time>2019-04-14T11:15:49Z</time>
      </trkpt>
      <trkpt lat="44.42967" lon="1.32507">
        <ele>269</ele>
        <time>2019-04-14T11:15:50Z</time>
      </trkpt>
      <trkpt lat="44.42966" lon="1.32509">
        <ele>270</ele>
        <time>2019-04-14T11:15:51Z</time>
      </trkpt>
      <trkpt lat="44.42966" lon="1.32511">
        <ele>270</ele>
        <time>2019-04-14T11:15:52Z</time>
      </trkpt>
      <trkpt lat="44.42966" lon="1.32512">
        <ele>270</ele>
        <time>2019-04-14T11:15:53Z</time>
      </trkpt>
      <trkpt lat="44.42965" lon="1.32514">
        <ele>270</ele>
        <time>2019-04-14T11:15:54Z</time>
      </trkpt>
      <trkpt lat="44.42966" lon="1.32516">
        <ele>270</ele>
        <time>2019-04-14T11:15:55Z</time>
      </trkpt>
      <trkpt lat="44.42966" lon="1.32518">
        <ele>270</ele>
        <time>2019-04-14T11:15:56Z</time>
      </trkpt>
      <trkpt lat="44.42967" lon="1.3252">
        <ele>270</ele>
        <time>2019-04-14T11:15:57Z</time>
      </trkpt>
      <trkpt lat="44.42968" lon="1.32522">
        <ele>270</ele>
        <time>2019-04-14T11:15:58Z</time>
      </trkpt>
      <trkpt lat="44.4297" lon="1.32524">
        <ele>270</ele>
        <time>2019-04-14T11:15:59Z</time>
      </trkpt>
      <trkpt lat="44.42972" lon="1.32527">
        <ele>270</ele>
        <time>2019-04-14T11:16:00Z</time>
      </trkpt>
      <trkpt lat="44.42974" lon="1.32529">
        <ele>269</ele>
        <time>2019-04-14T11:16:01Z</time>
      </trkpt>
      <trkpt lat="44.42977" lon="1.32531">
        <ele>269</ele>
        <time>2019-04-14T11:16:02Z</time>
      </trkpt>
      <trkpt lat="44.4298" lon="1.32534">
        <ele>269</ele>
        <time>2019-04-14T11:16:03Z</time>
      </trkpt>
      <trkpt lat="44.42983" lon="1.32536">
        <ele>268</ele>
        <time>2019-04-14T11:16:04Z</time>
      </trkpt>
      <trkpt lat="44.42985" lon="1.32537">
        <ele>268</ele>
        <time>2019-04-14T11:16:05Z</time>
      </trkpt>
      <trkpt lat="44.42989" lon="1.32539">
        <ele>267</ele>
        <time>2019-04-14T11:16:06Z</time>
      </trkpt>
      <trkpt lat="44.42992" lon="1.32539">
        <ele>267</ele>
        <time>2019-04-14T11:16:07Z</time>
      </trkpt>
      <trkpt lat="44.42996" lon="1.3254">
        <ele>266</ele>
        <time>2019-04-14T11:16:08Z</time>
      </trkpt>
      <trkpt lat="44.42999" lon="1.32539">
        <ele>265</ele>
        <time>2019-04-14T11:16:09Z</time>
      </trkpt>
      <trkpt lat="44.43004" lon="1.32539">
        <ele>265</ele>
        <time>2019-04-14T11:16:10Z</time>
      </trkpt>
      <trkpt lat="44.43008" lon="1.32538">
        <ele>265</ele>
        <time>2019-04-14T11:16:11Z</time>
      </trkpt>
      <trkpt lat="44.43012" lon="1.32538">
        <ele>264</ele>
        <time>2019-04-14T11:16:12Z</time>
      </trkpt>
      <trkpt lat="44.43016" lon="1.32538">
        <ele>264</ele>
        <time>2019-04-14T11:16:13Z</time>
      </trkpt>
      <trkpt lat="44.43021" lon="1.32537">
        <ele>263</ele>
        <time>2019-04-14T11:16:14Z</time>
      </trkpt>
      <trkpt lat="44.43025" lon="1.32537">
        <ele>263</ele>
        <time>2019-04-14T11:16:15Z</time>
      </trkpt>
      <trkpt lat="44.4303" lon="1.32537">
        <ele>263</ele>
        <time>2019-04-14T11:16:16Z</time>
      </trkpt>
      <trkpt lat="44.43034" lon="1.32536">
        <ele>263</ele>
        <time>2019-04-14T11:16:17Z</time>
      </trkpt>
      <trkpt lat="44.43037" lon="1.32535">
        <ele>262</ele>
        <time>2019-04-14T11:16:18Z</time>
      </trkpt>
      <trkpt lat="44.4304" lon="1.32533">
        <ele>262</ele>
        <time>2019-04-14T11:16:19Z</time>
      </trkpt>
      <trkpt lat="44.43043" lon="1.32531">
        <ele>261</ele>
        <time>2019-04-14T11:16:20Z</time>
      </trkpt>
      <trkpt lat="44.43045" lon="1.32528">
        <ele>261</ele>
        <time>2019-04-14T11:16:21Z</time>
      </trkpt>
      <trkpt lat="44.43048" lon="1.32526">
        <ele>260</ele>
        <time>2019-04-14T11:16:22Z</time>
      </trkpt>
      <trkpt lat="44.4305" lon="1.32523">
        <ele>260</ele>
        <time>2019-04-14T11:16:23Z</time>
      </trkpt>
      <trkpt lat="44.43052" lon="1.3252">
        <ele>259</ele>
        <time>2019-04-14T11:16:24Z</time>
      </trkpt>
      <trkpt lat="44.43055" lon="1.32518">
        <ele>259</ele>
        <time>2019-04-14T11:16:25Z</time>
      </trkpt>
      <trkpt lat="44.43057" lon="1.32516">
        <ele>258</ele>
        <time>2019-04-14T11:16:26Z</time>
      </trkpt>
      <trkpt lat="44.43059" lon="1.32515">
        <ele>258</ele>
        <time>2019-04-14T11:16:27Z</time>
      </trkpt>
      <trkpt lat="44.43062" lon="1.32514">
        <ele>259</ele>
        <time>2019-04-14T11:16:28Z</time>
      </trkpt>
      <trkpt lat="44.43063" lon="1.32513">
        <ele>259</ele>
        <time>2019-04-14T11:16:29Z</time>
      </trkpt>
      <trkpt lat="44.43065" lon="1.32513">
        <ele>258</ele>
        <time>2019-04-14T11:16:30Z</time>
      </trkpt>
      <trkpt lat="44.43067" lon="1.32514">
        <ele>258</ele>
        <time>2019-04-14T11:16:31Z</time>
      </trkpt>
      <trkpt lat="44.4307" lon="1.32516">
        <ele>258</ele>
        <time>2019-04-14T11:16:32Z</time>
      </trkpt>
      <trkpt lat="44.43071" lon="1.32518">
        <ele>258</ele>
        <time>2019-04-14T11:16:33Z</time>
      </trkpt>
      <trkpt lat="44.43073" lon="1.3252">
        <ele>258</ele>
        <time>2019-04-14T11:16:34Z</time>
      </trkpt>
      <trkpt lat="44.43074" lon="1.32523">
        <ele>258</ele>
        <time>2019-04-14T11:16:35Z</time>
      </trkpt>
      <trkpt lat="44.43075" lon="1.32526">
        <ele>259</ele>
        <time>2019-04-14T11:16:36Z</time>
      </trkpt>
      <trkpt lat="44.43075" lon="1.32529">
        <ele>259</ele>
        <time>2019-04-14T11:16:37Z</time>
      </trkpt>
      <trkpt lat="44.43075" lon="1.32532">
        <ele>259</ele>
        <time>2019-04-14T11:16:38Z</time>
      </trkpt>
      <trkpt lat="44.43076" lon="1.32535">
        <ele>259</ele>
        <time>2019-04-14T11:16:39Z</time>
      </trkpt>
      <trkpt lat="44.43077" lon="1.32538">
        <ele>259</ele>
        <time>2019-04-14T11:16:40Z</time>
      </trkpt>
      <trkpt lat="44.43078" lon="1.32541">
        <ele>259</ele>
        <time>2019-04-14T11:16:41Z</time>
      </trkpt>
      <trkpt lat="44.43078" lon="1.32544">
        <ele>260</ele>
        <time>2019-04-14T11:16:42Z</time>
      </trkpt>
      <trkpt lat="44.43078" lon="1.32546">
        <ele>260</ele>
        <time>2019-04-14T11:16:43Z</time>
      </trkpt>
      <trkpt lat="44.43078" lon="1.32549">
        <ele>260</ele>
        <time>2019-04-14T11:16:44Z</time>
      </trkpt>
      <trkpt lat="44.43078" lon="1.32552">
        <ele>260</ele>
        <time>2019-04-14T11:16:45Z</time>
      </trkpt>
      <trkpt lat="44.43078" lon="1.32555">
        <ele>260</ele>
        <time>2019-04-14T11:16:46Z</time>
      </trkpt>
      <trkpt lat="44.43079" lon="1.32558">
        <ele>261</ele>
        <time>2019-04-14T11:16:47Z</time>
      </trkpt>
      <trkpt lat="44.43078" lon="1.32561">
        <ele>261</ele>
        <time>2019-04-14T11:16:48Z</time>
      </trkpt>
      <trkpt lat="44.43078" lon="1.32564">
        <ele>261</ele>
        <time>2019-04-14T11:16:49Z</time>
      </trkpt>
      <trkpt lat="44.43078" lon="1.32567">
        <ele>261</ele>
        <time>2019-04-14T11:16:50Z</time>
      </trkpt>
      <trkpt lat="44.43078" lon="1.3257">
        <ele>261</ele>
        <time>2019-04-14T11:16:51Z</time>
      </trkpt>
      <trkpt lat="44.43078" lon="1.32573">
        <ele>262</ele>
        <time>2019-04-14T11:16:52Z</time>
      </trkpt>
      <trkpt lat="44.43078" lon="1.32575">
        <ele>262</ele>
        <time>2019-04-14T11:16:53Z</time>
      </trkpt>
      <trkpt lat="44.43078" lon="1.32578">
        <ele>262</ele>
        <time>2019-04-14T11:16:54Z</time>
      </trkpt>
      <trkpt lat="44.43077" lon="1.3258">
        <ele>262</ele>
        <time>2019-04-14T11:16:55Z</time>
      </trkpt>
      <trkpt lat="44.43077" lon="1.32583">
        <ele>262</ele>
        <time>2019-04-14T11:16:56Z</time>
      </trkpt>
      <trkpt lat="44.43078" lon="1.32585">
        <ele>262</ele>
        <time>2019-04-14T11:16:57Z</time>
      </trkpt>
      <trkpt lat="44.43079" lon="1.32588">
        <ele>262</ele>
        <time>2019-04-14T11:16:58Z</time>
      </trkpt>
      <trkpt lat="44.4308" lon="1.32591">
        <ele>262</ele>
        <time>2019-04-14T11:16:59Z</time>
      </trkpt>
      <trkpt lat="44.43081" lon="1.32595">
        <ele>262</ele>
        <time>2019-04-14T11:17:00Z</time>
      </trkpt>
      <trkpt lat="44.43082" lon="1.32598">
        <ele>262</ele>
        <time>2019-04-14T11:17:01Z</time>
      </trkpt>
      <trkpt lat="44.43082" lon="1.32601">
        <ele>262</ele>
        <time>2019-04-14T11:17:02Z</time>
      </trkpt>
      <trkpt lat="44.43083" lon="1.32605">
        <ele>262</ele>
        <time>2019-04-14T11:17:03Z</time>
      </trkpt>
      <trkpt lat="44.43084" lon="1.32608">
        <ele>262</ele>
        <time>2019-04-14T11:17:04Z</time>
      </trkpt>
      <trkpt lat="44.43084" lon="1.32612">
        <ele>262</ele>
        <time>2019-04-14T11:17:05Z</time>
      </trkpt>
      <trkpt lat="44.43083" lon="1.32615">
        <ele>262</ele>
        <time>2019-04-14T11:17:06Z</time>
      </trkpt>
      <trkpt lat="44.43084" lon="1.32619">
        <ele>262</ele>
        <time>2019-04-14T11:17:07Z</time>
      </trkpt>
      <trkpt lat="44.43085" lon="1.32622">
        <ele>262</ele>
        <time>2019-04-14T11:17:08Z</time>
      </trkpt>
      <trkpt lat="44.43086" lon="1.32625">
        <ele>262</ele>
        <time>2019-04-14T11:17:09Z</time>
      </trkpt>
      <trkpt lat="44.43087" lon="1.32628">
        <ele>262</ele>
        <time>2019-04-14T11:17:10Z</time>
      </trkpt>
      <trkpt lat="44.43088" lon="1.32632">
        <ele>262</ele>
        <time>2019-04-14T11:17:11Z</time>
      </trkpt>
      <trkpt lat="44.43089" lon="1.32635">
        <ele>262</ele>
        <time>2019-04-14T11:17:12Z</time>
      </trkpt>
      <trkpt lat="44.43089" lon="1.32639">
        <ele>262</ele>
        <time>2019-04-14T11:17:13Z</time>
      </trkpt>
      <trkpt lat="44.43089" lon="1.32642">
        <ele>262</ele>
        <time>2019-04-14T11:17:14Z</time>
      </trkpt>
      <trkpt lat="44.43088" lon="1.32645">
        <ele>262</ele>
        <time>2019-04-14T11:17:15Z</time>
      </trkpt>
      <trkpt lat="44.43089" lon="1.32648">
        <ele>262</ele>
        <time>2019-04-14T11:17:16Z</time>
      </trkpt>
      <trkpt lat="44.43091" lon="1.3265">
        <ele>262</ele>
        <time>2019-04-14T11:17:17Z</time>
      </trkpt>
      <trkpt lat="44.43094" lon="1.32652">
        <ele>262</ele>
        <time>2019-04-14T11:17:18Z</time>
      </trkpt>
      <trkpt lat="44.43097" lon="1.32654">
        <ele>261</ele>
        <time>2019-04-14T11:17:19Z</time>
      </trkpt>
      <trkpt lat="44.43099" lon="1.32658">
        <ele>261</ele>
        <time>2019-04-14T11:17:20Z</time>
      </trkpt>
      <trkpt lat="44.43102" lon="1.32662">
        <ele>260</ele>
        <time>2019-04-14T11:17:21Z</time>
      </trkpt>
      <trkpt lat="44.43104" lon="1.32667">
        <ele>260</ele>
        <time>2019-04-14T11:17:22Z</time>
      </trkpt>
      <trkpt lat="44.43107" lon="1.32672">
        <ele>259</ele>
        <time>2019-04-14T11:17:23Z</time>
      </trkpt>
      <trkpt lat="44.4311" lon="1.32676">
        <ele>259</ele>
        <time>2019-04-14T11:17:24Z</time>
      </trkpt>
      <trkpt lat="44.43113" lon="1.32679">
        <ele>257</ele>
        <time>2019-04-14T11:17:25Z</time>
      </trkpt>
      <trkpt lat="44.43117" lon="1.32683">
        <ele>257</ele>
        <time>2019-04-14T11:17:26Z</time>
      </trkpt>
      <trkpt lat="44.43122" lon="1.32685">
        <ele>256</ele>
        <time>2019-04-14T11:17:27Z</time>
      </trkpt>
      <trkpt lat="44.43127" lon="1.32687">
        <ele>255</ele>
        <time>2019-04-14T11:17:28Z</time>
      </trkpt>
      <trkpt lat="44.43133" lon="1.32688">
        <ele>255</ele>
        <time>2019-04-14T11:17:29Z</time>
      </trkpt>
      <trkpt lat="44.43138" lon="1.3269">
        <ele>255</ele>
        <time>2019-04-14T11:17:30Z</time>
      </trkpt>
      <trkpt lat="44.43142" lon="1.3269">
        <ele>255</ele>
        <time>2019-04-14T11:17:31Z</time>
      </trkpt>
      <trkpt lat="44.43145" lon="1.32691">
        <ele>255</ele>
        <time>2019-04-14T11:17:32Z</time>
      </trkpt>
      <trkpt lat="44.43148" lon="1.32692">
        <ele>256</ele>
        <time>2019-04-14T11:17:33Z</time>
      </trkpt>
      <trkpt lat="44.43151" lon="1.32693">
        <ele>256</ele>
        <time>2019-04-14T11:17:34Z</time>
      </trkpt>
      <trkpt lat="44.43153" lon="1.32694">
        <ele>257</ele>
        <time>2019-04-14T11:17:35Z</time>
      </trkpt>
      <trkpt lat="44.43155" lon="1.32694">
        <ele>257</ele>
        <time>2019-04-14T11:17:36Z</time>
      </trkpt>
      <trkpt lat="44.43157" lon="1.32694">
        <ele>258</ele>
        <time>2019-04-14T11:17:37Z</time>
      </trkpt>
      <trkpt lat="44.43159" lon="1.32693">
        <ele>258</ele>
        <time>2019-04-14T11:17:38Z</time>
      </trkpt>
      <trkpt lat="44.43161" lon="1.32693">
        <ele>259</ele>
        <time>2019-04-14T11:17:39Z</time>
      </trkpt>
      <trkpt lat="44.43163" lon="1.32692">
        <ele>259</ele>
        <time>2019-04-14T11:17:40Z</time>
      </trkpt>
      <trkpt lat="44.43165" lon="1.32691">
        <ele>259</ele>
        <time>2019-04-14T11:17:41Z</time>
      </trkpt>
      <trkpt lat="44.43166" lon="1.32689">
        <ele>259</ele>
        <time>2019-04-14T11:17:42Z</time>
      </trkpt>
      <trkpt lat="44.43167" lon="1.32687">
        <ele>259</ele>
        <time>2019-04-14T11:17:43Z</time>
      </trkpt>
      <trkpt lat="44.43168" lon="1.32684">
        <ele>259</ele>
        <time>2019-04-14T11:17:44Z</time>
      </trkpt>
      <trkpt lat="44.43169" lon="1.32682">
        <ele>259</ele>
        <time>2019-04-14T11:17:45Z</time>
      </trkpt>
      <trkpt lat="44.4317" lon="1.32679">
        <ele>259</ele>
        <time>2019-04-14T11:17:46Z</time>
      </trkpt>
      <trkpt lat="44.43172" lon="1.32677">
        <ele>259</ele>
        <time>2019-04-14T11:17:47Z</time>
      </trkpt>
      <trkpt lat="44.43173" lon="1.32675">
        <ele>259</ele>
        <time>2019-04-14T11:17:48Z</time>
      </trkpt>
      <trkpt lat="44.43175" lon="1.32672">
        <ele>260</ele>
        <time>2019-04-14T11:17:49Z</time>
      </trkpt>
      <trkpt lat="44.43176" lon="1.32669">
        <ele>259</ele>
        <time>2019-04-14T11:17:50Z</time>
      </trkpt>
      <trkpt lat="44.43177" lon="1.32666">
        <ele>259</ele>
        <time>2019-04-14T11:17:51Z</time>
      </trkpt>
      <trkpt lat="44.43179" lon="1.32663">
        <ele>259</ele>
        <time>2019-04-14T11:17:52Z</time>
      </trkpt>
      <trkpt lat="44.4318" lon="1.3266">
        <ele>259</ele>
        <time>2019-04-14T11:17:53Z</time>
      </trkpt>
      <trkpt lat="44.43182" lon="1.32657">
        <ele>259</ele>
        <time>2019-04-14T11:17:54Z</time>
      </trkpt>
      <trkpt lat="44.43184" lon="1.32656">
        <ele>259</ele>
        <time>2019-04-14T11:17:55Z</time>
      </trkpt>
      <trkpt lat="44.43186" lon="1.32654">
        <ele>259</ele>
        <time>2019-04-14T11:17:56Z</time>
      </trkpt>
      <trkpt lat="44.43188" lon="1.32651">
        <ele>259</ele>
        <time>2019-04-14T11:17:57Z</time>
      </trkpt>
      <trkpt lat="44.43189" lon="1.32648">
        <ele>258</ele>
        <time>2019-04-14T11:17:58Z</time>
      </trkpt>
      <trkpt lat="44.43191" lon="1.32643">
        <ele>258</ele>
        <time>2019-04-14T11:17:59Z</time>
      </trkpt>
      <trkpt lat="44.43194" lon="1.3264">
        <ele>258</ele>
        <time>2019-04-14T11:18:00Z</time>
      </trkpt>
      <trkpt lat="44.43196" lon="1.32637">
        <ele>258</ele>
        <time>2019-04-14T11:18:01Z</time>
      </trkpt>
      <trkpt lat="44.43198" lon="1.32634">
        <ele>258</ele>
        <time>2019-04-14T11:18:02Z</time>
      </trkpt>
      <trkpt lat="44.432" lon="1.32632">
        <ele>258</ele>
        <time>2019-04-14T11:18:03Z</time>
      </trkpt>
      <trkpt lat="44.43202" lon="1.32629">
        <ele>258</ele>
        <time>2019-04-14T11:18:04Z</time>
      </trkpt>
      <trkpt lat="44.43205" lon="1.32627">
        <ele>258</ele>
        <time>2019-04-14T11:18:05Z</time>
      </trkpt>
      <trkpt lat="44.43208" lon="1.32627">
        <ele>258</ele>
        <time>2019-04-14T11:18:06Z</time>
      </trkpt>
      <trkpt lat="44.4321" lon="1.32628">
        <ele>258</ele>
        <time>2019-04-14T11:18:07Z</time>
      </trkpt>
      <trkpt lat="44.43211" lon="1.3263">
        <ele>259</ele>
        <time>2019-04-14T11:18:08Z</time>
      </trkpt>
      <trkpt lat="44.43212" lon="1.32632">
        <ele>259</ele>
        <time>2019-04-14T11:18:09Z</time>
      </trkpt>
      <trkpt lat="44.43212" lon="1.32635">
        <ele>259</ele>
        <time>2019-04-14T11:18:10Z</time>
      </trkpt>
      <trkpt lat="44.43213" lon="1.32637">
        <ele>259</ele>
        <time>2019-04-14T11:18:11Z</time>
      </trkpt>
      <trkpt lat="44.43213" lon="1.3264">
        <ele>260</ele>
        <time>2019-04-14T11:18:12Z</time>
      </trkpt>
      <trkpt lat="44.43213" lon="1.32642">
        <ele>260</ele>
        <time>2019-04-14T11:18:13Z</time>
      </trkpt>
      <trkpt lat="44.43213" lon="1.32645">
        <ele>260</ele>
        <time>2019-04-14T11:18:14Z</time>
      </trkpt>
      <trkpt lat="44.43213" lon="1.32648">
        <ele>260</ele>
        <time>2019-04-14T11:18:15Z</time>
      </trkpt>
      <trkpt lat="44.43213" lon="1.3265">
        <ele>260</ele>
        <time>2019-04-14T11:18:16Z</time>
      </trkpt>
      <trkpt lat="44.43213" lon="1.32653">
        <ele>260</ele>
        <time>2019-04-14T11:18:17Z</time>
      </trkpt>
      <trkpt lat="44.43213" lon="1.32656">
        <ele>261</ele>
        <time>2019-04-14T11:18:18Z</time>
      </trkpt>
      <trkpt lat="44.43213" lon="1.3266">
        <ele>261</ele>
        <time>2019-04-14T11:18:19Z</time>
      </trkpt>
      <trkpt lat="44.43212" lon="1.32662">
        <ele>261</ele>
        <time>2019-04-14T11:18:20Z</time>
      </trkpt>
      <trkpt lat="44.43212" lon="1.32665">
        <ele>261</ele>
        <time>2019-04-14T11:18:21Z</time>
      </trkpt>
      <trkpt lat="44.43212" lon="1.32668">
        <ele>261</ele>
        <time>2019-04-14T11:18:22Z</time>
      </trkpt>
      <trkpt lat="44.43212" lon="1.32671">
        <ele>261</ele>
        <time>2019-04-14T11:18:23Z</time>
      </trkpt>
      <trkpt lat="44.43212" lon="1.32675">
        <ele>261</ele>
        <time>2019-04-14T11:18:24Z</time>
      </trkpt>
      <trkpt lat="44.43212" lon="1.32679">
        <ele>261</ele>
        <time>2019-04-14T11:18:25Z</time>
      </trkpt>
      <trkpt lat="44.43212" lon="1.32683">
        <ele>261</ele>
        <time>2019-04-14T11:18:26Z</time>
      </trkpt>
      <trkpt lat="44.43212" lon="1.32686">
        <ele>261</ele>
        <time>2019-04-14T11:18:27Z</time>
      </trkpt>
      <trkpt lat="44.43213" lon="1.3269">
        <ele>261</ele>
        <time>2019-04-14T11:18:28Z</time>
      </trkpt>
      <trkpt lat="44.43215" lon="1.32693">
        <ele>261</ele>
        <time>2019-04-14T11:18:29Z</time>
      </trkpt>
      <trkpt lat="44.43218" lon="1.32695">
        <ele>261</ele>
        <time>2019-04-14T11:18:30Z</time>
      </trkpt>
      <trkpt lat="44.4322" lon="1.32699">
        <ele>261</ele>
        <time>2019-04-14T11:18:31Z</time>
      </trkpt>
      <trkpt lat="44.43223" lon="1.32702">
        <ele>261</ele>
        <time>2019-04-14T11:18:32Z</time>
      </trkpt>
      <trkpt lat="44.43227" lon="1.32706">
        <ele>260</ele>
        <time>2019-04-14T11:18:33Z</time>
      </trkpt>
      <trkpt lat="44.43229" lon="1.32709">
        <ele>260</ele>
        <time>2019-04-14T11:18:34Z</time>
      </trkpt>
      <trkpt lat="44.43233" lon="1.32712">
        <ele>259</ele>
        <time>2019-04-14T11:18:35Z</time>
      </trkpt>
      <trkpt lat="44.43237" lon="1.32715">
        <ele>259</ele>
        <time>2019-04-14T11:18:36Z</time>
      </trkpt>
      <trkpt lat="44.4324" lon="1.32714">
        <ele>259</ele>
        <time>2019-04-14T11:18:37Z</time>
      </trkpt>
      <trkpt lat="44.43244" lon="1.32715">
        <ele>258</ele>
        <time>2019-04-14T11:18:38Z</time>
      </trkpt>
      <trkpt lat="44.43249" lon="1.32715">
        <ele>258</ele>
        <time>2019-04-14T11:18:39Z</time>
      </trkpt>
      <trkpt lat="44.43253" lon="1.32716">
        <ele>258</ele>
        <time>2019-04-14T11:18:40Z</time>
      </trkpt>
      <trkpt lat="44.43258" lon="1.32715">
        <ele>257</ele>
        <time>2019-04-14T11:18:41Z</time>
      </trkpt>
      <trkpt lat="44.43263" lon="1.32714">
        <ele>256</ele>
        <time>2019-04-14T11:18:42Z</time>
      </trkpt>
      <trkpt lat="44.43269" lon="1.32714">
        <ele>256</ele>
        <time>2019-04-14T11:18:43Z</time>
      </trkpt>
      <trkpt lat="44.43273" lon="1.32716">
        <ele>255</ele>
        <time>2019-04-14T11:18:44Z</time>
      </trkpt>
      <trkpt lat="44.43276" lon="1.32719">
        <ele>255</ele>
        <time>2019-04-14T11:18:45Z</time>
      </trkpt>
      <trkpt lat="44.43279" lon="1.32721">
        <ele>255</ele>
        <time>2019-04-14T11:18:46Z</time>
      </trkpt>
      <trkpt lat="44.43282" lon="1.32724">
        <ele>255</ele>
        <time>2019-04-14T11:18:47Z</time>
      </trkpt>
      <trkpt lat="44.43283" lon="1.32726">
        <ele>255</ele>
        <time>2019-04-14T11:18:48Z</time>
      </trkpt>
      <trkpt lat="44.43284" lon="1.32728">
        <ele>255</ele>
        <time>2019-04-14T11:18:49Z</time>
      </trkpt>
      <trkpt lat="44.43283" lon="1.3273">
        <ele>255</ele>
        <time>2019-04-14T11:18:50Z</time>
      </trkpt>
      <trkpt lat="44.43283" lon="1.3273">
        <ele>255</ele>
        <time>2019-04-14T11:18:51Z</time>
      </trkpt>
      <trkpt lat="44.43282" lon="1.3273">
        <ele>255</ele>
        <time>2019-04-14T11:18:52Z</time>
      </trkpt>
      <trkpt lat="44.43282" lon="1.32728">
        <ele>255</ele>
        <time>2019-04-14T11:18:53Z</time>
      </trkpt>
      <trkpt lat="44.43282" lon="1.32727">
        <ele>255</ele>
        <time>2019-04-14T11:18:54Z</time>
      </trkpt>
      <trkpt lat="44.43282" lon="1.32726">
        <ele>255</ele>
        <time>2019-04-14T11:18:55Z</time>
      </trkpt>
      <trkpt lat="44.43282" lon="1.32724">
        <ele>254</ele>
        <time>2019-04-14T11:18:56Z</time>
      </trkpt>
      <trkpt lat="44.43282" lon="1.32723">
        <ele>254</ele>
        <time>2019-04-14T11:18:57Z</time>
      </trkpt>
      <trkpt lat="44.43282" lon="1.32723">
        <ele>254</ele>
        <time>2019-04-14T11:18:58Z</time>
      </trkpt>
      <trkpt lat="44.43282" lon="1.32723">
        <ele>254</ele>
        <time>2019-04-14T11:18:59Z</time>
      </trkpt>
      <trkpt lat="44.43282" lon="1.32723">
        <ele>254</ele>
        <time>2019-04-14T11:19:00Z</time>
      </trkpt>
      <trkpt lat="44.43282" lon="1.32723">
        <ele>254</ele>
        <time>2019-04-14T11:19:01Z</time>
      </trkpt>
      <trkpt lat="44.43282" lon="1.32723">
        <ele>254</ele>
        <time>2019-04-14T11:19:02Z</time>
      </trkpt>
      <trkpt lat="44.43282" lon="1.32723">
        <ele>254</ele>
        <time>2019-04-14T11:19:03Z</time>
      </trkpt>
      <trkpt lat="44.43282" lon="1.32723">
        <ele>254</ele>
        <time>2019-04-14T11:19:04Z</time>
      </trkpt>
      <trkpt lat="44.43282" lon="1.32723">
        <ele>254</ele>
        <time>2019-04-14T11:19:05Z</time>
      </trkpt>
      <trkpt lat="44.43314" lon="1.3271">
        <ele>252</ele>
        <time>2019-04-14T11:19:25Z</time>
      </trkpt>
      <trkpt lat="44.43318" lon="1.32707">
        <ele>252</ele>
        <time>2019-04-14T11:19:26Z</time>
      </trkpt>
      <trkpt lat="44.43322" lon="1.32704">
        <ele>253</ele>
        <time>2019-04-14T11:19:27Z</time>
      </trkpt>
      <trkpt lat="44.43326" lon="1.32702">
        <ele>253</ele>
        <time>2019-04-14T11:19:28Z</time>
      </trkpt>
      <trkpt lat="44.43329" lon="1.327">
        <ele>253</ele>
        <time>2019-04-14T11:19:29Z</time>
      </trkpt>
      <trkpt lat="44.43332" lon="1.32699">
        <ele>254</ele>
        <time>2019-04-14T11:19:30Z</time>
      </trkpt>
      <trkpt lat="44.43335" lon="1.32697">
        <ele>254</ele>
        <time>2019-04-14T11:19:31Z</time>
      </trkpt>
      <trkpt lat="44.43338" lon="1.32696">
        <ele>254</ele>
        <time>2019-04-14T11:19:32Z</time>
      </trkpt>
      <trkpt lat="44.4334" lon="1.32695">
        <ele>254</ele>
        <time>2019-04-14T11:19:33Z</time>
      </trkpt>
      <trkpt lat="44.43343" lon="1.32693">
        <ele>254</ele>
        <time>2019-04-14T11:19:34Z</time>
      </trkpt>
      <trkpt lat="44.43345" lon="1.32692">
        <ele>254</ele>
        <time>2019-04-14T11:19:35Z</time>
      </trkpt>
      <trkpt lat="44.43346" lon="1.32691">
        <ele>255</ele>
        <time>2019-04-14T11:19:36Z</time>
      </trkpt>
      <trkpt lat="44.43347" lon="1.3269">
        <ele>255</ele>
        <time>2019-04-14T11:19:37Z</time>
      </trkpt>
      <trkpt lat="44.43349" lon="1.32688">
        <ele>255</ele>
        <time>2019-04-14T11:19:38Z</time>
      </trkpt>
      <trkpt lat="44.43351" lon="1.32687">
        <ele>255</ele>
        <time>2019-04-14T11:19:39Z</time>
      </trkpt>
      <trkpt lat="44.43353" lon="1.32686">
        <ele>255</ele>
        <time>2019-04-14T11:19:40Z</time>
      </trkpt>
      <trkpt lat="44.43355" lon="1.32685">
        <ele>255</ele>
        <time>2019-04-14T11:19:41Z</time>
      </trkpt>
      <trkpt lat="44.43356" lon="1.32683">
        <ele>256</ele>
        <time>2019-04-14T11:19:42Z</time>
      </trkpt>
      <trkpt lat="44.43358" lon="1.32682">
        <ele>256</ele>
        <time>2019-04-14T11:19:43Z</time>
      </trkpt>
      <trkpt lat="44.4336" lon="1.3268">
        <ele>256</ele>
        <time>2019-04-14T11:19:44Z</time>
      </trkpt>
      <trkpt lat="44.43361" lon="1.32679">
        <ele>256</ele>
        <time>2019-04-14T11:19:45Z</time>
      </trkpt>
      <trkpt lat="44.43363" lon="1.32678">
        <ele>256</ele>
        <time>2019-04-14T11:19:46Z</time>
      </trkpt>
      <trkpt lat="44.43365" lon="1.32677">
        <ele>256</ele>
        <time>2019-04-14T11:19:47Z</time>
      </trkpt>
      <trkpt lat="44.43367" lon="1.32676">
        <ele>257</ele>
        <time>2019-04-14T11:19:48Z</time>
      </trkpt>
      <trkpt lat="44.43369" lon="1.32674">
        <ele>257</ele>
        <time>2019-04-14T11:19:49Z</time>
      </trkpt>
      <trkpt lat="44.4337" lon="1.32673">
        <ele>257</ele>
        <time>2019-04-14T11:19:50Z</time>
      </trkpt>
      <trkpt lat="44.43371" lon="1.32671">
        <ele>257</ele>
        <time>2019-04-14T11:19:51Z</time>
      </trkpt>
      <trkpt lat="44.43372" lon="1.32669">
        <ele>257</ele>
        <time>2019-04-14T11:19:52Z</time>
      </trkpt>
      <trkpt lat="44.43374" lon="1.32669">
        <ele>257</ele>
        <time>2019-04-14T11:19:53Z</time>
      </trkpt>
      <trkpt lat="44.43375" lon="1.32669">
        <ele>257</ele>
        <time>2019-04-14T11:19:54Z</time>
      </trkpt>
      <trkpt lat="44.43377" lon="1.32668">
        <ele>257</ele>
        <time>2019-04-14T11:19:55Z</time>
      </trkpt>
      <trkpt lat="44.43379" lon="1.32668">
        <ele>257</ele>
        <time>2019-04-14T11:19:56Z</time>
      </trkpt>
      <trkpt lat="44.4338" lon="1.32667">
        <ele>257</ele>
        <time>2019-04-14T11:19:57Z</time>
      </trkpt>
      <trkpt lat="44.43382" lon="1.32666">
        <ele>258</ele>
        <time>2019-04-14T11:19:58Z</time>
      </trkpt>
      <trkpt lat="44.43383" lon="1.32665">
        <ele>258</ele>
        <time>2019-04-14T11:19:59Z</time>
      </trkpt>
      <trkpt lat="44.43385" lon="1.32664">
        <ele>258</ele>
        <time>2019-04-14T11:20:00Z</time>
      </trkpt>
      <trkpt lat="44.43387" lon="1.32663">
        <ele>258</ele>
        <time>2019-04-14T11:20:01Z</time>
      </trkpt>
      <trkpt lat="44.43388" lon="1.32662">
        <ele>258</ele>
        <time>2019-04-14T11:20:02Z</time>
      </trkpt>
      <trkpt lat="44.4339" lon="1.32661">
        <ele>258</ele>
        <time>2019-04-14T11:20:03Z</time>
      </trkpt>
      <trkpt lat="44.43392" lon="1.3266">
        <ele>258</ele>
        <time>2019-04-14T11:20:04Z</time>
      </trkpt>
      <trkpt lat="44.43393" lon="1.32659">
        <ele>258</ele>
        <time>2019-04-14T11:20:05Z</time>
      </trkpt>
      <trkpt lat="44.43395" lon="1.32659">
        <ele>259</ele>
        <time>2019-04-14T11:20:06Z</time>
      </trkpt>
      <trkpt lat="44.43396" lon="1.32659">
        <ele>259</ele>
        <time>2019-04-14T11:20:07Z</time>
      </trkpt>
      <trkpt lat="44.43398" lon="1.32658">
        <ele>259</ele>
        <time>2019-04-14T11:20:08Z</time>
      </trkpt>
      <trkpt lat="44.43399" lon="1.32658">
        <ele>259</ele>
        <time>2019-04-14T11:20:09Z</time>
      </trkpt>
      <trkpt lat="44.43401" lon="1.32658">
        <ele>259</ele>
        <time>2019-04-14T11:20:10Z</time>
      </trkpt>
      <trkpt lat="44.43403" lon="1.32658">
        <ele>259</ele>
        <time>2019-04-14T11:20:11Z</time>
      </trkpt>
      <trkpt lat="44.43404" lon="1.32657">
        <ele>260</ele>
        <time>2019-04-14T11:20:12Z</time>
      </trkpt>
      <trkpt lat="44.43407" lon="1.32657">
        <ele>260</ele>
        <time>2019-04-14T11:20:13Z</time>
      </trkpt>
      <trkpt lat="44.43409" lon="1.32657">
        <ele>260</ele>
        <time>2019-04-14T11:20:14Z</time>
      </trkpt>
      <trkpt lat="44.4341" lon="1.32657">
        <ele>260</ele>
        <time>2019-04-14T11:20:15Z</time>
      </trkpt>
      <trkpt lat="44.43412" lon="1.32657">
        <ele>260</ele>
        <time>2019-04-14T11:20:16Z</time>
      </trkpt>
      <trkpt lat="44.43414" lon="1.32656">
        <ele>260</ele>
        <time>2019-04-14T11:20:17Z</time>
      </trkpt>
      <trkpt lat="44.43415" lon="1.32656">
        <ele>261</ele>
        <time>2019-04-14T11:20:18Z</time>
      </trkpt>
      <trkpt lat="44.43417" lon="1.32655">
        <ele>261</ele>
        <time>2019-04-14T11:20:19Z</time>
      </trkpt>
      <trkpt lat="44.43418" lon="1.32655">
        <ele>261</ele>
        <time>2019-04-14T11:20:20Z</time>
      </trkpt>
      <trkpt lat="44.43419" lon="1.32654">
        <ele>261</ele>
        <time>2019-04-14T11:20:21Z</time>
      </trkpt>
      <trkpt lat="44.43421" lon="1.32653">
        <ele>261</ele>
        <time>2019-04-14T11:20:22Z</time>
      </trkpt>
      <trkpt lat="44.43422" lon="1.32652">
        <ele>261</ele>
        <time>2019-04-14T11:20:23Z</time>
      </trkpt>
      <trkpt lat="44.43424" lon="1.32652">
        <ele>261</ele>
        <time>2019-04-14T11:20:24Z</time>
      </trkpt>
      <trkpt lat="44.43426" lon="1.32652">
        <ele>262</ele>
        <time>2019-04-14T11:20:25Z</time>
      </trkpt>
      <trkpt lat="44.43427" lon="1.32651">
        <ele>262</ele>
        <time>2019-04-14T11:20:26Z</time>
      </trkpt>
      <trkpt lat="44.43429" lon="1.3265">
        <ele>262</ele>
        <time>2019-04-14T11:20:27Z</time>
      </trkpt>
      <trkpt lat="44.4343" lon="1.32649">
        <ele>262</ele>
        <time>2019-04-14T11:20:28Z</time>
      </trkpt>
      <trkpt lat="44.43431" lon="1.32648">
        <ele>262</ele>
        <time>2019-04-14T11:20:29Z</time>
      </trkpt>
      <trkpt lat="44.43433" lon="1.32647">
        <ele>262</ele>
        <time>2019-04-14T11:20:30Z</time>
      </trkpt>
      <trkpt lat="44.43434" lon="1.32646">
        <ele>262</ele>
        <time>2019-04-14T11:20:31Z</time>
      </trkpt>
      <trkpt lat="44.43436" lon="1.32646">
        <ele>263</ele>
        <time>2019-04-14T11:20:32Z</time>
      </trkpt>
      <trkpt lat="44.43438" lon="1.32646">
        <ele>263</ele>
        <time>2019-04-14T11:20:33Z</time>
      </trkpt>
      <trkpt lat="44.43439" lon="1.32645">
        <ele>263</ele>
        <time>2019-04-14T11:20:34Z</time>
      </trkpt>
      <trkpt lat="44.4344" lon="1.32645">
        <ele>263</ele>
        <time>2019-04-14T11:20:35Z</time>
      </trkpt>
      <trkpt lat="44.43441" lon="1.32645">
        <ele>263</ele>
        <time>2019-04-14T11:20:36Z</time>
      </trkpt>
      <trkpt lat="44.43443" lon="1.32644">
        <ele>263</ele>
        <time>2019-04-14T11:20:37Z</time>
      </trkpt>
      <trkpt lat="44.43444" lon="1.32643">
        <ele>264</ele>
        <time>2019-04-14T11:20:38Z</time>
      </trkpt>
      <trkpt lat="44.43446" lon="1.32642">
        <ele>264</ele>
        <time>2019-04-14T11:20:39Z</time>
      </trkpt>
      <trkpt lat="44.43447" lon="1.32642">
        <ele>264</ele>
        <time>2019-04-14T11:20:40Z</time>
      </trkpt>
      <trkpt lat="44.43448" lon="1.32641">
        <ele>264</ele>
        <time>2019-04-14T11:20:41Z</time>
      </trkpt>
      <trkpt lat="44.43449" lon="1.3264">
        <ele>264</ele>
        <time>2019-04-14T11:20:42Z</time>
      </trkpt>
      <trkpt lat="44.4345" lon="1.32638">
        <ele>264</ele>
        <time>2019-04-14T11:20:43Z</time>
      </trkpt>
      <trkpt lat="44.43451" lon="1.32637">
        <ele>264</ele>
        <time>2019-04-14T11:20:44Z</time>
      </trkpt>
      <trkpt lat="44.43452" lon="1.32636">
        <ele>264</ele>
        <time>2019-04-14T11:20:45Z</time>
      </trkpt>
      <trkpt lat="44.43453" lon="1.32634">
        <ele>264</ele>
        <time>2019-04-14T11:20:46Z</time>
      </trkpt>
      <trkpt lat="44.43454" lon="1.32632">
        <ele>265</ele>
        <time>2019-04-14T11:20:47Z</time>
      </trkpt>
      <trkpt lat="44.43456" lon="1.32631">
        <ele>265</ele>
        <time>2019-04-14T11:20:48Z</time>
      </trkpt>
      <trkpt lat="44.43456" lon="1.32629">
        <ele>265</ele>
        <time>2019-04-14T11:20:49Z</time>
      </trkpt>
      <trkpt lat="44.43457" lon="1.32628">
        <ele>265</ele>
        <time>2019-04-14T11:20:50Z</time>
      </trkpt>
      <trkpt lat="44.43458" lon="1.32626">
        <ele>265</ele>
        <time>2019-04-14T11:20:51Z</time>
      </trkpt>
      <trkpt lat="44.4346" lon="1.32625">
        <ele>265</ele>
        <time>2019-04-14T11:20:52Z</time>
      </trkpt>
      <trkpt lat="44.43461" lon="1.32624">
        <ele>266</ele>
        <time>2019-04-14T11:20:53Z</time>
      </trkpt>
      <trkpt lat="44.43462" lon="1.32623">
        <ele>266</ele>
        <time>2019-04-14T11:20:54Z</time>
      </trkpt>
      <trkpt lat="44.43464" lon="1.32621">
        <ele>266</ele>
        <time>2019-04-14T11:20:55Z</time>
      </trkpt>
      <trkpt lat="44.43465" lon="1.32618">
        <ele>266</ele>
        <time>2019-04-14T11:20:56Z</time>
      </trkpt>
      <trkpt lat="44.43466" lon="1.32617">
        <ele>266</ele>
        <time>2019-04-14T11:20:57Z</time>
      </trkpt>
      <trkpt lat="44.43467" lon="1.32616">
        <ele>267</ele>
        <time>2019-04-14T11:20:58Z</time>
      </trkpt>
      <trkpt lat="44.43468" lon="1.32614">
        <ele>267</ele>
        <time>2019-04-14T11:20:59Z</time>
      </trkpt>
      <trkpt lat="44.43469" lon="1.32613">
        <ele>267</ele>
        <time>2019-04-14T11:21:00Z</time>
      </trkpt>
      <trkpt lat="44.43469" lon="1.32612">
        <ele>267</ele>
        <time>2019-04-14T11:21:01Z</time>
      </trkpt>
      <trkpt lat="44.4347" lon="1.32612">
        <ele>267</ele>
        <time>2019-04-14T11:21:02Z</time>
      </trkpt>
      <trkpt lat="44.4347" lon="1.32611">
        <ele>267</ele>
        <time>2019-04-14T11:21:03Z</time>
      </trkpt>
      <trkpt lat="44.4347" lon="1.32611">
        <ele>267</ele>
        <time>2019-04-14T11:21:04Z</time>
      </trkpt>
      <trkpt lat="44.4347" lon="1.32611">
        <ele>267</ele>
        <time>2019-04-14T11:21:05Z</time>
      </trkpt>
      <trkpt lat="44.4347" lon="1.32611">
        <ele>267</ele>
        <time>2019-04-14T11:21:06Z</time>
      </trkpt>
      <trkpt lat="44.4347" lon="1.32611">
        <ele>267</ele>
        <time>2019-04-14T11:21:07Z</time>
      </trkpt>
      <trkpt lat="44.4347" lon="1.3261">
        <ele>267</ele>
        <time>2019-04-14T11:21:08Z</time>
      </trkpt>
      <trkpt lat="44.43486" lon="1.32586">
        <ele>270</ele>
        <time>2019-04-14T11:21:24Z</time>
      </trkpt>
      <trkpt lat="44.43487" lon="1.32584">
        <ele>271</ele>
        <time>2019-04-14T11:21:25Z</time>
      </trkpt>
      <trkpt lat="44.43488" lon="1.32583">
        <ele>271</ele>
        <time>2019-04-14T11:21:26Z</time>
      </trkpt>
      <trkpt lat="44.43489" lon="1.32581">
        <ele>271</ele>
        <time>2019-04-14T11:21:27Z</time>
      </trkpt>
      <trkpt lat="44.4349" lon="1.32578">
        <ele>271</ele>
        <time>2019-04-14T11:21:28Z</time>
      </trkpt>
      <trkpt lat="44.43491" lon="1.32575">
        <ele>271</ele>
        <time>2019-04-14T11:21:29Z</time>
      </trkpt>
      <trkpt lat="44.43491" lon="1.32572">
        <ele>271</ele>
        <time>2019-04-14T11:21:30Z</time>
      </trkpt>
      <trkpt lat="44.43492" lon="1.32569">
        <ele>272</ele>
        <time>2019-04-14T11:21:31Z</time>
      </trkpt>
      <trkpt lat="44.43494" lon="1.32567">
        <ele>272</ele>
        <time>2019-04-14T11:21:32Z</time>
      </trkpt>
      <trkpt lat="44.43494" lon="1.32563">
        <ele>272</ele>
        <time>2019-04-14T11:21:33Z</time>
      </trkpt>
      <trkpt lat="44.43496" lon="1.32562">
        <ele>272</ele>
        <time>2019-04-14T11:21:34Z</time>
      </trkpt>
      <trkpt lat="44.43497" lon="1.32559">
        <ele>272</ele>
        <time>2019-04-14T11:21:35Z</time>
      </trkpt>
      <trkpt lat="44.43497" lon="1.32556">
        <ele>273</ele>
        <time>2019-04-14T11:21:36Z</time>
      </trkpt>
      <trkpt lat="44.43498" lon="1.32553">
        <ele>273</ele>
        <time>2019-04-14T11:21:37Z</time>
      </trkpt>
      <trkpt lat="44.43499" lon="1.3255">
        <ele>273</ele>
        <time>2019-04-14T11:21:38Z</time>
      </trkpt>
      <trkpt lat="44.435" lon="1.32547">
        <ele>273</ele>
        <time>2019-04-14T11:21:39Z</time>
      </trkpt>
      <trkpt lat="44.43501" lon="1.32544">
        <ele>273</ele>
        <time>2019-04-14T11:21:40Z</time>
      </trkpt>
      <trkpt lat="44.43502" lon="1.32541">
        <ele>273</ele>
        <time>2019-04-14T11:21:41Z</time>
      </trkpt>
      <trkpt lat="44.43502" lon="1.32538">
        <ele>273</ele>
        <time>2019-04-14T11:21:42Z</time>
      </trkpt>
      <trkpt lat="44.43503" lon="1.32535">
        <ele>273</ele>
        <time>2019-04-14T11:21:43Z</time>
      </trkpt>
      <trkpt lat="44.43503" lon="1.32532">
        <ele>273</ele>
        <time>2019-04-14T11:21:44Z</time>
      </trkpt>
      <trkpt lat="44.43503" lon="1.32529">
        <ele>273</ele>
        <time>2019-04-14T11:21:45Z</time>
      </trkpt>
      <trkpt lat="44.43504" lon="1.32525">
        <ele>274</ele>
        <time>2019-04-14T11:21:46Z</time>
      </trkpt>
      <trkpt lat="44.43504" lon="1.32522">
        <ele>274</ele>
        <time>2019-04-14T11:21:47Z</time>
      </trkpt>
      <trkpt lat="44.43504" lon="1.32519">
        <ele>274</ele>
        <time>2019-04-14T11:21:48Z</time>
      </trkpt>
      <trkpt lat="44.43505" lon="1.32516">
        <ele>274</ele>
        <time>2019-04-14T11:21:49Z</time>
      </trkpt>
      <trkpt lat="44.43505" lon="1.32513">
        <ele>274</ele>
        <time>2019-04-14T11:21:50Z</time>
      </trkpt>
      <trkpt lat="44.43505" lon="1.3251">
        <ele>274</ele>
        <time>2019-04-14T11:21:51Z</time>
      </trkpt>
      <trkpt lat="44.43506" lon="1.32506">
        <ele>274</ele>
        <time>2019-04-14T11:21:52Z</time>
      </trkpt>
      <trkpt lat="44.43506" lon="1.32502">
        <ele>274</ele>
        <time>2019-04-14T11:21:53Z</time>
      </trkpt>
      <trkpt lat="44.43507" lon="1.32498">
        <ele>274</ele>
        <time>2019-04-14T11:21:54Z</time>
      </trkpt>
      <trkpt lat="44.43507" lon="1.32495">
        <ele>274</ele>
        <time>2019-04-14T11:21:55Z</time>
      </trkpt>
      <trkpt lat="44.43508" lon="1.32492">
        <ele>274</ele>
        <time>2019-04-14T11:21:56Z</time>
      </trkpt>
      <trkpt lat="44.43509" lon="1.32489">
        <ele>275</ele>
        <time>2019-04-14T11:21:57Z</time>
      </trkpt>
      <trkpt lat="44.4351" lon="1.32487">
        <ele>275</ele>
        <time>2019-04-14T11:21:58Z</time>
      </trkpt>
      <trkpt lat="44.43512" lon="1.32484">
        <ele>275</ele>
        <time>2019-04-14T11:21:59Z</time>
      </trkpt>
      <trkpt lat="44.43513" lon="1.32481">
        <ele>275</ele>
        <time>2019-04-14T11:22:00Z</time>
      </trkpt>
      <trkpt lat="44.43515" lon="1.32478">
        <ele>275</ele>
        <time>2019-04-14T11:22:01Z</time>
      </trkpt>
      <trkpt lat="44.43516" lon="1.32474">
        <ele>275</ele>
        <time>2019-04-14T11:22:02Z</time>
      </trkpt>
      <trkpt lat="44.43517" lon="1.32471">
        <ele>275</ele>
        <time>2019-04-14T11:22:03Z</time>
      </trkpt>
      <trkpt lat="44.43519" lon="1.32468">
        <ele>275</ele>
        <time>2019-04-14T11:22:04Z</time>
      </trkpt>
      <trkpt lat="44.4352" lon="1.32465">
        <ele>275</ele>
        <time>2019-04-14T11:22:05Z</time>
      </trkpt>
      <trkpt lat="44.4352" lon="1.32461">
        <ele>275</ele>
        <time>2019-04-14T11:22:06Z</time>
      </trkpt>
      <trkpt lat="44.43521" lon="1.32458">
        <ele>275</ele>
        <time>2019-04-14T11:22:07Z</time>
      </trkpt>
      <trkpt lat="44.43523" lon="1.32455">
        <ele>275</ele>
        <time>2019-04-14T11:22:08Z</time>
      </trkpt>
      <trkpt lat="44.43525" lon="1.32453">
        <ele>275</ele>
        <time>2019-04-14T11:22:09Z</time>
      </trkpt>
      <trkpt lat="44.43528" lon="1.32452">
        <ele>275</ele>
        <time>2019-04-14T11:22:10Z</time>
      </trkpt>
      <trkpt lat="44.4353" lon="1.32451">
        <ele>275</ele>
        <time>2019-04-14T11:22:11Z</time>
      </trkpt>
      <trkpt lat="44.43533" lon="1.32451">
        <ele>275</ele>
        <time>2019-04-14T11:22:12Z</time>
      </trkpt>
      <trkpt lat="44.43535" lon="1.3245">
        <ele>275</ele>
        <time>2019-04-14T11:22:13Z</time>
      </trkpt>
      <trkpt lat="44.43537" lon="1.32449">
        <ele>275</ele>
        <time>2019-04-14T11:22:14Z</time>
      </trkpt>
      <trkpt lat="44.43539" lon="1.32448">
        <ele>275</ele>
        <time>2019-04-14T11:22:15Z</time>
      </trkpt>
      <trkpt lat="44.43541" lon="1.32446">
        <ele>275</ele>
        <time>2019-04-14T11:22:16Z</time>
      </trkpt>
      <trkpt lat="44.43544" lon="1.32445">
        <ele>275</ele>
        <time>2019-04-14T11:22:17Z</time>
      </trkpt>
      <trkpt lat="44.43546" lon="1.32444">
        <ele>275</ele>
        <time>2019-04-14T11:22:18Z</time>
      </trkpt>
      <trkpt lat="44.43548" lon="1.32443">
        <ele>275</ele>
        <time>2019-04-14T11:22:19Z</time>
      </trkpt>
      <trkpt lat="44.4355" lon="1.32441">
        <ele>275</ele>
        <time>2019-04-14T11:22:20Z</time>
      </trkpt>
      <trkpt lat="44.43552" lon="1.3244">
        <ele>275</ele>
        <time>2019-04-14T11:22:21Z</time>
      </trkpt>
      <trkpt lat="44.43555" lon="1.32441">
        <ele>275</ele>
        <time>2019-04-14T11:22:22Z</time>
      </trkpt>
      <trkpt lat="44.43558" lon="1.32442">
        <ele>275</ele>
        <time>2019-04-14T11:22:23Z</time>
      </trkpt>
      <trkpt lat="44.43561" lon="1.32444">
        <ele>275</ele>
        <time>2019-04-14T11:22:24Z</time>
      </trkpt>
      <trkpt lat="44.43563" lon="1.32447">
        <ele>275</ele>
        <time>2019-04-14T11:22:25Z</time>
      </trkpt>
      <trkpt lat="44.43563" lon="1.32451">
        <ele>275</ele>
        <time>2019-04-14T11:22:26Z</time>
      </trkpt>
      <trkpt lat="44.43563" lon="1.32454">
        <ele>275</ele>
        <time>2019-04-14T11:22:27Z</time>
      </trkpt>
      <trkpt lat="44.43563" lon="1.32458">
        <ele>275</ele>
        <time>2019-04-14T11:22:28Z</time>
      </trkpt>
      <trkpt lat="44.43563" lon="1.32462">
        <ele>275</ele>
        <time>2019-04-14T11:22:29Z</time>
      </trkpt>
      <trkpt lat="44.43562" lon="1.32466">
        <ele>275</ele>
        <time>2019-04-14T11:22:30Z</time>
      </trkpt>
      <trkpt lat="44.43561" lon="1.3247">
        <ele>275</ele>
        <time>2019-04-14T11:22:31Z</time>
      </trkpt>
      <trkpt lat="44.4356" lon="1.32473">
        <ele>275</ele>
        <time>2019-04-14T11:22:32Z</time>
      </trkpt>
      <trkpt lat="44.43559" lon="1.32476">
        <ele>275</ele>
        <time>2019-04-14T11:22:33Z</time>
      </trkpt>
      <trkpt lat="44.43558" lon="1.3248">
        <ele>275</ele>
        <time>2019-04-14T11:22:34Z</time>
      </trkpt>
      <trkpt lat="44.43556" lon="1.32484">
        <ele>275</ele>
        <time>2019-04-14T11:22:35Z</time>
      </trkpt>
      <trkpt lat="44.43555" lon="1.32488">
        <ele>275</ele>
        <time>2019-04-14T11:22:36Z</time>
      </trkpt>
      <trkpt lat="44.43554" lon="1.32492">
        <ele>275</ele>
        <time>2019-04-14T11:22:37Z</time>
      </trkpt>
      <trkpt lat="44.43553" lon="1.32496">
        <ele>275</ele>
        <time>2019-04-14T11:22:38Z</time>
      </trkpt>
      <trkpt lat="44.43552" lon="1.32501">
        <ele>276</ele>
        <time>2019-04-14T11:22:39Z</time>
      </trkpt>
      <trkpt lat="44.43552" lon="1.32506">
        <ele>276</ele>
        <time>2019-04-14T11:22:40Z</time>
      </trkpt>
      <trkpt lat="44.43552" lon="1.32511">
        <ele>276</ele>
        <time>2019-04-14T11:22:41Z</time>
      </trkpt>
      <trkpt lat="44.43552" lon="1.32516">
        <ele>276</ele>
        <time>2019-04-14T11:22:42Z</time>
      </trkpt>
      <trkpt lat="44.43554" lon="1.3252">
        <ele>276</ele>
        <time>2019-04-14T11:22:43Z</time>
      </trkpt>
      <trkpt lat="44.43556" lon="1.32525">
        <ele>276</ele>
        <time>2019-04-14T11:22:44Z</time>
      </trkpt>
      <trkpt lat="44.43558" lon="1.32529">
        <ele>276</ele>
        <time>2019-04-14T11:22:45Z</time>
      </trkpt>
      <trkpt lat="44.4356" lon="1.32534">
        <ele>276</ele>
        <time>2019-04-14T11:22:46Z</time>
      </trkpt>
      <trkpt lat="44.43562" lon="1.32538">
        <ele>276</ele>
        <time>2019-04-14T11:22:47Z</time>
      </trkpt>
      <trkpt lat="44.43564" lon="1.32542">
        <ele>276</ele>
        <time>2019-04-14T11:22:48Z</time>
      </trkpt>
      <trkpt lat="44.43567" lon="1.32547">
        <ele>276</ele>
        <time>2019-04-14T11:22:49Z</time>
      </trkpt>
      <trkpt lat="44.43568" lon="1.32551">
        <ele>276</ele>
        <time>2019-04-14T11:22:50Z</time>
      </trkpt>
      <trkpt lat="44.43571" lon="1.32556">
        <ele>276</ele>
        <time>2019-04-14T11:22:51Z</time>
      </trkpt>
      <trkpt lat="44.43573" lon="1.3256">
        <ele>276</ele>
        <time>2019-04-14T11:22:52Z</time>
      </trkpt>
      <trkpt lat="44.43574" lon="1.32565">
        <ele>276</ele>
        <time>2019-04-14T11:22:53Z</time>
      </trkpt>
      <trkpt lat="44.43576" lon="1.3257">
        <ele>276</ele>
        <time>2019-04-14T11:22:54Z</time>
      </trkpt>
      <trkpt lat="44.43578" lon="1.32575">
        <ele>276</ele>
        <time>2019-04-14T11:22:55Z</time>
      </trkpt>
      <trkpt lat="44.43579" lon="1.3258">
        <ele>276</ele>
        <time>2019-04-14T11:22:56Z</time>
      </trkpt>
      <trkpt lat="44.43581" lon="1.32585">
        <ele>277</ele>
        <time>2019-04-14T11:22:57Z</time>
      </trkpt>
      <trkpt lat="44.43582" lon="1.3259">
        <ele>277</ele>
        <time>2019-04-14T11:22:58Z</time>
      </trkpt>
      <trkpt lat="44.43583" lon="1.32596">
        <ele>276</ele>
        <time>2019-04-14T11:22:59Z</time>
      </trkpt>
      <trkpt lat="44.43584" lon="1.32601">
        <ele>277</ele>
        <time>2019-04-14T11:23:00Z</time>
      </trkpt>
      <trkpt lat="44.43585" lon="1.32606">
        <ele>276</ele>
        <time>2019-04-14T11:23:01Z</time>
      </trkpt>
      <trkpt lat="44.43586" lon="1.32612">
        <ele>277</ele>
        <time>2019-04-14T11:23:02Z</time>
      </trkpt>
      <trkpt lat="44.43587" lon="1.32617">
        <ele>276</ele>
        <time>2019-04-14T11:23:03Z</time>
      </trkpt>
      <trkpt lat="44.43587" lon="1.32623">
        <ele>276</ele>
        <time>2019-04-14T11:23:04Z</time>
      </trkpt>
      <trkpt lat="44.43588" lon="1.32628">
        <ele>276</ele>
        <time>2019-04-14T11:23:05Z</time>
      </trkpt>
      <trkpt lat="44.43589" lon="1.32634">
        <ele>276</ele>
        <time>2019-04-14T11:23:06Z</time>
      </trkpt>
      <trkpt lat="44.4359" lon="1.32639">
        <ele>276</ele>
        <time>2019-04-14T11:23:07Z</time>
      </trkpt>
      <trkpt lat="44.43591" lon="1.32645">
        <ele>277</ele>
        <time>2019-04-14T11:23:08Z</time>
      </trkpt>
      <trkpt lat="44.43592" lon="1.3265">
        <ele>276</ele>
        <time>2019-04-14T11:23:09Z</time>
      </trkpt>
      <trkpt lat="44.43593" lon="1.32656">
        <ele>276</ele>
        <time>2019-04-14T11:23:10Z</time>
      </trkpt>
      <trkpt lat="44.43594" lon="1.32662">
        <ele>276</ele>
        <time>2019-04-14T11:23:11Z</time>
      </trkpt>
      <trkpt lat="44.43595" lon="1.32668">
        <ele>277</ele>
        <time>2019-04-14T11:23:12Z</time>
      </trkpt>
      <trkpt lat="44.43597" lon="1.32672">
        <ele>277</ele>
        <time>2019-04-14T11:23:13Z</time>
      </trkpt>
      <trkpt lat="44.43599" lon="1.32677">
        <ele>277</ele>
        <time>2019-04-14T11:23:14Z</time>
      </trkpt>
      <trkpt lat="44.43602" lon="1.3268">
        <ele>277</ele>
        <time>2019-04-14T11:23:15Z</time>
      </trkpt>
      <trkpt lat="44.43606" lon="1.32681">
        <ele>276</ele>
        <time>2019-04-14T11:23:16Z</time>
      </trkpt>
      <trkpt lat="44.43609" lon="1.32682">
        <ele>276</ele>
        <time>2019-04-14T11:23:17Z</time>
      </trkpt>
      <trkpt lat="44.43613" lon="1.32682">
        <ele>276</ele>
        <time>2019-04-14T11:23:18Z</time>
      </trkpt>
      <trkpt lat="44.43616" lon="1.32682">
        <ele>276</ele>
        <time>2019-04-14T11:23:19Z</time>
      </trkpt>
      <trkpt lat="44.4362" lon="1.32682">
        <ele>276</ele>
        <time>2019-04-14T11:23:20Z</time>
      </trkpt>
      <trkpt lat="44.43624" lon="1.32682">
        <ele>276</ele>
        <time>2019-04-14T11:23:21Z</time>
      </trkpt>
      <trkpt lat="44.43628" lon="1.32682">
        <ele>276</ele>
        <time>2019-04-14T11:23:22Z</time>
      </trkpt>
      <trkpt lat="44.43632" lon="1.32682">
        <ele>276</ele>
        <time>2019-04-14T11:23:23Z</time>
      </trkpt>
      <trkpt lat="44.43636" lon="1.32682">
        <ele>275</ele>
        <time>2019-04-14T11:23:24Z</time>
      </trkpt>
      <trkpt lat="44.43641" lon="1.32682">
        <ele>275</ele>
        <time>2019-04-14T11:23:25Z</time>
      </trkpt>
      <trkpt lat="44.43645" lon="1.32683">
        <ele>275</ele>
        <time>2019-04-14T11:23:26Z</time>
      </trkpt>
      <trkpt lat="44.4365" lon="1.32683">
        <ele>275</ele>
        <time>2019-04-14T11:23:27Z</time>
      </trkpt>
      <trkpt lat="44.43654" lon="1.32684">
        <ele>275</ele>
        <time>2019-04-14T11:23:28Z</time>
      </trkpt>
      <trkpt lat="44.43659" lon="1.32685">
        <ele>275</ele>
        <time>2019-04-14T11:23:29Z</time>
      </trkpt>
      <trkpt lat="44.43664" lon="1.32686">
        <ele>275</ele>
        <time>2019-04-14T11:23:30Z</time>
      </trkpt>
      <trkpt lat="44.43669" lon="1.32688">
        <ele>275</ele>
        <time>2019-04-14T11:23:31Z</time>
      </trkpt>
      <trkpt lat="44.43674" lon="1.32689">
        <ele>274</ele>
        <time>2019-04-14T11:23:32Z</time>
      </trkpt>
      <trkpt lat="44.43679" lon="1.32691">
        <ele>274</ele>
        <time>2019-04-14T11:23:33Z</time>
      </trkpt>
      <trkpt lat="44.43683" lon="1.32693">
        <ele>274</ele>
        <time>2019-04-14T11:23:34Z</time>
      </trkpt>
      <trkpt lat="44.43689" lon="1.32695">
        <ele>274</ele>
        <time>2019-04-14T11:23:35Z</time>
      </trkpt>
      <trkpt lat="44.43694" lon="1.32697">
        <ele>274</ele>
        <time>2019-04-14T11:23:36Z</time>
      </trkpt>
      <trkpt lat="44.43699" lon="1.32699">
        <ele>274</ele>
        <time>2019-04-14T11:23:37Z</time>
      </trkpt>
      <trkpt lat="44.43704" lon="1.32701">
        <ele>274</ele>
        <time>2019-04-14T11:23:38Z</time>
      </trkpt>
      <trkpt lat="44.43708" lon="1.32703">
        <ele>274</ele>
        <time>2019-04-14T11:23:39Z</time>
      </trkpt>
      <trkpt lat="44.43712" lon="1.32706">
        <ele>273</ele>
        <time>2019-04-14T11:23:40Z</time>
      </trkpt>
      <trkpt lat="44.43717" lon="1.32709">
        <ele>273</ele>
        <time>2019-04-14T11:23:41Z</time>
      </trkpt>
      <trkpt lat="44.43722" lon="1.32712">
        <ele>273</ele>
        <time>2019-04-14T11:23:42Z</time>
      </trkpt>
      <trkpt lat="44.43728" lon="1.32714">
        <ele>273</ele>
        <time>2019-04-14T11:23:43Z</time>
      </trkpt>
      <trkpt lat="44.43733" lon="1.32717">
        <ele>273</ele>
        <time>2019-04-14T11:23:44Z</time>
      </trkpt>
      <trkpt lat="44.43738" lon="1.3272">
        <ele>273</ele>
        <time>2019-04-14T11:23:45Z</time>
      </trkpt>
      <trkpt lat="44.43743" lon="1.32722">
        <ele>272</ele>
        <time>2019-04-14T11:23:46Z</time>
      </trkpt>
      <trkpt lat="44.43749" lon="1.32725">
        <ele>272</ele>
        <time>2019-04-14T11:23:47Z</time>
      </trkpt>
      <trkpt lat="44.43755" lon="1.32727">
        <ele>272</ele>
        <time>2019-04-14T11:23:48Z</time>
      </trkpt>
      <trkpt lat="44.4376" lon="1.3273">
        <ele>272</ele>
        <time>2019-04-14T11:23:49Z</time>
      </trkpt>
      <trkpt lat="44.43766" lon="1.32733">
        <ele>272</ele>
        <time>2019-04-14T11:23:50Z</time>
      </trkpt>
      <trkpt lat="44.43771" lon="1.32736">
        <ele>272</ele>
        <time>2019-04-14T11:23:51Z</time>
      </trkpt>
      <trkpt lat="44.43776" lon="1.32738">
        <ele>272</ele>
        <time>2019-04-14T11:23:52Z</time>
      </trkpt>
      <trkpt lat="44.43781" lon="1.3274">
        <ele>272</ele>
        <time>2019-04-14T11:23:53Z</time>
      </trkpt>
      <trkpt lat="44.43785" lon="1.32742">
        <ele>271</ele>
        <time>2019-04-14T11:23:54Z</time>
      </trkpt>
      <trkpt lat="44.4379" lon="1.32744">
        <ele>271</ele>
        <time>2019-04-14T11:23:55Z</time>
      </trkpt>
      <trkpt lat="44.43795" lon="1.32746">
        <ele>271</ele>
        <time>2019-04-14T11:23:56Z</time>
      </trkpt>
      <trkpt lat="44.43798" lon="1.3275">
        <ele>271</ele>
        <time>2019-04-14T11:23:57Z</time>
      </trkpt>
      <trkpt lat="44.43801" lon="1.32754">
        <ele>271</ele>
        <time>2019-04-14T11:23:58Z</time>
      </trkpt>
      <trkpt lat="44.43804" lon="1.32759">
        <ele>271</ele>
        <time>2019-04-14T11:23:59Z</time>
      </trkpt>
      <trkpt lat="44.43808" lon="1.32763">
        <ele>271</ele>
        <time>2019-04-14T11:24:00Z</time>
      </trkpt>
      <trkpt lat="44.43812" lon="1.32767">
        <ele>271</ele>
        <time>2019-04-14T11:24:01Z</time>
      </trkpt>
      <trkpt lat="44.43816" lon="1.3277">
        <ele>271</ele>
        <time>2019-04-14T11:24:02Z</time>
      </trkpt>
      <trkpt lat="44.43821" lon="1.32773">
        <ele>271</ele>
        <time>2019-04-14T11:24:03Z</time>
      </trkpt>
      <trkpt lat="44.43825" lon="1.32776">
        <ele>271</ele>
        <time>2019-04-14T11:24:04Z</time>
      </trkpt>
      <trkpt lat="44.43829" lon="1.32778">
        <ele>271</ele>
        <time>2019-04-14T11:24:05Z</time>
      </trkpt>
      <trkpt lat="44.43833" lon="1.32781">
        <ele>270</ele>
        <time>2019-04-14T11:24:06Z</time>
      </trkpt>
      <trkpt lat="44.43837" lon="1.32784">
        <ele>270</ele>
        <time>2019-04-14T11:24:07Z</time>
      </trkpt>
      <trkpt lat="44.43841" lon="1.32786">
        <ele>270</ele>
        <time>2019-04-14T11:24:08Z</time>
      </trkpt>
      <trkpt lat="44.43844" lon="1.32788">
        <ele>270</ele>
        <time>2019-04-14T11:24:09Z</time>
      </trkpt>
      <trkpt lat="44.43847" lon="1.32791">
        <ele>270</ele>
        <time>2019-04-14T11:24:10Z</time>
      </trkpt>
      <trkpt lat="44.4385" lon="1.32793">
        <ele>270</ele>
        <time>2019-04-14T11:24:11Z</time>
      </trkpt>
      <trkpt lat="44.43853" lon="1.32795">
        <ele>270</ele>
        <time>2019-04-14T11:24:12Z</time>
      </trkpt>
      <trkpt lat="44.43857" lon="1.32797">
        <ele>270</ele>
        <time>2019-04-14T11:24:13Z</time>
      </trkpt>
      <trkpt lat="44.43861" lon="1.32799">
        <ele>270</ele>
        <time>2019-04-14T11:24:14Z</time>
      </trkpt>
      <trkpt lat="44.43865" lon="1.32802">
        <ele>270</ele>
        <time>2019-04-14T11:24:15Z</time>
      </trkpt>
      <trkpt lat="44.43869" lon="1.32804">
        <ele>270</ele>
        <time>2019-04-14T11:24:16Z</time>
      </trkpt>
      <trkpt lat="44.43872" lon="1.32806">
        <ele>270</ele>
        <time>2019-04-14T11:24:17Z</time>
      </trkpt>
      <trkpt lat="44.43876" lon="1.32808">
        <ele>270</ele>
        <time>2019-04-14T11:24:18Z</time>
      </trkpt>
      <trkpt lat="44.43881" lon="1.32809">
        <ele>270</ele>
        <time>2019-04-14T11:24:19Z</time>
      </trkpt>
      <trkpt lat="44.43885" lon="1.3281">
        <ele>270</ele>
        <time>2019-04-14T11:24:20Z</time>
      </trkpt>
      <trkpt lat="44.4389" lon="1.32811">
        <ele>270</ele>
        <time>2019-04-14T11:24:21Z</time>
      </trkpt>
      <trkpt lat="44.43895" lon="1.32812">
        <ele>270</ele>
        <time>2019-04-14T11:24:22Z</time>
      </trkpt>
      <trkpt lat="44.43899" lon="1.32813">
        <ele>270</ele>
        <time>2019-04-14T11:24:23Z</time>
      </trkpt>
      <trkpt lat="44.43902" lon="1.32814">
        <ele>270</ele>
        <time>2019-04-14T11:24:24Z</time>
      </trkpt>
      <trkpt lat="44.43906" lon="1.32815">
        <ele>270</ele>
        <time>2019-04-14T11:24:25Z</time>
      </trkpt>
      <trkpt lat="44.43911" lon="1.32815">
        <ele>270</ele>
        <time>2019-04-14T11:24:26Z</time>
      </trkpt>
      <trkpt lat="44.43915" lon="1.32816">
        <ele>271</ele>
        <time>2019-04-14T11:24:27Z</time>
      </trkpt>
      <trkpt lat="44.43919" lon="1.32817">
        <ele>271</ele>
        <time>2019-04-14T11:24:28Z</time>
      </trkpt>
      <trkpt lat="44.43922" lon="1.32817">
        <ele>271</ele>
        <time>2019-04-14T11:24:29Z</time>
      </trkpt>
      <trkpt lat="44.43926" lon="1.32817">
        <ele>271</ele>
        <time>2019-04-14T11:24:30Z</time>
      </trkpt>
      <trkpt lat="44.4393" lon="1.32817">
        <ele>271</ele>
        <time>2019-04-14T11:24:31Z</time>
      </trkpt>
      <trkpt lat="44.43933" lon="1.32817">
        <ele>271</ele>
        <time>2019-04-14T11:24:32Z</time>
      </trkpt>
      <trkpt lat="44.43937" lon="1.32817">
        <ele>271</ele>
        <time>2019-04-14T11:24:33Z</time>
      </trkpt>
      <trkpt lat="44.43941" lon="1.32817">
        <ele>271</ele>
        <time>2019-04-14T11:24:34Z</time>
      </trkpt>
      <trkpt lat="44.43944" lon="1.32817">
        <ele>271</ele>
        <time>2019-04-14T11:24:35Z</time>
      </trkpt>
      <trkpt lat="44.43949" lon="1.32816">
        <ele>270</ele>
        <time>2019-04-14T11:24:36Z</time>
      </trkpt>
      <trkpt lat="44.43952" lon="1.32816">
        <ele>270</ele>
        <time>2019-04-14T11:24:37Z</time>
      </trkpt>
      <trkpt lat="44.43957" lon="1.32816">
        <ele>270</ele>
        <time>2019-04-14T11:24:38Z</time>
      </trkpt>
      <trkpt lat="44.43961" lon="1.32815">
        <ele>270</ele>
        <time>2019-04-14T11:24:39Z</time>
      </trkpt>
      <trkpt lat="44.43966" lon="1.32815">
        <ele>270</ele>
        <time>2019-04-14T11:24:40Z</time>
      </trkpt>
      <trkpt lat="44.4397" lon="1.32814">
        <ele>270</ele>
        <time>2019-04-14T11:24:41Z</time>
      </trkpt>
      <trkpt lat="44.43975" lon="1.32813">
        <ele>269</ele>
        <time>2019-04-14T11:24:42Z</time>
      </trkpt>
      <trkpt lat="44.4398" lon="1.32811">
        <ele>269</ele>
        <time>2019-04-14T11:24:43Z</time>
      </trkpt>
      <trkpt lat="44.43985" lon="1.32811">
        <ele>269</ele>
        <time>2019-04-14T11:24:44Z</time>
      </trkpt>
      <trkpt lat="44.4399" lon="1.32809">
        <ele>269</ele>
        <time>2019-04-14T11:24:45Z</time>
      </trkpt>
      <trkpt lat="44.43996" lon="1.32808">
        <ele>268</ele>
        <time>2019-04-14T11:24:46Z</time>
      </trkpt>
      <trkpt lat="44.44003" lon="1.32807">
        <ele>268</ele>
        <time>2019-04-14T11:24:47Z</time>
      </trkpt>
      <trkpt lat="44.4401" lon="1.32807">
        <ele>267</ele>
        <time>2019-04-14T11:24:48Z</time>
      </trkpt>
      <trkpt lat="44.44017" lon="1.32807">
        <ele>266</ele>
        <time>2019-04-14T11:24:49Z</time>
      </trkpt>
      <trkpt lat="44.44024" lon="1.32808">
        <ele>265</ele>
        <time>2019-04-14T11:24:50Z</time>
      </trkpt>
      <trkpt lat="44.44032" lon="1.3281">
        <ele>264</ele>
        <time>2019-04-14T11:24:51Z</time>
      </trkpt>
      <trkpt lat="44.44041" lon="1.32813">
        <ele>263</ele>
        <time>2019-04-14T11:24:52Z</time>
      </trkpt>
      <trkpt lat="44.44049" lon="1.32816">
        <ele>261</ele>
        <time>2019-04-14T11:24:53Z</time>
      </trkpt>
      <trkpt lat="44.44057" lon="1.32819">
        <ele>260</ele>
        <time>2019-04-14T11:24:54Z</time>
      </trkpt>
      <trkpt lat="44.44066" lon="1.32823">
        <ele>259</ele>
        <time>2019-04-14T11:24:55Z</time>
      </trkpt>
      <trkpt lat="44.44075" lon="1.32826">
        <ele>257</ele>
        <time>2019-04-14T11:24:56Z</time>
      </trkpt>
      <trkpt lat="44.44084" lon="1.32829">
        <ele>256</ele>
        <time>2019-04-14T11:24:57Z</time>
      </trkpt>
      <trkpt lat="44.44092" lon="1.32833">
        <ele>255</ele>
        <time>2019-04-14T11:24:58Z</time>
      </trkpt>
      <trkpt lat="44.441" lon="1.32836">
        <ele>254</ele>
        <time>2019-04-14T11:24:59Z</time>
      </trkpt>
      <trkpt lat="44.44107" lon="1.32838">
        <ele>253</ele>
        <time>2019-04-14T11:25:00Z</time>
      </trkpt>
      <trkpt lat="44.44115" lon="1.32839">
        <ele>253</ele>
        <time>2019-04-14T11:25:01Z</time>
      </trkpt>
      <trkpt lat="44.44124" lon="1.32839">
        <ele>251</ele>
        <time>2019-04-14T11:25:02Z</time>
      </trkpt>
      <trkpt lat="44.44133" lon="1.32838">
        <ele>251</ele>
        <time>2019-04-14T11:25:03Z</time>
      </trkpt>
      <trkpt lat="44.44141" lon="1.32837">
        <ele>250</ele>
        <time>2019-04-14T11:25:04Z</time>
      </trkpt>
      <trkpt lat="44.4415" lon="1.32838">
        <ele>250</ele>
        <time>2019-04-14T11:25:05Z</time>
      </trkpt>
      <trkpt lat="44.44158" lon="1.3284">
        <ele>249</ele>
        <time>2019-04-14T11:25:06Z</time>
      </trkpt>
      <trkpt lat="44.44166" lon="1.32843">
        <ele>249</ele>
        <time>2019-04-14T11:25:07Z</time>
      </trkpt>
      <trkpt lat="44.44173" lon="1.32846">
        <ele>249</ele>
        <time>2019-04-14T11:25:08Z</time>
      </trkpt>
      <trkpt lat="44.4418" lon="1.3285">
        <ele>249</ele>
        <time>2019-04-14T11:25:09Z</time>
      </trkpt>
      <trkpt lat="44.44186" lon="1.32854">
        <ele>249</ele>
        <time>2019-04-14T11:25:10Z</time>
      </trkpt>
      <trkpt lat="44.44191" lon="1.32858">
        <ele>249</ele>
        <time>2019-04-14T11:25:11Z</time>
      </trkpt>
      <trkpt lat="44.44197" lon="1.32861">
        <ele>249</ele>
        <time>2019-04-14T11:25:12Z</time>
      </trkpt>
      <trkpt lat="44.44202" lon="1.32863">
        <ele>249</ele>
        <time>2019-04-14T11:25:13Z</time>
      </trkpt>
      <trkpt lat="44.44207" lon="1.32865">
        <ele>249</ele>
        <time>2019-04-14T11:25:14Z</time>
      </trkpt>
      <trkpt lat="44.44211" lon="1.32866">
        <ele>249</ele>
        <time>2019-04-14T11:25:15Z</time>
      </trkpt>
      <trkpt lat="44.44215" lon="1.32867">
        <ele>249</ele>
        <time>2019-04-14T11:25:16Z</time>
      </trkpt>
      <trkpt lat="44.44219" lon="1.32868">
        <ele>249</ele>
        <time>2019-04-14T11:25:17Z</time>
      </trkpt>
      <trkpt lat="44.44223" lon="1.32868">
        <ele>249</ele>
        <time>2019-04-14T11:25:18Z</time>
      </trkpt>
      <trkpt lat="44.44227" lon="1.32868">
        <ele>249</ele>
        <time>2019-04-14T11:25:19Z</time>
      </trkpt>
      <trkpt lat="44.44231" lon="1.32868">
        <ele>250</ele>
        <time>2019-04-14T11:25:20Z</time>
      </trkpt>
      <trkpt lat="44.44235" lon="1.32868">
        <ele>250</ele>
        <time>2019-04-14T11:25:21Z</time>
      </trkpt>
      <trkpt lat="44.44239" lon="1.32868">
        <ele>250</ele>
        <time>2019-04-14T11:25:22Z</time>
      </trkpt>
      <trkpt lat="44.44243" lon="1.32869">
        <ele>250</ele>
        <time>2019-04-14T11:25:23Z</time>
      </trkpt>
      <trkpt lat="44.44247" lon="1.32869">
        <ele>250</ele>
        <time>2019-04-14T11:25:24Z</time>
      </trkpt>
      <trkpt lat="44.4425" lon="1.3287">
        <ele>250</ele>
        <time>2019-04-14T11:25:25Z</time>
      </trkpt>
      <trkpt lat="44.44253" lon="1.3287">
        <ele>250</ele>
        <time>2019-04-14T11:25:26Z</time>
      </trkpt>
      <trkpt lat="44.44257" lon="1.32871">
        <ele>251</ele>
        <time>2019-04-14T11:25:27Z</time>
      </trkpt>
      <trkpt lat="44.4426" lon="1.32872">
        <ele>251</ele>
        <time>2019-04-14T11:25:28Z</time>
      </trkpt>
      <trkpt lat="44.44263" lon="1.32873">
        <ele>251</ele>
        <time>2019-04-14T11:25:29Z</time>
      </trkpt>
      <trkpt lat="44.44266" lon="1.32874">
        <ele>252</ele>
        <time>2019-04-14T11:25:30Z</time>
      </trkpt>
      <trkpt lat="44.44269" lon="1.32875">
        <ele>252</ele>
        <time>2019-04-14T11:25:31Z</time>
      </trkpt>
      <trkpt lat="44.44271" lon="1.32876">
        <ele>252</ele>
        <time>2019-04-14T11:25:32Z</time>
      </trkpt>
      <trkpt lat="44.44274" lon="1.32877">
        <ele>252</ele>
        <time>2019-04-14T11:25:33Z</time>
      </trkpt>
      <trkpt lat="44.44277" lon="1.32879">
        <ele>253</ele>
        <time>2019-04-14T11:25:34Z</time>
      </trkpt>
      <trkpt lat="44.44279" lon="1.3288">
        <ele>253</ele>
        <time>2019-04-14T11:25:35Z</time>
      </trkpt>
      <trkpt lat="44.44282" lon="1.32881">
        <ele>253</ele>
        <time>2019-04-14T11:25:36Z</time>
      </trkpt>
      <trkpt lat="44.44285" lon="1.32883">
        <ele>253</ele>
        <time>2019-04-14T11:25:37Z</time>
      </trkpt>
      <trkpt lat="44.44289" lon="1.32885">
        <ele>254</ele>
        <time>2019-04-14T11:25:38Z</time>
      </trkpt>
      <trkpt lat="44.44292" lon="1.32887">
        <ele>254</ele>
        <time>2019-04-14T11:25:39Z</time>
      </trkpt>
      <trkpt lat="44.44294" lon="1.32889">
        <ele>254</ele>
        <time>2019-04-14T11:25:40Z</time>
      </trkpt>
      <trkpt lat="44.44297" lon="1.3289">
        <ele>255</ele>
        <time>2019-04-14T11:25:41Z</time>
      </trkpt>
      <trkpt lat="44.44299" lon="1.32891">
        <ele>255</ele>
        <time>2019-04-14T11:25:42Z</time>
      </trkpt>
      <trkpt lat="44.443" lon="1.32891">
        <ele>255</ele>
        <time>2019-04-14T11:25:43Z</time>
      </trkpt>
      <trkpt lat="44.44303" lon="1.32892">
        <ele>256</ele>
        <time>2019-04-14T11:25:44Z</time>
      </trkpt>
      <trkpt lat="44.44306" lon="1.32893">
        <ele>256</ele>
        <time>2019-04-14T11:25:45Z</time>
      </trkpt>
      <trkpt lat="44.4431" lon="1.32896">
        <ele>256</ele>
        <time>2019-04-14T11:25:46Z</time>
      </trkpt>
      <trkpt lat="44.44313" lon="1.32898">
        <ele>256</ele>
        <time>2019-04-14T11:25:47Z</time>
      </trkpt>
      <trkpt lat="44.44316" lon="1.329">
        <ele>257</ele>
        <time>2019-04-14T11:25:48Z</time>
      </trkpt>
      <trkpt lat="44.44319" lon="1.32902">
        <ele>257</ele>
        <time>2019-04-14T11:25:49Z</time>
      </trkpt>
      <trkpt lat="44.44323" lon="1.32905">
        <ele>257</ele>
        <time>2019-04-14T11:25:50Z</time>
      </trkpt>
      <trkpt lat="44.44326" lon="1.32907">
        <ele>257</ele>
        <time>2019-04-14T11:25:51Z</time>
      </trkpt>
      <trkpt lat="44.44329" lon="1.32909">
        <ele>257</ele>
        <time>2019-04-14T11:25:52Z</time>
      </trkpt>
      <trkpt lat="44.44331" lon="1.32912">
        <ele>258</ele>
        <time>2019-04-14T11:25:53Z</time>
      </trkpt>
      <trkpt lat="44.44334" lon="1.32913">
        <ele>258</ele>
        <time>2019-04-14T11:25:54Z</time>
      </trkpt>
      <trkpt lat="44.44337" lon="1.32915">
        <ele>258</ele>
        <time>2019-04-14T11:25:55Z</time>
      </trkpt>
      <trkpt lat="44.44339" lon="1.32917">
        <ele>258</ele>
        <time>2019-04-14T11:25:56Z</time>
      </trkpt>
      <trkpt lat="44.44341" lon="1.32918">
        <ele>259</ele>
        <time>2019-04-14T11:25:57Z</time>
      </trkpt>
      <trkpt lat="44.44343" lon="1.32918">
        <ele>259</ele>
        <time>2019-04-14T11:25:58Z</time>
      </trkpt>
      <trkpt lat="44.44346" lon="1.3292">
        <ele>259</ele>
        <time>2019-04-14T11:25:59Z</time>
      </trkpt>
      <trkpt lat="44.44348" lon="1.32921">
        <ele>259</ele>
        <time>2019-04-14T11:26:00Z</time>
      </trkpt>
      <trkpt lat="44.44351" lon="1.32923">
        <ele>259</ele>
        <time>2019-04-14T11:26:01Z</time>
      </trkpt>
      <trkpt lat="44.44354" lon="1.32926">
        <ele>259</ele>
        <time>2019-04-14T11:26:02Z</time>
      </trkpt>
      <trkpt lat="44.44358" lon="1.32929">
        <ele>259</ele>
        <time>2019-04-14T11:26:03Z</time>
      </trkpt>
      <trkpt lat="44.44361" lon="1.32933">
        <ele>259</ele>
        <time>2019-04-14T11:26:04Z</time>
      </trkpt>
      <trkpt lat="44.44363" lon="1.32937">
        <ele>259</ele>
        <time>2019-04-14T11:26:05Z</time>
      </trkpt>
      <trkpt lat="44.44366" lon="1.32941">
        <ele>259</ele>
        <time>2019-04-14T11:26:06Z</time>
      </trkpt>
      <trkpt lat="44.44369" lon="1.32946">
        <ele>259</ele>
        <time>2019-04-14T11:26:07Z</time>
      </trkpt>
      <trkpt lat="44.44372" lon="1.32952">
        <ele>258</ele>
        <time>2019-04-14T11:26:08Z</time>
      </trkpt>
      <trkpt lat="44.44376" lon="1.32958">
        <ele>258</ele>
        <time>2019-04-14T11:26:09Z</time>
      </trkpt>
      <trkpt lat="44.4438" lon="1.32964">
        <ele>258</ele>
        <time>2019-04-14T11:26:10Z</time>
      </trkpt>
      <trkpt lat="44.44384" lon="1.32971">
        <ele>257</ele>
        <time>2019-04-14T11:26:11Z</time>
      </trkpt>
      <trkpt lat="44.44388" lon="1.32977">
        <ele>257</ele>
        <time>2019-04-14T11:26:12Z</time>
      </trkpt>
      <trkpt lat="44.44391" lon="1.32984">
        <ele>257</ele>
        <time>2019-04-14T11:26:13Z</time>
      </trkpt>
      <trkpt lat="44.44394" lon="1.32991">
        <ele>256</ele>
        <time>2019-04-14T11:26:14Z</time>
      </trkpt>
      <trkpt lat="44.44397" lon="1.32998">
        <ele>256</ele>
        <time>2019-04-14T11:26:15Z</time>
      </trkpt>
      <trkpt lat="44.44401" lon="1.33003">
        <ele>256</ele>
        <time>2019-04-14T11:26:16Z</time>
      </trkpt>
      <trkpt lat="44.44406" lon="1.33007">
        <ele>255</ele>
        <time>2019-04-14T11:26:17Z</time>
      </trkpt>
      <trkpt lat="44.44411" lon="1.33009">
        <ele>255</ele>
        <time>2019-04-14T11:26:18Z</time>
      </trkpt>
      <trkpt lat="44.44416" lon="1.3301">
        <ele>255</ele>
        <time>2019-04-14T11:26:19Z</time>
      </trkpt>
      <trkpt lat="44.44421" lon="1.33009">
        <ele>255</ele>
        <time>2019-04-14T11:26:20Z</time>
      </trkpt>
      <trkpt lat="44.44426" lon="1.33008">
        <ele>255</ele>
        <time>2019-04-14T11:26:21Z</time>
      </trkpt>
      <trkpt lat="44.4443" lon="1.33007">
        <ele>255</ele>
        <time>2019-04-14T11:26:22Z</time>
      </trkpt>
      <trkpt lat="44.44434" lon="1.33005">
        <ele>255</ele>
        <time>2019-04-14T11:26:23Z</time>
      </trkpt>
      <trkpt lat="44.44437" lon="1.33003">
        <ele>255</ele>
        <time>2019-04-14T11:26:24Z</time>
      </trkpt>
      <trkpt lat="44.44441" lon="1.33003">
        <ele>255</ele>
        <time>2019-04-14T11:26:25Z</time>
      </trkpt>
      <trkpt lat="44.44445" lon="1.33005">
        <ele>255</ele>
        <time>2019-04-14T11:26:26Z</time>
      </trkpt>
      <trkpt lat="44.44449" lon="1.33008">
        <ele>255</ele>
        <time>2019-04-14T11:26:27Z</time>
      </trkpt>
      <trkpt lat="44.44453" lon="1.33011">
        <ele>255</ele>
        <time>2019-04-14T11:26:28Z</time>
      </trkpt>
      <trkpt lat="44.44458" lon="1.33014">
        <ele>255</ele>
        <time>2019-04-14T11:26:29Z</time>
      </trkpt>
      <trkpt lat="44.44461" lon="1.33019">
        <ele>255</ele>
        <time>2019-04-14T11:26:30Z</time>
      </trkpt>
      <trkpt lat="44.44464" lon="1.33025">
        <ele>254</ele>
        <time>2019-04-14T11:26:31Z</time>
      </trkpt>
      <trkpt lat="44.44465" lon="1.33031">
        <ele>254</ele>
        <time>2019-04-14T11:26:32Z</time>
      </trkpt>
      <trkpt lat="44.44466" lon="1.33037">
        <ele>254</ele>
        <time>2019-04-14T11:26:33Z</time>
      </trkpt>
      <trkpt lat="44.44468" lon="1.33043">
        <ele>254</ele>
        <time>2019-04-14T11:26:34Z</time>
      </trkpt>
      <trkpt lat="44.44469" lon="1.3305">
        <ele>254</ele>
        <time>2019-04-14T11:26:35Z</time>
      </trkpt>
      <trkpt lat="44.44471" lon="1.33057">
        <ele>254</ele>
        <time>2019-04-14T11:26:36Z</time>
      </trkpt>
      <trkpt lat="44.44473" lon="1.33064">
        <ele>254</ele>
        <time>2019-04-14T11:26:37Z</time>
      </trkpt>
      <trkpt lat="44.44474" lon="1.33072">
        <ele>254</ele>
        <time>2019-04-14T11:26:38Z</time>
      </trkpt>
      <trkpt lat="44.44476" lon="1.33079">
        <ele>254</ele>
        <time>2019-04-14T11:26:39Z</time>
      </trkpt>
      <trkpt lat="44.44477" lon="1.33087">
        <ele>254</ele>
        <time>2019-04-14T11:26:40Z</time>
      </trkpt>
      <trkpt lat="44.44479" lon="1.33094">
        <ele>254</ele>
        <time>2019-04-14T11:26:41Z</time>
      </trkpt>
      <trkpt lat="44.44481" lon="1.33102">
        <ele>254</ele>
        <time>2019-04-14T11:26:42Z</time>
      </trkpt>
      <trkpt lat="44.44483" lon="1.3311">
        <ele>254</ele>
        <time>2019-04-14T11:26:43Z</time>
      </trkpt>
      <trkpt lat="44.44484" lon="1.33118">
        <ele>254</ele>
        <time>2019-04-14T11:26:44Z</time>
      </trkpt>
      <trkpt lat="44.44486" lon="1.33125">
        <ele>254</ele>
        <time>2019-04-14T11:26:45Z</time>
      </trkpt>
      <trkpt lat="44.44487" lon="1.33133">
        <ele>253</ele>
        <time>2019-04-14T11:26:46Z</time>
      </trkpt>
      <trkpt lat="44.4449" lon="1.3314">
        <ele>253</ele>
        <time>2019-04-14T11:26:47Z</time>
      </trkpt>
      <trkpt lat="44.44492" lon="1.33148">
        <ele>254</ele>
        <time>2019-04-14T11:26:48Z</time>
      </trkpt>
      <trkpt lat="44.44496" lon="1.33154">
        <ele>254</ele>
        <time>2019-04-14T11:26:49Z</time>
      </trkpt>
      <trkpt lat="44.445" lon="1.33159">
        <ele>254</ele>
        <time>2019-04-14T11:26:50Z</time>
      </trkpt>
      <trkpt lat="44.44504" lon="1.33165">
        <ele>253</ele>
        <time>2019-04-14T11:26:51Z</time>
      </trkpt>
      <trkpt lat="44.44508" lon="1.3317">
        <ele>253</ele>
        <time>2019-04-14T11:26:52Z</time>
      </trkpt>
      <trkpt lat="44.44512" lon="1.33175">
        <ele>253</ele>
        <time>2019-04-14T11:26:53Z</time>
      </trkpt>
      <trkpt lat="44.44516" lon="1.33181">
        <ele>253</ele>
        <time>2019-04-14T11:26:54Z</time>
      </trkpt>
      <trkpt lat="44.44519" lon="1.33186">
        <ele>253</ele>
        <time>2019-04-14T11:26:55Z</time>
      </trkpt>
      <trkpt lat="44.44523" lon="1.33192">
        <ele>253</ele>
        <time>2019-04-14T11:26:56Z</time>
      </trkpt>
      <trkpt lat="44.44527" lon="1.33198">
        <ele>254</ele>
        <time>2019-04-14T11:26:57Z</time>
      </trkpt>
      <trkpt lat="44.44531" lon="1.33204">
        <ele>254</ele>
        <time>2019-04-14T11:26:58Z</time>
      </trkpt>
      <trkpt lat="44.44535" lon="1.33208">
        <ele>254</ele>
        <time>2019-04-14T11:26:59Z</time>
      </trkpt>
      <trkpt lat="44.44539" lon="1.33213">
        <ele>254</ele>
        <time>2019-04-14T11:27:00Z</time>
      </trkpt>
      <trkpt lat="44.44543" lon="1.33218">
        <ele>254</ele>
        <time>2019-04-14T11:27:01Z</time>
      </trkpt>
      <trkpt lat="44.44545" lon="1.33222">
        <ele>254</ele>
        <time>2019-04-14T11:27:02Z</time>
      </trkpt>
      <trkpt lat="44.44549" lon="1.33226">
        <ele>254</ele>
        <time>2019-04-14T11:27:03Z</time>
      </trkpt>
      <trkpt lat="44.44553" lon="1.33231">
        <ele>254</ele>
        <time>2019-04-14T11:27:04Z</time>
      </trkpt>
      <trkpt lat="44.44557" lon="1.33237">
        <ele>254</ele>
        <time>2019-04-14T11:27:05Z</time>
      </trkpt>
      <trkpt lat="44.4456" lon="1.33242">
        <ele>254</ele>
        <time>2019-04-14T11:27:06Z</time>
      </trkpt>
      <trkpt lat="44.44563" lon="1.33248">
        <ele>254</ele>
        <time>2019-04-14T11:27:07Z</time>
      </trkpt>
      <trkpt lat="44.44566" lon="1.33255">
        <ele>254</ele>
        <time>2019-04-14T11:27:08Z</time>
      </trkpt>
      <trkpt lat="44.44568" lon="1.33261">
        <ele>254</ele>
        <time>2019-04-14T11:27:09Z</time>
      </trkpt>
      <trkpt lat="44.44571" lon="1.33268">
        <ele>254</ele>
        <time>2019-04-14T11:27:10Z</time>
      </trkpt>
      <trkpt lat="44.44573" lon="1.33274">
        <ele>255</ele>
        <time>2019-04-14T11:27:11Z</time>
      </trkpt>
      <trkpt lat="44.44576" lon="1.3328">
        <ele>255</ele>
        <time>2019-04-14T11:27:12Z</time>
      </trkpt>
      <trkpt lat="44.44578" lon="1.33287">
        <ele>255</ele>
        <time>2019-04-14T11:27:13Z</time>
      </trkpt>
      <trkpt lat="44.44579" lon="1.33293">
        <ele>255</ele>
        <time>2019-04-14T11:27:14Z</time>
      </trkpt>
      <trkpt lat="44.44581" lon="1.33299">
        <ele>255</ele>
        <time>2019-04-14T11:27:15Z</time>
      </trkpt>
      <trkpt lat="44.44582" lon="1.33305">
        <ele>256</ele>
        <time>2019-04-14T11:27:16Z</time>
      </trkpt>
      <trkpt lat="44.44583" lon="1.3331">
        <ele>256</ele>
        <time>2019-04-14T11:27:17Z</time>
      </trkpt>
      <trkpt lat="44.44584" lon="1.33316">
        <ele>256</ele>
        <time>2019-04-14T11:27:18Z</time>
      </trkpt>
      <trkpt lat="44.44583" lon="1.33321">
        <ele>256</ele>
        <time>2019-04-14T11:27:19Z</time>
      </trkpt>
      <trkpt lat="44.44582" lon="1.33327">
        <ele>257</ele>
        <time>2019-04-14T11:27:20Z</time>
      </trkpt>
      <trkpt lat="44.44582" lon="1.33332">
        <ele>257</ele>
        <time>2019-04-14T11:27:21Z</time>
      </trkpt>
      <trkpt lat="44.44582" lon="1.33338">
        <ele>257</ele>
        <time>2019-04-14T11:27:22Z</time>
      </trkpt>
      <trkpt lat="44.44581" lon="1.33343">
        <ele>257</ele>
        <time>2019-04-14T11:27:23Z</time>
      </trkpt>
      <trkpt lat="44.4458" lon="1.33349">
        <ele>258</ele>
        <time>2019-04-14T11:27:24Z</time>
      </trkpt>
      <trkpt lat="44.4458" lon="1.33356">
        <ele>258</ele>
        <time>2019-04-14T11:27:25Z</time>
      </trkpt>
      <trkpt lat="44.4458" lon="1.33362">
        <ele>258</ele>
        <time>2019-04-14T11:27:26Z</time>
      </trkpt>
      <trkpt lat="44.44579" lon="1.33368">
        <ele>258</ele>
        <time>2019-04-14T11:27:27Z</time>
      </trkpt>
      <trkpt lat="44.44578" lon="1.33374">
        <ele>258</ele>
        <time>2019-04-14T11:27:28Z</time>
      </trkpt>
      <trkpt lat="44.44578" lon="1.33381">
        <ele>258</ele>
        <time>2019-04-14T11:27:29Z</time>
      </trkpt>
      <trkpt lat="44.44577" lon="1.33387">
        <ele>258</ele>
        <time>2019-04-14T11:27:30Z</time>
      </trkpt>
      <trkpt lat="44.44577" lon="1.33393">
        <ele>259</ele>
        <time>2019-04-14T11:27:31Z</time>
      </trkpt>
      <trkpt lat="44.44576" lon="1.33399">
        <ele>259</ele>
        <time>2019-04-14T11:27:32Z</time>
      </trkpt>
      <trkpt lat="44.44576" lon="1.33405">
        <ele>259</ele>
        <time>2019-04-14T11:27:33Z</time>
      </trkpt>
      <trkpt lat="44.44576" lon="1.33411">
        <ele>259</ele>
        <time>2019-04-14T11:27:34Z</time>
      </trkpt>
      <trkpt lat="44.44576" lon="1.33417">
        <ele>259</ele>
        <time>2019-04-14T11:27:35Z</time>
      </trkpt>
      <trkpt lat="44.44576" lon="1.33422">
        <ele>259</ele>
        <time>2019-04-14T11:27:36Z</time>
      </trkpt>
      <trkpt lat="44.44577" lon="1.33428">
        <ele>259</ele>
        <time>2019-04-14T11:27:37Z</time>
      </trkpt>
      <trkpt lat="44.44577" lon="1.33433">
        <ele>259</ele>
        <time>2019-04-14T11:27:38Z</time>
      </trkpt>
      <trkpt lat="44.44577" lon="1.33438">
        <ele>259</ele>
        <time>2019-04-14T11:27:39Z</time>
      </trkpt>
      <trkpt lat="44.44578" lon="1.33444">
        <ele>259</ele>
        <time>2019-04-14T11:27:40Z</time>
      </trkpt>
      <trkpt lat="44.44578" lon="1.33449">
        <ele>259</ele>
        <time>2019-04-14T11:27:41Z</time>
      </trkpt>
      <trkpt lat="44.44579" lon="1.33454">
        <ele>259</ele>
        <time>2019-04-14T11:27:42Z</time>
      </trkpt>
      <trkpt lat="44.4458" lon="1.33459">
        <ele>259</ele>
        <time>2019-04-14T11:27:43Z</time>
      </trkpt>
      <trkpt lat="44.4458" lon="1.33464">
        <ele>259</ele>
        <time>2019-04-14T11:27:44Z</time>
      </trkpt>
      <trkpt lat="44.44581" lon="1.33468">
        <ele>259</ele>
        <time>2019-04-14T11:27:45Z</time>
      </trkpt>
      <trkpt lat="44.44581" lon="1.33473">
        <ele>259</ele>
        <time>2019-04-14T11:27:46Z</time>
      </trkpt>
      <trkpt lat="44.44581" lon="1.33476">
        <ele>258</ele>
        <time>2019-04-14T11:27:47Z</time>
      </trkpt>
      <trkpt lat="44.44579" lon="1.33479">
        <ele>258</ele>
        <time>2019-04-14T11:27:48Z</time>
      </trkpt>
      <trkpt lat="44.44576" lon="1.33479">
        <ele>258</ele>
        <time>2019-04-14T11:27:49Z</time>
      </trkpt>
      <trkpt lat="44.44572" lon="1.33479">
        <ele>258</ele>
        <time>2019-04-14T11:27:50Z</time>
      </trkpt>
      <trkpt lat="44.44569" lon="1.33477">
        <ele>258</ele>
        <time>2019-04-14T11:27:51Z</time>
      </trkpt>
      <trkpt lat="44.44565" lon="1.33477">
        <ele>257</ele>
        <time>2019-04-14T11:27:52Z</time>
      </trkpt>
      <trkpt lat="44.4456" lon="1.33476">
        <ele>257</ele>
        <time>2019-04-14T11:27:53Z</time>
      </trkpt>
      <trkpt lat="44.44555" lon="1.33476">
        <ele>257</ele>
        <time>2019-04-14T11:27:54Z</time>
      </trkpt>
      <trkpt lat="44.4455" lon="1.33476">
        <ele>256</ele>
        <time>2019-04-14T11:27:55Z</time>
      </trkpt>
      <trkpt lat="44.44545" lon="1.33475">
        <ele>256</ele>
        <time>2019-04-14T11:27:56Z</time>
      </trkpt>
      <trkpt lat="44.4454" lon="1.33475">
        <ele>256</ele>
        <time>2019-04-14T11:27:57Z</time>
      </trkpt>
      <trkpt lat="44.44534" lon="1.33474">
        <ele>256</ele>
        <time>2019-04-14T11:27:58Z</time>
      </trkpt>
      <trkpt lat="44.44528" lon="1.33473">
        <ele>255</ele>
        <time>2019-04-14T11:27:59Z</time>
      </trkpt>
      <trkpt lat="44.44522" lon="1.33472">
        <ele>255</ele>
        <time>2019-04-14T11:28:00Z</time>
      </trkpt>
      <trkpt lat="44.44517" lon="1.33472">
        <ele>254</ele>
        <time>2019-04-14T11:28:01Z</time>
      </trkpt>
      <trkpt lat="44.44512" lon="1.33473">
        <ele>254</ele>
        <time>2019-04-14T11:28:02Z</time>
      </trkpt>
      <trkpt lat="44.44508" lon="1.33471">
        <ele>254</ele>
        <time>2019-04-14T11:28:03Z</time>
      </trkpt>
      <trkpt lat="44.44504" lon="1.33469">
        <ele>254</ele>
        <time>2019-04-14T11:28:04Z</time>
      </trkpt>
      <trkpt lat="44.44499" lon="1.33468">
        <ele>253</ele>
        <time>2019-04-14T11:28:05Z</time>
      </trkpt>
      <trkpt lat="44.44494" lon="1.33469">
        <ele>253</ele>
        <time>2019-04-14T11:28:06Z</time>
      </trkpt>
      <trkpt lat="44.4449" lon="1.33472">
        <ele>253</ele>
        <time>2019-04-14T11:28:07Z</time>
      </trkpt>
      <trkpt lat="44.44485" lon="1.33477">
        <ele>252</ele>
        <time>2019-04-14T11:28:08Z</time>
      </trkpt>
      <trkpt lat="44.4448" lon="1.33482">
        <ele>252</ele>
        <time>2019-04-14T11:28:09Z</time>
      </trkpt>
      <trkpt lat="44.44476" lon="1.33488">
        <ele>251</ele>
        <time>2019-04-14T11:28:10Z</time>
      </trkpt>
      <trkpt lat="44.44471" lon="1.33494">
        <ele>251</ele>
        <time>2019-04-14T11:28:11Z</time>
      </trkpt>
      <trkpt lat="44.44467" lon="1.33501">
        <ele>250</ele>
        <time>2019-04-14T11:28:12Z</time>
      </trkpt>
      <trkpt lat="44.44464" lon="1.3351">
        <ele>250</ele>
        <time>2019-04-14T11:28:13Z</time>
      </trkpt>
      <trkpt lat="44.44462" lon="1.33519">
        <ele>249</ele>
        <time>2019-04-14T11:28:14Z</time>
      </trkpt>
      <trkpt lat="44.44458" lon="1.33526">
        <ele>249</ele>
        <time>2019-04-14T11:28:15Z</time>
      </trkpt>
      <trkpt lat="44.44455" lon="1.33531">
        <ele>249</ele>
        <time>2019-04-14T11:28:16Z</time>
      </trkpt>
      <trkpt lat="44.4445" lon="1.33531">
        <ele>248</ele>
        <time>2019-04-14T11:28:17Z</time>
      </trkpt>
      <trkpt lat="44.44445" lon="1.3353">
        <ele>248</ele>
        <time>2019-04-14T11:28:18Z</time>
      </trkpt>
      <trkpt lat="44.44439" lon="1.33527">
        <ele>247</ele>
        <time>2019-04-14T11:28:19Z</time>
      </trkpt>
      <trkpt lat="44.44434" lon="1.33524">
        <ele>247</ele>
        <time>2019-04-14T11:28:20Z</time>
      </trkpt>
      <trkpt lat="44.44428" lon="1.33521">
        <ele>246</ele>
        <time>2019-04-14T11:28:21Z</time>
      </trkpt>
      <trkpt lat="44.44421" lon="1.33518">
        <ele>245</ele>
        <time>2019-04-14T11:28:22Z</time>
      </trkpt>
      <trkpt lat="44.44414" lon="1.33515">
        <ele>244</ele>
        <time>2019-04-14T11:28:23Z</time>
      </trkpt>
      <trkpt lat="44.44407" lon="1.33515">
        <ele>243</ele>
        <time>2019-04-14T11:28:24Z</time>
      </trkpt>
      <trkpt lat="44.444" lon="1.33517">
        <ele>242</ele>
        <time>2019-04-14T11:28:25Z</time>
      </trkpt>
      <trkpt lat="44.44394" lon="1.33519">
        <ele>241</ele>
        <time>2019-04-14T11:28:26Z</time>
      </trkpt>
      <trkpt lat="44.44388" lon="1.3352">
        <ele>240</ele>
        <time>2019-04-14T11:28:27Z</time>
      </trkpt>
      <trkpt lat="44.44384" lon="1.33522">
        <ele>238</ele>
        <time>2019-04-14T11:28:28Z</time>
      </trkpt>
      <trkpt lat="44.44381" lon="1.33523">
        <ele>238</ele>
        <time>2019-04-14T11:28:29Z</time>
      </trkpt>
      <trkpt lat="44.44381" lon="1.33526">
        <ele>238</ele>
        <time>2019-04-14T11:28:30Z</time>
      </trkpt>
      <trkpt lat="44.44379" lon="1.33528">
        <ele>237</ele>
        <time>2019-04-14T11:28:31Z</time>
      </trkpt>
      <trkpt lat="44.44377" lon="1.33532">
        <ele>237</ele>
        <time>2019-04-14T11:28:32Z</time>
      </trkpt>
      <trkpt lat="44.44376" lon="1.33537">
        <ele>237</ele>
        <time>2019-04-14T11:28:33Z</time>
      </trkpt>
      <trkpt lat="44.44375" lon="1.33542">
        <ele>237</ele>
        <time>2019-04-14T11:28:34Z</time>
      </trkpt>
      <trkpt lat="44.44375" lon="1.33548">
        <ele>237</ele>
        <time>2019-04-14T11:28:35Z</time>
      </trkpt>
      <trkpt lat="44.44374" lon="1.33554">
        <ele>237</ele>
        <time>2019-04-14T11:28:36Z</time>
      </trkpt>
      <trkpt lat="44.44373" lon="1.3356">
        <ele>237</ele>
        <time>2019-04-14T11:28:37Z</time>
      </trkpt>
      <trkpt lat="44.44372" lon="1.33567">
        <ele>236</ele>
        <time>2019-04-14T11:28:38Z</time>
      </trkpt>
      <trkpt lat="44.44371" lon="1.33574">
        <ele>236</ele>
        <time>2019-04-14T11:28:39Z</time>
      </trkpt>
      <trkpt lat="44.44371" lon="1.33582">
        <ele>236</ele>
        <time>2019-04-14T11:28:40Z</time>
      </trkpt>
      <trkpt lat="44.4437" lon="1.33588">
        <ele>236</ele>
        <time>2019-04-14T11:28:41Z</time>
      </trkpt>
      <trkpt lat="44.44369" lon="1.33596">
        <ele>236</ele>
        <time>2019-04-14T11:28:42Z</time>
      </trkpt>
      <trkpt lat="44.44368" lon="1.33603">
        <ele>236</ele>
        <time>2019-04-14T11:28:43Z</time>
      </trkpt>
      <trkpt lat="44.44368" lon="1.33611">
        <ele>236</ele>
        <time>2019-04-14T11:28:44Z</time>
      </trkpt>
      <trkpt lat="44.44367" lon="1.33618">
        <ele>236</ele>
        <time>2019-04-14T11:28:45Z</time>
      </trkpt>
      <trkpt lat="44.44366" lon="1.33626">
        <ele>236</ele>
        <time>2019-04-14T11:28:46Z</time>
      </trkpt>
      <trkpt lat="44.44365" lon="1.33634">
        <ele>235</ele>
        <time>2019-04-14T11:28:47Z</time>
      </trkpt>
      <trkpt lat="44.44364" lon="1.33642">
        <ele>235</ele>
        <time>2019-04-14T11:28:48Z</time>
      </trkpt>
      <trkpt lat="44.44363" lon="1.33651">
        <ele>235</ele>
        <time>2019-04-14T11:28:49Z</time>
      </trkpt>
      <trkpt lat="44.44362" lon="1.33659">
        <ele>235</ele>
        <time>2019-04-14T11:28:50Z</time>
      </trkpt>
      <trkpt lat="44.44361" lon="1.33668">
        <ele>235</ele>
        <time>2019-04-14T11:28:51Z</time>
      </trkpt>
      <trkpt lat="44.44359" lon="1.33674">
        <ele>234</ele>
        <time>2019-04-14T11:28:52Z</time>
      </trkpt>
      <trkpt lat="44.44358" lon="1.33681">
        <ele>234</ele>
        <time>2019-04-14T11:28:53Z</time>
      </trkpt>
      <trkpt lat="44.44358" lon="1.33689">
        <ele>234</ele>
        <time>2019-04-14T11:28:54Z</time>
      </trkpt>
      <trkpt lat="44.44357" lon="1.33696">
        <ele>233</ele>
        <time>2019-04-14T11:28:55Z</time>
      </trkpt>
      <trkpt lat="44.44357" lon="1.33704">
        <ele>233</ele>
        <time>2019-04-14T11:28:56Z</time>
      </trkpt>
      <trkpt lat="44.44357" lon="1.33712">
        <ele>233</ele>
        <time>2019-04-14T11:28:57Z</time>
      </trkpt>
      <trkpt lat="44.44358" lon="1.3372">
        <ele>232</ele>
        <time>2019-04-14T11:28:58Z</time>
      </trkpt>
      <trkpt lat="44.44359" lon="1.33727">
        <ele>232</ele>
        <time>2019-04-14T11:28:59Z</time>
      </trkpt>
      <trkpt lat="44.44359" lon="1.33735">
        <ele>232</ele>
        <time>2019-04-14T11:29:00Z</time>
      </trkpt>
      <trkpt lat="44.44359" lon="1.33744">
        <ele>231</ele>
        <time>2019-04-14T11:29:01Z</time>
      </trkpt>
      <trkpt lat="44.4436" lon="1.33753">
        <ele>231</ele>
        <time>2019-04-14T11:29:02Z</time>
      </trkpt>
      <trkpt lat="44.44362" lon="1.33762">
        <ele>230</ele>
        <time>2019-04-14T11:29:03Z</time>
      </trkpt>
      <trkpt lat="44.44364" lon="1.33771">
        <ele>229</ele>
        <time>2019-04-14T11:29:04Z</time>
      </trkpt>
      <trkpt lat="44.44366" lon="1.33779">
        <ele>228</ele>
        <time>2019-04-14T11:29:05Z</time>
      </trkpt>
      <trkpt lat="44.44368" lon="1.33787">
        <ele>227</ele>
        <time>2019-04-14T11:29:06Z</time>
      </trkpt>
      <trkpt lat="44.4437" lon="1.33794">
        <ele>226</ele>
        <time>2019-04-14T11:29:07Z</time>
      </trkpt>
      <trkpt lat="44.44373" lon="1.33801">
        <ele>225</ele>
        <time>2019-04-14T11:29:08Z</time>
      </trkpt>
      <trkpt lat="44.44377" lon="1.33808">
        <ele>225</ele>
        <time>2019-04-14T11:29:09Z</time>
      </trkpt>
      <trkpt lat="44.44378" lon="1.33812">
        <ele>224</ele>
        <time>2019-04-14T11:29:10Z</time>
      </trkpt>
      <trkpt lat="44.44377" lon="1.33817">
        <ele>223</ele>
        <time>2019-04-14T11:29:11Z</time>
      </trkpt>
      <trkpt lat="44.44378" lon="1.33824">
        <ele>222</ele>
        <time>2019-04-14T11:29:12Z</time>
      </trkpt>
      <trkpt lat="44.4438" lon="1.33829">
        <ele>222</ele>
        <time>2019-04-14T11:29:13Z</time>
      </trkpt>
      <trkpt lat="44.44382" lon="1.33834">
        <ele>222</ele>
        <time>2019-04-14T11:29:14Z</time>
      </trkpt>
      <trkpt lat="44.44385" lon="1.33838">
        <ele>222</ele>
        <time>2019-04-14T11:29:15Z</time>
      </trkpt>
      <trkpt lat="44.44385" lon="1.33842">
        <ele>222</ele>
        <time>2019-04-14T11:29:16Z</time>
      </trkpt>
      <trkpt lat="44.44385" lon="1.33846">
        <ele>221</ele>
        <time>2019-04-14T11:29:17Z</time>
      </trkpt>
      <trkpt lat="44.44387" lon="1.33852">
        <ele>221</ele>
        <time>2019-04-14T11:29:18Z</time>
      </trkpt>
      <trkpt lat="44.44389" lon="1.33856">
        <ele>220</ele>
        <time>2019-04-14T11:29:19Z</time>
      </trkpt>
      <trkpt lat="44.44391" lon="1.33861">
        <ele>220</ele>
        <time>2019-04-14T11:29:20Z</time>
      </trkpt>
      <trkpt lat="44.44393" lon="1.33866">
        <ele>220</ele>
        <time>2019-04-14T11:29:21Z</time>
      </trkpt>
      <trkpt lat="44.44394" lon="1.33872">
        <ele>219</ele>
        <time>2019-04-14T11:29:22Z</time>
      </trkpt>
      <trkpt lat="44.44394" lon="1.3388">
        <ele>219</ele>
        <time>2019-04-14T11:29:23Z</time>
      </trkpt>
      <trkpt lat="44.44394" lon="1.33887">
        <ele>218</ele>
        <time>2019-04-14T11:29:24Z</time>
      </trkpt>
      <trkpt lat="44.44395" lon="1.33893">
        <ele>218</ele>
        <time>2019-04-14T11:29:25Z</time>
      </trkpt>
      <trkpt lat="44.44397" lon="1.33899">
        <ele>217</ele>
        <time>2019-04-14T11:29:26Z</time>
      </trkpt>
      <trkpt lat="44.44399" lon="1.33903">
        <ele>217</ele>
        <time>2019-04-14T11:29:27Z</time>
      </trkpt>
      <trkpt lat="44.44401" lon="1.33908">
        <ele>217</ele>
        <time>2019-04-14T11:29:28Z</time>
      </trkpt>
      <trkpt lat="44.44401" lon="1.33913">
        <ele>217</ele>
        <time>2019-04-14T11:29:29Z</time>
      </trkpt>
      <trkpt lat="44.44401" lon="1.33919">
        <ele>217</ele>
        <time>2019-04-14T11:29:30Z</time>
      </trkpt>
      <trkpt lat="44.44403" lon="1.33924">
        <ele>217</ele>
        <time>2019-04-14T11:29:31Z</time>
      </trkpt>
      <trkpt lat="44.44405" lon="1.33928">
        <ele>217</ele>
        <time>2019-04-14T11:29:32Z</time>
      </trkpt>
      <trkpt lat="44.44406" lon="1.33931">
        <ele>217</ele>
        <time>2019-04-14T11:29:33Z</time>
      </trkpt>
      <trkpt lat="44.44406" lon="1.33934">
        <ele>217</ele>
        <time>2019-04-14T11:29:34Z</time>
      </trkpt>
      <trkpt lat="44.44407" lon="1.33937">
        <ele>217</ele>
        <time>2019-04-14T11:29:35Z</time>
      </trkpt>
      <trkpt lat="44.44407" lon="1.33941">
        <ele>217</ele>
        <time>2019-04-14T11:29:36Z</time>
      </trkpt>
      <trkpt lat="44.44409" lon="1.33945">
        <ele>217</ele>
        <time>2019-04-14T11:29:37Z</time>
      </trkpt>
      <trkpt lat="44.44412" lon="1.33949">
        <ele>217</ele>
        <time>2019-04-14T11:29:38Z</time>
      </trkpt>
      <trkpt lat="44.44414" lon="1.33953">
        <ele>217</ele>
        <time>2019-04-14T11:29:39Z</time>
      </trkpt>
      <trkpt lat="44.44415" lon="1.33958">
        <ele>217</ele>
        <time>2019-04-14T11:29:40Z</time>
      </trkpt>
      <trkpt lat="44.44416" lon="1.33963">
        <ele>217</ele>
        <time>2019-04-14T11:29:41Z</time>
      </trkpt>
      <trkpt lat="44.44418" lon="1.33969">
        <ele>217</ele>
        <time>2019-04-14T11:29:42Z</time>
      </trkpt>
      <trkpt lat="44.44419" lon="1.33974">
        <ele>216</ele>
        <time>2019-04-14T11:29:43Z</time>
      </trkpt>
      <trkpt lat="44.44421" lon="1.33981">
        <ele>216</ele>
        <time>2019-04-14T11:29:44Z</time>
      </trkpt>
      <trkpt lat="44.44422" lon="1.33986">
        <ele>216</ele>
        <time>2019-04-14T11:29:45Z</time>
      </trkpt>
      <trkpt lat="44.44425" lon="1.33991">
        <ele>216</ele>
        <time>2019-04-14T11:29:46Z</time>
      </trkpt>
      <trkpt lat="44.44429" lon="1.33992">
        <ele>216</ele>
        <time>2019-04-14T11:29:47Z</time>
      </trkpt>
      <trkpt lat="44.44431" lon="1.33992">
        <ele>216</ele>
        <time>2019-04-14T11:29:48Z</time>
      </trkpt>
      <trkpt lat="44.44433" lon="1.33992">
        <ele>217</ele>
        <time>2019-04-14T11:29:49Z</time>
      </trkpt>
      <trkpt lat="44.44436" lon="1.33991">
        <ele>217</ele>
        <time>2019-04-14T11:29:50Z</time>
      </trkpt>
      <trkpt lat="44.44438" lon="1.3399">
        <ele>217</ele>
        <time>2019-04-14T11:29:51Z</time>
      </trkpt>
      <trkpt lat="44.44441" lon="1.33989">
        <ele>218</ele>
        <time>2019-04-14T11:29:52Z</time>
      </trkpt>
      <trkpt lat="44.44444" lon="1.33987">
        <ele>218</ele>
        <time>2019-04-14T11:29:53Z</time>
      </trkpt>
      <trkpt lat="44.44447" lon="1.33985">
        <ele>218</ele>
        <time>2019-04-14T11:29:54Z</time>
      </trkpt>
      <trkpt lat="44.44449" lon="1.33983">
        <ele>218</ele>
        <time>2019-04-14T11:29:55Z</time>
      </trkpt>
      <trkpt lat="44.44451" lon="1.33981">
        <ele>218</ele>
        <time>2019-04-14T11:29:56Z</time>
      </trkpt>
      <trkpt lat="44.44453" lon="1.33979">
        <ele>219</ele>
        <time>2019-04-14T11:29:57Z</time>
      </trkpt>
      <trkpt lat="44.44455" lon="1.33978">
        <ele>219</ele>
        <time>2019-04-14T11:29:58Z</time>
      </trkpt>
      <trkpt lat="44.44458" lon="1.33976">
        <ele>219</ele>
        <time>2019-04-14T11:29:59Z</time>
      </trkpt>
      <trkpt lat="44.4446" lon="1.33975">
        <ele>218</ele>
        <time>2019-04-14T11:30:00Z</time>
      </trkpt>
      <trkpt lat="44.44463" lon="1.33975">
        <ele>218</ele>
        <time>2019-04-14T11:30:01Z</time>
      </trkpt>
      <trkpt lat="44.44466" lon="1.33974">
        <ele>218</ele>
        <time>2019-04-14T11:30:02Z</time>
      </trkpt>
      <trkpt lat="44.44469" lon="1.33973">
        <ele>218</ele>
        <time>2019-04-14T11:30:03Z</time>
      </trkpt>
      <trkpt lat="44.44473" lon="1.3397">
        <ele>217</ele>
        <time>2019-04-14T11:30:04Z</time>
      </trkpt>
      <trkpt lat="44.44476" lon="1.33966">
        <ele>217</ele>
        <time>2019-04-14T11:30:05Z</time>
      </trkpt>
      <trkpt lat="44.44479" lon="1.33962">
        <ele>217</ele>
        <time>2019-04-14T11:30:06Z</time>
      </trkpt>
      <trkpt lat="44.44481" lon="1.33956">
        <ele>217</ele>
        <time>2019-04-14T11:30:07Z</time>
      </trkpt>
      <trkpt lat="44.44483" lon="1.33951">
        <ele>217</ele>
        <time>2019-04-14T11:30:08Z</time>
      </trkpt>
      <trkpt lat="44.44483" lon="1.33945">
        <ele>217</ele>
        <time>2019-04-14T11:30:09Z</time>
      </trkpt>
      <trkpt lat="44.44484" lon="1.33939">
        <ele>217</ele>
        <time>2019-04-14T11:30:10Z</time>
      </trkpt>
      <trkpt lat="44.44485" lon="1.33934">
        <ele>217</ele>
        <time>2019-04-14T11:30:11Z</time>
      </trkpt>
      <trkpt lat="44.44486" lon="1.33929">
        <ele>217</ele>
        <time>2019-04-14T11:30:12Z</time>
      </trkpt>
      <trkpt lat="44.44487" lon="1.33924">
        <ele>217</ele>
        <time>2019-04-14T11:30:13Z</time>
      </trkpt>
      <trkpt lat="44.44489" lon="1.33919">
        <ele>217</ele>
        <time>2019-04-14T11:30:14Z</time>
      </trkpt>
      <trkpt lat="44.4449" lon="1.33913">
        <ele>217</ele>
        <time>2019-04-14T11:30:15Z</time>
      </trkpt>
      <trkpt lat="44.44491" lon="1.33907">
        <ele>216</ele>
        <time>2019-04-14T11:30:16Z</time>
      </trkpt>
      <trkpt lat="44.44492" lon="1.33901">
        <ele>217</ele>
        <time>2019-04-14T11:30:17Z</time>
      </trkpt>
      <trkpt lat="44.44492" lon="1.33896">
        <ele>216</ele>
        <time>2019-04-14T11:30:18Z</time>
      </trkpt>
      <trkpt lat="44.44491" lon="1.33891">
        <ele>217</ele>
        <time>2019-04-14T11:30:19Z</time>
      </trkpt>
      <trkpt lat="44.44491" lon="1.33886">
        <ele>217</ele>
        <time>2019-04-14T11:30:20Z</time>
      </trkpt>
      <trkpt lat="44.4449" lon="1.33882">
        <ele>217</ele>
        <time>2019-04-14T11:30:21Z</time>
      </trkpt>
      <trkpt lat="44.4449" lon="1.33878">
        <ele>217</ele>
        <time>2019-04-14T11:30:22Z</time>
      </trkpt>
      <trkpt lat="44.4449" lon="1.33875">
        <ele>218</ele>
        <time>2019-04-14T11:30:23Z</time>
      </trkpt>
      <trkpt lat="44.4449" lon="1.33871">
        <ele>218</ele>
        <time>2019-04-14T11:30:24Z</time>
      </trkpt>
      <trkpt lat="44.4449" lon="1.33867">
        <ele>218</ele>
        <time>2019-04-14T11:30:25Z</time>
      </trkpt>
      <trkpt lat="44.44489" lon="1.33863">
        <ele>218</ele>
        <time>2019-04-14T11:30:26Z</time>
      </trkpt>
      <trkpt lat="44.44489" lon="1.3386">
        <ele>219</ele>
        <time>2019-04-14T11:30:27Z</time>
      </trkpt>
      <trkpt lat="44.44488" lon="1.33857">
        <ele>219</ele>
        <time>2019-04-14T11:30:28Z</time>
      </trkpt>
      <trkpt lat="44.44488" lon="1.33855">
        <ele>219</ele>
        <time>2019-04-14T11:30:29Z</time>
      </trkpt>
      <trkpt lat="44.44488" lon="1.33852">
        <ele>219</ele>
        <time>2019-04-14T11:30:30Z</time>
      </trkpt>
      <trkpt lat="44.44489" lon="1.3385">
        <ele>219</ele>
        <time>2019-04-14T11:30:31Z</time>
      </trkpt>
      <trkpt lat="44.44491" lon="1.33848">
        <ele>219</ele>
        <time>2019-04-14T11:30:32Z</time>
      </trkpt>
      <trkpt lat="44.44492" lon="1.33846">
        <ele>218</ele>
        <time>2019-04-14T11:30:33Z</time>
      </trkpt>
      <trkpt lat="44.44493" lon="1.33844">
        <ele>218</ele>
        <time>2019-04-14T11:30:34Z</time>
      </trkpt>
      <trkpt lat="44.44494" lon="1.33841">
        <ele>218</ele>
        <time>2019-04-14T11:30:35Z</time>
      </trkpt>
      <trkpt lat="44.44495" lon="1.33839">
        <ele>218</ele>
        <time>2019-04-14T11:30:36Z</time>
      </trkpt>
      <trkpt lat="44.44497" lon="1.33838">
        <ele>218</ele>
        <time>2019-04-14T11:30:37Z</time>
      </trkpt>
      <trkpt lat="44.445" lon="1.33837">
        <ele>217</ele>
        <time>2019-04-14T11:30:38Z</time>
      </trkpt>
      <trkpt lat="44.44503" lon="1.33836">
        <ele>217</ele>
        <time>2019-04-14T11:30:39Z</time>
      </trkpt>
      <trkpt lat="44.44508" lon="1.33835">
        <ele>217</ele>
        <time>2019-04-14T11:30:40Z</time>
      </trkpt>
      <trkpt lat="44.44513" lon="1.33833">
        <ele>216</ele>
        <time>2019-04-14T11:30:41Z</time>
      </trkpt>
      <trkpt lat="44.44519" lon="1.3383">
        <ele>216</ele>
        <time>2019-04-14T11:30:42Z</time>
      </trkpt>
      <trkpt lat="44.44524" lon="1.33828">
        <ele>215</ele>
        <time>2019-04-14T11:30:43Z</time>
      </trkpt>
      <trkpt lat="44.44529" lon="1.33828">
        <ele>215</ele>
        <time>2019-04-14T11:30:44Z</time>
      </trkpt>
      <trkpt lat="44.44534" lon="1.3383">
        <ele>215</ele>
        <time>2019-04-14T11:30:45Z</time>
      </trkpt>
      <trkpt lat="44.44538" lon="1.33833">
        <ele>215</ele>
        <time>2019-04-14T11:30:46Z</time>
      </trkpt>
      <trkpt lat="44.44541" lon="1.33838">
        <ele>215</ele>
        <time>2019-04-14T11:30:47Z</time>
      </trkpt>
      <trkpt lat="44.44543" lon="1.3384">
        <ele>215</ele>
        <time>2019-04-14T11:30:48Z</time>
      </trkpt>
      <trkpt lat="44.44545" lon="1.33841">
        <ele>216</ele>
        <time>2019-04-14T11:30:49Z</time>
      </trkpt>
      <trkpt lat="44.44546" lon="1.3384">
        <ele>216</ele>
        <time>2019-04-14T11:30:50Z</time>
      </trkpt>
      <trkpt lat="44.44546" lon="1.3384">
        <ele>216</ele>
        <time>2019-04-14T11:30:51Z</time>
      </trkpt>
      <trkpt lat="44.44546" lon="1.3384">
        <ele>217</ele>
        <time>2019-04-14T11:30:52Z</time>
      </trkpt>
      <trkpt lat="44.44547" lon="1.33839">
        <ele>217</ele>
        <time>2019-04-14T11:30:53Z</time>
      </trkpt>
      <trkpt lat="44.44547" lon="1.33838">
        <ele>217</ele>
        <time>2019-04-14T11:30:54Z</time>
      </trkpt>
      <trkpt lat="44.44547" lon="1.33836">
        <ele>217</ele>
        <time>2019-04-14T11:30:55Z</time>
      </trkpt>
      <trkpt lat="44.44547" lon="1.33835">
        <ele>217</ele>
        <time>2019-04-14T11:30:56Z</time>
      </trkpt>
      <trkpt lat="44.44547" lon="1.33834">
        <ele>217</ele>
        <time>2019-04-14T11:30:57Z</time>
      </trkpt>
      <trkpt lat="44.44547" lon="1.33833">
        <ele>218</ele>
        <time>2019-04-14T11:30:58Z</time>
      </trkpt>
      <trkpt lat="44.44548" lon="1.33832">
        <ele>218</ele>
        <time>2019-04-14T11:30:59Z</time>
      </trkpt>
      <trkpt lat="44.44548" lon="1.33831">
        <ele>218</ele>
        <time>2019-04-14T11:31:00Z</time>
      </trkpt>
      <trkpt lat="44.44548" lon="1.33831">
        <ele>218</ele>
        <time>2019-04-14T11:31:01Z</time>
      </trkpt>
      <trkpt lat="44.44548" lon="1.33831">
        <ele>218</ele>
        <time>2019-04-14T11:31:02Z</time>
      </trkpt>
      <trkpt lat="44.44548" lon="1.33831">
        <ele>218</ele>
        <time>2019-04-14T11:31:03Z</time>
      </trkpt>
      <trkpt lat="44.44548" lon="1.3383">
        <ele>218</ele>
        <time>2019-04-14T11:31:04Z</time>
      </trkpt>
      <trkpt lat="44.44548" lon="1.33831">
        <ele>220</ele>
        <time>2019-04-14T11:31:05Z</time>
      </trkpt>
      <trkpt lat="44.44555" lon="1.33818">
        <ele>221</ele>
        <time>2019-04-14T11:31:15Z</time>
      </trkpt>
      <trkpt lat="44.44555" lon="1.33817">
        <ele>221</ele>
        <time>2019-04-14T11:31:16Z</time>
      </trkpt>
      <trkpt lat="44.44555" lon="1.33817">
        <ele>221</ele>
        <time>2019-04-14T11:31:17Z</time>
      </trkpt>
      <trkpt lat="44.44555" lon="1.33817">
        <ele>221</ele>
        <time>2019-04-14T11:31:18Z</time>
      </trkpt>
      <trkpt lat="44.44556" lon="1.33816">
        <ele>221</ele>
        <time>2019-04-14T11:31:19Z</time>
      </trkpt>
      <trkpt lat="44.44556" lon="1.33816">
        <ele>221</ele>
        <time>2019-04-14T11:31:20Z</time>
      </trkpt>
      <trkpt lat="44.44557" lon="1.33816">
        <ele>222</ele>
        <time>2019-04-14T11:31:21Z</time>
      </trkpt>
      <trkpt lat="44.44558" lon="1.33816">
        <ele>222</ele>
        <time>2019-04-14T11:31:22Z</time>
      </trkpt>
      <trkpt lat="44.44559" lon="1.33816">
        <ele>222</ele>
        <time>2019-04-14T11:31:23Z</time>
      </trkpt>
      <trkpt lat="44.44569" lon="1.33812">
        <ele>225</ele>
        <time>2019-04-14T11:31:36Z</time>
      </trkpt>
      <trkpt lat="44.4457" lon="1.33811">
        <ele>225</ele>
        <time>2019-04-14T11:31:37Z</time>
      </trkpt>
      <trkpt lat="44.44571" lon="1.33811">
        <ele>226</ele>
        <time>2019-04-14T11:31:38Z</time>
      </trkpt>
      <trkpt lat="44.44572" lon="1.3381">
        <ele>226</ele>
        <time>2019-04-14T11:31:39Z</time>
      </trkpt>
      <trkpt lat="44.44573" lon="1.3381">
        <ele>226</ele>
        <time>2019-04-14T11:31:40Z</time>
      </trkpt>
      <trkpt lat="44.44573" lon="1.33809">
        <ele>226</ele>
        <time>2019-04-14T11:31:41Z</time>
      </trkpt>
      <trkpt lat="44.44574" lon="1.33809">
        <ele>227</ele>
        <time>2019-04-14T11:31:42Z</time>
      </trkpt>
      <trkpt lat="44.44575" lon="1.33809">
        <ele>227</ele>
        <time>2019-04-14T11:31:43Z</time>
      </trkpt>
      <trkpt lat="44.44576" lon="1.33808">
        <ele>227</ele>
        <time>2019-04-14T11:31:44Z</time>
      </trkpt>
      <trkpt lat="44.44577" lon="1.33808">
        <ele>227</ele>
        <time>2019-04-14T11:31:45Z</time>
      </trkpt>
      <trkpt lat="44.44577" lon="1.33808">
        <ele>227</ele>
        <time>2019-04-14T11:31:46Z</time>
      </trkpt>
      <trkpt lat="44.44578" lon="1.33808">
        <ele>228</ele>
        <time>2019-04-14T11:31:47Z</time>
      </trkpt>
      <trkpt lat="44.44579" lon="1.33808">
        <ele>228</ele>
        <time>2019-04-14T11:31:48Z</time>
      </trkpt>
      <trkpt lat="44.44579" lon="1.33808">
        <ele>228</ele>
        <time>2019-04-14T11:31:49Z</time>
      </trkpt>
      <trkpt lat="44.4458" lon="1.33808">
        <ele>228</ele>
        <time>2019-04-14T11:31:50Z</time>
      </trkpt>
      <trkpt lat="44.44581" lon="1.33808">
        <ele>228</ele>
        <time>2019-04-14T11:31:51Z</time>
      </trkpt>
      <trkpt lat="44.44581" lon="1.33808">
        <ele>228</ele>
        <time>2019-04-14T11:31:52Z</time>
      </trkpt>
      <trkpt lat="44.44582" lon="1.33808">
        <ele>228</ele>
        <time>2019-04-14T11:31:53Z</time>
      </trkpt>
      <trkpt lat="44.44582" lon="1.33808">
        <ele>228</ele>
        <time>2019-04-14T11:31:54Z</time>
      </trkpt>
      <trkpt lat="44.44582" lon="1.33808">
        <ele>228</ele>
        <time>2019-04-14T11:31:55Z</time>
      </trkpt>
      <trkpt lat="44.44582" lon="1.33808">
        <ele>228</ele>
        <time>2019-04-14T11:31:56Z</time>
      </trkpt>
      <trkpt lat="44.44582" lon="1.33808">
        <ele>228</ele>
        <time>2019-04-14T11:31:57Z</time>
      </trkpt>
      <trkpt lat="44.44582" lon="1.33807">
        <ele>228</ele>
        <time>2019-04-14T11:31:58Z</time>
      </trkpt>
      <trkpt lat="44.44582" lon="1.33807">
        <ele>228</ele>
        <time>2019-04-14T11:31:59Z</time>
      </trkpt>
      <trkpt lat="44.44594" lon="1.33803">
        <ele>230</ele>
        <time>2019-04-14T11:32:36Z</time>
      </trkpt>
      <trkpt lat="44.44595" lon="1.33802">
        <ele>230</ele>
        <time>2019-04-14T11:32:37Z</time>
      </trkpt>
      <trkpt lat="44.44597" lon="1.33802">
        <ele>231</ele>
        <time>2019-04-14T11:32:38Z</time>
      </trkpt>
      <trkpt lat="44.44598" lon="1.33802">
        <ele>231</ele>
        <time>2019-04-14T11:32:39Z</time>
      </trkpt>
      <trkpt lat="44.44599" lon="1.33802">
        <ele>231</ele>
        <time>2019-04-14T11:32:40Z</time>
      </trkpt>
      <trkpt lat="44.44601" lon="1.33802">
        <ele>231</ele>
        <time>2019-04-14T11:32:41Z</time>
      </trkpt>
      <trkpt lat="44.44602" lon="1.33803">
        <ele>232</ele>
        <time>2019-04-14T11:32:42Z</time>
      </trkpt>
      <trkpt lat="44.44603" lon="1.33803">
        <ele>232</ele>
        <time>2019-04-14T11:32:43Z</time>
      </trkpt>
      <trkpt lat="44.44604" lon="1.33804">
        <ele>232</ele>
        <time>2019-04-14T11:32:44Z</time>
      </trkpt>
      <trkpt lat="44.44605" lon="1.33806">
        <ele>232</ele>
        <time>2019-04-14T11:32:45Z</time>
      </trkpt>
      <trkpt lat="44.44604" lon="1.33808">
        <ele>232</ele>
        <time>2019-04-14T11:32:46Z</time>
      </trkpt>
      <trkpt lat="44.44603" lon="1.3381">
        <ele>232</ele>
        <time>2019-04-14T11:32:47Z</time>
      </trkpt>
      <trkpt lat="44.44603" lon="1.33814">
        <ele>231</ele>
        <time>2019-04-14T11:32:48Z</time>
      </trkpt>
      <trkpt lat="44.44602" lon="1.33819">
        <ele>231</ele>
        <time>2019-04-14T11:32:49Z</time>
      </trkpt>
      <trkpt lat="44.44602" lon="1.33824">
        <ele>231</ele>
        <time>2019-04-14T11:32:50Z</time>
      </trkpt>
      <trkpt lat="44.44602" lon="1.33829">
        <ele>230</ele>
        <time>2019-04-14T11:32:51Z</time>
      </trkpt>
      <trkpt lat="44.44603" lon="1.33835">
        <ele>230</ele>
        <time>2019-04-14T11:32:52Z</time>
      </trkpt>
      <trkpt lat="44.44604" lon="1.3384">
        <ele>230</ele>
        <time>2019-04-14T11:32:53Z</time>
      </trkpt>
      <trkpt lat="44.44607" lon="1.33845">
        <ele>230</ele>
        <time>2019-04-14T11:32:54Z</time>
      </trkpt>
      <trkpt lat="44.4461" lon="1.33849">
        <ele>230</ele>
        <time>2019-04-14T11:32:55Z</time>
      </trkpt>
      <trkpt lat="44.44612" lon="1.33853">
        <ele>230</ele>
        <time>2019-04-14T11:32:56Z</time>
      </trkpt>
      <trkpt lat="44.44614" lon="1.33857">
        <ele>230</ele>
        <time>2019-04-14T11:32:57Z</time>
      </trkpt>
      <trkpt lat="44.44616" lon="1.33861">
        <ele>229</ele>
        <time>2019-04-14T11:32:58Z</time>
      </trkpt>
      <trkpt lat="44.44617" lon="1.33867">
        <ele>229</ele>
        <time>2019-04-14T11:32:59Z</time>
      </trkpt>
      <trkpt lat="44.44618" lon="1.33873">
        <ele>229</ele>
        <time>2019-04-14T11:33:00Z</time>
      </trkpt>
      <trkpt lat="44.44619" lon="1.33881">
        <ele>228</ele>
        <time>2019-04-14T11:33:01Z</time>
      </trkpt>
      <trkpt lat="44.44622" lon="1.33887">
        <ele>228</ele>
        <time>2019-04-14T11:33:02Z</time>
      </trkpt>
      <trkpt lat="44.44624" lon="1.33893">
        <ele>227</ele>
        <time>2019-04-14T11:33:03Z</time>
      </trkpt>
      <trkpt lat="44.44626" lon="1.33901">
        <ele>226</ele>
        <time>2019-04-14T11:33:04Z</time>
      </trkpt>
      <trkpt lat="44.44626" lon="1.3391">
        <ele>225</ele>
        <time>2019-04-14T11:33:05Z</time>
      </trkpt>
      <trkpt lat="44.44626" lon="1.33919">
        <ele>224</ele>
        <time>2019-04-14T11:33:06Z</time>
      </trkpt>
      <trkpt lat="44.44627" lon="1.33926">
        <ele>224</ele>
        <time>2019-04-14T11:33:07Z</time>
      </trkpt>
      <trkpt lat="44.44629" lon="1.33932">
        <ele>224</ele>
        <time>2019-04-14T11:33:08Z</time>
      </trkpt>
      <trkpt lat="44.44631" lon="1.33936">
        <ele>224</ele>
        <time>2019-04-14T11:33:09Z</time>
      </trkpt>
      <trkpt lat="44.44633" lon="1.3394">
        <ele>224</ele>
        <time>2019-04-14T11:33:10Z</time>
      </trkpt>
      <trkpt lat="44.44634" lon="1.33944">
        <ele>224</ele>
        <time>2019-04-14T11:33:11Z</time>
      </trkpt>
      <trkpt lat="44.44635" lon="1.33947">
        <ele>224</ele>
        <time>2019-04-14T11:33:12Z</time>
      </trkpt>
      <trkpt lat="44.44636" lon="1.3395">
        <ele>224</ele>
        <time>2019-04-14T11:33:13Z</time>
      </trkpt>
      <trkpt lat="44.44637" lon="1.33954">
        <ele>224</ele>
        <time>2019-04-14T11:33:14Z</time>
      </trkpt>
      <trkpt lat="44.44638" lon="1.33957">
        <ele>224</ele>
        <time>2019-04-14T11:33:15Z</time>
      </trkpt>
      <trkpt lat="44.4464" lon="1.33961">
        <ele>224</ele>
        <time>2019-04-14T11:33:16Z</time>
      </trkpt>
      <trkpt lat="44.4464" lon="1.33965">
        <ele>224</ele>
        <time>2019-04-14T11:33:17Z</time>
      </trkpt>
      <trkpt lat="44.4464" lon="1.3397">
        <ele>223</ele>
        <time>2019-04-14T11:33:18Z</time>
      </trkpt>
      <trkpt lat="44.44641" lon="1.33975">
        <ele>223</ele>
        <time>2019-04-14T11:33:19Z</time>
      </trkpt>
      <trkpt lat="44.44641" lon="1.3398">
        <ele>223</ele>
        <time>2019-04-14T11:33:20Z</time>
      </trkpt>
      <trkpt lat="44.44642" lon="1.33986">
        <ele>223</ele>
        <time>2019-04-14T11:33:21Z</time>
      </trkpt>
      <trkpt lat="44.44641" lon="1.33993">
        <ele>222</ele>
        <time>2019-04-14T11:33:22Z</time>
      </trkpt>
      <trkpt lat="44.44641" lon="1.33999">
        <ele>222</ele>
        <time>2019-04-14T11:33:23Z</time>
      </trkpt>
      <trkpt lat="44.44641" lon="1.34004">
        <ele>222</ele>
        <time>2019-04-14T11:33:24Z</time>
      </trkpt>
      <trkpt lat="44.44642" lon="1.34008">
        <ele>222</ele>
        <time>2019-04-14T11:33:25Z</time>
      </trkpt>
      <trkpt lat="44.44644" lon="1.3401">
        <ele>222</ele>
        <time>2019-04-14T11:33:26Z</time>
      </trkpt>
      <trkpt lat="44.44646" lon="1.34012">
        <ele>222</ele>
        <time>2019-04-14T11:33:27Z</time>
      </trkpt>
      <trkpt lat="44.44647" lon="1.34013">
        <ele>222</ele>
        <time>2019-04-14T11:33:28Z</time>
      </trkpt>
      <trkpt lat="44.44648" lon="1.34015">
        <ele>222</ele>
        <time>2019-04-14T11:33:29Z</time>
      </trkpt>
      <trkpt lat="44.4465" lon="1.34017">
        <ele>222</ele>
        <time>2019-04-14T11:33:30Z</time>
      </trkpt>
      <trkpt lat="44.44651" lon="1.34018">
        <ele>222</ele>
        <time>2019-04-14T11:33:31Z</time>
      </trkpt>
      <trkpt lat="44.44652" lon="1.3402">
        <ele>222</ele>
        <time>2019-04-14T11:33:32Z</time>
      </trkpt>
      <trkpt lat="44.44653" lon="1.34021">
        <ele>222</ele>
        <time>2019-04-14T11:33:33Z</time>
      </trkpt>
      <trkpt lat="44.44654" lon="1.34022">
        <ele>222</ele>
        <time>2019-04-14T11:33:34Z</time>
      </trkpt>
      <trkpt lat="44.44654" lon="1.34024">
        <ele>222</ele>
        <time>2019-04-14T11:33:35Z</time>
      </trkpt>
      <trkpt lat="44.44655" lon="1.34025">
        <ele>222</ele>
        <time>2019-04-14T11:33:36Z</time>
      </trkpt>
      <trkpt lat="44.44655" lon="1.34026">
        <ele>222</ele>
        <time>2019-04-14T11:33:37Z</time>
      </trkpt>
      <trkpt lat="44.44655" lon="1.34027">
        <ele>222</ele>
        <time>2019-04-14T11:33:38Z</time>
      </trkpt>
      <trkpt lat="44.44655" lon="1.34028">
        <ele>222</ele>
        <time>2019-04-14T11:33:39Z</time>
      </trkpt>
      <trkpt lat="44.44655" lon="1.3403">
        <ele>222</ele>
        <time>2019-04-14T11:33:40Z</time>
      </trkpt>
      <trkpt lat="44.44654" lon="1.34033">
        <ele>222</ele>
        <time>2019-04-14T11:33:41Z</time>
      </trkpt>
      <trkpt lat="44.44653" lon="1.34037">
        <ele>221</ele>
        <time>2019-04-14T11:33:42Z</time>
      </trkpt>
      <trkpt lat="44.44653" lon="1.34042">
        <ele>221</ele>
        <time>2019-04-14T11:33:43Z</time>
      </trkpt>
      <trkpt lat="44.44652" lon="1.34047">
        <ele>221</ele>
        <time>2019-04-14T11:33:44Z</time>
      </trkpt>
      <trkpt lat="44.44652" lon="1.34053">
        <ele>220</ele>
        <time>2019-04-14T11:33:45Z</time>
      </trkpt>
      <trkpt lat="44.44652" lon="1.3406">
        <ele>220</ele>
        <time>2019-04-14T11:33:46Z</time>
      </trkpt>
      <trkpt lat="44.44653" lon="1.34067">
        <ele>220</ele>
        <time>2019-04-14T11:33:47Z</time>
      </trkpt>
      <trkpt lat="44.44654" lon="1.34074">
        <ele>220</ele>
        <time>2019-04-14T11:33:48Z</time>
      </trkpt>
      <trkpt lat="44.44655" lon="1.34081">
        <ele>219</ele>
        <time>2019-04-14T11:33:49Z</time>
      </trkpt>
      <trkpt lat="44.44655" lon="1.34089">
        <ele>219</ele>
        <time>2019-04-14T11:33:50Z</time>
      </trkpt>
      <trkpt lat="44.44656" lon="1.34096">
        <ele>219</ele>
        <time>2019-04-14T11:33:51Z</time>
      </trkpt>
      <trkpt lat="44.44657" lon="1.34103">
        <ele>218</ele>
        <time>2019-04-14T11:33:52Z</time>
      </trkpt>
      <trkpt lat="44.44658" lon="1.34111">
        <ele>218</ele>
        <time>2019-04-14T11:33:53Z</time>
      </trkpt>
      <trkpt lat="44.44659" lon="1.34117">
        <ele>217</ele>
        <time>2019-04-14T11:33:54Z</time>
      </trkpt>
      <trkpt lat="44.44659" lon="1.34125">
        <ele>217</ele>
        <time>2019-04-14T11:33:55Z</time>
      </trkpt>
      <trkpt lat="44.44659" lon="1.34132">
        <ele>217</ele>
        <time>2019-04-14T11:33:56Z</time>
      </trkpt>
      <trkpt lat="44.4466" lon="1.3414">
        <ele>216</ele>
        <time>2019-04-14T11:33:57Z</time>
      </trkpt>
      <trkpt lat="44.44661" lon="1.34148">
        <ele>216</ele>
        <time>2019-04-14T11:33:58Z</time>
      </trkpt>
      <trkpt lat="44.44661" lon="1.34156">
        <ele>215</ele>
        <time>2019-04-14T11:33:59Z</time>
      </trkpt>
      <trkpt lat="44.44661" lon="1.34164">
        <ele>215</ele>
        <time>2019-04-14T11:34:00Z</time>
      </trkpt>
      <trkpt lat="44.44662" lon="1.34174">
        <ele>214</ele>
        <time>2019-04-14T11:34:01Z</time>
      </trkpt>
      <trkpt lat="44.44663" lon="1.34183">
        <ele>214</ele>
        <time>2019-04-14T11:34:02Z</time>
      </trkpt>
      <trkpt lat="44.44663" lon="1.3419">
        <ele>213</ele>
        <time>2019-04-14T11:34:03Z</time>
      </trkpt>
      <trkpt lat="44.44664" lon="1.34194">
        <ele>213</ele>
        <time>2019-04-14T11:34:04Z</time>
      </trkpt>
      <trkpt lat="44.44664" lon="1.34198">
        <ele>213</ele>
        <time>2019-04-14T11:34:05Z</time>
      </trkpt>
      <trkpt lat="44.44665" lon="1.34204">
        <ele>212</ele>
        <time>2019-04-14T11:34:06Z</time>
      </trkpt>
      <trkpt lat="44.44664" lon="1.34209">
        <ele>212</ele>
        <time>2019-04-14T11:34:07Z</time>
      </trkpt>
      <trkpt lat="44.44665" lon="1.34215">
        <ele>212</ele>
        <time>2019-04-14T11:34:08Z</time>
      </trkpt>
      <trkpt lat="44.44667" lon="1.34222">
        <ele>212</ele>
        <time>2019-04-14T11:34:09Z</time>
      </trkpt>
      <trkpt lat="44.44669" lon="1.34228">
        <ele>212</ele>
        <time>2019-04-14T11:34:10Z</time>
      </trkpt>
      <trkpt lat="44.4467" lon="1.34234">
        <ele>212</ele>
        <time>2019-04-14T11:34:11Z</time>
      </trkpt>
      <trkpt lat="44.44672" lon="1.3424">
        <ele>211</ele>
        <time>2019-04-14T11:34:12Z</time>
      </trkpt>
      <trkpt lat="44.44674" lon="1.34246">
        <ele>211</ele>
        <time>2019-04-14T11:34:13Z</time>
      </trkpt>
      <trkpt lat="44.44674" lon="1.34252">
        <ele>211</ele>
        <time>2019-04-14T11:34:14Z</time>
      </trkpt>
      <trkpt lat="44.44673" lon="1.34258">
        <ele>210</ele>
        <time>2019-04-14T11:34:15Z</time>
      </trkpt>
      <trkpt lat="44.44671" lon="1.34264">
        <ele>210</ele>
        <time>2019-04-14T11:34:16Z</time>
      </trkpt>
      <trkpt lat="44.44671" lon="1.34269">
        <ele>209</ele>
        <time>2019-04-14T11:34:17Z</time>
      </trkpt>
      <trkpt lat="44.44673" lon="1.34273">
        <ele>209</ele>
        <time>2019-04-14T11:34:18Z</time>
      </trkpt>
      <trkpt lat="44.44675" lon="1.34277">
        <ele>209</ele>
        <time>2019-04-14T11:34:19Z</time>
      </trkpt>
      <trkpt lat="44.44676" lon="1.34282">
        <ele>209</ele>
        <time>2019-04-14T11:34:20Z</time>
      </trkpt>
      <trkpt lat="44.44677" lon="1.34287">
        <ele>209</ele>
        <time>2019-04-14T11:34:21Z</time>
      </trkpt>
      <trkpt lat="44.44678" lon="1.34293">
        <ele>208</ele>
        <time>2019-04-14T11:34:22Z</time>
      </trkpt>
      <trkpt lat="44.4468" lon="1.34299">
        <ele>208</ele>
        <time>2019-04-14T11:34:23Z</time>
      </trkpt>
      <trkpt lat="44.4468" lon="1.34306">
        <ele>208</ele>
        <time>2019-04-14T11:34:24Z</time>
      </trkpt>
      <trkpt lat="44.44681" lon="1.34314">
        <ele>207</ele>
        <time>2019-04-14T11:34:25Z</time>
      </trkpt>
      <trkpt lat="44.44682" lon="1.34321">
        <ele>207</ele>
        <time>2019-04-14T11:34:26Z</time>
      </trkpt>
      <trkpt lat="44.44683" lon="1.34328">
        <ele>207</ele>
        <time>2019-04-14T11:34:27Z</time>
      </trkpt>
      <trkpt lat="44.44685" lon="1.34334">
        <ele>206</ele>
        <time>2019-04-14T11:34:28Z</time>
      </trkpt>
      <trkpt lat="44.44688" lon="1.34339">
        <ele>206</ele>
        <time>2019-04-14T11:34:29Z</time>
      </trkpt>
      <trkpt lat="44.44692" lon="1.34345">
        <ele>206</ele>
        <time>2019-04-14T11:34:30Z</time>
      </trkpt>
      <trkpt lat="44.44696" lon="1.3435">
        <ele>205</ele>
        <time>2019-04-14T11:34:31Z</time>
      </trkpt>
      <trkpt lat="44.447" lon="1.34356">
        <ele>205</ele>
        <time>2019-04-14T11:34:32Z</time>
      </trkpt>
      <trkpt lat="44.44704" lon="1.34363">
        <ele>204</ele>
        <time>2019-04-14T11:34:33Z</time>
      </trkpt>
      <trkpt lat="44.44708" lon="1.3437">
        <ele>203</ele>
        <time>2019-04-14T11:34:34Z</time>
      </trkpt>
      <trkpt lat="44.44711" lon="1.34376">
        <ele>202</ele>
        <time>2019-04-14T11:34:35Z</time>
      </trkpt>
      <trkpt lat="44.44714" lon="1.34381">
        <ele>201</ele>
        <time>2019-04-14T11:34:36Z</time>
      </trkpt>
      <trkpt lat="44.44716" lon="1.34385">
        <ele>201</ele>
        <time>2019-04-14T11:34:37Z</time>
      </trkpt>
      <trkpt lat="44.44717" lon="1.34389">
        <ele>200</ele>
        <time>2019-04-14T11:34:38Z</time>
      </trkpt>
      <trkpt lat="44.44719" lon="1.34394">
        <ele>199</ele>
        <time>2019-04-14T11:34:39Z</time>
      </trkpt>
      <trkpt lat="44.44721" lon="1.34399">
        <ele>199</ele>
        <time>2019-04-14T11:34:40Z</time>
      </trkpt>
      <trkpt lat="44.44724" lon="1.34405">
        <ele>198</ele>
        <time>2019-04-14T11:34:41Z</time>
      </trkpt>
      <trkpt lat="44.44724" lon="1.34411">
        <ele>198</ele>
        <time>2019-04-14T11:34:42Z</time>
      </trkpt>
      <trkpt lat="44.44723" lon="1.34417">
        <ele>198</ele>
        <time>2019-04-14T11:34:43Z</time>
      </trkpt>
      <trkpt lat="44.44722" lon="1.34422">
        <ele>197</ele>
        <time>2019-04-14T11:34:44Z</time>
      </trkpt>
      <trkpt lat="44.44721" lon="1.34427">
        <ele>198</ele>
        <time>2019-04-14T11:34:45Z</time>
      </trkpt>
      <trkpt lat="44.44721" lon="1.34431">
        <ele>198</ele>
        <time>2019-04-14T11:34:46Z</time>
      </trkpt>
      <trkpt lat="44.4472" lon="1.34434">
        <ele>198</ele>
        <time>2019-04-14T11:34:47Z</time>
      </trkpt>
      <trkpt lat="44.44719" lon="1.34437">
        <ele>198</ele>
        <time>2019-04-14T11:34:48Z</time>
      </trkpt>
      <trkpt lat="44.44718" lon="1.34439">
        <ele>198</ele>
        <time>2019-04-14T11:34:49Z</time>
      </trkpt>
      <trkpt lat="44.44717" lon="1.34441">
        <ele>197</ele>
        <time>2019-04-14T11:34:50Z</time>
      </trkpt>
      <trkpt lat="44.44716" lon="1.34444">
        <ele>197</ele>
        <time>2019-04-14T11:34:51Z</time>
      </trkpt>
      <trkpt lat="44.44716" lon="1.34446">
        <ele>197</ele>
        <time>2019-04-14T11:34:52Z</time>
      </trkpt>
      <trkpt lat="44.44715" lon="1.34449">
        <ele>197</ele>
        <time>2019-04-14T11:34:53Z</time>
      </trkpt>
      <trkpt lat="44.44716" lon="1.34451">
        <ele>197</ele>
        <time>2019-04-14T11:34:54Z</time>
      </trkpt>
      <trkpt lat="44.44716" lon="1.34453">
        <ele>197</ele>
        <time>2019-04-14T11:34:55Z</time>
      </trkpt>
      <trkpt lat="44.44715" lon="1.34456">
        <ele>197</ele>
        <time>2019-04-14T11:34:56Z</time>
      </trkpt>
      <trkpt lat="44.44714" lon="1.3446">
        <ele>197</ele>
        <time>2019-04-14T11:34:57Z</time>
      </trkpt>
      <trkpt lat="44.44713" lon="1.34464">
        <ele>197</ele>
        <time>2019-04-14T11:34:58Z</time>
      </trkpt>
      <trkpt lat="44.44711" lon="1.34469">
        <ele>196</ele>
        <time>2019-04-14T11:34:59Z</time>
      </trkpt>
      <trkpt lat="44.4471" lon="1.34472">
        <ele>196</ele>
        <time>2019-04-14T11:35:00Z</time>
      </trkpt>
      <trkpt lat="44.44708" lon="1.34475">
        <ele>195</ele>
        <time>2019-04-14T11:35:01Z</time>
      </trkpt>
      <trkpt lat="44.44707" lon="1.34479">
        <ele>195</ele>
        <time>2019-04-14T11:35:02Z</time>
      </trkpt>
      <trkpt lat="44.44706" lon="1.34484">
        <ele>195</ele>
        <time>2019-04-14T11:35:03Z</time>
      </trkpt>
      <trkpt lat="44.44705" lon="1.34489">
        <ele>195</ele>
        <time>2019-04-14T11:35:04Z</time>
      </trkpt>
      <trkpt lat="44.44703" lon="1.34494">
        <ele>194</ele>
        <time>2019-04-14T11:35:05Z</time>
      </trkpt>
      <trkpt lat="44.44703" lon="1.34498">
        <ele>194</ele>
        <time>2019-04-14T11:35:06Z</time>
      </trkpt>
      <trkpt lat="44.44702" lon="1.34501">
        <ele>193</ele>
        <time>2019-04-14T11:35:07Z</time>
      </trkpt>
      <trkpt lat="44.44701" lon="1.34504">
        <ele>193</ele>
        <time>2019-04-14T11:35:08Z</time>
      </trkpt>
      <trkpt lat="44.447" lon="1.34508">
        <ele>193</ele>
        <time>2019-04-14T11:35:09Z</time>
      </trkpt>
      <trkpt lat="44.44699" lon="1.34512">
        <ele>192</ele>
        <time>2019-04-14T11:35:10Z</time>
      </trkpt>
      <trkpt lat="44.44697" lon="1.34515">
        <ele>192</ele>
        <time>2019-04-14T11:35:11Z</time>
      </trkpt>
      <trkpt lat="44.44697" lon="1.34519">
        <ele>192</ele>
        <time>2019-04-14T11:35:12Z</time>
      </trkpt>
      <trkpt lat="44.44697" lon="1.34522">
        <ele>192</ele>
        <time>2019-04-14T11:35:13Z</time>
      </trkpt>
      <trkpt lat="44.44697" lon="1.34526">
        <ele>192</ele>
        <time>2019-04-14T11:35:14Z</time>
      </trkpt>
      <trkpt lat="44.44697" lon="1.3453">
        <ele>192</ele>
        <time>2019-04-14T11:35:15Z</time>
      </trkpt>
      <trkpt lat="44.44696" lon="1.34535">
        <ele>193</ele>
        <time>2019-04-14T11:35:16Z</time>
      </trkpt>
      <trkpt lat="44.44697" lon="1.3454">
        <ele>193</ele>
        <time>2019-04-14T11:35:17Z</time>
      </trkpt>
      <trkpt lat="44.44697" lon="1.34544">
        <ele>193</ele>
        <time>2019-04-14T11:35:18Z</time>
      </trkpt>
      <trkpt lat="44.44695" lon="1.34546">
        <ele>193</ele>
        <time>2019-04-14T11:35:19Z</time>
      </trkpt>
      <trkpt lat="44.44694" lon="1.34549">
        <ele>193</ele>
        <time>2019-04-14T11:35:20Z</time>
      </trkpt>
      <trkpt lat="44.44694" lon="1.34553">
        <ele>193</ele>
        <time>2019-04-14T11:35:21Z</time>
      </trkpt>
      <trkpt lat="44.44694" lon="1.34557">
        <ele>193</ele>
        <time>2019-04-14T11:35:22Z</time>
      </trkpt>
      <trkpt lat="44.44695" lon="1.34561">
        <ele>193</ele>
        <time>2019-04-14T11:35:23Z</time>
      </trkpt>
      <trkpt lat="44.44695" lon="1.34566">
        <ele>192</ele>
        <time>2019-04-14T11:35:24Z</time>
      </trkpt>
      <trkpt lat="44.44695" lon="1.34571">
        <ele>192</ele>
        <time>2019-04-14T11:35:25Z</time>
      </trkpt>
      <trkpt lat="44.44694" lon="1.34576">
        <ele>192</ele>
        <time>2019-04-14T11:35:26Z</time>
      </trkpt>
      <trkpt lat="44.44694" lon="1.34581">
        <ele>191</ele>
        <time>2019-04-14T11:35:27Z</time>
      </trkpt>
      <trkpt lat="44.44695" lon="1.34586">
        <ele>191</ele>
        <time>2019-04-14T11:35:28Z</time>
      </trkpt>
      <trkpt lat="44.44694" lon="1.34592">
        <ele>191</ele>
        <time>2019-04-14T11:35:29Z</time>
      </trkpt>
      <trkpt lat="44.44694" lon="1.34597">
        <ele>190</ele>
        <time>2019-04-14T11:35:30Z</time>
      </trkpt>
      <trkpt lat="44.44694" lon="1.34603">
        <ele>190</ele>
        <time>2019-04-14T11:35:31Z</time>
      </trkpt>
      <trkpt lat="44.44694" lon="1.34609">
        <ele>189</ele>
        <time>2019-04-14T11:35:32Z</time>
      </trkpt>
      <trkpt lat="44.44695" lon="1.34614">
        <ele>189</ele>
        <time>2019-04-14T11:35:33Z</time>
      </trkpt>
      <trkpt lat="44.44695" lon="1.3462">
        <ele>188</ele>
        <time>2019-04-14T11:35:34Z</time>
      </trkpt>
      <trkpt lat="44.44695" lon="1.34626">
        <ele>188</ele>
        <time>2019-04-14T11:35:35Z</time>
      </trkpt>
      <trkpt lat="44.44696" lon="1.3463">
        <ele>188</ele>
        <time>2019-04-14T11:35:36Z</time>
      </trkpt>
      <trkpt lat="44.44696" lon="1.34634">
        <ele>188</ele>
        <time>2019-04-14T11:35:37Z</time>
      </trkpt>
      <trkpt lat="44.44697" lon="1.34637">
        <ele>188</ele>
        <time>2019-04-14T11:35:38Z</time>
      </trkpt>
      <trkpt lat="44.44697" lon="1.3464">
        <ele>189</ele>
        <time>2019-04-14T11:35:39Z</time>
      </trkpt>
      <trkpt lat="44.44699" lon="1.34644">
        <ele>189</ele>
        <time>2019-04-14T11:35:40Z</time>
      </trkpt>
      <trkpt lat="44.447" lon="1.34647">
        <ele>190</ele>
        <time>2019-04-14T11:35:41Z</time>
      </trkpt>
      <trkpt lat="44.44702" lon="1.3465">
        <ele>190</ele>
        <time>2019-04-14T11:35:42Z</time>
      </trkpt>
      <trkpt lat="44.44702" lon="1.34653">
        <ele>190</ele>
        <time>2019-04-14T11:35:43Z</time>
      </trkpt>
      <trkpt lat="44.44703" lon="1.34656">
        <ele>190</ele>
        <time>2019-04-14T11:35:44Z</time>
      </trkpt>
      <trkpt lat="44.44702" lon="1.34659">
        <ele>190</ele>
        <time>2019-04-14T11:35:45Z</time>
      </trkpt>
      <trkpt lat="44.44702" lon="1.34663">
        <ele>190</ele>
        <time>2019-04-14T11:35:46Z</time>
      </trkpt>
      <trkpt lat="44.44702" lon="1.34668">
        <ele>190</ele>
        <time>2019-04-14T11:35:47Z</time>
      </trkpt>
      <trkpt lat="44.44702" lon="1.34673">
        <ele>190</ele>
        <time>2019-04-14T11:35:48Z</time>
      </trkpt>
      <trkpt lat="44.44702" lon="1.34678">
        <ele>190</ele>
        <time>2019-04-14T11:35:49Z</time>
      </trkpt>
      <trkpt lat="44.44703" lon="1.34682">
        <ele>190</ele>
        <time>2019-04-14T11:35:50Z</time>
      </trkpt>
      <trkpt lat="44.44704" lon="1.34685">
        <ele>190</ele>
        <time>2019-04-14T11:35:51Z</time>
      </trkpt>
      <trkpt lat="44.44706" lon="1.34688">
        <ele>191</ele>
        <time>2019-04-14T11:35:52Z</time>
      </trkpt>
      <trkpt lat="44.44707" lon="1.34691">
        <ele>191</ele>
        <time>2019-04-14T11:35:53Z</time>
      </trkpt>
      <trkpt lat="44.44708" lon="1.34695">
        <ele>192</ele>
        <time>2019-04-14T11:35:54Z</time>
      </trkpt>
      <trkpt lat="44.44709" lon="1.34698">
        <ele>192</ele>
        <time>2019-04-14T11:35:55Z</time>
      </trkpt>
      <trkpt lat="44.44709" lon="1.34702">
        <ele>192</ele>
        <time>2019-04-14T11:35:56Z</time>
      </trkpt>
      <trkpt lat="44.44709" lon="1.34706">
        <ele>192</ele>
        <time>2019-04-14T11:35:57Z</time>
      </trkpt>
      <trkpt lat="44.44709" lon="1.3471">
        <ele>192</ele>
        <time>2019-04-14T11:35:58Z</time>
      </trkpt>
      <trkpt lat="44.4471" lon="1.34713">
        <ele>192</ele>
        <time>2019-04-14T11:35:59Z</time>
      </trkpt>
      <trkpt lat="44.4471" lon="1.34717">
        <ele>192</ele>
        <time>2019-04-14T11:36:00Z</time>
      </trkpt>
      <trkpt lat="44.44711" lon="1.34721">
        <ele>192</ele>
        <time>2019-04-14T11:36:01Z</time>
      </trkpt>
      <trkpt lat="44.44711" lon="1.34724">
        <ele>192</ele>
        <time>2019-04-14T11:36:02Z</time>
      </trkpt>
      <trkpt lat="44.44711" lon="1.34727">
        <ele>192</ele>
        <time>2019-04-14T11:36:03Z</time>
      </trkpt>
      <trkpt lat="44.44711" lon="1.34728">
        <ele>192</ele>
        <time>2019-04-14T11:36:04Z</time>
      </trkpt>
      <trkpt lat="44.44711" lon="1.34729">
        <ele>192</ele>
        <time>2019-04-14T11:36:05Z</time>
      </trkpt>
      <trkpt lat="44.44712" lon="1.34731">
        <ele>192</ele>
        <time>2019-04-14T11:36:06Z</time>
      </trkpt>
      <trkpt lat="44.44712" lon="1.34733">
        <ele>192</ele>
        <time>2019-04-14T11:36:07Z</time>
      </trkpt>
      <trkpt lat="44.44712" lon="1.34736">
        <ele>192</ele>
        <time>2019-04-14T11:36:08Z</time>
      </trkpt>
      <trkpt lat="44.44713" lon="1.34738">
        <ele>192</ele>
        <time>2019-04-14T11:36:09Z</time>
      </trkpt>
      <trkpt lat="44.44713" lon="1.34741">
        <ele>192</ele>
        <time>2019-04-14T11:36:10Z</time>
      </trkpt>
      <trkpt lat="44.44713" lon="1.34744">
        <ele>192</ele>
        <time>2019-04-14T11:36:11Z</time>
      </trkpt>
      <trkpt lat="44.44713" lon="1.34747">
        <ele>192</ele>
        <time>2019-04-14T11:36:12Z</time>
      </trkpt>
      <trkpt lat="44.44713" lon="1.34751">
        <ele>192</ele>
        <time>2019-04-14T11:36:13Z</time>
      </trkpt>
      <trkpt lat="44.44712" lon="1.34756">
        <ele>191</ele>
        <time>2019-04-14T11:36:14Z</time>
      </trkpt>
      <trkpt lat="44.44712" lon="1.34759">
        <ele>191</ele>
        <time>2019-04-14T11:36:15Z</time>
      </trkpt>
      <trkpt lat="44.44712" lon="1.34762">
        <ele>191</ele>
        <time>2019-04-14T11:36:16Z</time>
      </trkpt>
      <trkpt lat="44.44712" lon="1.34765">
        <ele>191</ele>
        <time>2019-04-14T11:36:17Z</time>
      </trkpt>
      <trkpt lat="44.44712" lon="1.34769">
        <ele>191</ele>
        <time>2019-04-14T11:36:18Z</time>
      </trkpt>
      <trkpt lat="44.44713" lon="1.34774">
        <ele>191</ele>
        <time>2019-04-14T11:36:19Z</time>
      </trkpt>
      <trkpt lat="44.44713" lon="1.34777">
        <ele>190</ele>
        <time>2019-04-14T11:36:20Z</time>
      </trkpt>
      <trkpt lat="44.44713" lon="1.34779">
        <ele>190</ele>
        <time>2019-04-14T11:36:21Z</time>
      </trkpt>
      <trkpt lat="44.44712" lon="1.34782">
        <ele>190</ele>
        <time>2019-04-14T11:36:22Z</time>
      </trkpt>
      <trkpt lat="44.44711" lon="1.34785">
        <ele>189</ele>
        <time>2019-04-14T11:36:23Z</time>
      </trkpt>
      <trkpt lat="44.4471" lon="1.34788">
        <ele>189</ele>
        <time>2019-04-14T11:36:24Z</time>
      </trkpt>
      <trkpt lat="44.44708" lon="1.34792">
        <ele>188</ele>
        <time>2019-04-14T11:36:25Z</time>
      </trkpt>
      <trkpt lat="44.44708" lon="1.34796">
        <ele>188</ele>
        <time>2019-04-14T11:36:26Z</time>
      </trkpt>
      <trkpt lat="44.44708" lon="1.34799">
        <ele>188</ele>
        <time>2019-04-14T11:36:27Z</time>
      </trkpt>
      <trkpt lat="44.44708" lon="1.34802">
        <ele>188</ele>
        <time>2019-04-14T11:36:28Z</time>
      </trkpt>
      <trkpt lat="44.44708" lon="1.34804">
        <ele>187</ele>
        <time>2019-04-14T11:36:29Z</time>
      </trkpt>
      <trkpt lat="44.44708" lon="1.34806">
        <ele>187</ele>
        <time>2019-04-14T11:36:30Z</time>
      </trkpt>
      <trkpt lat="44.44708" lon="1.34808">
        <ele>187</ele>
        <time>2019-04-14T11:36:31Z</time>
      </trkpt>
      <trkpt lat="44.44708" lon="1.34811">
        <ele>187</ele>
        <time>2019-04-14T11:36:32Z</time>
      </trkpt>
      <trkpt lat="44.44708" lon="1.34814">
        <ele>187</ele>
        <time>2019-04-14T11:36:33Z</time>
      </trkpt>
      <trkpt lat="44.4471" lon="1.34817">
        <ele>187</ele>
        <time>2019-04-14T11:36:34Z</time>
      </trkpt>
      <trkpt lat="44.44711" lon="1.34821">
        <ele>187</ele>
        <time>2019-04-14T11:36:35Z</time>
      </trkpt>
      <trkpt lat="44.44711" lon="1.34825">
        <ele>187</ele>
        <time>2019-04-14T11:36:36Z</time>
      </trkpt>
      <trkpt lat="44.4471" lon="1.34829">
        <ele>187</ele>
        <time>2019-04-14T11:36:37Z</time>
      </trkpt>
      <trkpt lat="44.44711" lon="1.34834">
        <ele>186</ele>
        <time>2019-04-14T11:36:38Z</time>
      </trkpt>
      <trkpt lat="44.44712" lon="1.3484">
        <ele>186</ele>
        <time>2019-04-14T11:36:39Z</time>
      </trkpt>
      <trkpt lat="44.44713" lon="1.34844">
        <ele>186</ele>
        <time>2019-04-14T11:36:40Z</time>
      </trkpt>
      <trkpt lat="44.44714" lon="1.34847">
        <ele>186</ele>
        <time>2019-04-14T11:36:41Z</time>
      </trkpt>
      <trkpt lat="44.44714" lon="1.34851">
        <ele>186</ele>
        <time>2019-04-14T11:36:42Z</time>
      </trkpt>
      <trkpt lat="44.44715" lon="1.34854">
        <ele>186</ele>
        <time>2019-04-14T11:36:43Z</time>
      </trkpt>
      <trkpt lat="44.44716" lon="1.34856">
        <ele>186</ele>
        <time>2019-04-14T11:36:44Z</time>
      </trkpt>
      <trkpt lat="44.44718" lon="1.34857">
        <ele>186</ele>
        <time>2019-04-14T11:36:45Z</time>
      </trkpt>
      <trkpt lat="44.4472" lon="1.34857">
        <ele>186</ele>
        <time>2019-04-14T11:36:46Z</time>
      </trkpt>
      <trkpt lat="44.44722" lon="1.34859">
        <ele>187</ele>
        <time>2019-04-14T11:36:47Z</time>
      </trkpt>
      <trkpt lat="44.44723" lon="1.34861">
        <ele>187</ele>
        <time>2019-04-14T11:36:48Z</time>
      </trkpt>
      <trkpt lat="44.44724" lon="1.34863">
        <ele>186</ele>
        <time>2019-04-14T11:36:49Z</time>
      </trkpt>
      <trkpt lat="44.44727" lon="1.34865">
        <ele>187</ele>
        <time>2019-04-14T11:36:50Z</time>
      </trkpt>
      <trkpt lat="44.44729" lon="1.34866">
        <ele>187</ele>
        <time>2019-04-14T11:36:51Z</time>
      </trkpt>
      <trkpt lat="44.44731" lon="1.34867">
        <ele>186</ele>
        <time>2019-04-14T11:36:52Z</time>
      </trkpt>
      <trkpt lat="44.44735" lon="1.34868">
        <ele>186</ele>
        <time>2019-04-14T11:36:53Z</time>
      </trkpt>
      <trkpt lat="44.44738" lon="1.34869">
        <ele>185</ele>
        <time>2019-04-14T11:36:54Z</time>
      </trkpt>
      <trkpt lat="44.44743" lon="1.3487">
        <ele>184</ele>
        <time>2019-04-14T11:36:55Z</time>
      </trkpt>
      <trkpt lat="44.44748" lon="1.3487">
        <ele>184</ele>
        <time>2019-04-14T11:36:56Z</time>
      </trkpt>
      <trkpt lat="44.44752" lon="1.34871">
        <ele>183</ele>
        <time>2019-04-14T11:36:57Z</time>
      </trkpt>
      <trkpt lat="44.44755" lon="1.34871">
        <ele>182</ele>
        <time>2019-04-14T11:36:58Z</time>
      </trkpt>
      <trkpt lat="44.44758" lon="1.34872">
        <ele>181</ele>
        <time>2019-04-14T11:36:59Z</time>
      </trkpt>
      <trkpt lat="44.44761" lon="1.34871">
        <ele>180</ele>
        <time>2019-04-14T11:37:00Z</time>
      </trkpt>
      <trkpt lat="44.44766" lon="1.3487">
        <ele>179</ele>
        <time>2019-04-14T11:37:01Z</time>
      </trkpt>
      <trkpt lat="44.4477" lon="1.34869">
        <ele>178</ele>
        <time>2019-04-14T11:37:02Z</time>
      </trkpt>
      <trkpt lat="44.44775" lon="1.34869">
        <ele>178</ele>
        <time>2019-04-14T11:37:03Z</time>
      </trkpt>
      <trkpt lat="44.44779" lon="1.34869">
        <ele>177</ele>
        <time>2019-04-14T11:37:04Z</time>
      </trkpt>
      <trkpt lat="44.44782" lon="1.34868">
        <ele>176</ele>
        <time>2019-04-14T11:37:05Z</time>
      </trkpt>
      <trkpt lat="44.44785" lon="1.34868">
        <ele>175</ele>
        <time>2019-04-14T11:37:06Z</time>
      </trkpt>
      <trkpt lat="44.44788" lon="1.34871">
        <ele>174</ele>
        <time>2019-04-14T11:37:07Z</time>
      </trkpt>
      <trkpt lat="44.44793" lon="1.34874">
        <ele>173</ele>
        <time>2019-04-14T11:37:08Z</time>
      </trkpt>
      <trkpt lat="44.44796" lon="1.34878">
        <ele>173</ele>
        <time>2019-04-14T11:37:09Z</time>
      </trkpt>
      <trkpt lat="44.44799" lon="1.34881">
        <ele>173</ele>
        <time>2019-04-14T11:37:10Z</time>
      </trkpt>
      <trkpt lat="44.44801" lon="1.34884">
        <ele>173</ele>
        <time>2019-04-14T11:37:11Z</time>
      </trkpt>
      <trkpt lat="44.44803" lon="1.34885">
        <ele>173</ele>
        <time>2019-04-14T11:37:12Z</time>
      </trkpt>
      <trkpt lat="44.44804" lon="1.34886">
        <ele>173</ele>
        <time>2019-04-14T11:37:13Z</time>
      </trkpt>
      <trkpt lat="44.44807" lon="1.34889">
        <ele>173</ele>
        <time>2019-04-14T11:37:14Z</time>
      </trkpt>
      <trkpt lat="44.44809" lon="1.3489">
        <ele>174</ele>
        <time>2019-04-14T11:37:15Z</time>
      </trkpt>
      <trkpt lat="44.4481" lon="1.34891">
        <ele>175</ele>
        <time>2019-04-14T11:37:16Z</time>
      </trkpt>
      <trkpt lat="44.44812" lon="1.34893">
        <ele>175</ele>
        <time>2019-04-14T11:37:17Z</time>
      </trkpt>
      <trkpt lat="44.44813" lon="1.34894">
        <ele>175</ele>
        <time>2019-04-14T11:37:18Z</time>
      </trkpt>
      <trkpt lat="44.44814" lon="1.34896">
        <ele>175</ele>
        <time>2019-04-14T11:37:19Z</time>
      </trkpt>
      <trkpt lat="44.44814" lon="1.34897">
        <ele>175</ele>
        <time>2019-04-14T11:37:20Z</time>
      </trkpt>
      <trkpt lat="44.44816" lon="1.34899">
        <ele>175</ele>
        <time>2019-04-14T11:37:21Z</time>
      </trkpt>
      <trkpt lat="44.44817" lon="1.34901">
        <ele>175</ele>
        <time>2019-04-14T11:37:22Z</time>
      </trkpt>
      <trkpt lat="44.44819" lon="1.34903">
        <ele>175</ele>
        <time>2019-04-14T11:37:23Z</time>
      </trkpt>
      <trkpt lat="44.4482" lon="1.34904">
        <ele>175</ele>
        <time>2019-04-14T11:37:24Z</time>
      </trkpt>
      <trkpt lat="44.4482" lon="1.34905">
        <ele>176</ele>
        <time>2019-04-14T11:37:25Z</time>
      </trkpt>
      <trkpt lat="44.44821" lon="1.34906">
        <ele>176</ele>
        <time>2019-04-14T11:37:26Z</time>
      </trkpt>
      <trkpt lat="44.44822" lon="1.34907">
        <ele>176</ele>
        <time>2019-04-14T11:37:27Z</time>
      </trkpt>
      <trkpt lat="44.44824" lon="1.34907">
        <ele>176</ele>
        <time>2019-04-14T11:37:28Z</time>
      </trkpt>
      <trkpt lat="44.44825" lon="1.34908">
        <ele>176</ele>
        <time>2019-04-14T11:37:29Z</time>
      </trkpt>
      <trkpt lat="44.44827" lon="1.34909">
        <ele>177</ele>
        <time>2019-04-14T11:37:30Z</time>
      </trkpt>
      <trkpt lat="44.44828" lon="1.3491">
        <ele>177</ele>
        <time>2019-04-14T11:37:31Z</time>
      </trkpt>
      <trkpt lat="44.4483" lon="1.34912">
        <ele>178</ele>
        <time>2019-04-14T11:37:32Z</time>
      </trkpt>
      <trkpt lat="44.44831" lon="1.34913">
        <ele>178</ele>
        <time>2019-04-14T11:37:33Z</time>
      </trkpt>
      <trkpt lat="44.44832" lon="1.34913">
        <ele>178</ele>
        <time>2019-04-14T11:37:34Z</time>
      </trkpt>
      <trkpt lat="44.44833" lon="1.34915">
        <ele>178</ele>
        <time>2019-04-14T11:37:35Z</time>
      </trkpt>
      <trkpt lat="44.44834" lon="1.34916">
        <ele>178</ele>
        <time>2019-04-14T11:37:36Z</time>
      </trkpt>
      <trkpt lat="44.44836" lon="1.34918">
        <ele>178</ele>
        <time>2019-04-14T11:37:37Z</time>
      </trkpt>
      <trkpt lat="44.44837" lon="1.3492">
        <ele>178</ele>
        <time>2019-04-14T11:37:38Z</time>
      </trkpt>
      <trkpt lat="44.44838" lon="1.34921">
        <ele>178</ele>
        <time>2019-04-14T11:37:39Z</time>
      </trkpt>
      <trkpt lat="44.4484" lon="1.34922">
        <ele>178</ele>
        <time>2019-04-14T11:37:40Z</time>
      </trkpt>
      <trkpt lat="44.44841" lon="1.34923">
        <ele>179</ele>
        <time>2019-04-14T11:37:41Z</time>
      </trkpt>
      <trkpt lat="44.44842" lon="1.34924">
        <ele>179</ele>
        <time>2019-04-14T11:37:42Z</time>
      </trkpt>
      <trkpt lat="44.44842" lon="1.34924">
        <ele>179</ele>
        <time>2019-04-14T11:37:43Z</time>
      </trkpt>
      <trkpt lat="44.44843" lon="1.34926">
        <ele>178</ele>
        <time>2019-04-14T11:37:44Z</time>
      </trkpt>
      <trkpt lat="44.44844" lon="1.34928">
        <ele>178</ele>
        <time>2019-04-14T11:37:45Z</time>
      </trkpt>
      <trkpt lat="44.44846" lon="1.3493">
        <ele>178</ele>
        <time>2019-04-14T11:37:46Z</time>
      </trkpt>
      <trkpt lat="44.44848" lon="1.34931">
        <ele>179</ele>
        <time>2019-04-14T11:37:47Z</time>
      </trkpt>
      <trkpt lat="44.4485" lon="1.34932">
        <ele>179</ele>
        <time>2019-04-14T11:37:48Z</time>
      </trkpt>
      <trkpt lat="44.44852" lon="1.34934">
        <ele>179</ele>
        <time>2019-04-14T11:37:49Z</time>
      </trkpt>
      <trkpt lat="44.44854" lon="1.34935">
        <ele>180</ele>
        <time>2019-04-14T11:37:50Z</time>
      </trkpt>
      <trkpt lat="44.44856" lon="1.34936">
        <ele>180</ele>
        <time>2019-04-14T11:37:51Z</time>
      </trkpt>
      <trkpt lat="44.44856" lon="1.34937">
        <ele>180</ele>
        <time>2019-04-14T11:37:52Z</time>
      </trkpt>
      <trkpt lat="44.44857" lon="1.34938">
        <ele>180</ele>
        <time>2019-04-14T11:37:53Z</time>
      </trkpt>
      <trkpt lat="44.44858" lon="1.3494">
        <ele>181</ele>
        <time>2019-04-14T11:37:54Z</time>
      </trkpt>
      <trkpt lat="44.4486" lon="1.34941">
        <ele>181</ele>
        <time>2019-04-14T11:37:55Z</time>
      </trkpt>
      <trkpt lat="44.44862" lon="1.34943">
        <ele>181</ele>
        <time>2019-04-14T11:37:56Z</time>
      </trkpt>
      <trkpt lat="44.44864" lon="1.34944">
        <ele>181</ele>
        <time>2019-04-14T11:37:57Z</time>
      </trkpt>
      <trkpt lat="44.44866" lon="1.34946">
        <ele>181</ele>
        <time>2019-04-14T11:37:58Z</time>
      </trkpt>
      <trkpt lat="44.44868" lon="1.34948">
        <ele>182</ele>
        <time>2019-04-14T11:37:59Z</time>
      </trkpt>
      <trkpt lat="44.4487" lon="1.34949">
        <ele>182</ele>
        <time>2019-04-14T11:38:00Z</time>
      </trkpt>
      <trkpt lat="44.44872" lon="1.34951">
        <ele>182</ele>
        <time>2019-04-14T11:38:01Z</time>
      </trkpt>
      <trkpt lat="44.44874" lon="1.34952">
        <ele>182</ele>
        <time>2019-04-14T11:38:02Z</time>
      </trkpt>
      <trkpt lat="44.44876" lon="1.34953">
        <ele>182</ele>
        <time>2019-04-14T11:38:03Z</time>
      </trkpt>
      <trkpt lat="44.44877" lon="1.34955">
        <ele>183</ele>
        <time>2019-04-14T11:38:04Z</time>
      </trkpt>
      <trkpt lat="44.44878" lon="1.34956">
        <ele>182</ele>
        <time>2019-04-14T11:38:05Z</time>
      </trkpt>
      <trkpt lat="44.4488" lon="1.34958">
        <ele>182</ele>
        <time>2019-04-14T11:38:06Z</time>
      </trkpt>
      <trkpt lat="44.44882" lon="1.34961">
        <ele>182</ele>
        <time>2019-04-14T11:38:07Z</time>
      </trkpt>
      <trkpt lat="44.44884" lon="1.34963">
        <ele>182</ele>
        <time>2019-04-14T11:38:08Z</time>
      </trkpt>
      <trkpt lat="44.44886" lon="1.34967">
        <ele>182</ele>
        <time>2019-04-14T11:38:09Z</time>
      </trkpt>
      <trkpt lat="44.44889" lon="1.34969">
        <ele>182</ele>
        <time>2019-04-14T11:38:10Z</time>
      </trkpt>
      <trkpt lat="44.44892" lon="1.34971">
        <ele>182</ele>
        <time>2019-04-14T11:38:11Z</time>
      </trkpt>
      <trkpt lat="44.44894" lon="1.34972">
        <ele>182</ele>
        <time>2019-04-14T11:38:12Z</time>
      </trkpt>
      <trkpt lat="44.44897" lon="1.34972">
        <ele>182</ele>
        <time>2019-04-14T11:38:13Z</time>
      </trkpt>
      <trkpt lat="44.44899" lon="1.34973">
        <ele>182</ele>
        <time>2019-04-14T11:38:14Z</time>
      </trkpt>
      <trkpt lat="44.44902" lon="1.34973">
        <ele>183</ele>
        <time>2019-04-14T11:38:15Z</time>
      </trkpt>
      <trkpt lat="44.44903" lon="1.34974">
        <ele>183</ele>
        <time>2019-04-14T11:38:16Z</time>
      </trkpt>
      <trkpt lat="44.44906" lon="1.34974">
        <ele>183</ele>
        <time>2019-04-14T11:38:17Z</time>
      </trkpt>
      <trkpt lat="44.44908" lon="1.34974">
        <ele>183</ele>
        <time>2019-04-14T11:38:18Z</time>
      </trkpt>
      <trkpt lat="44.44911" lon="1.34975">
        <ele>183</ele>
        <time>2019-04-14T11:38:19Z</time>
      </trkpt>
      <trkpt lat="44.44912" lon="1.34976">
        <ele>183</ele>
        <time>2019-04-14T11:38:20Z</time>
      </trkpt>
      <trkpt lat="44.44914" lon="1.34977">
        <ele>183</ele>
        <time>2019-04-14T11:38:21Z</time>
      </trkpt>
      <trkpt lat="44.44917" lon="1.34976">
        <ele>183</ele>
        <time>2019-04-14T11:38:22Z</time>
      </trkpt>
      <trkpt lat="44.44919" lon="1.34976">
        <ele>183</ele>
        <time>2019-04-14T11:38:23Z</time>
      </trkpt>
      <trkpt lat="44.44922" lon="1.34975">
        <ele>183</ele>
        <time>2019-04-14T11:38:24Z</time>
      </trkpt>
      <trkpt lat="44.44924" lon="1.34973">
        <ele>184</ele>
        <time>2019-04-14T11:38:25Z</time>
      </trkpt>
      <trkpt lat="44.44927" lon="1.34971">
        <ele>184</ele>
        <time>2019-04-14T11:38:26Z</time>
      </trkpt>
      <trkpt lat="44.44929" lon="1.3497">
        <ele>184</ele>
        <time>2019-04-14T11:38:27Z</time>
      </trkpt>
      <trkpt lat="44.44931" lon="1.3497">
        <ele>184</ele>
        <time>2019-04-14T11:38:28Z</time>
      </trkpt>
      <trkpt lat="44.44934" lon="1.34971">
        <ele>184</ele>
        <time>2019-04-14T11:38:29Z</time>
      </trkpt>
      <trkpt lat="44.44936" lon="1.34972">
        <ele>183</ele>
        <time>2019-04-14T11:38:30Z</time>
      </trkpt>
      <trkpt lat="44.44939" lon="1.34971">
        <ele>184</ele>
        <time>2019-04-14T11:38:31Z</time>
      </trkpt>
      <trkpt lat="44.44942" lon="1.34969">
        <ele>184</ele>
        <time>2019-04-14T11:38:32Z</time>
      </trkpt>
      <trkpt lat="44.44944" lon="1.34968">
        <ele>184</ele>
        <time>2019-04-14T11:38:33Z</time>
      </trkpt>
      <trkpt lat="44.44947" lon="1.34966">
        <ele>184</ele>
        <time>2019-04-14T11:38:34Z</time>
      </trkpt>
      <trkpt lat="44.44949" lon="1.34964">
        <ele>184</ele>
        <time>2019-04-14T11:38:35Z</time>
      </trkpt>
      <trkpt lat="44.44952" lon="1.34963">
        <ele>184</ele>
        <time>2019-04-14T11:38:36Z</time>
      </trkpt>
      <trkpt lat="44.44955" lon="1.34963">
        <ele>184</ele>
        <time>2019-04-14T11:38:37Z</time>
      </trkpt>
      <trkpt lat="44.44958" lon="1.34964">
        <ele>183</ele>
        <time>2019-04-14T11:38:38Z</time>
      </trkpt>
      <trkpt lat="44.44962" lon="1.34963">
        <ele>183</ele>
        <time>2019-04-14T11:38:39Z</time>
      </trkpt>
      <trkpt lat="44.44964" lon="1.34961">
        <ele>183</ele>
        <time>2019-04-14T11:38:40Z</time>
      </trkpt>
      <trkpt lat="44.44966" lon="1.34961">
        <ele>183</ele>
        <time>2019-04-14T11:38:41Z</time>
      </trkpt>
      <trkpt lat="44.44968" lon="1.34964">
        <ele>182</ele>
        <time>2019-04-14T11:38:42Z</time>
      </trkpt>
      <trkpt lat="44.4497" lon="1.34966">
        <ele>182</ele>
        <time>2019-04-14T11:38:43Z</time>
      </trkpt>
      <trkpt lat="44.44972" lon="1.34968">
        <ele>181</ele>
        <time>2019-04-14T11:38:44Z</time>
      </trkpt>
      <trkpt lat="44.44974" lon="1.34968">
        <ele>181</ele>
        <time>2019-04-14T11:38:45Z</time>
      </trkpt>
      <trkpt lat="44.44976" lon="1.34967">
        <ele>181</ele>
        <time>2019-04-14T11:38:46Z</time>
      </trkpt>
      <trkpt lat="44.44978" lon="1.34965">
        <ele>181</ele>
        <time>2019-04-14T11:38:47Z</time>
      </trkpt>
      <trkpt lat="44.4498" lon="1.34963">
        <ele>181</ele>
        <time>2019-04-14T11:38:48Z</time>
      </trkpt>
      <trkpt lat="44.44984" lon="1.34962">
        <ele>181</ele>
        <time>2019-04-14T11:38:49Z</time>
      </trkpt>
      <trkpt lat="44.44986" lon="1.34963">
        <ele>180</ele>
        <time>2019-04-14T11:38:50Z</time>
      </trkpt>
      <trkpt lat="44.44989" lon="1.34964">
        <ele>180</ele>
        <time>2019-04-14T11:38:51Z</time>
      </trkpt>
      <trkpt lat="44.44991" lon="1.34964">
        <ele>180</ele>
        <time>2019-04-14T11:38:52Z</time>
      </trkpt>
      <trkpt lat="44.44994" lon="1.34962">
        <ele>180</ele>
        <time>2019-04-14T11:38:53Z</time>
      </trkpt>
      <trkpt lat="44.44997" lon="1.3496">
        <ele>180</ele>
        <time>2019-04-14T11:38:54Z</time>
      </trkpt>
      <trkpt lat="44.44999" lon="1.34957">
        <ele>180</ele>
        <time>2019-04-14T11:38:55Z</time>
      </trkpt>
      <trkpt lat="44.45002" lon="1.34955">
        <ele>179</ele>
        <time>2019-04-14T11:38:56Z</time>
      </trkpt>
      <trkpt lat="44.45004" lon="1.34952">
        <ele>179</ele>
        <time>2019-04-14T11:38:57Z</time>
      </trkpt>
      <trkpt lat="44.45006" lon="1.34949">
        <ele>180</ele>
        <time>2019-04-14T11:38:58Z</time>
      </trkpt>
      <trkpt lat="44.45007" lon="1.34946">
        <ele>180</ele>
        <time>2019-04-14T11:38:59Z</time>
      </trkpt>
      <trkpt lat="44.45009" lon="1.34943">
        <ele>180</ele>
        <time>2019-04-14T11:39:00Z</time>
      </trkpt>
      <trkpt lat="44.4501" lon="1.34941">
        <ele>180</ele>
        <time>2019-04-14T11:39:01Z</time>
      </trkpt>
      <trkpt lat="44.45012" lon="1.34939">
        <ele>180</ele>
        <time>2019-04-14T11:39:02Z</time>
      </trkpt>
      <trkpt lat="44.45013" lon="1.34936">
        <ele>180</ele>
        <time>2019-04-14T11:39:03Z</time>
      </trkpt>
      <trkpt lat="44.45013" lon="1.34934">
        <ele>180</ele>
        <time>2019-04-14T11:39:04Z</time>
      </trkpt>
      <trkpt lat="44.45012" lon="1.34931">
        <ele>180</ele>
        <time>2019-04-14T11:39:05Z</time>
      </trkpt>
      <trkpt lat="44.45012" lon="1.34929">
        <ele>180</ele>
        <time>2019-04-14T11:39:06Z</time>
      </trkpt>
      <trkpt lat="44.45011" lon="1.34927">
        <ele>181</ele>
        <time>2019-04-14T11:39:07Z</time>
      </trkpt>
      <trkpt lat="44.45011" lon="1.34925">
        <ele>181</ele>
        <time>2019-04-14T11:39:08Z</time>
      </trkpt>
      <trkpt lat="44.45011" lon="1.34923">
        <ele>181</ele>
        <time>2019-04-14T11:39:09Z</time>
      </trkpt>
      <trkpt lat="44.45011" lon="1.34921">
        <ele>181</ele>
        <time>2019-04-14T11:39:10Z</time>
      </trkpt>
      <trkpt lat="44.4501" lon="1.34919">
        <ele>182</ele>
        <time>2019-04-14T11:39:11Z</time>
      </trkpt>
      <trkpt lat="44.4501" lon="1.34917">
        <ele>182</ele>
        <time>2019-04-14T11:39:12Z</time>
      </trkpt>
      <trkpt lat="44.4501" lon="1.34915">
        <ele>182</ele>
        <time>2019-04-14T11:39:13Z</time>
      </trkpt>
      <trkpt lat="44.4501" lon="1.34913">
        <ele>182</ele>
        <time>2019-04-14T11:39:14Z</time>
      </trkpt>
      <trkpt lat="44.45009" lon="1.34911">
        <ele>183</ele>
        <time>2019-04-14T11:39:15Z</time>
      </trkpt>
      <trkpt lat="44.45009" lon="1.3491">
        <ele>183</ele>
        <time>2019-04-14T11:39:16Z</time>
      </trkpt>
      <trkpt lat="44.45009" lon="1.34908">
        <ele>183</ele>
        <time>2019-04-14T11:39:17Z</time>
      </trkpt>
      <trkpt lat="44.45008" lon="1.34906">
        <ele>184</ele>
        <time>2019-04-14T11:39:18Z</time>
      </trkpt>
      <trkpt lat="44.45008" lon="1.34904">
        <ele>184</ele>
        <time>2019-04-14T11:39:19Z</time>
      </trkpt>
      <trkpt lat="44.45007" lon="1.34902">
        <ele>184</ele>
        <time>2019-04-14T11:39:20Z</time>
      </trkpt>
      <trkpt lat="44.45007" lon="1.349">
        <ele>184</ele>
        <time>2019-04-14T11:39:21Z</time>
      </trkpt>
      <trkpt lat="44.45007" lon="1.34898">
        <ele>185</ele>
        <time>2019-04-14T11:39:22Z</time>
      </trkpt>
      <trkpt lat="44.45007" lon="1.34896">
        <ele>185</ele>
        <time>2019-04-14T11:39:23Z</time>
      </trkpt>
      <trkpt lat="44.45006" lon="1.34895">
        <ele>185</ele>
        <time>2019-04-14T11:39:24Z</time>
      </trkpt>
      <trkpt lat="44.45006" lon="1.34893">
        <ele>185</ele>
        <time>2019-04-14T11:39:25Z</time>
      </trkpt>
      <trkpt lat="44.45006" lon="1.34891">
        <ele>185</ele>
        <time>2019-04-14T11:39:26Z</time>
      </trkpt>
      <trkpt lat="44.45006" lon="1.34889">
        <ele>186</ele>
        <time>2019-04-14T11:39:27Z</time>
      </trkpt>
      <trkpt lat="44.45005" lon="1.34887">
        <ele>186</ele>
        <time>2019-04-14T11:39:28Z</time>
      </trkpt>
      <trkpt lat="44.45005" lon="1.34885">
        <ele>186</ele>
        <time>2019-04-14T11:39:29Z</time>
      </trkpt>
      <trkpt lat="44.45005" lon="1.34884">
        <ele>186</ele>
        <time>2019-04-14T11:39:30Z</time>
      </trkpt>
      <trkpt lat="44.45005" lon="1.34882">
        <ele>186</ele>
        <time>2019-04-14T11:39:31Z</time>
      </trkpt>
      <trkpt lat="44.45005" lon="1.3488">
        <ele>187</ele>
        <time>2019-04-14T11:39:32Z</time>
      </trkpt>
      <trkpt lat="44.45004" lon="1.34878">
        <ele>187</ele>
        <time>2019-04-14T11:39:33Z</time>
      </trkpt>
      <trkpt lat="44.45004" lon="1.34876">
        <ele>187</ele>
        <time>2019-04-14T11:39:34Z</time>
      </trkpt>
      <trkpt lat="44.45004" lon="1.34874">
        <ele>187</ele>
        <time>2019-04-14T11:39:35Z</time>
      </trkpt>
      <trkpt lat="44.45003" lon="1.34873">
        <ele>187</ele>
        <time>2019-04-14T11:39:36Z</time>
      </trkpt>
      <trkpt lat="44.45003" lon="1.34871">
        <ele>188</ele>
        <time>2019-04-14T11:39:37Z</time>
      </trkpt>
      <trkpt lat="44.45003" lon="1.34869">
        <ele>188</ele>
        <time>2019-04-14T11:39:38Z</time>
      </trkpt>
      <trkpt lat="44.45002" lon="1.34868">
        <ele>188</ele>
        <time>2019-04-14T11:39:39Z</time>
      </trkpt>
      <trkpt lat="44.45002" lon="1.34866">
        <ele>188</ele>
        <time>2019-04-14T11:39:40Z</time>
      </trkpt>
      <trkpt lat="44.45002" lon="1.34865">
        <ele>188</ele>
        <time>2019-04-14T11:39:41Z</time>
      </trkpt>
      <trkpt lat="44.45002" lon="1.34863">
        <ele>188</ele>
        <time>2019-04-14T11:39:42Z</time>
      </trkpt>
      <trkpt lat="44.45001" lon="1.34862">
        <ele>189</ele>
        <time>2019-04-14T11:39:43Z</time>
      </trkpt>
      <trkpt lat="44.45002" lon="1.3486">
        <ele>189</ele>
        <time>2019-04-14T11:39:44Z</time>
      </trkpt>
      <trkpt lat="44.45002" lon="1.34859">
        <ele>189</ele>
        <time>2019-04-14T11:39:45Z</time>
      </trkpt>
      <trkpt lat="44.45002" lon="1.34857">
        <ele>189</ele>
        <time>2019-04-14T11:39:46Z</time>
      </trkpt>
      <trkpt lat="44.45003" lon="1.34856">
        <ele>189</ele>
        <time>2019-04-14T11:39:47Z</time>
      </trkpt>
      <trkpt lat="44.45004" lon="1.34855">
        <ele>189</ele>
        <time>2019-04-14T11:39:48Z</time>
      </trkpt>
      <trkpt lat="44.45004" lon="1.34855">
        <ele>189</ele>
        <time>2019-04-14T11:39:49Z</time>
      </trkpt>
      <trkpt lat="44.45004" lon="1.34855">
        <ele>189</ele>
        <time>2019-04-14T11:39:50Z</time>
      </trkpt>
      <trkpt lat="44.45004" lon="1.34855">
        <ele>189</ele>
        <time>2019-04-14T11:39:51Z</time>
      </trkpt>
      <trkpt lat="44.45004" lon="1.34854">
        <ele>189</ele>
        <time>2019-04-14T11:39:52Z</time>
      </trkpt>
      <trkpt lat="44.45004" lon="1.34855">
        <ele>189</ele>
        <time>2019-04-14T11:39:53Z</time>
      </trkpt>
      <trkpt lat="44.45004" lon="1.34855">
        <ele>189</ele>
        <time>2019-04-14T11:39:54Z</time>
      </trkpt>
      <trkpt lat="44.45004" lon="1.34855">
        <ele>189</ele>
        <time>2019-04-14T11:39:55Z</time>
      </trkpt>
      <trkpt lat="44.45004" lon="1.34855">
        <ele>189</ele>
        <time>2019-04-14T11:39:56Z</time>
      </trkpt>
      <trkpt lat="44.45045" lon="1.3487">
        <ele>182</ele>
        <time>2019-04-14T11:42:54Z</time>
      </trkpt>
      <trkpt lat="44.45052" lon="1.34873">
        <ele>182</ele>
        <time>2019-04-14T11:42:55Z</time>
      </trkpt>
      <trkpt lat="44.45057" lon="1.34877">
        <ele>181</ele>
        <time>2019-04-14T11:42:56Z</time>
      </trkpt>
      <trkpt lat="44.45063" lon="1.34881">
        <ele>181</ele>
        <time>2019-04-14T11:42:57Z</time>
      </trkpt>
      <trkpt lat="44.45069" lon="1.34885">
        <ele>181</ele>
        <time>2019-04-14T11:42:58Z</time>
      </trkpt>
      <trkpt lat="44.45075" lon="1.3489">
        <ele>180</ele>
        <time>2019-04-14T11:42:59Z</time>
      </trkpt>
      <trkpt lat="44.45082" lon="1.34895">
        <ele>180</ele>
        <time>2019-04-14T11:43:00Z</time>
      </trkpt>
      <trkpt lat="44.45088" lon="1.349">
        <ele>179</ele>
        <time>2019-04-14T11:43:01Z</time>
      </trkpt>
      <trkpt lat="44.45094" lon="1.34906">
        <ele>179</ele>
        <time>2019-04-14T11:43:02Z</time>
      </trkpt>
      <trkpt lat="44.451" lon="1.34911">
        <ele>179</ele>
        <time>2019-04-14T11:43:03Z</time>
      </trkpt>
      <trkpt lat="44.45105" lon="1.34916">
        <ele>179</ele>
        <time>2019-04-14T11:43:04Z</time>
      </trkpt>
      <trkpt lat="44.45111" lon="1.34922">
        <ele>179</ele>
        <time>2019-04-14T11:43:05Z</time>
      </trkpt>
      <trkpt lat="44.45117" lon="1.34927">
        <ele>178</ele>
        <time>2019-04-14T11:43:06Z</time>
      </trkpt>
      <trkpt lat="44.45123" lon="1.34932">
        <ele>178</ele>
        <time>2019-04-14T11:43:07Z</time>
      </trkpt>
      <trkpt lat="44.45128" lon="1.34937">
        <ele>178</ele>
        <time>2019-04-14T11:43:08Z</time>
      </trkpt>
      <trkpt lat="44.45133" lon="1.34943">
        <ele>178</ele>
        <time>2019-04-14T11:43:09Z</time>
      </trkpt>
      <trkpt lat="44.45138" lon="1.34947">
        <ele>178</ele>
        <time>2019-04-14T11:43:10Z</time>
      </trkpt>
      <trkpt lat="44.45143" lon="1.34952">
        <ele>177</ele>
        <time>2019-04-14T11:43:11Z</time>
      </trkpt>
      <trkpt lat="44.45147" lon="1.34956">
        <ele>177</ele>
        <time>2019-04-14T11:43:12Z</time>
      </trkpt>
      <trkpt lat="44.45151" lon="1.34959">
        <ele>177</ele>
        <time>2019-04-14T11:43:13Z</time>
      </trkpt>
      <trkpt lat="44.45155" lon="1.34962">
        <ele>177</ele>
        <time>2019-04-14T11:43:14Z</time>
      </trkpt>
      <trkpt lat="44.45159" lon="1.34966">
        <ele>177</ele>
        <time>2019-04-14T11:43:15Z</time>
      </trkpt>
      <trkpt lat="44.45162" lon="1.34969">
        <ele>177</ele>
        <time>2019-04-14T11:43:16Z</time>
      </trkpt>
      <trkpt lat="44.45166" lon="1.34973">
        <ele>178</ele>
        <time>2019-04-14T11:43:17Z</time>
      </trkpt>
      <trkpt lat="44.4517" lon="1.34977">
        <ele>178</ele>
        <time>2019-04-14T11:43:18Z</time>
      </trkpt>
      <trkpt lat="44.45174" lon="1.34981">
        <ele>178</ele>
        <time>2019-04-14T11:43:19Z</time>
      </trkpt>
      <trkpt lat="44.45177" lon="1.34985">
        <ele>178</ele>
        <time>2019-04-14T11:43:20Z</time>
      </trkpt>
      <trkpt lat="44.4518" lon="1.3499">
        <ele>178</ele>
        <time>2019-04-14T11:43:21Z</time>
      </trkpt>
      <trkpt lat="44.45183" lon="1.34995">
        <ele>177</ele>
        <time>2019-04-14T11:43:22Z</time>
      </trkpt>
      <trkpt lat="44.45186" lon="1.35001">
        <ele>177</ele>
        <time>2019-04-14T11:43:23Z</time>
      </trkpt>
      <trkpt lat="44.4519" lon="1.35007">
        <ele>177</ele>
        <time>2019-04-14T11:43:24Z</time>
      </trkpt>
      <trkpt lat="44.45193" lon="1.35012">
        <ele>177</ele>
        <time>2019-04-14T11:43:25Z</time>
      </trkpt>
      <trkpt lat="44.45197" lon="1.35017">
        <ele>176</ele>
        <time>2019-04-14T11:43:26Z</time>
      </trkpt>
      <trkpt lat="44.452" lon="1.35022">
        <ele>176</ele>
        <time>2019-04-14T11:43:27Z</time>
      </trkpt>
      <trkpt lat="44.45204" lon="1.35025">
        <ele>176</ele>
        <time>2019-04-14T11:43:28Z</time>
      </trkpt>
      <trkpt lat="44.45207" lon="1.35027">
        <ele>176</ele>
        <time>2019-04-14T11:43:29Z</time>
      </trkpt>
      <trkpt lat="44.4521" lon="1.35029">
        <ele>176</ele>
        <time>2019-04-14T11:43:30Z</time>
      </trkpt>
      <trkpt lat="44.45212" lon="1.3503">
        <ele>176</ele>
        <time>2019-04-14T11:43:31Z</time>
      </trkpt>
      <trkpt lat="44.45214" lon="1.35032">
        <ele>175</ele>
        <time>2019-04-14T11:43:32Z</time>
      </trkpt>
      <trkpt lat="44.45216" lon="1.35035">
        <ele>175</ele>
        <time>2019-04-14T11:43:33Z</time>
      </trkpt>
      <trkpt lat="44.45216" lon="1.35037">
        <ele>175</ele>
        <time>2019-04-14T11:43:34Z</time>
      </trkpt>
      <trkpt lat="44.45217" lon="1.3504">
        <ele>174</ele>
        <time>2019-04-14T11:43:35Z</time>
      </trkpt>
      <trkpt lat="44.45217" lon="1.35044">
        <ele>173</ele>
        <time>2019-04-14T11:43:36Z</time>
      </trkpt>
      <trkpt lat="44.45217" lon="1.35046">
        <ele>173</ele>
        <time>2019-04-14T11:43:37Z</time>
      </trkpt>
      <trkpt lat="44.45216" lon="1.35048">
        <ele>173</ele>
        <time>2019-04-14T11:43:38Z</time>
      </trkpt>
      <trkpt lat="44.45216" lon="1.35049">
        <ele>172</ele>
        <time>2019-04-14T11:43:39Z</time>
      </trkpt>
      <trkpt lat="44.45216" lon="1.35052">
        <ele>172</ele>
        <time>2019-04-14T11:43:40Z</time>
      </trkpt>
      <trkpt lat="44.45217" lon="1.35054">
        <ele>171</ele>
        <time>2019-04-14T11:43:41Z</time>
      </trkpt>
      <trkpt lat="44.45218" lon="1.35058">
        <ele>170</ele>
        <time>2019-04-14T11:43:42Z</time>
      </trkpt>
      <trkpt lat="44.4522" lon="1.3506">
        <ele>170</ele>
        <time>2019-04-14T11:43:43Z</time>
      </trkpt>
      <trkpt lat="44.45222" lon="1.35067">
        <ele>170</ele>
        <time>2019-04-14T11:43:44Z</time>
      </trkpt>
      <trkpt lat="44.45224" lon="1.35072">
        <ele>168</ele>
        <time>2019-04-14T11:43:46Z</time>
      </trkpt>
      <trkpt lat="44.45225" lon="1.35076">
        <ele>167</ele>
        <time>2019-04-14T11:43:47Z</time>
      </trkpt>
      <trkpt lat="44.45225" lon="1.35081">
        <ele>166</ele>
        <time>2019-04-14T11:43:48Z</time>
      </trkpt>
      <trkpt lat="44.45226" lon="1.35086">
        <ele>165</ele>
        <time>2019-04-14T11:43:49Z</time>
      </trkpt>
      <trkpt lat="44.45226" lon="1.35092">
        <ele>164</ele>
        <time>2019-04-14T11:43:50Z</time>
      </trkpt>
      <trkpt lat="44.45226" lon="1.35098">
        <ele>163</ele>
        <time>2019-04-14T11:43:51Z</time>
      </trkpt>
      <trkpt lat="44.45225" lon="1.35104">
        <ele>162</ele>
        <time>2019-04-14T11:43:52Z</time>
      </trkpt>
      <trkpt lat="44.45225" lon="1.35111">
        <ele>161</ele>
        <time>2019-04-14T11:43:53Z</time>
      </trkpt>
      <trkpt lat="44.45225" lon="1.35117">
        <ele>160</ele>
        <time>2019-04-14T11:43:54Z</time>
      </trkpt>
      <trkpt lat="44.45224" lon="1.35122">
        <ele>159</ele>
        <time>2019-04-14T11:43:55Z</time>
      </trkpt>
      <trkpt lat="44.45223" lon="1.35127">
        <ele>158</ele>
        <time>2019-04-14T11:43:56Z</time>
      </trkpt>
      <trkpt lat="44.45222" lon="1.35132">
        <ele>157</ele>
        <time>2019-04-14T11:43:57Z</time>
      </trkpt>
      <trkpt lat="44.45223" lon="1.35139">
        <ele>156</ele>
        <time>2019-04-14T11:43:58Z</time>
      </trkpt>
      <trkpt lat="44.45224" lon="1.35146">
        <ele>155</ele>
        <time>2019-04-14T11:43:59Z</time>
      </trkpt>
      <trkpt lat="44.45225" lon="1.35152">
        <ele>154</ele>
        <time>2019-04-14T11:44:00Z</time>
      </trkpt>
      <trkpt lat="44.45225" lon="1.35157">
        <ele>153</ele>
        <time>2019-04-14T11:44:01Z</time>
      </trkpt>
      <trkpt lat="44.45225" lon="1.35162">
        <ele>153</ele>
        <time>2019-04-14T11:44:02Z</time>
      </trkpt>
      <trkpt lat="44.45226" lon="1.35167">
        <ele>151</ele>
        <time>2019-04-14T11:44:03Z</time>
      </trkpt>
      <trkpt lat="44.45228" lon="1.35172">
        <ele>151</ele>
        <time>2019-04-14T11:44:04Z</time>
      </trkpt>
      <trkpt lat="44.45227" lon="1.35177">
        <ele>150</ele>
        <time>2019-04-14T11:44:05Z</time>
      </trkpt>
      <trkpt lat="44.45226" lon="1.35182">
        <ele>149</ele>
        <time>2019-04-14T11:44:06Z</time>
      </trkpt>
      <trkpt lat="44.45224" lon="1.35187">
        <ele>148</ele>
        <time>2019-04-14T11:44:07Z</time>
      </trkpt>
      <trkpt lat="44.45223" lon="1.3519">
        <ele>148</ele>
        <time>2019-04-14T11:44:08Z</time>
      </trkpt>
      <trkpt lat="44.45223" lon="1.35193">
        <ele>147</ele>
        <time>2019-04-14T11:44:09Z</time>
      </trkpt>
      <trkpt lat="44.45224" lon="1.35197">
        <ele>147</ele>
        <time>2019-04-14T11:44:10Z</time>
      </trkpt>
      <trkpt lat="44.45226" lon="1.35201">
        <ele>146</ele>
        <time>2019-04-14T11:44:11Z</time>
      </trkpt>
      <trkpt lat="44.45228" lon="1.35206">
        <ele>145</ele>
        <time>2019-04-14T11:44:12Z</time>
      </trkpt>
      <trkpt lat="44.4523" lon="1.3521">
        <ele>145</ele>
        <time>2019-04-14T11:44:13Z</time>
      </trkpt>
      <trkpt lat="44.45231" lon="1.35214">
        <ele>144</ele>
        <time>2019-04-14T11:44:14Z</time>
      </trkpt>
      <trkpt lat="44.45232" lon="1.35217">
        <ele>144</ele>
        <time>2019-04-14T11:44:15Z</time>
      </trkpt>
      <trkpt lat="44.45233" lon="1.35221">
        <ele>143</ele>
        <time>2019-04-14T11:44:16Z</time>
      </trkpt>
      <trkpt lat="44.45235" lon="1.35226">
        <ele>142</ele>
        <time>2019-04-14T11:44:17Z</time>
      </trkpt>
      <trkpt lat="44.45237" lon="1.3523">
        <ele>142</ele>
        <time>2019-04-14T11:44:18Z</time>
      </trkpt>
      <trkpt lat="44.45239" lon="1.35235">
        <ele>141</ele>
        <time>2019-04-14T11:44:19Z</time>
      </trkpt>
      <trkpt lat="44.45241" lon="1.35238">
        <ele>141</ele>
        <time>2019-04-14T11:44:20Z</time>
      </trkpt>
      <trkpt lat="44.45242" lon="1.35242">
        <ele>140</ele>
        <time>2019-04-14T11:44:21Z</time>
      </trkpt>
      <trkpt lat="44.45244" lon="1.35246">
        <ele>139</ele>
        <time>2019-04-14T11:44:22Z</time>
      </trkpt>
      <trkpt lat="44.45245" lon="1.3525">
        <ele>139</ele>
        <time>2019-04-14T11:44:23Z</time>
      </trkpt>
      <trkpt lat="44.45246" lon="1.35255">
        <ele>138</ele>
        <time>2019-04-14T11:44:24Z</time>
      </trkpt>
      <trkpt lat="44.45247" lon="1.35259">
        <ele>137</ele>
        <time>2019-04-14T11:44:25Z</time>
      </trkpt>
      <trkpt lat="44.45247" lon="1.35263">
        <ele>136</ele>
        <time>2019-04-14T11:44:26Z</time>
      </trkpt>
      <trkpt lat="44.45249" lon="1.35267">
        <ele>135</ele>
        <time>2019-04-14T11:44:27Z</time>
      </trkpt>
      <trkpt lat="44.45252" lon="1.35271">
        <ele>134</ele>
        <time>2019-04-14T11:44:28Z</time>
      </trkpt>
      <trkpt lat="44.45255" lon="1.35276">
        <ele>132</ele>
        <time>2019-04-14T11:44:29Z</time>
      </trkpt>
      <trkpt lat="44.45257" lon="1.3528">
        <ele>131</ele>
        <time>2019-04-14T11:44:30Z</time>
      </trkpt>
      <trkpt lat="44.45261" lon="1.35283">
        <ele>130</ele>
        <time>2019-04-14T11:44:31Z</time>
      </trkpt>
      <trkpt lat="44.45264" lon="1.35286">
        <ele>129</ele>
        <time>2019-04-14T11:44:32Z</time>
      </trkpt>
      <trkpt lat="44.4527" lon="1.35287">
        <ele>128</ele>
        <time>2019-04-14T11:44:33Z</time>
      </trkpt>
      <trkpt lat="44.45276" lon="1.35288">
        <ele>127</ele>
        <time>2019-04-14T11:44:34Z</time>
      </trkpt>
      <trkpt lat="44.45279" lon="1.35288">
        <ele>126</ele>
        <time>2019-04-14T11:44:35Z</time>
      </trkpt>
      <trkpt lat="44.45285" lon="1.35286">
        <ele>126</ele>
        <time>2019-04-14T11:44:37Z</time>
      </trkpt>
      <trkpt lat="44.4529" lon="1.35286">
        <ele>124</ele>
        <time>2019-04-14T11:44:38Z</time>
      </trkpt>
      <trkpt lat="44.45295" lon="1.35288">
        <ele>123</ele>
        <time>2019-04-14T11:44:39Z</time>
      </trkpt>
      <trkpt lat="44.45298" lon="1.35292">
        <ele>122</ele>
        <time>2019-04-14T11:44:40Z</time>
      </trkpt>
      <trkpt lat="44.453" lon="1.35298">
        <ele>121</ele>
        <time>2019-04-14T11:44:41Z</time>
      </trkpt>
      <trkpt lat="44.45302" lon="1.35303">
        <ele>121</ele>
        <time>2019-04-14T11:44:42Z</time>
      </trkpt>
      <trkpt lat="44.45302" lon="1.35308">
        <ele>120</ele>
        <time>2019-04-14T11:44:43Z</time>
      </trkpt>
      <trkpt lat="44.45302" lon="1.35314">
        <ele>120</ele>
        <time>2019-04-14T11:44:44Z</time>
      </trkpt>
      <trkpt lat="44.45302" lon="1.35321">
        <ele>119</ele>
        <time>2019-04-14T11:44:45Z</time>
      </trkpt>
      <trkpt lat="44.45303" lon="1.35327">
        <ele>118</ele>
        <time>2019-04-14T11:44:46Z</time>
      </trkpt>
      <trkpt lat="44.45304" lon="1.35333">
        <ele>117</ele>
        <time>2019-04-14T11:44:47Z</time>
      </trkpt>
      <trkpt lat="44.45306" lon="1.35338">
        <ele>115</ele>
        <time>2019-04-14T11:44:48Z</time>
      </trkpt>
      <trkpt lat="44.45308" lon="1.35343">
        <ele>114</ele>
        <time>2019-04-14T11:44:49Z</time>
      </trkpt>
      <trkpt lat="44.4531" lon="1.35347">
        <ele>113</ele>
        <time>2019-04-14T11:44:50Z</time>
      </trkpt>
      <trkpt lat="44.45312" lon="1.35351">
        <ele>112</ele>
        <time>2019-04-14T11:44:51Z</time>
      </trkpt>
      <trkpt lat="44.45313" lon="1.35354">
        <ele>111</ele>
        <time>2019-04-14T11:44:52Z</time>
      </trkpt>
      <trkpt lat="44.45314" lon="1.35356">
        <ele>110</ele>
        <time>2019-04-14T11:44:53Z</time>
      </trkpt>
      <trkpt lat="44.45316" lon="1.35359">
        <ele>108</ele>
        <time>2019-04-14T11:44:54Z</time>
      </trkpt>
      <trkpt lat="44.45317" lon="1.35361">
        <ele>107</ele>
        <time>2019-04-14T11:44:55Z</time>
      </trkpt>
      <trkpt lat="44.45319" lon="1.35364">
        <ele>106</ele>
        <time>2019-04-14T11:44:56Z</time>
      </trkpt>
      <trkpt lat="44.45319" lon="1.35367">
        <ele>105</ele>
        <time>2019-04-14T11:44:57Z</time>
      </trkpt>
      <trkpt lat="44.45318" lon="1.35371">
        <ele>104</ele>
        <time>2019-04-14T11:44:58Z</time>
      </trkpt>
      <trkpt lat="44.45318" lon="1.35373">
        <ele>103</ele>
        <time>2019-04-14T11:44:59Z</time>
      </trkpt>
      <trkpt lat="44.45319" lon="1.35376">
        <ele>102</ele>
        <time>2019-04-14T11:45:00Z</time>
      </trkpt>
      <trkpt lat="44.4532" lon="1.35378">
        <ele>101</ele>
        <time>2019-04-14T11:45:01Z</time>
      </trkpt>
      <trkpt lat="44.45323" lon="1.3538">
        <ele>99</ele>
        <time>2019-04-14T11:45:02Z</time>
      </trkpt>
      <trkpt lat="44.45325" lon="1.35383">
        <ele>98</ele>
        <time>2019-04-14T11:45:03Z</time>
      </trkpt>
      <trkpt lat="44.45328" lon="1.35385">
        <ele>97</ele>
        <time>2019-04-14T11:45:04Z</time>
      </trkpt>
      <trkpt lat="44.4533" lon="1.35388">
        <ele>96</ele>
        <time>2019-04-14T11:45:05Z</time>
      </trkpt>
      <trkpt lat="44.45334" lon="1.3539">
        <ele>95</ele>
        <time>2019-04-14T11:45:07Z</time>
      </trkpt>
      <trkpt lat="44.45336" lon="1.35391">
        <ele>94</ele>
        <time>2019-04-14T11:45:08Z</time>
      </trkpt>
      <trkpt lat="44.45337" lon="1.35393">
        <ele>93</ele>
        <time>2019-04-14T11:45:09Z</time>
      </trkpt>
      <trkpt lat="44.45336" lon="1.35395">
        <ele>93</ele>
        <time>2019-04-14T11:45:10Z</time>
      </trkpt>
      <trkpt lat="44.45336" lon="1.35396">
        <ele>93</ele>
        <time>2019-04-14T11:45:11Z</time>
      </trkpt>
      <trkpt lat="44.45335" lon="1.35397">
        <ele>93</ele>
        <time>2019-04-14T11:45:12Z</time>
      </trkpt>
      <trkpt lat="44.45335" lon="1.35398">
        <ele>93</ele>
        <time>2019-04-14T11:45:13Z</time>
      </trkpt>
      <trkpt lat="44.45334" lon="1.35398">
        <ele>93</ele>
        <time>2019-04-14T11:45:14Z</time>
      </trkpt>
      <trkpt lat="44.45334" lon="1.35398">
        <ele>93</ele>
        <time>2019-04-14T11:45:15Z</time>
      </trkpt>
      <trkpt lat="44.45334" lon="1.35398">
        <ele>93</ele>
        <time>2019-04-14T11:45:16Z</time>
      </trkpt>
      <trkpt lat="44.45335" lon="1.35398">
        <ele>93</ele>
        <time>2019-04-14T11:45:17Z</time>
      </trkpt>
      <trkpt lat="44.45335" lon="1.35398">
        <ele>93</ele>
        <time>2019-04-14T11:45:18Z</time>
      </trkpt>
      <trkpt lat="44.45335" lon="1.35398">
        <ele>93</ele>
        <time>2019-04-14T11:45:19Z</time>
      </trkpt>
      <trkpt lat="44.45335" lon="1.35398">
        <ele>93</ele>
        <time>2019-04-14T11:45:20Z</time>
      </trkpt>
      <trkpt lat="44.45335" lon="1.35399">
        <ele>93</ele>
        <time>2019-04-14T11:45:21Z</time>
      </trkpt>
      <trkpt lat="44.45322" lon="1.35411">
        <ele>94</ele>
        <time>2019-04-14T11:46:11Z</time>
      </trkpt>
      <trkpt lat="44.4532" lon="1.35413">
        <ele>94</ele>
        <time>2019-04-14T11:46:12Z</time>
      </trkpt>
      <trkpt lat="44.45318" lon="1.35414">
        <ele>94</ele>
        <time>2019-04-14T11:46:13Z</time>
      </trkpt>
      <trkpt lat="44.45315" lon="1.35415">
        <ele>94</ele>
        <time>2019-04-14T11:46:14Z</time>
      </trkpt>
      <trkpt lat="44.45313" lon="1.35416">
        <ele>95</ele>
        <time>2019-04-14T11:46:15Z</time>
      </trkpt>
      <trkpt lat="44.45307" lon="1.35419">
        <ele>95</ele>
        <time>2019-04-14T11:46:16Z</time>
      </trkpt>
      <trkpt lat="44.45302" lon="1.35424">
        <ele>95</ele>
        <time>2019-04-14T11:46:19Z</time>
      </trkpt>
      <trkpt lat="44.45299" lon="1.35426">
        <ele>95</ele>
        <time>2019-04-14T11:46:20Z</time>
      </trkpt>
      <trkpt lat="44.45296" lon="1.35427">
        <ele>94</ele>
        <time>2019-04-14T11:46:21Z</time>
      </trkpt>
      <trkpt lat="44.45294" lon="1.35429">
        <ele>94</ele>
        <time>2019-04-14T11:46:22Z</time>
      </trkpt>
      <trkpt lat="44.45292" lon="1.35431">
        <ele>94</ele>
        <time>2019-04-14T11:46:23Z</time>
      </trkpt>
      <trkpt lat="44.45288" lon="1.35432">
        <ele>94</ele>
        <time>2019-04-14T11:46:24Z</time>
      </trkpt>
      <trkpt lat="44.45285" lon="1.35433">
        <ele>94</ele>
        <time>2019-04-14T11:46:25Z</time>
      </trkpt>
      <trkpt lat="44.45282" lon="1.35435">
        <ele>94</ele>
        <time>2019-04-14T11:46:26Z</time>
      </trkpt>
      <trkpt lat="44.45278" lon="1.35437">
        <ele>94</ele>
        <time>2019-04-14T11:46:27Z</time>
      </trkpt>
      <trkpt lat="44.45274" lon="1.35438">
        <ele>94</ele>
        <time>2019-04-14T11:46:28Z</time>
      </trkpt>
      <trkpt lat="44.4527" lon="1.35441">
        <ele>94</ele>
        <time>2019-04-14T11:46:29Z</time>
      </trkpt>
      <trkpt lat="44.45268" lon="1.35444">
        <ele>94</ele>
        <time>2019-04-14T11:46:30Z</time>
      </trkpt>
      <trkpt lat="44.45265" lon="1.35446">
        <ele>94</ele>
        <time>2019-04-14T11:46:31Z</time>
      </trkpt>
      <trkpt lat="44.45262" lon="1.3545">
        <ele>93</ele>
        <time>2019-04-14T11:46:32Z</time>
      </trkpt>
      <trkpt lat="44.45259" lon="1.35453">
        <ele>93</ele>
        <time>2019-04-14T11:46:33Z</time>
      </trkpt>
      <trkpt lat="44.45257" lon="1.35456">
        <ele>94</ele>
        <time>2019-04-14T11:46:34Z</time>
      </trkpt>
      <trkpt lat="44.45255" lon="1.35459">
        <ele>94</ele>
        <time>2019-04-14T11:46:35Z</time>
      </trkpt>
      <trkpt lat="44.45253" lon="1.35462">
        <ele>94</ele>
        <time>2019-04-14T11:46:36Z</time>
      </trkpt>
      <trkpt lat="44.45251" lon="1.35465">
        <ele>94</ele>
        <time>2019-04-14T11:46:37Z</time>
      </trkpt>
      <trkpt lat="44.45249" lon="1.35468">
        <ele>94</ele>
        <time>2019-04-14T11:46:38Z</time>
      </trkpt>
      <trkpt lat="44.45245" lon="1.35472">
        <ele>94</ele>
        <time>2019-04-14T11:46:39Z</time>
      </trkpt>
      <trkpt lat="44.45243" lon="1.35472">
        <ele>94</ele>
        <time>2019-04-14T11:46:41Z</time>
      </trkpt>
      <trkpt lat="44.45241" lon="1.35472">
        <ele>94</ele>
        <time>2019-04-14T11:46:42Z</time>
      </trkpt>
      <trkpt lat="44.45239" lon="1.35471">
        <ele>94</ele>
        <time>2019-04-14T11:46:43Z</time>
      </trkpt>
      <trkpt lat="44.45238" lon="1.35471">
        <ele>95</ele>
        <time>2019-04-14T11:46:44Z</time>
      </trkpt>
      <trkpt lat="44.45236" lon="1.3547">
        <ele>94</ele>
        <time>2019-04-14T11:46:45Z</time>
      </trkpt>
      <trkpt lat="44.45236" lon="1.35469">
        <ele>94</ele>
        <time>2019-04-14T11:46:46Z</time>
      </trkpt>
      <trkpt lat="44.45235" lon="1.3547">
        <ele>94</ele>
        <time>2019-04-14T11:46:47Z</time>
      </trkpt>
      <trkpt lat="44.45235" lon="1.3547">
        <ele>94</ele>
        <time>2019-04-14T11:46:48Z</time>
      </trkpt>
      <trkpt lat="44.45235" lon="1.3547">
        <ele>94</ele>
        <time>2019-04-14T11:46:49Z</time>
      </trkpt>
      <trkpt lat="44.45235" lon="1.3547">
        <ele>94</ele>
        <time>2019-04-14T11:46:50Z</time>
      </trkpt>
      <trkpt lat="44.45235" lon="1.3547">
        <ele>94</ele>
        <time>2019-04-14T11:46:51Z</time>
      </trkpt>
      <trkpt lat="44.45234" lon="1.3547">
        <ele>94</ele>
        <time>2019-04-14T11:46:52Z</time>
      </trkpt>
      <trkpt lat="44.45232" lon="1.3547">
        <ele>94</ele>
        <time>2019-04-14T11:46:53Z</time>
      </trkpt>
      <trkpt lat="44.45249" lon="1.35494">
        <ele>95</ele>
        <time>2019-04-14T11:54:27Z</time>
      </trkpt>
      <trkpt lat="44.45251" lon="1.35496">
        <ele>95</ele>
        <time>2019-04-14T11:54:28Z</time>
      </trkpt>
      <trkpt lat="44.45253" lon="1.35497">
        <ele>95</ele>
        <time>2019-04-14T11:54:29Z</time>
      </trkpt>
      <trkpt lat="44.45255" lon="1.35499">
        <ele>95</ele>
        <time>2019-04-14T11:54:30Z</time>
      </trkpt>
      <trkpt lat="44.45257" lon="1.35502">
        <ele>95</ele>
        <time>2019-04-14T11:54:31Z</time>
      </trkpt>
      <trkpt lat="44.45259" lon="1.35504">
        <ele>95</ele>
        <time>2019-04-14T11:54:32Z</time>
      </trkpt>
      <trkpt lat="44.45261" lon="1.35507">
        <ele>95</ele>
        <time>2019-04-14T11:54:33Z</time>
      </trkpt>
      <trkpt lat="44.45263" lon="1.35509">
        <ele>95</ele>
        <time>2019-04-14T11:54:34Z</time>
      </trkpt>
      <trkpt lat="44.45265" lon="1.35512">
        <ele>95</ele>
        <time>2019-04-14T11:54:35Z</time>
      </trkpt>
      <trkpt lat="44.45268" lon="1.35515">
        <ele>95</ele>
        <time>2019-04-14T11:54:36Z</time>
      </trkpt>
      <trkpt lat="44.4527" lon="1.35518">
        <ele>95</ele>
        <time>2019-04-14T11:54:37Z</time>
      </trkpt>
      <trkpt lat="44.45273" lon="1.35521">
        <ele>95</ele>
        <time>2019-04-14T11:54:38Z</time>
      </trkpt>
      <trkpt lat="44.45275" lon="1.35525">
        <ele>95</ele>
        <time>2019-04-14T11:54:39Z</time>
      </trkpt>
      <trkpt lat="44.45278" lon="1.35528">
        <ele>95</ele>
        <time>2019-04-14T11:54:40Z</time>
      </trkpt>
      <trkpt lat="44.45281" lon="1.35531">
        <ele>95</ele>
        <time>2019-04-14T11:54:41Z</time>
      </trkpt>
      <trkpt lat="44.45283" lon="1.35534">
        <ele>95</ele>
        <time>2019-04-14T11:54:42Z</time>
      </trkpt>
      <trkpt lat="44.45285" lon="1.35537">
        <ele>95</ele>
        <time>2019-04-14T11:54:43Z</time>
      </trkpt>
      <trkpt lat="44.45288" lon="1.3554">
        <ele>95</ele>
        <time>2019-04-14T11:54:44Z</time>
      </trkpt>
      <trkpt lat="44.4529" lon="1.35543">
        <ele>95</ele>
        <time>2019-04-14T11:54:45Z</time>
      </trkpt>
      <trkpt lat="44.45293" lon="1.35547">
        <ele>95</ele>
        <time>2019-04-14T11:54:46Z</time>
      </trkpt>
      <trkpt lat="44.45296" lon="1.3555">
        <ele>95</ele>
        <time>2019-04-14T11:54:47Z</time>
      </trkpt>
      <trkpt lat="44.45298" lon="1.35553">
        <ele>95</ele>
        <time>2019-04-14T11:54:48Z</time>
      </trkpt>
      <trkpt lat="44.45301" lon="1.35556">
        <ele>94</ele>
        <time>2019-04-14T11:54:49Z</time>
      </trkpt>
      <trkpt lat="44.45304" lon="1.3556">
        <ele>95</ele>
        <time>2019-04-14T11:54:50Z</time>
      </trkpt>
      <trkpt lat="44.45308" lon="1.35563">
        <ele>95</ele>
        <time>2019-04-14T11:54:51Z</time>
      </trkpt>
      <trkpt lat="44.45311" lon="1.35566">
        <ele>94</ele>
        <time>2019-04-14T11:54:52Z</time>
      </trkpt>
      <trkpt lat="44.45313" lon="1.3557">
        <ele>94</ele>
        <time>2019-04-14T11:54:53Z</time>
      </trkpt>
      <trkpt lat="44.45315" lon="1.35574">
        <ele>95</ele>
        <time>2019-04-14T11:54:54Z</time>
      </trkpt>
      <trkpt lat="44.45316" lon="1.35578">
        <ele>94</ele>
        <time>2019-04-14T11:54:55Z</time>
      </trkpt>
      <trkpt lat="44.45316" lon="1.35583">
        <ele>95</ele>
        <time>2019-04-14T11:54:56Z</time>
      </trkpt>
      <trkpt lat="44.45314" lon="1.35587">
        <ele>95</ele>
        <time>2019-04-14T11:54:57Z</time>
      </trkpt>
      <trkpt lat="44.45312" lon="1.3559">
        <ele>95</ele>
        <time>2019-04-14T11:54:58Z</time>
      </trkpt>
      <trkpt lat="44.45309" lon="1.35593">
        <ele>95</ele>
        <time>2019-04-14T11:54:59Z</time>
      </trkpt>
      <trkpt lat="44.45307" lon="1.35596">
        <ele>95</ele>
        <time>2019-04-14T11:55:00Z</time>
      </trkpt>
      <trkpt lat="44.45305" lon="1.35599">
        <ele>95</ele>
        <time>2019-04-14T11:55:01Z</time>
      </trkpt>
      <trkpt lat="44.45303" lon="1.35603">
        <ele>96</ele>
        <time>2019-04-14T11:55:02Z</time>
      </trkpt>
      <trkpt lat="44.45301" lon="1.35606">
        <ele>96</ele>
        <time>2019-04-14T11:55:03Z</time>
      </trkpt>
      <trkpt lat="44.45298" lon="1.35609">
        <ele>96</ele>
        <time>2019-04-14T11:55:04Z</time>
      </trkpt>
      <trkpt lat="44.45296" lon="1.35613">
        <ele>96</ele>
        <time>2019-04-14T11:55:05Z</time>
      </trkpt>
      <trkpt lat="44.45294" lon="1.35616">
        <ele>96</ele>
        <time>2019-04-14T11:55:06Z</time>
      </trkpt>
      <trkpt lat="44.45292" lon="1.35619">
        <ele>97</ele>
        <time>2019-04-14T11:55:07Z</time>
      </trkpt>
      <trkpt lat="44.4529" lon="1.35623">
        <ele>97</ele>
        <time>2019-04-14T11:55:08Z</time>
      </trkpt>
      <trkpt lat="44.45288" lon="1.35626">
        <ele>97</ele>
        <time>2019-04-14T11:55:09Z</time>
      </trkpt>
      <trkpt lat="44.45285" lon="1.3563">
        <ele>97</ele>
        <time>2019-04-14T11:55:10Z</time>
      </trkpt>
      <trkpt lat="44.45283" lon="1.35633">
        <ele>97</ele>
        <time>2019-04-14T11:55:11Z</time>
      </trkpt>
      <trkpt lat="44.45281" lon="1.35636">
        <ele>98</ele>
        <time>2019-04-14T11:55:12Z</time>
      </trkpt>
      <trkpt lat="44.45279" lon="1.3564">
        <ele>98</ele>
        <time>2019-04-14T11:55:13Z</time>
      </trkpt>
      <trkpt lat="44.45277" lon="1.35643">
        <ele>98</ele>
        <time>2019-04-14T11:55:14Z</time>
      </trkpt>
      <trkpt lat="44.45275" lon="1.35646">
        <ele>98</ele>
        <time>2019-04-14T11:55:15Z</time>
      </trkpt>
      <trkpt lat="44.45273" lon="1.35649">
        <ele>99</ele>
        <time>2019-04-14T11:55:16Z</time>
      </trkpt>
      <trkpt lat="44.45271" lon="1.35653">
        <ele>99</ele>
        <time>2019-04-14T11:55:17Z</time>
      </trkpt>
      <trkpt lat="44.45269" lon="1.35656">
        <ele>99</ele>
        <time>2019-04-14T11:55:18Z</time>
      </trkpt>
      <trkpt lat="44.45266" lon="1.35658">
        <ele>99</ele>
        <time>2019-04-14T11:55:19Z</time>
      </trkpt>
      <trkpt lat="44.45264" lon="1.35661">
        <ele>99</ele>
        <time>2019-04-14T11:55:20Z</time>
      </trkpt>
      <trkpt lat="44.45262" lon="1.35664">
        <ele>99</ele>
        <time>2019-04-14T11:55:21Z</time>
      </trkpt>
      <trkpt lat="44.4526" lon="1.35667">
        <ele>100</ele>
        <time>2019-04-14T11:55:22Z</time>
      </trkpt>
      <trkpt lat="44.45258" lon="1.35669">
        <ele>100</ele>
        <time>2019-04-14T11:55:23Z</time>
      </trkpt>
      <trkpt lat="44.45255" lon="1.35671">
        <ele>100</ele>
        <time>2019-04-14T11:55:24Z</time>
      </trkpt>
      <trkpt lat="44.45253" lon="1.35673">
        <ele>100</ele>
        <time>2019-04-14T11:55:25Z</time>
      </trkpt>
      <trkpt lat="44.45251" lon="1.35676">
        <ele>100</ele>
        <time>2019-04-14T11:55:26Z</time>
      </trkpt>
      <trkpt lat="44.45249" lon="1.35679">
        <ele>100</ele>
        <time>2019-04-14T11:55:27Z</time>
      </trkpt>
      <trkpt lat="44.45246" lon="1.35682">
        <ele>100</ele>
        <time>2019-04-14T11:55:28Z</time>
      </trkpt>
      <trkpt lat="44.45244" lon="1.35685">
        <ele>100</ele>
        <time>2019-04-14T11:55:29Z</time>
      </trkpt>
      <trkpt lat="44.45242" lon="1.35688">
        <ele>100</ele>
        <time>2019-04-14T11:55:30Z</time>
      </trkpt>
      <trkpt lat="44.45239" lon="1.35691">
        <ele>100</ele>
        <time>2019-04-14T11:55:31Z</time>
      </trkpt>
      <trkpt lat="44.45236" lon="1.35694">
        <ele>101</ele>
        <time>2019-04-14T11:55:32Z</time>
      </trkpt>
      <trkpt lat="44.45233" lon="1.35697">
        <ele>101</ele>
        <time>2019-04-14T11:55:33Z</time>
      </trkpt>
      <trkpt lat="44.4523" lon="1.357">
        <ele>101</ele>
        <time>2019-04-14T11:55:34Z</time>
      </trkpt>
      <trkpt lat="44.45227" lon="1.35703">
        <ele>101</ele>
        <time>2019-04-14T11:55:35Z</time>
      </trkpt>
      <trkpt lat="44.45224" lon="1.35706">
        <ele>101</ele>
        <time>2019-04-14T11:55:36Z</time>
      </trkpt>
      <trkpt lat="44.4522" lon="1.35709">
        <ele>101</ele>
        <time>2019-04-14T11:55:37Z</time>
      </trkpt>
      <trkpt lat="44.45217" lon="1.35711">
        <ele>101</ele>
        <time>2019-04-14T11:55:38Z</time>
      </trkpt>
      <trkpt lat="44.45214" lon="1.35714">
        <ele>101</ele>
        <time>2019-04-14T11:55:39Z</time>
      </trkpt>
      <trkpt lat="44.4521" lon="1.35717">
        <ele>101</ele>
        <time>2019-04-14T11:55:40Z</time>
      </trkpt>
      <trkpt lat="44.45206" lon="1.35719">
        <ele>101</ele>
        <time>2019-04-14T11:55:41Z</time>
      </trkpt>
      <trkpt lat="44.45203" lon="1.35722">
        <ele>101</ele>
        <time>2019-04-14T11:55:42Z</time>
      </trkpt>
      <trkpt lat="44.45199" lon="1.35725">
        <ele>101</ele>
        <time>2019-04-14T11:55:43Z</time>
      </trkpt>
      <trkpt lat="44.45196" lon="1.35728">
        <ele>101</ele>
        <time>2019-04-14T11:55:44Z</time>
      </trkpt>
      <trkpt lat="44.45193" lon="1.35731">
        <ele>101</ele>
        <time>2019-04-14T11:55:45Z</time>
      </trkpt>
      <trkpt lat="44.4519" lon="1.35734">
        <ele>101</ele>
        <time>2019-04-14T11:55:46Z</time>
      </trkpt>
      <trkpt lat="44.45186" lon="1.35738">
        <ele>102</ele>
        <time>2019-04-14T11:55:47Z</time>
      </trkpt>
      <trkpt lat="44.45183" lon="1.35741">
        <ele>102</ele>
        <time>2019-04-14T11:55:48Z</time>
      </trkpt>
      <trkpt lat="44.4518" lon="1.35744">
        <ele>102</ele>
        <time>2019-04-14T11:55:49Z</time>
      </trkpt>
      <trkpt lat="44.45177" lon="1.35747">
        <ele>102</ele>
        <time>2019-04-14T11:55:50Z</time>
      </trkpt>
      <trkpt lat="44.45173" lon="1.3575">
        <ele>102</ele>
        <time>2019-04-14T11:55:51Z</time>
      </trkpt>
      <trkpt lat="44.4517" lon="1.35754">
        <ele>102</ele>
        <time>2019-04-14T11:55:52Z</time>
      </trkpt>
      <trkpt lat="44.45167" lon="1.35758">
        <ele>102</ele>
        <time>2019-04-14T11:55:53Z</time>
      </trkpt>
      <trkpt lat="44.45165" lon="1.35761">
        <ele>102</ele>
        <time>2019-04-14T11:55:54Z</time>
      </trkpt>
      <trkpt lat="44.45162" lon="1.35765">
        <ele>102</ele>
        <time>2019-04-14T11:55:55Z</time>
      </trkpt>
      <trkpt lat="44.45159" lon="1.35769">
        <ele>102</ele>
        <time>2019-04-14T11:55:56Z</time>
      </trkpt>
      <trkpt lat="44.45157" lon="1.35773">
        <ele>102</ele>
        <time>2019-04-14T11:55:57Z</time>
      </trkpt>
      <trkpt lat="44.45154" lon="1.35777">
        <ele>102</ele>
        <time>2019-04-14T11:55:58Z</time>
      </trkpt>
      <trkpt lat="44.45152" lon="1.35782">
        <ele>102</ele>
        <time>2019-04-14T11:55:59Z</time>
      </trkpt>
      <trkpt lat="44.45151" lon="1.35786">
        <ele>102</ele>
        <time>2019-04-14T11:56:00Z</time>
      </trkpt>
      <trkpt lat="44.45149" lon="1.35791">
        <ele>102</ele>
        <time>2019-04-14T11:56:01Z</time>
      </trkpt>
      <trkpt lat="44.45148" lon="1.35796">
        <ele>102</ele>
        <time>2019-04-14T11:56:02Z</time>
      </trkpt>
      <trkpt lat="44.45147" lon="1.35801">
        <ele>102</ele>
        <time>2019-04-14T11:56:03Z</time>
      </trkpt>
      <trkpt lat="44.45146" lon="1.35807">
        <ele>102</ele>
        <time>2019-04-14T11:56:04Z</time>
      </trkpt>
      <trkpt lat="44.45145" lon="1.35812">
        <ele>102</ele>
        <time>2019-04-14T11:56:05Z</time>
      </trkpt>
      <trkpt lat="44.45145" lon="1.35817">
        <ele>102</ele>
        <time>2019-04-14T11:56:06Z</time>
      </trkpt>
      <trkpt lat="44.45144" lon="1.35822">
        <ele>102</ele>
        <time>2019-04-14T11:56:07Z</time>
      </trkpt>
      <trkpt lat="44.45144" lon="1.35827">
        <ele>102</ele>
        <time>2019-04-14T11:56:08Z</time>
      </trkpt>
      <trkpt lat="44.45144" lon="1.35832">
        <ele>102</ele>
        <time>2019-04-14T11:56:09Z</time>
      </trkpt>
      <trkpt lat="44.45144" lon="1.35837">
        <ele>102</ele>
        <time>2019-04-14T11:56:10Z</time>
      </trkpt>
      <trkpt lat="44.45144" lon="1.35842">
        <ele>102</ele>
        <time>2019-04-14T11:56:11Z</time>
      </trkpt>
      <trkpt lat="44.45144" lon="1.35847">
        <ele>102</ele>
        <time>2019-04-14T11:56:12Z</time>
      </trkpt>
      <trkpt lat="44.45144" lon="1.35852">
        <ele>102</ele>
        <time>2019-04-14T11:56:13Z</time>
      </trkpt>
      <trkpt lat="44.45144" lon="1.35858">
        <ele>102</ele>
        <time>2019-04-14T11:56:14Z</time>
      </trkpt>
      <trkpt lat="44.45143" lon="1.35863">
        <ele>102</ele>
        <time>2019-04-14T11:56:15Z</time>
      </trkpt>
      <trkpt lat="44.45143" lon="1.35868">
        <ele>102</ele>
        <time>2019-04-14T11:56:16Z</time>
      </trkpt>
      <trkpt lat="44.45142" lon="1.35873">
        <ele>102</ele>
        <time>2019-04-14T11:56:17Z</time>
      </trkpt>
      <trkpt lat="44.4514" lon="1.35878">
        <ele>102</ele>
        <time>2019-04-14T11:56:18Z</time>
      </trkpt>
      <trkpt lat="44.45138" lon="1.35884">
        <ele>101</ele>
        <time>2019-04-14T11:56:19Z</time>
      </trkpt>
      <trkpt lat="44.45136" lon="1.35888">
        <ele>101</ele>
        <time>2019-04-14T11:56:20Z</time>
      </trkpt>
      <trkpt lat="44.45133" lon="1.35892">
        <ele>101</ele>
        <time>2019-04-14T11:56:21Z</time>
      </trkpt>
      <trkpt lat="44.45129" lon="1.35895">
        <ele>102</ele>
        <time>2019-04-14T11:56:22Z</time>
      </trkpt>
      <trkpt lat="44.45125" lon="1.35898">
        <ele>102</ele>
        <time>2019-04-14T11:56:23Z</time>
      </trkpt>
      <trkpt lat="44.45122" lon="1.359">
        <ele>101</ele>
        <time>2019-04-14T11:56:24Z</time>
      </trkpt>
      <trkpt lat="44.45118" lon="1.35902">
        <ele>102</ele>
        <time>2019-04-14T11:56:25Z</time>
      </trkpt>
      <trkpt lat="44.45114" lon="1.35904">
        <ele>101</ele>
        <time>2019-04-14T11:56:26Z</time>
      </trkpt>
      <trkpt lat="44.45109" lon="1.35905">
        <ele>102</ele>
        <time>2019-04-14T11:56:27Z</time>
      </trkpt>
      <trkpt lat="44.45106" lon="1.35907">
        <ele>101</ele>
        <time>2019-04-14T11:56:28Z</time>
      </trkpt>
      <trkpt lat="44.45102" lon="1.35908">
        <ele>101</ele>
        <time>2019-04-14T11:56:29Z</time>
      </trkpt>
      <trkpt lat="44.45098" lon="1.35909">
        <ele>101</ele>
        <time>2019-04-14T11:56:30Z</time>
      </trkpt>
      <trkpt lat="44.45094" lon="1.3591">
        <ele>101</ele>
        <time>2019-04-14T11:56:31Z</time>
      </trkpt>
      <trkpt lat="44.45091" lon="1.35912">
        <ele>102</ele>
        <time>2019-04-14T11:56:32Z</time>
      </trkpt>
      <trkpt lat="44.45087" lon="1.35913">
        <ele>102</ele>
        <time>2019-04-14T11:56:33Z</time>
      </trkpt>
      <trkpt lat="44.45083" lon="1.35915">
        <ele>102</ele>
        <time>2019-04-14T11:56:34Z</time>
      </trkpt>
      <trkpt lat="44.4508" lon="1.35916">
        <ele>102</ele>
        <time>2019-04-14T11:56:35Z</time>
      </trkpt>
      <trkpt lat="44.45076" lon="1.35917">
        <ele>102</ele>
        <time>2019-04-14T11:56:36Z</time>
      </trkpt>
      <trkpt lat="44.45073" lon="1.35919">
        <ele>102</ele>
        <time>2019-04-14T11:56:37Z</time>
      </trkpt>
      <trkpt lat="44.4507" lon="1.3592">
        <ele>102</ele>
        <time>2019-04-14T11:56:38Z</time>
      </trkpt>
      <trkpt lat="44.45066" lon="1.35922">
        <ele>102</ele>
        <time>2019-04-14T11:56:39Z</time>
      </trkpt>
      <trkpt lat="44.45063" lon="1.35924">
        <ele>102</ele>
        <time>2019-04-14T11:56:40Z</time>
      </trkpt>
      <trkpt lat="44.4506" lon="1.35926">
        <ele>102</ele>
        <time>2019-04-14T11:56:41Z</time>
      </trkpt>
      <trkpt lat="44.45057" lon="1.35928">
        <ele>102</ele>
        <time>2019-04-14T11:56:42Z</time>
      </trkpt>
      <trkpt lat="44.45054" lon="1.35929">
        <ele>103</ele>
        <time>2019-04-14T11:56:43Z</time>
      </trkpt>
      <trkpt lat="44.45051" lon="1.35931">
        <ele>103</ele>
        <time>2019-04-14T11:56:44Z</time>
      </trkpt>
      <trkpt lat="44.45048" lon="1.35934">
        <ele>103</ele>
        <time>2019-04-14T11:56:45Z</time>
      </trkpt>
      <trkpt lat="44.45045" lon="1.35936">
        <ele>103</ele>
        <time>2019-04-14T11:56:46Z</time>
      </trkpt>
      <trkpt lat="44.45043" lon="1.35938">
        <ele>103</ele>
        <time>2019-04-14T11:56:47Z</time>
      </trkpt>
      <trkpt lat="44.4504" lon="1.3594">
        <ele>103</ele>
        <time>2019-04-14T11:56:48Z</time>
      </trkpt>
      <trkpt lat="44.45038" lon="1.35942">
        <ele>103</ele>
        <time>2019-04-14T11:56:49Z</time>
      </trkpt>
      <trkpt lat="44.45035" lon="1.35944">
        <ele>103</ele>
        <time>2019-04-14T11:56:50Z</time>
      </trkpt>
      <trkpt lat="44.45032" lon="1.35946">
        <ele>103</ele>
        <time>2019-04-14T11:56:51Z</time>
      </trkpt>
      <trkpt lat="44.4503" lon="1.35948">
        <ele>103</ele>
        <time>2019-04-14T11:56:52Z</time>
      </trkpt>
      <trkpt lat="44.45027" lon="1.35951">
        <ele>103</ele>
        <time>2019-04-14T11:56:53Z</time>
      </trkpt>
      <trkpt lat="44.45024" lon="1.35953">
        <ele>103</ele>
        <time>2019-04-14T11:56:54Z</time>
      </trkpt>
      <trkpt lat="44.45022" lon="1.35955">
        <ele>104</ele>
        <time>2019-04-14T11:56:55Z</time>
      </trkpt>
      <trkpt lat="44.4502" lon="1.35957">
        <ele>104</ele>
        <time>2019-04-14T11:56:56Z</time>
      </trkpt>
      <trkpt lat="44.45017" lon="1.35959">
        <ele>104</ele>
        <time>2019-04-14T11:56:57Z</time>
      </trkpt>
      <trkpt lat="44.45014" lon="1.3596">
        <ele>104</ele>
        <time>2019-04-14T11:56:58Z</time>
      </trkpt>
      <trkpt lat="44.45012" lon="1.35962">
        <ele>104</ele>
        <time>2019-04-14T11:56:59Z</time>
      </trkpt>
      <trkpt lat="44.45009" lon="1.35964">
        <ele>104</ele>
        <time>2019-04-14T11:57:00Z</time>
      </trkpt>
      <trkpt lat="44.45006" lon="1.35966">
        <ele>104</ele>
        <time>2019-04-14T11:57:01Z</time>
      </trkpt>
      <trkpt lat="44.45003" lon="1.35968">
        <ele>104</ele>
        <time>2019-04-14T11:57:02Z</time>
      </trkpt>
      <trkpt lat="44.45001" lon="1.3597">
        <ele>104</ele>
        <time>2019-04-14T11:57:03Z</time>
      </trkpt>
      <trkpt lat="44.44999" lon="1.35972">
        <ele>104</ele>
        <time>2019-04-14T11:57:04Z</time>
      </trkpt>
      <trkpt lat="44.44996" lon="1.35973">
        <ele>104</ele>
        <time>2019-04-14T11:57:05Z</time>
      </trkpt>
      <trkpt lat="44.44993" lon="1.35975">
        <ele>105</ele>
        <time>2019-04-14T11:57:06Z</time>
      </trkpt>
      <trkpt lat="44.4499" lon="1.35976">
        <ele>105</ele>
        <time>2019-04-14T11:57:07Z</time>
      </trkpt>
      <trkpt lat="44.44988" lon="1.35977">
        <ele>105</ele>
        <time>2019-04-14T11:57:08Z</time>
      </trkpt>
      <trkpt lat="44.44985" lon="1.35978">
        <ele>105</ele>
        <time>2019-04-14T11:57:09Z</time>
      </trkpt>
      <trkpt lat="44.44982" lon="1.3598">
        <ele>105</ele>
        <time>2019-04-14T11:57:10Z</time>
      </trkpt>
      <trkpt lat="44.44979" lon="1.35981">
        <ele>105</ele>
        <time>2019-04-14T11:57:11Z</time>
      </trkpt>
      <trkpt lat="44.44977" lon="1.35982">
        <ele>105</ele>
        <time>2019-04-14T11:57:12Z</time>
      </trkpt>
      <trkpt lat="44.44974" lon="1.35983">
        <ele>105</ele>
        <time>2019-04-14T11:57:13Z</time>
      </trkpt>
      <trkpt lat="44.44971" lon="1.35985">
        <ele>105</ele>
        <time>2019-04-14T11:57:14Z</time>
      </trkpt>
      <trkpt lat="44.44968" lon="1.35987">
        <ele>105</ele>
        <time>2019-04-14T11:57:15Z</time>
      </trkpt>
      <trkpt lat="44.44966" lon="1.35989">
        <ele>105</ele>
        <time>2019-04-14T11:57:16Z</time>
      </trkpt>
      <trkpt lat="44.44963" lon="1.3599">
        <ele>105</ele>
        <time>2019-04-14T11:57:17Z</time>
      </trkpt>
      <trkpt lat="44.4496" lon="1.35992">
        <ele>106</ele>
        <time>2019-04-14T11:57:18Z</time>
      </trkpt>
      <trkpt lat="44.44957" lon="1.35994">
        <ele>106</ele>
        <time>2019-04-14T11:57:19Z</time>
      </trkpt>
      <trkpt lat="44.44954" lon="1.35995">
        <ele>106</ele>
        <time>2019-04-14T11:57:20Z</time>
      </trkpt>
      <trkpt lat="44.44952" lon="1.35997">
        <ele>106</ele>
        <time>2019-04-14T11:57:21Z</time>
      </trkpt>
      <trkpt lat="44.44949" lon="1.35999">
        <ele>106</ele>
        <time>2019-04-14T11:57:22Z</time>
      </trkpt>
      <trkpt lat="44.44946" lon="1.36001">
        <ele>106</ele>
        <time>2019-04-14T11:57:23Z</time>
      </trkpt>
      <trkpt lat="44.44943" lon="1.36004">
        <ele>106</ele>
        <time>2019-04-14T11:57:24Z</time>
      </trkpt>
      <trkpt lat="44.44939" lon="1.36006">
        <ele>106</ele>
        <time>2019-04-14T11:57:25Z</time>
      </trkpt>
      <trkpt lat="44.44937" lon="1.36008">
        <ele>106</ele>
        <time>2019-04-14T11:57:26Z</time>
      </trkpt>
      <trkpt lat="44.44934" lon="1.3601">
        <ele>106</ele>
        <time>2019-04-14T11:57:27Z</time>
      </trkpt>
      <trkpt lat="44.44931" lon="1.36012">
        <ele>106</ele>
        <time>2019-04-14T11:57:28Z</time>
      </trkpt>
      <trkpt lat="44.44928" lon="1.36014">
        <ele>106</ele>
        <time>2019-04-14T11:57:29Z</time>
      </trkpt>
      <trkpt lat="44.44925" lon="1.36016">
        <ele>107</ele>
        <time>2019-04-14T11:57:30Z</time>
      </trkpt>
      <trkpt lat="44.44922" lon="1.36018">
        <ele>107</ele>
        <time>2019-04-14T11:57:31Z</time>
      </trkpt>
      <trkpt lat="44.44919" lon="1.3602">
        <ele>107</ele>
        <time>2019-04-14T11:57:32Z</time>
      </trkpt>
      <trkpt lat="44.44916" lon="1.36021">
        <ele>107</ele>
        <time>2019-04-14T11:57:33Z</time>
      </trkpt>
      <trkpt lat="44.44913" lon="1.36024">
        <ele>107</ele>
        <time>2019-04-14T11:57:34Z</time>
      </trkpt>
      <trkpt lat="44.4491" lon="1.36026">
        <ele>107</ele>
        <time>2019-04-14T11:57:35Z</time>
      </trkpt>
      <trkpt lat="44.44908" lon="1.36028">
        <ele>107</ele>
        <time>2019-04-14T11:57:36Z</time>
      </trkpt>
      <trkpt lat="44.44905" lon="1.36029">
        <ele>107</ele>
        <time>2019-04-14T11:57:37Z</time>
      </trkpt>
      <trkpt lat="44.44902" lon="1.3603">
        <ele>107</ele>
        <time>2019-04-14T11:57:38Z</time>
      </trkpt>
      <trkpt lat="44.44899" lon="1.36032">
        <ele>107</ele>
        <time>2019-04-14T11:57:39Z</time>
      </trkpt>
      <trkpt lat="44.44896" lon="1.36034">
        <ele>107</ele>
        <time>2019-04-14T11:57:40Z</time>
      </trkpt>
      <trkpt lat="44.44893" lon="1.36035">
        <ele>107</ele>
        <time>2019-04-14T11:57:41Z</time>
      </trkpt>
      <trkpt lat="44.4489" lon="1.36037">
        <ele>107</ele>
        <time>2019-04-14T11:57:42Z</time>
      </trkpt>
      <trkpt lat="44.44887" lon="1.36039">
        <ele>107</ele>
        <time>2019-04-14T11:57:43Z</time>
      </trkpt>
      <trkpt lat="44.44884" lon="1.36041">
        <ele>107</ele>
        <time>2019-04-14T11:57:44Z</time>
      </trkpt>
      <trkpt lat="44.44881" lon="1.36043">
        <ele>107</ele>
        <time>2019-04-14T11:57:45Z</time>
      </trkpt>
      <trkpt lat="44.44878" lon="1.36045">
        <ele>107</ele>
        <time>2019-04-14T11:57:46Z</time>
      </trkpt>
      <trkpt lat="44.44875" lon="1.36047">
        <ele>108</ele>
        <time>2019-04-14T11:57:47Z</time>
      </trkpt>
      <trkpt lat="44.44872" lon="1.36049">
        <ele>108</ele>
        <time>2019-04-14T11:57:48Z</time>
      </trkpt>
      <trkpt lat="44.44869" lon="1.3605">
        <ele>108</ele>
        <time>2019-04-14T11:57:49Z</time>
      </trkpt>
      <trkpt lat="44.44866" lon="1.36052">
        <ele>108</ele>
        <time>2019-04-14T11:57:50Z</time>
      </trkpt>
      <trkpt lat="44.44863" lon="1.36053">
        <ele>108</ele>
        <time>2019-04-14T11:57:51Z</time>
      </trkpt>
      <trkpt lat="44.4486" lon="1.36055">
        <ele>108</ele>
        <time>2019-04-14T11:57:52Z</time>
      </trkpt>
      <trkpt lat="44.44857" lon="1.36056">
        <ele>108</ele>
        <time>2019-04-14T11:57:53Z</time>
      </trkpt>
      <trkpt lat="44.44854" lon="1.36058">
        <ele>108</ele>
        <time>2019-04-14T11:57:54Z</time>
      </trkpt>
      <trkpt lat="44.4485" lon="1.3606">
        <ele>108</ele>
        <time>2019-04-14T11:57:55Z</time>
      </trkpt>
      <trkpt lat="44.44847" lon="1.36061">
        <ele>108</ele>
        <time>2019-04-14T11:57:56Z</time>
      </trkpt>
      <trkpt lat="44.44844" lon="1.36063">
        <ele>108</ele>
        <time>2019-04-14T11:57:57Z</time>
      </trkpt>
      <trkpt lat="44.44841" lon="1.36065">
        <ele>108</ele>
        <time>2019-04-14T11:57:58Z</time>
      </trkpt>
      <trkpt lat="44.44837" lon="1.36067">
        <ele>108</ele>
        <time>2019-04-14T11:57:59Z</time>
      </trkpt>
      <trkpt lat="44.44834" lon="1.36068">
        <ele>108</ele>
        <time>2019-04-14T11:58:00Z</time>
      </trkpt>
      <trkpt lat="44.4483" lon="1.3607">
        <ele>108</ele>
        <time>2019-04-14T11:58:01Z</time>
      </trkpt>
      <trkpt lat="44.44827" lon="1.36071">
        <ele>108</ele>
        <time>2019-04-14T11:58:02Z</time>
      </trkpt>
      <trkpt lat="44.44824" lon="1.36072">
        <ele>108</ele>
        <time>2019-04-14T11:58:03Z</time>
      </trkpt>
      <trkpt lat="44.44821" lon="1.36074">
        <ele>108</ele>
        <time>2019-04-14T11:58:04Z</time>
      </trkpt>
      <trkpt lat="44.44818" lon="1.36075">
        <ele>108</ele>
        <time>2019-04-14T11:58:05Z</time>
      </trkpt>
      <trkpt lat="44.44815" lon="1.36077">
        <ele>108</ele>
        <time>2019-04-14T11:58:06Z</time>
      </trkpt>
      <trkpt lat="44.44812" lon="1.36079">
        <ele>108</ele>
        <time>2019-04-14T11:58:07Z</time>
      </trkpt>
      <trkpt lat="44.44809" lon="1.36081">
        <ele>108</ele>
        <time>2019-04-14T11:58:08Z</time>
      </trkpt>
      <trkpt lat="44.44805" lon="1.36082">
        <ele>108</ele>
        <time>2019-04-14T11:58:09Z</time>
      </trkpt>
      <trkpt lat="44.44801" lon="1.36084">
        <ele>108</ele>
        <time>2019-04-14T11:58:10Z</time>
      </trkpt>
      <trkpt lat="44.44798" lon="1.36087">
        <ele>109</ele>
        <time>2019-04-14T11:58:11Z</time>
      </trkpt>
      <trkpt lat="44.44795" lon="1.36088">
        <ele>109</ele>
        <time>2019-04-14T11:58:12Z</time>
      </trkpt>
      <trkpt lat="44.44792" lon="1.36089">
        <ele>109</ele>
        <time>2019-04-14T11:58:13Z</time>
      </trkpt>
      <trkpt lat="44.44789" lon="1.3609">
        <ele>109</ele>
        <time>2019-04-14T11:58:14Z</time>
      </trkpt>
      <trkpt lat="44.44786" lon="1.36091">
        <ele>109</ele>
        <time>2019-04-14T11:58:15Z</time>
      </trkpt>
      <trkpt lat="44.44783" lon="1.36092">
        <ele>109</ele>
        <time>2019-04-14T11:58:16Z</time>
      </trkpt>
      <trkpt lat="44.4478" lon="1.36093">
        <ele>109</ele>
        <time>2019-04-14T11:58:17Z</time>
      </trkpt>
      <trkpt lat="44.44776" lon="1.36095">
        <ele>109</ele>
        <time>2019-04-14T11:58:18Z</time>
      </trkpt>
      <trkpt lat="44.44773" lon="1.36096">
        <ele>109</ele>
        <time>2019-04-14T11:58:19Z</time>
      </trkpt>
      <trkpt lat="44.4477" lon="1.36097">
        <ele>109</ele>
        <time>2019-04-14T11:58:20Z</time>
      </trkpt>
      <trkpt lat="44.44766" lon="1.36099">
        <ele>109</ele>
        <time>2019-04-14T11:58:21Z</time>
      </trkpt>
      <trkpt lat="44.44762" lon="1.361">
        <ele>109</ele>
        <time>2019-04-14T11:58:22Z</time>
      </trkpt>
      <trkpt lat="44.44759" lon="1.36102">
        <ele>109</ele>
        <time>2019-04-14T11:58:23Z</time>
      </trkpt>
      <trkpt lat="44.44756" lon="1.36103">
        <ele>109</ele>
        <time>2019-04-14T11:58:24Z</time>
      </trkpt>
      <trkpt lat="44.44752" lon="1.36104">
        <ele>109</ele>
        <time>2019-04-14T11:58:25Z</time>
      </trkpt>
      <trkpt lat="44.44749" lon="1.36105">
        <ele>109</ele>
        <time>2019-04-14T11:58:26Z</time>
      </trkpt>
      <trkpt lat="44.44746" lon="1.36107">
        <ele>109</ele>
        <time>2019-04-14T11:58:27Z</time>
      </trkpt>
      <trkpt lat="44.44743" lon="1.36108">
        <ele>109</ele>
        <time>2019-04-14T11:58:28Z</time>
      </trkpt>
      <trkpt lat="44.44739" lon="1.3611">
        <ele>109</ele>
        <time>2019-04-14T11:58:29Z</time>
      </trkpt>
      <trkpt lat="44.44736" lon="1.36111">
        <ele>109</ele>
        <time>2019-04-14T11:58:30Z</time>
      </trkpt>
      <trkpt lat="44.44733" lon="1.36112">
        <ele>110</ele>
        <time>2019-04-14T11:58:31Z</time>
      </trkpt>
      <trkpt lat="44.4473" lon="1.36114">
        <ele>110</ele>
        <time>2019-04-14T11:58:32Z</time>
      </trkpt>
      <trkpt lat="44.44726" lon="1.36116">
        <ele>110</ele>
        <time>2019-04-14T11:58:33Z</time>
      </trkpt>
      <trkpt lat="44.44723" lon="1.36118">
        <ele>110</ele>
        <time>2019-04-14T11:58:34Z</time>
      </trkpt>
      <trkpt lat="44.4472" lon="1.36119">
        <ele>110</ele>
        <time>2019-04-14T11:58:35Z</time>
      </trkpt>
      <trkpt lat="44.44717" lon="1.36121">
        <ele>110</ele>
        <time>2019-04-14T11:58:36Z</time>
      </trkpt>
      <trkpt lat="44.44714" lon="1.36122">
        <ele>110</ele>
        <time>2019-04-14T11:58:37Z</time>
      </trkpt>
      <trkpt lat="44.44712" lon="1.36123">
        <ele>110</ele>
        <time>2019-04-14T11:58:38Z</time>
      </trkpt>
      <trkpt lat="44.44709" lon="1.36124">
        <ele>110</ele>
        <time>2019-04-14T11:58:39Z</time>
      </trkpt>
      <trkpt lat="44.44706" lon="1.36124">
        <ele>110</ele>
        <time>2019-04-14T11:58:40Z</time>
      </trkpt>
      <trkpt lat="44.44703" lon="1.36123">
        <ele>110</ele>
        <time>2019-04-14T11:58:41Z</time>
      </trkpt>
      <trkpt lat="44.44699" lon="1.36122">
        <ele>110</ele>
        <time>2019-04-14T11:58:42Z</time>
      </trkpt>
      <trkpt lat="44.44695" lon="1.3612">
        <ele>110</ele>
        <time>2019-04-14T11:58:43Z</time>
      </trkpt>
      <trkpt lat="44.44692" lon="1.36119">
        <ele>110</ele>
        <time>2019-04-14T11:58:44Z</time>
      </trkpt>
      <trkpt lat="44.44689" lon="1.36117">
        <ele>111</ele>
        <time>2019-04-14T11:58:45Z</time>
      </trkpt>
      <trkpt lat="44.44685" lon="1.36115">
        <ele>111</ele>
        <time>2019-04-14T11:58:46Z</time>
      </trkpt>
      <trkpt lat="44.44682" lon="1.36114">
        <ele>110</ele>
        <time>2019-04-14T11:58:47Z</time>
      </trkpt>
      <trkpt lat="44.44679" lon="1.36113">
        <ele>111</ele>
        <time>2019-04-14T11:58:48Z</time>
      </trkpt>
      <trkpt lat="44.44676" lon="1.36112">
        <ele>111</ele>
        <time>2019-04-14T11:58:49Z</time>
      </trkpt>
      <trkpt lat="44.44673" lon="1.36111">
        <ele>111</ele>
        <time>2019-04-14T11:58:50Z</time>
      </trkpt>
      <trkpt lat="44.44669" lon="1.36109">
        <ele>111</ele>
        <time>2019-04-14T11:58:51Z</time>
      </trkpt>
      <trkpt lat="44.44666" lon="1.36108">
        <ele>111</ele>
        <time>2019-04-14T11:58:52Z</time>
      </trkpt>
      <trkpt lat="44.44663" lon="1.36107">
        <ele>111</ele>
        <time>2019-04-14T11:58:53Z</time>
      </trkpt>
      <trkpt lat="44.44659" lon="1.36106">
        <ele>111</ele>
        <time>2019-04-14T11:58:54Z</time>
      </trkpt>
      <trkpt lat="44.44656" lon="1.36105">
        <ele>111</ele>
        <time>2019-04-14T11:58:55Z</time>
      </trkpt>
      <trkpt lat="44.44653" lon="1.36104">
        <ele>111</ele>
        <time>2019-04-14T11:58:56Z</time>
      </trkpt>
      <trkpt lat="44.44649" lon="1.36102">
        <ele>111</ele>
        <time>2019-04-14T11:58:57Z</time>
      </trkpt>
      <trkpt lat="44.44646" lon="1.36101">
        <ele>111</ele>
        <time>2019-04-14T11:58:58Z</time>
      </trkpt>
      <trkpt lat="44.44643" lon="1.361">
        <ele>111</ele>
        <time>2019-04-14T11:58:59Z</time>
      </trkpt>
      <trkpt lat="44.44639" lon="1.36099">
        <ele>112</ele>
        <time>2019-04-14T11:59:00Z</time>
      </trkpt>
      <trkpt lat="44.44636" lon="1.36098">
        <ele>112</ele>
        <time>2019-04-14T11:59:01Z</time>
      </trkpt>
      <trkpt lat="44.44633" lon="1.36096">
        <ele>112</ele>
        <time>2019-04-14T11:59:02Z</time>
      </trkpt>
      <trkpt lat="44.44629" lon="1.36096">
        <ele>112</ele>
        <time>2019-04-14T11:59:03Z</time>
      </trkpt>
      <trkpt lat="44.44625" lon="1.36095">
        <ele>112</ele>
        <time>2019-04-14T11:59:04Z</time>
      </trkpt>
      <trkpt lat="44.44621" lon="1.36093">
        <ele>112</ele>
        <time>2019-04-14T11:59:05Z</time>
      </trkpt>
      <trkpt lat="44.44618" lon="1.36092">
        <ele>112</ele>
        <time>2019-04-14T11:59:06Z</time>
      </trkpt>
      <trkpt lat="44.44614" lon="1.36091">
        <ele>112</ele>
        <time>2019-04-14T11:59:07Z</time>
      </trkpt>
      <trkpt lat="44.4461" lon="1.36089">
        <ele>112</ele>
        <time>2019-04-14T11:59:08Z</time>
      </trkpt>
      <trkpt lat="44.44607" lon="1.36088">
        <ele>112</ele>
        <time>2019-04-14T11:59:09Z</time>
      </trkpt>
      <trkpt lat="44.44603" lon="1.36086">
        <ele>112</ele>
        <time>2019-04-14T11:59:10Z</time>
      </trkpt>
      <trkpt lat="44.446" lon="1.36084">
        <ele>112</ele>
        <time>2019-04-14T11:59:11Z</time>
      </trkpt>
      <trkpt lat="44.44597" lon="1.36083">
        <ele>112</ele>
        <time>2019-04-14T11:59:12Z</time>
      </trkpt>
      <trkpt lat="44.44594" lon="1.36081">
        <ele>112</ele>
        <time>2019-04-14T11:59:13Z</time>
      </trkpt>
      <trkpt lat="44.4459" lon="1.36078">
        <ele>112</ele>
        <time>2019-04-14T11:59:14Z</time>
      </trkpt>
      <trkpt lat="44.44587" lon="1.36076">
        <ele>112</ele>
        <time>2019-04-14T11:59:15Z</time>
      </trkpt>
      <trkpt lat="44.44583" lon="1.36074">
        <ele>112</ele>
        <time>2019-04-14T11:59:16Z</time>
      </trkpt>
      <trkpt lat="44.4458" lon="1.36072">
        <ele>112</ele>
        <time>2019-04-14T11:59:17Z</time>
      </trkpt>
      <trkpt lat="44.44576" lon="1.3607">
        <ele>112</ele>
        <time>2019-04-14T11:59:18Z</time>
      </trkpt>
      <trkpt lat="44.44573" lon="1.36067">
        <ele>112</ele>
        <time>2019-04-14T11:59:19Z</time>
      </trkpt>
      <trkpt lat="44.4457" lon="1.36065">
        <ele>112</ele>
        <time>2019-04-14T11:59:20Z</time>
      </trkpt>
      <trkpt lat="44.44567" lon="1.36062">
        <ele>112</ele>
        <time>2019-04-14T11:59:21Z</time>
      </trkpt>
      <trkpt lat="44.44563" lon="1.3606">
        <ele>112</ele>
        <time>2019-04-14T11:59:22Z</time>
      </trkpt>
      <trkpt lat="44.44559" lon="1.36057">
        <ele>112</ele>
        <time>2019-04-14T11:59:23Z</time>
      </trkpt>
      <trkpt lat="44.44556" lon="1.36054">
        <ele>112</ele>
        <time>2019-04-14T11:59:24Z</time>
      </trkpt>
      <trkpt lat="44.44553" lon="1.36052">
        <ele>112</ele>
        <time>2019-04-14T11:59:25Z</time>
      </trkpt>
      <trkpt lat="44.44549" lon="1.3605">
        <ele>112</ele>
        <time>2019-04-14T11:59:26Z</time>
      </trkpt>
      <trkpt lat="44.44545" lon="1.36047">
        <ele>113</ele>
        <time>2019-04-14T11:59:27Z</time>
      </trkpt>
      <trkpt lat="44.44542" lon="1.36045">
        <ele>113</ele>
        <time>2019-04-14T11:59:28Z</time>
      </trkpt>
      <trkpt lat="44.44538" lon="1.36042">
        <ele>113</ele>
        <time>2019-04-14T11:59:29Z</time>
      </trkpt>
      <trkpt lat="44.44534" lon="1.3604">
        <ele>113</ele>
        <time>2019-04-14T11:59:30Z</time>
      </trkpt>
      <trkpt lat="44.4453" lon="1.36038">
        <ele>113</ele>
        <time>2019-04-14T11:59:31Z</time>
      </trkpt>
      <trkpt lat="44.44527" lon="1.36037">
        <ele>113</ele>
        <time>2019-04-14T11:59:32Z</time>
      </trkpt>
      <trkpt lat="44.44523" lon="1.36036">
        <ele>113</ele>
        <time>2019-04-14T11:59:33Z</time>
      </trkpt>
      <trkpt lat="44.4452" lon="1.36035">
        <ele>113</ele>
        <time>2019-04-14T11:59:34Z</time>
      </trkpt>
      <trkpt lat="44.44517" lon="1.36035">
        <ele>113</ele>
        <time>2019-04-14T11:59:35Z</time>
      </trkpt>
      <trkpt lat="44.44513" lon="1.36034">
        <ele>113</ele>
        <time>2019-04-14T11:59:36Z</time>
      </trkpt>
      <trkpt lat="44.4451" lon="1.36033">
        <ele>113</ele>
        <time>2019-04-14T11:59:37Z</time>
      </trkpt>
      <trkpt lat="44.44507" lon="1.36032">
        <ele>113</ele>
        <time>2019-04-14T11:59:38Z</time>
      </trkpt>
      <trkpt lat="44.44503" lon="1.36031">
        <ele>113</ele>
        <time>2019-04-14T11:59:39Z</time>
      </trkpt>
      <trkpt lat="44.445" lon="1.3603">
        <ele>113</ele>
        <time>2019-04-14T11:59:40Z</time>
      </trkpt>
      <trkpt lat="44.44496" lon="1.36029">
        <ele>114</ele>
        <time>2019-04-14T11:59:41Z</time>
      </trkpt>
      <trkpt lat="44.44492" lon="1.36029">
        <ele>114</ele>
        <time>2019-04-14T11:59:42Z</time>
      </trkpt>
      <trkpt lat="44.44489" lon="1.36028">
        <ele>114</ele>
        <time>2019-04-14T11:59:43Z</time>
      </trkpt>
      <trkpt lat="44.44485" lon="1.36028">
        <ele>114</ele>
        <time>2019-04-14T11:59:44Z</time>
      </trkpt>
      <trkpt lat="44.44481" lon="1.36027">
        <ele>114</ele>
        <time>2019-04-14T11:59:45Z</time>
      </trkpt>
      <trkpt lat="44.44477" lon="1.36027">
        <ele>114</ele>
        <time>2019-04-14T11:59:46Z</time>
      </trkpt>
      <trkpt lat="44.44473" lon="1.36027">
        <ele>114</ele>
        <time>2019-04-14T11:59:47Z</time>
      </trkpt>
      <trkpt lat="44.4447" lon="1.36027">
        <ele>114</ele>
        <time>2019-04-14T11:59:48Z</time>
      </trkpt>
      <trkpt lat="44.44466" lon="1.36027">
        <ele>115</ele>
        <time>2019-04-14T11:59:49Z</time>
      </trkpt>
      <trkpt lat="44.44462" lon="1.36026">
        <ele>115</ele>
        <time>2019-04-14T11:59:50Z</time>
      </trkpt>
      <trkpt lat="44.44459" lon="1.36026">
        <ele>115</ele>
        <time>2019-04-14T11:59:51Z</time>
      </trkpt>
      <trkpt lat="44.44455" lon="1.36026">
        <ele>115</ele>
        <time>2019-04-14T11:59:52Z</time>
      </trkpt>
      <trkpt lat="44.44451" lon="1.36026">
        <ele>115</ele>
        <time>2019-04-14T11:59:53Z</time>
      </trkpt>
      <trkpt lat="44.44448" lon="1.36026">
        <ele>115</ele>
        <time>2019-04-14T11:59:54Z</time>
      </trkpt>
      <trkpt lat="44.44444" lon="1.36026">
        <ele>115</ele>
        <time>2019-04-14T11:59:55Z</time>
      </trkpt>
      <trkpt lat="44.4444" lon="1.36027">
        <ele>115</ele>
        <time>2019-04-14T11:59:56Z</time>
      </trkpt>
      <trkpt lat="44.44436" lon="1.36027">
        <ele>115</ele>
        <time>2019-04-14T11:59:57Z</time>
      </trkpt>
      <trkpt lat="44.44432" lon="1.36027">
        <ele>116</ele>
        <time>2019-04-14T11:59:58Z</time>
      </trkpt>
      <trkpt lat="44.44429" lon="1.36027">
        <ele>116</ele>
        <time>2019-04-14T11:59:59Z</time>
      </trkpt>
      <trkpt lat="44.44425" lon="1.36027">
        <ele>116</ele>
        <time>2019-04-14T12:00:00Z</time>
      </trkpt>
      <trkpt lat="44.44421" lon="1.36028">
        <ele>116</ele>
        <time>2019-04-14T12:00:01Z</time>
      </trkpt>
      <trkpt lat="44.44418" lon="1.36028">
        <ele>116</ele>
        <time>2019-04-14T12:00:02Z</time>
      </trkpt>
      <trkpt lat="44.44414" lon="1.36028">
        <ele>116</ele>
        <time>2019-04-14T12:00:03Z</time>
      </trkpt>
      <trkpt lat="44.4441" lon="1.36028">
        <ele>116</ele>
        <time>2019-04-14T12:00:04Z</time>
      </trkpt>
      <trkpt lat="44.44407" lon="1.36027">
        <ele>116</ele>
        <time>2019-04-14T12:00:05Z</time>
      </trkpt>
      <trkpt lat="44.44403" lon="1.36027">
        <ele>116</ele>
        <time>2019-04-14T12:00:06Z</time>
      </trkpt>
      <trkpt lat="44.44399" lon="1.36027">
        <ele>116</ele>
        <time>2019-04-14T12:00:07Z</time>
      </trkpt>
      <trkpt lat="44.44395" lon="1.36027">
        <ele>116</ele>
        <time>2019-04-14T12:00:08Z</time>
      </trkpt>
      <trkpt lat="44.44392" lon="1.36028">
        <ele>117</ele>
        <time>2019-04-14T12:00:09Z</time>
      </trkpt>
      <trkpt lat="44.44388" lon="1.36028">
        <ele>117</ele>
        <time>2019-04-14T12:00:10Z</time>
      </trkpt>
      <trkpt lat="44.44384" lon="1.36028">
        <ele>117</ele>
        <time>2019-04-14T12:00:11Z</time>
      </trkpt>
      <trkpt lat="44.4438" lon="1.36028">
        <ele>117</ele>
        <time>2019-04-14T12:00:12Z</time>
      </trkpt>
      <trkpt lat="44.44377" lon="1.36028">
        <ele>117</ele>
        <time>2019-04-14T12:00:13Z</time>
      </trkpt>
      <trkpt lat="44.44374" lon="1.36028">
        <ele>117</ele>
        <time>2019-04-14T12:00:14Z</time>
      </trkpt>
      <trkpt lat="44.4437" lon="1.36027">
        <ele>117</ele>
        <time>2019-04-14T12:00:15Z</time>
      </trkpt>
      <trkpt lat="44.44367" lon="1.36027">
        <ele>117</ele>
        <time>2019-04-14T12:00:16Z</time>
      </trkpt>
      <trkpt lat="44.44364" lon="1.36027">
        <ele>117</ele>
        <time>2019-04-14T12:00:17Z</time>
      </trkpt>
      <trkpt lat="44.44359" lon="1.36028">
        <ele>117</ele>
        <time>2019-04-14T12:00:18Z</time>
      </trkpt>
      <trkpt lat="44.44356" lon="1.36028">
        <ele>117</ele>
        <time>2019-04-14T12:00:19Z</time>
      </trkpt>
      <trkpt lat="44.44352" lon="1.36028">
        <ele>117</ele>
        <time>2019-04-14T12:00:20Z</time>
      </trkpt>
      <trkpt lat="44.44349" lon="1.36029">
        <ele>117</ele>
        <time>2019-04-14T12:00:21Z</time>
      </trkpt>
      <trkpt lat="44.44345" lon="1.3603">
        <ele>117</ele>
        <time>2019-04-14T12:00:22Z</time>
      </trkpt>
      <trkpt lat="44.44341" lon="1.36031">
        <ele>118</ele>
        <time>2019-04-14T12:00:23Z</time>
      </trkpt>
      <trkpt lat="44.44338" lon="1.36032">
        <ele>118</ele>
        <time>2019-04-14T12:00:24Z</time>
      </trkpt>
      <trkpt lat="44.44335" lon="1.36033">
        <ele>118</ele>
        <time>2019-04-14T12:00:25Z</time>
      </trkpt>
      <trkpt lat="44.44331" lon="1.36034">
        <ele>118</ele>
        <time>2019-04-14T12:00:26Z</time>
      </trkpt>
      <trkpt lat="44.44328" lon="1.36035">
        <ele>118</ele>
        <time>2019-04-14T12:00:27Z</time>
      </trkpt>
      <trkpt lat="44.44325" lon="1.36037">
        <ele>118</ele>
        <time>2019-04-14T12:00:28Z</time>
      </trkpt>
      <trkpt lat="44.44321" lon="1.36039">
        <ele>118</ele>
        <time>2019-04-14T12:00:29Z</time>
      </trkpt>
      <trkpt lat="44.44317" lon="1.3604">
        <ele>118</ele>
        <time>2019-04-14T12:00:30Z</time>
      </trkpt>
      <trkpt lat="44.44313" lon="1.36042">
        <ele>118</ele>
        <time>2019-04-14T12:00:31Z</time>
      </trkpt>
      <trkpt lat="44.4431" lon="1.36044">
        <ele>118</ele>
        <time>2019-04-14T12:00:32Z</time>
      </trkpt>
      <trkpt lat="44.44307" lon="1.36046">
        <ele>119</ele>
        <time>2019-04-14T12:00:33Z</time>
      </trkpt>
      <trkpt lat="44.44304" lon="1.36048">
        <ele>119</ele>
        <time>2019-04-14T12:00:34Z</time>
      </trkpt>
      <trkpt lat="44.443" lon="1.3605">
        <ele>119</ele>
        <time>2019-04-14T12:00:35Z</time>
      </trkpt>
      <trkpt lat="44.44297" lon="1.36052">
        <ele>119</ele>
        <time>2019-04-14T12:00:36Z</time>
      </trkpt>
      <trkpt lat="44.44294" lon="1.36054">
        <ele>119</ele>
        <time>2019-04-14T12:00:37Z</time>
      </trkpt>
      <trkpt lat="44.44291" lon="1.36056">
        <ele>119</ele>
        <time>2019-04-14T12:00:38Z</time>
      </trkpt>
      <trkpt lat="44.44288" lon="1.36058">
        <ele>119</ele>
        <time>2019-04-14T12:00:39Z</time>
      </trkpt>
      <trkpt lat="44.44285" lon="1.3606">
        <ele>119</ele>
        <time>2019-04-14T12:00:40Z</time>
      </trkpt>
      <trkpt lat="44.44282" lon="1.36062">
        <ele>119</ele>
        <time>2019-04-14T12:00:41Z</time>
      </trkpt>
      <trkpt lat="44.44279" lon="1.36064">
        <ele>119</ele>
        <time>2019-04-14T12:00:42Z</time>
      </trkpt>
      <trkpt lat="44.44276" lon="1.36067">
        <ele>119</ele>
        <time>2019-04-14T12:00:43Z</time>
      </trkpt>
      <trkpt lat="44.44273" lon="1.36068">
        <ele>120</ele>
        <time>2019-04-14T12:00:44Z</time>
      </trkpt>
      <trkpt lat="44.4427" lon="1.3607">
        <ele>120</ele>
        <time>2019-04-14T12:00:45Z</time>
      </trkpt>
      <trkpt lat="44.44266" lon="1.36071">
        <ele>120</ele>
        <time>2019-04-14T12:00:46Z</time>
      </trkpt>
      <trkpt lat="44.44263" lon="1.36073">
        <ele>120</ele>
        <time>2019-04-14T12:00:47Z</time>
      </trkpt>
      <trkpt lat="44.4426" lon="1.36076">
        <ele>120</ele>
        <time>2019-04-14T12:00:48Z</time>
      </trkpt>
      <trkpt lat="44.44257" lon="1.36078">
        <ele>120</ele>
        <time>2019-04-14T12:00:49Z</time>
      </trkpt>
      <trkpt lat="44.44254" lon="1.3608">
        <ele>120</ele>
        <time>2019-04-14T12:00:50Z</time>
      </trkpt>
      <trkpt lat="44.44251" lon="1.36082">
        <ele>120</ele>
        <time>2019-04-14T12:00:51Z</time>
      </trkpt>
      <trkpt lat="44.44248" lon="1.36084">
        <ele>120</ele>
        <time>2019-04-14T12:00:52Z</time>
      </trkpt>
      <trkpt lat="44.44244" lon="1.36086">
        <ele>120</ele>
        <time>2019-04-14T12:00:53Z</time>
      </trkpt>
      <trkpt lat="44.44241" lon="1.36088">
        <ele>121</ele>
        <time>2019-04-14T12:00:54Z</time>
      </trkpt>
      <trkpt lat="44.44238" lon="1.3609">
        <ele>121</ele>
        <time>2019-04-14T12:00:55Z</time>
      </trkpt>
      <trkpt lat="44.44235" lon="1.36093">
        <ele>121</ele>
        <time>2019-04-14T12:00:56Z</time>
      </trkpt>
      <trkpt lat="44.44232" lon="1.36095">
        <ele>121</ele>
        <time>2019-04-14T12:00:57Z</time>
      </trkpt>
      <trkpt lat="44.44229" lon="1.36097">
        <ele>121</ele>
        <time>2019-04-14T12:00:58Z</time>
      </trkpt>
      <trkpt lat="44.44226" lon="1.36099">
        <ele>121</ele>
        <time>2019-04-14T12:00:59Z</time>
      </trkpt>
      <trkpt lat="44.44223" lon="1.36102">
        <ele>121</ele>
        <time>2019-04-14T12:01:00Z</time>
      </trkpt>
      <trkpt lat="44.4422" lon="1.36104">
        <ele>121</ele>
        <time>2019-04-14T12:01:01Z</time>
      </trkpt>
      <trkpt lat="44.44217" lon="1.36105">
        <ele>121</ele>
        <time>2019-04-14T12:01:02Z</time>
      </trkpt>
      <trkpt lat="44.44214" lon="1.36107">
        <ele>121</ele>
        <time>2019-04-14T12:01:03Z</time>
      </trkpt>
      <trkpt lat="44.44211" lon="1.36109">
        <ele>121</ele>
        <time>2019-04-14T12:01:04Z</time>
      </trkpt>
      <trkpt lat="44.44207" lon="1.36111">
        <ele>121</ele>
        <time>2019-04-14T12:01:05Z</time>
      </trkpt>
      <trkpt lat="44.44204" lon="1.36113">
        <ele>121</ele>
        <time>2019-04-14T12:01:06Z</time>
      </trkpt>
      <trkpt lat="44.44201" lon="1.36115">
        <ele>121</ele>
        <time>2019-04-14T12:01:07Z</time>
      </trkpt>
      <trkpt lat="44.44198" lon="1.36118">
        <ele>121</ele>
        <time>2019-04-14T12:01:08Z</time>
      </trkpt>
      <trkpt lat="44.44196" lon="1.3612">
        <ele>121</ele>
        <time>2019-04-14T12:01:09Z</time>
      </trkpt>
      <trkpt lat="44.44193" lon="1.36123">
        <ele>121</ele>
        <time>2019-04-14T12:01:10Z</time>
      </trkpt>
      <trkpt lat="44.44189" lon="1.36126">
        <ele>121</ele>
        <time>2019-04-14T12:01:11Z</time>
      </trkpt>
      <trkpt lat="44.44186" lon="1.36129">
        <ele>121</ele>
        <time>2019-04-14T12:01:12Z</time>
      </trkpt>
      <trkpt lat="44.44183" lon="1.36131">
        <ele>121</ele>
        <time>2019-04-14T12:01:13Z</time>
      </trkpt>
      <trkpt lat="44.4418" lon="1.36133">
        <ele>121</ele>
        <time>2019-04-14T12:01:14Z</time>
      </trkpt>
      <trkpt lat="44.44176" lon="1.36135">
        <ele>121</ele>
        <time>2019-04-14T12:01:15Z</time>
      </trkpt>
      <trkpt lat="44.44173" lon="1.36137">
        <ele>121</ele>
        <time>2019-04-14T12:01:16Z</time>
      </trkpt>
      <trkpt lat="44.4417" lon="1.36138">
        <ele>121</ele>
        <time>2019-04-14T12:01:17Z</time>
      </trkpt>
      <trkpt lat="44.44166" lon="1.3614">
        <ele>121</ele>
        <time>2019-04-14T12:01:18Z</time>
      </trkpt>
      <trkpt lat="44.44162" lon="1.36142">
        <ele>122</ele>
        <time>2019-04-14T12:01:19Z</time>
      </trkpt>
      <trkpt lat="44.44158" lon="1.36145">
        <ele>122</ele>
        <time>2019-04-14T12:01:20Z</time>
      </trkpt>
      <trkpt lat="44.44155" lon="1.36147">
        <ele>122</ele>
        <time>2019-04-14T12:01:21Z</time>
      </trkpt>
      <trkpt lat="44.44152" lon="1.36149">
        <ele>122</ele>
        <time>2019-04-14T12:01:22Z</time>
      </trkpt>
      <trkpt lat="44.44148" lon="1.36151">
        <ele>122</ele>
        <time>2019-04-14T12:01:23Z</time>
      </trkpt>
      <trkpt lat="44.44145" lon="1.36153">
        <ele>122</ele>
        <time>2019-04-14T12:01:24Z</time>
      </trkpt>
      <trkpt lat="44.44142" lon="1.36156">
        <ele>122</ele>
        <time>2019-04-14T12:01:25Z</time>
      </trkpt>
      <trkpt lat="44.44139" lon="1.36159">
        <ele>122</ele>
        <time>2019-04-14T12:01:26Z</time>
      </trkpt>
      <trkpt lat="44.44135" lon="1.36161">
        <ele>122</ele>
        <time>2019-04-14T12:01:27Z</time>
      </trkpt>
      <trkpt lat="44.44132" lon="1.36164">
        <ele>122</ele>
        <time>2019-04-14T12:01:28Z</time>
      </trkpt>
      <trkpt lat="44.4413" lon="1.36167">
        <ele>122</ele>
        <time>2019-04-14T12:01:29Z</time>
      </trkpt>
      <trkpt lat="44.44127" lon="1.36169">
        <ele>123</ele>
        <time>2019-04-14T12:01:30Z</time>
      </trkpt>
      <trkpt lat="44.44124" lon="1.36172">
        <ele>123</ele>
        <time>2019-04-14T12:01:31Z</time>
      </trkpt>
      <trkpt lat="44.44121" lon="1.36174">
        <ele>123</ele>
        <time>2019-04-14T12:01:32Z</time>
      </trkpt>
      <trkpt lat="44.44118" lon="1.36175">
        <ele>123</ele>
        <time>2019-04-14T12:01:33Z</time>
      </trkpt>
      <trkpt lat="44.44116" lon="1.36174">
        <ele>123</ele>
        <time>2019-04-14T12:01:34Z</time>
      </trkpt>
      <trkpt lat="44.44114" lon="1.36172">
        <ele>123</ele>
        <time>2019-04-14T12:01:35Z</time>
      </trkpt>
      <trkpt lat="44.44113" lon="1.3617">
        <ele>123</ele>
        <time>2019-04-14T12:01:36Z</time>
      </trkpt>
      <trkpt lat="44.44113" lon="1.36167">
        <ele>123</ele>
        <time>2019-04-14T12:01:37Z</time>
      </trkpt>
      <trkpt lat="44.44115" lon="1.36163">
        <ele>122</ele>
        <time>2019-04-14T12:01:38Z</time>
      </trkpt>
      <trkpt lat="44.44115" lon="1.36158">
        <ele>122</ele>
        <time>2019-04-14T12:01:39Z</time>
      </trkpt>
      <trkpt lat="44.44117" lon="1.36153">
        <ele>122</ele>
        <time>2019-04-14T12:01:40Z</time>
      </trkpt>
      <trkpt lat="44.44119" lon="1.36147">
        <ele>122</ele>
        <time>2019-04-14T12:01:41Z</time>
      </trkpt>
      <trkpt lat="44.4412" lon="1.36142">
        <ele>121</ele>
        <time>2019-04-14T12:01:42Z</time>
      </trkpt>
      <trkpt lat="44.44121" lon="1.36136">
        <ele>121</ele>
        <time>2019-04-14T12:01:43Z</time>
      </trkpt>
      <trkpt lat="44.44122" lon="1.36131">
        <ele>121</ele>
        <time>2019-04-14T12:01:44Z</time>
      </trkpt>
      <trkpt lat="44.44123" lon="1.36126">
        <ele>121</ele>
        <time>2019-04-14T12:01:45Z</time>
      </trkpt>
      <trkpt lat="44.44125" lon="1.36121">
        <ele>121</ele>
        <time>2019-04-14T12:01:46Z</time>
      </trkpt>
      <trkpt lat="44.44125" lon="1.36116">
        <ele>121</ele>
        <time>2019-04-14T12:01:47Z</time>
      </trkpt>
      <trkpt lat="44.44126" lon="1.3611">
        <ele>121</ele>
        <time>2019-04-14T12:01:48Z</time>
      </trkpt>
      <trkpt lat="44.44128" lon="1.36104">
        <ele>121</ele>
        <time>2019-04-14T12:01:49Z</time>
      </trkpt>
      <trkpt lat="44.44129" lon="1.361">
        <ele>121</ele>
        <time>2019-04-14T12:01:50Z</time>
      </trkpt>
      <trkpt lat="44.44129" lon="1.36095">
        <ele>121</ele>
        <time>2019-04-14T12:01:51Z</time>
      </trkpt>
      <trkpt lat="44.44128" lon="1.3609">
        <ele>121</ele>
        <time>2019-04-14T12:01:52Z</time>
      </trkpt>
      <trkpt lat="44.44126" lon="1.36088">
        <ele>121</ele>
        <time>2019-04-14T12:01:53Z</time>
      </trkpt>
      <trkpt lat="44.44124" lon="1.36087">
        <ele>122</ele>
        <time>2019-04-14T12:01:54Z</time>
      </trkpt>
      <trkpt lat="44.44121" lon="1.36088">
        <ele>122</ele>
        <time>2019-04-14T12:01:55Z</time>
      </trkpt>
      <trkpt lat="44.44119" lon="1.36088">
        <ele>122</ele>
        <time>2019-04-14T12:01:56Z</time>
      </trkpt>
      <trkpt lat="44.44116" lon="1.36089">
        <ele>123</ele>
        <time>2019-04-14T12:01:57Z</time>
      </trkpt>
      <trkpt lat="44.44115" lon="1.3609">
        <ele>123</ele>
        <time>2019-04-14T12:01:58Z</time>
      </trkpt>
      <trkpt lat="44.44112" lon="1.36091">
        <ele>123</ele>
        <time>2019-04-14T12:01:59Z</time>
      </trkpt>
      <trkpt lat="44.4411" lon="1.36091">
        <ele>123</ele>
        <time>2019-04-14T12:02:00Z</time>
      </trkpt>
      <trkpt lat="44.44107" lon="1.36093">
        <ele>123</ele>
        <time>2019-04-14T12:02:01Z</time>
      </trkpt>
      <trkpt lat="44.44105" lon="1.36093">
        <ele>124</ele>
        <time>2019-04-14T12:02:02Z</time>
      </trkpt>
      <trkpt lat="44.44103" lon="1.36094">
        <ele>124</ele>
        <time>2019-04-14T12:02:03Z</time>
      </trkpt>
      <trkpt lat="44.44101" lon="1.36094">
        <ele>124</ele>
        <time>2019-04-14T12:02:04Z</time>
      </trkpt>
      <trkpt lat="44.44098" lon="1.36095">
        <ele>124</ele>
        <time>2019-04-14T12:02:05Z</time>
      </trkpt>
      <trkpt lat="44.44095" lon="1.36096">
        <ele>124</ele>
        <time>2019-04-14T12:02:06Z</time>
      </trkpt>
      <trkpt lat="44.44092" lon="1.36096">
        <ele>124</ele>
        <time>2019-04-14T12:02:07Z</time>
      </trkpt>
      <trkpt lat="44.44089" lon="1.36097">
        <ele>124</ele>
        <time>2019-04-14T12:02:08Z</time>
      </trkpt>
      <trkpt lat="44.44087" lon="1.36099">
        <ele>125</ele>
        <time>2019-04-14T12:02:09Z</time>
      </trkpt>
      <trkpt lat="44.44085" lon="1.361">
        <ele>125</ele>
        <time>2019-04-14T12:02:10Z</time>
      </trkpt>
      <trkpt lat="44.44083" lon="1.361">
        <ele>125</ele>
        <time>2019-04-14T12:02:11Z</time>
      </trkpt>
      <trkpt lat="44.4408" lon="1.36102">
        <ele>125</ele>
        <time>2019-04-14T12:02:12Z</time>
      </trkpt>
      <trkpt lat="44.44077" lon="1.36104">
        <ele>125</ele>
        <time>2019-04-14T12:02:13Z</time>
      </trkpt>
      <trkpt lat="44.44074" lon="1.36103">
        <ele>125</ele>
        <time>2019-04-14T12:02:14Z</time>
      </trkpt>
      <trkpt lat="44.44072" lon="1.36103">
        <ele>126</ele>
        <time>2019-04-14T12:02:15Z</time>
      </trkpt>
      <trkpt lat="44.4407" lon="1.36105">
        <ele>126</ele>
        <time>2019-04-14T12:02:16Z</time>
      </trkpt>
      <trkpt lat="44.44067" lon="1.36106">
        <ele>126</ele>
        <time>2019-04-14T12:02:17Z</time>
      </trkpt>
      <trkpt lat="44.44064" lon="1.36108">
        <ele>126</ele>
        <time>2019-04-14T12:02:18Z</time>
      </trkpt>
      <trkpt lat="44.44061" lon="1.36109">
        <ele>126</ele>
        <time>2019-04-14T12:02:19Z</time>
      </trkpt>
      <trkpt lat="44.44059" lon="1.3611">
        <ele>126</ele>
        <time>2019-04-14T12:02:20Z</time>
      </trkpt>
      <trkpt lat="44.44055" lon="1.36112">
        <ele>126</ele>
        <time>2019-04-14T12:02:21Z</time>
      </trkpt>
      <trkpt lat="44.44052" lon="1.36114">
        <ele>126</ele>
        <time>2019-04-14T12:02:22Z</time>
      </trkpt>
      <trkpt lat="44.44049" lon="1.36115">
        <ele>126</ele>
        <time>2019-04-14T12:02:23Z</time>
      </trkpt>
      <trkpt lat="44.44045" lon="1.36116">
        <ele>126</ele>
        <time>2019-04-14T12:02:24Z</time>
      </trkpt>
      <trkpt lat="44.44043" lon="1.36117">
        <ele>126</ele>
        <time>2019-04-14T12:02:25Z</time>
      </trkpt>
      <trkpt lat="44.44039" lon="1.36117">
        <ele>126</ele>
        <time>2019-04-14T12:02:26Z</time>
      </trkpt>
      <trkpt lat="44.44035" lon="1.36119">
        <ele>127</ele>
        <time>2019-04-14T12:02:27Z</time>
      </trkpt>
      <trkpt lat="44.44033" lon="1.36121">
        <ele>127</ele>
        <time>2019-04-14T12:02:28Z</time>
      </trkpt>
      <trkpt lat="44.4403" lon="1.36122">
        <ele>127</ele>
        <time>2019-04-14T12:02:29Z</time>
      </trkpt>
      <trkpt lat="44.44027" lon="1.36124">
        <ele>127</ele>
        <time>2019-04-14T12:02:30Z</time>
      </trkpt>
      <trkpt lat="44.44024" lon="1.36125">
        <ele>127</ele>
        <time>2019-04-14T12:02:31Z</time>
      </trkpt>
      <trkpt lat="44.44021" lon="1.36127">
        <ele>127</ele>
        <time>2019-04-14T12:02:32Z</time>
      </trkpt>
      <trkpt lat="44.44018" lon="1.36127">
        <ele>127</ele>
        <time>2019-04-14T12:02:33Z</time>
      </trkpt>
      <trkpt lat="44.44015" lon="1.36129">
        <ele>127</ele>
        <time>2019-04-14T12:02:34Z</time>
      </trkpt>
      <trkpt lat="44.44013" lon="1.36131">
        <ele>127</ele>
        <time>2019-04-14T12:02:35Z</time>
      </trkpt>
      <trkpt lat="44.4401" lon="1.36132">
        <ele>127</ele>
        <time>2019-04-14T12:02:36Z</time>
      </trkpt>
      <trkpt lat="44.44006" lon="1.36135">
        <ele>127</ele>
        <time>2019-04-14T12:02:37Z</time>
      </trkpt>
      <trkpt lat="44.44003" lon="1.36136">
        <ele>127</ele>
        <time>2019-04-14T12:02:38Z</time>
      </trkpt>
      <trkpt lat="44.44001" lon="1.36138">
        <ele>127</ele>
        <time>2019-04-14T12:02:39Z</time>
      </trkpt>
      <trkpt lat="44.43998" lon="1.3614">
        <ele>128</ele>
        <time>2019-04-14T12:02:40Z</time>
      </trkpt>
      <trkpt lat="44.43995" lon="1.36142">
        <ele>127</ele>
        <time>2019-04-14T12:02:41Z</time>
      </trkpt>
      <trkpt lat="44.43992" lon="1.36144">
        <ele>127</ele>
        <time>2019-04-14T12:02:42Z</time>
      </trkpt>
      <trkpt lat="44.43989" lon="1.36146">
        <ele>127</ele>
        <time>2019-04-14T12:02:43Z</time>
      </trkpt>
      <trkpt lat="44.43986" lon="1.36148">
        <ele>128</ele>
        <time>2019-04-14T12:02:44Z</time>
      </trkpt>
      <trkpt lat="44.43983" lon="1.3615">
        <ele>128</ele>
        <time>2019-04-14T12:02:45Z</time>
      </trkpt>
      <trkpt lat="44.4398" lon="1.36152">
        <ele>128</ele>
        <time>2019-04-14T12:02:46Z</time>
      </trkpt>
      <trkpt lat="44.43977" lon="1.36153">
        <ele>127</ele>
        <time>2019-04-14T12:02:47Z</time>
      </trkpt>
      <trkpt lat="44.43974" lon="1.36155">
        <ele>128</ele>
        <time>2019-04-14T12:02:48Z</time>
      </trkpt>
      <trkpt lat="44.43971" lon="1.36156">
        <ele>128</ele>
        <time>2019-04-14T12:02:49Z</time>
      </trkpt>
      <trkpt lat="44.43968" lon="1.36158">
        <ele>128</ele>
        <time>2019-04-14T12:02:50Z</time>
      </trkpt>
      <trkpt lat="44.43965" lon="1.3616">
        <ele>128</ele>
        <time>2019-04-14T12:02:51Z</time>
      </trkpt>
      <trkpt lat="44.43962" lon="1.36161">
        <ele>128</ele>
        <time>2019-04-14T12:02:52Z</time>
      </trkpt>
      <trkpt lat="44.43959" lon="1.36162">
        <ele>128</ele>
        <time>2019-04-14T12:02:53Z</time>
      </trkpt>
      <trkpt lat="44.43955" lon="1.36163">
        <ele>128</ele>
        <time>2019-04-14T12:02:54Z</time>
      </trkpt>
      <trkpt lat="44.43953" lon="1.36165">
        <ele>128</ele>
        <time>2019-04-14T12:02:55Z</time>
      </trkpt>
      <trkpt lat="44.43949" lon="1.36166">
        <ele>128</ele>
        <time>2019-04-14T12:02:56Z</time>
      </trkpt>
      <trkpt lat="44.43946" lon="1.36167">
        <ele>128</ele>
        <time>2019-04-14T12:02:57Z</time>
      </trkpt>
      <trkpt lat="44.43943" lon="1.36167">
        <ele>128</ele>
        <time>2019-04-14T12:02:58Z</time>
      </trkpt>
      <trkpt lat="44.43941" lon="1.36168">
        <ele>128</ele>
        <time>2019-04-14T12:02:59Z</time>
      </trkpt>
      <trkpt lat="44.43938" lon="1.36169">
        <ele>128</ele>
        <time>2019-04-14T12:03:00Z</time>
      </trkpt>
      <trkpt lat="44.43935" lon="1.36169">
        <ele>128</ele>
        <time>2019-04-14T12:03:01Z</time>
      </trkpt>
      <trkpt lat="44.43932" lon="1.36169">
        <ele>128</ele>
        <time>2019-04-14T12:03:02Z</time>
      </trkpt>
      <trkpt lat="44.4393" lon="1.36168">
        <ele>128</ele>
        <time>2019-04-14T12:03:03Z</time>
      </trkpt>
      <trkpt lat="44.43926" lon="1.36167">
        <ele>129</ele>
        <time>2019-04-14T12:03:04Z</time>
      </trkpt>
      <trkpt lat="44.43923" lon="1.36167">
        <ele>129</ele>
        <time>2019-04-14T12:03:05Z</time>
      </trkpt>
      <trkpt lat="44.43921" lon="1.36166">
        <ele>129</ele>
        <time>2019-04-14T12:03:06Z</time>
      </trkpt>
      <trkpt lat="44.43918" lon="1.36165">
        <ele>129</ele>
        <time>2019-04-14T12:03:07Z</time>
      </trkpt>
      <trkpt lat="44.43915" lon="1.36165">
        <ele>130</ele>
        <time>2019-04-14T12:03:08Z</time>
      </trkpt>
      <trkpt lat="44.43912" lon="1.36165">
        <ele>130</ele>
        <time>2019-04-14T12:03:09Z</time>
      </trkpt>
      <trkpt lat="44.4391" lon="1.36164">
        <ele>130</ele>
        <time>2019-04-14T12:03:10Z</time>
      </trkpt>
      <trkpt lat="44.43907" lon="1.36162">
        <ele>130</ele>
        <time>2019-04-14T12:03:11Z</time>
      </trkpt>
      <trkpt lat="44.43906" lon="1.3616">
        <ele>130</ele>
        <time>2019-04-14T12:03:12Z</time>
      </trkpt>
      <trkpt lat="44.43904" lon="1.36159">
        <ele>131</ele>
        <time>2019-04-14T12:03:13Z</time>
      </trkpt>
      <trkpt lat="44.43902" lon="1.36158">
        <ele>131</ele>
        <time>2019-04-14T12:03:14Z</time>
      </trkpt>
      <trkpt lat="44.43899" lon="1.36156">
        <ele>131</ele>
        <time>2019-04-14T12:03:15Z</time>
      </trkpt>
      <trkpt lat="44.43897" lon="1.36155">
        <ele>131</ele>
        <time>2019-04-14T12:03:16Z</time>
      </trkpt>
      <trkpt lat="44.43895" lon="1.36153">
        <ele>131</ele>
        <time>2019-04-14T12:03:17Z</time>
      </trkpt>
      <trkpt lat="44.43894" lon="1.36151">
        <ele>132</ele>
        <time>2019-04-14T12:03:18Z</time>
      </trkpt>
      <trkpt lat="44.43891" lon="1.36149">
        <ele>132</ele>
        <time>2019-04-14T12:03:19Z</time>
      </trkpt>
      <trkpt lat="44.43889" lon="1.36147">
        <ele>132</ele>
        <time>2019-04-14T12:03:20Z</time>
      </trkpt>
      <trkpt lat="44.43887" lon="1.36146">
        <ele>132</ele>
        <time>2019-04-14T12:03:21Z</time>
      </trkpt>
      <trkpt lat="44.43884" lon="1.36145">
        <ele>132</ele>
        <time>2019-04-14T12:03:22Z</time>
      </trkpt>
      <trkpt lat="44.43882" lon="1.36142">
        <ele>133</ele>
        <time>2019-04-14T12:03:23Z</time>
      </trkpt>
      <trkpt lat="44.43879" lon="1.36141">
        <ele>133</ele>
        <time>2019-04-14T12:03:24Z</time>
      </trkpt>
      <trkpt lat="44.43877" lon="1.36139">
        <ele>133</ele>
        <time>2019-04-14T12:03:25Z</time>
      </trkpt>
      <trkpt lat="44.43876" lon="1.36137">
        <ele>133</ele>
        <time>2019-04-14T12:03:26Z</time>
      </trkpt>
      <trkpt lat="44.43874" lon="1.36136">
        <ele>133</ele>
        <time>2019-04-14T12:03:27Z</time>
      </trkpt>
      <trkpt lat="44.43871" lon="1.36134">
        <ele>133</ele>
        <time>2019-04-14T12:03:28Z</time>
      </trkpt>
      <trkpt lat="44.43869" lon="1.36132">
        <ele>134</ele>
        <time>2019-04-14T12:03:29Z</time>
      </trkpt>
      <trkpt lat="44.43867" lon="1.3613">
        <ele>134</ele>
        <time>2019-04-14T12:03:30Z</time>
      </trkpt>
      <trkpt lat="44.43864" lon="1.36129">
        <ele>134</ele>
        <time>2019-04-14T12:03:31Z</time>
      </trkpt>
      <trkpt lat="44.43862" lon="1.36127">
        <ele>134</ele>
        <time>2019-04-14T12:03:32Z</time>
      </trkpt>
      <trkpt lat="44.4386" lon="1.36125">
        <ele>134</ele>
        <time>2019-04-14T12:03:33Z</time>
      </trkpt>
      <trkpt lat="44.43858" lon="1.36123">
        <ele>135</ele>
        <time>2019-04-14T12:03:34Z</time>
      </trkpt>
      <trkpt lat="44.43857" lon="1.36123">
        <ele>135</ele>
        <time>2019-04-14T12:03:35Z</time>
      </trkpt>
      <trkpt lat="44.43855" lon="1.36121">
        <ele>135</ele>
        <time>2019-04-14T12:03:36Z</time>
      </trkpt>
      <trkpt lat="44.43853" lon="1.3612">
        <ele>135</ele>
        <time>2019-04-14T12:03:37Z</time>
      </trkpt>
      <trkpt lat="44.43851" lon="1.36118">
        <ele>135</ele>
        <time>2019-04-14T12:03:38Z</time>
      </trkpt>
      <trkpt lat="44.43849" lon="1.36117">
        <ele>135</ele>
        <time>2019-04-14T12:03:39Z</time>
      </trkpt>
      <trkpt lat="44.43847" lon="1.36116">
        <ele>135</ele>
        <time>2019-04-14T12:03:40Z</time>
      </trkpt>
      <trkpt lat="44.43846" lon="1.36114">
        <ele>136</ele>
        <time>2019-04-14T12:03:41Z</time>
      </trkpt>
      <trkpt lat="44.43844" lon="1.36113">
        <ele>136</ele>
        <time>2019-04-14T12:03:42Z</time>
      </trkpt>
      <trkpt lat="44.43842" lon="1.36112">
        <ele>136</ele>
        <time>2019-04-14T12:03:43Z</time>
      </trkpt>
      <trkpt lat="44.43841" lon="1.36112">
        <ele>136</ele>
        <time>2019-04-14T12:03:44Z</time>
      </trkpt>
      <trkpt lat="44.43839" lon="1.36112">
        <ele>136</ele>
        <time>2019-04-14T12:03:45Z</time>
      </trkpt>
      <trkpt lat="44.43838" lon="1.36113">
        <ele>136</ele>
        <time>2019-04-14T12:03:46Z</time>
      </trkpt>
      <trkpt lat="44.43837" lon="1.36115">
        <ele>136</ele>
        <time>2019-04-14T12:03:47Z</time>
      </trkpt>
      <trkpt lat="44.43837" lon="1.36118">
        <ele>136</ele>
        <time>2019-04-14T12:03:48Z</time>
      </trkpt>
      <trkpt lat="44.4384" lon="1.36117">
        <ele>135</ele>
        <time>2019-04-14T12:03:49Z</time>
      </trkpt>
      <trkpt lat="44.43841" lon="1.36122">
        <ele>135</ele>
        <time>2019-04-14T12:03:50Z</time>
      </trkpt>
      <trkpt lat="44.43843" lon="1.36126">
        <ele>134</ele>
        <time>2019-04-14T12:03:51Z</time>
      </trkpt>
      <trkpt lat="44.43845" lon="1.36131">
        <ele>134</ele>
        <time>2019-04-14T12:03:52Z</time>
      </trkpt>
      <trkpt lat="44.43848" lon="1.36135">
        <ele>133</ele>
        <time>2019-04-14T12:03:53Z</time>
      </trkpt>
      <trkpt lat="44.43851" lon="1.36139">
        <ele>133</ele>
        <time>2019-04-14T12:03:54Z</time>
      </trkpt>
      <trkpt lat="44.43854" lon="1.36144">
        <ele>133</ele>
        <time>2019-04-14T12:03:55Z</time>
      </trkpt>
      <trkpt lat="44.43857" lon="1.36152">
        <ele>132</ele>
        <time>2019-04-14T12:03:56Z</time>
      </trkpt>
      <trkpt lat="44.4386" lon="1.36158">
        <ele>132</ele>
        <time>2019-04-14T12:03:57Z</time>
      </trkpt>
      <trkpt lat="44.43864" lon="1.36164">
        <ele>132</ele>
        <time>2019-04-14T12:03:58Z</time>
      </trkpt>
      <trkpt lat="44.43867" lon="1.3617">
        <ele>131</ele>
        <time>2019-04-14T12:03:59Z</time>
      </trkpt>
      <trkpt lat="44.43869" lon="1.36179">
        <ele>131</ele>
        <time>2019-04-14T12:04:00Z</time>
      </trkpt>
      <trkpt lat="44.43869" lon="1.36189">
        <ele>130</ele>
        <time>2019-04-14T12:04:01Z</time>
      </trkpt>
      <trkpt lat="44.43869" lon="1.36197">
        <ele>130</ele>
        <time>2019-04-14T12:04:02Z</time>
      </trkpt>
      <trkpt lat="44.43867" lon="1.36203">
        <ele>130</ele>
        <time>2019-04-14T12:04:03Z</time>
      </trkpt>
      <trkpt lat="44.43864" lon="1.36209">
        <ele>129</ele>
        <time>2019-04-14T12:04:04Z</time>
      </trkpt>
      <trkpt lat="44.43862" lon="1.36214">
        <ele>129</ele>
        <time>2019-04-14T12:04:05Z</time>
      </trkpt>
      <trkpt lat="44.43859" lon="1.36219">
        <ele>129</ele>
        <time>2019-04-14T12:04:06Z</time>
      </trkpt>
      <trkpt lat="44.43857" lon="1.36224">
        <ele>129</ele>
        <time>2019-04-14T12:04:07Z</time>
      </trkpt>
      <trkpt lat="44.43854" lon="1.36229">
        <ele>129</ele>
        <time>2019-04-14T12:04:08Z</time>
      </trkpt>
      <trkpt lat="44.43852" lon="1.36234">
        <ele>129</ele>
        <time>2019-04-14T12:04:09Z</time>
      </trkpt>
      <trkpt lat="44.43849" lon="1.3624">
        <ele>129</ele>
        <time>2019-04-14T12:04:10Z</time>
      </trkpt>
      <trkpt lat="44.43847" lon="1.36245">
        <ele>129</ele>
        <time>2019-04-14T12:04:11Z</time>
      </trkpt>
      <trkpt lat="44.43845" lon="1.36251">
        <ele>130</ele>
        <time>2019-04-14T12:04:12Z</time>
      </trkpt>
      <trkpt lat="44.43843" lon="1.36257">
        <ele>129</ele>
        <time>2019-04-14T12:04:13Z</time>
      </trkpt>
      <trkpt lat="44.43841" lon="1.36263">
        <ele>130</ele>
        <time>2019-04-14T12:04:14Z</time>
      </trkpt>
      <trkpt lat="44.43839" lon="1.36269">
        <ele>130</ele>
        <time>2019-04-14T12:04:15Z</time>
      </trkpt>
      <trkpt lat="44.43838" lon="1.36276">
        <ele>130</ele>
        <time>2019-04-14T12:04:16Z</time>
      </trkpt>
      <trkpt lat="44.43835" lon="1.36282">
        <ele>130</ele>
        <time>2019-04-14T12:04:17Z</time>
      </trkpt>
      <trkpt lat="44.43834" lon="1.3629">
        <ele>130</ele>
        <time>2019-04-14T12:04:18Z</time>
      </trkpt>
      <trkpt lat="44.43833" lon="1.36297">
        <ele>130</ele>
        <time>2019-04-14T12:04:19Z</time>
      </trkpt>
      <trkpt lat="44.43831" lon="1.36303">
        <ele>130</ele>
        <time>2019-04-14T12:04:20Z</time>
      </trkpt>
      <trkpt lat="44.43829" lon="1.3631">
        <ele>130</ele>
        <time>2019-04-14T12:04:21Z</time>
      </trkpt>
      <trkpt lat="44.43828" lon="1.36317">
        <ele>130</ele>
        <time>2019-04-14T12:04:22Z</time>
      </trkpt>
      <trkpt lat="44.43827" lon="1.36323">
        <ele>130</ele>
        <time>2019-04-14T12:04:23Z</time>
      </trkpt>
      <trkpt lat="44.43826" lon="1.3633">
        <ele>130</ele>
        <time>2019-04-14T12:04:24Z</time>
      </trkpt>
      <trkpt lat="44.43825" lon="1.36336">
        <ele>130</ele>
        <time>2019-04-14T12:04:25Z</time>
      </trkpt>
      <trkpt lat="44.43823" lon="1.36342">
        <ele>130</ele>
        <time>2019-04-14T12:04:26Z</time>
      </trkpt>
      <trkpt lat="44.43822" lon="1.36349">
        <ele>130</ele>
        <time>2019-04-14T12:04:27Z</time>
      </trkpt>
      <trkpt lat="44.43821" lon="1.36355">
        <ele>130</ele>
        <time>2019-04-14T12:04:28Z</time>
      </trkpt>
      <trkpt lat="44.4382" lon="1.36363">
        <ele>130</ele>
        <time>2019-04-14T12:04:29Z</time>
      </trkpt>
      <trkpt lat="44.4382" lon="1.36368">
        <ele>130</ele>
        <time>2019-04-14T12:04:30Z</time>
      </trkpt>
      <trkpt lat="44.43819" lon="1.36375">
        <ele>131</ele>
        <time>2019-04-14T12:04:31Z</time>
      </trkpt>
      <trkpt lat="44.43818" lon="1.3638">
        <ele>131</ele>
        <time>2019-04-14T12:04:32Z</time>
      </trkpt>
      <trkpt lat="44.43817" lon="1.36386">
        <ele>131</ele>
        <time>2019-04-14T12:04:33Z</time>
      </trkpt>
      <trkpt lat="44.43816" lon="1.36392">
        <ele>131</ele>
        <time>2019-04-14T12:04:34Z</time>
      </trkpt>
      <trkpt lat="44.43816" lon="1.36397">
        <ele>131</ele>
        <time>2019-04-14T12:04:35Z</time>
      </trkpt>
      <trkpt lat="44.43815" lon="1.36401">
        <ele>131</ele>
        <time>2019-04-14T12:04:36Z</time>
      </trkpt>
      <trkpt lat="44.43814" lon="1.36406">
        <ele>132</ele>
        <time>2019-04-14T12:04:37Z</time>
      </trkpt>
      <trkpt lat="44.43812" lon="1.36411">
        <ele>132</ele>
        <time>2019-04-14T12:04:38Z</time>
      </trkpt>
      <trkpt lat="44.43812" lon="1.36415">
        <ele>132</ele>
        <time>2019-04-14T12:04:39Z</time>
      </trkpt>
      <trkpt lat="44.43811" lon="1.3642">
        <ele>132</ele>
        <time>2019-04-14T12:04:40Z</time>
      </trkpt>
      <trkpt lat="44.4381" lon="1.36425">
        <ele>132</ele>
        <time>2019-04-14T12:04:41Z</time>
      </trkpt>
      <trkpt lat="44.43808" lon="1.36432">
        <ele>132</ele>
        <time>2019-04-14T12:04:42Z</time>
      </trkpt>
      <trkpt lat="44.43807" lon="1.36437">
        <ele>132</ele>
        <time>2019-04-14T12:04:43Z</time>
      </trkpt>
      <trkpt lat="44.43806" lon="1.36443">
        <ele>133</ele>
        <time>2019-04-14T12:04:44Z</time>
      </trkpt>
      <trkpt lat="44.43806" lon="1.36448">
        <ele>133</ele>
        <time>2019-04-14T12:04:45Z</time>
      </trkpt>
      <trkpt lat="44.43804" lon="1.36455">
        <ele>133</ele>
        <time>2019-04-14T12:04:46Z</time>
      </trkpt>
      <trkpt lat="44.43803" lon="1.36458">
        <ele>133</ele>
        <time>2019-04-14T12:04:47Z</time>
      </trkpt>
      <trkpt lat="44.43801" lon="1.36464">
        <ele>133</ele>
        <time>2019-04-14T12:04:48Z</time>
      </trkpt>
      <trkpt lat="44.438" lon="1.36471">
        <ele>133</ele>
        <time>2019-04-14T12:04:49Z</time>
      </trkpt>
      <trkpt lat="44.43799" lon="1.36477">
        <ele>133</ele>
        <time>2019-04-14T12:04:50Z</time>
      </trkpt>
      <trkpt lat="44.43799" lon="1.36482">
        <ele>133</ele>
        <time>2019-04-14T12:04:51Z</time>
      </trkpt>
      <trkpt lat="44.43798" lon="1.36486">
        <ele>133</ele>
        <time>2019-04-14T12:04:52Z</time>
      </trkpt>
      <trkpt lat="44.43797" lon="1.36491">
        <ele>133</ele>
        <time>2019-04-14T12:04:53Z</time>
      </trkpt>
      <trkpt lat="44.43795" lon="1.36495">
        <ele>133</ele>
        <time>2019-04-14T12:04:54Z</time>
      </trkpt>
      <trkpt lat="44.43792" lon="1.36498">
        <ele>133</ele>
        <time>2019-04-14T12:04:55Z</time>
      </trkpt>
      <trkpt lat="44.43789" lon="1.36502">
        <ele>133</ele>
        <time>2019-04-14T12:04:56Z</time>
      </trkpt>
      <trkpt lat="44.43787" lon="1.36507">
        <ele>133</ele>
        <time>2019-04-14T12:04:57Z</time>
      </trkpt>
      <trkpt lat="44.43783" lon="1.36511">
        <ele>134</ele>
        <time>2019-04-14T12:04:58Z</time>
      </trkpt>
      <trkpt lat="44.4378" lon="1.36516">
        <ele>134</ele>
        <time>2019-04-14T12:04:59Z</time>
      </trkpt>
      <trkpt lat="44.43775" lon="1.36521">
        <ele>134</ele>
        <time>2019-04-14T12:05:00Z</time>
      </trkpt>
      <trkpt lat="44.43772" lon="1.36526">
        <ele>134</ele>
        <time>2019-04-14T12:05:01Z</time>
      </trkpt>
      <trkpt lat="44.43769" lon="1.36529">
        <ele>134</ele>
        <time>2019-04-14T12:05:02Z</time>
      </trkpt>
      <trkpt lat="44.43766" lon="1.36532">
        <ele>135</ele>
        <time>2019-04-14T12:05:03Z</time>
      </trkpt>
      <trkpt lat="44.43764" lon="1.36533">
        <ele>135</ele>
        <time>2019-04-14T12:05:04Z</time>
      </trkpt>
      <trkpt lat="44.43762" lon="1.36535">
        <ele>135</ele>
        <time>2019-04-14T12:05:05Z</time>
      </trkpt>
      <trkpt lat="44.43758" lon="1.36536">
        <ele>135</ele>
        <time>2019-04-14T12:05:06Z</time>
      </trkpt>
      <trkpt lat="44.43755" lon="1.36536">
        <ele>135</ele>
        <time>2019-04-14T12:05:07Z</time>
      </trkpt>
      <trkpt lat="44.43752" lon="1.36535">
        <ele>135</ele>
        <time>2019-04-14T12:05:08Z</time>
      </trkpt>
      <trkpt lat="44.43749" lon="1.36534">
        <ele>135</ele>
        <time>2019-04-14T12:05:09Z</time>
      </trkpt>
      <trkpt lat="44.43747" lon="1.36534">
        <ele>136</ele>
        <time>2019-04-14T12:05:10Z</time>
      </trkpt>
      <trkpt lat="44.43744" lon="1.36533">
        <ele>136</ele>
        <time>2019-04-14T12:05:11Z</time>
      </trkpt>
      <trkpt lat="44.43742" lon="1.36532">
        <ele>136</ele>
        <time>2019-04-14T12:05:12Z</time>
      </trkpt>
      <trkpt lat="44.4374" lon="1.36531">
        <ele>136</ele>
        <time>2019-04-14T12:05:13Z</time>
      </trkpt>
      <trkpt lat="44.43739" lon="1.3653">
        <ele>137</ele>
        <time>2019-04-14T12:05:14Z</time>
      </trkpt>
      <trkpt lat="44.43737" lon="1.36529">
        <ele>137</ele>
        <time>2019-04-14T12:05:15Z</time>
      </trkpt>
      <trkpt lat="44.43735" lon="1.36528">
        <ele>137</ele>
        <time>2019-04-14T12:05:16Z</time>
      </trkpt>
      <trkpt lat="44.43733" lon="1.36527">
        <ele>137</ele>
        <time>2019-04-14T12:05:17Z</time>
      </trkpt>
      <trkpt lat="44.43731" lon="1.36527">
        <ele>138</ele>
        <time>2019-04-14T12:05:18Z</time>
      </trkpt>
      <trkpt lat="44.43729" lon="1.36526">
        <ele>138</ele>
        <time>2019-04-14T12:05:19Z</time>
      </trkpt>
      <trkpt lat="44.43727" lon="1.36526">
        <ele>138</ele>
        <time>2019-04-14T12:05:20Z</time>
      </trkpt>
      <trkpt lat="44.43725" lon="1.36525">
        <ele>138</ele>
        <time>2019-04-14T12:05:21Z</time>
      </trkpt>
      <trkpt lat="44.43724" lon="1.36524">
        <ele>138</ele>
        <time>2019-04-14T12:05:22Z</time>
      </trkpt>
      <trkpt lat="44.43722" lon="1.36522">
        <ele>139</ele>
        <time>2019-04-14T12:05:23Z</time>
      </trkpt>
      <trkpt lat="44.4372" lon="1.36521">
        <ele>139</ele>
        <time>2019-04-14T12:05:24Z</time>
      </trkpt>
      <trkpt lat="44.43719" lon="1.3652">
        <ele>139</ele>
        <time>2019-04-14T12:05:25Z</time>
      </trkpt>
      <trkpt lat="44.43717" lon="1.36519">
        <ele>139</ele>
        <time>2019-04-14T12:05:26Z</time>
      </trkpt>
      <trkpt lat="44.43715" lon="1.36518">
        <ele>140</ele>
        <time>2019-04-14T12:05:27Z</time>
      </trkpt>
      <trkpt lat="44.43713" lon="1.36516">
        <ele>140</ele>
        <time>2019-04-14T12:05:28Z</time>
      </trkpt>
      <trkpt lat="44.43711" lon="1.36515">
        <ele>140</ele>
        <time>2019-04-14T12:05:29Z</time>
      </trkpt>
      <trkpt lat="44.43709" lon="1.36513">
        <ele>140</ele>
        <time>2019-04-14T12:05:30Z</time>
      </trkpt>
      <trkpt lat="44.43707" lon="1.36512">
        <ele>140</ele>
        <time>2019-04-14T12:05:31Z</time>
      </trkpt>
      <trkpt lat="44.43705" lon="1.36512">
        <ele>140</ele>
        <time>2019-04-14T12:05:32Z</time>
      </trkpt>
      <trkpt lat="44.43703" lon="1.36511">
        <ele>141</ele>
        <time>2019-04-14T12:05:33Z</time>
      </trkpt>
      <trkpt lat="44.43702" lon="1.3651">
        <ele>141</ele>
        <time>2019-04-14T12:05:34Z</time>
      </trkpt>
      <trkpt lat="44.437" lon="1.3651">
        <ele>141</ele>
        <time>2019-04-14T12:05:35Z</time>
      </trkpt>
      <trkpt lat="44.43697" lon="1.3651">
        <ele>141</ele>
        <time>2019-04-14T12:05:36Z</time>
      </trkpt>
      <trkpt lat="44.43695" lon="1.36509">
        <ele>141</ele>
        <time>2019-04-14T12:05:37Z</time>
      </trkpt>
      <trkpt lat="44.43693" lon="1.3651">
        <ele>141</ele>
        <time>2019-04-14T12:05:38Z</time>
      </trkpt>
      <trkpt lat="44.43691" lon="1.3651">
        <ele>140</ele>
        <time>2019-04-14T12:05:39Z</time>
      </trkpt>
      <trkpt lat="44.43688" lon="1.36511">
        <ele>140</ele>
        <time>2019-04-14T12:05:40Z</time>
      </trkpt>
      <trkpt lat="44.43685" lon="1.36512">
        <ele>140</ele>
        <time>2019-04-14T12:05:41Z</time>
      </trkpt>
      <trkpt lat="44.43681" lon="1.36516">
        <ele>139</ele>
        <time>2019-04-14T12:05:42Z</time>
      </trkpt>
      <trkpt lat="44.43678" lon="1.36521">
        <ele>139</ele>
        <time>2019-04-14T12:05:43Z</time>
      </trkpt>
      <trkpt lat="44.43676" lon="1.36526">
        <ele>139</ele>
        <time>2019-04-14T12:05:44Z</time>
      </trkpt>
      <trkpt lat="44.43676" lon="1.36529">
        <ele>139</ele>
        <time>2019-04-14T12:05:45Z</time>
      </trkpt>
      <trkpt lat="44.43675" lon="1.36531">
        <ele>139</ele>
        <time>2019-04-14T12:05:46Z</time>
      </trkpt>
      <trkpt lat="44.43674" lon="1.36534">
        <ele>139</ele>
        <time>2019-04-14T12:05:47Z</time>
      </trkpt>
      <trkpt lat="44.43672" lon="1.36538">
        <ele>139</ele>
        <time>2019-04-14T12:05:48Z</time>
      </trkpt>
      <trkpt lat="44.43672" lon="1.36541">
        <ele>139</ele>
        <time>2019-04-14T12:05:49Z</time>
      </trkpt>
      <trkpt lat="44.43672" lon="1.36544">
        <ele>139</ele>
        <time>2019-04-14T12:05:50Z</time>
      </trkpt>
      <trkpt lat="44.43672" lon="1.36546">
        <ele>139</ele>
        <time>2019-04-14T12:05:51Z</time>
      </trkpt>
      <trkpt lat="44.43673" lon="1.36548">
        <ele>139</ele>
        <time>2019-04-14T12:05:52Z</time>
      </trkpt>
      <trkpt lat="44.43674" lon="1.3655">
        <ele>139</ele>
        <time>2019-04-14T12:05:53Z</time>
      </trkpt>
      <trkpt lat="44.43675" lon="1.36552">
        <ele>139</ele>
        <time>2019-04-14T12:05:54Z</time>
      </trkpt>
      <trkpt lat="44.43675" lon="1.36556">
        <ele>139</ele>
        <time>2019-04-14T12:05:55Z</time>
      </trkpt>
      <trkpt lat="44.43676" lon="1.36559">
        <ele>139</ele>
        <time>2019-04-14T12:05:56Z</time>
      </trkpt>
      <trkpt lat="44.43677" lon="1.36562">
        <ele>139</ele>
        <time>2019-04-14T12:05:57Z</time>
      </trkpt>
      <trkpt lat="44.43678" lon="1.36565">
        <ele>138</ele>
        <time>2019-04-14T12:05:58Z</time>
      </trkpt>
      <trkpt lat="44.43679" lon="1.36567">
        <ele>138</ele>
        <time>2019-04-14T12:05:59Z</time>
      </trkpt>
      <trkpt lat="44.4368" lon="1.3657">
        <ele>138</ele>
        <time>2019-04-14T12:06:00Z</time>
      </trkpt>
      <trkpt lat="44.4368" lon="1.36574">
        <ele>138</ele>
        <time>2019-04-14T12:06:01Z</time>
      </trkpt>
      <trkpt lat="44.4368" lon="1.36579">
        <ele>138</ele>
        <time>2019-04-14T12:06:02Z</time>
      </trkpt>
      <trkpt lat="44.4368" lon="1.36583">
        <ele>138</ele>
        <time>2019-04-14T12:06:03Z</time>
      </trkpt>
      <trkpt lat="44.4368" lon="1.36588">
        <ele>138</ele>
        <time>2019-04-14T12:06:04Z</time>
      </trkpt>
      <trkpt lat="44.43678" lon="1.36593">
        <ele>137</ele>
        <time>2019-04-14T12:06:05Z</time>
      </trkpt>
      <trkpt lat="44.43676" lon="1.36599">
        <ele>137</ele>
        <time>2019-04-14T12:06:06Z</time>
      </trkpt>
      <trkpt lat="44.43673" lon="1.36603">
        <ele>137</ele>
        <time>2019-04-14T12:06:07Z</time>
      </trkpt>
      <trkpt lat="44.43671" lon="1.36608">
        <ele>137</ele>
        <time>2019-04-14T12:06:08Z</time>
      </trkpt>
      <trkpt lat="44.43668" lon="1.36613">
        <ele>137</ele>
        <time>2019-04-14T12:06:09Z</time>
      </trkpt>
      <trkpt lat="44.43665" lon="1.36616">
        <ele>137</ele>
        <time>2019-04-14T12:06:10Z</time>
      </trkpt>
      <trkpt lat="44.43663" lon="1.3662">
        <ele>137</ele>
        <time>2019-04-14T12:06:11Z</time>
      </trkpt>
      <trkpt lat="44.43661" lon="1.36624">
        <ele>137</ele>
        <time>2019-04-14T12:06:12Z</time>
      </trkpt>
      <trkpt lat="44.43658" lon="1.36628">
        <ele>137</ele>
        <time>2019-04-14T12:06:13Z</time>
      </trkpt>
      <trkpt lat="44.43655" lon="1.36632">
        <ele>137</ele>
        <time>2019-04-14T12:06:14Z</time>
      </trkpt>
      <trkpt lat="44.43653" lon="1.36636">
        <ele>136</ele>
        <time>2019-04-14T12:06:15Z</time>
      </trkpt>
      <trkpt lat="44.43652" lon="1.36639">
        <ele>136</ele>
        <time>2019-04-14T12:06:16Z</time>
      </trkpt>
      <trkpt lat="44.4365" lon="1.36642">
        <ele>136</ele>
        <time>2019-04-14T12:06:17Z</time>
      </trkpt>
      <trkpt lat="44.43648" lon="1.36646">
        <ele>136</ele>
        <time>2019-04-14T12:06:18Z</time>
      </trkpt>
      <trkpt lat="44.43645" lon="1.3665">
        <ele>136</ele>
        <time>2019-04-14T12:06:19Z</time>
      </trkpt>
      <trkpt lat="44.43643" lon="1.36654">
        <ele>136</ele>
        <time>2019-04-14T12:06:20Z</time>
      </trkpt>
      <trkpt lat="44.43641" lon="1.36657">
        <ele>136</ele>
        <time>2019-04-14T12:06:21Z</time>
      </trkpt>
      <trkpt lat="44.43638" lon="1.36661">
        <ele>136</ele>
        <time>2019-04-14T12:06:22Z</time>
      </trkpt>
      <trkpt lat="44.43636" lon="1.36664">
        <ele>136</ele>
        <time>2019-04-14T12:06:23Z</time>
      </trkpt>
      <trkpt lat="44.43635" lon="1.36667">
        <ele>136</ele>
        <time>2019-04-14T12:06:24Z</time>
      </trkpt>
      <trkpt lat="44.43634" lon="1.3667">
        <ele>136</ele>
        <time>2019-04-14T12:06:25Z</time>
      </trkpt>
      <trkpt lat="44.43633" lon="1.36672">
        <ele>136</ele>
        <time>2019-04-14T12:06:26Z</time>
      </trkpt>
      <trkpt lat="44.43633" lon="1.36675">
        <ele>136</ele>
        <time>2019-04-14T12:06:27Z</time>
      </trkpt>
      <trkpt lat="44.43632" lon="1.36677">
        <ele>137</ele>
        <time>2019-04-14T12:06:28Z</time>
      </trkpt>
      <trkpt lat="44.43631" lon="1.36679">
        <ele>137</ele>
        <time>2019-04-14T12:06:29Z</time>
      </trkpt>
      <trkpt lat="44.4363" lon="1.36681">
        <ele>137</ele>
        <time>2019-04-14T12:06:30Z</time>
      </trkpt>
      <trkpt lat="44.43629" lon="1.36683">
        <ele>137</ele>
        <time>2019-04-14T12:06:31Z</time>
      </trkpt>
      <trkpt lat="44.43627" lon="1.36686">
        <ele>137</ele>
        <time>2019-04-14T12:06:32Z</time>
      </trkpt>
      <trkpt lat="44.43626" lon="1.36688">
        <ele>137</ele>
        <time>2019-04-14T12:06:33Z</time>
      </trkpt>
      <trkpt lat="44.43625" lon="1.3669">
        <ele>137</ele>
        <time>2019-04-14T12:06:34Z</time>
      </trkpt>
      <trkpt lat="44.43625" lon="1.36693">
        <ele>137</ele>
        <time>2019-04-14T12:06:35Z</time>
      </trkpt>
      <trkpt lat="44.43624" lon="1.36695">
        <ele>137</ele>
        <time>2019-04-14T12:06:36Z</time>
      </trkpt>
      <trkpt lat="44.43623" lon="1.36697">
        <ele>137</ele>
        <time>2019-04-14T12:06:37Z</time>
      </trkpt>
      <trkpt lat="44.43622" lon="1.367">
        <ele>137</ele>
        <time>2019-04-14T12:06:38Z</time>
      </trkpt>
      <trkpt lat="44.43622" lon="1.36703">
        <ele>137</ele>
        <time>2019-04-14T12:06:39Z</time>
      </trkpt>
      <trkpt lat="44.43621" lon="1.36705">
        <ele>137</ele>
        <time>2019-04-14T12:06:40Z</time>
      </trkpt>
      <trkpt lat="44.43621" lon="1.36708">
        <ele>137</ele>
        <time>2019-04-14T12:06:41Z</time>
      </trkpt>
      <trkpt lat="44.4362" lon="1.36711">
        <ele>137</ele>
        <time>2019-04-14T12:06:42Z</time>
      </trkpt>
      <trkpt lat="44.43622" lon="1.36713">
        <ele>137</ele>
        <time>2019-04-14T12:06:43Z</time>
      </trkpt>
      <trkpt lat="44.43622" lon="1.36716">
        <ele>138</ele>
        <time>2019-04-14T12:06:44Z</time>
      </trkpt>
      <trkpt lat="44.43621" lon="1.36718">
        <ele>138</ele>
        <time>2019-04-14T12:06:45Z</time>
      </trkpt>
      <trkpt lat="44.4362" lon="1.36721">
        <ele>138</ele>
        <time>2019-04-14T12:06:46Z</time>
      </trkpt>
      <trkpt lat="44.43619" lon="1.36724">
        <ele>138</ele>
        <time>2019-04-14T12:06:47Z</time>
      </trkpt>
      <trkpt lat="44.43618" lon="1.36727">
        <ele>138</ele>
        <time>2019-04-14T12:06:48Z</time>
      </trkpt>
      <trkpt lat="44.43617" lon="1.36729">
        <ele>138</ele>
        <time>2019-04-14T12:06:49Z</time>
      </trkpt>
      <trkpt lat="44.43616" lon="1.36732">
        <ele>138</ele>
        <time>2019-04-14T12:06:50Z</time>
      </trkpt>
      <trkpt lat="44.43615" lon="1.36734">
        <ele>138</ele>
        <time>2019-04-14T12:06:51Z</time>
      </trkpt>
      <trkpt lat="44.43615" lon="1.36736">
        <ele>138</ele>
        <time>2019-04-14T12:06:52Z</time>
      </trkpt>
      <trkpt lat="44.43614" lon="1.36739">
        <ele>138</ele>
        <time>2019-04-14T12:06:53Z</time>
      </trkpt>
      <trkpt lat="44.43614" lon="1.36741">
        <ele>138</ele>
        <time>2019-04-14T12:06:54Z</time>
      </trkpt>
      <trkpt lat="44.43613" lon="1.36743">
        <ele>138</ele>
        <time>2019-04-14T12:06:55Z</time>
      </trkpt>
      <trkpt lat="44.43613" lon="1.36745">
        <ele>138</ele>
        <time>2019-04-14T12:06:56Z</time>
      </trkpt>
      <trkpt lat="44.43612" lon="1.36747">
        <ele>139</ele>
        <time>2019-04-14T12:06:57Z</time>
      </trkpt>
      <trkpt lat="44.43611" lon="1.3675">
        <ele>139</ele>
        <time>2019-04-14T12:06:58Z</time>
      </trkpt>
      <trkpt lat="44.43611" lon="1.36752">
        <ele>139</ele>
        <time>2019-04-14T12:06:59Z</time>
      </trkpt>
      <trkpt lat="44.4361" lon="1.36755">
        <ele>139</ele>
        <time>2019-04-14T12:07:00Z</time>
      </trkpt>
      <trkpt lat="44.4361" lon="1.36758">
        <ele>139</ele>
        <time>2019-04-14T12:07:01Z</time>
      </trkpt>
      <trkpt lat="44.43609" lon="1.3676">
        <ele>139</ele>
        <time>2019-04-14T12:07:02Z</time>
      </trkpt>
      <trkpt lat="44.43609" lon="1.36763">
        <ele>139</ele>
        <time>2019-04-14T12:07:03Z</time>
      </trkpt>
      <trkpt lat="44.43609" lon="1.36765">
        <ele>139</ele>
        <time>2019-04-14T12:07:04Z</time>
      </trkpt>
      <trkpt lat="44.43608" lon="1.36768">
        <ele>139</ele>
        <time>2019-04-14T12:07:05Z</time>
      </trkpt>
      <trkpt lat="44.43608" lon="1.36769">
        <ele>139</ele>
        <time>2019-04-14T12:07:06Z</time>
      </trkpt>
      <trkpt lat="44.43608" lon="1.36771">
        <ele>139</ele>
        <time>2019-04-14T12:07:07Z</time>
      </trkpt>
      <trkpt lat="44.43608" lon="1.36773">
        <ele>139</ele>
        <time>2019-04-14T12:07:08Z</time>
      </trkpt>
      <trkpt lat="44.43608" lon="1.36776">
        <ele>139</ele>
        <time>2019-04-14T12:07:09Z</time>
      </trkpt>
      <trkpt lat="44.43608" lon="1.36778">
        <ele>139</ele>
        <time>2019-04-14T12:07:10Z</time>
      </trkpt>
      <trkpt lat="44.43608" lon="1.36781">
        <ele>139</ele>
        <time>2019-04-14T12:07:11Z</time>
      </trkpt>
      <trkpt lat="44.43607" lon="1.36783">
        <ele>139</ele>
        <time>2019-04-14T12:07:12Z</time>
      </trkpt>
      <trkpt lat="44.43607" lon="1.36785">
        <ele>139</ele>
        <time>2019-04-14T12:07:13Z</time>
      </trkpt>
      <trkpt lat="44.43607" lon="1.36788">
        <ele>139</ele>
        <time>2019-04-14T12:07:14Z</time>
      </trkpt>
      <trkpt lat="44.43607" lon="1.3679">
        <ele>139</ele>
        <time>2019-04-14T12:07:15Z</time>
      </trkpt>
      <trkpt lat="44.43607" lon="1.36793">
        <ele>139</ele>
        <time>2019-04-14T12:07:16Z</time>
      </trkpt>
      <trkpt lat="44.43608" lon="1.36796">
        <ele>139</ele>
        <time>2019-04-14T12:07:17Z</time>
      </trkpt>
      <trkpt lat="44.43608" lon="1.36799">
        <ele>139</ele>
        <time>2019-04-14T12:07:18Z</time>
      </trkpt>
      <trkpt lat="44.43608" lon="1.36803">
        <ele>139</ele>
        <time>2019-04-14T12:07:19Z</time>
      </trkpt>
      <trkpt lat="44.43608" lon="1.36805">
        <ele>138</ele>
        <time>2019-04-14T12:07:20Z</time>
      </trkpt>
      <trkpt lat="44.43607" lon="1.36808">
        <ele>138</ele>
        <time>2019-04-14T12:07:21Z</time>
      </trkpt>
      <trkpt lat="44.43607" lon="1.36812">
        <ele>138</ele>
        <time>2019-04-14T12:07:22Z</time>
      </trkpt>
      <trkpt lat="44.43607" lon="1.36814">
        <ele>138</ele>
        <time>2019-04-14T12:07:23Z</time>
      </trkpt>
      <trkpt lat="44.43608" lon="1.36816">
        <ele>138</ele>
        <time>2019-04-14T12:07:24Z</time>
      </trkpt>
      <trkpt lat="44.43608" lon="1.3682">
        <ele>138</ele>
        <time>2019-04-14T12:07:25Z</time>
      </trkpt>
      <trkpt lat="44.43608" lon="1.36823">
        <ele>138</ele>
        <time>2019-04-14T12:07:26Z</time>
      </trkpt>
      <trkpt lat="44.43608" lon="1.36826">
        <ele>138</ele>
        <time>2019-04-14T12:07:27Z</time>
      </trkpt>
      <trkpt lat="44.43608" lon="1.36829">
        <ele>138</ele>
        <time>2019-04-14T12:07:28Z</time>
      </trkpt>
      <trkpt lat="44.43608" lon="1.36833">
        <ele>138</ele>
        <time>2019-04-14T12:07:29Z</time>
      </trkpt>
      <trkpt lat="44.43609" lon="1.36836">
        <ele>138</ele>
        <time>2019-04-14T12:07:30Z</time>
      </trkpt>
      <trkpt lat="44.43609" lon="1.3684">
        <ele>138</ele>
        <time>2019-04-14T12:07:31Z</time>
      </trkpt>
      <trkpt lat="44.43609" lon="1.36843">
        <ele>138</ele>
        <time>2019-04-14T12:07:32Z</time>
      </trkpt>
      <trkpt lat="44.43609" lon="1.36846">
        <ele>138</ele>
        <time>2019-04-14T12:07:33Z</time>
      </trkpt>
      <trkpt lat="44.43609" lon="1.36849">
        <ele>138</ele>
        <time>2019-04-14T12:07:34Z</time>
      </trkpt>
      <trkpt lat="44.4361" lon="1.36852">
        <ele>138</ele>
        <time>2019-04-14T12:07:35Z</time>
      </trkpt>
      <trkpt lat="44.43611" lon="1.36854">
        <ele>138</ele>
        <time>2019-04-14T12:07:36Z</time>
      </trkpt>
      <trkpt lat="44.43612" lon="1.36857">
        <ele>138</ele>
        <time>2019-04-14T12:07:37Z</time>
      </trkpt>
      <trkpt lat="44.43612" lon="1.36859">
        <ele>138</ele>
        <time>2019-04-14T12:07:38Z</time>
      </trkpt>
      <trkpt lat="44.43613" lon="1.36862">
        <ele>138</ele>
        <time>2019-04-14T12:07:39Z</time>
      </trkpt>
      <trkpt lat="44.43614" lon="1.36864">
        <ele>138</ele>
        <time>2019-04-14T12:07:40Z</time>
      </trkpt>
      <trkpt lat="44.43614" lon="1.36867">
        <ele>138</ele>
        <time>2019-04-14T12:07:41Z</time>
      </trkpt>
      <trkpt lat="44.43615" lon="1.36869">
        <ele>138</ele>
        <time>2019-04-14T12:07:42Z</time>
      </trkpt>
      <trkpt lat="44.43616" lon="1.36872">
        <ele>138</ele>
        <time>2019-04-14T12:07:43Z</time>
      </trkpt>
      <trkpt lat="44.43616" lon="1.36874">
        <ele>138</ele>
        <time>2019-04-14T12:07:44Z</time>
      </trkpt>
      <trkpt lat="44.43616" lon="1.36877">
        <ele>138</ele>
        <time>2019-04-14T12:07:45Z</time>
      </trkpt>
      <trkpt lat="44.43617" lon="1.3688">
        <ele>138</ele>
        <time>2019-04-14T12:07:46Z</time>
      </trkpt>
      <trkpt lat="44.43617" lon="1.36882">
        <ele>138</ele>
        <time>2019-04-14T12:07:47Z</time>
      </trkpt>
      <trkpt lat="44.43618" lon="1.36884">
        <ele>138</ele>
        <time>2019-04-14T12:07:48Z</time>
      </trkpt>
      <trkpt lat="44.43618" lon="1.36887">
        <ele>138</ele>
        <time>2019-04-14T12:07:49Z</time>
      </trkpt>
      <trkpt lat="44.43619" lon="1.36889">
        <ele>138</ele>
        <time>2019-04-14T12:07:50Z</time>
      </trkpt>
      <trkpt lat="44.43621" lon="1.36892">
        <ele>138</ele>
        <time>2019-04-14T12:07:51Z</time>
      </trkpt>
      <trkpt lat="44.43621" lon="1.36894">
        <ele>138</ele>
        <time>2019-04-14T12:07:52Z</time>
      </trkpt>
      <trkpt lat="44.43622" lon="1.36896">
        <ele>138</ele>
        <time>2019-04-14T12:07:53Z</time>
      </trkpt>
      <trkpt lat="44.43623" lon="1.36899">
        <ele>138</ele>
        <time>2019-04-14T12:07:54Z</time>
      </trkpt>
      <trkpt lat="44.43623" lon="1.36901">
        <ele>138</ele>
        <time>2019-04-14T12:07:55Z</time>
      </trkpt>
      <trkpt lat="44.43624" lon="1.36904">
        <ele>138</ele>
        <time>2019-04-14T12:07:56Z</time>
      </trkpt>
      <trkpt lat="44.43625" lon="1.36906">
        <ele>138</ele>
        <time>2019-04-14T12:07:57Z</time>
      </trkpt>
      <trkpt lat="44.43625" lon="1.36909">
        <ele>138</ele>
        <time>2019-04-14T12:07:58Z</time>
      </trkpt>
      <trkpt lat="44.43626" lon="1.36911">
        <ele>138</ele>
        <time>2019-04-14T12:07:59Z</time>
      </trkpt>
      <trkpt lat="44.43627" lon="1.36913">
        <ele>138</ele>
        <time>2019-04-14T12:08:00Z</time>
      </trkpt>
      <trkpt lat="44.43628" lon="1.36915">
        <ele>138</ele>
        <time>2019-04-14T12:08:01Z</time>
      </trkpt>
      <trkpt lat="44.43629" lon="1.36918">
        <ele>138</ele>
        <time>2019-04-14T12:08:02Z</time>
      </trkpt>
      <trkpt lat="44.4363" lon="1.3692">
        <ele>138</ele>
        <time>2019-04-14T12:08:03Z</time>
      </trkpt>
      <trkpt lat="44.43631" lon="1.36922">
        <ele>138</ele>
        <time>2019-04-14T12:08:04Z</time>
      </trkpt>
      <trkpt lat="44.43631" lon="1.36924">
        <ele>138</ele>
        <time>2019-04-14T12:08:05Z</time>
      </trkpt>
      <trkpt lat="44.43632" lon="1.36926">
        <ele>138</ele>
        <time>2019-04-14T12:08:06Z</time>
      </trkpt>
      <trkpt lat="44.43632" lon="1.36928">
        <ele>138</ele>
        <time>2019-04-14T12:08:07Z</time>
      </trkpt>
      <trkpt lat="44.43633" lon="1.3693">
        <ele>138</ele>
        <time>2019-04-14T12:08:08Z</time>
      </trkpt>
      <trkpt lat="44.43633" lon="1.36931">
        <ele>138</ele>
        <time>2019-04-14T12:08:09Z</time>
      </trkpt>
      <trkpt lat="44.43634" lon="1.36932">
        <ele>138</ele>
        <time>2019-04-14T12:08:10Z</time>
      </trkpt>
      <trkpt lat="44.43634" lon="1.36933">
        <ele>138</ele>
        <time>2019-04-14T12:08:11Z</time>
      </trkpt>
      <trkpt lat="44.43635" lon="1.36934">
        <ele>138</ele>
        <time>2019-04-14T12:08:12Z</time>
      </trkpt>
      <trkpt lat="44.43635" lon="1.36935">
        <ele>138</ele>
        <time>2019-04-14T12:08:13Z</time>
      </trkpt>
      <trkpt lat="44.43636" lon="1.36937">
        <ele>138</ele>
        <time>2019-04-14T12:08:14Z</time>
      </trkpt>
      <trkpt lat="44.43636" lon="1.36938">
        <ele>139</ele>
        <time>2019-04-14T12:08:15Z</time>
      </trkpt>
      <trkpt lat="44.43638" lon="1.3694">
        <ele>139</ele>
        <time>2019-04-14T12:08:16Z</time>
      </trkpt>
      <trkpt lat="44.43639" lon="1.36941">
        <ele>139</ele>
        <time>2019-04-14T12:08:17Z</time>
      </trkpt>
      <trkpt lat="44.4364" lon="1.36943">
        <ele>139</ele>
        <time>2019-04-14T12:08:18Z</time>
      </trkpt>
      <trkpt lat="44.4364" lon="1.36945">
        <ele>139</ele>
        <time>2019-04-14T12:08:19Z</time>
      </trkpt>
      <trkpt lat="44.4364" lon="1.36947">
        <ele>139</ele>
        <time>2019-04-14T12:08:20Z</time>
      </trkpt>
      <trkpt lat="44.4364" lon="1.36949">
        <ele>139</ele>
        <time>2019-04-14T12:08:21Z</time>
      </trkpt>
      <trkpt lat="44.43641" lon="1.3695">
        <ele>139</ele>
        <time>2019-04-14T12:08:22Z</time>
      </trkpt>
      <trkpt lat="44.43642" lon="1.36951">
        <ele>139</ele>
        <time>2019-04-14T12:08:23Z</time>
      </trkpt>
      <trkpt lat="44.43643" lon="1.36953">
        <ele>139</ele>
        <time>2019-04-14T12:08:24Z</time>
      </trkpt>
      <trkpt lat="44.43643" lon="1.36955">
        <ele>139</ele>
        <time>2019-04-14T12:08:25Z</time>
      </trkpt>
      <trkpt lat="44.43643" lon="1.36957">
        <ele>139</ele>
        <time>2019-04-14T12:08:26Z</time>
      </trkpt>
      <trkpt lat="44.43644" lon="1.36959">
        <ele>139</ele>
        <time>2019-04-14T12:08:27Z</time>
      </trkpt>
      <trkpt lat="44.43645" lon="1.36961">
        <ele>139</ele>
        <time>2019-04-14T12:08:28Z</time>
      </trkpt>
      <trkpt lat="44.43646" lon="1.36963">
        <ele>139</ele>
        <time>2019-04-14T12:08:29Z</time>
      </trkpt>
      <trkpt lat="44.43646" lon="1.36965">
        <ele>139</ele>
        <time>2019-04-14T12:08:30Z</time>
      </trkpt>
      <trkpt lat="44.43647" lon="1.36967">
        <ele>139</ele>
        <time>2019-04-14T12:08:31Z</time>
      </trkpt>
      <trkpt lat="44.43647" lon="1.3697">
        <ele>139</ele>
        <time>2019-04-14T12:08:32Z</time>
      </trkpt>
      <trkpt lat="44.43648" lon="1.36972">
        <ele>139</ele>
        <time>2019-04-14T12:08:33Z</time>
      </trkpt>
      <trkpt lat="44.43648" lon="1.36974">
        <ele>139</ele>
        <time>2019-04-14T12:08:34Z</time>
      </trkpt>
      <trkpt lat="44.43648" lon="1.36977">
        <ele>140</ele>
        <time>2019-04-14T12:08:35Z</time>
      </trkpt>
      <trkpt lat="44.43648" lon="1.36979">
        <ele>140</ele>
        <time>2019-04-14T12:08:36Z</time>
      </trkpt>
      <trkpt lat="44.43648" lon="1.36981">
        <ele>140</ele>
        <time>2019-04-14T12:08:37Z</time>
      </trkpt>
      <trkpt lat="44.43648" lon="1.36983">
        <ele>140</ele>
        <time>2019-04-14T12:08:38Z</time>
      </trkpt>
      <trkpt lat="44.43648" lon="1.36986">
        <ele>140</ele>
        <time>2019-04-14T12:08:39Z</time>
      </trkpt>
      <trkpt lat="44.43649" lon="1.36988">
        <ele>140</ele>
        <time>2019-04-14T12:08:40Z</time>
      </trkpt>
      <trkpt lat="44.43649" lon="1.3699">
        <ele>140</ele>
        <time>2019-04-14T12:08:41Z</time>
      </trkpt>
      <trkpt lat="44.43649" lon="1.36992">
        <ele>140</ele>
        <time>2019-04-14T12:08:42Z</time>
      </trkpt>
      <trkpt lat="44.43648" lon="1.36994">
        <ele>140</ele>
        <time>2019-04-14T12:08:43Z</time>
      </trkpt>
      <trkpt lat="44.43648" lon="1.36996">
        <ele>140</ele>
        <time>2019-04-14T12:08:44Z</time>
      </trkpt>
      <trkpt lat="44.43649" lon="1.36997">
        <ele>140</ele>
        <time>2019-04-14T12:08:45Z</time>
      </trkpt>
      <trkpt lat="44.43649" lon="1.36999">
        <ele>140</ele>
        <time>2019-04-14T12:08:46Z</time>
      </trkpt>
      <trkpt lat="44.43648" lon="1.37001">
        <ele>140</ele>
        <time>2019-04-14T12:08:47Z</time>
      </trkpt>
      <trkpt lat="44.43648" lon="1.37003">
        <ele>140</ele>
        <time>2019-04-14T12:08:48Z</time>
      </trkpt>
      <trkpt lat="44.43647" lon="1.37006">
        <ele>140</ele>
        <time>2019-04-14T12:08:49Z</time>
      </trkpt>
      <trkpt lat="44.43647" lon="1.37008">
        <ele>140</ele>
        <time>2019-04-14T12:08:50Z</time>
      </trkpt>
      <trkpt lat="44.43647" lon="1.37011">
        <ele>140</ele>
        <time>2019-04-14T12:08:51Z</time>
      </trkpt>
      <trkpt lat="44.43646" lon="1.37013">
        <ele>140</ele>
        <time>2019-04-14T12:08:52Z</time>
      </trkpt>
      <trkpt lat="44.43646" lon="1.37015">
        <ele>140</ele>
        <time>2019-04-14T12:08:53Z</time>
      </trkpt>
      <trkpt lat="44.43645" lon="1.37018">
        <ele>140</ele>
        <time>2019-04-14T12:08:54Z</time>
      </trkpt>
      <trkpt lat="44.43645" lon="1.37021">
        <ele>140</ele>
        <time>2019-04-14T12:08:55Z</time>
      </trkpt>
      <trkpt lat="44.43644" lon="1.37023">
        <ele>140</ele>
        <time>2019-04-14T12:08:56Z</time>
      </trkpt>
      <trkpt lat="44.43644" lon="1.37026">
        <ele>141</ele>
        <time>2019-04-14T12:08:57Z</time>
      </trkpt>
      <trkpt lat="44.43643" lon="1.37028">
        <ele>141</ele>
        <time>2019-04-14T12:08:58Z</time>
      </trkpt>
      <trkpt lat="44.43642" lon="1.3703">
        <ele>141</ele>
        <time>2019-04-14T12:08:59Z</time>
      </trkpt>
      <trkpt lat="44.43642" lon="1.37031">
        <ele>141</ele>
        <time>2019-04-14T12:09:00Z</time>
      </trkpt>
      <trkpt lat="44.43642" lon="1.37033">
        <ele>141</ele>
        <time>2019-04-14T12:09:01Z</time>
      </trkpt>
      <trkpt lat="44.43642" lon="1.37035">
        <ele>141</ele>
        <time>2019-04-14T12:09:02Z</time>
      </trkpt>
      <trkpt lat="44.43642" lon="1.37038">
        <ele>141</ele>
        <time>2019-04-14T12:09:03Z</time>
      </trkpt>
      <trkpt lat="44.43641" lon="1.3704">
        <ele>141</ele>
        <time>2019-04-14T12:09:04Z</time>
      </trkpt>
      <trkpt lat="44.43641" lon="1.37042">
        <ele>141</ele>
        <time>2019-04-14T12:09:05Z</time>
      </trkpt>
      <trkpt lat="44.4364" lon="1.37045">
        <ele>141</ele>
        <time>2019-04-14T12:09:06Z</time>
      </trkpt>
      <trkpt lat="44.4364" lon="1.37047">
        <ele>141</ele>
        <time>2019-04-14T12:09:07Z</time>
      </trkpt>
      <trkpt lat="44.43639" lon="1.37049">
        <ele>141</ele>
        <time>2019-04-14T12:09:08Z</time>
      </trkpt>
      <trkpt lat="44.43639" lon="1.37052">
        <ele>141</ele>
        <time>2019-04-14T12:09:09Z</time>
      </trkpt>
      <trkpt lat="44.43638" lon="1.37054">
        <ele>141</ele>
        <time>2019-04-14T12:09:10Z</time>
      </trkpt>
      <trkpt lat="44.43637" lon="1.37056">
        <ele>141</ele>
        <time>2019-04-14T12:09:11Z</time>
      </trkpt>
      <trkpt lat="44.43636" lon="1.37058">
        <ele>142</ele>
        <time>2019-04-14T12:09:12Z</time>
      </trkpt>
      <trkpt lat="44.43636" lon="1.37061">
        <ele>142</ele>
        <time>2019-04-14T12:09:13Z</time>
      </trkpt>
      <trkpt lat="44.43636" lon="1.37064">
        <ele>142</ele>
        <time>2019-04-14T12:09:14Z</time>
      </trkpt>
      <trkpt lat="44.43635" lon="1.37066">
        <ele>142</ele>
        <time>2019-04-14T12:09:15Z</time>
      </trkpt>
      <trkpt lat="44.43635" lon="1.37069">
        <ele>142</ele>
        <time>2019-04-14T12:09:16Z</time>
      </trkpt>
      <trkpt lat="44.43634" lon="1.37071">
        <ele>142</ele>
        <time>2019-04-14T12:09:17Z</time>
      </trkpt>
      <trkpt lat="44.43634" lon="1.37073">
        <ele>142</ele>
        <time>2019-04-14T12:09:18Z</time>
      </trkpt>
      <trkpt lat="44.43633" lon="1.37075">
        <ele>142</ele>
        <time>2019-04-14T12:09:19Z</time>
      </trkpt>
      <trkpt lat="44.43633" lon="1.37077">
        <ele>142</ele>
        <time>2019-04-14T12:09:20Z</time>
      </trkpt>
      <trkpt lat="44.43632" lon="1.37079">
        <ele>142</ele>
        <time>2019-04-14T12:09:21Z</time>
      </trkpt>
      <trkpt lat="44.43631" lon="1.37082">
        <ele>142</ele>
        <time>2019-04-14T12:09:22Z</time>
      </trkpt>
      <trkpt lat="44.43631" lon="1.37084">
        <ele>142</ele>
        <time>2019-04-14T12:09:23Z</time>
      </trkpt>
      <trkpt lat="44.4363" lon="1.37086">
        <ele>142</ele>
        <time>2019-04-14T12:09:24Z</time>
      </trkpt>
      <trkpt lat="44.4363" lon="1.37088">
        <ele>142</ele>
        <time>2019-04-14T12:09:25Z</time>
      </trkpt>
      <trkpt lat="44.4363" lon="1.3709">
        <ele>142</ele>
        <time>2019-04-14T12:09:26Z</time>
      </trkpt>
      <trkpt lat="44.43629" lon="1.37091">
        <ele>142</ele>
        <time>2019-04-14T12:09:27Z</time>
      </trkpt>
      <trkpt lat="44.43629" lon="1.37093">
        <ele>142</ele>
        <time>2019-04-14T12:09:28Z</time>
      </trkpt>
      <trkpt lat="44.43628" lon="1.37095">
        <ele>142</ele>
        <time>2019-04-14T12:09:29Z</time>
      </trkpt>
      <trkpt lat="44.43627" lon="1.37097">
        <ele>142</ele>
        <time>2019-04-14T12:09:30Z</time>
      </trkpt>
      <trkpt lat="44.43626" lon="1.37099">
        <ele>142</ele>
        <time>2019-04-14T12:09:31Z</time>
      </trkpt>
      <trkpt lat="44.43625" lon="1.37101">
        <ele>142</ele>
        <time>2019-04-14T12:09:32Z</time>
      </trkpt>
      <trkpt lat="44.43624" lon="1.37103">
        <ele>142</ele>
        <time>2019-04-14T12:09:33Z</time>
      </trkpt>
      <trkpt lat="44.43624" lon="1.37105">
        <ele>142</ele>
        <time>2019-04-14T12:09:34Z</time>
      </trkpt>
      <trkpt lat="44.43624" lon="1.37107">
        <ele>142</ele>
        <time>2019-04-14T12:09:35Z</time>
      </trkpt>
      <trkpt lat="44.43623" lon="1.37108">
        <ele>143</ele>
        <time>2019-04-14T12:09:36Z</time>
      </trkpt>
      <trkpt lat="44.43622" lon="1.37109">
        <ele>143</ele>
        <time>2019-04-14T12:09:37Z</time>
      </trkpt>
      <trkpt lat="44.43621" lon="1.37111">
        <ele>143</ele>
        <time>2019-04-14T12:09:38Z</time>
      </trkpt>
      <trkpt lat="44.43621" lon="1.37113">
        <ele>143</ele>
        <time>2019-04-14T12:09:39Z</time>
      </trkpt>
      <trkpt lat="44.4362" lon="1.37115">
        <ele>143</ele>
        <time>2019-04-14T12:09:40Z</time>
      </trkpt>
      <trkpt lat="44.43619" lon="1.37116">
        <ele>143</ele>
        <time>2019-04-14T12:09:41Z</time>
      </trkpt>
      <trkpt lat="44.43618" lon="1.37118">
        <ele>143</ele>
        <time>2019-04-14T12:09:42Z</time>
      </trkpt>
      <trkpt lat="44.43618" lon="1.3712">
        <ele>143</ele>
        <time>2019-04-14T12:09:43Z</time>
      </trkpt>
      <trkpt lat="44.43617" lon="1.37121">
        <ele>143</ele>
        <time>2019-04-14T12:09:44Z</time>
      </trkpt>
      <trkpt lat="44.43617" lon="1.37123">
        <ele>143</ele>
        <time>2019-04-14T12:09:45Z</time>
      </trkpt>
      <trkpt lat="44.43617" lon="1.37125">
        <ele>143</ele>
        <time>2019-04-14T12:09:46Z</time>
      </trkpt>
      <trkpt lat="44.43616" lon="1.37127">
        <ele>143</ele>
        <time>2019-04-14T12:09:47Z</time>
      </trkpt>
      <trkpt lat="44.43615" lon="1.37129">
        <ele>143</ele>
        <time>2019-04-14T12:09:48Z</time>
      </trkpt>
      <trkpt lat="44.43615" lon="1.37131">
        <ele>143</ele>
        <time>2019-04-14T12:09:49Z</time>
      </trkpt>
      <trkpt lat="44.43614" lon="1.37133">
        <ele>143</ele>
        <time>2019-04-14T12:09:50Z</time>
      </trkpt>
      <trkpt lat="44.43613" lon="1.37135">
        <ele>143</ele>
        <time>2019-04-14T12:09:51Z</time>
      </trkpt>
      <trkpt lat="44.43613" lon="1.37137">
        <ele>143</ele>
        <time>2019-04-14T12:09:52Z</time>
      </trkpt>
      <trkpt lat="44.43613" lon="1.37139">
        <ele>143</ele>
        <time>2019-04-14T12:09:53Z</time>
      </trkpt>
      <trkpt lat="44.43612" lon="1.37141">
        <ele>143</ele>
        <time>2019-04-14T12:09:54Z</time>
      </trkpt>
      <trkpt lat="44.43613" lon="1.37143">
        <ele>143</ele>
        <time>2019-04-14T12:09:55Z</time>
      </trkpt>
      <trkpt lat="44.43612" lon="1.37145">
        <ele>143</ele>
        <time>2019-04-14T12:09:56Z</time>
      </trkpt>
      <trkpt lat="44.43612" lon="1.37147">
        <ele>144</ele>
        <time>2019-04-14T12:09:57Z</time>
      </trkpt>
      <trkpt lat="44.4361" lon="1.37149">
        <ele>144</ele>
        <time>2019-04-14T12:09:58Z</time>
      </trkpt>
      <trkpt lat="44.43609" lon="1.37152">
        <ele>144</ele>
        <time>2019-04-14T12:09:59Z</time>
      </trkpt>
      <trkpt lat="44.43608" lon="1.37153">
        <ele>144</ele>
        <time>2019-04-14T12:10:00Z</time>
      </trkpt>
      <trkpt lat="44.43607" lon="1.37155">
        <ele>144</ele>
        <time>2019-04-14T12:10:01Z</time>
      </trkpt>
      <trkpt lat="44.43607" lon="1.37156">
        <ele>144</ele>
        <time>2019-04-14T12:10:02Z</time>
      </trkpt>
      <trkpt lat="44.43607" lon="1.37158">
        <ele>144</ele>
        <time>2019-04-14T12:10:03Z</time>
      </trkpt>
      <trkpt lat="44.43606" lon="1.37159">
        <ele>144</ele>
        <time>2019-04-14T12:10:04Z</time>
      </trkpt>
      <trkpt lat="44.43606" lon="1.3716">
        <ele>144</ele>
        <time>2019-04-14T12:10:05Z</time>
      </trkpt>
      <trkpt lat="44.43605" lon="1.37163">
        <ele>144</ele>
        <time>2019-04-14T12:10:06Z</time>
      </trkpt>
      <trkpt lat="44.43604" lon="1.37165">
        <ele>144</ele>
        <time>2019-04-14T12:10:07Z</time>
      </trkpt>
      <trkpt lat="44.43604" lon="1.37167">
        <ele>144</ele>
        <time>2019-04-14T12:10:08Z</time>
      </trkpt>
      <trkpt lat="44.43603" lon="1.37169">
        <ele>144</ele>
        <time>2019-04-14T12:10:09Z</time>
      </trkpt>
      <trkpt lat="44.43603" lon="1.37172">
        <ele>144</ele>
        <time>2019-04-14T12:10:10Z</time>
      </trkpt>
      <trkpt lat="44.43602" lon="1.37175">
        <ele>144</ele>
        <time>2019-04-14T12:10:11Z</time>
      </trkpt>
      <trkpt lat="44.43601" lon="1.37177">
        <ele>144</ele>
        <time>2019-04-14T12:10:12Z</time>
      </trkpt>
      <trkpt lat="44.436" lon="1.37179">
        <ele>144</ele>
        <time>2019-04-14T12:10:13Z</time>
      </trkpt>
      <trkpt lat="44.43599" lon="1.37181">
        <ele>144</ele>
        <time>2019-04-14T12:10:14Z</time>
      </trkpt>
      <trkpt lat="44.43598" lon="1.37184">
        <ele>144</ele>
        <time>2019-04-14T12:10:15Z</time>
      </trkpt>
      <trkpt lat="44.43597" lon="1.37187">
        <ele>144</ele>
        <time>2019-04-14T12:10:16Z</time>
      </trkpt>
      <trkpt lat="44.43596" lon="1.37189">
        <ele>144</ele>
        <time>2019-04-14T12:10:17Z</time>
      </trkpt>
      <trkpt lat="44.43596" lon="1.37191">
        <ele>144</ele>
        <time>2019-04-14T12:10:18Z</time>
      </trkpt>
      <trkpt lat="44.43596" lon="1.37194">
        <ele>144</ele>
        <time>2019-04-14T12:10:19Z</time>
      </trkpt>
      <trkpt lat="44.43595" lon="1.37197">
        <ele>144</ele>
        <time>2019-04-14T12:10:20Z</time>
      </trkpt>
      <trkpt lat="44.43595" lon="1.37199">
        <ele>144</ele>
        <time>2019-04-14T12:10:21Z</time>
      </trkpt>
      <trkpt lat="44.43595" lon="1.37201">
        <ele>144</ele>
        <time>2019-04-14T12:10:22Z</time>
      </trkpt>
      <trkpt lat="44.43594" lon="1.37202">
        <ele>144</ele>
        <time>2019-04-14T12:10:23Z</time>
      </trkpt>
      <trkpt lat="44.43594" lon="1.37204">
        <ele>144</ele>
        <time>2019-04-14T12:10:24Z</time>
      </trkpt>
      <trkpt lat="44.43594" lon="1.37207">
        <ele>144</ele>
        <time>2019-04-14T12:10:25Z</time>
      </trkpt>
      <trkpt lat="44.43595" lon="1.3721">
        <ele>144</ele>
        <time>2019-04-14T12:10:26Z</time>
      </trkpt>
      <trkpt lat="44.43594" lon="1.37212">
        <ele>144</ele>
        <time>2019-04-14T12:10:27Z</time>
      </trkpt>
      <trkpt lat="44.43594" lon="1.37215">
        <ele>144</ele>
        <time>2019-04-14T12:10:28Z</time>
      </trkpt>
      <trkpt lat="44.43592" lon="1.37217">
        <ele>144</ele>
        <time>2019-04-14T12:10:29Z</time>
      </trkpt>
      <trkpt lat="44.43591" lon="1.37218">
        <ele>144</ele>
        <time>2019-04-14T12:10:30Z</time>
      </trkpt>
      <trkpt lat="44.43591" lon="1.3722">
        <ele>144</ele>
        <time>2019-04-14T12:10:31Z</time>
      </trkpt>
      <trkpt lat="44.4359" lon="1.37222">
        <ele>144</ele>
        <time>2019-04-14T12:10:32Z</time>
      </trkpt>
      <trkpt lat="44.43589" lon="1.37223">
        <ele>144</ele>
        <time>2019-04-14T12:10:33Z</time>
      </trkpt>
      <trkpt lat="44.43588" lon="1.37226">
        <ele>144</ele>
        <time>2019-04-14T12:10:34Z</time>
      </trkpt>
      <trkpt lat="44.43588" lon="1.37228">
        <ele>144</ele>
        <time>2019-04-14T12:10:35Z</time>
      </trkpt>
      <trkpt lat="44.43587" lon="1.3723">
        <ele>144</ele>
        <time>2019-04-14T12:10:36Z</time>
      </trkpt>
      <trkpt lat="44.43586" lon="1.37232">
        <ele>144</ele>
        <time>2019-04-14T12:10:37Z</time>
      </trkpt>
      <trkpt lat="44.43585" lon="1.37234">
        <ele>144</ele>
        <time>2019-04-14T12:10:38Z</time>
      </trkpt>
      <trkpt lat="44.43584" lon="1.37236">
        <ele>144</ele>
        <time>2019-04-14T12:10:39Z</time>
      </trkpt>
      <trkpt lat="44.43582" lon="1.37237">
        <ele>144</ele>
        <time>2019-04-14T12:10:40Z</time>
      </trkpt>
      <trkpt lat="44.43581" lon="1.37239">
        <ele>144</ele>
        <time>2019-04-14T12:10:41Z</time>
      </trkpt>
      <trkpt lat="44.43581" lon="1.3724">
        <ele>144</ele>
        <time>2019-04-14T12:10:42Z</time>
      </trkpt>
      <trkpt lat="44.4358" lon="1.37241">
        <ele>144</ele>
        <time>2019-04-14T12:10:43Z</time>
      </trkpt>
      <trkpt lat="44.4358" lon="1.37243">
        <ele>144</ele>
        <time>2019-04-14T12:10:44Z</time>
      </trkpt>
      <trkpt lat="44.4358" lon="1.37244">
        <ele>144</ele>
        <time>2019-04-14T12:10:45Z</time>
      </trkpt>
      <trkpt lat="44.43582" lon="1.37246">
        <ele>144</ele>
        <time>2019-04-14T12:10:46Z</time>
      </trkpt>
      <trkpt lat="44.43583" lon="1.37245">
        <ele>144</ele>
        <time>2019-04-14T12:10:47Z</time>
      </trkpt>
      <trkpt lat="44.43583" lon="1.37244">
        <ele>144</ele>
        <time>2019-04-14T12:10:48Z</time>
      </trkpt>
      <trkpt lat="44.43583" lon="1.37242">
        <ele>144</ele>
        <time>2019-04-14T12:10:49Z</time>
      </trkpt>
      <trkpt lat="44.43583" lon="1.37241">
        <ele>144</ele>
        <time>2019-04-14T12:10:50Z</time>
      </trkpt>
      <trkpt lat="44.43584" lon="1.37239">
        <ele>144</ele>
        <time>2019-04-14T12:10:51Z</time>
      </trkpt>
      <trkpt lat="44.43584" lon="1.37236">
        <ele>144</ele>
        <time>2019-04-14T12:10:52Z</time>
      </trkpt>
      <trkpt lat="44.43585" lon="1.37234">
        <ele>144</ele>
        <time>2019-04-14T12:10:53Z</time>
      </trkpt>
      <trkpt lat="44.43585" lon="1.37231">
        <ele>144</ele>
        <time>2019-04-14T12:10:54Z</time>
      </trkpt>
      <trkpt lat="44.43586" lon="1.37229">
        <ele>144</ele>
        <time>2019-04-14T12:10:55Z</time>
      </trkpt>
      <trkpt lat="44.43587" lon="1.37227">
        <ele>144</ele>
        <time>2019-04-14T12:10:56Z</time>
      </trkpt>
      <trkpt lat="44.43588" lon="1.37224">
        <ele>144</ele>
        <time>2019-04-14T12:10:57Z</time>
      </trkpt>
      <trkpt lat="44.43589" lon="1.37222">
        <ele>144</ele>
        <time>2019-04-14T12:10:58Z</time>
      </trkpt>
      <trkpt lat="44.4359" lon="1.37219">
        <ele>144</ele>
        <time>2019-04-14T12:10:59Z</time>
      </trkpt>
      <trkpt lat="44.4359" lon="1.37217">
        <ele>144</ele>
        <time>2019-04-14T12:11:00Z</time>
      </trkpt>
      <trkpt lat="44.43591" lon="1.37215">
        <ele>144</ele>
        <time>2019-04-14T12:11:01Z</time>
      </trkpt>
      <trkpt lat="44.43592" lon="1.37213">
        <ele>144</ele>
        <time>2019-04-14T12:11:02Z</time>
      </trkpt>
      <trkpt lat="44.43593" lon="1.37211">
        <ele>144</ele>
        <time>2019-04-14T12:11:03Z</time>
      </trkpt>
      <trkpt lat="44.43594" lon="1.3721">
        <ele>144</ele>
        <time>2019-04-14T12:11:04Z</time>
      </trkpt>
      <trkpt lat="44.43595" lon="1.37209">
        <ele>144</ele>
        <time>2019-04-14T12:11:05Z</time>
      </trkpt>
      <trkpt lat="44.43595" lon="1.37206">
        <ele>144</ele>
        <time>2019-04-14T12:11:06Z</time>
      </trkpt>
      <trkpt lat="44.43596" lon="1.37203">
        <ele>144</ele>
        <time>2019-04-14T12:11:07Z</time>
      </trkpt>
      <trkpt lat="44.43597" lon="1.372">
        <ele>144</ele>
        <time>2019-04-14T12:11:08Z</time>
      </trkpt>
      <trkpt lat="44.43598" lon="1.37197">
        <ele>144</ele>
        <time>2019-04-14T12:11:09Z</time>
      </trkpt>
      <trkpt lat="44.43598" lon="1.37195">
        <ele>144</ele>
        <time>2019-04-14T12:11:10Z</time>
      </trkpt>
      <trkpt lat="44.43599" lon="1.37193">
        <ele>144</ele>
        <time>2019-04-14T12:11:11Z</time>
      </trkpt>
      <trkpt lat="44.43599" lon="1.37191">
        <ele>144</ele>
        <time>2019-04-14T12:11:12Z</time>
      </trkpt>
      <trkpt lat="44.436" lon="1.3719">
        <ele>144</ele>
        <time>2019-04-14T12:11:13Z</time>
      </trkpt>
      <trkpt lat="44.43601" lon="1.37188">
        <ele>144</ele>
        <time>2019-04-14T12:11:14Z</time>
      </trkpt>
      <trkpt lat="44.43602" lon="1.37186">
        <ele>144</ele>
        <time>2019-04-14T12:11:15Z</time>
      </trkpt>
      <trkpt lat="44.43603" lon="1.37183">
        <ele>144</ele>
        <time>2019-04-14T12:11:16Z</time>
      </trkpt>
      <trkpt lat="44.43603" lon="1.3718">
        <ele>144</ele>
        <time>2019-04-14T12:11:17Z</time>
      </trkpt>
      <trkpt lat="44.43605" lon="1.37178">
        <ele>144</ele>
        <time>2019-04-14T12:11:18Z</time>
      </trkpt>
      <trkpt lat="44.43606" lon="1.37176">
        <ele>144</ele>
        <time>2019-04-14T12:11:19Z</time>
      </trkpt>
      <trkpt lat="44.43607" lon="1.37173">
        <ele>144</ele>
        <time>2019-04-14T12:11:20Z</time>
      </trkpt>
      <trkpt lat="44.43608" lon="1.37169">
        <ele>144</ele>
        <time>2019-04-14T12:11:21Z</time>
      </trkpt>
      <trkpt lat="44.43608" lon="1.37165">
        <ele>144</ele>
        <time>2019-04-14T12:11:22Z</time>
      </trkpt>
      <trkpt lat="44.4361" lon="1.37161">
        <ele>144</ele>
        <time>2019-04-14T12:11:23Z</time>
      </trkpt>
      <trkpt lat="44.43611" lon="1.37157">
        <ele>144</ele>
        <time>2019-04-14T12:11:24Z</time>
      </trkpt>
      <trkpt lat="44.43613" lon="1.37153">
        <ele>143</ele>
        <time>2019-04-14T12:11:25Z</time>
      </trkpt>
      <trkpt lat="44.43615" lon="1.37149">
        <ele>143</ele>
        <time>2019-04-14T12:11:26Z</time>
      </trkpt>
      <trkpt lat="44.43617" lon="1.37145">
        <ele>143</ele>
        <time>2019-04-14T12:11:27Z</time>
      </trkpt>
      <trkpt lat="44.43618" lon="1.37142">
        <ele>143</ele>
        <time>2019-04-14T12:11:28Z</time>
      </trkpt>
      <trkpt lat="44.4362" lon="1.37137">
        <ele>143</ele>
        <time>2019-04-14T12:11:29Z</time>
      </trkpt>
      <trkpt lat="44.43622" lon="1.37132">
        <ele>143</ele>
        <time>2019-04-14T12:11:30Z</time>
      </trkpt>
      <trkpt lat="44.43624" lon="1.37127">
        <ele>143</ele>
        <time>2019-04-14T12:11:31Z</time>
      </trkpt>
      <trkpt lat="44.43625" lon="1.37123">
        <ele>143</ele>
        <time>2019-04-14T12:11:32Z</time>
      </trkpt>
      <trkpt lat="44.43627" lon="1.37118">
        <ele>142</ele>
        <time>2019-04-14T12:11:33Z</time>
      </trkpt>
      <trkpt lat="44.43628" lon="1.37112">
        <ele>142</ele>
        <time>2019-04-14T12:11:34Z</time>
      </trkpt>
      <trkpt lat="44.43629" lon="1.37108">
        <ele>142</ele>
        <time>2019-04-14T12:11:35Z</time>
      </trkpt>
      <trkpt lat="44.4363" lon="1.37103">
        <ele>142</ele>
        <time>2019-04-14T12:11:36Z</time>
      </trkpt>
      <trkpt lat="44.43631" lon="1.37099">
        <ele>142</ele>
        <time>2019-04-14T12:11:37Z</time>
      </trkpt>
      <trkpt lat="44.43632" lon="1.37095">
        <ele>142</ele>
        <time>2019-04-14T12:11:38Z</time>
      </trkpt>
      <trkpt lat="44.43632" lon="1.3709">
        <ele>142</ele>
        <time>2019-04-14T12:11:39Z</time>
      </trkpt>
      <trkpt lat="44.43633" lon="1.37085">
        <ele>142</ele>
        <time>2019-04-14T12:11:40Z</time>
      </trkpt>
      <trkpt lat="44.43634" lon="1.37081">
        <ele>142</ele>
        <time>2019-04-14T12:11:41Z</time>
      </trkpt>
      <trkpt lat="44.43636" lon="1.37078">
        <ele>142</ele>
        <time>2019-04-14T12:11:42Z</time>
      </trkpt>
      <trkpt lat="44.43637" lon="1.37074">
        <ele>142</ele>
        <time>2019-04-14T12:11:43Z</time>
      </trkpt>
      <trkpt lat="44.43638" lon="1.37069">
        <ele>141</ele>
        <time>2019-04-14T12:11:44Z</time>
      </trkpt>
      <trkpt lat="44.43639" lon="1.37064">
        <ele>141</ele>
        <time>2019-04-14T12:11:45Z</time>
      </trkpt>
      <trkpt lat="44.4364" lon="1.37059">
        <ele>141</ele>
        <time>2019-04-14T12:11:46Z</time>
      </trkpt>
      <trkpt lat="44.43641" lon="1.37053">
        <ele>141</ele>
        <time>2019-04-14T12:11:47Z</time>
      </trkpt>
      <trkpt lat="44.43642" lon="1.37048">
        <ele>141</ele>
        <time>2019-04-14T12:11:48Z</time>
      </trkpt>
      <trkpt lat="44.43643" lon="1.37042">
        <ele>141</ele>
        <time>2019-04-14T12:11:49Z</time>
      </trkpt>
      <trkpt lat="44.43644" lon="1.37037">
        <ele>141</ele>
        <time>2019-04-14T12:11:50Z</time>
      </trkpt>
      <trkpt lat="44.43645" lon="1.37032">
        <ele>140</ele>
        <time>2019-04-14T12:11:51Z</time>
      </trkpt>
      <trkpt lat="44.43646" lon="1.37028">
        <ele>140</ele>
        <time>2019-04-14T12:11:52Z</time>
      </trkpt>
      <trkpt lat="44.43647" lon="1.37025">
        <ele>140</ele>
        <time>2019-04-14T12:11:53Z</time>
      </trkpt>
      <trkpt lat="44.43647" lon="1.37022">
        <ele>140</ele>
        <time>2019-04-14T12:11:54Z</time>
      </trkpt>
      <trkpt lat="44.43648" lon="1.37019">
        <ele>140</ele>
        <time>2019-04-14T12:11:55Z</time>
      </trkpt>
      <trkpt lat="44.43648" lon="1.37017">
        <ele>140</ele>
        <time>2019-04-14T12:11:56Z</time>
      </trkpt>
      <trkpt lat="44.43648" lon="1.37015">
        <ele>140</ele>
        <time>2019-04-14T12:11:57Z</time>
      </trkpt>
      <trkpt lat="44.43648" lon="1.37012">
        <ele>140</ele>
        <time>2019-04-14T12:11:58Z</time>
      </trkpt>
      <trkpt lat="44.43648" lon="1.37009">
        <ele>140</ele>
        <time>2019-04-14T12:11:59Z</time>
      </trkpt>
      <trkpt lat="44.43649" lon="1.37006">
        <ele>140</ele>
        <time>2019-04-14T12:12:00Z</time>
      </trkpt>
      <trkpt lat="44.43649" lon="1.37002">
        <ele>139</ele>
        <time>2019-04-14T12:12:01Z</time>
      </trkpt>
      <trkpt lat="44.4365" lon="1.36999">
        <ele>139</ele>
        <time>2019-04-14T12:12:02Z</time>
      </trkpt>
      <trkpt lat="44.4365" lon="1.36995">
        <ele>139</ele>
        <time>2019-04-14T12:12:03Z</time>
      </trkpt>
      <trkpt lat="44.4365" lon="1.36992">
        <ele>139</ele>
        <time>2019-04-14T12:12:04Z</time>
      </trkpt>
      <trkpt lat="44.4365" lon="1.36989">
        <ele>139</ele>
        <time>2019-04-14T12:12:05Z</time>
      </trkpt>
      <trkpt lat="44.4365" lon="1.36987">
        <ele>139</ele>
        <time>2019-04-14T12:12:06Z</time>
      </trkpt>
      <trkpt lat="44.43649" lon="1.36985">
        <ele>139</ele>
        <time>2019-04-14T12:12:07Z</time>
      </trkpt>
      <trkpt lat="44.43648" lon="1.36982">
        <ele>139</ele>
        <time>2019-04-14T12:12:08Z</time>
      </trkpt>
      <trkpt lat="44.43648" lon="1.36979">
        <ele>139</ele>
        <time>2019-04-14T12:12:09Z</time>
      </trkpt>
      <trkpt lat="44.43647" lon="1.36976">
        <ele>139</ele>
        <time>2019-04-14T12:12:10Z</time>
      </trkpt>
      <trkpt lat="44.43646" lon="1.36973">
        <ele>139</ele>
        <time>2019-04-14T12:12:11Z</time>
      </trkpt>
      <trkpt lat="44.43645" lon="1.3697">
        <ele>139</ele>
        <time>2019-04-14T12:12:12Z</time>
      </trkpt>
      <trkpt lat="44.43644" lon="1.36967">
        <ele>139</ele>
        <time>2019-04-14T12:12:13Z</time>
      </trkpt>
      <trkpt lat="44.43644" lon="1.36963">
        <ele>139</ele>
        <time>2019-04-14T12:12:14Z</time>
      </trkpt>
      <trkpt lat="44.43642" lon="1.36959">
        <ele>139</ele>
        <time>2019-04-14T12:12:15Z</time>
      </trkpt>
      <trkpt lat="44.43641" lon="1.36956">
        <ele>139</ele>
        <time>2019-04-14T12:12:16Z</time>
      </trkpt>
      <trkpt lat="44.4364" lon="1.36952">
        <ele>138</ele>
        <time>2019-04-14T12:12:17Z</time>
      </trkpt>
      <trkpt lat="44.43639" lon="1.36949">
        <ele>138</ele>
        <time>2019-04-14T12:12:18Z</time>
      </trkpt>
      <trkpt lat="44.43638" lon="1.36946">
        <ele>138</ele>
        <time>2019-04-14T12:12:19Z</time>
      </trkpt>
      <trkpt lat="44.43637" lon="1.36943">
        <ele>138</ele>
        <time>2019-04-14T12:12:20Z</time>
      </trkpt>
      <trkpt lat="44.43635" lon="1.3694">
        <ele>138</ele>
        <time>2019-04-14T12:12:21Z</time>
      </trkpt>
      <trkpt lat="44.43634" lon="1.36937">
        <ele>138</ele>
        <time>2019-04-14T12:12:22Z</time>
      </trkpt>
      <trkpt lat="44.43633" lon="1.36934">
        <ele>137</ele>
        <time>2019-04-14T12:12:23Z</time>
      </trkpt>
      <trkpt lat="44.43631" lon="1.36931">
        <ele>137</ele>
        <time>2019-04-14T12:12:24Z</time>
      </trkpt>
      <trkpt lat="44.4363" lon="1.36929">
        <ele>138</ele>
        <time>2019-04-14T12:12:25Z</time>
      </trkpt>
      <trkpt lat="44.4363" lon="1.36926">
        <ele>138</ele>
        <time>2019-04-14T12:12:26Z</time>
      </trkpt>
      <trkpt lat="44.43628" lon="1.36922">
        <ele>138</ele>
        <time>2019-04-14T12:12:27Z</time>
      </trkpt>
      <trkpt lat="44.43627" lon="1.3692">
        <ele>137</ele>
        <time>2019-04-14T12:12:28Z</time>
      </trkpt>
      <trkpt lat="44.43625" lon="1.36917">
        <ele>137</ele>
        <time>2019-04-14T12:12:29Z</time>
      </trkpt>
      <trkpt lat="44.43624" lon="1.36915">
        <ele>137</ele>
        <time>2019-04-14T12:12:30Z</time>
      </trkpt>
      <trkpt lat="44.43623" lon="1.36913">
        <ele>137</ele>
        <time>2019-04-14T12:12:31Z</time>
      </trkpt>
      <trkpt lat="44.43622" lon="1.3691">
        <ele>137</ele>
        <time>2019-04-14T12:12:32Z</time>
      </trkpt>
      <trkpt lat="44.43622" lon="1.36908">
        <ele>137</ele>
        <time>2019-04-14T12:12:33Z</time>
      </trkpt>
      <trkpt lat="44.43621" lon="1.36905">
        <ele>137</ele>
        <time>2019-04-14T12:12:34Z</time>
      </trkpt>
      <trkpt lat="44.4362" lon="1.36902">
        <ele>137</ele>
        <time>2019-04-14T12:12:35Z</time>
      </trkpt>
      <trkpt lat="44.43619" lon="1.36899">
        <ele>137</ele>
        <time>2019-04-14T12:12:36Z</time>
      </trkpt>
      <trkpt lat="44.43619" lon="1.36896">
        <ele>137</ele>
        <time>2019-04-14T12:12:37Z</time>
      </trkpt>
      <trkpt lat="44.43618" lon="1.36894">
        <ele>137</ele>
        <time>2019-04-14T12:12:38Z</time>
      </trkpt>
      <trkpt lat="44.43617" lon="1.36892">
        <ele>137</ele>
        <time>2019-04-14T12:12:39Z</time>
      </trkpt>
      <trkpt lat="44.43616" lon="1.36889">
        <ele>137</ele>
        <time>2019-04-14T12:12:40Z</time>
      </trkpt>
      <trkpt lat="44.43615" lon="1.36886">
        <ele>137</ele>
        <time>2019-04-14T12:12:41Z</time>
      </trkpt>
      <trkpt lat="44.43614" lon="1.36883">
        <ele>137</ele>
        <time>2019-04-14T12:12:42Z</time>
      </trkpt>
      <trkpt lat="44.43613" lon="1.3688">
        <ele>137</ele>
        <time>2019-04-14T12:12:43Z</time>
      </trkpt>
      <trkpt lat="44.43612" lon="1.36878">
        <ele>137</ele>
        <time>2019-04-14T12:12:44Z</time>
      </trkpt>
      <trkpt lat="44.43612" lon="1.36875">
        <ele>137</ele>
        <time>2019-04-14T12:12:45Z</time>
      </trkpt>
      <trkpt lat="44.43611" lon="1.36873">
        <ele>137</ele>
        <time>2019-04-14T12:12:46Z</time>
      </trkpt>
      <trkpt lat="44.43611" lon="1.36871">
        <ele>137</ele>
        <time>2019-04-14T12:12:47Z</time>
      </trkpt>
      <trkpt lat="44.43611" lon="1.36869">
        <ele>137</ele>
        <time>2019-04-14T12:12:48Z</time>
      </trkpt>
      <trkpt lat="44.4361" lon="1.36867">
        <ele>137</ele>
        <time>2019-04-14T12:12:49Z</time>
      </trkpt>
      <trkpt lat="44.4361" lon="1.36866">
        <ele>137</ele>
        <time>2019-04-14T12:12:50Z</time>
      </trkpt>
      <trkpt lat="44.4361" lon="1.36864">
        <ele>137</ele>
        <time>2019-04-14T12:12:51Z</time>
      </trkpt>
      <trkpt lat="44.4361" lon="1.36862">
        <ele>137</ele>
        <time>2019-04-14T12:12:52Z</time>
      </trkpt>
      <trkpt lat="44.4361" lon="1.36859">
        <ele>137</ele>
        <time>2019-04-14T12:12:53Z</time>
      </trkpt>
      <trkpt lat="44.43609" lon="1.36855">
        <ele>137</ele>
        <time>2019-04-14T12:12:54Z</time>
      </trkpt>
      <trkpt lat="44.43609" lon="1.36852">
        <ele>137</ele>
        <time>2019-04-14T12:12:55Z</time>
      </trkpt>
      <trkpt lat="44.43608" lon="1.36849">
        <ele>137</ele>
        <time>2019-04-14T12:12:56Z</time>
      </trkpt>
      <trkpt lat="44.43608" lon="1.36846">
        <ele>137</ele>
        <time>2019-04-14T12:12:57Z</time>
      </trkpt>
      <trkpt lat="44.43607" lon="1.36842">
        <ele>137</ele>
        <time>2019-04-14T12:12:58Z</time>
      </trkpt>
      <trkpt lat="44.43607" lon="1.36838">
        <ele>137</ele>
        <time>2019-04-14T12:12:59Z</time>
      </trkpt>
      <trkpt lat="44.43607" lon="1.36835">
        <ele>137</ele>
        <time>2019-04-14T12:13:00Z</time>
      </trkpt>
      <trkpt lat="44.43607" lon="1.36832">
        <ele>137</ele>
        <time>2019-04-14T12:13:01Z</time>
      </trkpt>
      <trkpt lat="44.43606" lon="1.36829">
        <ele>137</ele>
        <time>2019-04-14T12:13:02Z</time>
      </trkpt>
      <trkpt lat="44.43606" lon="1.36825">
        <ele>137</ele>
        <time>2019-04-14T12:13:03Z</time>
      </trkpt>
      <trkpt lat="44.43606" lon="1.36821">
        <ele>137</ele>
        <time>2019-04-14T12:13:04Z</time>
      </trkpt>
      <trkpt lat="44.43606" lon="1.36817">
        <ele>137</ele>
        <time>2019-04-14T12:13:05Z</time>
      </trkpt>
      <trkpt lat="44.43606" lon="1.36813">
        <ele>137</ele>
        <time>2019-04-14T12:13:06Z</time>
      </trkpt>
      <trkpt lat="44.43606" lon="1.36809">
        <ele>137</ele>
        <time>2019-04-14T12:13:07Z</time>
      </trkpt>
      <trkpt lat="44.43606" lon="1.36805">
        <ele>137</ele>
        <time>2019-04-14T12:13:08Z</time>
      </trkpt>
      <trkpt lat="44.43607" lon="1.36802">
        <ele>137</ele>
        <time>2019-04-14T12:13:09Z</time>
      </trkpt>
      <trkpt lat="44.43607" lon="1.368">
        <ele>137</ele>
        <time>2019-04-14T12:13:10Z</time>
      </trkpt>
      <trkpt lat="44.43608" lon="1.36797">
        <ele>137</ele>
        <time>2019-04-14T12:13:11Z</time>
      </trkpt>
      <trkpt lat="44.43608" lon="1.36794">
        <ele>137</ele>
        <time>2019-04-14T12:13:12Z</time>
      </trkpt>
      <trkpt lat="44.43608" lon="1.36791">
        <ele>137</ele>
        <time>2019-04-14T12:13:13Z</time>
      </trkpt>
      <trkpt lat="44.43608" lon="1.36788">
        <ele>137</ele>
        <time>2019-04-14T12:13:14Z</time>
      </trkpt>
      <trkpt lat="44.43609" lon="1.36785">
        <ele>137</ele>
        <time>2019-04-14T12:13:15Z</time>
      </trkpt>
      <trkpt lat="44.43609" lon="1.36782">
        <ele>137</ele>
        <time>2019-04-14T12:13:16Z</time>
      </trkpt>
      <trkpt lat="44.43609" lon="1.36778">
        <ele>137</ele>
        <time>2019-04-14T12:13:17Z</time>
      </trkpt>
      <trkpt lat="44.43609" lon="1.36774">
        <ele>137</ele>
        <time>2019-04-14T12:13:18Z</time>
      </trkpt>
      <trkpt lat="44.4361" lon="1.36771">
        <ele>137</ele>
        <time>2019-04-14T12:13:19Z</time>
      </trkpt>
      <trkpt lat="44.43611" lon="1.36767">
        <ele>137</ele>
        <time>2019-04-14T12:13:20Z</time>
      </trkpt>
      <trkpt lat="44.43613" lon="1.36764">
        <ele>137</ele>
        <time>2019-04-14T12:13:21Z</time>
      </trkpt>
      <trkpt lat="44.43614" lon="1.3676">
        <ele>137</ele>
        <time>2019-04-14T12:13:22Z</time>
      </trkpt>
      <trkpt lat="44.43615" lon="1.36756">
        <ele>137</ele>
        <time>2019-04-14T12:13:23Z</time>
      </trkpt>
      <trkpt lat="44.43616" lon="1.36751">
        <ele>137</ele>
        <time>2019-04-14T12:13:24Z</time>
      </trkpt>
      <trkpt lat="44.43617" lon="1.36747">
        <ele>137</ele>
        <time>2019-04-14T12:13:25Z</time>
      </trkpt>
      <trkpt lat="44.43618" lon="1.36742">
        <ele>137</ele>
        <time>2019-04-14T12:13:26Z</time>
      </trkpt>
      <trkpt lat="44.43619" lon="1.36737">
        <ele>136</ele>
        <time>2019-04-14T12:13:27Z</time>
      </trkpt>
      <trkpt lat="44.43621" lon="1.36732">
        <ele>136</ele>
        <time>2019-04-14T12:13:28Z</time>
      </trkpt>
      <trkpt lat="44.43622" lon="1.36728">
        <ele>136</ele>
        <time>2019-04-14T12:13:29Z</time>
      </trkpt>
      <trkpt lat="44.43624" lon="1.36723">
        <ele>136</ele>
        <time>2019-04-14T12:13:30Z</time>
      </trkpt>
      <trkpt lat="44.43626" lon="1.36718">
        <ele>136</ele>
        <time>2019-04-14T12:13:31Z</time>
      </trkpt>
      <trkpt lat="44.43626" lon="1.36715">
        <ele>136</ele>
        <time>2019-04-14T12:13:32Z</time>
      </trkpt>
      <trkpt lat="44.43628" lon="1.36711">
        <ele>135</ele>
        <time>2019-04-14T12:13:33Z</time>
      </trkpt>
      <trkpt lat="44.43629" lon="1.36707">
        <ele>135</ele>
        <time>2019-04-14T12:13:34Z</time>
      </trkpt>
      <trkpt lat="44.4363" lon="1.36701">
        <ele>135</ele>
        <time>2019-04-14T12:13:35Z</time>
      </trkpt>
      <trkpt lat="44.43632" lon="1.36696">
        <ele>135</ele>
        <time>2019-04-14T12:13:36Z</time>
      </trkpt>
      <trkpt lat="44.43634" lon="1.36691">
        <ele>135</ele>
        <time>2019-04-14T12:13:37Z</time>
      </trkpt>
      <trkpt lat="44.43636" lon="1.36688">
        <ele>134</ele>
        <time>2019-04-14T12:13:38Z</time>
      </trkpt>
      <trkpt lat="44.43638" lon="1.36684">
        <ele>134</ele>
        <time>2019-04-14T12:13:39Z</time>
      </trkpt>
      <trkpt lat="44.4364" lon="1.36679">
        <ele>134</ele>
        <time>2019-04-14T12:13:40Z</time>
      </trkpt>
      <trkpt lat="44.43642" lon="1.36675">
        <ele>134</ele>
        <time>2019-04-14T12:13:41Z</time>
      </trkpt>
      <trkpt lat="44.43644" lon="1.36671">
        <ele>134</ele>
        <time>2019-04-14T12:13:42Z</time>
      </trkpt>
      <trkpt lat="44.43646" lon="1.36667">
        <ele>134</ele>
        <time>2019-04-14T12:13:43Z</time>
      </trkpt>
      <trkpt lat="44.43648" lon="1.36665">
        <ele>134</ele>
        <time>2019-04-14T12:13:44Z</time>
      </trkpt>
      <trkpt lat="44.43649" lon="1.36662">
        <ele>135</ele>
        <time>2019-04-14T12:13:45Z</time>
      </trkpt>
      <trkpt lat="44.43651" lon="1.36658">
        <ele>135</ele>
        <time>2019-04-14T12:13:46Z</time>
      </trkpt>
      <trkpt lat="44.43652" lon="1.36654">
        <ele>135</ele>
        <time>2019-04-14T12:13:47Z</time>
      </trkpt>
      <trkpt lat="44.43654" lon="1.36651">
        <ele>135</ele>
        <time>2019-04-14T12:13:48Z</time>
      </trkpt>
      <trkpt lat="44.43656" lon="1.36648">
        <ele>135</ele>
        <time>2019-04-14T12:13:49Z</time>
      </trkpt>
      <trkpt lat="44.43658" lon="1.36644">
        <ele>135</ele>
        <time>2019-04-14T12:13:50Z</time>
      </trkpt>
      <trkpt lat="44.4366" lon="1.3664">
        <ele>135</ele>
        <time>2019-04-14T12:13:51Z</time>
      </trkpt>
      <trkpt lat="44.43661" lon="1.36637">
        <ele>135</ele>
        <time>2019-04-14T12:13:52Z</time>
      </trkpt>
      <trkpt lat="44.43663" lon="1.36634">
        <ele>135</ele>
        <time>2019-04-14T12:13:53Z</time>
      </trkpt>
      <trkpt lat="44.43665" lon="1.3663">
        <ele>135</ele>
        <time>2019-04-14T12:13:54Z</time>
      </trkpt>
      <trkpt lat="44.43667" lon="1.36627">
        <ele>135</ele>
        <time>2019-04-14T12:13:55Z</time>
      </trkpt>
      <trkpt lat="44.43669" lon="1.36623">
        <ele>135</ele>
        <time>2019-04-14T12:13:56Z</time>
      </trkpt>
      <trkpt lat="44.43671" lon="1.3662">
        <ele>135</ele>
        <time>2019-04-14T12:13:57Z</time>
      </trkpt>
      <trkpt lat="44.43672" lon="1.36616">
        <ele>135</ele>
        <time>2019-04-14T12:13:58Z</time>
      </trkpt>
      <trkpt lat="44.43674" lon="1.36612">
        <ele>135</ele>
        <time>2019-04-14T12:13:59Z</time>
      </trkpt>
      <trkpt lat="44.43676" lon="1.36609">
        <ele>135</ele>
        <time>2019-04-14T12:14:00Z</time>
      </trkpt>
      <trkpt lat="44.43677" lon="1.36605">
        <ele>135</ele>
        <time>2019-04-14T12:14:01Z</time>
      </trkpt>
      <trkpt lat="44.43678" lon="1.36602">
        <ele>135</ele>
        <time>2019-04-14T12:14:02Z</time>
      </trkpt>
      <trkpt lat="44.43678" lon="1.36599">
        <ele>135</ele>
        <time>2019-04-14T12:14:03Z</time>
      </trkpt>
      <trkpt lat="44.43678" lon="1.36596">
        <ele>135</ele>
        <time>2019-04-14T12:14:04Z</time>
      </trkpt>
      <trkpt lat="44.43678" lon="1.36593">
        <ele>135</ele>
        <time>2019-04-14T12:14:05Z</time>
      </trkpt>
      <trkpt lat="44.43677" lon="1.36591">
        <ele>135</ele>
        <time>2019-04-14T12:14:06Z</time>
      </trkpt>
      <trkpt lat="44.43677" lon="1.36589">
        <ele>135</ele>
        <time>2019-04-14T12:14:07Z</time>
      </trkpt>
      <trkpt lat="44.43676" lon="1.36586">
        <ele>135</ele>
        <time>2019-04-14T12:14:08Z</time>
      </trkpt>
      <trkpt lat="44.43675" lon="1.36583">
        <ele>135</ele>
        <time>2019-04-14T12:14:09Z</time>
      </trkpt>
      <trkpt lat="44.43674" lon="1.3658">
        <ele>135</ele>
        <time>2019-04-14T12:14:10Z</time>
      </trkpt>
      <trkpt lat="44.43673" lon="1.36577">
        <ele>136</ele>
        <time>2019-04-14T12:14:11Z</time>
      </trkpt>
      <trkpt lat="44.43672" lon="1.36575">
        <ele>136</ele>
        <time>2019-04-14T12:14:12Z</time>
      </trkpt>
      <trkpt lat="44.4367" lon="1.36572">
        <ele>136</ele>
        <time>2019-04-14T12:14:13Z</time>
      </trkpt>
      <trkpt lat="44.43669" lon="1.36569">
        <ele>136</ele>
        <time>2019-04-14T12:14:14Z</time>
      </trkpt>
      <trkpt lat="44.43667" lon="1.36566">
        <ele>136</ele>
        <time>2019-04-14T12:14:15Z</time>
      </trkpt>
      <trkpt lat="44.43666" lon="1.36564">
        <ele>136</ele>
        <time>2019-04-14T12:14:16Z</time>
      </trkpt>
      <trkpt lat="44.43665" lon="1.36562">
        <ele>136</ele>
        <time>2019-04-14T12:14:17Z</time>
      </trkpt>
      <trkpt lat="44.43664" lon="1.36559">
        <ele>136</ele>
        <time>2019-04-14T12:14:18Z</time>
      </trkpt>
      <trkpt lat="44.43663" lon="1.36557">
        <ele>136</ele>
        <time>2019-04-14T12:14:19Z</time>
      </trkpt>
      <trkpt lat="44.43662" lon="1.36556">
        <ele>136</ele>
        <time>2019-04-14T12:14:20Z</time>
      </trkpt>
      <trkpt lat="44.43661" lon="1.36555">
        <ele>137</ele>
        <time>2019-04-14T12:14:21Z</time>
      </trkpt>
      <trkpt lat="44.43661" lon="1.36555">
        <ele>137</ele>
        <time>2019-04-14T12:14:22Z</time>
      </trkpt>
      <trkpt lat="44.4366" lon="1.36555">
        <ele>137</ele>
        <time>2019-04-14T12:14:23Z</time>
      </trkpt>
      <trkpt lat="44.43661" lon="1.36555">
        <ele>136</ele>
        <time>2019-04-14T12:14:24Z</time>
      </trkpt>
      <trkpt lat="44.43661" lon="1.36555">
        <ele>136</ele>
        <time>2019-04-14T12:14:25Z</time>
      </trkpt>
      <trkpt lat="44.43661" lon="1.36555">
        <ele>137</ele>
        <time>2019-04-14T12:14:26Z</time>
      </trkpt>
      <trkpt lat="44.43661" lon="1.36555">
        <ele>137</ele>
        <time>2019-04-14T12:14:27Z</time>
      </trkpt>
      <trkpt lat="44.43661" lon="1.36555">
        <ele>137</ele>
        <time>2019-04-14T12:14:28Z</time>
      </trkpt>
      <trkpt lat="44.43676" lon="1.36581">
        <ele>135</ele>
        <time>2019-04-14T12:17:58Z</time>
      </trkpt>
      <trkpt lat="44.43676" lon="1.36586">
        <ele>135</ele>
        <time>2019-04-14T12:17:59Z</time>
      </trkpt>
      <trkpt lat="44.43674" lon="1.36592">
        <ele>135</ele>
        <time>2019-04-14T12:18:00Z</time>
      </trkpt>
      <trkpt lat="44.43671" lon="1.36597">
        <ele>135</ele>
        <time>2019-04-14T12:18:01Z</time>
      </trkpt>
      <trkpt lat="44.43669" lon="1.36601">
        <ele>134</ele>
        <time>2019-04-14T12:18:02Z</time>
      </trkpt>
      <trkpt lat="44.43667" lon="1.36606">
        <ele>134</ele>
        <time>2019-04-14T12:18:03Z</time>
      </trkpt>
      <trkpt lat="44.43665" lon="1.3661">
        <ele>134</ele>
        <time>2019-04-14T12:18:04Z</time>
      </trkpt>
      <trkpt lat="44.43662" lon="1.36613">
        <ele>134</ele>
        <time>2019-04-14T12:18:05Z</time>
      </trkpt>
      <trkpt lat="44.43659" lon="1.36616">
        <ele>134</ele>
        <time>2019-04-14T12:18:06Z</time>
      </trkpt>
      <trkpt lat="44.43656" lon="1.3662">
        <ele>134</ele>
        <time>2019-04-14T12:18:07Z</time>
      </trkpt>
      <trkpt lat="44.43654" lon="1.36625">
        <ele>134</ele>
        <time>2019-04-14T12:18:08Z</time>
      </trkpt>
      <trkpt lat="44.43652" lon="1.36629">
        <ele>134</ele>
        <time>2019-04-14T12:18:09Z</time>
      </trkpt>
      <trkpt lat="44.43649" lon="1.36634">
        <ele>134</ele>
        <time>2019-04-14T12:18:10Z</time>
      </trkpt>
      <trkpt lat="44.43647" lon="1.36639">
        <ele>134</ele>
        <time>2019-04-14T12:18:11Z</time>
      </trkpt>
      <trkpt lat="44.43644" lon="1.36644">
        <ele>134</ele>
        <time>2019-04-14T12:18:12Z</time>
      </trkpt>
      <trkpt lat="44.43642" lon="1.36649">
        <ele>134</ele>
        <time>2019-04-14T12:18:13Z</time>
      </trkpt>
      <trkpt lat="44.4364" lon="1.36654">
        <ele>134</ele>
        <time>2019-04-14T12:18:14Z</time>
      </trkpt>
      <trkpt lat="44.43636" lon="1.36659">
        <ele>134</ele>
        <time>2019-04-14T12:18:15Z</time>
      </trkpt>
      <trkpt lat="44.43634" lon="1.36662">
        <ele>134</ele>
        <time>2019-04-14T12:18:16Z</time>
      </trkpt>
      <trkpt lat="44.43632" lon="1.36665">
        <ele>134</ele>
        <time>2019-04-14T12:18:17Z</time>
      </trkpt>
      <trkpt lat="44.43631" lon="1.36669">
        <ele>134</ele>
        <time>2019-04-14T12:18:18Z</time>
      </trkpt>
      <trkpt lat="44.4363" lon="1.36672">
        <ele>135</ele>
        <time>2019-04-14T12:18:19Z</time>
      </trkpt>
      <trkpt lat="44.43629" lon="1.36677">
        <ele>135</ele>
        <time>2019-04-14T12:18:20Z</time>
      </trkpt>
      <trkpt lat="44.43628" lon="1.36681">
        <ele>135</ele>
        <time>2019-04-14T12:18:21Z</time>
      </trkpt>
      <trkpt lat="44.43626" lon="1.36685">
        <ele>135</ele>
        <time>2019-04-14T12:18:22Z</time>
      </trkpt>
      <trkpt lat="44.43625" lon="1.3669">
        <ele>135</ele>
        <time>2019-04-14T12:18:23Z</time>
      </trkpt>
      <trkpt lat="44.43624" lon="1.36695">
        <ele>135</ele>
        <time>2019-04-14T12:18:24Z</time>
      </trkpt>
      <trkpt lat="44.43623" lon="1.36699">
        <ele>135</ele>
        <time>2019-04-14T12:18:25Z</time>
      </trkpt>
      <trkpt lat="44.43622" lon="1.36705">
        <ele>135</ele>
        <time>2019-04-14T12:18:26Z</time>
      </trkpt>
      <trkpt lat="44.43621" lon="1.3671">
        <ele>136</ele>
        <time>2019-04-14T12:18:27Z</time>
      </trkpt>
      <trkpt lat="44.4362" lon="1.36715">
        <ele>136</ele>
        <time>2019-04-14T12:18:28Z</time>
      </trkpt>
      <trkpt lat="44.43618" lon="1.36721">
        <ele>136</ele>
        <time>2019-04-14T12:18:29Z</time>
      </trkpt>
      <trkpt lat="44.43617" lon="1.36727">
        <ele>136</ele>
        <time>2019-04-14T12:18:30Z</time>
      </trkpt>
      <trkpt lat="44.43616" lon="1.36733">
        <ele>136</ele>
        <time>2019-04-14T12:18:31Z</time>
      </trkpt>
      <trkpt lat="44.43614" lon="1.36738">
        <ele>136</ele>
        <time>2019-04-14T12:18:32Z</time>
      </trkpt>
      <trkpt lat="44.43613" lon="1.36744">
        <ele>137</ele>
        <time>2019-04-14T12:18:33Z</time>
      </trkpt>
      <trkpt lat="44.43612" lon="1.36748">
        <ele>137</ele>
        <time>2019-04-14T12:18:34Z</time>
      </trkpt>
      <trkpt lat="44.43612" lon="1.36751">
        <ele>137</ele>
        <time>2019-04-14T12:18:35Z</time>
      </trkpt>
      <trkpt lat="44.43612" lon="1.36756">
        <ele>137</ele>
        <time>2019-04-14T12:18:36Z</time>
      </trkpt>
      <trkpt lat="44.43612" lon="1.3676">
        <ele>137</ele>
        <time>2019-04-14T12:18:37Z</time>
      </trkpt>
      <trkpt lat="44.43611" lon="1.36763">
        <ele>137</ele>
        <time>2019-04-14T12:18:38Z</time>
      </trkpt>
      <trkpt lat="44.43611" lon="1.36768">
        <ele>137</ele>
        <time>2019-04-14T12:18:39Z</time>
      </trkpt>
      <trkpt lat="44.43611" lon="1.36772">
        <ele>137</ele>
        <time>2019-04-14T12:18:40Z</time>
      </trkpt>
      <trkpt lat="44.43611" lon="1.36778">
        <ele>137</ele>
        <time>2019-04-14T12:18:41Z</time>
      </trkpt>
      <trkpt lat="44.43611" lon="1.36785">
        <ele>137</ele>
        <time>2019-04-14T12:18:42Z</time>
      </trkpt>
      <trkpt lat="44.43611" lon="1.36791">
        <ele>137</ele>
        <time>2019-04-14T12:18:43Z</time>
      </trkpt>
      <trkpt lat="44.43611" lon="1.36796">
        <ele>137</ele>
        <time>2019-04-14T12:18:44Z</time>
      </trkpt>
      <trkpt lat="44.43611" lon="1.36803">
        <ele>137</ele>
        <time>2019-04-14T12:18:45Z</time>
      </trkpt>
      <trkpt lat="44.4361" lon="1.3681">
        <ele>137</ele>
        <time>2019-04-14T12:18:46Z</time>
      </trkpt>
      <trkpt lat="44.43611" lon="1.36815">
        <ele>136</ele>
        <time>2019-04-14T12:18:47Z</time>
      </trkpt>
      <trkpt lat="44.43611" lon="1.36822">
        <ele>136</ele>
        <time>2019-04-14T12:18:48Z</time>
      </trkpt>
      <trkpt lat="44.43611" lon="1.36829">
        <ele>137</ele>
        <time>2019-04-14T12:18:49Z</time>
      </trkpt>
      <trkpt lat="44.43609" lon="1.36836">
        <ele>136</ele>
        <time>2019-04-14T12:18:50Z</time>
      </trkpt>
      <trkpt lat="44.4361" lon="1.36843">
        <ele>137</ele>
        <time>2019-04-14T12:18:51Z</time>
      </trkpt>
      <trkpt lat="44.43611" lon="1.36848">
        <ele>137</ele>
        <time>2019-04-14T12:18:52Z</time>
      </trkpt>
      <trkpt lat="44.43612" lon="1.36854">
        <ele>137</ele>
        <time>2019-04-14T12:18:53Z</time>
      </trkpt>
      <trkpt lat="44.43614" lon="1.36859">
        <ele>137</ele>
        <time>2019-04-14T12:18:54Z</time>
      </trkpt>
      <trkpt lat="44.43615" lon="1.36865">
        <ele>137</ele>
        <time>2019-04-14T12:18:55Z</time>
      </trkpt>
      <trkpt lat="44.43616" lon="1.3687">
        <ele>137</ele>
        <time>2019-04-14T12:18:56Z</time>
      </trkpt>
      <trkpt lat="44.43617" lon="1.36875">
        <ele>137</ele>
        <time>2019-04-14T12:18:57Z</time>
      </trkpt>
      <trkpt lat="44.43617" lon="1.3688">
        <ele>137</ele>
        <time>2019-04-14T12:18:58Z</time>
      </trkpt>
      <trkpt lat="44.43619" lon="1.36885">
        <ele>137</ele>
        <time>2019-04-14T12:18:59Z</time>
      </trkpt>
      <trkpt lat="44.4362" lon="1.36891">
        <ele>137</ele>
        <time>2019-04-14T12:19:00Z</time>
      </trkpt>
      <trkpt lat="44.43622" lon="1.36896">
        <ele>137</ele>
        <time>2019-04-14T12:19:01Z</time>
      </trkpt>
      <trkpt lat="44.43622" lon="1.36901">
        <ele>137</ele>
        <time>2019-04-14T12:19:02Z</time>
      </trkpt>
      <trkpt lat="44.43624" lon="1.36907">
        <ele>137</ele>
        <time>2019-04-14T12:19:03Z</time>
      </trkpt>
      <trkpt lat="44.43625" lon="1.36912">
        <ele>137</ele>
        <time>2019-04-14T12:19:04Z</time>
      </trkpt>
      <trkpt lat="44.43628" lon="1.36918">
        <ele>137</ele>
        <time>2019-04-14T12:19:05Z</time>
      </trkpt>
      <trkpt lat="44.4363" lon="1.36923">
        <ele>137</ele>
        <time>2019-04-14T12:19:06Z</time>
      </trkpt>
      <trkpt lat="44.43632" lon="1.36928">
        <ele>137</ele>
        <time>2019-04-14T12:19:07Z</time>
      </trkpt>
      <trkpt lat="44.43634" lon="1.36934">
        <ele>137</ele>
        <time>2019-04-14T12:19:08Z</time>
      </trkpt>
      <trkpt lat="44.43636" lon="1.36938">
        <ele>138</ele>
        <time>2019-04-14T12:19:09Z</time>
      </trkpt>
      <trkpt lat="44.43638" lon="1.36943">
        <ele>138</ele>
        <time>2019-04-14T12:19:10Z</time>
      </trkpt>
      <trkpt lat="44.43639" lon="1.36947">
        <ele>138</ele>
        <time>2019-04-14T12:19:11Z</time>
      </trkpt>
      <trkpt lat="44.43641" lon="1.36952">
        <ele>138</ele>
        <time>2019-04-14T12:19:12Z</time>
      </trkpt>
      <trkpt lat="44.43642" lon="1.36957">
        <ele>138</ele>
        <time>2019-04-14T12:19:13Z</time>
      </trkpt>
      <trkpt lat="44.43644" lon="1.36962">
        <ele>138</ele>
        <time>2019-04-14T12:19:14Z</time>
      </trkpt>
      <trkpt lat="44.43645" lon="1.36968">
        <ele>138</ele>
        <time>2019-04-14T12:19:15Z</time>
      </trkpt>
      <trkpt lat="44.43646" lon="1.36973">
        <ele>138</ele>
        <time>2019-04-14T12:19:16Z</time>
      </trkpt>
      <trkpt lat="44.43647" lon="1.36978">
        <ele>138</ele>
        <time>2019-04-14T12:19:17Z</time>
      </trkpt>
      <trkpt lat="44.43647" lon="1.36983">
        <ele>139</ele>
        <time>2019-04-14T12:19:18Z</time>
      </trkpt>
      <trkpt lat="44.43647" lon="1.36988">
        <ele>139</ele>
        <time>2019-04-14T12:19:19Z</time>
      </trkpt>
      <trkpt lat="44.43647" lon="1.36993">
        <ele>139</ele>
        <time>2019-04-14T12:19:20Z</time>
      </trkpt>
      <trkpt lat="44.43646" lon="1.36997">
        <ele>139</ele>
        <time>2019-04-14T12:19:21Z</time>
      </trkpt>
      <trkpt lat="44.43646" lon="1.37001">
        <ele>139</ele>
        <time>2019-04-14T12:19:22Z</time>
      </trkpt>
      <trkpt lat="44.43646" lon="1.37006">
        <ele>139</ele>
        <time>2019-04-14T12:19:23Z</time>
      </trkpt>
      <trkpt lat="44.43645" lon="1.37011">
        <ele>139</ele>
        <time>2019-04-14T12:19:24Z</time>
      </trkpt>
      <trkpt lat="44.43644" lon="1.37015">
        <ele>140</ele>
        <time>2019-04-14T12:19:25Z</time>
      </trkpt>
      <trkpt lat="44.43643" lon="1.3702">
        <ele>140</ele>
        <time>2019-04-14T12:19:26Z</time>
      </trkpt>
      <trkpt lat="44.43642" lon="1.37024">
        <ele>140</ele>
        <time>2019-04-14T12:19:27Z</time>
      </trkpt>
      <trkpt lat="44.43641" lon="1.37029">
        <ele>140</ele>
        <time>2019-04-14T12:19:28Z</time>
      </trkpt>
      <trkpt lat="44.4364" lon="1.37034">
        <ele>140</ele>
        <time>2019-04-14T12:19:29Z</time>
      </trkpt>
      <trkpt lat="44.43638" lon="1.37038">
        <ele>140</ele>
        <time>2019-04-14T12:19:30Z</time>
      </trkpt>
      <trkpt lat="44.43637" lon="1.37043">
        <ele>140</ele>
        <time>2019-04-14T12:19:31Z</time>
      </trkpt>
      <trkpt lat="44.43637" lon="1.37048">
        <ele>141</ele>
        <time>2019-04-14T12:19:32Z</time>
      </trkpt>
      <trkpt lat="44.43636" lon="1.37053">
        <ele>141</ele>
        <time>2019-04-14T12:19:33Z</time>
      </trkpt>
      <trkpt lat="44.43635" lon="1.37057">
        <ele>141</ele>
        <time>2019-04-14T12:19:34Z</time>
      </trkpt>
      <trkpt lat="44.43634" lon="1.37062">
        <ele>141</ele>
        <time>2019-04-14T12:19:35Z</time>
      </trkpt>
      <trkpt lat="44.43633" lon="1.37066">
        <ele>141</ele>
        <time>2019-04-14T12:19:36Z</time>
      </trkpt>
      <trkpt lat="44.43632" lon="1.3707">
        <ele>141</ele>
        <time>2019-04-14T12:19:37Z</time>
      </trkpt>
      <trkpt lat="44.4363" lon="1.37075">
        <ele>141</ele>
        <time>2019-04-14T12:19:38Z</time>
      </trkpt>
      <trkpt lat="44.43629" lon="1.37081">
        <ele>141</ele>
        <time>2019-04-14T12:19:39Z</time>
      </trkpt>
      <trkpt lat="44.43628" lon="1.37085">
        <ele>141</ele>
        <time>2019-04-14T12:19:40Z</time>
      </trkpt>
      <trkpt lat="44.43627" lon="1.3709">
        <ele>141</ele>
        <time>2019-04-14T12:19:41Z</time>
      </trkpt>
      <trkpt lat="44.43626" lon="1.37094">
        <ele>141</ele>
        <time>2019-04-14T12:19:42Z</time>
      </trkpt>
      <trkpt lat="44.43625" lon="1.37098">
        <ele>142</ele>
        <time>2019-04-14T12:19:43Z</time>
      </trkpt>
      <trkpt lat="44.43623" lon="1.37101">
        <ele>142</ele>
        <time>2019-04-14T12:19:44Z</time>
      </trkpt>
      <trkpt lat="44.43622" lon="1.37106">
        <ele>142</ele>
        <time>2019-04-14T12:19:45Z</time>
      </trkpt>
      <trkpt lat="44.4362" lon="1.3711">
        <ele>142</ele>
        <time>2019-04-14T12:19:46Z</time>
      </trkpt>
      <trkpt lat="44.43619" lon="1.37113">
        <ele>142</ele>
        <time>2019-04-14T12:19:47Z</time>
      </trkpt>
      <trkpt lat="44.43618" lon="1.37116">
        <ele>142</ele>
        <time>2019-04-14T12:19:48Z</time>
      </trkpt>
      <trkpt lat="44.43617" lon="1.3712">
        <ele>142</ele>
        <time>2019-04-14T12:19:49Z</time>
      </trkpt>
      <trkpt lat="44.43615" lon="1.37124">
        <ele>142</ele>
        <time>2019-04-14T12:19:50Z</time>
      </trkpt>
      <trkpt lat="44.43615" lon="1.37126">
        <ele>142</ele>
        <time>2019-04-14T12:19:51Z</time>
      </trkpt>
      <trkpt lat="44.43614" lon="1.37129">
        <ele>143</ele>
        <time>2019-04-14T12:19:52Z</time>
      </trkpt>
      <trkpt lat="44.43613" lon="1.37133">
        <ele>143</ele>
        <time>2019-04-14T12:19:53Z</time>
      </trkpt>
      <trkpt lat="44.43612" lon="1.37136">
        <ele>143</ele>
        <time>2019-04-14T12:19:54Z</time>
      </trkpt>
      <trkpt lat="44.43612" lon="1.37138">
        <ele>143</ele>
        <time>2019-04-14T12:19:55Z</time>
      </trkpt>
      <trkpt lat="44.43611" lon="1.37142">
        <ele>143</ele>
        <time>2019-04-14T12:19:56Z</time>
      </trkpt>
      <trkpt lat="44.43611" lon="1.37145">
        <ele>143</ele>
        <time>2019-04-14T12:19:57Z</time>
      </trkpt>
      <trkpt lat="44.43611" lon="1.37149">
        <ele>143</ele>
        <time>2019-04-14T12:19:58Z</time>
      </trkpt>
      <trkpt lat="44.4361" lon="1.37151">
        <ele>143</ele>
        <time>2019-04-14T12:19:59Z</time>
      </trkpt>
      <trkpt lat="44.43609" lon="1.37154">
        <ele>143</ele>
        <time>2019-04-14T12:20:00Z</time>
      </trkpt>
      <trkpt lat="44.43608" lon="1.37157">
        <ele>144</ele>
        <time>2019-04-14T12:20:01Z</time>
      </trkpt>
      <trkpt lat="44.43607" lon="1.37161">
        <ele>144</ele>
        <time>2019-04-14T12:20:02Z</time>
      </trkpt>
      <trkpt lat="44.43606" lon="1.37164">
        <ele>144</ele>
        <time>2019-04-14T12:20:03Z</time>
      </trkpt>
      <trkpt lat="44.43606" lon="1.37167">
        <ele>144</ele>
        <time>2019-04-14T12:20:04Z</time>
      </trkpt>
      <trkpt lat="44.43607" lon="1.37169">
        <ele>144</ele>
        <time>2019-04-14T12:20:05Z</time>
      </trkpt>
      <trkpt lat="44.43606" lon="1.37174">
        <ele>144</ele>
        <time>2019-04-14T12:20:06Z</time>
      </trkpt>
      <trkpt lat="44.43605" lon="1.37178">
        <ele>144</ele>
        <time>2019-04-14T12:20:07Z</time>
      </trkpt>
      <trkpt lat="44.43603" lon="1.37182">
        <ele>144</ele>
        <time>2019-04-14T12:20:08Z</time>
      </trkpt>
      <trkpt lat="44.43602" lon="1.37185">
        <ele>144</ele>
        <time>2019-04-14T12:20:09Z</time>
      </trkpt>
      <trkpt lat="44.43602" lon="1.37189">
        <ele>144</ele>
        <time>2019-04-14T12:20:10Z</time>
      </trkpt>
      <trkpt lat="44.436" lon="1.37193">
        <ele>144</ele>
        <time>2019-04-14T12:20:11Z</time>
      </trkpt>
      <trkpt lat="44.43599" lon="1.37198">
        <ele>144</ele>
        <time>2019-04-14T12:20:12Z</time>
      </trkpt>
      <trkpt lat="44.43598" lon="1.37202">
        <ele>144</ele>
        <time>2019-04-14T12:20:13Z</time>
      </trkpt>
      <trkpt lat="44.43597" lon="1.37206">
        <ele>144</ele>
        <time>2019-04-14T12:20:14Z</time>
      </trkpt>
      <trkpt lat="44.43596" lon="1.3721">
        <ele>144</ele>
        <time>2019-04-14T12:20:15Z</time>
      </trkpt>
      <trkpt lat="44.43593" lon="1.37215">
        <ele>144</ele>
        <time>2019-04-14T12:20:16Z</time>
      </trkpt>
      <trkpt lat="44.43591" lon="1.3722">
        <ele>144</ele>
        <time>2019-04-14T12:20:17Z</time>
      </trkpt>
      <trkpt lat="44.4359" lon="1.37224">
        <ele>144</ele>
        <time>2019-04-14T12:20:18Z</time>
      </trkpt>
      <trkpt lat="44.43589" lon="1.37226">
        <ele>144</ele>
        <time>2019-04-14T12:20:19Z</time>
      </trkpt>
      <trkpt lat="44.43588" lon="1.37229">
        <ele>144</ele>
        <time>2019-04-14T12:20:20Z</time>
      </trkpt>
      <trkpt lat="44.43588" lon="1.37231">
        <ele>144</ele>
        <time>2019-04-14T12:20:21Z</time>
      </trkpt>
      <trkpt lat="44.43589" lon="1.37234">
        <ele>144</ele>
        <time>2019-04-14T12:20:22Z</time>
      </trkpt>
      <trkpt lat="44.4359" lon="1.37238">
        <ele>144</ele>
        <time>2019-04-14T12:20:23Z</time>
      </trkpt>
      <trkpt lat="44.43591" lon="1.3724">
        <ele>144</ele>
        <time>2019-04-14T12:20:24Z</time>
      </trkpt>
      <trkpt lat="44.43593" lon="1.37242">
        <ele>143</ele>
        <time>2019-04-14T12:20:25Z</time>
      </trkpt>
      <trkpt lat="44.43595" lon="1.37244">
        <ele>143</ele>
        <time>2019-04-14T12:20:26Z</time>
      </trkpt>
      <trkpt lat="44.43597" lon="1.37247">
        <ele>144</ele>
        <time>2019-04-14T12:20:27Z</time>
      </trkpt>
      <trkpt lat="44.436" lon="1.37248">
        <ele>144</ele>
        <time>2019-04-14T12:20:28Z</time>
      </trkpt>
      <trkpt lat="44.43601" lon="1.3725">
        <ele>144</ele>
        <time>2019-04-14T12:20:29Z</time>
      </trkpt>
      <trkpt lat="44.43603" lon="1.37252">
        <ele>144</ele>
        <time>2019-04-14T12:20:30Z</time>
      </trkpt>
      <trkpt lat="44.43606" lon="1.37253">
        <ele>144</ele>
        <time>2019-04-14T12:20:31Z</time>
      </trkpt>
      <trkpt lat="44.43607" lon="1.37255">
        <ele>144</ele>
        <time>2019-04-14T12:20:32Z</time>
      </trkpt>
      <trkpt lat="44.43609" lon="1.37257">
        <ele>144</ele>
        <time>2019-04-14T12:20:33Z</time>
      </trkpt>
      <trkpt lat="44.43611" lon="1.37258">
        <ele>144</ele>
        <time>2019-04-14T12:20:34Z</time>
      </trkpt>
      <trkpt lat="44.43613" lon="1.37259">
        <ele>144</ele>
        <time>2019-04-14T12:20:35Z</time>
      </trkpt>
      <trkpt lat="44.43614" lon="1.37259">
        <ele>145</ele>
        <time>2019-04-14T12:20:36Z</time>
      </trkpt>
      <trkpt lat="44.43615" lon="1.37261">
        <ele>145</ele>
        <time>2019-04-14T12:20:37Z</time>
      </trkpt>
      <trkpt lat="44.43616" lon="1.37264">
        <ele>145</ele>
        <time>2019-04-14T12:20:38Z</time>
      </trkpt>
      <trkpt lat="44.43616" lon="1.37266">
        <ele>145</ele>
        <time>2019-04-14T12:20:39Z</time>
      </trkpt>
      <trkpt lat="44.43616" lon="1.37268">
        <ele>145</ele>
        <time>2019-04-14T12:20:40Z</time>
      </trkpt>
      <trkpt lat="44.43615" lon="1.37271">
        <ele>145</ele>
        <time>2019-04-14T12:20:41Z</time>
      </trkpt>
      <trkpt lat="44.43614" lon="1.37274">
        <ele>145</ele>
        <time>2019-04-14T12:20:42Z</time>
      </trkpt>
      <trkpt lat="44.43613" lon="1.37277">
        <ele>145</ele>
        <time>2019-04-14T12:20:43Z</time>
      </trkpt>
      <trkpt lat="44.43612" lon="1.3728">
        <ele>145</ele>
        <time>2019-04-14T12:20:44Z</time>
      </trkpt>
      <trkpt lat="44.4361" lon="1.37283">
        <ele>145</ele>
        <time>2019-04-14T12:20:45Z</time>
      </trkpt>
      <trkpt lat="44.43609" lon="1.37287">
        <ele>145</ele>
        <time>2019-04-14T12:20:46Z</time>
      </trkpt>
      <trkpt lat="44.43607" lon="1.37291">
        <ele>145</ele>
        <time>2019-04-14T12:20:47Z</time>
      </trkpt>
      <trkpt lat="44.43606" lon="1.37295">
        <ele>145</ele>
        <time>2019-04-14T12:20:48Z</time>
      </trkpt>
      <trkpt lat="44.43604" lon="1.37299">
        <ele>145</ele>
        <time>2019-04-14T12:20:49Z</time>
      </trkpt>
      <trkpt lat="44.43602" lon="1.37303">
        <ele>145</ele>
        <time>2019-04-14T12:20:50Z</time>
      </trkpt>
      <trkpt lat="44.43601" lon="1.37307">
        <ele>145</ele>
        <time>2019-04-14T12:20:51Z</time>
      </trkpt>
      <trkpt lat="44.43599" lon="1.3731">
        <ele>145</ele>
        <time>2019-04-14T12:20:52Z</time>
      </trkpt>
      <trkpt lat="44.43597" lon="1.37314">
        <ele>145</ele>
        <time>2019-04-14T12:20:53Z</time>
      </trkpt>
      <trkpt lat="44.43596" lon="1.37319">
        <ele>145</ele>
        <time>2019-04-14T12:20:54Z</time>
      </trkpt>
      <trkpt lat="44.43594" lon="1.37321">
        <ele>145</ele>
        <time>2019-04-14T12:20:55Z</time>
      </trkpt>
      <trkpt lat="44.43591" lon="1.37323">
        <ele>145</ele>
        <time>2019-04-14T12:20:56Z</time>
      </trkpt>
      <trkpt lat="44.43588" lon="1.37326">
        <ele>145</ele>
        <time>2019-04-14T12:20:57Z</time>
      </trkpt>
      <trkpt lat="44.43586" lon="1.37328">
        <ele>145</ele>
        <time>2019-04-14T12:20:58Z</time>
      </trkpt>
      <trkpt lat="44.43583" lon="1.37331">
        <ele>145</ele>
        <time>2019-04-14T12:20:59Z</time>
      </trkpt>
      <trkpt lat="44.4358" lon="1.37335">
        <ele>145</ele>
        <time>2019-04-14T12:21:00Z</time>
      </trkpt>
      <trkpt lat="44.43577" lon="1.37339">
        <ele>145</ele>
        <time>2019-04-14T12:21:01Z</time>
      </trkpt>
      <trkpt lat="44.43574" lon="1.37342">
        <ele>145</ele>
        <time>2019-04-14T12:21:02Z</time>
      </trkpt>
      <trkpt lat="44.43571" lon="1.37346">
        <ele>145</ele>
        <time>2019-04-14T12:21:03Z</time>
      </trkpt>
      <trkpt lat="44.43568" lon="1.3735">
        <ele>145</ele>
        <time>2019-04-14T12:21:04Z</time>
      </trkpt>
      <trkpt lat="44.43567" lon="1.37355">
        <ele>145</ele>
        <time>2019-04-14T12:21:05Z</time>
      </trkpt>
      <trkpt lat="44.43565" lon="1.37359">
        <ele>145</ele>
        <time>2019-04-14T12:21:06Z</time>
      </trkpt>
      <trkpt lat="44.43562" lon="1.37363">
        <ele>145</ele>
        <time>2019-04-14T12:21:07Z</time>
      </trkpt>
      <trkpt lat="44.43561" lon="1.37367">
        <ele>145</ele>
        <time>2019-04-14T12:21:08Z</time>
      </trkpt>
      <trkpt lat="44.43559" lon="1.37372">
        <ele>145</ele>
        <time>2019-04-14T12:21:09Z</time>
      </trkpt>
      <trkpt lat="44.43555" lon="1.37374">
        <ele>145</ele>
        <time>2019-04-14T12:21:10Z</time>
      </trkpt>
      <trkpt lat="44.43552" lon="1.37376">
        <ele>145</ele>
        <time>2019-04-14T12:21:11Z</time>
      </trkpt>
      <trkpt lat="44.43548" lon="1.37378">
        <ele>145</ele>
        <time>2019-04-14T12:21:12Z</time>
      </trkpt>
      <trkpt lat="44.43543" lon="1.37378">
        <ele>145</ele>
        <time>2019-04-14T12:21:13Z</time>
      </trkpt>
      <trkpt lat="44.43538" lon="1.37378">
        <ele>145</ele>
        <time>2019-04-14T12:21:14Z</time>
      </trkpt>
      <trkpt lat="44.43534" lon="1.3738">
        <ele>145</ele>
        <time>2019-04-14T12:21:15Z</time>
      </trkpt>
      <trkpt lat="44.43529" lon="1.37384">
        <ele>145</ele>
        <time>2019-04-14T12:21:16Z</time>
      </trkpt>
      <trkpt lat="44.43525" lon="1.37387">
        <ele>145</ele>
        <time>2019-04-14T12:21:17Z</time>
      </trkpt>
      <trkpt lat="44.43522" lon="1.37389">
        <ele>145</ele>
        <time>2019-04-14T12:21:18Z</time>
      </trkpt>
      <trkpt lat="44.43518" lon="1.37391">
        <ele>145</ele>
        <time>2019-04-14T12:21:19Z</time>
      </trkpt>
      <trkpt lat="44.43514" lon="1.37392">
        <ele>146</ele>
        <time>2019-04-14T12:21:20Z</time>
      </trkpt>
      <trkpt lat="44.4351" lon="1.37393">
        <ele>145</ele>
        <time>2019-04-14T12:21:21Z</time>
      </trkpt>
      <trkpt lat="44.43507" lon="1.37395">
        <ele>145</ele>
        <time>2019-04-14T12:21:22Z</time>
      </trkpt>
      <trkpt lat="44.43503" lon="1.37396">
        <ele>146</ele>
        <time>2019-04-14T12:21:23Z</time>
      </trkpt>
      <trkpt lat="44.435" lon="1.37397">
        <ele>146</ele>
        <time>2019-04-14T12:21:24Z</time>
      </trkpt>
      <trkpt lat="44.43497" lon="1.37396">
        <ele>146</ele>
        <time>2019-04-14T12:21:25Z</time>
      </trkpt>
      <trkpt lat="44.43494" lon="1.37396">
        <ele>146</ele>
        <time>2019-04-14T12:21:26Z</time>
      </trkpt>
      <trkpt lat="44.43491" lon="1.37397">
        <ele>146</ele>
        <time>2019-04-14T12:21:27Z</time>
      </trkpt>
      <trkpt lat="44.43488" lon="1.374">
        <ele>146</ele>
        <time>2019-04-14T12:21:28Z</time>
      </trkpt>
      <trkpt lat="44.43486" lon="1.37402">
        <ele>146</ele>
        <time>2019-04-14T12:21:29Z</time>
      </trkpt>
      <trkpt lat="44.43483" lon="1.37403">
        <ele>147</ele>
        <time>2019-04-14T12:21:30Z</time>
      </trkpt>
      <trkpt lat="44.43481" lon="1.37403">
        <ele>147</ele>
        <time>2019-04-14T12:21:31Z</time>
      </trkpt>
      <trkpt lat="44.43478" lon="1.37403">
        <ele>147</ele>
        <time>2019-04-14T12:21:32Z</time>
      </trkpt>
      <trkpt lat="44.43474" lon="1.37405">
        <ele>147</ele>
        <time>2019-04-14T12:21:33Z</time>
      </trkpt>
      <trkpt lat="44.43471" lon="1.37407">
        <ele>147</ele>
        <time>2019-04-14T12:21:34Z</time>
      </trkpt>
      <trkpt lat="44.43467" lon="1.37408">
        <ele>147</ele>
        <time>2019-04-14T12:21:35Z</time>
      </trkpt>
      <trkpt lat="44.43463" lon="1.37412">
        <ele>147</ele>
        <time>2019-04-14T12:21:36Z</time>
      </trkpt>
      <trkpt lat="44.43461" lon="1.37415">
        <ele>148</ele>
        <time>2019-04-14T12:21:37Z</time>
      </trkpt>
      <trkpt lat="44.43458" lon="1.37417">
        <ele>148</ele>
        <time>2019-04-14T12:21:38Z</time>
      </trkpt>
      <trkpt lat="44.43454" lon="1.37417">
        <ele>149</ele>
        <time>2019-04-14T12:21:39Z</time>
      </trkpt>
      <trkpt lat="44.4345" lon="1.37416">
        <ele>148</ele>
        <time>2019-04-14T12:21:40Z</time>
      </trkpt>
      <trkpt lat="44.43446" lon="1.37416">
        <ele>148</ele>
        <time>2019-04-14T12:21:41Z</time>
      </trkpt>
      <trkpt lat="44.43443" lon="1.37418">
        <ele>148</ele>
        <time>2019-04-14T12:21:42Z</time>
      </trkpt>
      <trkpt lat="44.4344" lon="1.3742">
        <ele>148</ele>
        <time>2019-04-14T12:21:43Z</time>
      </trkpt>
      <trkpt lat="44.43437" lon="1.37421">
        <ele>148</ele>
        <time>2019-04-14T12:21:44Z</time>
      </trkpt>
      <trkpt lat="44.43433" lon="1.37422">
        <ele>148</ele>
        <time>2019-04-14T12:21:45Z</time>
      </trkpt>
      <trkpt lat="44.43429" lon="1.37423">
        <ele>148</ele>
        <time>2019-04-14T12:21:46Z</time>
      </trkpt>
      <trkpt lat="44.43426" lon="1.37424">
        <ele>148</ele>
        <time>2019-04-14T12:21:47Z</time>
      </trkpt>
      <trkpt lat="44.43422" lon="1.37426">
        <ele>148</ele>
        <time>2019-04-14T12:21:48Z</time>
      </trkpt>
      <trkpt lat="44.43419" lon="1.37428">
        <ele>148</ele>
        <time>2019-04-14T12:21:49Z</time>
      </trkpt>
      <trkpt lat="44.43416" lon="1.3743">
        <ele>148</ele>
        <time>2019-04-14T12:21:50Z</time>
      </trkpt>
      <trkpt lat="44.43412" lon="1.37429">
        <ele>148</ele>
        <time>2019-04-14T12:21:51Z</time>
      </trkpt>
      <trkpt lat="44.43408" lon="1.37428">
        <ele>148</ele>
        <time>2019-04-14T12:21:52Z</time>
      </trkpt>
      <trkpt lat="44.43404" lon="1.37429">
        <ele>148</ele>
        <time>2019-04-14T12:21:53Z</time>
      </trkpt>
      <trkpt lat="44.434" lon="1.3743">
        <ele>148</ele>
        <time>2019-04-14T12:21:54Z</time>
      </trkpt>
      <trkpt lat="44.43397" lon="1.37431">
        <ele>148</ele>
        <time>2019-04-14T12:21:55Z</time>
      </trkpt>
      <trkpt lat="44.43395" lon="1.37432">
        <ele>148</ele>
        <time>2019-04-14T12:21:56Z</time>
      </trkpt>
      <trkpt lat="44.43393" lon="1.37433">
        <ele>148</ele>
        <time>2019-04-14T12:21:57Z</time>
      </trkpt>
      <trkpt lat="44.43392" lon="1.37434">
        <ele>148</ele>
        <time>2019-04-14T12:21:58Z</time>
      </trkpt>
      <trkpt lat="44.43391" lon="1.37434">
        <ele>148</ele>
        <time>2019-04-14T12:21:59Z</time>
      </trkpt>
      <trkpt lat="44.4339" lon="1.37435">
        <ele>148</ele>
        <time>2019-04-14T12:22:00Z</time>
      </trkpt>
      <trkpt lat="44.43389" lon="1.37436">
        <ele>148</ele>
        <time>2019-04-14T12:22:01Z</time>
      </trkpt>
      <trkpt lat="44.43388" lon="1.37437">
        <ele>148</ele>
        <time>2019-04-14T12:22:02Z</time>
      </trkpt>
      <trkpt lat="44.43385" lon="1.37439">
        <ele>149</ele>
        <time>2019-04-14T12:22:03Z</time>
      </trkpt>
      <trkpt lat="44.43383" lon="1.37441">
        <ele>149</ele>
        <time>2019-04-14T12:22:04Z</time>
      </trkpt>
      <trkpt lat="44.43383" lon="1.37442">
        <ele>149</ele>
        <time>2019-04-14T12:22:05Z</time>
      </trkpt>
      <trkpt lat="44.43383" lon="1.37442">
        <ele>149</ele>
        <time>2019-04-14T12:22:06Z</time>
      </trkpt>
      <trkpt lat="44.43382" lon="1.37442">
        <ele>149</ele>
        <time>2019-04-14T12:22:07Z</time>
      </trkpt>
      <trkpt lat="44.43382" lon="1.37441">
        <ele>149</ele>
        <time>2019-04-14T12:22:08Z</time>
      </trkpt>
      <trkpt lat="44.43381" lon="1.37441">
        <ele>149</ele>
        <time>2019-04-14T12:22:09Z</time>
      </trkpt>
      <trkpt lat="44.43381" lon="1.37441">
        <ele>149</ele>
        <time>2019-04-14T12:22:10Z</time>
      </trkpt>
      <trkpt lat="44.43381" lon="1.3744">
        <ele>149</ele>
        <time>2019-04-14T12:22:11Z</time>
      </trkpt>
      <trkpt lat="44.43381" lon="1.3744">
        <ele>149</ele>
        <time>2019-04-14T12:22:12Z</time>
      </trkpt>
      <trkpt lat="44.43356" lon="1.37453">
        <ele>149</ele>
        <time>2019-04-14T12:24:24Z</time>
      </trkpt>
      <trkpt lat="44.43354" lon="1.37456">
        <ele>149</ele>
        <time>2019-04-14T12:24:25Z</time>
      </trkpt>
      <trkpt lat="44.43351" lon="1.37457">
        <ele>150</ele>
        <time>2019-04-14T12:24:26Z</time>
      </trkpt>
      <trkpt lat="44.43349" lon="1.37459">
        <ele>150</ele>
        <time>2019-04-14T12:24:27Z</time>
      </trkpt>
      <trkpt lat="44.43348" lon="1.37459">
        <ele>150</ele>
        <time>2019-04-14T12:24:28Z</time>
      </trkpt>
      <trkpt lat="44.43345" lon="1.3746">
        <ele>150</ele>
        <time>2019-04-14T12:24:29Z</time>
      </trkpt>
      <trkpt lat="44.43343" lon="1.37461">
        <ele>150</ele>
        <time>2019-04-14T12:24:30Z</time>
      </trkpt>
      <trkpt lat="44.43341" lon="1.37462">
        <ele>150</ele>
        <time>2019-04-14T12:24:31Z</time>
      </trkpt>
      <trkpt lat="44.43339" lon="1.37463">
        <ele>150</ele>
        <time>2019-04-14T12:24:32Z</time>
      </trkpt>
      <trkpt lat="44.43336" lon="1.37464">
        <ele>150</ele>
        <time>2019-04-14T12:24:33Z</time>
      </trkpt>
      <trkpt lat="44.43334" lon="1.37466">
        <ele>150</ele>
        <time>2019-04-14T12:24:34Z</time>
      </trkpt>
      <trkpt lat="44.43332" lon="1.37468">
        <ele>150</ele>
        <time>2019-04-14T12:24:35Z</time>
      </trkpt>
      <trkpt lat="44.4333" lon="1.37469">
        <ele>150</ele>
        <time>2019-04-14T12:24:36Z</time>
      </trkpt>
      <trkpt lat="44.43329" lon="1.37471">
        <ele>151</ele>
        <time>2019-04-14T12:24:37Z</time>
      </trkpt>
      <trkpt lat="44.43327" lon="1.37473">
        <ele>151</ele>
        <time>2019-04-14T12:24:38Z</time>
      </trkpt>
      <trkpt lat="44.43326" lon="1.37474">
        <ele>151</ele>
        <time>2019-04-14T12:24:39Z</time>
      </trkpt>
      <trkpt lat="44.43323" lon="1.37474">
        <ele>151</ele>
        <time>2019-04-14T12:24:40Z</time>
      </trkpt>
      <trkpt lat="44.43322" lon="1.37475">
        <ele>151</ele>
        <time>2019-04-14T12:24:41Z</time>
      </trkpt>
      <trkpt lat="44.43321" lon="1.37476">
        <ele>151</ele>
        <time>2019-04-14T12:24:42Z</time>
      </trkpt>
      <trkpt lat="44.43319" lon="1.37478">
        <ele>151</ele>
        <time>2019-04-14T12:24:43Z</time>
      </trkpt>
      <trkpt lat="44.43317" lon="1.3748">
        <ele>151</ele>
        <time>2019-04-14T12:24:44Z</time>
      </trkpt>
      <trkpt lat="44.43314" lon="1.37482">
        <ele>151</ele>
        <time>2019-04-14T12:24:45Z</time>
      </trkpt>
      <trkpt lat="44.43312" lon="1.37483">
        <ele>151</ele>
        <time>2019-04-14T12:24:46Z</time>
      </trkpt>
      <trkpt lat="44.4331" lon="1.37485">
        <ele>152</ele>
        <time>2019-04-14T12:24:47Z</time>
      </trkpt>
      <trkpt lat="44.43308" lon="1.37486">
        <ele>152</ele>
        <time>2019-04-14T12:24:48Z</time>
      </trkpt>
      <trkpt lat="44.43306" lon="1.37487">
        <ele>152</ele>
        <time>2019-04-14T12:24:49Z</time>
      </trkpt>
      <trkpt lat="44.43304" lon="1.37488">
        <ele>152</ele>
        <time>2019-04-14T12:24:50Z</time>
      </trkpt>
      <trkpt lat="44.43303" lon="1.37489">
        <ele>152</ele>
        <time>2019-04-14T12:24:51Z</time>
      </trkpt>
      <trkpt lat="44.433" lon="1.37491">
        <ele>152</ele>
        <time>2019-04-14T12:24:52Z</time>
      </trkpt>
      <trkpt lat="44.43298" lon="1.37492">
        <ele>153</ele>
        <time>2019-04-14T12:24:53Z</time>
      </trkpt>
      <trkpt lat="44.43297" lon="1.37493">
        <ele>153</ele>
        <time>2019-04-14T12:24:54Z</time>
      </trkpt>
      <trkpt lat="44.43296" lon="1.37493">
        <ele>153</ele>
        <time>2019-04-14T12:24:55Z</time>
      </trkpt>
      <trkpt lat="44.43296" lon="1.37493">
        <ele>153</ele>
        <time>2019-04-14T12:24:56Z</time>
      </trkpt>
      <trkpt lat="44.43294" lon="1.37493">
        <ele>153</ele>
        <time>2019-04-14T12:24:57Z</time>
      </trkpt>
      <trkpt lat="44.43291" lon="1.37493">
        <ele>152</ele>
        <time>2019-04-14T12:24:58Z</time>
      </trkpt>
      <trkpt lat="44.43287" lon="1.37494">
        <ele>152</ele>
        <time>2019-04-14T12:24:59Z</time>
      </trkpt>
      <trkpt lat="44.43284" lon="1.37495">
        <ele>152</ele>
        <time>2019-04-14T12:25:00Z</time>
      </trkpt>
      <trkpt lat="44.43281" lon="1.37497">
        <ele>152</ele>
        <time>2019-04-14T12:25:01Z</time>
      </trkpt>
      <trkpt lat="44.43279" lon="1.37499">
        <ele>152</ele>
        <time>2019-04-14T12:25:02Z</time>
      </trkpt>
      <trkpt lat="44.43277" lon="1.37501">
        <ele>152</ele>
        <time>2019-04-14T12:25:03Z</time>
      </trkpt>
      <trkpt lat="44.43274" lon="1.37503">
        <ele>152</ele>
        <time>2019-04-14T12:25:04Z</time>
      </trkpt>
      <trkpt lat="44.43271" lon="1.37503">
        <ele>152</ele>
        <time>2019-04-14T12:25:05Z</time>
      </trkpt>
      <trkpt lat="44.43268" lon="1.37503">
        <ele>152</ele>
        <time>2019-04-14T12:25:06Z</time>
      </trkpt>
      <trkpt lat="44.43265" lon="1.37506">
        <ele>152</ele>
        <time>2019-04-14T12:25:07Z</time>
      </trkpt>
      <trkpt lat="44.43263" lon="1.37508">
        <ele>152</ele>
        <time>2019-04-14T12:25:08Z</time>
      </trkpt>
      <trkpt lat="44.43261" lon="1.3751">
        <ele>152</ele>
        <time>2019-04-14T12:25:09Z</time>
      </trkpt>
      <trkpt lat="44.43259" lon="1.37511">
        <ele>152</ele>
        <time>2019-04-14T12:25:10Z</time>
      </trkpt>
      <trkpt lat="44.43257" lon="1.37513">
        <ele>152</ele>
        <time>2019-04-14T12:25:11Z</time>
      </trkpt>
      <trkpt lat="44.43255" lon="1.37514">
        <ele>153</ele>
        <time>2019-04-14T12:25:12Z</time>
      </trkpt>
      <trkpt lat="44.43252" lon="1.37515">
        <ele>152</ele>
        <time>2019-04-14T12:25:13Z</time>
      </trkpt>
      <trkpt lat="44.43248" lon="1.37516">
        <ele>152</ele>
        <time>2019-04-14T12:25:14Z</time>
      </trkpt>
      <trkpt lat="44.43246" lon="1.37519">
        <ele>152</ele>
        <time>2019-04-14T12:25:15Z</time>
      </trkpt>
      <trkpt lat="44.43244" lon="1.37521">
        <ele>152</ele>
        <time>2019-04-14T12:25:16Z</time>
      </trkpt>
      <trkpt lat="44.43242" lon="1.37523">
        <ele>152</ele>
        <time>2019-04-14T12:25:17Z</time>
      </trkpt>
      <trkpt lat="44.4324" lon="1.37524">
        <ele>152</ele>
        <time>2019-04-14T12:25:18Z</time>
      </trkpt>
      <trkpt lat="44.43237" lon="1.37525">
        <ele>152</ele>
        <time>2019-04-14T12:25:19Z</time>
      </trkpt>
      <trkpt lat="44.43234" lon="1.37527">
        <ele>153</ele>
        <time>2019-04-14T12:25:20Z</time>
      </trkpt>
      <trkpt lat="44.43231" lon="1.37528">
        <ele>152</ele>
        <time>2019-04-14T12:25:21Z</time>
      </trkpt>
      <trkpt lat="44.43228" lon="1.37529">
        <ele>153</ele>
        <time>2019-04-14T12:25:22Z</time>
      </trkpt>
      <trkpt lat="44.43226" lon="1.37531">
        <ele>153</ele>
        <time>2019-04-14T12:25:23Z</time>
      </trkpt>
      <trkpt lat="44.43223" lon="1.37533">
        <ele>153</ele>
        <time>2019-04-14T12:25:24Z</time>
      </trkpt>
      <trkpt lat="44.43221" lon="1.37536">
        <ele>153</ele>
        <time>2019-04-14T12:25:25Z</time>
      </trkpt>
      <trkpt lat="44.43219" lon="1.37537">
        <ele>153</ele>
        <time>2019-04-14T12:25:26Z</time>
      </trkpt>
      <trkpt lat="44.43217" lon="1.37538">
        <ele>153</ele>
        <time>2019-04-14T12:25:27Z</time>
      </trkpt>
      <trkpt lat="44.43215" lon="1.37539">
        <ele>153</ele>
        <time>2019-04-14T12:25:28Z</time>
      </trkpt>
      <trkpt lat="44.43214" lon="1.3754">
        <ele>153</ele>
        <time>2019-04-14T12:25:29Z</time>
      </trkpt>
      <trkpt lat="44.43212" lon="1.37542">
        <ele>153</ele>
        <time>2019-04-14T12:25:30Z</time>
      </trkpt>
      <trkpt lat="44.43209" lon="1.37544">
        <ele>153</ele>
        <time>2019-04-14T12:25:31Z</time>
      </trkpt>
      <trkpt lat="44.43207" lon="1.37547">
        <ele>153</ele>
        <time>2019-04-14T12:25:32Z</time>
      </trkpt>
      <trkpt lat="44.43204" lon="1.37549">
        <ele>153</ele>
        <time>2019-04-14T12:25:33Z</time>
      </trkpt>
      <trkpt lat="44.43202" lon="1.37553">
        <ele>153</ele>
        <time>2019-04-14T12:25:34Z</time>
      </trkpt>
      <trkpt lat="44.432" lon="1.37557">
        <ele>153</ele>
        <time>2019-04-14T12:25:35Z</time>
      </trkpt>
      <trkpt lat="44.43198" lon="1.37561">
        <ele>154</ele>
        <time>2019-04-14T12:25:36Z</time>
      </trkpt>
      <trkpt lat="44.43196" lon="1.37564">
        <ele>154</ele>
        <time>2019-04-14T12:25:37Z</time>
      </trkpt>
      <trkpt lat="44.43193" lon="1.37567">
        <ele>154</ele>
        <time>2019-04-14T12:25:38Z</time>
      </trkpt>
      <trkpt lat="44.43192" lon="1.37571">
        <ele>154</ele>
        <time>2019-04-14T12:25:39Z</time>
      </trkpt>
      <trkpt lat="44.4319" lon="1.37575">
        <ele>154</ele>
        <time>2019-04-14T12:25:40Z</time>
      </trkpt>
      <trkpt lat="44.43189" lon="1.37579">
        <ele>155</ele>
        <time>2019-04-14T12:25:41Z</time>
      </trkpt>
      <trkpt lat="44.43189" lon="1.37583">
        <ele>155</ele>
        <time>2019-04-14T12:25:42Z</time>
      </trkpt>
      <trkpt lat="44.43188" lon="1.37585">
        <ele>155</ele>
        <time>2019-04-14T12:25:43Z</time>
      </trkpt>
      <trkpt lat="44.43188" lon="1.37588">
        <ele>156</ele>
        <time>2019-04-14T12:25:44Z</time>
      </trkpt>
      <trkpt lat="44.43187" lon="1.3759">
        <ele>156</ele>
        <time>2019-04-14T12:25:45Z</time>
      </trkpt>
      <trkpt lat="44.43186" lon="1.37592">
        <ele>156</ele>
        <time>2019-04-14T12:25:46Z</time>
      </trkpt>
      <trkpt lat="44.43185" lon="1.37594">
        <ele>157</ele>
        <time>2019-04-14T12:25:47Z</time>
      </trkpt>
      <trkpt lat="44.43183" lon="1.37595">
        <ele>156</ele>
        <time>2019-04-14T12:25:48Z</time>
      </trkpt>
      <trkpt lat="44.43182" lon="1.37597">
        <ele>156</ele>
        <time>2019-04-14T12:25:49Z</time>
      </trkpt>
      <trkpt lat="44.43181" lon="1.376">
        <ele>157</ele>
        <time>2019-04-14T12:25:50Z</time>
      </trkpt>
      <trkpt lat="44.4318" lon="1.37603">
        <ele>157</ele>
        <time>2019-04-14T12:25:51Z</time>
      </trkpt>
      <trkpt lat="44.43178" lon="1.37604">
        <ele>157</ele>
        <time>2019-04-14T12:25:52Z</time>
      </trkpt>
      <trkpt lat="44.43174" lon="1.37608">
        <ele>157</ele>
        <time>2019-04-14T12:25:53Z</time>
      </trkpt>
      <trkpt lat="44.43171" lon="1.37612">
        <ele>156</ele>
        <time>2019-04-14T12:25:54Z</time>
      </trkpt>
      <trkpt lat="44.43169" lon="1.37616">
        <ele>156</ele>
        <time>2019-04-14T12:25:55Z</time>
      </trkpt>
      <trkpt lat="44.43168" lon="1.3762">
        <ele>157</ele>
        <time>2019-04-14T12:25:56Z</time>
      </trkpt>
      <trkpt lat="44.43168" lon="1.37623">
        <ele>157</ele>
        <time>2019-04-14T12:25:57Z</time>
      </trkpt>
      <trkpt lat="44.43168" lon="1.37627">
        <ele>157</ele>
        <time>2019-04-14T12:25:58Z</time>
      </trkpt>
      <trkpt lat="44.43167" lon="1.37631">
        <ele>157</ele>
        <time>2019-04-14T12:25:59Z</time>
      </trkpt>
      <trkpt lat="44.43167" lon="1.37634">
        <ele>158</ele>
        <time>2019-04-14T12:26:00Z</time>
      </trkpt>
      <trkpt lat="44.43166" lon="1.37638">
        <ele>158</ele>
        <time>2019-04-14T12:26:01Z</time>
      </trkpt>
      <trkpt lat="44.43164" lon="1.37641">
        <ele>158</ele>
        <time>2019-04-14T12:26:02Z</time>
      </trkpt>
      <trkpt lat="44.43163" lon="1.37644">
        <ele>158</ele>
        <time>2019-04-14T12:26:03Z</time>
      </trkpt>
      <trkpt lat="44.43161" lon="1.37646">
        <ele>158</ele>
        <time>2019-04-14T12:26:04Z</time>
      </trkpt>
      <trkpt lat="44.43161" lon="1.37649">
        <ele>158</ele>
        <time>2019-04-14T12:26:05Z</time>
      </trkpt>
      <trkpt lat="44.43161" lon="1.37653">
        <ele>158</ele>
        <time>2019-04-14T12:26:06Z</time>
      </trkpt>
      <trkpt lat="44.43162" lon="1.37657">
        <ele>158</ele>
        <time>2019-04-14T12:26:07Z</time>
      </trkpt>
      <trkpt lat="44.43163" lon="1.3766">
        <ele>159</ele>
        <time>2019-04-14T12:26:08Z</time>
      </trkpt>
      <trkpt lat="44.43163" lon="1.37662">
        <ele>159</ele>
        <time>2019-04-14T12:26:09Z</time>
      </trkpt>
      <trkpt lat="44.43163" lon="1.37665">
        <ele>160</ele>
        <time>2019-04-14T12:26:10Z</time>
      </trkpt>
      <trkpt lat="44.43163" lon="1.37667">
        <ele>160</ele>
        <time>2019-04-14T12:26:11Z</time>
      </trkpt>
      <trkpt lat="44.43162" lon="1.3767">
        <ele>160</ele>
        <time>2019-04-14T12:26:12Z</time>
      </trkpt>
      <trkpt lat="44.43161" lon="1.37672">
        <ele>160</ele>
        <time>2019-04-14T12:26:13Z</time>
      </trkpt>
      <trkpt lat="44.43158" lon="1.37674">
        <ele>160</ele>
        <time>2019-04-14T12:26:14Z</time>
      </trkpt>
      <trkpt lat="44.43156" lon="1.37678">
        <ele>159</ele>
        <time>2019-04-14T12:26:15Z</time>
      </trkpt>
      <trkpt lat="44.43154" lon="1.37681">
        <ele>159</ele>
        <time>2019-04-14T12:26:16Z</time>
      </trkpt>
      <trkpt lat="44.43152" lon="1.37684">
        <ele>159</ele>
        <time>2019-04-14T12:26:17Z</time>
      </trkpt>
      <trkpt lat="44.4315" lon="1.37687">
        <ele>159</ele>
        <time>2019-04-14T12:26:18Z</time>
      </trkpt>
      <trkpt lat="44.43147" lon="1.37689">
        <ele>159</ele>
        <time>2019-04-14T12:26:19Z</time>
      </trkpt>
      <trkpt lat="44.43143" lon="1.37688">
        <ele>159</ele>
        <time>2019-04-14T12:26:20Z</time>
      </trkpt>
      <trkpt lat="44.43141" lon="1.37686">
        <ele>159</ele>
        <time>2019-04-14T12:26:21Z</time>
      </trkpt>
      <trkpt lat="44.43138" lon="1.37683">
        <ele>159</ele>
        <time>2019-04-14T12:26:22Z</time>
      </trkpt>
      <trkpt lat="44.43136" lon="1.37681">
        <ele>158</ele>
        <time>2019-04-14T12:26:23Z</time>
      </trkpt>
      <trkpt lat="44.43136" lon="1.37678">
        <ele>158</ele>
        <time>2019-04-14T12:26:24Z</time>
      </trkpt>
      <trkpt lat="44.43136" lon="1.37674">
        <ele>158</ele>
        <time>2019-04-14T12:26:25Z</time>
      </trkpt>
      <trkpt lat="44.43136" lon="1.3767">
        <ele>158</ele>
        <time>2019-04-14T12:26:26Z</time>
      </trkpt>
      <trkpt lat="44.43136" lon="1.37665">
        <ele>158</ele>
        <time>2019-04-14T12:26:27Z</time>
      </trkpt>
      <trkpt lat="44.43137" lon="1.3766">
        <ele>157</ele>
        <time>2019-04-14T12:26:28Z</time>
      </trkpt>
      <trkpt lat="44.43136" lon="1.37655">
        <ele>157</ele>
        <time>2019-04-14T12:26:29Z</time>
      </trkpt>
      <trkpt lat="44.43136" lon="1.3765">
        <ele>157</ele>
        <time>2019-04-14T12:26:30Z</time>
      </trkpt>
      <trkpt lat="44.43136" lon="1.37645">
        <ele>157</ele>
        <time>2019-04-14T12:26:31Z</time>
      </trkpt>
      <trkpt lat="44.43136" lon="1.37639">
        <ele>156</ele>
        <time>2019-04-14T12:26:32Z</time>
      </trkpt>
      <trkpt lat="44.43136" lon="1.37634">
        <ele>156</ele>
        <time>2019-04-14T12:26:33Z</time>
      </trkpt>
      <trkpt lat="44.43137" lon="1.37629">
        <ele>156</ele>
        <time>2019-04-14T12:26:34Z</time>
      </trkpt>
      <trkpt lat="44.43138" lon="1.37622">
        <ele>156</ele>
        <time>2019-04-14T12:26:35Z</time>
      </trkpt>
      <trkpt lat="44.43139" lon="1.37617">
        <ele>155</ele>
        <time>2019-04-14T12:26:36Z</time>
      </trkpt>
      <trkpt lat="44.43142" lon="1.37612">
        <ele>155</ele>
        <time>2019-04-14T12:26:37Z</time>
      </trkpt>
      <trkpt lat="44.43145" lon="1.37607">
        <ele>155</ele>
        <time>2019-04-14T12:26:38Z</time>
      </trkpt>
      <trkpt lat="44.43146" lon="1.37602">
        <ele>154</ele>
        <time>2019-04-14T12:26:39Z</time>
      </trkpt>
      <trkpt lat="44.43148" lon="1.37598">
        <ele>154</ele>
        <time>2019-04-14T12:26:40Z</time>
      </trkpt>
      <trkpt lat="44.43149" lon="1.37595">
        <ele>154</ele>
        <time>2019-04-14T12:26:41Z</time>
      </trkpt>
      <trkpt lat="44.43149" lon="1.37593">
        <ele>154</ele>
        <time>2019-04-14T12:26:42Z</time>
      </trkpt>
      <trkpt lat="44.43149" lon="1.3759">
        <ele>154</ele>
        <time>2019-04-14T12:26:43Z</time>
      </trkpt>
      <trkpt lat="44.43148" lon="1.37587">
        <ele>154</ele>
        <time>2019-04-14T12:26:44Z</time>
      </trkpt>
      <trkpt lat="44.43147" lon="1.37585">
        <ele>154</ele>
        <time>2019-04-14T12:26:45Z</time>
      </trkpt>
      <trkpt lat="44.43146" lon="1.37583">
        <ele>154</ele>
        <time>2019-04-14T12:26:46Z</time>
      </trkpt>
      <trkpt lat="44.43144" lon="1.37581">
        <ele>155</ele>
        <time>2019-04-14T12:26:47Z</time>
      </trkpt>
      <trkpt lat="44.43142" lon="1.3758">
        <ele>155</ele>
        <time>2019-04-14T12:26:48Z</time>
      </trkpt>
      <trkpt lat="44.4314" lon="1.37579">
        <ele>155</ele>
        <time>2019-04-14T12:26:49Z</time>
      </trkpt>
      <trkpt lat="44.43137" lon="1.37578">
        <ele>155</ele>
        <time>2019-04-14T12:26:50Z</time>
      </trkpt>
      <trkpt lat="44.43135" lon="1.37577">
        <ele>156</ele>
        <time>2019-04-14T12:26:51Z</time>
      </trkpt>
      <trkpt lat="44.43133" lon="1.37575">
        <ele>156</ele>
        <time>2019-04-14T12:26:52Z</time>
      </trkpt>
      <trkpt lat="44.43131" lon="1.37574">
        <ele>156</ele>
        <time>2019-04-14T12:26:53Z</time>
      </trkpt>
      <trkpt lat="44.43129" lon="1.37574">
        <ele>156</ele>
        <time>2019-04-14T12:26:54Z</time>
      </trkpt>
      <trkpt lat="44.43126" lon="1.37573">
        <ele>157</ele>
        <time>2019-04-14T12:26:55Z</time>
      </trkpt>
      <trkpt lat="44.43124" lon="1.37574">
        <ele>157</ele>
        <time>2019-04-14T12:26:56Z</time>
      </trkpt>
      <trkpt lat="44.43121" lon="1.37574">
        <ele>157</ele>
        <time>2019-04-14T12:26:57Z</time>
      </trkpt>
      <trkpt lat="44.43118" lon="1.37574">
        <ele>157</ele>
        <time>2019-04-14T12:26:58Z</time>
      </trkpt>
      <trkpt lat="44.43115" lon="1.37575">
        <ele>157</ele>
        <time>2019-04-14T12:26:59Z</time>
      </trkpt>
      <trkpt lat="44.43112" lon="1.37576">
        <ele>157</ele>
        <time>2019-04-14T12:27:00Z</time>
      </trkpt>
      <trkpt lat="44.4311" lon="1.37577">
        <ele>157</ele>
        <time>2019-04-14T12:27:01Z</time>
      </trkpt>
      <trkpt lat="44.43107" lon="1.37578">
        <ele>157</ele>
        <time>2019-04-14T12:27:02Z</time>
      </trkpt>
      <trkpt lat="44.43104" lon="1.37578">
        <ele>157</ele>
        <time>2019-04-14T12:27:03Z</time>
      </trkpt>
      <trkpt lat="44.43101" lon="1.37578">
        <ele>157</ele>
        <time>2019-04-14T12:27:04Z</time>
      </trkpt>
      <trkpt lat="44.43098" lon="1.37578">
        <ele>157</ele>
        <time>2019-04-14T12:27:05Z</time>
      </trkpt>
      <trkpt lat="44.43095" lon="1.37579">
        <ele>157</ele>
        <time>2019-04-14T12:27:06Z</time>
      </trkpt>
      <trkpt lat="44.43092" lon="1.3758">
        <ele>157</ele>
        <time>2019-04-14T12:27:07Z</time>
      </trkpt>
      <trkpt lat="44.43089" lon="1.3758">
        <ele>157</ele>
        <time>2019-04-14T12:27:08Z</time>
      </trkpt>
      <trkpt lat="44.43086" lon="1.3758">
        <ele>158</ele>
        <time>2019-04-14T12:27:09Z</time>
      </trkpt>
      <trkpt lat="44.43083" lon="1.3758">
        <ele>158</ele>
        <time>2019-04-14T12:27:10Z</time>
      </trkpt>
      <trkpt lat="44.4308" lon="1.3758">
        <ele>158</ele>
        <time>2019-04-14T12:27:11Z</time>
      </trkpt>
      <trkpt lat="44.43076" lon="1.37581">
        <ele>158</ele>
        <time>2019-04-14T12:27:12Z</time>
      </trkpt>
      <trkpt lat="44.43073" lon="1.37582">
        <ele>158</ele>
        <time>2019-04-14T12:27:13Z</time>
      </trkpt>
      <trkpt lat="44.43071" lon="1.37584">
        <ele>158</ele>
        <time>2019-04-14T12:27:14Z</time>
      </trkpt>
      <trkpt lat="44.43068" lon="1.37585">
        <ele>158</ele>
        <time>2019-04-14T12:27:15Z</time>
      </trkpt>
      <trkpt lat="44.43065" lon="1.37585">
        <ele>158</ele>
        <time>2019-04-14T12:27:16Z</time>
      </trkpt>
      <trkpt lat="44.43062" lon="1.37586">
        <ele>158</ele>
        <time>2019-04-14T12:27:17Z</time>
      </trkpt>
      <trkpt lat="44.4306" lon="1.37585">
        <ele>158</ele>
        <time>2019-04-14T12:27:18Z</time>
      </trkpt>
      <trkpt lat="44.43057" lon="1.37586">
        <ele>158</ele>
        <time>2019-04-14T12:27:19Z</time>
      </trkpt>
      <trkpt lat="44.43054" lon="1.37587">
        <ele>158</ele>
        <time>2019-04-14T12:27:20Z</time>
      </trkpt>
      <trkpt lat="44.43052" lon="1.37588">
        <ele>158</ele>
        <time>2019-04-14T12:27:21Z</time>
      </trkpt>
      <trkpt lat="44.43048" lon="1.37593">
        <ele>158</ele>
        <time>2019-04-14T12:27:22Z</time>
      </trkpt>
      <trkpt lat="44.43044" lon="1.37595">
        <ele>158</ele>
        <time>2019-04-14T12:27:23Z</time>
      </trkpt>
      <trkpt lat="44.43041" lon="1.37594">
        <ele>158</ele>
        <time>2019-04-14T12:27:24Z</time>
      </trkpt>
      <trkpt lat="44.43038" lon="1.37593">
        <ele>158</ele>
        <time>2019-04-14T12:27:25Z</time>
      </trkpt>
      <trkpt lat="44.43035" lon="1.37594">
        <ele>159</ele>
        <time>2019-04-14T12:27:26Z</time>
      </trkpt>
      <trkpt lat="44.43032" lon="1.37596">
        <ele>159</ele>
        <time>2019-04-14T12:27:27Z</time>
      </trkpt>
      <trkpt lat="44.43027" lon="1.37598">
        <ele>159</ele>
        <time>2019-04-14T12:27:28Z</time>
      </trkpt>
      <trkpt lat="44.43024" lon="1.37601">
        <ele>159</ele>
        <time>2019-04-14T12:27:29Z</time>
      </trkpt>
      <trkpt lat="44.4302" lon="1.37604">
        <ele>158</ele>
        <time>2019-04-14T12:27:30Z</time>
      </trkpt>
      <trkpt lat="44.43016" lon="1.37607">
        <ele>158</ele>
        <time>2019-04-14T12:27:31Z</time>
      </trkpt>
      <trkpt lat="44.43013" lon="1.3761">
        <ele>158</ele>
        <time>2019-04-14T12:27:32Z</time>
      </trkpt>
      <trkpt lat="44.4301" lon="1.37614">
        <ele>158</ele>
        <time>2019-04-14T12:27:33Z</time>
      </trkpt>
      <trkpt lat="44.43007" lon="1.37618">
        <ele>158</ele>
        <time>2019-04-14T12:27:34Z</time>
      </trkpt>
      <trkpt lat="44.43003" lon="1.37619">
        <ele>158</ele>
        <time>2019-04-14T12:27:35Z</time>
      </trkpt>
      <trkpt lat="44.43" lon="1.3762">
        <ele>158</ele>
        <time>2019-04-14T12:27:36Z</time>
      </trkpt>
      <trkpt lat="44.42997" lon="1.37621">
        <ele>159</ele>
        <time>2019-04-14T12:27:37Z</time>
      </trkpt>
      <trkpt lat="44.42994" lon="1.37623">
        <ele>159</ele>
        <time>2019-04-14T12:27:38Z</time>
      </trkpt>
      <trkpt lat="44.42992" lon="1.37625">
        <ele>159</ele>
        <time>2019-04-14T12:27:39Z</time>
      </trkpt>
      <trkpt lat="44.42989" lon="1.37628">
        <ele>159</ele>
        <time>2019-04-14T12:27:40Z</time>
      </trkpt>
      <trkpt lat="44.42988" lon="1.37631">
        <ele>159</ele>
        <time>2019-04-14T12:27:41Z</time>
      </trkpt>
      <trkpt lat="44.42988" lon="1.37635">
        <ele>159</ele>
        <time>2019-04-14T12:27:42Z</time>
      </trkpt>
      <trkpt lat="44.42987" lon="1.37637">
        <ele>159</ele>
        <time>2019-04-14T12:27:43Z</time>
      </trkpt>
      <trkpt lat="44.42986" lon="1.37639">
        <ele>159</ele>
        <time>2019-04-14T12:27:44Z</time>
      </trkpt>
      <trkpt lat="44.42984" lon="1.3764">
        <ele>159</ele>
        <time>2019-04-14T12:27:45Z</time>
      </trkpt>
      <trkpt lat="44.42982" lon="1.37643">
        <ele>159</ele>
        <time>2019-04-14T12:27:46Z</time>
      </trkpt>
      <trkpt lat="44.4298" lon="1.37648">
        <ele>159</ele>
        <time>2019-04-14T12:27:47Z</time>
      </trkpt>
      <trkpt lat="44.42979" lon="1.37649">
        <ele>159</ele>
        <time>2019-04-14T12:27:48Z</time>
      </trkpt>
      <trkpt lat="44.42976" lon="1.37653">
        <ele>159</ele>
        <time>2019-04-14T12:27:49Z</time>
      </trkpt>
      <trkpt lat="44.42974" lon="1.37657">
        <ele>159</ele>
        <time>2019-04-14T12:27:50Z</time>
      </trkpt>
      <trkpt lat="44.42972" lon="1.37662">
        <ele>159</ele>
        <time>2019-04-14T12:27:51Z</time>
      </trkpt>
      <trkpt lat="44.4297" lon="1.37665">
        <ele>159</ele>
        <time>2019-04-14T12:27:52Z</time>
      </trkpt>
      <trkpt lat="44.42966" lon="1.37667">
        <ele>160</ele>
        <time>2019-04-14T12:27:53Z</time>
      </trkpt>
      <trkpt lat="44.42963" lon="1.3767">
        <ele>160</ele>
        <time>2019-04-14T12:27:54Z</time>
      </trkpt>
      <trkpt lat="44.4296" lon="1.37674">
        <ele>160</ele>
        <time>2019-04-14T12:27:55Z</time>
      </trkpt>
      <trkpt lat="44.42957" lon="1.37678">
        <ele>161</ele>
        <time>2019-04-14T12:27:56Z</time>
      </trkpt>
      <trkpt lat="44.42953" lon="1.37682">
        <ele>161</ele>
        <time>2019-04-14T12:27:57Z</time>
      </trkpt>
      <trkpt lat="44.4295" lon="1.37686">
        <ele>161</ele>
        <time>2019-04-14T12:27:58Z</time>
      </trkpt>
      <trkpt lat="44.42947" lon="1.37688">
        <ele>161</ele>
        <time>2019-04-14T12:27:59Z</time>
      </trkpt>
      <trkpt lat="44.42943" lon="1.3769">
        <ele>162</ele>
        <time>2019-04-14T12:28:00Z</time>
      </trkpt>
      <trkpt lat="44.4294" lon="1.37691">
        <ele>162</ele>
        <time>2019-04-14T12:28:01Z</time>
      </trkpt>
      <trkpt lat="44.42937" lon="1.37692">
        <ele>162</ele>
        <time>2019-04-14T12:28:02Z</time>
      </trkpt>
      <trkpt lat="44.42935" lon="1.37691">
        <ele>162</ele>
        <time>2019-04-14T12:28:03Z</time>
      </trkpt>
      <trkpt lat="44.42932" lon="1.37689">
        <ele>162</ele>
        <time>2019-04-14T12:28:04Z</time>
      </trkpt>
      <trkpt lat="44.42929" lon="1.37689">
        <ele>162</ele>
        <time>2019-04-14T12:28:05Z</time>
      </trkpt>
      <trkpt lat="44.42927" lon="1.37688">
        <ele>162</ele>
        <time>2019-04-14T12:28:06Z</time>
      </trkpt>
      <trkpt lat="44.42924" lon="1.37686">
        <ele>163</ele>
        <time>2019-04-14T12:28:07Z</time>
      </trkpt>
      <trkpt lat="44.42922" lon="1.37685">
        <ele>163</ele>
        <time>2019-04-14T12:28:08Z</time>
      </trkpt>
      <trkpt lat="44.42919" lon="1.37684">
        <ele>163</ele>
        <time>2019-04-14T12:28:09Z</time>
      </trkpt>
      <trkpt lat="44.42916" lon="1.37683">
        <ele>163</ele>
        <time>2019-04-14T12:28:10Z</time>
      </trkpt>
      <trkpt lat="44.42914" lon="1.37682">
        <ele>163</ele>
        <time>2019-04-14T12:28:11Z</time>
      </trkpt>
      <trkpt lat="44.42911" lon="1.37681">
        <ele>163</ele>
        <time>2019-04-14T12:28:12Z</time>
      </trkpt>
      <trkpt lat="44.42909" lon="1.37679">
        <ele>163</ele>
        <time>2019-04-14T12:28:13Z</time>
      </trkpt>
      <trkpt lat="44.42906" lon="1.37676">
        <ele>163</ele>
        <time>2019-04-14T12:28:14Z</time>
      </trkpt>
      <trkpt lat="44.42903" lon="1.37675">
        <ele>163</ele>
        <time>2019-04-14T12:28:15Z</time>
      </trkpt>
      <trkpt lat="44.42902" lon="1.37673">
        <ele>163</ele>
        <time>2019-04-14T12:28:16Z</time>
      </trkpt>
      <trkpt lat="44.429" lon="1.3767">
        <ele>163</ele>
        <time>2019-04-14T12:28:17Z</time>
      </trkpt>
      <trkpt lat="44.42899" lon="1.37667">
        <ele>163</ele>
        <time>2019-04-14T12:28:18Z</time>
      </trkpt>
      <trkpt lat="44.42897" lon="1.37665">
        <ele>164</ele>
        <time>2019-04-14T12:28:19Z</time>
      </trkpt>
      <trkpt lat="44.42895" lon="1.37664">
        <ele>164</ele>
        <time>2019-04-14T12:28:20Z</time>
      </trkpt>
      <trkpt lat="44.42893" lon="1.37663">
        <ele>164</ele>
        <time>2019-04-14T12:28:21Z</time>
      </trkpt>
      <trkpt lat="44.42891" lon="1.37661">
        <ele>164</ele>
        <time>2019-04-14T12:28:22Z</time>
      </trkpt>
      <trkpt lat="44.42889" lon="1.3766">
        <ele>164</ele>
        <time>2019-04-14T12:28:23Z</time>
      </trkpt>
      <trkpt lat="44.42886" lon="1.37658">
        <ele>164</ele>
        <time>2019-04-14T12:28:24Z</time>
      </trkpt>
      <trkpt lat="44.42885" lon="1.37655">
        <ele>164</ele>
        <time>2019-04-14T12:28:25Z</time>
      </trkpt>
      <trkpt lat="44.42882" lon="1.37653">
        <ele>164</ele>
        <time>2019-04-14T12:28:26Z</time>
      </trkpt>
      <trkpt lat="44.4288" lon="1.3765">
        <ele>164</ele>
        <time>2019-04-14T12:28:27Z</time>
      </trkpt>
      <trkpt lat="44.42878" lon="1.37648">
        <ele>164</ele>
        <time>2019-04-14T12:28:28Z</time>
      </trkpt>
      <trkpt lat="44.42877" lon="1.37647">
        <ele>164</ele>
        <time>2019-04-14T12:28:29Z</time>
      </trkpt>
      <trkpt lat="44.42874" lon="1.37646">
        <ele>164</ele>
        <time>2019-04-14T12:28:30Z</time>
      </trkpt>
      <trkpt lat="44.42873" lon="1.37644">
        <ele>164</ele>
        <time>2019-04-14T12:28:31Z</time>
      </trkpt>
      <trkpt lat="44.42872" lon="1.37639">
        <ele>164</ele>
        <time>2019-04-14T12:28:32Z</time>
      </trkpt>
      <trkpt lat="44.42869" lon="1.37636">
        <ele>165</ele>
        <time>2019-04-14T12:28:33Z</time>
      </trkpt>
      <trkpt lat="44.42868" lon="1.37633">
        <ele>165</ele>
        <time>2019-04-14T12:28:34Z</time>
      </trkpt>
      <trkpt lat="44.42866" lon="1.37629">
        <ele>165</ele>
        <time>2019-04-14T12:28:35Z</time>
      </trkpt>
      <trkpt lat="44.42865" lon="1.37624">
        <ele>165</ele>
        <time>2019-04-14T12:28:36Z</time>
      </trkpt>
      <trkpt lat="44.42863" lon="1.37622">
        <ele>165</ele>
        <time>2019-04-14T12:28:37Z</time>
      </trkpt>
      <trkpt lat="44.4286" lon="1.37619">
        <ele>165</ele>
        <time>2019-04-14T12:28:38Z</time>
      </trkpt>
      <trkpt lat="44.42858" lon="1.37617">
        <ele>165</ele>
        <time>2019-04-14T12:28:39Z</time>
      </trkpt>
      <trkpt lat="44.42856" lon="1.37614">
        <ele>165</ele>
        <time>2019-04-14T12:28:40Z</time>
      </trkpt>
      <trkpt lat="44.42853" lon="1.37613">
        <ele>165</ele>
        <time>2019-04-14T12:28:41Z</time>
      </trkpt>
      <trkpt lat="44.4285" lon="1.37614">
        <ele>165</ele>
        <time>2019-04-14T12:28:42Z</time>
      </trkpt>
      <trkpt lat="44.42847" lon="1.37615">
        <ele>165</ele>
        <time>2019-04-14T12:28:43Z</time>
      </trkpt>
      <trkpt lat="44.42844" lon="1.37616">
        <ele>165</ele>
        <time>2019-04-14T12:28:44Z</time>
      </trkpt>
      <trkpt lat="44.4284" lon="1.37616">
        <ele>165</ele>
        <time>2019-04-14T12:28:45Z</time>
      </trkpt>
      <trkpt lat="44.42837" lon="1.37615">
        <ele>166</ele>
        <time>2019-04-14T12:28:46Z</time>
      </trkpt>
      <trkpt lat="44.42834" lon="1.37613">
        <ele>166</ele>
        <time>2019-04-14T12:28:47Z</time>
      </trkpt>
      <trkpt lat="44.42832" lon="1.3761">
        <ele>166</ele>
        <time>2019-04-14T12:28:48Z</time>
      </trkpt>
      <trkpt lat="44.42831" lon="1.37606">
        <ele>166</ele>
        <time>2019-04-14T12:28:49Z</time>
      </trkpt>
      <trkpt lat="44.4283" lon="1.37604">
        <ele>166</ele>
        <time>2019-04-14T12:28:50Z</time>
      </trkpt>
      <trkpt lat="44.42829" lon="1.376">
        <ele>166</ele>
        <time>2019-04-14T12:28:51Z</time>
      </trkpt>
      <trkpt lat="44.42826" lon="1.37598">
        <ele>166</ele>
        <time>2019-04-14T12:28:52Z</time>
      </trkpt>
      <trkpt lat="44.42823" lon="1.37597">
        <ele>166</ele>
        <time>2019-04-14T12:28:53Z</time>
      </trkpt>
      <trkpt lat="44.42822" lon="1.37594">
        <ele>166</ele>
        <time>2019-04-14T12:28:54Z</time>
      </trkpt>
      <trkpt lat="44.4282" lon="1.37592">
        <ele>166</ele>
        <time>2019-04-14T12:28:55Z</time>
      </trkpt>
      <trkpt lat="44.42818" lon="1.3759">
        <ele>166</ele>
        <time>2019-04-14T12:28:56Z</time>
      </trkpt>
      <trkpt lat="44.42815" lon="1.37589">
        <ele>166</ele>
        <time>2019-04-14T12:28:57Z</time>
      </trkpt>
      <trkpt lat="44.42813" lon="1.37585">
        <ele>166</ele>
        <time>2019-04-14T12:28:58Z</time>
      </trkpt>
      <trkpt lat="44.42811" lon="1.37583">
        <ele>166</ele>
        <time>2019-04-14T12:28:59Z</time>
      </trkpt>
      <trkpt lat="44.42809" lon="1.3758">
        <ele>167</ele>
        <time>2019-04-14T12:29:00Z</time>
      </trkpt>
      <trkpt lat="44.42807" lon="1.37577">
        <ele>167</ele>
        <time>2019-04-14T12:29:01Z</time>
      </trkpt>
      <trkpt lat="44.42805" lon="1.37575">
        <ele>167</ele>
        <time>2019-04-14T12:29:02Z</time>
      </trkpt>
      <trkpt lat="44.42803" lon="1.37572">
        <ele>167</ele>
        <time>2019-04-14T12:29:03Z</time>
      </trkpt>
      <trkpt lat="44.42801" lon="1.37569">
        <ele>167</ele>
        <time>2019-04-14T12:29:04Z</time>
      </trkpt>
      <trkpt lat="44.428" lon="1.37567">
        <ele>167</ele>
        <time>2019-04-14T12:29:05Z</time>
      </trkpt>
      <trkpt lat="44.42798" lon="1.37565">
        <ele>167</ele>
        <time>2019-04-14T12:29:06Z</time>
      </trkpt>
      <trkpt lat="44.42796" lon="1.37564">
        <ele>168</ele>
        <time>2019-04-14T12:29:07Z</time>
      </trkpt>
      <trkpt lat="44.42794" lon="1.37562">
        <ele>168</ele>
        <time>2019-04-14T12:29:08Z</time>
      </trkpt>
      <trkpt lat="44.42793" lon="1.37559">
        <ele>168</ele>
        <time>2019-04-14T12:29:09Z</time>
      </trkpt>
      <trkpt lat="44.42791" lon="1.37556">
        <ele>168</ele>
        <time>2019-04-14T12:29:10Z</time>
      </trkpt>
      <trkpt lat="44.4279" lon="1.37554">
        <ele>168</ele>
        <time>2019-04-14T12:29:11Z</time>
      </trkpt>
      <trkpt lat="44.42787" lon="1.37553">
        <ele>168</ele>
        <time>2019-04-14T12:29:12Z</time>
      </trkpt>
      <trkpt lat="44.42785" lon="1.37552">
        <ele>169</ele>
        <time>2019-04-14T12:29:13Z</time>
      </trkpt>
      <trkpt lat="44.42783" lon="1.37551">
        <ele>169</ele>
        <time>2019-04-14T12:29:14Z</time>
      </trkpt>
      <trkpt lat="44.4278" lon="1.37551">
        <ele>169</ele>
        <time>2019-04-14T12:29:15Z</time>
      </trkpt>
      <trkpt lat="44.42777" lon="1.3755">
        <ele>169</ele>
        <time>2019-04-14T12:29:16Z</time>
      </trkpt>
      <trkpt lat="44.42774" lon="1.3755">
        <ele>169</ele>
        <time>2019-04-14T12:29:17Z</time>
      </trkpt>
      <trkpt lat="44.42771" lon="1.37549">
        <ele>169</ele>
        <time>2019-04-14T12:29:18Z</time>
      </trkpt>
      <trkpt lat="44.42768" lon="1.37549">
        <ele>169</ele>
        <time>2019-04-14T12:29:19Z</time>
      </trkpt>
      <trkpt lat="44.42765" lon="1.37549">
        <ele>170</ele>
        <time>2019-04-14T12:29:20Z</time>
      </trkpt>
      <trkpt lat="44.42763" lon="1.37548">
        <ele>170</ele>
        <time>2019-04-14T12:29:21Z</time>
      </trkpt>
      <trkpt lat="44.4276" lon="1.37548">
        <ele>170</ele>
        <time>2019-04-14T12:29:22Z</time>
      </trkpt>
      <trkpt lat="44.42758" lon="1.37546">
        <ele>170</ele>
        <time>2019-04-14T12:29:23Z</time>
      </trkpt>
      <trkpt lat="44.42756" lon="1.37546">
        <ele>170</ele>
        <time>2019-04-14T12:29:24Z</time>
      </trkpt>
      <trkpt lat="44.42753" lon="1.37546">
        <ele>170</ele>
        <time>2019-04-14T12:29:25Z</time>
      </trkpt>
      <trkpt lat="44.4275" lon="1.37546">
        <ele>170</ele>
        <time>2019-04-14T12:29:26Z</time>
      </trkpt>
      <trkpt lat="44.42748" lon="1.37545">
        <ele>170</ele>
        <time>2019-04-14T12:29:27Z</time>
      </trkpt>
      <trkpt lat="44.42745" lon="1.37546">
        <ele>171</ele>
        <time>2019-04-14T12:29:28Z</time>
      </trkpt>
      <trkpt lat="44.42743" lon="1.37546">
        <ele>171</ele>
        <time>2019-04-14T12:29:29Z</time>
      </trkpt>
      <trkpt lat="44.4274" lon="1.37546">
        <ele>171</ele>
        <time>2019-04-14T12:29:30Z</time>
      </trkpt>
      <trkpt lat="44.42737" lon="1.37546">
        <ele>171</ele>
        <time>2019-04-14T12:29:31Z</time>
      </trkpt>
      <trkpt lat="44.42734" lon="1.37545">
        <ele>171</ele>
        <time>2019-04-14T12:29:32Z</time>
      </trkpt>
      <trkpt lat="44.42732" lon="1.37545">
        <ele>171</ele>
        <time>2019-04-14T12:29:33Z</time>
      </trkpt>
      <trkpt lat="44.42729" lon="1.37545">
        <ele>171</ele>
        <time>2019-04-14T12:29:34Z</time>
      </trkpt>
      <trkpt lat="44.42726" lon="1.37545">
        <ele>171</ele>
        <time>2019-04-14T12:29:35Z</time>
      </trkpt>
      <trkpt lat="44.42723" lon="1.37545">
        <ele>172</ele>
        <time>2019-04-14T12:29:36Z</time>
      </trkpt>
      <trkpt lat="44.4272" lon="1.37545">
        <ele>172</ele>
        <time>2019-04-14T12:29:37Z</time>
      </trkpt>
      <trkpt lat="44.42718" lon="1.37546">
        <ele>172</ele>
        <time>2019-04-14T12:29:38Z</time>
      </trkpt>
      <trkpt lat="44.42715" lon="1.37546">
        <ele>172</ele>
        <time>2019-04-14T12:29:39Z</time>
      </trkpt>
      <trkpt lat="44.42712" lon="1.37546">
        <ele>172</ele>
        <time>2019-04-14T12:29:40Z</time>
      </trkpt>
      <trkpt lat="44.4271" lon="1.37545">
        <ele>172</ele>
        <time>2019-04-14T12:29:41Z</time>
      </trkpt>
      <trkpt lat="44.42707" lon="1.37545">
        <ele>172</ele>
        <time>2019-04-14T12:29:42Z</time>
      </trkpt>
      <trkpt lat="44.42704" lon="1.37545">
        <ele>172</ele>
        <time>2019-04-14T12:29:43Z</time>
      </trkpt>
      <trkpt lat="44.42701" lon="1.37544">
        <ele>172</ele>
        <time>2019-04-14T12:29:44Z</time>
      </trkpt>
      <trkpt lat="44.42698" lon="1.37543">
        <ele>172</ele>
        <time>2019-04-14T12:29:45Z</time>
      </trkpt>
      <trkpt lat="44.42695" lon="1.37543">
        <ele>172</ele>
        <time>2019-04-14T12:29:46Z</time>
      </trkpt>
      <trkpt lat="44.42693" lon="1.37543">
        <ele>172</ele>
        <time>2019-04-14T12:29:47Z</time>
      </trkpt>
      <trkpt lat="44.4269" lon="1.37542">
        <ele>172</ele>
        <time>2019-04-14T12:29:48Z</time>
      </trkpt>
      <trkpt lat="44.42687" lon="1.37542">
        <ele>172</ele>
        <time>2019-04-14T12:29:49Z</time>
      </trkpt>
      <trkpt lat="44.42685" lon="1.3754">
        <ele>172</ele>
        <time>2019-04-14T12:29:50Z</time>
      </trkpt>
      <trkpt lat="44.42683" lon="1.37538">
        <ele>172</ele>
        <time>2019-04-14T12:29:51Z</time>
      </trkpt>
      <trkpt lat="44.42681" lon="1.37538">
        <ele>172</ele>
        <time>2019-04-14T12:29:52Z</time>
      </trkpt>
      <trkpt lat="44.42678" lon="1.37537">
        <ele>172</ele>
        <time>2019-04-14T12:29:53Z</time>
      </trkpt>
      <trkpt lat="44.42675" lon="1.37536">
        <ele>172</ele>
        <time>2019-04-14T12:29:54Z</time>
      </trkpt>
      <trkpt lat="44.42672" lon="1.37536">
        <ele>172</ele>
        <time>2019-04-14T12:29:55Z</time>
      </trkpt>
      <trkpt lat="44.4267" lon="1.37534">
        <ele>172</ele>
        <time>2019-04-14T12:29:56Z</time>
      </trkpt>
      <trkpt lat="44.42668" lon="1.37534">
        <ele>173</ele>
        <time>2019-04-14T12:29:57Z</time>
      </trkpt>
      <trkpt lat="44.42665" lon="1.37533">
        <ele>173</ele>
        <time>2019-04-14T12:29:58Z</time>
      </trkpt>
      <trkpt lat="44.42662" lon="1.37534">
        <ele>173</ele>
        <time>2019-04-14T12:29:59Z</time>
      </trkpt>
      <trkpt lat="44.42659" lon="1.37535">
        <ele>173</ele>
        <time>2019-04-14T12:30:00Z</time>
      </trkpt>
      <trkpt lat="44.42657" lon="1.37534">
        <ele>173</ele>
        <time>2019-04-14T12:30:01Z</time>
      </trkpt>
      <trkpt lat="44.42654" lon="1.37535">
        <ele>173</ele>
        <time>2019-04-14T12:30:02Z</time>
      </trkpt>
      <trkpt lat="44.4265" lon="1.37536">
        <ele>173</ele>
        <time>2019-04-14T12:30:03Z</time>
      </trkpt>
      <trkpt lat="44.42648" lon="1.37536">
        <ele>174</ele>
        <time>2019-04-14T12:30:04Z</time>
      </trkpt>
      <trkpt lat="44.42645" lon="1.37536">
        <ele>174</ele>
        <time>2019-04-14T12:30:05Z</time>
      </trkpt>
      <trkpt lat="44.42642" lon="1.37537">
        <ele>174</ele>
        <time>2019-04-14T12:30:06Z</time>
      </trkpt>
      <trkpt lat="44.42639" lon="1.37537">
        <ele>174</ele>
        <time>2019-04-14T12:30:07Z</time>
      </trkpt>
      <trkpt lat="44.42636" lon="1.37536">
        <ele>174</ele>
        <time>2019-04-14T12:30:08Z</time>
      </trkpt>
      <trkpt lat="44.42633" lon="1.37537">
        <ele>174</ele>
        <time>2019-04-14T12:30:09Z</time>
      </trkpt>
      <trkpt lat="44.42631" lon="1.37538">
        <ele>174</ele>
        <time>2019-04-14T12:30:10Z</time>
      </trkpt>
      <trkpt lat="44.42628" lon="1.37537">
        <ele>174</ele>
        <time>2019-04-14T12:30:11Z</time>
      </trkpt>
      <trkpt lat="44.42626" lon="1.37537">
        <ele>174</ele>
        <time>2019-04-14T12:30:12Z</time>
      </trkpt>
      <trkpt lat="44.42624" lon="1.37537">
        <ele>174</ele>
        <time>2019-04-14T12:30:13Z</time>
      </trkpt>
      <trkpt lat="44.42622" lon="1.37538">
        <ele>174</ele>
        <time>2019-04-14T12:30:14Z</time>
      </trkpt>
      <trkpt lat="44.42621" lon="1.3754">
        <ele>174</ele>
        <time>2019-04-14T12:30:15Z</time>
      </trkpt>
      <trkpt lat="44.4262" lon="1.37541">
        <ele>174</ele>
        <time>2019-04-14T12:30:16Z</time>
      </trkpt>
      <trkpt lat="44.4262" lon="1.37543">
        <ele>175</ele>
        <time>2019-04-14T12:30:17Z</time>
      </trkpt>
      <trkpt lat="44.4262" lon="1.37543">
        <ele>175</ele>
        <time>2019-04-14T12:30:18Z</time>
      </trkpt>
      <trkpt lat="44.42619" lon="1.37544">
        <ele>175</ele>
        <time>2019-04-14T12:30:19Z</time>
      </trkpt>
      <trkpt lat="44.42619" lon="1.37546">
        <ele>175</ele>
        <time>2019-04-14T12:30:20Z</time>
      </trkpt>
      <trkpt lat="44.42616" lon="1.37551">
        <ele>174</ele>
        <time>2019-04-14T12:30:21Z</time>
      </trkpt>
      <trkpt lat="44.42617" lon="1.37554">
        <ele>174</ele>
        <time>2019-04-14T12:30:22Z</time>
      </trkpt>
      <trkpt lat="44.42618" lon="1.37558">
        <ele>174</ele>
        <time>2019-04-14T12:30:23Z</time>
      </trkpt>
      <trkpt lat="44.42618" lon="1.37561">
        <ele>174</ele>
        <time>2019-04-14T12:30:24Z</time>
      </trkpt>
      <trkpt lat="44.42617" lon="1.37564">
        <ele>174</ele>
        <time>2019-04-14T12:30:25Z</time>
      </trkpt>
      <trkpt lat="44.42616" lon="1.37566">
        <ele>175</ele>
        <time>2019-04-14T12:30:26Z</time>
      </trkpt>
      <trkpt lat="44.42616" lon="1.37569">
        <ele>175</ele>
        <time>2019-04-14T12:30:27Z</time>
      </trkpt>
      <trkpt lat="44.42615" lon="1.37572">
        <ele>175</ele>
        <time>2019-04-14T12:30:28Z</time>
      </trkpt>
      <trkpt lat="44.42614" lon="1.37574">
        <ele>175</ele>
        <time>2019-04-14T12:30:29Z</time>
      </trkpt>
      <trkpt lat="44.42613" lon="1.37575">
        <ele>175</ele>
        <time>2019-04-14T12:30:30Z</time>
      </trkpt>
      <trkpt lat="44.42611" lon="1.37578">
        <ele>175</ele>
        <time>2019-04-14T12:30:31Z</time>
      </trkpt>
      <trkpt lat="44.42609" lon="1.3758">
        <ele>175</ele>
        <time>2019-04-14T12:30:32Z</time>
      </trkpt>
      <trkpt lat="44.42607" lon="1.37583">
        <ele>175</ele>
        <time>2019-04-14T12:30:33Z</time>
      </trkpt>
      <trkpt lat="44.42605" lon="1.37586">
        <ele>176</ele>
        <time>2019-04-14T12:30:34Z</time>
      </trkpt>
      <trkpt lat="44.42603" lon="1.37589">
        <ele>176</ele>
        <time>2019-04-14T12:30:35Z</time>
      </trkpt>
      <trkpt lat="44.42602" lon="1.3759">
        <ele>176</ele>
        <time>2019-04-14T12:30:36Z</time>
      </trkpt>
      <trkpt lat="44.42601" lon="1.37591">
        <ele>176</ele>
        <time>2019-04-14T12:30:37Z</time>
      </trkpt>
      <trkpt lat="44.426" lon="1.37593">
        <ele>176</ele>
        <time>2019-04-14T12:30:38Z</time>
      </trkpt>
      <trkpt lat="44.42598" lon="1.37595">
        <ele>177</ele>
        <time>2019-04-14T12:30:39Z</time>
      </trkpt>
      <trkpt lat="44.42596" lon="1.37598">
        <ele>177</ele>
        <time>2019-04-14T12:30:40Z</time>
      </trkpt>
      <trkpt lat="44.42594" lon="1.37599">
        <ele>177</ele>
        <time>2019-04-14T12:30:41Z</time>
      </trkpt>
      <trkpt lat="44.42592" lon="1.376">
        <ele>177</ele>
        <time>2019-04-14T12:30:42Z</time>
      </trkpt>
      <trkpt lat="44.4259" lon="1.37602">
        <ele>178</ele>
        <time>2019-04-14T12:30:43Z</time>
      </trkpt>
      <trkpt lat="44.42589" lon="1.37604">
        <ele>178</ele>
        <time>2019-04-14T12:30:44Z</time>
      </trkpt>
      <trkpt lat="44.42588" lon="1.37606">
        <ele>178</ele>
        <time>2019-04-14T12:30:45Z</time>
      </trkpt>
      <trkpt lat="44.42586" lon="1.37608">
        <ele>178</ele>
        <time>2019-04-14T12:30:46Z</time>
      </trkpt>
      <trkpt lat="44.42584" lon="1.3761">
        <ele>178</ele>
        <time>2019-04-14T12:30:47Z</time>
      </trkpt>
      <trkpt lat="44.42583" lon="1.37612">
        <ele>178</ele>
        <time>2019-04-14T12:30:48Z</time>
      </trkpt>
      <trkpt lat="44.42581" lon="1.37614">
        <ele>178</ele>
        <time>2019-04-14T12:30:49Z</time>
      </trkpt>
      <trkpt lat="44.4258" lon="1.37616">
        <ele>178</ele>
        <time>2019-04-14T12:30:50Z</time>
      </trkpt>
      <trkpt lat="44.42578" lon="1.37618">
        <ele>179</ele>
        <time>2019-04-14T12:30:51Z</time>
      </trkpt>
      <trkpt lat="44.42577" lon="1.37619">
        <ele>179</ele>
        <time>2019-04-14T12:30:52Z</time>
      </trkpt>
      <trkpt lat="44.42575" lon="1.3762">
        <ele>179</ele>
        <time>2019-04-14T12:30:53Z</time>
      </trkpt>
      <trkpt lat="44.42574" lon="1.37621">
        <ele>179</ele>
        <time>2019-04-14T12:30:54Z</time>
      </trkpt>
      <trkpt lat="44.42572" lon="1.37622">
        <ele>180</ele>
        <time>2019-04-14T12:30:55Z</time>
      </trkpt>
      <trkpt lat="44.4257" lon="1.37624">
        <ele>180</ele>
        <time>2019-04-14T12:30:56Z</time>
      </trkpt>
      <trkpt lat="44.42568" lon="1.37626">
        <ele>180</ele>
        <time>2019-04-14T12:30:57Z</time>
      </trkpt>
      <trkpt lat="44.42566" lon="1.37629">
        <ele>180</ele>
        <time>2019-04-14T12:30:58Z</time>
      </trkpt>
      <trkpt lat="44.42565" lon="1.3763">
        <ele>180</ele>
        <time>2019-04-14T12:30:59Z</time>
      </trkpt>
      <trkpt lat="44.42563" lon="1.37633">
        <ele>180</ele>
        <time>2019-04-14T12:31:00Z</time>
      </trkpt>
      <trkpt lat="44.42562" lon="1.37635">
        <ele>180</ele>
        <time>2019-04-14T12:31:01Z</time>
      </trkpt>
      <trkpt lat="44.4256" lon="1.37637">
        <ele>180</ele>
        <time>2019-04-14T12:31:02Z</time>
      </trkpt>
      <trkpt lat="44.4256" lon="1.37641">
        <ele>180</ele>
        <time>2019-04-14T12:31:03Z</time>
      </trkpt>
      <trkpt lat="44.42559" lon="1.37644">
        <ele>180</ele>
        <time>2019-04-14T12:31:04Z</time>
      </trkpt>
      <trkpt lat="44.42558" lon="1.37645">
        <ele>180</ele>
        <time>2019-04-14T12:31:05Z</time>
      </trkpt>
      <trkpt lat="44.42556" lon="1.37647">
        <ele>180</ele>
        <time>2019-04-14T12:31:06Z</time>
      </trkpt>
      <trkpt lat="44.42554" lon="1.37649">
        <ele>180</ele>
        <time>2019-04-14T12:31:07Z</time>
      </trkpt>
      <trkpt lat="44.42552" lon="1.37651">
        <ele>180</ele>
        <time>2019-04-14T12:31:08Z</time>
      </trkpt>
      <trkpt lat="44.42551" lon="1.37653">
        <ele>180</ele>
        <time>2019-04-14T12:31:09Z</time>
      </trkpt>
      <trkpt lat="44.42549" lon="1.37654">
        <ele>181</ele>
        <time>2019-04-14T12:31:10Z</time>
      </trkpt>
      <trkpt lat="44.42547" lon="1.37655">
        <ele>181</ele>
        <time>2019-04-14T12:31:11Z</time>
      </trkpt>
      <trkpt lat="44.42546" lon="1.37657">
        <ele>181</ele>
        <time>2019-04-14T12:31:12Z</time>
      </trkpt>
      <trkpt lat="44.42545" lon="1.37659">
        <ele>181</ele>
        <time>2019-04-14T12:31:13Z</time>
      </trkpt>
      <trkpt lat="44.42544" lon="1.37661">
        <ele>181</ele>
        <time>2019-04-14T12:31:14Z</time>
      </trkpt>
      <trkpt lat="44.42544" lon="1.37664">
        <ele>181</ele>
        <time>2019-04-14T12:31:15Z</time>
      </trkpt>
      <trkpt lat="44.42545" lon="1.37667">
        <ele>181</ele>
        <time>2019-04-14T12:31:16Z</time>
      </trkpt>
      <trkpt lat="44.42545" lon="1.37671">
        <ele>181</ele>
        <time>2019-04-14T12:31:17Z</time>
      </trkpt>
      <trkpt lat="44.42546" lon="1.37674">
        <ele>181</ele>
        <time>2019-04-14T12:31:18Z</time>
      </trkpt>
      <trkpt lat="44.42546" lon="1.37676">
        <ele>181</ele>
        <time>2019-04-14T12:31:19Z</time>
      </trkpt>
      <trkpt lat="44.42545" lon="1.37678">
        <ele>181</ele>
        <time>2019-04-14T12:31:20Z</time>
      </trkpt>
      <trkpt lat="44.42544" lon="1.37681">
        <ele>181</ele>
        <time>2019-04-14T12:31:21Z</time>
      </trkpt>
      <trkpt lat="44.42544" lon="1.37683">
        <ele>182</ele>
        <time>2019-04-14T12:31:22Z</time>
      </trkpt>
      <trkpt lat="44.42543" lon="1.37685">
        <ele>182</ele>
        <time>2019-04-14T12:31:23Z</time>
      </trkpt>
      <trkpt lat="44.42542" lon="1.37687">
        <ele>182</ele>
        <time>2019-04-14T12:31:24Z</time>
      </trkpt>
      <trkpt lat="44.42541" lon="1.37688">
        <ele>182</ele>
        <time>2019-04-14T12:31:25Z</time>
      </trkpt>
      <trkpt lat="44.42539" lon="1.37688">
        <ele>182</ele>
        <time>2019-04-14T12:31:26Z</time>
      </trkpt>
      <trkpt lat="44.42536" lon="1.37688">
        <ele>182</ele>
        <time>2019-04-14T12:31:27Z</time>
      </trkpt>
      <trkpt lat="44.42534" lon="1.37689">
        <ele>182</ele>
        <time>2019-04-14T12:31:28Z</time>
      </trkpt>
      <trkpt lat="44.42532" lon="1.3769">
        <ele>182</ele>
        <time>2019-04-14T12:31:29Z</time>
      </trkpt>
      <trkpt lat="44.42531" lon="1.37691">
        <ele>182</ele>
        <time>2019-04-14T12:31:30Z</time>
      </trkpt>
      <trkpt lat="44.42529" lon="1.37692">
        <ele>182</ele>
        <time>2019-04-14T12:31:31Z</time>
      </trkpt>
      <trkpt lat="44.42528" lon="1.37694">
        <ele>182</ele>
        <time>2019-04-14T12:31:32Z</time>
      </trkpt>
      <trkpt lat="44.42527" lon="1.37694">
        <ele>182</ele>
        <time>2019-04-14T12:31:33Z</time>
      </trkpt>
      <trkpt lat="44.42527" lon="1.37695">
        <ele>182</ele>
        <time>2019-04-14T12:31:34Z</time>
      </trkpt>
      <trkpt lat="44.42525" lon="1.37696">
        <ele>182</ele>
        <time>2019-04-14T12:31:35Z</time>
      </trkpt>
      <trkpt lat="44.42524" lon="1.37697">
        <ele>182</ele>
        <time>2019-04-14T12:31:36Z</time>
      </trkpt>
      <trkpt lat="44.42522" lon="1.37698">
        <ele>182</ele>
        <time>2019-04-14T12:31:37Z</time>
      </trkpt>
      <trkpt lat="44.4252" lon="1.37698">
        <ele>182</ele>
        <time>2019-04-14T12:31:38Z</time>
      </trkpt>
      <trkpt lat="44.42518" lon="1.37698">
        <ele>182</ele>
        <time>2019-04-14T12:31:39Z</time>
      </trkpt>
      <trkpt lat="44.42516" lon="1.37698">
        <ele>182</ele>
        <time>2019-04-14T12:31:40Z</time>
      </trkpt>
      <trkpt lat="44.42514" lon="1.37698">
        <ele>182</ele>
        <time>2019-04-14T12:31:41Z</time>
      </trkpt>
      <trkpt lat="44.42512" lon="1.37698">
        <ele>183</ele>
        <time>2019-04-14T12:31:42Z</time>
      </trkpt>
      <trkpt lat="44.4251" lon="1.37698">
        <ele>183</ele>
        <time>2019-04-14T12:31:43Z</time>
      </trkpt>
      <trkpt lat="44.42507" lon="1.37699">
        <ele>183</ele>
        <time>2019-04-14T12:31:44Z</time>
      </trkpt>
      <trkpt lat="44.42505" lon="1.37701">
        <ele>183</ele>
        <time>2019-04-14T12:31:45Z</time>
      </trkpt>
      <trkpt lat="44.42503" lon="1.37702">
        <ele>183</ele>
        <time>2019-04-14T12:31:46Z</time>
      </trkpt>
      <trkpt lat="44.42501" lon="1.37703">
        <ele>183</ele>
        <time>2019-04-14T12:31:47Z</time>
      </trkpt>
      <trkpt lat="44.425" lon="1.37705">
        <ele>183</ele>
        <time>2019-04-14T12:31:48Z</time>
      </trkpt>
      <trkpt lat="44.425" lon="1.37707">
        <ele>183</ele>
        <time>2019-04-14T12:31:49Z</time>
      </trkpt>
      <trkpt lat="44.425" lon="1.37709">
        <ele>183</ele>
        <time>2019-04-14T12:31:50Z</time>
      </trkpt>
      <trkpt lat="44.42499" lon="1.37711">
        <ele>183</ele>
        <time>2019-04-14T12:31:51Z</time>
      </trkpt>
      <trkpt lat="44.42497" lon="1.37712">
        <ele>183</ele>
        <time>2019-04-14T12:31:52Z</time>
      </trkpt>
      <trkpt lat="44.42495" lon="1.37713">
        <ele>183</ele>
        <time>2019-04-14T12:31:53Z</time>
      </trkpt>
      <trkpt lat="44.42493" lon="1.37713">
        <ele>183</ele>
        <time>2019-04-14T12:31:54Z</time>
      </trkpt>
      <trkpt lat="44.42492" lon="1.37714">
        <ele>184</ele>
        <time>2019-04-14T12:31:55Z</time>
      </trkpt>
      <trkpt lat="44.42491" lon="1.37715">
        <ele>184</ele>
        <time>2019-04-14T12:31:56Z</time>
      </trkpt>
      <trkpt lat="44.42489" lon="1.37717">
        <ele>184</ele>
        <time>2019-04-14T12:31:57Z</time>
      </trkpt>
      <trkpt lat="44.42487" lon="1.37718">
        <ele>184</ele>
        <time>2019-04-14T12:31:58Z</time>
      </trkpt>
      <trkpt lat="44.42485" lon="1.37719">
        <ele>184</ele>
        <time>2019-04-14T12:31:59Z</time>
      </trkpt>
      <trkpt lat="44.42482" lon="1.3772">
        <ele>184</ele>
        <time>2019-04-14T12:32:00Z</time>
      </trkpt>
      <trkpt lat="44.4248" lon="1.37722">
        <ele>185</ele>
        <time>2019-04-14T12:32:01Z</time>
      </trkpt>
      <trkpt lat="44.42479" lon="1.37723">
        <ele>185</ele>
        <time>2019-04-14T12:32:02Z</time>
      </trkpt>
      <trkpt lat="44.42477" lon="1.37724">
        <ele>185</ele>
        <time>2019-04-14T12:32:03Z</time>
      </trkpt>
      <trkpt lat="44.42477" lon="1.37725">
        <ele>186</ele>
        <time>2019-04-14T12:32:04Z</time>
      </trkpt>
      <trkpt lat="44.42476" lon="1.37726">
        <ele>186</ele>
        <time>2019-04-14T12:32:05Z</time>
      </trkpt>
      <trkpt lat="44.42474" lon="1.37727">
        <ele>186</ele>
        <time>2019-04-14T12:32:06Z</time>
      </trkpt>
      <trkpt lat="44.42472" lon="1.37728">
        <ele>186</ele>
        <time>2019-04-14T12:32:07Z</time>
      </trkpt>
      <trkpt lat="44.4247" lon="1.37729">
        <ele>186</ele>
        <time>2019-04-14T12:32:08Z</time>
      </trkpt>
      <trkpt lat="44.42467" lon="1.37728">
        <ele>186</ele>
        <time>2019-04-14T12:32:09Z</time>
      </trkpt>
      <trkpt lat="44.42465" lon="1.37727">
        <ele>186</ele>
        <time>2019-04-14T12:32:10Z</time>
      </trkpt>
      <trkpt lat="44.42463" lon="1.37725">
        <ele>186</ele>
        <time>2019-04-14T12:32:11Z</time>
      </trkpt>
      <trkpt lat="44.4246" lon="1.37725">
        <ele>186</ele>
        <time>2019-04-14T12:32:12Z</time>
      </trkpt>
      <trkpt lat="44.42457" lon="1.37724">
        <ele>186</ele>
        <time>2019-04-14T12:32:13Z</time>
      </trkpt>
      <trkpt lat="44.42455" lon="1.37723">
        <ele>186</ele>
        <time>2019-04-14T12:32:14Z</time>
      </trkpt>
      <trkpt lat="44.42453" lon="1.37722">
        <ele>186</ele>
        <time>2019-04-14T12:32:15Z</time>
      </trkpt>
      <trkpt lat="44.42451" lon="1.37722">
        <ele>186</ele>
        <time>2019-04-14T12:32:16Z</time>
      </trkpt>
      <trkpt lat="44.4245" lon="1.37721">
        <ele>186</ele>
        <time>2019-04-14T12:32:17Z</time>
      </trkpt>
      <trkpt lat="44.42448" lon="1.37719">
        <ele>186</ele>
        <time>2019-04-14T12:32:18Z</time>
      </trkpt>
      <trkpt lat="44.42447" lon="1.37719">
        <ele>187</ele>
        <time>2019-04-14T12:32:19Z</time>
      </trkpt>
      <trkpt lat="44.42444" lon="1.3772">
        <ele>187</ele>
        <time>2019-04-14T12:32:20Z</time>
      </trkpt>
      <trkpt lat="44.42442" lon="1.37721">
        <ele>187</ele>
        <time>2019-04-14T12:32:21Z</time>
      </trkpt>
      <trkpt lat="44.42439" lon="1.37721">
        <ele>187</ele>
        <time>2019-04-14T12:32:22Z</time>
      </trkpt>
      <trkpt lat="44.42437" lon="1.37723">
        <ele>187</ele>
        <time>2019-04-14T12:32:23Z</time>
      </trkpt>
      <trkpt lat="44.42435" lon="1.37724">
        <ele>187</ele>
        <time>2019-04-14T12:32:24Z</time>
      </trkpt>
      <trkpt lat="44.42433" lon="1.37725">
        <ele>187</ele>
        <time>2019-04-14T12:32:25Z</time>
      </trkpt>
      <trkpt lat="44.42431" lon="1.37726">
        <ele>188</ele>
        <time>2019-04-14T12:32:26Z</time>
      </trkpt>
      <trkpt lat="44.42428" lon="1.37728">
        <ele>188</ele>
        <time>2019-04-14T12:32:27Z</time>
      </trkpt>
      <trkpt lat="44.42426" lon="1.37728">
        <ele>188</ele>
        <time>2019-04-14T12:32:28Z</time>
      </trkpt>
      <trkpt lat="44.42425" lon="1.37729">
        <ele>188</ele>
        <time>2019-04-14T12:32:29Z</time>
      </trkpt>
      <trkpt lat="44.42423" lon="1.3773">
        <ele>188</ele>
        <time>2019-04-14T12:32:30Z</time>
      </trkpt>
      <trkpt lat="44.42421" lon="1.37731">
        <ele>188</ele>
        <time>2019-04-14T12:32:31Z</time>
      </trkpt>
      <trkpt lat="44.4242" lon="1.37732">
        <ele>188</ele>
        <time>2019-04-14T12:32:32Z</time>
      </trkpt>
      <trkpt lat="44.42418" lon="1.37733">
        <ele>188</ele>
        <time>2019-04-14T12:32:33Z</time>
      </trkpt>
      <trkpt lat="44.42416" lon="1.37735">
        <ele>188</ele>
        <time>2019-04-14T12:32:34Z</time>
      </trkpt>
      <trkpt lat="44.42415" lon="1.37737">
        <ele>188</ele>
        <time>2019-04-14T12:32:35Z</time>
      </trkpt>
      <trkpt lat="44.42414" lon="1.3774">
        <ele>188</ele>
        <time>2019-04-14T12:32:36Z</time>
      </trkpt>
      <trkpt lat="44.42414" lon="1.37742">
        <ele>188</ele>
        <time>2019-04-14T12:32:37Z</time>
      </trkpt>
      <trkpt lat="44.42413" lon="1.37744">
        <ele>189</ele>
        <time>2019-04-14T12:32:38Z</time>
      </trkpt>
      <trkpt lat="44.42412" lon="1.37745">
        <ele>189</ele>
        <time>2019-04-14T12:32:39Z</time>
      </trkpt>
      <trkpt lat="44.4241" lon="1.37746">
        <ele>189</ele>
        <time>2019-04-14T12:32:40Z</time>
      </trkpt>
      <trkpt lat="44.42408" lon="1.37747">
        <ele>189</ele>
        <time>2019-04-14T12:32:41Z</time>
      </trkpt>
      <trkpt lat="44.42405" lon="1.37748">
        <ele>189</ele>
        <time>2019-04-14T12:32:42Z</time>
      </trkpt>
      <trkpt lat="44.42403" lon="1.37749">
        <ele>189</ele>
        <time>2019-04-14T12:32:43Z</time>
      </trkpt>
      <trkpt lat="44.42401" lon="1.37749">
        <ele>189</ele>
        <time>2019-04-14T12:32:44Z</time>
      </trkpt>
      <trkpt lat="44.42399" lon="1.3775">
        <ele>189</ele>
        <time>2019-04-14T12:32:45Z</time>
      </trkpt>
      <trkpt lat="44.42397" lon="1.3775">
        <ele>189</ele>
        <time>2019-04-14T12:32:46Z</time>
      </trkpt>
      <trkpt lat="44.42395" lon="1.37751">
        <ele>189</ele>
        <time>2019-04-14T12:32:47Z</time>
      </trkpt>
      <trkpt lat="44.42393" lon="1.37752">
        <ele>190</ele>
        <time>2019-04-14T12:32:48Z</time>
      </trkpt>
      <trkpt lat="44.42392" lon="1.37753">
        <ele>190</ele>
        <time>2019-04-14T12:32:49Z</time>
      </trkpt>
      <trkpt lat="44.4239" lon="1.37753">
        <ele>190</ele>
        <time>2019-04-14T12:32:50Z</time>
      </trkpt>
      <trkpt lat="44.42389" lon="1.37754">
        <ele>190</ele>
        <time>2019-04-14T12:32:51Z</time>
      </trkpt>
      <trkpt lat="44.42387" lon="1.37754">
        <ele>190</ele>
        <time>2019-04-14T12:32:52Z</time>
      </trkpt>
      <trkpt lat="44.42385" lon="1.37755">
        <ele>190</ele>
        <time>2019-04-14T12:32:53Z</time>
      </trkpt>
      <trkpt lat="44.42383" lon="1.37756">
        <ele>190</ele>
        <time>2019-04-14T12:32:54Z</time>
      </trkpt>
      <trkpt lat="44.42381" lon="1.37755">
        <ele>190</ele>
        <time>2019-04-14T12:32:55Z</time>
      </trkpt>
      <trkpt lat="44.42379" lon="1.37755">
        <ele>190</ele>
        <time>2019-04-14T12:32:56Z</time>
      </trkpt>
      <trkpt lat="44.42377" lon="1.37755">
        <ele>190</ele>
        <time>2019-04-14T12:32:57Z</time>
      </trkpt>
      <trkpt lat="44.42374" lon="1.37756">
        <ele>190</ele>
        <time>2019-04-14T12:32:58Z</time>
      </trkpt>
      <trkpt lat="44.42372" lon="1.37757">
        <ele>190</ele>
        <time>2019-04-14T12:32:59Z</time>
      </trkpt>
      <trkpt lat="44.42369" lon="1.37757">
        <ele>191</ele>
        <time>2019-04-14T12:33:00Z</time>
      </trkpt>
      <trkpt lat="44.42366" lon="1.37757">
        <ele>191</ele>
        <time>2019-04-14T12:33:01Z</time>
      </trkpt>
      <trkpt lat="44.42364" lon="1.37757">
        <ele>191</ele>
        <time>2019-04-14T12:33:02Z</time>
      </trkpt>
      <trkpt lat="44.42362" lon="1.37758">
        <ele>191</ele>
        <time>2019-04-14T12:33:03Z</time>
      </trkpt>
      <trkpt lat="44.4236" lon="1.37759">
        <ele>191</ele>
        <time>2019-04-14T12:33:04Z</time>
      </trkpt>
      <trkpt lat="44.42358" lon="1.3776">
        <ele>191</ele>
        <time>2019-04-14T12:33:05Z</time>
      </trkpt>
      <trkpt lat="44.42356" lon="1.3776">
        <ele>191</ele>
        <time>2019-04-14T12:33:06Z</time>
      </trkpt>
      <trkpt lat="44.42354" lon="1.37761">
        <ele>191</ele>
        <time>2019-04-14T12:33:07Z</time>
      </trkpt>
      <trkpt lat="44.42352" lon="1.37762">
        <ele>191</ele>
        <time>2019-04-14T12:33:08Z</time>
      </trkpt>
      <trkpt lat="44.42349" lon="1.37763">
        <ele>191</ele>
        <time>2019-04-14T12:33:09Z</time>
      </trkpt>
      <trkpt lat="44.42347" lon="1.37764">
        <ele>192</ele>
        <time>2019-04-14T12:33:10Z</time>
      </trkpt>
      <trkpt lat="44.42345" lon="1.37765">
        <ele>192</ele>
        <time>2019-04-14T12:33:11Z</time>
      </trkpt>
      <trkpt lat="44.42343" lon="1.37767">
        <ele>192</ele>
        <time>2019-04-14T12:33:12Z</time>
      </trkpt>
      <trkpt lat="44.4234" lon="1.37769">
        <ele>192</ele>
        <time>2019-04-14T12:33:13Z</time>
      </trkpt>
      <trkpt lat="44.42339" lon="1.3777">
        <ele>192</ele>
        <time>2019-04-14T12:33:14Z</time>
      </trkpt>
      <trkpt lat="44.42336" lon="1.37773">
        <ele>192</ele>
        <time>2019-04-14T12:33:15Z</time>
      </trkpt>
      <trkpt lat="44.42334" lon="1.37775">
        <ele>192</ele>
        <time>2019-04-14T12:33:16Z</time>
      </trkpt>
      <trkpt lat="44.42331" lon="1.37777">
        <ele>192</ele>
        <time>2019-04-14T12:33:17Z</time>
      </trkpt>
      <trkpt lat="44.42328" lon="1.37779">
        <ele>192</ele>
        <time>2019-04-14T12:33:18Z</time>
      </trkpt>
      <trkpt lat="44.42326" lon="1.37781">
        <ele>192</ele>
        <time>2019-04-14T12:33:19Z</time>
      </trkpt>
      <trkpt lat="44.42324" lon="1.37782">
        <ele>192</ele>
        <time>2019-04-14T12:33:20Z</time>
      </trkpt>
      <trkpt lat="44.42322" lon="1.37784">
        <ele>193</ele>
        <time>2019-04-14T12:33:21Z</time>
      </trkpt>
      <trkpt lat="44.42319" lon="1.37786">
        <ele>193</ele>
        <time>2019-04-14T12:33:22Z</time>
      </trkpt>
      <trkpt lat="44.42317" lon="1.37788">
        <ele>193</ele>
        <time>2019-04-14T12:33:23Z</time>
      </trkpt>
      <trkpt lat="44.42315" lon="1.37789">
        <ele>193</ele>
        <time>2019-04-14T12:33:24Z</time>
      </trkpt>
      <trkpt lat="44.42313" lon="1.3779">
        <ele>193</ele>
        <time>2019-04-14T12:33:25Z</time>
      </trkpt>
      <trkpt lat="44.42311" lon="1.37792">
        <ele>194</ele>
        <time>2019-04-14T12:33:26Z</time>
      </trkpt>
      <trkpt lat="44.42311" lon="1.37793">
        <ele>194</ele>
        <time>2019-04-14T12:33:27Z</time>
      </trkpt>
      <trkpt lat="44.4231" lon="1.37794">
        <ele>194</ele>
        <time>2019-04-14T12:33:28Z</time>
      </trkpt>
      <trkpt lat="44.42308" lon="1.37795">
        <ele>194</ele>
        <time>2019-04-14T12:33:29Z</time>
      </trkpt>
      <trkpt lat="44.42305" lon="1.37796">
        <ele>194</ele>
        <time>2019-04-14T12:33:30Z</time>
      </trkpt>
      <trkpt lat="44.42303" lon="1.37798">
        <ele>195</ele>
        <time>2019-04-14T12:33:31Z</time>
      </trkpt>
      <trkpt lat="44.42301" lon="1.378">
        <ele>195</ele>
        <time>2019-04-14T12:33:32Z</time>
      </trkpt>
      <trkpt lat="44.42298" lon="1.378">
        <ele>195</ele>
        <time>2019-04-14T12:33:33Z</time>
      </trkpt>
      <trkpt lat="44.42296" lon="1.37801">
        <ele>195</ele>
        <time>2019-04-14T12:33:34Z</time>
      </trkpt>
      <trkpt lat="44.42294" lon="1.37801">
        <ele>195</ele>
        <time>2019-04-14T12:33:35Z</time>
      </trkpt>
      <trkpt lat="44.42292" lon="1.37801">
        <ele>195</ele>
        <time>2019-04-14T12:33:36Z</time>
      </trkpt>
      <trkpt lat="44.42289" lon="1.37801">
        <ele>195</ele>
        <time>2019-04-14T12:33:37Z</time>
      </trkpt>
      <trkpt lat="44.42286" lon="1.37802">
        <ele>195</ele>
        <time>2019-04-14T12:33:38Z</time>
      </trkpt>
      <trkpt lat="44.42283" lon="1.37803">
        <ele>195</ele>
        <time>2019-04-14T12:33:39Z</time>
      </trkpt>
      <trkpt lat="44.42281" lon="1.37804">
        <ele>195</ele>
        <time>2019-04-14T12:33:40Z</time>
      </trkpt>
      <trkpt lat="44.42278" lon="1.37805">
        <ele>195</ele>
        <time>2019-04-14T12:33:41Z</time>
      </trkpt>
      <trkpt lat="44.42276" lon="1.37805">
        <ele>195</ele>
        <time>2019-04-14T12:33:42Z</time>
      </trkpt>
      <trkpt lat="44.42273" lon="1.37806">
        <ele>195</ele>
        <time>2019-04-14T12:33:43Z</time>
      </trkpt>
      <trkpt lat="44.42271" lon="1.37806">
        <ele>195</ele>
        <time>2019-04-14T12:33:44Z</time>
      </trkpt>
      <trkpt lat="44.42268" lon="1.37808">
        <ele>196</ele>
        <time>2019-04-14T12:33:45Z</time>
      </trkpt>
      <trkpt lat="44.42266" lon="1.37809">
        <ele>196</ele>
        <time>2019-04-14T12:33:46Z</time>
      </trkpt>
      <trkpt lat="44.42264" lon="1.3781">
        <ele>196</ele>
        <time>2019-04-14T12:33:47Z</time>
      </trkpt>
      <trkpt lat="44.42262" lon="1.3781">
        <ele>196</ele>
        <time>2019-04-14T12:33:48Z</time>
      </trkpt>
      <trkpt lat="44.4226" lon="1.37809">
        <ele>196</ele>
        <time>2019-04-14T12:33:49Z</time>
      </trkpt>
      <trkpt lat="44.42258" lon="1.3781">
        <ele>196</ele>
        <time>2019-04-14T12:33:50Z</time>
      </trkpt>
      <trkpt lat="44.42256" lon="1.37811">
        <ele>196</ele>
        <time>2019-04-14T12:33:51Z</time>
      </trkpt>
      <trkpt lat="44.42254" lon="1.37811">
        <ele>196</ele>
        <time>2019-04-14T12:33:52Z</time>
      </trkpt>
      <trkpt lat="44.42253" lon="1.37809">
        <ele>196</ele>
        <time>2019-04-14T12:33:53Z</time>
      </trkpt>
      <trkpt lat="44.42251" lon="1.37807">
        <ele>197</ele>
        <time>2019-04-14T12:33:54Z</time>
      </trkpt>
      <trkpt lat="44.42249" lon="1.37806">
        <ele>197</ele>
        <time>2019-04-14T12:33:55Z</time>
      </trkpt>
      <trkpt lat="44.42247" lon="1.37805">
        <ele>197</ele>
        <time>2019-04-14T12:33:56Z</time>
      </trkpt>
      <trkpt lat="44.42244" lon="1.37805">
        <ele>197</ele>
        <time>2019-04-14T12:33:57Z</time>
      </trkpt>
      <trkpt lat="44.42242" lon="1.37803">
        <ele>197</ele>
        <time>2019-04-14T12:33:58Z</time>
      </trkpt>
      <trkpt lat="44.4224" lon="1.37801">
        <ele>198</ele>
        <time>2019-04-14T12:33:59Z</time>
      </trkpt>
      <trkpt lat="44.42238" lon="1.378">
        <ele>198</ele>
        <time>2019-04-14T12:34:00Z</time>
      </trkpt>
      <trkpt lat="44.42236" lon="1.37799">
        <ele>198</ele>
        <time>2019-04-14T12:34:01Z</time>
      </trkpt>
      <trkpt lat="44.42233" lon="1.378">
        <ele>198</ele>
        <time>2019-04-14T12:34:02Z</time>
      </trkpt>
      <trkpt lat="44.42231" lon="1.37801">
        <ele>199</ele>
        <time>2019-04-14T12:34:03Z</time>
      </trkpt>
      <trkpt lat="44.42228" lon="1.37801">
        <ele>198</ele>
        <time>2019-04-14T12:34:04Z</time>
      </trkpt>
      <trkpt lat="44.42226" lon="1.37801">
        <ele>198</ele>
        <time>2019-04-14T12:34:05Z</time>
      </trkpt>
      <trkpt lat="44.42223" lon="1.37801">
        <ele>198</ele>
        <time>2019-04-14T12:34:06Z</time>
      </trkpt>
      <trkpt lat="44.4222" lon="1.37802">
        <ele>198</ele>
        <time>2019-04-14T12:34:07Z</time>
      </trkpt>
      <trkpt lat="44.42219" lon="1.37803">
        <ele>199</ele>
        <time>2019-04-14T12:34:08Z</time>
      </trkpt>
      <trkpt lat="44.42218" lon="1.37803">
        <ele>199</ele>
        <time>2019-04-14T12:34:09Z</time>
      </trkpt>
      <trkpt lat="44.42216" lon="1.37805">
        <ele>199</ele>
        <time>2019-04-14T12:34:10Z</time>
      </trkpt>
      <trkpt lat="44.42214" lon="1.37806">
        <ele>199</ele>
        <time>2019-04-14T12:34:11Z</time>
      </trkpt>
      <trkpt lat="44.42213" lon="1.37805">
        <ele>199</ele>
        <time>2019-04-14T12:34:12Z</time>
      </trkpt>
      <trkpt lat="44.42213" lon="1.37803">
        <ele>199</ele>
        <time>2019-04-14T12:34:13Z</time>
      </trkpt>
      <trkpt lat="44.42211" lon="1.37801">
        <ele>199</ele>
        <time>2019-04-14T12:34:14Z</time>
      </trkpt>
      <trkpt lat="44.42208" lon="1.37802">
        <ele>199</ele>
        <time>2019-04-14T12:34:15Z</time>
      </trkpt>
      <trkpt lat="44.42206" lon="1.37802">
        <ele>199</ele>
        <time>2019-04-14T12:34:16Z</time>
      </trkpt>
      <trkpt lat="44.42204" lon="1.37802">
        <ele>200</ele>
        <time>2019-04-14T12:34:17Z</time>
      </trkpt>
      <trkpt lat="44.42202" lon="1.37801">
        <ele>200</ele>
        <time>2019-04-14T12:34:18Z</time>
      </trkpt>
      <trkpt lat="44.422" lon="1.37799">
        <ele>200</ele>
        <time>2019-04-14T12:34:19Z</time>
      </trkpt>
      <trkpt lat="44.42198" lon="1.37799">
        <ele>200</ele>
        <time>2019-04-14T12:34:20Z</time>
      </trkpt>
      <trkpt lat="44.42196" lon="1.37798">
        <ele>200</ele>
        <time>2019-04-14T12:34:21Z</time>
      </trkpt>
      <trkpt lat="44.42194" lon="1.37797">
        <ele>200</ele>
        <time>2019-04-14T12:34:22Z</time>
      </trkpt>
      <trkpt lat="44.42193" lon="1.37796">
        <ele>200</ele>
        <time>2019-04-14T12:34:23Z</time>
      </trkpt>
      <trkpt lat="44.42192" lon="1.37795">
        <ele>200</ele>
        <time>2019-04-14T12:34:24Z</time>
      </trkpt>
      <trkpt lat="44.42191" lon="1.37793">
        <ele>201</ele>
        <time>2019-04-14T12:34:25Z</time>
      </trkpt>
      <trkpt lat="44.42188" lon="1.37792">
        <ele>201</ele>
        <time>2019-04-14T12:34:26Z</time>
      </trkpt>
      <trkpt lat="44.42185" lon="1.37792">
        <ele>201</ele>
        <time>2019-04-14T12:34:27Z</time>
      </trkpt>
      <trkpt lat="44.42182" lon="1.37792">
        <ele>201</ele>
        <time>2019-04-14T12:34:28Z</time>
      </trkpt>
      <trkpt lat="44.4218" lon="1.37792">
        <ele>201</ele>
        <time>2019-04-14T12:34:29Z</time>
      </trkpt>
      <trkpt lat="44.42178" lon="1.37792">
        <ele>201</ele>
        <time>2019-04-14T12:34:30Z</time>
      </trkpt>
      <trkpt lat="44.42175" lon="1.37796">
        <ele>201</ele>
        <time>2019-04-14T12:34:31Z</time>
      </trkpt>
      <trkpt lat="44.42173" lon="1.37797">
        <ele>201</ele>
        <time>2019-04-14T12:34:32Z</time>
      </trkpt>
      <trkpt lat="44.4217" lon="1.37796">
        <ele>201</ele>
        <time>2019-04-14T12:34:33Z</time>
      </trkpt>
      <trkpt lat="44.42168" lon="1.37796">
        <ele>201</ele>
        <time>2019-04-14T12:34:34Z</time>
      </trkpt>
      <trkpt lat="44.42167" lon="1.37796">
        <ele>201</ele>
        <time>2019-04-14T12:34:35Z</time>
      </trkpt>
      <trkpt lat="44.42164" lon="1.37796">
        <ele>202</ele>
        <time>2019-04-14T12:34:36Z</time>
      </trkpt>
      <trkpt lat="44.42162" lon="1.37796">
        <ele>202</ele>
        <time>2019-04-14T12:34:37Z</time>
      </trkpt>
      <trkpt lat="44.42159" lon="1.37795">
        <ele>202</ele>
        <time>2019-04-14T12:34:38Z</time>
      </trkpt>
      <trkpt lat="44.42157" lon="1.37794">
        <ele>202</ele>
        <time>2019-04-14T12:34:39Z</time>
      </trkpt>
      <trkpt lat="44.42156" lon="1.37793">
        <ele>202</ele>
        <time>2019-04-14T12:34:40Z</time>
      </trkpt>
      <trkpt lat="44.42155" lon="1.37791">
        <ele>202</ele>
        <time>2019-04-14T12:34:41Z</time>
      </trkpt>
      <trkpt lat="44.42155" lon="1.37788">
        <ele>202</ele>
        <time>2019-04-14T12:34:42Z</time>
      </trkpt>
      <trkpt lat="44.42154" lon="1.37786">
        <ele>202</ele>
        <time>2019-04-14T12:34:43Z</time>
      </trkpt>
      <trkpt lat="44.42153" lon="1.37784">
        <ele>202</ele>
        <time>2019-04-14T12:34:44Z</time>
      </trkpt>
      <trkpt lat="44.4215" lon="1.37783">
        <ele>202</ele>
        <time>2019-04-14T12:34:45Z</time>
      </trkpt>
      <trkpt lat="44.42149" lon="1.37782">
        <ele>203</ele>
        <time>2019-04-14T12:34:46Z</time>
      </trkpt>
      <trkpt lat="44.42147" lon="1.37781">
        <ele>203</ele>
        <time>2019-04-14T12:34:47Z</time>
      </trkpt>
      <trkpt lat="44.42147" lon="1.37778">
        <ele>203</ele>
        <time>2019-04-14T12:34:48Z</time>
      </trkpt>
      <trkpt lat="44.42144" lon="1.37778">
        <ele>203</ele>
        <time>2019-04-14T12:34:49Z</time>
      </trkpt>
      <trkpt lat="44.42142" lon="1.37778">
        <ele>203</ele>
        <time>2019-04-14T12:34:50Z</time>
      </trkpt>
      <trkpt lat="44.42141" lon="1.37778">
        <ele>203</ele>
        <time>2019-04-14T12:34:51Z</time>
      </trkpt>
      <trkpt lat="44.42138" lon="1.37777">
        <ele>203</ele>
        <time>2019-04-14T12:34:52Z</time>
      </trkpt>
      <trkpt lat="44.42136" lon="1.37776">
        <ele>203</ele>
        <time>2019-04-14T12:34:53Z</time>
      </trkpt>
      <trkpt lat="44.42135" lon="1.37775">
        <ele>204</ele>
        <time>2019-04-14T12:34:54Z</time>
      </trkpt>
      <trkpt lat="44.42134" lon="1.37774">
        <ele>204</ele>
        <time>2019-04-14T12:34:55Z</time>
      </trkpt>
      <trkpt lat="44.42132" lon="1.37772">
        <ele>204</ele>
        <time>2019-04-14T12:34:56Z</time>
      </trkpt>
      <trkpt lat="44.4213" lon="1.37771">
        <ele>204</ele>
        <time>2019-04-14T12:34:57Z</time>
      </trkpt>
      <trkpt lat="44.42128" lon="1.37769">
        <ele>204</ele>
        <time>2019-04-14T12:34:58Z</time>
      </trkpt>
      <trkpt lat="44.42127" lon="1.37768">
        <ele>204</ele>
        <time>2019-04-14T12:34:59Z</time>
      </trkpt>
      <trkpt lat="44.42126" lon="1.37766">
        <ele>204</ele>
        <time>2019-04-14T12:35:00Z</time>
      </trkpt>
      <trkpt lat="44.42123" lon="1.37765">
        <ele>204</ele>
        <time>2019-04-14T12:35:01Z</time>
      </trkpt>
      <trkpt lat="44.42121" lon="1.37764">
        <ele>204</ele>
        <time>2019-04-14T12:35:02Z</time>
      </trkpt>
      <trkpt lat="44.4212" lon="1.37763">
        <ele>205</ele>
        <time>2019-04-14T12:35:03Z</time>
      </trkpt>
      <trkpt lat="44.42119" lon="1.37761">
        <ele>205</ele>
        <time>2019-04-14T12:35:04Z</time>
      </trkpt>
      <trkpt lat="44.42117" lon="1.37759">
        <ele>205</ele>
        <time>2019-04-14T12:35:05Z</time>
      </trkpt>
      <trkpt lat="44.42115" lon="1.37757">
        <ele>205</ele>
        <time>2019-04-14T12:35:06Z</time>
      </trkpt>
      <trkpt lat="44.42113" lon="1.37756">
        <ele>205</ele>
        <time>2019-04-14T12:35:07Z</time>
      </trkpt>
      <trkpt lat="44.42111" lon="1.37755">
        <ele>205</ele>
        <time>2019-04-14T12:35:08Z</time>
      </trkpt>
      <trkpt lat="44.42109" lon="1.37753">
        <ele>205</ele>
        <time>2019-04-14T12:35:09Z</time>
      </trkpt>
      <trkpt lat="44.42106" lon="1.37753">
        <ele>205</ele>
        <time>2019-04-14T12:35:10Z</time>
      </trkpt>
      <trkpt lat="44.42104" lon="1.37753">
        <ele>206</ele>
        <time>2019-04-14T12:35:11Z</time>
      </trkpt>
      <trkpt lat="44.42103" lon="1.37751">
        <ele>206</ele>
        <time>2019-04-14T12:35:12Z</time>
      </trkpt>
      <trkpt lat="44.42101" lon="1.37751">
        <ele>206</ele>
        <time>2019-04-14T12:35:13Z</time>
      </trkpt>
      <trkpt lat="44.421" lon="1.3775">
        <ele>206</ele>
        <time>2019-04-14T12:35:14Z</time>
      </trkpt>
      <trkpt lat="44.42098" lon="1.37749">
        <ele>206</ele>
        <time>2019-04-14T12:35:15Z</time>
      </trkpt>
      <trkpt lat="44.42095" lon="1.3775">
        <ele>206</ele>
        <time>2019-04-14T12:35:16Z</time>
      </trkpt>
      <trkpt lat="44.42094" lon="1.3775">
        <ele>207</ele>
        <time>2019-04-14T12:35:17Z</time>
      </trkpt>
      <trkpt lat="44.42093" lon="1.37751">
        <ele>207</ele>
        <time>2019-04-14T12:35:18Z</time>
      </trkpt>
      <trkpt lat="44.4209" lon="1.37752">
        <ele>207</ele>
        <time>2019-04-14T12:35:19Z</time>
      </trkpt>
      <trkpt lat="44.42089" lon="1.37752">
        <ele>207</ele>
        <time>2019-04-14T12:35:20Z</time>
      </trkpt>
      <trkpt lat="44.42087" lon="1.37752">
        <ele>207</ele>
        <time>2019-04-14T12:35:21Z</time>
      </trkpt>
      <trkpt lat="44.42084" lon="1.37752">
        <ele>207</ele>
        <time>2019-04-14T12:35:22Z</time>
      </trkpt>
      <trkpt lat="44.42082" lon="1.37753">
        <ele>208</ele>
        <time>2019-04-14T12:35:23Z</time>
      </trkpt>
      <trkpt lat="44.4208" lon="1.37753">
        <ele>208</ele>
        <time>2019-04-14T12:35:24Z</time>
      </trkpt>
      <trkpt lat="44.42078" lon="1.37753">
        <ele>208</ele>
        <time>2019-04-14T12:35:25Z</time>
      </trkpt>
      <trkpt lat="44.42076" lon="1.37754">
        <ele>208</ele>
        <time>2019-04-14T12:35:26Z</time>
      </trkpt>
      <trkpt lat="44.42074" lon="1.37754">
        <ele>208</ele>
        <time>2019-04-14T12:35:27Z</time>
      </trkpt>
      <trkpt lat="44.42072" lon="1.37755">
        <ele>208</ele>
        <time>2019-04-14T12:35:28Z</time>
      </trkpt>
      <trkpt lat="44.4207" lon="1.37755">
        <ele>208</ele>
        <time>2019-04-14T12:35:29Z</time>
      </trkpt>
      <trkpt lat="44.42068" lon="1.37756">
        <ele>209</ele>
        <time>2019-04-14T12:35:30Z</time>
      </trkpt>
      <trkpt lat="44.42066" lon="1.37756">
        <ele>209</ele>
        <time>2019-04-14T12:35:31Z</time>
      </trkpt>
      <trkpt lat="44.42065" lon="1.37756">
        <ele>209</ele>
        <time>2019-04-14T12:35:32Z</time>
      </trkpt>
      <trkpt lat="44.42063" lon="1.37757">
        <ele>209</ele>
        <time>2019-04-14T12:35:33Z</time>
      </trkpt>
      <trkpt lat="44.42061" lon="1.37758">
        <ele>209</ele>
        <time>2019-04-14T12:35:34Z</time>
      </trkpt>
      <trkpt lat="44.42059" lon="1.37759">
        <ele>209</ele>
        <time>2019-04-14T12:35:35Z</time>
      </trkpt>
      <trkpt lat="44.42057" lon="1.3776">
        <ele>209</ele>
        <time>2019-04-14T12:35:36Z</time>
      </trkpt>
      <trkpt lat="44.42055" lon="1.3776">
        <ele>210</ele>
        <time>2019-04-14T12:35:37Z</time>
      </trkpt>
      <trkpt lat="44.42054" lon="1.3776">
        <ele>210</ele>
        <time>2019-04-14T12:35:38Z</time>
      </trkpt>
      <trkpt lat="44.42052" lon="1.37761">
        <ele>210</ele>
        <time>2019-04-14T12:35:39Z</time>
      </trkpt>
      <trkpt lat="44.42051" lon="1.37762">
        <ele>210</ele>
        <time>2019-04-14T12:35:40Z</time>
      </trkpt>
      <trkpt lat="44.42049" lon="1.37762">
        <ele>210</ele>
        <time>2019-04-14T12:35:41Z</time>
      </trkpt>
      <trkpt lat="44.42047" lon="1.37764">
        <ele>210</ele>
        <time>2019-04-14T12:35:42Z</time>
      </trkpt>
      <trkpt lat="44.42046" lon="1.37764">
        <ele>210</ele>
        <time>2019-04-14T12:35:43Z</time>
      </trkpt>
      <trkpt lat="44.42044" lon="1.37765">
        <ele>210</ele>
        <time>2019-04-14T12:35:44Z</time>
      </trkpt>
      <trkpt lat="44.42042" lon="1.37766">
        <ele>210</ele>
        <time>2019-04-14T12:35:45Z</time>
      </trkpt>
      <trkpt lat="44.4204" lon="1.37767">
        <ele>211</ele>
        <time>2019-04-14T12:35:46Z</time>
      </trkpt>
      <trkpt lat="44.42038" lon="1.37768">
        <ele>211</ele>
        <time>2019-04-14T12:35:47Z</time>
      </trkpt>
      <trkpt lat="44.42037" lon="1.37769">
        <ele>211</ele>
        <time>2019-04-14T12:35:48Z</time>
      </trkpt>
      <trkpt lat="44.42035" lon="1.37769">
        <ele>211</ele>
        <time>2019-04-14T12:35:49Z</time>
      </trkpt>
      <trkpt lat="44.42033" lon="1.3777">
        <ele>211</ele>
        <time>2019-04-14T12:35:50Z</time>
      </trkpt>
      <trkpt lat="44.42032" lon="1.37769">
        <ele>211</ele>
        <time>2019-04-14T12:35:51Z</time>
      </trkpt>
      <trkpt lat="44.4203" lon="1.37769">
        <ele>211</ele>
        <time>2019-04-14T12:35:52Z</time>
      </trkpt>
      <trkpt lat="44.42028" lon="1.3777">
        <ele>211</ele>
        <time>2019-04-14T12:35:53Z</time>
      </trkpt>
      <trkpt lat="44.42027" lon="1.37771">
        <ele>211</ele>
        <time>2019-04-14T12:35:54Z</time>
      </trkpt>
      <trkpt lat="44.42025" lon="1.37772">
        <ele>211</ele>
        <time>2019-04-14T12:35:55Z</time>
      </trkpt>
      <trkpt lat="44.42023" lon="1.37772">
        <ele>211</ele>
        <time>2019-04-14T12:35:56Z</time>
      </trkpt>
      <trkpt lat="44.42022" lon="1.37772">
        <ele>211</ele>
        <time>2019-04-14T12:35:57Z</time>
      </trkpt>
      <trkpt lat="44.4202" lon="1.37773">
        <ele>212</ele>
        <time>2019-04-14T12:35:58Z</time>
      </trkpt>
      <trkpt lat="44.42018" lon="1.37774">
        <ele>212</ele>
        <time>2019-04-14T12:35:59Z</time>
      </trkpt>
      <trkpt lat="44.42017" lon="1.37774">
        <ele>212</ele>
        <time>2019-04-14T12:36:00Z</time>
      </trkpt>
      <trkpt lat="44.42016" lon="1.37774">
        <ele>212</ele>
        <time>2019-04-14T12:36:01Z</time>
      </trkpt>
      <trkpt lat="44.42016" lon="1.37775">
        <ele>212</ele>
        <time>2019-04-14T12:36:02Z</time>
      </trkpt>
      <trkpt lat="44.42014" lon="1.37775">
        <ele>212</ele>
        <time>2019-04-14T12:36:03Z</time>
      </trkpt>
      <trkpt lat="44.42013" lon="1.37776">
        <ele>212</ele>
        <time>2019-04-14T12:36:04Z</time>
      </trkpt>
      <trkpt lat="44.4201" lon="1.37778">
        <ele>212</ele>
        <time>2019-04-14T12:36:05Z</time>
      </trkpt>
      <trkpt lat="44.42008" lon="1.37779">
        <ele>212</ele>
        <time>2019-04-14T12:36:06Z</time>
      </trkpt>
      <trkpt lat="44.42005" lon="1.3778">
        <ele>213</ele>
        <time>2019-04-14T12:36:07Z</time>
      </trkpt>
      <trkpt lat="44.42003" lon="1.37781">
        <ele>213</ele>
        <time>2019-04-14T12:36:08Z</time>
      </trkpt>
      <trkpt lat="44.42001" lon="1.37782">
        <ele>213</ele>
        <time>2019-04-14T12:36:09Z</time>
      </trkpt>
      <trkpt lat="44.41999" lon="1.37783">
        <ele>213</ele>
        <time>2019-04-14T12:36:10Z</time>
      </trkpt>
      <trkpt lat="44.41998" lon="1.37784">
        <ele>213</ele>
        <time>2019-04-14T12:36:11Z</time>
      </trkpt>
      <trkpt lat="44.41996" lon="1.37784">
        <ele>214</ele>
        <time>2019-04-14T12:36:12Z</time>
      </trkpt>
      <trkpt lat="44.41995" lon="1.37785">
        <ele>214</ele>
        <time>2019-04-14T12:36:13Z</time>
      </trkpt>
      <trkpt lat="44.41993" lon="1.37786">
        <ele>214</ele>
        <time>2019-04-14T12:36:14Z</time>
      </trkpt>
      <trkpt lat="44.41991" lon="1.37787">
        <ele>214</ele>
        <time>2019-04-14T12:36:15Z</time>
      </trkpt>
      <trkpt lat="44.41989" lon="1.37787">
        <ele>214</ele>
        <time>2019-04-14T12:36:16Z</time>
      </trkpt>
      <trkpt lat="44.41988" lon="1.37788">
        <ele>214</ele>
        <time>2019-04-14T12:36:17Z</time>
      </trkpt>
      <trkpt lat="44.41986" lon="1.37788">
        <ele>214</ele>
        <time>2019-04-14T12:36:18Z</time>
      </trkpt>
      <trkpt lat="44.41985" lon="1.37789">
        <ele>214</ele>
        <time>2019-04-14T12:36:19Z</time>
      </trkpt>
      <trkpt lat="44.41984" lon="1.3779">
        <ele>214</ele>
        <time>2019-04-14T12:36:20Z</time>
      </trkpt>
      <trkpt lat="44.41982" lon="1.37791">
        <ele>215</ele>
        <time>2019-04-14T12:36:21Z</time>
      </trkpt>
      <trkpt lat="44.41981" lon="1.37792">
        <ele>215</ele>
        <time>2019-04-14T12:36:22Z</time>
      </trkpt>
      <trkpt lat="44.41979" lon="1.37794">
        <ele>215</ele>
        <time>2019-04-14T12:36:23Z</time>
      </trkpt>
      <trkpt lat="44.41978" lon="1.37795">
        <ele>215</ele>
        <time>2019-04-14T12:36:24Z</time>
      </trkpt>
      <trkpt lat="44.41977" lon="1.37795">
        <ele>215</ele>
        <time>2019-04-14T12:36:25Z</time>
      </trkpt>
      <trkpt lat="44.41975" lon="1.37797">
        <ele>215</ele>
        <time>2019-04-14T12:36:26Z</time>
      </trkpt>
      <trkpt lat="44.41974" lon="1.37798">
        <ele>215</ele>
        <time>2019-04-14T12:36:27Z</time>
      </trkpt>
      <trkpt lat="44.41972" lon="1.378">
        <ele>215</ele>
        <time>2019-04-14T12:36:28Z</time>
      </trkpt>
      <trkpt lat="44.4197" lon="1.37801">
        <ele>215</ele>
        <time>2019-04-14T12:36:29Z</time>
      </trkpt>
      <trkpt lat="44.41969" lon="1.37802">
        <ele>216</ele>
        <time>2019-04-14T12:36:30Z</time>
      </trkpt>
      <trkpt lat="44.41968" lon="1.37803">
        <ele>216</ele>
        <time>2019-04-14T12:36:31Z</time>
      </trkpt>
      <trkpt lat="44.41966" lon="1.37804">
        <ele>216</ele>
        <time>2019-04-14T12:36:32Z</time>
      </trkpt>
      <trkpt lat="44.41965" lon="1.37806">
        <ele>216</ele>
        <time>2019-04-14T12:36:33Z</time>
      </trkpt>
      <trkpt lat="44.41963" lon="1.37808">
        <ele>216</ele>
        <time>2019-04-14T12:36:34Z</time>
      </trkpt>
      <trkpt lat="44.41962" lon="1.3781">
        <ele>216</ele>
        <time>2019-04-14T12:36:35Z</time>
      </trkpt>
      <trkpt lat="44.4196" lon="1.37811">
        <ele>216</ele>
        <time>2019-04-14T12:36:36Z</time>
      </trkpt>
      <trkpt lat="44.41959" lon="1.37812">
        <ele>217</ele>
        <time>2019-04-14T12:36:37Z</time>
      </trkpt>
      <trkpt lat="44.41958" lon="1.37814">
        <ele>217</ele>
        <time>2019-04-14T12:36:38Z</time>
      </trkpt>
      <trkpt lat="44.41957" lon="1.37815">
        <ele>217</ele>
        <time>2019-04-14T12:36:39Z</time>
      </trkpt>
      <trkpt lat="44.41955" lon="1.37817">
        <ele>217</ele>
        <time>2019-04-14T12:36:40Z</time>
      </trkpt>
      <trkpt lat="44.41954" lon="1.37817">
        <ele>217</ele>
        <time>2019-04-14T12:36:41Z</time>
      </trkpt>
      <trkpt lat="44.41953" lon="1.37819">
        <ele>218</ele>
        <time>2019-04-14T12:36:42Z</time>
      </trkpt>
      <trkpt lat="44.41952" lon="1.3782">
        <ele>218</ele>
        <time>2019-04-14T12:36:43Z</time>
      </trkpt>
      <trkpt lat="44.4195" lon="1.37822">
        <ele>218</ele>
        <time>2019-04-14T12:36:44Z</time>
      </trkpt>
      <trkpt lat="44.41949" lon="1.37823">
        <ele>218</ele>
        <time>2019-04-14T12:36:45Z</time>
      </trkpt>
      <trkpt lat="44.41948" lon="1.37824">
        <ele>218</ele>
        <time>2019-04-14T12:36:46Z</time>
      </trkpt>
      <trkpt lat="44.41946" lon="1.37825">
        <ele>218</ele>
        <time>2019-04-14T12:36:47Z</time>
      </trkpt>
      <trkpt lat="44.41945" lon="1.37827">
        <ele>218</ele>
        <time>2019-04-14T12:36:48Z</time>
      </trkpt>
      <trkpt lat="44.41944" lon="1.37828">
        <ele>218</ele>
        <time>2019-04-14T12:36:49Z</time>
      </trkpt>
      <trkpt lat="44.41943" lon="1.37829">
        <ele>218</ele>
        <time>2019-04-14T12:36:50Z</time>
      </trkpt>
      <trkpt lat="44.41943" lon="1.37831">
        <ele>218</ele>
        <time>2019-04-14T12:36:51Z</time>
      </trkpt>
      <trkpt lat="44.41941" lon="1.37832">
        <ele>219</ele>
        <time>2019-04-14T12:36:52Z</time>
      </trkpt>
      <trkpt lat="44.4194" lon="1.37833">
        <ele>219</ele>
        <time>2019-04-14T12:36:53Z</time>
      </trkpt>
      <trkpt lat="44.41939" lon="1.37835">
        <ele>219</ele>
        <time>2019-04-14T12:36:54Z</time>
      </trkpt>
      <trkpt lat="44.41939" lon="1.37837">
        <ele>219</ele>
        <time>2019-04-14T12:36:55Z</time>
      </trkpt>
      <trkpt lat="44.41938" lon="1.37838">
        <ele>219</ele>
        <time>2019-04-14T12:36:56Z</time>
      </trkpt>
      <trkpt lat="44.41937" lon="1.37838">
        <ele>219</ele>
        <time>2019-04-14T12:36:57Z</time>
      </trkpt>
      <trkpt lat="44.41937" lon="1.37839">
        <ele>219</ele>
        <time>2019-04-14T12:36:58Z</time>
      </trkpt>
      <trkpt lat="44.41936" lon="1.37839">
        <ele>220</ele>
        <time>2019-04-14T12:36:59Z</time>
      </trkpt>
      <trkpt lat="44.41935" lon="1.37839">
        <ele>220</ele>
        <time>2019-04-14T12:37:00Z</time>
      </trkpt>
      <trkpt lat="44.41935" lon="1.3784">
        <ele>220</ele>
        <time>2019-04-14T12:37:01Z</time>
      </trkpt>
      <trkpt lat="44.41934" lon="1.37842">
        <ele>220</ele>
        <time>2019-04-14T12:37:02Z</time>
      </trkpt>
      <trkpt lat="44.41933" lon="1.37844">
        <ele>220</ele>
        <time>2019-04-14T12:37:03Z</time>
      </trkpt>
      <trkpt lat="44.41932" lon="1.37846">
        <ele>220</ele>
        <time>2019-04-14T12:37:04Z</time>
      </trkpt>
      <trkpt lat="44.41932" lon="1.37848">
        <ele>221</ele>
        <time>2019-04-14T12:37:05Z</time>
      </trkpt>
      <trkpt lat="44.41932" lon="1.37851">
        <ele>221</ele>
        <time>2019-04-14T12:37:06Z</time>
      </trkpt>
      <trkpt lat="44.41931" lon="1.37853">
        <ele>221</ele>
        <time>2019-04-14T12:37:07Z</time>
      </trkpt>
      <trkpt lat="44.41931" lon="1.37855">
        <ele>221</ele>
        <time>2019-04-14T12:37:08Z</time>
      </trkpt>
      <trkpt lat="44.4193" lon="1.37856">
        <ele>221</ele>
        <time>2019-04-14T12:37:09Z</time>
      </trkpt>
      <trkpt lat="44.41929" lon="1.37858">
        <ele>221</ele>
        <time>2019-04-14T12:37:10Z</time>
      </trkpt>
      <trkpt lat="44.41931" lon="1.37859">
        <ele>221</ele>
        <time>2019-04-14T12:37:11Z</time>
      </trkpt>
      <trkpt lat="44.41931" lon="1.37861">
        <ele>222</ele>
        <time>2019-04-14T12:37:12Z</time>
      </trkpt>
      <trkpt lat="44.4193" lon="1.37863">
        <ele>222</ele>
        <time>2019-04-14T12:37:13Z</time>
      </trkpt>
      <trkpt lat="44.41929" lon="1.37865">
        <ele>222</ele>
        <time>2019-04-14T12:37:14Z</time>
      </trkpt>
      <trkpt lat="44.41928" lon="1.37866">
        <ele>222</ele>
        <time>2019-04-14T12:37:15Z</time>
      </trkpt>
      <trkpt lat="44.41927" lon="1.37867">
        <ele>222</ele>
        <time>2019-04-14T12:37:16Z</time>
      </trkpt>
      <trkpt lat="44.41926" lon="1.37869">
        <ele>222</ele>
        <time>2019-04-14T12:37:17Z</time>
      </trkpt>
      <trkpt lat="44.41925" lon="1.37871">
        <ele>222</ele>
        <time>2019-04-14T12:37:18Z</time>
      </trkpt>
      <trkpt lat="44.41924" lon="1.37872">
        <ele>223</ele>
        <time>2019-04-14T12:37:19Z</time>
      </trkpt>
      <trkpt lat="44.41923" lon="1.37873">
        <ele>223</ele>
        <time>2019-04-14T12:37:20Z</time>
      </trkpt>
      <trkpt lat="44.41922" lon="1.37874">
        <ele>223</ele>
        <time>2019-04-14T12:37:21Z</time>
      </trkpt>
      <trkpt lat="44.4192" lon="1.37875">
        <ele>223</ele>
        <time>2019-04-14T12:37:22Z</time>
      </trkpt>
      <trkpt lat="44.41919" lon="1.37876">
        <ele>223</ele>
        <time>2019-04-14T12:37:23Z</time>
      </trkpt>
      <trkpt lat="44.41918" lon="1.37878">
        <ele>223</ele>
        <time>2019-04-14T12:37:24Z</time>
      </trkpt>
      <trkpt lat="44.41916" lon="1.37879">
        <ele>223</ele>
        <time>2019-04-14T12:37:25Z</time>
      </trkpt>
      <trkpt lat="44.41915" lon="1.3788">
        <ele>224</ele>
        <time>2019-04-14T12:37:26Z</time>
      </trkpt>
      <trkpt lat="44.41914" lon="1.37882">
        <ele>224</ele>
        <time>2019-04-14T12:37:27Z</time>
      </trkpt>
      <trkpt lat="44.41913" lon="1.37883">
        <ele>224</ele>
        <time>2019-04-14T12:37:28Z</time>
      </trkpt>
      <trkpt lat="44.41911" lon="1.37884">
        <ele>224</ele>
        <time>2019-04-14T12:37:29Z</time>
      </trkpt>
      <trkpt lat="44.4191" lon="1.37885">
        <ele>224</ele>
        <time>2019-04-14T12:37:30Z</time>
      </trkpt>
      <trkpt lat="44.41909" lon="1.37886">
        <ele>224</ele>
        <time>2019-04-14T12:37:31Z</time>
      </trkpt>
      <trkpt lat="44.41909" lon="1.37887">
        <ele>224</ele>
        <time>2019-04-14T12:37:32Z</time>
      </trkpt>
      <trkpt lat="44.41908" lon="1.37889">
        <ele>224</ele>
        <time>2019-04-14T12:37:33Z</time>
      </trkpt>
      <trkpt lat="44.41907" lon="1.3789">
        <ele>225</ele>
        <time>2019-04-14T12:37:34Z</time>
      </trkpt>
      <trkpt lat="44.41907" lon="1.37891">
        <ele>225</ele>
        <time>2019-04-14T12:37:35Z</time>
      </trkpt>
      <trkpt lat="44.41906" lon="1.37893">
        <ele>225</ele>
        <time>2019-04-14T12:37:36Z</time>
      </trkpt>
      <trkpt lat="44.41905" lon="1.37894">
        <ele>225</ele>
        <time>2019-04-14T12:37:37Z</time>
      </trkpt>
      <trkpt lat="44.41904" lon="1.37895">
        <ele>225</ele>
        <time>2019-04-14T12:37:38Z</time>
      </trkpt>
      <trkpt lat="44.41903" lon="1.37896">
        <ele>225</ele>
        <time>2019-04-14T12:37:39Z</time>
      </trkpt>
      <trkpt lat="44.41902" lon="1.37897">
        <ele>225</ele>
        <time>2019-04-14T12:37:40Z</time>
      </trkpt>
      <trkpt lat="44.41901" lon="1.37898">
        <ele>226</ele>
        <time>2019-04-14T12:37:41Z</time>
      </trkpt>
      <trkpt lat="44.419" lon="1.37899">
        <ele>226</ele>
        <time>2019-04-14T12:37:42Z</time>
      </trkpt>
      <trkpt lat="44.41899" lon="1.37901">
        <ele>226</ele>
        <time>2019-04-14T12:37:43Z</time>
      </trkpt>
      <trkpt lat="44.41898" lon="1.37902">
        <ele>226</ele>
        <time>2019-04-14T12:37:44Z</time>
      </trkpt>
      <trkpt lat="44.41897" lon="1.37903">
        <ele>226</ele>
        <time>2019-04-14T12:37:45Z</time>
      </trkpt>
      <trkpt lat="44.41895" lon="1.37904">
        <ele>226</ele>
        <time>2019-04-14T12:37:46Z</time>
      </trkpt>
      <trkpt lat="44.41894" lon="1.37905">
        <ele>226</ele>
        <time>2019-04-14T12:37:47Z</time>
      </trkpt>
      <trkpt lat="44.41892" lon="1.37906">
        <ele>226</ele>
        <time>2019-04-14T12:37:48Z</time>
      </trkpt>
      <trkpt lat="44.4189" lon="1.37908">
        <ele>226</ele>
        <time>2019-04-14T12:37:49Z</time>
      </trkpt>
      <trkpt lat="44.41888" lon="1.37909">
        <ele>226</ele>
        <time>2019-04-14T12:37:50Z</time>
      </trkpt>
      <trkpt lat="44.41887" lon="1.37909">
        <ele>226</ele>
        <time>2019-04-14T12:37:51Z</time>
      </trkpt>
      <trkpt lat="44.41885" lon="1.3791">
        <ele>226</ele>
        <time>2019-04-14T12:37:52Z</time>
      </trkpt>
      <trkpt lat="44.41883" lon="1.37911">
        <ele>226</ele>
        <time>2019-04-14T12:37:53Z</time>
      </trkpt>
      <trkpt lat="44.41882" lon="1.37912">
        <ele>226</ele>
        <time>2019-04-14T12:37:54Z</time>
      </trkpt>
      <trkpt lat="44.4188" lon="1.37913">
        <ele>226</ele>
        <time>2019-04-14T12:37:55Z</time>
      </trkpt>
      <trkpt lat="44.41878" lon="1.37914">
        <ele>226</ele>
        <time>2019-04-14T12:37:56Z</time>
      </trkpt>
      <trkpt lat="44.41876" lon="1.37915">
        <ele>227</ele>
        <time>2019-04-14T12:37:57Z</time>
      </trkpt>
      <trkpt lat="44.41875" lon="1.37916">
        <ele>227</ele>
        <time>2019-04-14T12:37:58Z</time>
      </trkpt>
      <trkpt lat="44.41873" lon="1.37917">
        <ele>227</ele>
        <time>2019-04-14T12:37:59Z</time>
      </trkpt>
      <trkpt lat="44.41871" lon="1.37917">
        <ele>227</ele>
        <time>2019-04-14T12:38:00Z</time>
      </trkpt>
      <trkpt lat="44.4187" lon="1.37918">
        <ele>227</ele>
        <time>2019-04-14T12:38:01Z</time>
      </trkpt>
      <trkpt lat="44.41868" lon="1.37919">
        <ele>227</ele>
        <time>2019-04-14T12:38:02Z</time>
      </trkpt>
      <trkpt lat="44.41867" lon="1.3792">
        <ele>227</ele>
        <time>2019-04-14T12:38:03Z</time>
      </trkpt>
      <trkpt lat="44.41865" lon="1.37921">
        <ele>227</ele>
        <time>2019-04-14T12:38:04Z</time>
      </trkpt>
      <trkpt lat="44.41864" lon="1.37921">
        <ele>227</ele>
        <time>2019-04-14T12:38:05Z</time>
      </trkpt>
      <trkpt lat="44.41862" lon="1.37922">
        <ele>227</ele>
        <time>2019-04-14T12:38:06Z</time>
      </trkpt>
      <trkpt lat="44.41861" lon="1.37923">
        <ele>227</ele>
        <time>2019-04-14T12:38:07Z</time>
      </trkpt>
      <trkpt lat="44.41859" lon="1.37923">
        <ele>227</ele>
        <time>2019-04-14T12:38:08Z</time>
      </trkpt>
      <trkpt lat="44.41858" lon="1.37924">
        <ele>228</ele>
        <time>2019-04-14T12:38:09Z</time>
      </trkpt>
      <trkpt lat="44.41857" lon="1.37925">
        <ele>228</ele>
        <time>2019-04-14T12:38:10Z</time>
      </trkpt>
      <trkpt lat="44.41855" lon="1.37925">
        <ele>228</ele>
        <time>2019-04-14T12:38:11Z</time>
      </trkpt>
      <trkpt lat="44.41854" lon="1.37926">
        <ele>228</ele>
        <time>2019-04-14T12:38:12Z</time>
      </trkpt>
      <trkpt lat="44.41852" lon="1.37926">
        <ele>228</ele>
        <time>2019-04-14T12:38:13Z</time>
      </trkpt>
      <trkpt lat="44.4185" lon="1.37926">
        <ele>228</ele>
        <time>2019-04-14T12:38:14Z</time>
      </trkpt>
      <trkpt lat="44.41849" lon="1.37925">
        <ele>228</ele>
        <time>2019-04-14T12:38:15Z</time>
      </trkpt>
      <trkpt lat="44.41847" lon="1.37925">
        <ele>228</ele>
        <time>2019-04-14T12:38:16Z</time>
      </trkpt>
      <trkpt lat="44.41845" lon="1.37926">
        <ele>228</ele>
        <time>2019-04-14T12:38:17Z</time>
      </trkpt>
      <trkpt lat="44.41844" lon="1.37926">
        <ele>229</ele>
        <time>2019-04-14T12:38:18Z</time>
      </trkpt>
      <trkpt lat="44.41843" lon="1.37925">
        <ele>229</ele>
        <time>2019-04-14T12:38:19Z</time>
      </trkpt>
      <trkpt lat="44.41841" lon="1.37925">
        <ele>229</ele>
        <time>2019-04-14T12:38:20Z</time>
      </trkpt>
      <trkpt lat="44.4184" lon="1.37926">
        <ele>229</ele>
        <time>2019-04-14T12:38:21Z</time>
      </trkpt>
      <trkpt lat="44.41838" lon="1.37926">
        <ele>229</ele>
        <time>2019-04-14T12:38:22Z</time>
      </trkpt>
      <trkpt lat="44.41836" lon="1.37926">
        <ele>229</ele>
        <time>2019-04-14T12:38:23Z</time>
      </trkpt>
      <trkpt lat="44.41834" lon="1.37926">
        <ele>229</ele>
        <time>2019-04-14T12:38:24Z</time>
      </trkpt>
      <trkpt lat="44.41833" lon="1.37927">
        <ele>229</ele>
        <time>2019-04-14T12:38:25Z</time>
      </trkpt>
      <trkpt lat="44.41831" lon="1.37928">
        <ele>229</ele>
        <time>2019-04-14T12:38:26Z</time>
      </trkpt>
      <trkpt lat="44.41829" lon="1.37928">
        <ele>229</ele>
        <time>2019-04-14T12:38:27Z</time>
      </trkpt>
      <trkpt lat="44.41828" lon="1.37928">
        <ele>229</ele>
        <time>2019-04-14T12:38:28Z</time>
      </trkpt>
      <trkpt lat="44.41826" lon="1.37928">
        <ele>229</ele>
        <time>2019-04-14T12:38:29Z</time>
      </trkpt>
      <trkpt lat="44.41825" lon="1.37928">
        <ele>229</ele>
        <time>2019-04-14T12:38:30Z</time>
      </trkpt>
      <trkpt lat="44.41823" lon="1.37928">
        <ele>229</ele>
        <time>2019-04-14T12:38:31Z</time>
      </trkpt>
      <trkpt lat="44.41822" lon="1.37929">
        <ele>229</ele>
        <time>2019-04-14T12:38:32Z</time>
      </trkpt>
      <trkpt lat="44.4182" lon="1.37929">
        <ele>229</ele>
        <time>2019-04-14T12:38:33Z</time>
      </trkpt>
      <trkpt lat="44.41819" lon="1.3793">
        <ele>230</ele>
        <time>2019-04-14T12:38:34Z</time>
      </trkpt>
      <trkpt lat="44.41817" lon="1.3793">
        <ele>230</ele>
        <time>2019-04-14T12:38:35Z</time>
      </trkpt>
      <trkpt lat="44.41816" lon="1.37931">
        <ele>230</ele>
        <time>2019-04-14T12:38:36Z</time>
      </trkpt>
      <trkpt lat="44.41815" lon="1.37931">
        <ele>230</ele>
        <time>2019-04-14T12:38:37Z</time>
      </trkpt>
      <trkpt lat="44.41814" lon="1.37932">
        <ele>230</ele>
        <time>2019-04-14T12:38:38Z</time>
      </trkpt>
      <trkpt lat="44.41813" lon="1.37933">
        <ele>230</ele>
        <time>2019-04-14T12:38:39Z</time>
      </trkpt>
      <trkpt lat="44.41811" lon="1.37934">
        <ele>231</ele>
        <time>2019-04-14T12:38:40Z</time>
      </trkpt>
      <trkpt lat="44.4181" lon="1.37934">
        <ele>231</ele>
        <time>2019-04-14T12:38:41Z</time>
      </trkpt>
      <trkpt lat="44.41808" lon="1.37934">
        <ele>231</ele>
        <time>2019-04-14T12:38:42Z</time>
      </trkpt>
      <trkpt lat="44.41806" lon="1.37934">
        <ele>231</ele>
        <time>2019-04-14T12:38:43Z</time>
      </trkpt>
      <trkpt lat="44.41805" lon="1.37934">
        <ele>231</ele>
        <time>2019-04-14T12:38:44Z</time>
      </trkpt>
      <trkpt lat="44.41803" lon="1.37934">
        <ele>231</ele>
        <time>2019-04-14T12:38:45Z</time>
      </trkpt>
      <trkpt lat="44.41802" lon="1.37934">
        <ele>231</ele>
        <time>2019-04-14T12:38:46Z</time>
      </trkpt>
      <trkpt lat="44.418" lon="1.37935">
        <ele>232</ele>
        <time>2019-04-14T12:38:47Z</time>
      </trkpt>
      <trkpt lat="44.41799" lon="1.37935">
        <ele>232</ele>
        <time>2019-04-14T12:38:48Z</time>
      </trkpt>
      <trkpt lat="44.41797" lon="1.37935">
        <ele>232</ele>
        <time>2019-04-14T12:38:49Z</time>
      </trkpt>
      <trkpt lat="44.41796" lon="1.37936">
        <ele>232</ele>
        <time>2019-04-14T12:38:50Z</time>
      </trkpt>
      <trkpt lat="44.41794" lon="1.37936">
        <ele>232</ele>
        <time>2019-04-14T12:38:51Z</time>
      </trkpt>
      <trkpt lat="44.41793" lon="1.37936">
        <ele>233</ele>
        <time>2019-04-14T12:38:52Z</time>
      </trkpt>
      <trkpt lat="44.41792" lon="1.37937">
        <ele>233</ele>
        <time>2019-04-14T12:38:53Z</time>
      </trkpt>
      <trkpt lat="44.41791" lon="1.37937">
        <ele>233</ele>
        <time>2019-04-14T12:38:54Z</time>
      </trkpt>
      <trkpt lat="44.41789" lon="1.37937">
        <ele>233</ele>
        <time>2019-04-14T12:38:55Z</time>
      </trkpt>
      <trkpt lat="44.41788" lon="1.37938">
        <ele>233</ele>
        <time>2019-04-14T12:38:56Z</time>
      </trkpt>
      <trkpt lat="44.41786" lon="1.37939">
        <ele>233</ele>
        <time>2019-04-14T12:38:57Z</time>
      </trkpt>
      <trkpt lat="44.41785" lon="1.3794">
        <ele>234</ele>
        <time>2019-04-14T12:38:58Z</time>
      </trkpt>
      <trkpt lat="44.41783" lon="1.3794">
        <ele>234</ele>
        <time>2019-04-14T12:38:59Z</time>
      </trkpt>
      <trkpt lat="44.41781" lon="1.3794">
        <ele>234</ele>
        <time>2019-04-14T12:39:00Z</time>
      </trkpt>
      <trkpt lat="44.41779" lon="1.37941">
        <ele>234</ele>
        <time>2019-04-14T12:39:01Z</time>
      </trkpt>
      <trkpt lat="44.41777" lon="1.37941">
        <ele>234</ele>
        <time>2019-04-14T12:39:02Z</time>
      </trkpt>
      <trkpt lat="44.41775" lon="1.37941">
        <ele>235</ele>
        <time>2019-04-14T12:39:03Z</time>
      </trkpt>
      <trkpt lat="44.41773" lon="1.37941">
        <ele>235</ele>
        <time>2019-04-14T12:39:04Z</time>
      </trkpt>
      <trkpt lat="44.41771" lon="1.37941">
        <ele>235</ele>
        <time>2019-04-14T12:39:05Z</time>
      </trkpt>
      <trkpt lat="44.41769" lon="1.37941">
        <ele>235</ele>
        <time>2019-04-14T12:39:06Z</time>
      </trkpt>
      <trkpt lat="44.41767" lon="1.37942">
        <ele>236</ele>
        <time>2019-04-14T12:39:07Z</time>
      </trkpt>
      <trkpt lat="44.41765" lon="1.37943">
        <ele>236</ele>
        <time>2019-04-14T12:39:08Z</time>
      </trkpt>
      <trkpt lat="44.41763" lon="1.37944">
        <ele>236</ele>
        <time>2019-04-14T12:39:09Z</time>
      </trkpt>
      <trkpt lat="44.41761" lon="1.37945">
        <ele>236</ele>
        <time>2019-04-14T12:39:10Z</time>
      </trkpt>
      <trkpt lat="44.41759" lon="1.37945">
        <ele>237</ele>
        <time>2019-04-14T12:39:11Z</time>
      </trkpt>
      <trkpt lat="44.41757" lon="1.37946">
        <ele>237</ele>
        <time>2019-04-14T12:39:12Z</time>
      </trkpt>
      <trkpt lat="44.41755" lon="1.37947">
        <ele>237</ele>
        <time>2019-04-14T12:39:13Z</time>
      </trkpt>
      <trkpt lat="44.41753" lon="1.37948">
        <ele>237</ele>
        <time>2019-04-14T12:39:14Z</time>
      </trkpt>
      <trkpt lat="44.41751" lon="1.37948">
        <ele>237</ele>
        <time>2019-04-14T12:39:15Z</time>
      </trkpt>
      <trkpt lat="44.41749" lon="1.37948">
        <ele>238</ele>
        <time>2019-04-14T12:39:16Z</time>
      </trkpt>
      <trkpt lat="44.41747" lon="1.37948">
        <ele>238</ele>
        <time>2019-04-14T12:39:17Z</time>
      </trkpt>
      <trkpt lat="44.41745" lon="1.37948">
        <ele>238</ele>
        <time>2019-04-14T12:39:18Z</time>
      </trkpt>
      <trkpt lat="44.41743" lon="1.37947">
        <ele>238</ele>
        <time>2019-04-14T12:39:19Z</time>
      </trkpt>
      <trkpt lat="44.41742" lon="1.37946">
        <ele>238</ele>
        <time>2019-04-14T12:39:20Z</time>
      </trkpt>
      <trkpt lat="44.41742" lon="1.37944">
        <ele>238</ele>
        <time>2019-04-14T12:39:21Z</time>
      </trkpt>
      <trkpt lat="44.41741" lon="1.37942">
        <ele>239</ele>
        <time>2019-04-14T12:39:22Z</time>
      </trkpt>
      <trkpt lat="44.41741" lon="1.37941">
        <ele>239</ele>
        <time>2019-04-14T12:39:23Z</time>
      </trkpt>
      <trkpt lat="44.4174" lon="1.37939">
        <ele>239</ele>
        <time>2019-04-14T12:39:24Z</time>
      </trkpt>
      <trkpt lat="44.41738" lon="1.37937">
        <ele>239</ele>
        <time>2019-04-14T12:39:25Z</time>
      </trkpt>
      <trkpt lat="44.41736" lon="1.37937">
        <ele>239</ele>
        <time>2019-04-14T12:39:26Z</time>
      </trkpt>
      <trkpt lat="44.41734" lon="1.37936">
        <ele>239</ele>
        <time>2019-04-14T12:39:27Z</time>
      </trkpt>
      <trkpt lat="44.41732" lon="1.37936">
        <ele>239</ele>
        <time>2019-04-14T12:39:28Z</time>
      </trkpt>
      <trkpt lat="44.4173" lon="1.37937">
        <ele>240</ele>
        <time>2019-04-14T12:39:29Z</time>
      </trkpt>
      <trkpt lat="44.41728" lon="1.37938">
        <ele>240</ele>
        <time>2019-04-14T12:39:30Z</time>
      </trkpt>
      <trkpt lat="44.41726" lon="1.37939">
        <ele>240</ele>
        <time>2019-04-14T12:39:31Z</time>
      </trkpt>
      <trkpt lat="44.41724" lon="1.37939">
        <ele>240</ele>
        <time>2019-04-14T12:39:32Z</time>
      </trkpt>
      <trkpt lat="44.41722" lon="1.37939">
        <ele>240</ele>
        <time>2019-04-14T12:39:33Z</time>
      </trkpt>
      <trkpt lat="44.41721" lon="1.37938">
        <ele>240</ele>
        <time>2019-04-14T12:39:34Z</time>
      </trkpt>
      <trkpt lat="44.41719" lon="1.37936">
        <ele>241</ele>
        <time>2019-04-14T12:39:35Z</time>
      </trkpt>
      <trkpt lat="44.41719" lon="1.37935">
        <ele>241</ele>
        <time>2019-04-14T12:39:36Z</time>
      </trkpt>
      <trkpt lat="44.41718" lon="1.37933">
        <ele>241</ele>
        <time>2019-04-14T12:39:37Z</time>
      </trkpt>
      <trkpt lat="44.41717" lon="1.37932">
        <ele>241</ele>
        <time>2019-04-14T12:39:38Z</time>
      </trkpt>
      <trkpt lat="44.41715" lon="1.37931">
        <ele>241</ele>
        <time>2019-04-14T12:39:39Z</time>
      </trkpt>
      <trkpt lat="44.41713" lon="1.3793">
        <ele>241</ele>
        <time>2019-04-14T12:39:40Z</time>
      </trkpt>
      <trkpt lat="44.41711" lon="1.3793">
        <ele>242</ele>
        <time>2019-04-14T12:39:41Z</time>
      </trkpt>
      <trkpt lat="44.4171" lon="1.37929">
        <ele>242</ele>
        <time>2019-04-14T12:39:42Z</time>
      </trkpt>
      <trkpt lat="44.41709" lon="1.37928">
        <ele>242</ele>
        <time>2019-04-14T12:39:43Z</time>
      </trkpt>
      <trkpt lat="44.41707" lon="1.37927">
        <ele>243</ele>
        <time>2019-04-14T12:39:44Z</time>
      </trkpt>
      <trkpt lat="44.41705" lon="1.37926">
        <ele>243</ele>
        <time>2019-04-14T12:39:45Z</time>
      </trkpt>
      <trkpt lat="44.41703" lon="1.37926">
        <ele>243</ele>
        <time>2019-04-14T12:39:46Z</time>
      </trkpt>
      <trkpt lat="44.41701" lon="1.37925">
        <ele>243</ele>
        <time>2019-04-14T12:39:47Z</time>
      </trkpt>
      <trkpt lat="44.41699" lon="1.37925">
        <ele>243</ele>
        <time>2019-04-14T12:39:48Z</time>
      </trkpt>
      <trkpt lat="44.41697" lon="1.37925">
        <ele>243</ele>
        <time>2019-04-14T12:39:49Z</time>
      </trkpt>
      <trkpt lat="44.41695" lon="1.37925">
        <ele>243</ele>
        <time>2019-04-14T12:39:50Z</time>
      </trkpt>
      <trkpt lat="44.41693" lon="1.37925">
        <ele>243</ele>
        <time>2019-04-14T12:39:51Z</time>
      </trkpt>
      <trkpt lat="44.41691" lon="1.37924">
        <ele>243</ele>
        <time>2019-04-14T12:39:52Z</time>
      </trkpt>
      <trkpt lat="44.41689" lon="1.37924">
        <ele>244</ele>
        <time>2019-04-14T12:39:53Z</time>
      </trkpt>
      <trkpt lat="44.41687" lon="1.37924">
        <ele>244</ele>
        <time>2019-04-14T12:39:54Z</time>
      </trkpt>
      <trkpt lat="44.41685" lon="1.37923">
        <ele>244</ele>
        <time>2019-04-14T12:39:55Z</time>
      </trkpt>
      <trkpt lat="44.41683" lon="1.37923">
        <ele>244</ele>
        <time>2019-04-14T12:39:56Z</time>
      </trkpt>
      <trkpt lat="44.41681" lon="1.37922">
        <ele>244</ele>
        <time>2019-04-14T12:39:57Z</time>
      </trkpt>
      <trkpt lat="44.41679" lon="1.37922">
        <ele>244</ele>
        <time>2019-04-14T12:39:58Z</time>
      </trkpt>
      <trkpt lat="44.41678" lon="1.37922">
        <ele>244</ele>
        <time>2019-04-14T12:39:59Z</time>
      </trkpt>
      <trkpt lat="44.41676" lon="1.37923">
        <ele>245</ele>
        <time>2019-04-14T12:40:00Z</time>
      </trkpt>
      <trkpt lat="44.41674" lon="1.37923">
        <ele>245</ele>
        <time>2019-04-14T12:40:01Z</time>
      </trkpt>
      <trkpt lat="44.41672" lon="1.37923">
        <ele>245</ele>
        <time>2019-04-14T12:40:02Z</time>
      </trkpt>
      <trkpt lat="44.4167" lon="1.37922">
        <ele>245</ele>
        <time>2019-04-14T12:40:03Z</time>
      </trkpt>
      <trkpt lat="44.41669" lon="1.37922">
        <ele>245</ele>
        <time>2019-04-14T12:40:04Z</time>
      </trkpt>
      <trkpt lat="44.41667" lon="1.37922">
        <ele>245</ele>
        <time>2019-04-14T12:40:05Z</time>
      </trkpt>
      <trkpt lat="44.41666" lon="1.37921">
        <ele>246</ele>
        <time>2019-04-14T12:40:06Z</time>
      </trkpt>
      <trkpt lat="44.41664" lon="1.37921">
        <ele>246</ele>
        <time>2019-04-14T12:40:07Z</time>
      </trkpt>
      <trkpt lat="44.41662" lon="1.37921">
        <ele>246</ele>
        <time>2019-04-14T12:40:08Z</time>
      </trkpt>
      <trkpt lat="44.4166" lon="1.37921">
        <ele>246</ele>
        <time>2019-04-14T12:40:09Z</time>
      </trkpt>
      <trkpt lat="44.41659" lon="1.3792">
        <ele>247</ele>
        <time>2019-04-14T12:40:10Z</time>
      </trkpt>
      <trkpt lat="44.41658" lon="1.37919">
        <ele>247</ele>
        <time>2019-04-14T12:40:11Z</time>
      </trkpt>
      <trkpt lat="44.41656" lon="1.37918">
        <ele>247</ele>
        <time>2019-04-14T12:40:12Z</time>
      </trkpt>
      <trkpt lat="44.41654" lon="1.37917">
        <ele>247</ele>
        <time>2019-04-14T12:40:13Z</time>
      </trkpt>
      <trkpt lat="44.41652" lon="1.37916">
        <ele>247</ele>
        <time>2019-04-14T12:40:14Z</time>
      </trkpt>
      <trkpt lat="44.41651" lon="1.37915">
        <ele>247</ele>
        <time>2019-04-14T12:40:15Z</time>
      </trkpt>
      <trkpt lat="44.41649" lon="1.37915">
        <ele>247</ele>
        <time>2019-04-14T12:40:16Z</time>
      </trkpt>
      <trkpt lat="44.41648" lon="1.37914">
        <ele>247</ele>
        <time>2019-04-14T12:40:17Z</time>
      </trkpt>
      <trkpt lat="44.41646" lon="1.37913">
        <ele>248</ele>
        <time>2019-04-14T12:40:18Z</time>
      </trkpt>
      <trkpt lat="44.41645" lon="1.37912">
        <ele>248</ele>
        <time>2019-04-14T12:40:19Z</time>
      </trkpt>
      <trkpt lat="44.41643" lon="1.37911">
        <ele>248</ele>
        <time>2019-04-14T12:40:20Z</time>
      </trkpt>
      <trkpt lat="44.41641" lon="1.37911">
        <ele>248</ele>
        <time>2019-04-14T12:40:21Z</time>
      </trkpt>
      <trkpt lat="44.4164" lon="1.37911">
        <ele>248</ele>
        <time>2019-04-14T12:40:22Z</time>
      </trkpt>
      <trkpt lat="44.41638" lon="1.37911">
        <ele>248</ele>
        <time>2019-04-14T12:40:23Z</time>
      </trkpt>
      <trkpt lat="44.41636" lon="1.3791">
        <ele>249</ele>
        <time>2019-04-14T12:40:24Z</time>
      </trkpt>
      <trkpt lat="44.41635" lon="1.3791">
        <ele>249</ele>
        <time>2019-04-14T12:40:25Z</time>
      </trkpt>
      <trkpt lat="44.41634" lon="1.37909">
        <ele>249</ele>
        <time>2019-04-14T12:40:26Z</time>
      </trkpt>
      <trkpt lat="44.41632" lon="1.37908">
        <ele>249</ele>
        <time>2019-04-14T12:40:27Z</time>
      </trkpt>
      <trkpt lat="44.41631" lon="1.37907">
        <ele>249</ele>
        <time>2019-04-14T12:40:28Z</time>
      </trkpt>
      <trkpt lat="44.4163" lon="1.37906">
        <ele>249</ele>
        <time>2019-04-14T12:40:29Z</time>
      </trkpt>
      <trkpt lat="44.41629" lon="1.37906">
        <ele>250</ele>
        <time>2019-04-14T12:40:30Z</time>
      </trkpt>
      <trkpt lat="44.41628" lon="1.37905">
        <ele>250</ele>
        <time>2019-04-14T12:40:31Z</time>
      </trkpt>
      <trkpt lat="44.41626" lon="1.37904">
        <ele>250</ele>
        <time>2019-04-14T12:40:32Z</time>
      </trkpt>
      <trkpt lat="44.41625" lon="1.37903">
        <ele>250</ele>
        <time>2019-04-14T12:40:33Z</time>
      </trkpt>
      <trkpt lat="44.41624" lon="1.37903">
        <ele>250</ele>
        <time>2019-04-14T12:40:34Z</time>
      </trkpt>
      <trkpt lat="44.41623" lon="1.37902">
        <ele>250</ele>
        <time>2019-04-14T12:40:35Z</time>
      </trkpt>
      <trkpt lat="44.41621" lon="1.37902">
        <ele>250</ele>
        <time>2019-04-14T12:40:36Z</time>
      </trkpt>
      <trkpt lat="44.41621" lon="1.379">
        <ele>251</ele>
        <time>2019-04-14T12:40:37Z</time>
      </trkpt>
      <trkpt lat="44.4162" lon="1.37898">
        <ele>251</ele>
        <time>2019-04-14T12:40:38Z</time>
      </trkpt>
      <trkpt lat="44.41619" lon="1.37898">
        <ele>251</ele>
        <time>2019-04-14T12:40:39Z</time>
      </trkpt>
      <trkpt lat="44.41619" lon="1.37896">
        <ele>251</ele>
        <time>2019-04-14T12:40:40Z</time>
      </trkpt>
      <trkpt lat="44.41619" lon="1.37894">
        <ele>251</ele>
        <time>2019-04-14T12:40:41Z</time>
      </trkpt>
      <trkpt lat="44.41619" lon="1.37892">
        <ele>251</ele>
        <time>2019-04-14T12:40:42Z</time>
      </trkpt>
      <trkpt lat="44.41619" lon="1.3789">
        <ele>252</ele>
        <time>2019-04-14T12:40:43Z</time>
      </trkpt>
      <trkpt lat="44.41619" lon="1.37889">
        <ele>252</ele>
        <time>2019-04-14T12:40:44Z</time>
      </trkpt>
      <trkpt lat="44.41619" lon="1.37888">
        <ele>252</ele>
        <time>2019-04-14T12:40:45Z</time>
      </trkpt>
      <trkpt lat="44.41619" lon="1.37886">
        <ele>253</ele>
        <time>2019-04-14T12:40:46Z</time>
      </trkpt>
      <trkpt lat="44.41619" lon="1.37887">
        <ele>253</ele>
        <time>2019-04-14T12:40:47Z</time>
      </trkpt>
      <trkpt lat="44.41619" lon="1.37888">
        <ele>253</ele>
        <time>2019-04-14T12:40:48Z</time>
      </trkpt>
      <trkpt lat="44.41621" lon="1.37887">
        <ele>253</ele>
        <time>2019-04-14T12:40:49Z</time>
      </trkpt>
      <trkpt lat="44.41622" lon="1.37886">
        <ele>254</ele>
        <time>2019-04-14T12:40:50Z</time>
      </trkpt>
      <trkpt lat="44.41623" lon="1.37887">
        <ele>254</ele>
        <time>2019-04-14T12:40:51Z</time>
      </trkpt>
      <trkpt lat="44.41624" lon="1.37886">
        <ele>254</ele>
        <time>2019-04-14T12:40:52Z</time>
      </trkpt>
      <trkpt lat="44.41625" lon="1.37887">
        <ele>254</ele>
        <time>2019-04-14T12:40:53Z</time>
      </trkpt>
      <trkpt lat="44.41626" lon="1.37888">
        <ele>254</ele>
        <time>2019-04-14T12:40:54Z</time>
      </trkpt>
      <trkpt lat="44.41627" lon="1.37888">
        <ele>254</ele>
        <time>2019-04-14T12:40:55Z</time>
      </trkpt>
      <trkpt lat="44.41628" lon="1.37888">
        <ele>254</ele>
        <time>2019-04-14T12:40:56Z</time>
      </trkpt>
      <trkpt lat="44.41629" lon="1.37888">
        <ele>255</ele>
        <time>2019-04-14T12:40:57Z</time>
      </trkpt>
      <trkpt lat="44.41631" lon="1.37888">
        <ele>255</ele>
        <time>2019-04-14T12:40:58Z</time>
      </trkpt>
      <trkpt lat="44.41632" lon="1.37887">
        <ele>255</ele>
        <time>2019-04-14T12:40:59Z</time>
      </trkpt>
      <trkpt lat="44.41633" lon="1.37887">
        <ele>255</ele>
        <time>2019-04-14T12:41:00Z</time>
      </trkpt>
      <trkpt lat="44.41634" lon="1.37887">
        <ele>255</ele>
        <time>2019-04-14T12:41:01Z</time>
      </trkpt>
      <trkpt lat="44.41635" lon="1.37888">
        <ele>256</ele>
        <time>2019-04-14T12:41:02Z</time>
      </trkpt>
      <trkpt lat="44.41636" lon="1.37889">
        <ele>256</ele>
        <time>2019-04-14T12:41:03Z</time>
      </trkpt>
      <trkpt lat="44.41638" lon="1.37888">
        <ele>256</ele>
        <time>2019-04-14T12:41:04Z</time>
      </trkpt>
      <trkpt lat="44.4164" lon="1.37888">
        <ele>256</ele>
        <time>2019-04-14T12:41:05Z</time>
      </trkpt>
      <trkpt lat="44.41641" lon="1.37888">
        <ele>256</ele>
        <time>2019-04-14T12:41:06Z</time>
      </trkpt>
      <trkpt lat="44.41643" lon="1.37889">
        <ele>257</ele>
        <time>2019-04-14T12:41:07Z</time>
      </trkpt>
      <trkpt lat="44.41644" lon="1.37888">
        <ele>257</ele>
        <time>2019-04-14T12:41:08Z</time>
      </trkpt>
      <trkpt lat="44.41646" lon="1.37888">
        <ele>257</ele>
        <time>2019-04-14T12:41:09Z</time>
      </trkpt>
      <trkpt lat="44.41647" lon="1.37888">
        <ele>257</ele>
        <time>2019-04-14T12:41:10Z</time>
      </trkpt>
      <trkpt lat="44.41648" lon="1.37888">
        <ele>257</ele>
        <time>2019-04-14T12:41:11Z</time>
      </trkpt>
      <trkpt lat="44.41649" lon="1.37888">
        <ele>257</ele>
        <time>2019-04-14T12:41:12Z</time>
      </trkpt>
      <trkpt lat="44.41651" lon="1.37887">
        <ele>257</ele>
        <time>2019-04-14T12:41:13Z</time>
      </trkpt>
      <trkpt lat="44.41652" lon="1.37886">
        <ele>258</ele>
        <time>2019-04-14T12:41:14Z</time>
      </trkpt>
      <trkpt lat="44.41654" lon="1.37885">
        <ele>258</ele>
        <time>2019-04-14T12:41:15Z</time>
      </trkpt>
      <trkpt lat="44.41656" lon="1.37885">
        <ele>258</ele>
        <time>2019-04-14T12:41:16Z</time>
      </trkpt>
      <trkpt lat="44.41657" lon="1.37885">
        <ele>258</ele>
        <time>2019-04-14T12:41:17Z</time>
      </trkpt>
      <trkpt lat="44.4166" lon="1.37884">
        <ele>258</ele>
        <time>2019-04-14T12:41:18Z</time>
      </trkpt>
      <trkpt lat="44.41662" lon="1.37884">
        <ele>258</ele>
        <time>2019-04-14T12:41:19Z</time>
      </trkpt>
      <trkpt lat="44.41664" lon="1.37883">
        <ele>258</ele>
        <time>2019-04-14T12:41:20Z</time>
      </trkpt>
      <trkpt lat="44.41667" lon="1.37882">
        <ele>258</ele>
        <time>2019-04-14T12:41:21Z</time>
      </trkpt>
      <trkpt lat="44.41669" lon="1.37881">
        <ele>259</ele>
        <time>2019-04-14T12:41:22Z</time>
      </trkpt>
      <trkpt lat="44.41671" lon="1.37881">
        <ele>259</ele>
        <time>2019-04-14T12:41:23Z</time>
      </trkpt>
      <trkpt lat="44.41673" lon="1.3788">
        <ele>259</ele>
        <time>2019-04-14T12:41:24Z</time>
      </trkpt>
      <trkpt lat="44.41676" lon="1.3788">
        <ele>259</ele>
        <time>2019-04-14T12:41:25Z</time>
      </trkpt>
      <trkpt lat="44.41678" lon="1.37879">
        <ele>259</ele>
        <time>2019-04-14T12:41:26Z</time>
      </trkpt>
      <trkpt lat="44.4168" lon="1.37879">
        <ele>259</ele>
        <time>2019-04-14T12:41:27Z</time>
      </trkpt>
      <trkpt lat="44.41682" lon="1.37878">
        <ele>259</ele>
        <time>2019-04-14T12:41:28Z</time>
      </trkpt>
      <trkpt lat="44.41685" lon="1.37877">
        <ele>259</ele>
        <time>2019-04-14T12:41:29Z</time>
      </trkpt>
      <trkpt lat="44.41687" lon="1.37876">
        <ele>259</ele>
        <time>2019-04-14T12:41:30Z</time>
      </trkpt>
      <trkpt lat="44.41689" lon="1.37875">
        <ele>260</ele>
        <time>2019-04-14T12:41:31Z</time>
      </trkpt>
      <trkpt lat="44.41691" lon="1.37873">
        <ele>260</ele>
        <time>2019-04-14T12:41:32Z</time>
      </trkpt>
      <trkpt lat="44.41692" lon="1.37871">
        <ele>260</ele>
        <time>2019-04-14T12:41:33Z</time>
      </trkpt>
      <trkpt lat="44.41693" lon="1.37869">
        <ele>260</ele>
        <time>2019-04-14T12:41:34Z</time>
      </trkpt>
      <trkpt lat="44.41695" lon="1.37867">
        <ele>260</ele>
        <time>2019-04-14T12:41:35Z</time>
      </trkpt>
      <trkpt lat="44.41696" lon="1.37866">
        <ele>260</ele>
        <time>2019-04-14T12:41:36Z</time>
      </trkpt>
      <trkpt lat="44.41697" lon="1.37864">
        <ele>260</ele>
        <time>2019-04-14T12:41:37Z</time>
      </trkpt>
      <trkpt lat="44.41698" lon="1.37862">
        <ele>260</ele>
        <time>2019-04-14T12:41:38Z</time>
      </trkpt>
      <trkpt lat="44.41699" lon="1.3786">
        <ele>261</ele>
        <time>2019-04-14T12:41:39Z</time>
      </trkpt>
      <trkpt lat="44.417" lon="1.37858">
        <ele>261</ele>
        <time>2019-04-14T12:41:40Z</time>
      </trkpt>
      <trkpt lat="44.417" lon="1.37856">
        <ele>261</ele>
        <time>2019-04-14T12:41:41Z</time>
      </trkpt>
      <trkpt lat="44.41699" lon="1.37853">
        <ele>261</ele>
        <time>2019-04-14T12:41:42Z</time>
      </trkpt>
      <trkpt lat="44.41698" lon="1.37851">
        <ele>261</ele>
        <time>2019-04-14T12:41:43Z</time>
      </trkpt>
      <trkpt lat="44.41698" lon="1.37849">
        <ele>262</ele>
        <time>2019-04-14T12:41:44Z</time>
      </trkpt>
      <trkpt lat="44.41697" lon="1.37847">
        <ele>262</ele>
        <time>2019-04-14T12:41:45Z</time>
      </trkpt>
      <trkpt lat="44.41696" lon="1.37845">
        <ele>262</ele>
        <time>2019-04-14T12:41:46Z</time>
      </trkpt>
      <trkpt lat="44.41694" lon="1.37843">
        <ele>263</ele>
        <time>2019-04-14T12:41:47Z</time>
      </trkpt>
      <trkpt lat="44.41693" lon="1.37842">
        <ele>263</ele>
        <time>2019-04-14T12:41:48Z</time>
      </trkpt>
      <trkpt lat="44.41693" lon="1.3784">
        <ele>263</ele>
        <time>2019-04-14T12:41:49Z</time>
      </trkpt>
      <trkpt lat="44.41692" lon="1.37838">
        <ele>264</ele>
        <time>2019-04-14T12:41:50Z</time>
      </trkpt>
      <trkpt lat="44.41693" lon="1.37835">
        <ele>264</ele>
        <time>2019-04-14T12:41:51Z</time>
      </trkpt>
      <trkpt lat="44.41693" lon="1.37833">
        <ele>264</ele>
        <time>2019-04-14T12:41:52Z</time>
      </trkpt>
      <trkpt lat="44.41694" lon="1.37831">
        <ele>264</ele>
        <time>2019-04-14T12:41:53Z</time>
      </trkpt>
      <trkpt lat="44.41695" lon="1.37829">
        <ele>264</ele>
        <time>2019-04-14T12:41:54Z</time>
      </trkpt>
      <trkpt lat="44.41696" lon="1.37827">
        <ele>264</ele>
        <time>2019-04-14T12:41:55Z</time>
      </trkpt>
      <trkpt lat="44.41696" lon="1.37825">
        <ele>264</ele>
        <time>2019-04-14T12:41:56Z</time>
      </trkpt>
      <trkpt lat="44.41696" lon="1.37822">
        <ele>264</ele>
        <time>2019-04-14T12:41:57Z</time>
      </trkpt>
      <trkpt lat="44.41696" lon="1.37819">
        <ele>264</ele>
        <time>2019-04-14T12:41:58Z</time>
      </trkpt>
      <trkpt lat="44.41695" lon="1.37816">
        <ele>265</ele>
        <time>2019-04-14T12:41:59Z</time>
      </trkpt>
      <trkpt lat="44.41693" lon="1.37814">
        <ele>265</ele>
        <time>2019-04-14T12:42:00Z</time>
      </trkpt>
      <trkpt lat="44.41692" lon="1.37812">
        <ele>265</ele>
        <time>2019-04-14T12:42:01Z</time>
      </trkpt>
      <trkpt lat="44.41691" lon="1.3781">
        <ele>265</ele>
        <time>2019-04-14T12:42:02Z</time>
      </trkpt>
      <trkpt lat="44.4169" lon="1.37808">
        <ele>266</ele>
        <time>2019-04-14T12:42:03Z</time>
      </trkpt>
      <trkpt lat="44.41689" lon="1.37806">
        <ele>266</ele>
        <time>2019-04-14T12:42:04Z</time>
      </trkpt>
      <trkpt lat="44.41689" lon="1.37803">
        <ele>266</ele>
        <time>2019-04-14T12:42:05Z</time>
      </trkpt>
      <trkpt lat="44.41689" lon="1.378">
        <ele>266</ele>
        <time>2019-04-14T12:42:06Z</time>
      </trkpt>
      <trkpt lat="44.41689" lon="1.37797">
        <ele>266</ele>
        <time>2019-04-14T12:42:07Z</time>
      </trkpt>
      <trkpt lat="44.41688" lon="1.37794">
        <ele>266</ele>
        <time>2019-04-14T12:42:08Z</time>
      </trkpt>
      <trkpt lat="44.41688" lon="1.37791">
        <ele>266</ele>
        <time>2019-04-14T12:42:09Z</time>
      </trkpt>
      <trkpt lat="44.41688" lon="1.37788">
        <ele>266</ele>
        <time>2019-04-14T12:42:10Z</time>
      </trkpt>
      <trkpt lat="44.41688" lon="1.37785">
        <ele>266</ele>
        <time>2019-04-14T12:42:11Z</time>
      </trkpt>
      <trkpt lat="44.41687" lon="1.37782">
        <ele>266</ele>
        <time>2019-04-14T12:42:12Z</time>
      </trkpt>
      <trkpt lat="44.41686" lon="1.37779">
        <ele>266</ele>
        <time>2019-04-14T12:42:13Z</time>
      </trkpt>
      <trkpt lat="44.41685" lon="1.37776">
        <ele>266</ele>
        <time>2019-04-14T12:42:14Z</time>
      </trkpt>
      <trkpt lat="44.41683" lon="1.37773">
        <ele>266</ele>
        <time>2019-04-14T12:42:15Z</time>
      </trkpt>
      <trkpt lat="44.41682" lon="1.37771">
        <ele>266</ele>
        <time>2019-04-14T12:42:16Z</time>
      </trkpt>
      <trkpt lat="44.4168" lon="1.3777">
        <ele>266</ele>
        <time>2019-04-14T12:42:17Z</time>
      </trkpt>
      <trkpt lat="44.41677" lon="1.37769">
        <ele>267</ele>
        <time>2019-04-14T12:42:18Z</time>
      </trkpt>
      <trkpt lat="44.41675" lon="1.37769">
        <ele>267</ele>
        <time>2019-04-14T12:42:19Z</time>
      </trkpt>
      <trkpt lat="44.41674" lon="1.3777">
        <ele>267</ele>
        <time>2019-04-14T12:42:20Z</time>
      </trkpt>
      <trkpt lat="44.41672" lon="1.37771">
        <ele>268</ele>
        <time>2019-04-14T12:42:21Z</time>
      </trkpt>
      <trkpt lat="44.4167" lon="1.37771">
        <ele>268</ele>
        <time>2019-04-14T12:42:22Z</time>
      </trkpt>
      <trkpt lat="44.41669" lon="1.37772">
        <ele>268</ele>
        <time>2019-04-14T12:42:23Z</time>
      </trkpt>
      <trkpt lat="44.41667" lon="1.37773">
        <ele>269</ele>
        <time>2019-04-14T12:42:24Z</time>
      </trkpt>
      <trkpt lat="44.41665" lon="1.37773">
        <ele>269</ele>
        <time>2019-04-14T12:42:25Z</time>
      </trkpt>
      <trkpt lat="44.41663" lon="1.37774">
        <ele>269</ele>
        <time>2019-04-14T12:42:26Z</time>
      </trkpt>
      <trkpt lat="44.41662" lon="1.37774">
        <ele>269</ele>
        <time>2019-04-14T12:42:27Z</time>
      </trkpt>
      <trkpt lat="44.4166" lon="1.37774">
        <ele>270</ele>
        <time>2019-04-14T12:42:28Z</time>
      </trkpt>
      <trkpt lat="44.41658" lon="1.37774">
        <ele>270</ele>
        <time>2019-04-14T12:42:29Z</time>
      </trkpt>
      <trkpt lat="44.41657" lon="1.37774">
        <ele>270</ele>
        <time>2019-04-14T12:42:30Z</time>
      </trkpt>
      <trkpt lat="44.41656" lon="1.37773">
        <ele>270</ele>
        <time>2019-04-14T12:42:31Z</time>
      </trkpt>
      <trkpt lat="44.41655" lon="1.37772">
        <ele>270</ele>
        <time>2019-04-14T12:42:32Z</time>
      </trkpt>
      <trkpt lat="44.41654" lon="1.37771">
        <ele>271</ele>
        <time>2019-04-14T12:42:33Z</time>
      </trkpt>
      <trkpt lat="44.41652" lon="1.3777">
        <ele>271</ele>
        <time>2019-04-14T12:42:34Z</time>
      </trkpt>
      <trkpt lat="44.41651" lon="1.37769">
        <ele>271</ele>
        <time>2019-04-14T12:42:35Z</time>
      </trkpt>
      <trkpt lat="44.4165" lon="1.37768">
        <ele>271</ele>
        <time>2019-04-14T12:42:36Z</time>
      </trkpt>
      <trkpt lat="44.41649" lon="1.37767">
        <ele>271</ele>
        <time>2019-04-14T12:42:37Z</time>
      </trkpt>
      <trkpt lat="44.41648" lon="1.37766">
        <ele>272</ele>
        <time>2019-04-14T12:42:38Z</time>
      </trkpt>
      <trkpt lat="44.41647" lon="1.37766">
        <ele>272</ele>
        <time>2019-04-14T12:42:39Z</time>
      </trkpt>
      <trkpt lat="44.41645" lon="1.37765">
        <ele>272</ele>
        <time>2019-04-14T12:42:40Z</time>
      </trkpt>
      <trkpt lat="44.41644" lon="1.37764">
        <ele>272</ele>
        <time>2019-04-14T12:42:41Z</time>
      </trkpt>
      <trkpt lat="44.41642" lon="1.37764">
        <ele>272</ele>
        <time>2019-04-14T12:42:42Z</time>
      </trkpt>
      <trkpt lat="44.4164" lon="1.37764">
        <ele>272</ele>
        <time>2019-04-14T12:42:43Z</time>
      </trkpt>
      <trkpt lat="44.41638" lon="1.37763">
        <ele>272</ele>
        <time>2019-04-14T12:42:44Z</time>
      </trkpt>
      <trkpt lat="44.41637" lon="1.37763">
        <ele>273</ele>
        <time>2019-04-14T12:42:45Z</time>
      </trkpt>
      <trkpt lat="44.41635" lon="1.37762">
        <ele>273</ele>
        <time>2019-04-14T12:42:46Z</time>
      </trkpt>
      <trkpt lat="44.41634" lon="1.3776">
        <ele>273</ele>
        <time>2019-04-14T12:42:47Z</time>
      </trkpt>
      <trkpt lat="44.41633" lon="1.37758">
        <ele>273</ele>
        <time>2019-04-14T12:42:48Z</time>
      </trkpt>
      <trkpt lat="44.41632" lon="1.37756">
        <ele>273</ele>
        <time>2019-04-14T12:42:49Z</time>
      </trkpt>
      <trkpt lat="44.4163" lon="1.37755">
        <ele>273</ele>
        <time>2019-04-14T12:42:50Z</time>
      </trkpt>
      <trkpt lat="44.41628" lon="1.37754">
        <ele>273</ele>
        <time>2019-04-14T12:42:51Z</time>
      </trkpt>
      <trkpt lat="44.41626" lon="1.37753">
        <ele>274</ele>
        <time>2019-04-14T12:42:52Z</time>
      </trkpt>
      <trkpt lat="44.41625" lon="1.37752">
        <ele>274</ele>
        <time>2019-04-14T12:42:53Z</time>
      </trkpt>
      <trkpt lat="44.41624" lon="1.37751">
        <ele>274</ele>
        <time>2019-04-14T12:42:54Z</time>
      </trkpt>
      <trkpt lat="44.41622" lon="1.37749">
        <ele>274</ele>
        <time>2019-04-14T12:42:55Z</time>
      </trkpt>
      <trkpt lat="44.41621" lon="1.37747">
        <ele>274</ele>
        <time>2019-04-14T12:42:56Z</time>
      </trkpt>
      <trkpt lat="44.4162" lon="1.37745">
        <ele>275</ele>
        <time>2019-04-14T12:42:57Z</time>
      </trkpt>
      <trkpt lat="44.41619" lon="1.37744">
        <ele>275</ele>
        <time>2019-04-14T12:42:58Z</time>
      </trkpt>
      <trkpt lat="44.41618" lon="1.37742">
        <ele>275</ele>
        <time>2019-04-14T12:42:59Z</time>
      </trkpt>
      <trkpt lat="44.41617" lon="1.3774">
        <ele>275</ele>
        <time>2019-04-14T12:43:00Z</time>
      </trkpt>
      <trkpt lat="44.41616" lon="1.37738">
        <ele>275</ele>
        <time>2019-04-14T12:43:01Z</time>
      </trkpt>
      <trkpt lat="44.41616" lon="1.37736">
        <ele>275</ele>
        <time>2019-04-14T12:43:02Z</time>
      </trkpt>
      <trkpt lat="44.41615" lon="1.37734">
        <ele>275</ele>
        <time>2019-04-14T12:43:03Z</time>
      </trkpt>
      <trkpt lat="44.41615" lon="1.37731">
        <ele>275</ele>
        <time>2019-04-14T12:43:04Z</time>
      </trkpt>
      <trkpt lat="44.41615" lon="1.37729">
        <ele>275</ele>
        <time>2019-04-14T12:43:05Z</time>
      </trkpt>
      <trkpt lat="44.41614" lon="1.37726">
        <ele>275</ele>
        <time>2019-04-14T12:43:06Z</time>
      </trkpt>
      <trkpt lat="44.41613" lon="1.37724">
        <ele>275</ele>
        <time>2019-04-14T12:43:07Z</time>
      </trkpt>
      <trkpt lat="44.41613" lon="1.37721">
        <ele>275</ele>
        <time>2019-04-14T12:43:08Z</time>
      </trkpt>
      <trkpt lat="44.41612" lon="1.37719">
        <ele>275</ele>
        <time>2019-04-14T12:43:09Z</time>
      </trkpt>
      <trkpt lat="44.41611" lon="1.37716">
        <ele>275</ele>
        <time>2019-04-14T12:43:10Z</time>
      </trkpt>
      <trkpt lat="44.41611" lon="1.37714">
        <ele>276</ele>
        <time>2019-04-14T12:43:11Z</time>
      </trkpt>
      <trkpt lat="44.4161" lon="1.37712">
        <ele>276</ele>
        <time>2019-04-14T12:43:12Z</time>
      </trkpt>
      <trkpt lat="44.41609" lon="1.3771">
        <ele>276</ele>
        <time>2019-04-14T12:43:13Z</time>
      </trkpt>
      <trkpt lat="44.41608" lon="1.37707">
        <ele>276</ele>
        <time>2019-04-14T12:43:14Z</time>
      </trkpt>
      <trkpt lat="44.41608" lon="1.37705">
        <ele>276</ele>
        <time>2019-04-14T12:43:15Z</time>
      </trkpt>
      <trkpt lat="44.41608" lon="1.37702">
        <ele>276</ele>
        <time>2019-04-14T12:43:16Z</time>
      </trkpt>
      <trkpt lat="44.41608" lon="1.37698">
        <ele>276</ele>
        <time>2019-04-14T12:43:17Z</time>
      </trkpt>
      <trkpt lat="44.41608" lon="1.37695">
        <ele>276</ele>
        <time>2019-04-14T12:43:18Z</time>
      </trkpt>
      <trkpt lat="44.41608" lon="1.37691">
        <ele>276</ele>
        <time>2019-04-14T12:43:19Z</time>
      </trkpt>
      <trkpt lat="44.41608" lon="1.37688">
        <ele>276</ele>
        <time>2019-04-14T12:43:20Z</time>
      </trkpt>
      <trkpt lat="44.41608" lon="1.37684">
        <ele>276</ele>
        <time>2019-04-14T12:43:21Z</time>
      </trkpt>
      <trkpt lat="44.41608" lon="1.3768">
        <ele>276</ele>
        <time>2019-04-14T12:43:22Z</time>
      </trkpt>
      <trkpt lat="44.41608" lon="1.37677">
        <ele>276</ele>
        <time>2019-04-14T12:43:23Z</time>
      </trkpt>
      <trkpt lat="44.41608" lon="1.37674">
        <ele>276</ele>
        <time>2019-04-14T12:43:24Z</time>
      </trkpt>
      <trkpt lat="44.41608" lon="1.3767">
        <ele>276</ele>
        <time>2019-04-14T12:43:25Z</time>
      </trkpt>
      <trkpt lat="44.41608" lon="1.37667">
        <ele>276</ele>
        <time>2019-04-14T12:43:26Z</time>
      </trkpt>
      <trkpt lat="44.41608" lon="1.37663">
        <ele>276</ele>
        <time>2019-04-14T12:43:27Z</time>
      </trkpt>
      <trkpt lat="44.41608" lon="1.3766">
        <ele>276</ele>
        <time>2019-04-14T12:43:28Z</time>
      </trkpt>
      <trkpt lat="44.41608" lon="1.37656">
        <ele>276</ele>
        <time>2019-04-14T12:43:29Z</time>
      </trkpt>
      <trkpt lat="44.41608" lon="1.37653">
        <ele>276</ele>
        <time>2019-04-14T12:43:30Z</time>
      </trkpt>
      <trkpt lat="44.41608" lon="1.3765">
        <ele>276</ele>
        <time>2019-04-14T12:43:31Z</time>
      </trkpt>
      <trkpt lat="44.41609" lon="1.37646">
        <ele>276</ele>
        <time>2019-04-14T12:43:32Z</time>
      </trkpt>
      <trkpt lat="44.41608" lon="1.37643">
        <ele>276</ele>
        <time>2019-04-14T12:43:33Z</time>
      </trkpt>
      <trkpt lat="44.41608" lon="1.3764">
        <ele>276</ele>
        <time>2019-04-14T12:43:34Z</time>
      </trkpt>
      <trkpt lat="44.41607" lon="1.37637">
        <ele>276</ele>
        <time>2019-04-14T12:43:35Z</time>
      </trkpt>
      <trkpt lat="44.41606" lon="1.37633">
        <ele>276</ele>
        <time>2019-04-14T12:43:36Z</time>
      </trkpt>
      <trkpt lat="44.41605" lon="1.37631">
        <ele>276</ele>
        <time>2019-04-14T12:43:37Z</time>
      </trkpt>
      <trkpt lat="44.41604" lon="1.37628">
        <ele>276</ele>
        <time>2019-04-14T12:43:38Z</time>
      </trkpt>
      <trkpt lat="44.41602" lon="1.37626">
        <ele>277</ele>
        <time>2019-04-14T12:43:39Z</time>
      </trkpt>
      <trkpt lat="44.41601" lon="1.37624">
        <ele>277</ele>
        <time>2019-04-14T12:43:40Z</time>
      </trkpt>
      <trkpt lat="44.41599" lon="1.37622">
        <ele>277</ele>
        <time>2019-04-14T12:43:41Z</time>
      </trkpt>
      <trkpt lat="44.41598" lon="1.37621">
        <ele>277</ele>
        <time>2019-04-14T12:43:42Z</time>
      </trkpt>
      <trkpt lat="44.41596" lon="1.3762">
        <ele>278</ele>
        <time>2019-04-14T12:43:43Z</time>
      </trkpt>
      <trkpt lat="44.41595" lon="1.37619">
        <ele>278</ele>
        <time>2019-04-14T12:43:44Z</time>
      </trkpt>
      <trkpt lat="44.41593" lon="1.37618">
        <ele>278</ele>
        <time>2019-04-14T12:43:45Z</time>
      </trkpt>
      <trkpt lat="44.41592" lon="1.37617">
        <ele>278</ele>
        <time>2019-04-14T12:43:46Z</time>
      </trkpt>
      <trkpt lat="44.4159" lon="1.37616">
        <ele>279</ele>
        <time>2019-04-14T12:43:47Z</time>
      </trkpt>
      <trkpt lat="44.41589" lon="1.37615">
        <ele>279</ele>
        <time>2019-04-14T12:43:48Z</time>
      </trkpt>
      <trkpt lat="44.41588" lon="1.37614">
        <ele>279</ele>
        <time>2019-04-14T12:43:49Z</time>
      </trkpt>
      <trkpt lat="44.41586" lon="1.37613">
        <ele>279</ele>
        <time>2019-04-14T12:43:50Z</time>
      </trkpt>
      <trkpt lat="44.41585" lon="1.37612">
        <ele>280</ele>
        <time>2019-04-14T12:43:51Z</time>
      </trkpt>
      <trkpt lat="44.41584" lon="1.3761">
        <ele>280</ele>
        <time>2019-04-14T12:43:52Z</time>
      </trkpt>
      <trkpt lat="44.41582" lon="1.37609">
        <ele>280</ele>
        <time>2019-04-14T12:43:53Z</time>
      </trkpt>
      <trkpt lat="44.41581" lon="1.37608">
        <ele>280</ele>
        <time>2019-04-14T12:43:54Z</time>
      </trkpt>
      <trkpt lat="44.41579" lon="1.37607">
        <ele>280</ele>
        <time>2019-04-14T12:43:55Z</time>
      </trkpt>
      <trkpt lat="44.41578" lon="1.37605">
        <ele>281</ele>
        <time>2019-04-14T12:43:56Z</time>
      </trkpt>
      <trkpt lat="44.41577" lon="1.37604">
        <ele>281</ele>
        <time>2019-04-14T12:43:57Z</time>
      </trkpt>
      <trkpt lat="44.41575" lon="1.37603">
        <ele>281</ele>
        <time>2019-04-14T12:43:58Z</time>
      </trkpt>
      <trkpt lat="44.41573" lon="1.37602">
        <ele>281</ele>
        <time>2019-04-14T12:43:59Z</time>
      </trkpt>
      <trkpt lat="44.41572" lon="1.37601">
        <ele>282</ele>
        <time>2019-04-14T12:44:00Z</time>
      </trkpt>
      <trkpt lat="44.4157" lon="1.376">
        <ele>282</ele>
        <time>2019-04-14T12:44:01Z</time>
      </trkpt>
      <trkpt lat="44.41569" lon="1.37599">
        <ele>282</ele>
        <time>2019-04-14T12:44:02Z</time>
      </trkpt>
      <trkpt lat="44.41567" lon="1.37598">
        <ele>282</ele>
        <time>2019-04-14T12:44:03Z</time>
      </trkpt>
      <trkpt lat="44.41566" lon="1.37597">
        <ele>283</ele>
        <time>2019-04-14T12:44:04Z</time>
      </trkpt>
      <trkpt lat="44.41564" lon="1.37596">
        <ele>283</ele>
        <time>2019-04-14T12:44:05Z</time>
      </trkpt>
      <trkpt lat="44.41563" lon="1.37594">
        <ele>283</ele>
        <time>2019-04-14T12:44:06Z</time>
      </trkpt>
      <trkpt lat="44.41562" lon="1.37593">
        <ele>283</ele>
        <time>2019-04-14T12:44:07Z</time>
      </trkpt>
      <trkpt lat="44.41561" lon="1.37591">
        <ele>283</ele>
        <time>2019-04-14T12:44:08Z</time>
      </trkpt>
      <trkpt lat="44.4156" lon="1.3759">
        <ele>283</ele>
        <time>2019-04-14T12:44:09Z</time>
      </trkpt>
      <trkpt lat="44.41558" lon="1.37589">
        <ele>284</ele>
        <time>2019-04-14T12:44:10Z</time>
      </trkpt>
      <trkpt lat="44.41557" lon="1.37588">
        <ele>284</ele>
        <time>2019-04-14T12:44:11Z</time>
      </trkpt>
      <trkpt lat="44.41555" lon="1.37587">
        <ele>284</ele>
        <time>2019-04-14T12:44:12Z</time>
      </trkpt>
      <trkpt lat="44.41554" lon="1.37585">
        <ele>284</ele>
        <time>2019-04-14T12:44:13Z</time>
      </trkpt>
      <trkpt lat="44.41553" lon="1.37584">
        <ele>285</ele>
        <time>2019-04-14T12:44:14Z</time>
      </trkpt>
      <trkpt lat="44.41551" lon="1.37583">
        <ele>285</ele>
        <time>2019-04-14T12:44:15Z</time>
      </trkpt>
      <trkpt lat="44.4155" lon="1.37582">
        <ele>285</ele>
        <time>2019-04-14T12:44:16Z</time>
      </trkpt>
      <trkpt lat="44.41549" lon="1.3758">
        <ele>285</ele>
        <time>2019-04-14T12:44:17Z</time>
      </trkpt>
      <trkpt lat="44.41548" lon="1.37578">
        <ele>286</ele>
        <time>2019-04-14T12:44:18Z</time>
      </trkpt>
      <trkpt lat="44.41547" lon="1.37576">
        <ele>286</ele>
        <time>2019-04-14T12:44:19Z</time>
      </trkpt>
      <trkpt lat="44.41547" lon="1.37574">
        <ele>286</ele>
        <time>2019-04-14T12:44:20Z</time>
      </trkpt>
      <trkpt lat="44.41546" lon="1.37572">
        <ele>286</ele>
        <time>2019-04-14T12:44:21Z</time>
      </trkpt>
      <trkpt lat="44.41546" lon="1.3757">
        <ele>286</ele>
        <time>2019-04-14T12:44:22Z</time>
      </trkpt>
      <trkpt lat="44.41546" lon="1.37568">
        <ele>286</ele>
        <time>2019-04-14T12:44:23Z</time>
      </trkpt>
      <trkpt lat="44.41546" lon="1.37566">
        <ele>286</ele>
        <time>2019-04-14T12:44:24Z</time>
      </trkpt>
      <trkpt lat="44.41546" lon="1.37564">
        <ele>287</ele>
        <time>2019-04-14T12:44:25Z</time>
      </trkpt>
      <trkpt lat="44.41546" lon="1.37562">
        <ele>287</ele>
        <time>2019-04-14T12:44:26Z</time>
      </trkpt>
      <trkpt lat="44.41546" lon="1.37559">
        <ele>287</ele>
        <time>2019-04-14T12:44:27Z</time>
      </trkpt>
      <trkpt lat="44.41546" lon="1.37556">
        <ele>287</ele>
        <time>2019-04-14T12:44:28Z</time>
      </trkpt>
      <trkpt lat="44.41547" lon="1.37553">
        <ele>287</ele>
        <time>2019-04-14T12:44:29Z</time>
      </trkpt>
      <trkpt lat="44.41547" lon="1.37551">
        <ele>287</ele>
        <time>2019-04-14T12:44:30Z</time>
      </trkpt>
      <trkpt lat="44.41547" lon="1.37548">
        <ele>287</ele>
        <time>2019-04-14T12:44:31Z</time>
      </trkpt>
      <trkpt lat="44.41548" lon="1.37546">
        <ele>287</ele>
        <time>2019-04-14T12:44:32Z</time>
      </trkpt>
      <trkpt lat="44.41548" lon="1.37543">
        <ele>287</ele>
        <time>2019-04-14T12:44:33Z</time>
      </trkpt>
      <trkpt lat="44.41548" lon="1.3754">
        <ele>286</ele>
        <time>2019-04-14T12:44:34Z</time>
      </trkpt>
      <trkpt lat="44.41548" lon="1.37537">
        <ele>286</ele>
        <time>2019-04-14T12:44:35Z</time>
      </trkpt>
      <trkpt lat="44.41549" lon="1.37535">
        <ele>286</ele>
        <time>2019-04-14T12:44:36Z</time>
      </trkpt>
      <trkpt lat="44.41549" lon="1.37532">
        <ele>287</ele>
        <time>2019-04-14T12:44:37Z</time>
      </trkpt>
      <trkpt lat="44.4155" lon="1.37529">
        <ele>287</ele>
        <time>2019-04-14T12:44:38Z</time>
      </trkpt>
      <trkpt lat="44.4155" lon="1.37527">
        <ele>287</ele>
        <time>2019-04-14T12:44:39Z</time>
      </trkpt>
      <trkpt lat="44.41552" lon="1.37525">
        <ele>287</ele>
        <time>2019-04-14T12:44:40Z</time>
      </trkpt>
      <trkpt lat="44.41552" lon="1.37522">
        <ele>286</ele>
        <time>2019-04-14T12:44:41Z</time>
      </trkpt>
      <trkpt lat="44.41552" lon="1.37519">
        <ele>287</ele>
        <time>2019-04-14T12:44:42Z</time>
      </trkpt>
      <trkpt lat="44.41551" lon="1.37517">
        <ele>287</ele>
        <time>2019-04-14T12:44:43Z</time>
      </trkpt>
      <trkpt lat="44.41551" lon="1.37515">
        <ele>287</ele>
        <time>2019-04-14T12:44:44Z</time>
      </trkpt>
      <trkpt lat="44.41551" lon="1.37512">
        <ele>287</ele>
        <time>2019-04-14T12:44:45Z</time>
      </trkpt>
      <trkpt lat="44.41552" lon="1.3751">
        <ele>287</ele>
        <time>2019-04-14T12:44:46Z</time>
      </trkpt>
      <trkpt lat="44.41552" lon="1.37507">
        <ele>288</ele>
        <time>2019-04-14T12:44:47Z</time>
      </trkpt>
      <trkpt lat="44.41553" lon="1.37505">
        <ele>288</ele>
        <time>2019-04-14T12:44:48Z</time>
      </trkpt>
      <trkpt lat="44.41553" lon="1.37502">
        <ele>288</ele>
        <time>2019-04-14T12:44:49Z</time>
      </trkpt>
      <trkpt lat="44.41554" lon="1.375">
        <ele>288</ele>
        <time>2019-04-14T12:44:50Z</time>
      </trkpt>
      <trkpt lat="44.41554" lon="1.37498">
        <ele>288</ele>
        <time>2019-04-14T12:44:51Z</time>
      </trkpt>
      <trkpt lat="44.41555" lon="1.37495">
        <ele>289</ele>
        <time>2019-04-14T12:44:52Z</time>
      </trkpt>
      <trkpt lat="44.41555" lon="1.37493">
        <ele>289</ele>
        <time>2019-04-14T12:44:53Z</time>
      </trkpt>
      <trkpt lat="44.41555" lon="1.37491">
        <ele>289</ele>
        <time>2019-04-14T12:44:54Z</time>
      </trkpt>
      <trkpt lat="44.41555" lon="1.37489">
        <ele>290</ele>
        <time>2019-04-14T12:44:55Z</time>
      </trkpt>
      <trkpt lat="44.41556" lon="1.37487">
        <ele>290</ele>
        <time>2019-04-14T12:44:56Z</time>
      </trkpt>
      <trkpt lat="44.41556" lon="1.37485">
        <ele>290</ele>
        <time>2019-04-14T12:44:57Z</time>
      </trkpt>
      <trkpt lat="44.41556" lon="1.37482">
        <ele>290</ele>
        <time>2019-04-14T12:44:58Z</time>
      </trkpt>
      <trkpt lat="44.41557" lon="1.3748">
        <ele>291</ele>
        <time>2019-04-14T12:44:59Z</time>
      </trkpt>
      <trkpt lat="44.41557" lon="1.37478">
        <ele>291</ele>
        <time>2019-04-14T12:45:00Z</time>
      </trkpt>
      <trkpt lat="44.41556" lon="1.37477">
        <ele>291</ele>
        <time>2019-04-14T12:45:01Z</time>
      </trkpt>
      <trkpt lat="44.41555" lon="1.37475">
        <ele>291</ele>
        <time>2019-04-14T12:45:02Z</time>
      </trkpt>
      <trkpt lat="44.41553" lon="1.37474">
        <ele>291</ele>
        <time>2019-04-14T12:45:03Z</time>
      </trkpt>
      <trkpt lat="44.41552" lon="1.37473">
        <ele>291</ele>
        <time>2019-04-14T12:45:04Z</time>
      </trkpt>
      <trkpt lat="44.4155" lon="1.37471">
        <ele>291</ele>
        <time>2019-04-14T12:45:05Z</time>
      </trkpt>
      <trkpt lat="44.41549" lon="1.3747">
        <ele>292</ele>
        <time>2019-04-14T12:45:06Z</time>
      </trkpt>
      <trkpt lat="44.41547" lon="1.37469">
        <ele>292</ele>
        <time>2019-04-14T12:45:07Z</time>
      </trkpt>
      <trkpt lat="44.41546" lon="1.37467">
        <ele>292</ele>
        <time>2019-04-14T12:45:08Z</time>
      </trkpt>
      <trkpt lat="44.41544" lon="1.37466">
        <ele>292</ele>
        <time>2019-04-14T12:45:09Z</time>
      </trkpt>
      <trkpt lat="44.41543" lon="1.37465">
        <ele>292</ele>
        <time>2019-04-14T12:45:10Z</time>
      </trkpt>
      <trkpt lat="44.41541" lon="1.37463">
        <ele>292</ele>
        <time>2019-04-14T12:45:11Z</time>
      </trkpt>
      <trkpt lat="44.4154" lon="1.37463">
        <ele>292</ele>
        <time>2019-04-14T12:45:12Z</time>
      </trkpt>
      <trkpt lat="44.41538" lon="1.37461">
        <ele>292</ele>
        <time>2019-04-14T12:45:13Z</time>
      </trkpt>
      <trkpt lat="44.41537" lon="1.3746">
        <ele>293</ele>
        <time>2019-04-14T12:45:14Z</time>
      </trkpt>
      <trkpt lat="44.41535" lon="1.3746">
        <ele>293</ele>
        <time>2019-04-14T12:45:15Z</time>
      </trkpt>
      <trkpt lat="44.41533" lon="1.37459">
        <ele>293</ele>
        <time>2019-04-14T12:45:16Z</time>
      </trkpt>
      <trkpt lat="44.41532" lon="1.37458">
        <ele>293</ele>
        <time>2019-04-14T12:45:17Z</time>
      </trkpt>
      <trkpt lat="44.4153" lon="1.37457">
        <ele>293</ele>
        <time>2019-04-14T12:45:18Z</time>
      </trkpt>
      <trkpt lat="44.41529" lon="1.37456">
        <ele>293</ele>
        <time>2019-04-14T12:45:19Z</time>
      </trkpt>
      <trkpt lat="44.41527" lon="1.37455">
        <ele>293</ele>
        <time>2019-04-14T12:45:20Z</time>
      </trkpt>
      <trkpt lat="44.41526" lon="1.37454">
        <ele>293</ele>
        <time>2019-04-14T12:45:21Z</time>
      </trkpt>
      <trkpt lat="44.41524" lon="1.37454">
        <ele>293</ele>
        <time>2019-04-14T12:45:22Z</time>
      </trkpt>
      <trkpt lat="44.41523" lon="1.37453">
        <ele>294</ele>
        <time>2019-04-14T12:45:23Z</time>
      </trkpt>
      <trkpt lat="44.41522" lon="1.37452">
        <ele>294</ele>
        <time>2019-04-14T12:45:24Z</time>
      </trkpt>
      <trkpt lat="44.4152" lon="1.37451">
        <ele>294</ele>
        <time>2019-04-14T12:45:25Z</time>
      </trkpt>
      <trkpt lat="44.41519" lon="1.37451">
        <ele>294</ele>
        <time>2019-04-14T12:45:26Z</time>
      </trkpt>
      <trkpt lat="44.41517" lon="1.3745">
        <ele>294</ele>
        <time>2019-04-14T12:45:27Z</time>
      </trkpt>
      <trkpt lat="44.41516" lon="1.37449">
        <ele>294</ele>
        <time>2019-04-14T12:45:28Z</time>
      </trkpt>
      <trkpt lat="44.41514" lon="1.37449">
        <ele>294</ele>
        <time>2019-04-14T12:45:29Z</time>
      </trkpt>
      <trkpt lat="44.41513" lon="1.37448">
        <ele>294</ele>
        <time>2019-04-14T12:45:30Z</time>
      </trkpt>
      <trkpt lat="44.41511" lon="1.37448">
        <ele>295</ele>
        <time>2019-04-14T12:45:31Z</time>
      </trkpt>
      <trkpt lat="44.4151" lon="1.37448">
        <ele>295</ele>
        <time>2019-04-14T12:45:32Z</time>
      </trkpt>
      <trkpt lat="44.41508" lon="1.37447">
        <ele>295</ele>
        <time>2019-04-14T12:45:33Z</time>
      </trkpt>
      <trkpt lat="44.41507" lon="1.37446">
        <ele>295</ele>
        <time>2019-04-14T12:45:34Z</time>
      </trkpt>
      <trkpt lat="44.41506" lon="1.37445">
        <ele>296</ele>
        <time>2019-04-14T12:45:35Z</time>
      </trkpt>
      <trkpt lat="44.41504" lon="1.37444">
        <ele>295</ele>
        <time>2019-04-14T12:45:36Z</time>
      </trkpt>
      <trkpt lat="44.41503" lon="1.37444">
        <ele>296</ele>
        <time>2019-04-14T12:45:37Z</time>
      </trkpt>
      <trkpt lat="44.41501" lon="1.37443">
        <ele>296</ele>
        <time>2019-04-14T12:45:38Z</time>
      </trkpt>
      <trkpt lat="44.415" lon="1.37443">
        <ele>296</ele>
        <time>2019-04-14T12:45:39Z</time>
      </trkpt>
      <trkpt lat="44.41499" lon="1.37443">
        <ele>296</ele>
        <time>2019-04-14T12:45:40Z</time>
      </trkpt>
      <trkpt lat="44.41498" lon="1.37442">
        <ele>297</ele>
        <time>2019-04-14T12:45:41Z</time>
      </trkpt>
      <trkpt lat="44.41497" lon="1.37442">
        <ele>297</ele>
        <time>2019-04-14T12:45:42Z</time>
      </trkpt>
      <trkpt lat="44.41496" lon="1.3744">
        <ele>297</ele>
        <time>2019-04-14T12:45:43Z</time>
      </trkpt>
      <trkpt lat="44.41496" lon="1.37438">
        <ele>298</ele>
        <time>2019-04-14T12:45:44Z</time>
      </trkpt>
      <trkpt lat="44.41496" lon="1.37436">
        <ele>298</ele>
        <time>2019-04-14T12:45:45Z</time>
      </trkpt>
      <trkpt lat="44.41497" lon="1.37434">
        <ele>298</ele>
        <time>2019-04-14T12:45:46Z</time>
      </trkpt>
      <trkpt lat="44.41499" lon="1.3743">
        <ele>298</ele>
        <time>2019-04-14T12:45:47Z</time>
      </trkpt>
      <trkpt lat="44.41499" lon="1.37429">
        <ele>298</ele>
        <time>2019-04-14T12:45:49Z</time>
      </trkpt>
      <trkpt lat="44.41499" lon="1.37427">
        <ele>298</ele>
        <time>2019-04-14T12:45:50Z</time>
      </trkpt>
      <trkpt lat="44.415" lon="1.37425">
        <ele>298</ele>
        <time>2019-04-14T12:45:51Z</time>
      </trkpt>
      <trkpt lat="44.41502" lon="1.37423">
        <ele>298</ele>
        <time>2019-04-14T12:45:52Z</time>
      </trkpt>
      <trkpt lat="44.41503" lon="1.3742">
        <ele>298</ele>
        <time>2019-04-14T12:45:53Z</time>
      </trkpt>
      <trkpt lat="44.41505" lon="1.37417">
        <ele>297</ele>
        <time>2019-04-14T12:45:54Z</time>
      </trkpt>
      <trkpt lat="44.41506" lon="1.37415">
        <ele>297</ele>
        <time>2019-04-14T12:45:55Z</time>
      </trkpt>
      <trkpt lat="44.41508" lon="1.37412">
        <ele>297</ele>
        <time>2019-04-14T12:45:56Z</time>
      </trkpt>
      <trkpt lat="44.41509" lon="1.37408">
        <ele>297</ele>
        <time>2019-04-14T12:45:57Z</time>
      </trkpt>
      <trkpt lat="44.41511" lon="1.37405">
        <ele>297</ele>
        <time>2019-04-14T12:45:58Z</time>
      </trkpt>
      <trkpt lat="44.41512" lon="1.37401">
        <ele>297</ele>
        <time>2019-04-14T12:45:59Z</time>
      </trkpt>
      <trkpt lat="44.41514" lon="1.37397">
        <ele>297</ele>
        <time>2019-04-14T12:46:00Z</time>
      </trkpt>
      <trkpt lat="44.41516" lon="1.37393">
        <ele>297</ele>
        <time>2019-04-14T12:46:01Z</time>
      </trkpt>
      <trkpt lat="44.41518" lon="1.37389">
        <ele>297</ele>
        <time>2019-04-14T12:46:02Z</time>
      </trkpt>
      <trkpt lat="44.41521" lon="1.37386">
        <ele>297</ele>
        <time>2019-04-14T12:46:03Z</time>
      </trkpt>
      <trkpt lat="44.41523" lon="1.37381">
        <ele>296</ele>
        <time>2019-04-14T12:46:04Z</time>
      </trkpt>
      <trkpt lat="44.41526" lon="1.37376">
        <ele>296</ele>
        <time>2019-04-14T12:46:05Z</time>
      </trkpt>
      <trkpt lat="44.41529" lon="1.3737">
        <ele>296</ele>
        <time>2019-04-14T12:46:06Z</time>
      </trkpt>
      <trkpt lat="44.41532" lon="1.37364">
        <ele>295</ele>
        <time>2019-04-14T12:46:07Z</time>
      </trkpt>
      <trkpt lat="44.41535" lon="1.37358">
        <ele>295</ele>
        <time>2019-04-14T12:46:08Z</time>
      </trkpt>
      <trkpt lat="44.41538" lon="1.37351">
        <ele>295</ele>
        <time>2019-04-14T12:46:09Z</time>
      </trkpt>
      <trkpt lat="44.41541" lon="1.37344">
        <ele>294</ele>
        <time>2019-04-14T12:46:10Z</time>
      </trkpt>
      <trkpt lat="44.41545" lon="1.37337">
        <ele>294</ele>
        <time>2019-04-14T12:46:11Z</time>
      </trkpt>
      <trkpt lat="44.41552" lon="1.37322">
        <ele>294</ele>
        <time>2019-04-14T12:46:12Z</time>
      </trkpt>
      <trkpt lat="44.41556" lon="1.37314">
        <ele>293</ele>
        <time>2019-04-14T12:46:14Z</time>
      </trkpt>
      <trkpt lat="44.4156" lon="1.37306">
        <ele>292</ele>
        <time>2019-04-14T12:46:15Z</time>
      </trkpt>
      <trkpt lat="44.41564" lon="1.37297">
        <ele>292</ele>
        <time>2019-04-14T12:46:16Z</time>
      </trkpt>
      <trkpt lat="44.41569" lon="1.37288">
        <ele>291</ele>
        <time>2019-04-14T12:46:17Z</time>
      </trkpt>
      <trkpt lat="44.41573" lon="1.37278">
        <ele>291</ele>
        <time>2019-04-14T12:46:18Z</time>
      </trkpt>
      <trkpt lat="44.41578" lon="1.37269">
        <ele>291</ele>
        <time>2019-04-14T12:46:19Z</time>
      </trkpt>
      <trkpt lat="44.41583" lon="1.37259">
        <ele>290</ele>
        <time>2019-04-14T12:46:20Z</time>
      </trkpt>
      <trkpt lat="44.41587" lon="1.3725">
        <ele>290</ele>
        <time>2019-04-14T12:46:21Z</time>
      </trkpt>
      <trkpt lat="44.41592" lon="1.37241">
        <ele>290</ele>
        <time>2019-04-14T12:46:22Z</time>
      </trkpt>
      <trkpt lat="44.41596" lon="1.37231">
        <ele>290</ele>
        <time>2019-04-14T12:46:23Z</time>
      </trkpt>
      <trkpt lat="44.41601" lon="1.37223">
        <ele>290</ele>
        <time>2019-04-14T12:46:24Z</time>
      </trkpt>
      <trkpt lat="44.41606" lon="1.37214">
        <ele>289</ele>
        <time>2019-04-14T12:46:25Z</time>
      </trkpt>
      <trkpt lat="44.41611" lon="1.37208">
        <ele>289</ele>
        <time>2019-04-14T12:46:26Z</time>
      </trkpt>
      <trkpt lat="44.41615" lon="1.372">
        <ele>289</ele>
        <time>2019-04-14T12:46:27Z</time>
      </trkpt>
      <trkpt lat="44.4162" lon="1.37192">
        <ele>289</ele>
        <time>2019-04-14T12:46:28Z</time>
      </trkpt>
      <trkpt lat="44.41624" lon="1.37185">
        <ele>289</ele>
        <time>2019-04-14T12:46:29Z</time>
      </trkpt>
      <trkpt lat="44.41629" lon="1.37179">
        <ele>289</ele>
        <time>2019-04-14T12:46:30Z</time>
      </trkpt>
      <trkpt lat="44.41633" lon="1.37173">
        <ele>290</ele>
        <time>2019-04-14T12:46:31Z</time>
      </trkpt>
      <trkpt lat="44.41637" lon="1.37167">
        <ele>290</ele>
        <time>2019-04-14T12:46:32Z</time>
      </trkpt>
      <trkpt lat="44.41639" lon="1.37161">
        <ele>289</ele>
        <time>2019-04-14T12:46:33Z</time>
      </trkpt>
      <trkpt lat="44.4164" lon="1.37156">
        <ele>289</ele>
        <time>2019-04-14T12:46:34Z</time>
      </trkpt>
      <trkpt lat="44.41639" lon="1.37154">
        <ele>290</ele>
        <time>2019-04-14T12:46:35Z</time>
      </trkpt>
      <trkpt lat="44.41637" lon="1.37153">
        <ele>290</ele>
        <time>2019-04-14T12:46:36Z</time>
      </trkpt>
      <trkpt lat="44.41635" lon="1.37154">
        <ele>290</ele>
        <time>2019-04-14T12:46:37Z</time>
      </trkpt>
      <trkpt lat="44.41633" lon="1.37156">
        <ele>291</ele>
        <time>2019-04-14T12:46:38Z</time>
      </trkpt>
      <trkpt lat="44.41631" lon="1.37158">
        <ele>291</ele>
        <time>2019-04-14T12:46:39Z</time>
      </trkpt>
      <trkpt lat="44.4163" lon="1.37161">
        <ele>290</ele>
        <time>2019-04-14T12:46:40Z</time>
      </trkpt>
      <trkpt lat="44.41628" lon="1.37163">
        <ele>291</ele>
        <time>2019-04-14T12:46:41Z</time>
      </trkpt>
      <trkpt lat="44.41623" lon="1.37166">
        <ele>291</ele>
        <time>2019-04-14T12:46:42Z</time>
      </trkpt>
      <trkpt lat="44.41621" lon="1.37167">
        <ele>291</ele>
        <time>2019-04-14T12:46:43Z</time>
      </trkpt>
      <trkpt lat="44.41619" lon="1.37167">
        <ele>291</ele>
        <time>2019-04-14T12:46:45Z</time>
      </trkpt>
      <trkpt lat="44.41617" lon="1.37167">
        <ele>292</ele>
        <time>2019-04-14T12:46:46Z</time>
      </trkpt>
      <trkpt lat="44.41615" lon="1.37166">
        <ele>292</ele>
        <time>2019-04-14T12:46:47Z</time>
      </trkpt>
      <trkpt lat="44.41613" lon="1.37164">
        <ele>292</ele>
        <time>2019-04-14T12:46:48Z</time>
      </trkpt>
      <trkpt lat="44.41611" lon="1.37162">
        <ele>293</ele>
        <time>2019-04-14T12:46:49Z</time>
      </trkpt>
      <trkpt lat="44.41609" lon="1.3716">
        <ele>293</ele>
        <time>2019-04-14T12:46:50Z</time>
      </trkpt>
      <trkpt lat="44.41608" lon="1.37158">
        <ele>293</ele>
        <time>2019-04-14T12:46:51Z</time>
      </trkpt>
      <trkpt lat="44.41606" lon="1.37156">
        <ele>294</ele>
        <time>2019-04-14T12:46:52Z</time>
      </trkpt>
      <trkpt lat="44.41605" lon="1.37154">
        <ele>294</ele>
        <time>2019-04-14T12:46:53Z</time>
      </trkpt>
      <trkpt lat="44.41603" lon="1.37153">
        <ele>294</ele>
        <time>2019-04-14T12:46:54Z</time>
      </trkpt>
      <trkpt lat="44.41602" lon="1.37151">
        <ele>295</ele>
        <time>2019-04-14T12:46:55Z</time>
      </trkpt>
      <trkpt lat="44.416" lon="1.3715">
        <ele>295</ele>
        <time>2019-04-14T12:46:56Z</time>
      </trkpt>
      <trkpt lat="44.41598" lon="1.37148">
        <ele>295</ele>
        <time>2019-04-14T12:46:57Z</time>
      </trkpt>
      <trkpt lat="44.41597" lon="1.37147">
        <ele>296</ele>
        <time>2019-04-14T12:46:58Z</time>
      </trkpt>
      <trkpt lat="44.41595" lon="1.37145">
        <ele>296</ele>
        <time>2019-04-14T12:46:59Z</time>
      </trkpt>
      <trkpt lat="44.41593" lon="1.37143">
        <ele>297</ele>
        <time>2019-04-14T12:47:00Z</time>
      </trkpt>
      <trkpt lat="44.4159" lon="1.37139">
        <ele>297</ele>
        <time>2019-04-14T12:47:01Z</time>
      </trkpt>
      <trkpt lat="44.41588" lon="1.37137">
        <ele>298</ele>
        <time>2019-04-14T12:47:03Z</time>
      </trkpt>
      <trkpt lat="44.41586" lon="1.37135">
        <ele>298</ele>
        <time>2019-04-14T12:47:04Z</time>
      </trkpt>
      <trkpt lat="44.41584" lon="1.37133">
        <ele>298</ele>
        <time>2019-04-14T12:47:05Z</time>
      </trkpt>
      <trkpt lat="44.41581" lon="1.37129">
        <ele>299</ele>
        <time>2019-04-14T12:47:06Z</time>
      </trkpt>
      <trkpt lat="44.41579" lon="1.37127">
        <ele>299</ele>
        <time>2019-04-14T12:47:08Z</time>
      </trkpt>
      <trkpt lat="44.41577" lon="1.37125">
        <ele>299</ele>
        <time>2019-04-14T12:47:09Z</time>
      </trkpt>
      <trkpt lat="44.41575" lon="1.37122">
        <ele>300</ele>
        <time>2019-04-14T12:47:10Z</time>
      </trkpt>
      <trkpt lat="44.41574" lon="1.3712">
        <ele>300</ele>
        <time>2019-04-14T12:47:11Z</time>
      </trkpt>
      <trkpt lat="44.41572" lon="1.37119">
        <ele>300</ele>
        <time>2019-04-14T12:47:12Z</time>
      </trkpt>
      <trkpt lat="44.4157" lon="1.37117">
        <ele>301</ele>
        <time>2019-04-14T12:47:13Z</time>
      </trkpt>
      <trkpt lat="44.41569" lon="1.37115">
        <ele>301</ele>
        <time>2019-04-14T12:47:14Z</time>
      </trkpt>
      <trkpt lat="44.41567" lon="1.37113">
        <ele>301</ele>
        <time>2019-04-14T12:47:15Z</time>
      </trkpt>
      <trkpt lat="44.41565" lon="1.37111">
        <ele>301</ele>
        <time>2019-04-14T12:47:16Z</time>
      </trkpt>
      <trkpt lat="44.41564" lon="1.37109">
        <ele>301</ele>
        <time>2019-04-14T12:47:17Z</time>
      </trkpt>
      <trkpt lat="44.41562" lon="1.37107">
        <ele>302</ele>
        <time>2019-04-14T12:47:18Z</time>
      </trkpt>
      <trkpt lat="44.4156" lon="1.37105">
        <ele>302</ele>
        <time>2019-04-14T12:47:19Z</time>
      </trkpt>
      <trkpt lat="44.41559" lon="1.37102">
        <ele>302</ele>
        <time>2019-04-14T12:47:20Z</time>
      </trkpt>
      <trkpt lat="44.41558" lon="1.37101">
        <ele>302</ele>
        <time>2019-04-14T12:47:21Z</time>
      </trkpt>
      <trkpt lat="44.41557" lon="1.37098">
        <ele>302</ele>
        <time>2019-04-14T12:47:22Z</time>
      </trkpt>
      <trkpt lat="44.41556" lon="1.37096">
        <ele>303</ele>
        <time>2019-04-14T12:47:23Z</time>
      </trkpt>
      <trkpt lat="44.41554" lon="1.37094">
        <ele>303</ele>
        <time>2019-04-14T12:47:24Z</time>
      </trkpt>
      <trkpt lat="44.41553" lon="1.37092">
        <ele>303</ele>
        <time>2019-04-14T12:47:25Z</time>
      </trkpt>
      <trkpt lat="44.41551" lon="1.37089">
        <ele>303</ele>
        <time>2019-04-14T12:47:26Z</time>
      </trkpt>
      <trkpt lat="44.41548" lon="1.37085">
        <ele>303</ele>
        <time>2019-04-14T12:47:27Z</time>
      </trkpt>
      <trkpt lat="44.41546" lon="1.37083">
        <ele>303</ele>
        <time>2019-04-14T12:47:28Z</time>
      </trkpt>
      <trkpt lat="44.41545" lon="1.37081">
        <ele>304</ele>
        <time>2019-04-14T12:47:30Z</time>
      </trkpt>
      <trkpt lat="44.41541" lon="1.37077">
        <ele>304</ele>
        <time>2019-04-14T12:47:31Z</time>
      </trkpt>
      <trkpt lat="44.41539" lon="1.37074">
        <ele>304</ele>
        <time>2019-04-14T12:47:32Z</time>
      </trkpt>
      <trkpt lat="44.41537" lon="1.37072">
        <ele>304</ele>
        <time>2019-04-14T12:47:34Z</time>
      </trkpt>
      <trkpt lat="44.41533" lon="1.37067">
        <ele>304</ele>
        <time>2019-04-14T12:47:35Z</time>
      </trkpt>
      <trkpt lat="44.4153" lon="1.37065">
        <ele>304</ele>
        <time>2019-04-14T12:47:37Z</time>
      </trkpt>
      <trkpt lat="44.41529" lon="1.37064">
        <ele>304</ele>
        <time>2019-04-14T12:47:38Z</time>
      </trkpt>
      <trkpt lat="44.41527" lon="1.37061">
        <ele>304</ele>
        <time>2019-04-14T12:47:39Z</time>
      </trkpt>
      <trkpt lat="44.41525" lon="1.37058">
        <ele>304</ele>
        <time>2019-04-14T12:47:40Z</time>
      </trkpt>
      <trkpt lat="44.41522" lon="1.37056">
        <ele>304</ele>
        <time>2019-04-14T12:47:41Z</time>
      </trkpt>
      <trkpt lat="44.41519" lon="1.37053">
        <ele>304</ele>
        <time>2019-04-14T12:47:42Z</time>
      </trkpt>
      <trkpt lat="44.41517" lon="1.37049">
        <ele>304</ele>
        <time>2019-04-14T12:47:43Z</time>
      </trkpt>
      <trkpt lat="44.41516" lon="1.37045">
        <ele>304</ele>
        <time>2019-04-14T12:47:44Z</time>
      </trkpt>
      <trkpt lat="44.41513" lon="1.37041">
        <ele>303</ele>
        <time>2019-04-14T12:47:45Z</time>
      </trkpt>
      <trkpt lat="44.4151" lon="1.37037">
        <ele>303</ele>
        <time>2019-04-14T12:47:46Z</time>
      </trkpt>
      <trkpt lat="44.41506" lon="1.37033">
        <ele>303</ele>
        <time>2019-04-14T12:47:47Z</time>
      </trkpt>
      <trkpt lat="44.41502" lon="1.3703">
        <ele>303</ele>
        <time>2019-04-14T12:47:48Z</time>
      </trkpt>
      <trkpt lat="44.41497" lon="1.37029">
        <ele>302</ele>
        <time>2019-04-14T12:47:49Z</time>
      </trkpt>
      <trkpt lat="44.41488" lon="1.37034">
        <ele>302</ele>
        <time>2019-04-14T12:47:50Z</time>
      </trkpt>
      <trkpt lat="44.41486" lon="1.37039">
        <ele>302</ele>
        <time>2019-04-14T12:47:51Z</time>
      </trkpt>
      <trkpt lat="44.41485" lon="1.37042">
        <ele>303</ele>
        <time>2019-04-14T12:47:52Z</time>
      </trkpt>
      <trkpt lat="44.41483" lon="1.37045">
        <ele>303</ele>
        <time>2019-04-14T12:47:54Z</time>
      </trkpt>
      <trkpt lat="44.41481" lon="1.37048">
        <ele>303</ele>
        <time>2019-04-14T12:47:55Z</time>
      </trkpt>
      <trkpt lat="44.4148" lon="1.37051">
        <ele>304</ele>
        <time>2019-04-14T12:47:56Z</time>
      </trkpt>
      <trkpt lat="44.41478" lon="1.37053">
        <ele>304</ele>
        <time>2019-04-14T12:47:57Z</time>
      </trkpt>
      <trkpt lat="44.41477" lon="1.37056">
        <ele>304</ele>
        <time>2019-04-14T12:47:58Z</time>
      </trkpt>
      <trkpt lat="44.41476" lon="1.37058">
        <ele>304</ele>
        <time>2019-04-14T12:47:59Z</time>
      </trkpt>
      <trkpt lat="44.41475" lon="1.37061">
        <ele>304</ele>
        <time>2019-04-14T12:48:00Z</time>
      </trkpt>
      <trkpt lat="44.41473" lon="1.37063">
        <ele>304</ele>
        <time>2019-04-14T12:48:01Z</time>
      </trkpt>
      <trkpt lat="44.41472" lon="1.37065">
        <ele>305</ele>
        <time>2019-04-14T12:48:02Z</time>
      </trkpt>
      <trkpt lat="44.41471" lon="1.37068">
        <ele>305</ele>
        <time>2019-04-14T12:48:03Z</time>
      </trkpt>
      <trkpt lat="44.41469" lon="1.3707">
        <ele>305</ele>
        <time>2019-04-14T12:48:04Z</time>
      </trkpt>
      <trkpt lat="44.41468" lon="1.37072">
        <ele>305</ele>
        <time>2019-04-14T12:48:05Z</time>
      </trkpt>
      <trkpt lat="44.41467" lon="1.37074">
        <ele>305</ele>
        <time>2019-04-14T12:48:06Z</time>
      </trkpt>
      <trkpt lat="44.41466" lon="1.37076">
        <ele>305</ele>
        <time>2019-04-14T12:48:07Z</time>
      </trkpt>
      <trkpt lat="44.41466" lon="1.37078">
        <ele>306</ele>
        <time>2019-04-14T12:48:08Z</time>
      </trkpt>
      <trkpt lat="44.41465" lon="1.37083">
        <ele>306</ele>
        <time>2019-04-14T12:48:09Z</time>
      </trkpt>
      <trkpt lat="44.41464" lon="1.37089">
        <ele>306</ele>
        <time>2019-04-14T12:48:11Z</time>
      </trkpt>
      <trkpt lat="44.41465" lon="1.37092">
        <ele>306</ele>
        <time>2019-04-14T12:48:12Z</time>
      </trkpt>
      <trkpt lat="44.41466" lon="1.37097">
        <ele>306</ele>
        <time>2019-04-14T12:48:14Z</time>
      </trkpt>
      <trkpt lat="44.41468" lon="1.371">
        <ele>307</ele>
        <time>2019-04-14T12:48:15Z</time>
      </trkpt>
      <trkpt lat="44.41468" lon="1.37102">
        <ele>307</ele>
        <time>2019-04-14T12:48:17Z</time>
      </trkpt>
      <trkpt lat="44.41469" lon="1.37104">
        <ele>307</ele>
        <time>2019-04-14T12:48:18Z</time>
      </trkpt>
      <trkpt lat="44.41469" lon="1.37107">
        <ele>307</ele>
        <time>2019-04-14T12:48:19Z</time>
      </trkpt>
      <trkpt lat="44.41471" lon="1.37109">
        <ele>307</ele>
        <time>2019-04-14T12:48:20Z</time>
      </trkpt>
      <trkpt lat="44.41472" lon="1.37111">
        <ele>307</ele>
        <time>2019-04-14T12:48:21Z</time>
      </trkpt>
      <trkpt lat="44.41473" lon="1.37112">
        <ele>307</ele>
        <time>2019-04-14T12:48:22Z</time>
      </trkpt>
      <trkpt lat="44.41475" lon="1.37114">
        <ele>307</ele>
        <time>2019-04-14T12:48:23Z</time>
      </trkpt>
      <trkpt lat="44.41477" lon="1.37116">
        <ele>308</ele>
        <time>2019-04-14T12:48:24Z</time>
      </trkpt>
      <trkpt lat="44.41479" lon="1.37118">
        <ele>308</ele>
        <time>2019-04-14T12:48:25Z</time>
      </trkpt>
      <trkpt lat="44.4148" lon="1.3712">
        <ele>308</ele>
        <time>2019-04-14T12:48:26Z</time>
      </trkpt>
      <trkpt lat="44.41482" lon="1.37122">
        <ele>308</ele>
        <time>2019-04-14T12:48:27Z</time>
      </trkpt>
      <trkpt lat="44.41483" lon="1.37124">
        <ele>308</ele>
        <time>2019-04-14T12:48:28Z</time>
      </trkpt>
      <trkpt lat="44.41484" lon="1.37126">
        <ele>308</ele>
        <time>2019-04-14T12:48:29Z</time>
      </trkpt>
      <trkpt lat="44.41486" lon="1.37129">
        <ele>308</ele>
        <time>2019-04-14T12:48:30Z</time>
      </trkpt>
      <trkpt lat="44.41487" lon="1.37131">
        <ele>308</ele>
        <time>2019-04-14T12:48:31Z</time>
      </trkpt>
      <trkpt lat="44.41489" lon="1.37133">
        <ele>308</ele>
        <time>2019-04-14T12:48:32Z</time>
      </trkpt>
      <trkpt lat="44.4149" lon="1.37134">
        <ele>308</ele>
        <time>2019-04-14T12:48:33Z</time>
      </trkpt>
      <trkpt lat="44.41491" lon="1.37137">
        <ele>308</ele>
        <time>2019-04-14T12:48:34Z</time>
      </trkpt>
      <trkpt lat="44.41491" lon="1.3714">
        <ele>308</ele>
        <time>2019-04-14T12:48:35Z</time>
      </trkpt>
      <trkpt lat="44.41493" lon="1.37142">
        <ele>308</ele>
        <time>2019-04-14T12:48:36Z</time>
      </trkpt>
      <trkpt lat="44.41494" lon="1.37144">
        <ele>308</ele>
        <time>2019-04-14T12:48:37Z</time>
      </trkpt>
      <trkpt lat="44.41496" lon="1.37146">
        <ele>308</ele>
        <time>2019-04-14T12:48:38Z</time>
      </trkpt>
      <trkpt lat="44.41497" lon="1.37148">
        <ele>308</ele>
        <time>2019-04-14T12:48:39Z</time>
      </trkpt>
      <trkpt lat="44.41497" lon="1.37153">
        <ele>309</ele>
        <time>2019-04-14T12:48:40Z</time>
      </trkpt>
      <trkpt lat="44.41496" lon="1.37155">
        <ele>309</ele>
        <time>2019-04-14T12:48:41Z</time>
      </trkpt>
      <trkpt lat="44.41495" lon="1.37157">
        <ele>309</ele>
        <time>2019-04-14T12:48:42Z</time>
      </trkpt>
      <trkpt lat="44.41493" lon="1.37159">
        <ele>309</ele>
        <time>2019-04-14T12:48:43Z</time>
      </trkpt>
      <trkpt lat="44.41492" lon="1.3716">
        <ele>309</ele>
        <time>2019-04-14T12:48:45Z</time>
      </trkpt>
      <trkpt lat="44.4149" lon="1.37162">
        <ele>309</ele>
        <time>2019-04-14T12:48:46Z</time>
      </trkpt>
      <trkpt lat="44.41488" lon="1.37163">
        <ele>309</ele>
        <time>2019-04-14T12:48:47Z</time>
      </trkpt>
      <trkpt lat="44.41487" lon="1.37165">
        <ele>309</ele>
        <time>2019-04-14T12:48:48Z</time>
      </trkpt>
      <trkpt lat="44.41485" lon="1.37167">
        <ele>310</ele>
        <time>2019-04-14T12:48:49Z</time>
      </trkpt>
      <trkpt lat="44.41483" lon="1.37169">
        <ele>310</ele>
        <time>2019-04-14T12:48:50Z</time>
      </trkpt>
      <trkpt lat="44.41481" lon="1.3717">
        <ele>310</ele>
        <time>2019-04-14T12:48:51Z</time>
      </trkpt>
      <trkpt lat="44.41479" lon="1.37172">
        <ele>310</ele>
        <time>2019-04-14T12:48:52Z</time>
      </trkpt>
      <trkpt lat="44.41477" lon="1.37173">
        <ele>310</ele>
        <time>2019-04-14T12:48:53Z</time>
      </trkpt>
      <trkpt lat="44.41475" lon="1.37174">
        <ele>310</ele>
        <time>2019-04-14T12:48:54Z</time>
      </trkpt>
      <trkpt lat="44.41474" lon="1.37175">
        <ele>310</ele>
        <time>2019-04-14T12:48:55Z</time>
      </trkpt>
      <trkpt lat="44.41471" lon="1.37177">
        <ele>310</ele>
        <time>2019-04-14T12:48:56Z</time>
      </trkpt>
      <trkpt lat="44.41469" lon="1.37178">
        <ele>310</ele>
        <time>2019-04-14T12:48:57Z</time>
      </trkpt>
      <trkpt lat="44.41467" lon="1.37179">
        <ele>310</ele>
        <time>2019-04-14T12:48:58Z</time>
      </trkpt>
      <trkpt lat="44.41465" lon="1.37181">
        <ele>310</ele>
        <time>2019-04-14T12:48:59Z</time>
      </trkpt>
      <trkpt lat="44.41462" lon="1.37182">
        <ele>310</ele>
        <time>2019-04-14T12:49:00Z</time>
      </trkpt>
      <trkpt lat="44.4146" lon="1.37183">
        <ele>310</ele>
        <time>2019-04-14T12:49:01Z</time>
      </trkpt>
      <trkpt lat="44.41458" lon="1.37184">
        <ele>310</ele>
        <time>2019-04-14T12:49:02Z</time>
      </trkpt>
      <trkpt lat="44.41456" lon="1.37185">
        <ele>310</ele>
        <time>2019-04-14T12:49:03Z</time>
      </trkpt>
      <trkpt lat="44.41454" lon="1.37186">
        <ele>310</ele>
        <time>2019-04-14T12:49:04Z</time>
      </trkpt>
      <trkpt lat="44.41451" lon="1.37187">
        <ele>310</ele>
        <time>2019-04-14T12:49:05Z</time>
      </trkpt>
      <trkpt lat="44.41449" lon="1.37188">
        <ele>310</ele>
        <time>2019-04-14T12:49:06Z</time>
      </trkpt>
      <trkpt lat="44.41445" lon="1.37189">
        <ele>310</ele>
        <time>2019-04-14T12:49:07Z</time>
      </trkpt>
      <trkpt lat="44.41443" lon="1.37189">
        <ele>310</ele>
        <time>2019-04-14T12:49:09Z</time>
      </trkpt>
      <trkpt lat="44.41439" lon="1.37187">
        <ele>310</ele>
        <time>2019-04-14T12:49:10Z</time>
      </trkpt>
      <trkpt lat="44.41438" lon="1.37185">
        <ele>310</ele>
        <time>2019-04-14T12:49:11Z</time>
      </trkpt>
      <trkpt lat="44.41436" lon="1.37183">
        <ele>309</ele>
        <time>2019-04-14T12:49:12Z</time>
      </trkpt>
      <trkpt lat="44.41435" lon="1.37181">
        <ele>309</ele>
        <time>2019-04-14T12:49:13Z</time>
      </trkpt>
      <trkpt lat="44.41435" lon="1.37179">
        <ele>309</ele>
        <time>2019-04-14T12:49:15Z</time>
      </trkpt>
      <trkpt lat="44.41434" lon="1.37177">
        <ele>309</ele>
        <time>2019-04-14T12:49:16Z</time>
      </trkpt>
      <trkpt lat="44.41434" lon="1.37175">
        <ele>309</ele>
        <time>2019-04-14T12:49:17Z</time>
      </trkpt>
      <trkpt lat="44.41433" lon="1.37174">
        <ele>309</ele>
        <time>2019-04-14T12:49:18Z</time>
      </trkpt>
      <trkpt lat="44.41433" lon="1.37172">
        <ele>309</ele>
        <time>2019-04-14T12:49:19Z</time>
      </trkpt>
      <trkpt lat="44.41432" lon="1.37171">
        <ele>309</ele>
        <time>2019-04-14T12:49:20Z</time>
      </trkpt>
      <trkpt lat="44.41431" lon="1.37169">
        <ele>309</ele>
        <time>2019-04-14T12:49:21Z</time>
      </trkpt>
      <trkpt lat="44.41431" lon="1.37168">
        <ele>309</ele>
        <time>2019-04-14T12:49:22Z</time>
      </trkpt>
      <trkpt lat="44.4143" lon="1.37167">
        <ele>309</ele>
        <time>2019-04-14T12:49:23Z</time>
      </trkpt>
      <trkpt lat="44.41429" lon="1.37165">
        <ele>309</ele>
        <time>2019-04-14T12:49:24Z</time>
      </trkpt>
      <trkpt lat="44.41429" lon="1.37164">
        <ele>309</ele>
        <time>2019-04-14T12:49:25Z</time>
      </trkpt>
      <trkpt lat="44.41429" lon="1.37162">
        <ele>309</ele>
        <time>2019-04-14T12:49:26Z</time>
      </trkpt>
      <trkpt lat="44.4143" lon="1.37161">
        <ele>309</ele>
        <time>2019-04-14T12:49:27Z</time>
      </trkpt>
      <trkpt lat="44.4143" lon="1.3716">
        <ele>309</ele>
        <time>2019-04-14T12:49:28Z</time>
      </trkpt>
      <trkpt lat="44.4143" lon="1.37158">
        <ele>309</ele>
        <time>2019-04-14T12:49:29Z</time>
      </trkpt>
      <trkpt lat="44.41428" lon="1.37157">
        <ele>309</ele>
        <time>2019-04-14T12:49:30Z</time>
      </trkpt>
      <trkpt lat="44.41427" lon="1.37158">
        <ele>309</ele>
        <time>2019-04-14T12:49:31Z</time>
      </trkpt>
      <trkpt lat="44.41426" lon="1.37159">
        <ele>309</ele>
        <time>2019-04-14T12:49:32Z</time>
      </trkpt>
      <trkpt lat="44.41426" lon="1.37161">
        <ele>309</ele>
        <time>2019-04-14T12:49:33Z</time>
      </trkpt>
      <trkpt lat="44.41427" lon="1.37162">
        <ele>309</ele>
        <time>2019-04-14T12:49:34Z</time>
      </trkpt>
      <trkpt lat="44.41429" lon="1.37165">
        <ele>309</ele>
        <time>2019-04-14T12:49:35Z</time>
      </trkpt>
      <trkpt lat="44.41431" lon="1.37167">
        <ele>309</ele>
        <time>2019-04-14T12:49:37Z</time>
      </trkpt>
      <trkpt lat="44.41432" lon="1.37169">
        <ele>309</ele>
        <time>2019-04-14T12:49:38Z</time>
      </trkpt>
      <trkpt lat="44.41433" lon="1.37172">
        <ele>309</ele>
        <time>2019-04-14T12:49:39Z</time>
      </trkpt>
      <trkpt lat="44.41434" lon="1.37175">
        <ele>309</ele>
        <time>2019-04-14T12:49:40Z</time>
      </trkpt>
      <trkpt lat="44.41435" lon="1.37178">
        <ele>309</ele>
        <time>2019-04-14T12:49:41Z</time>
      </trkpt>
      <trkpt lat="44.41436" lon="1.37181">
        <ele>309</ele>
        <time>2019-04-14T12:49:42Z</time>
      </trkpt>
      <trkpt lat="44.41438" lon="1.37184">
        <ele>309</ele>
        <time>2019-04-14T12:49:43Z</time>
      </trkpt>
      <trkpt lat="44.41438" lon="1.37188">
        <ele>309</ele>
        <time>2019-04-14T12:49:44Z</time>
      </trkpt>
      <trkpt lat="44.41438" lon="1.37189">
        <ele>309</ele>
        <time>2019-04-14T12:49:45Z</time>
      </trkpt>
      <trkpt lat="44.41439" lon="1.3719">
        <ele>309</ele>
        <time>2019-04-14T12:49:46Z</time>
      </trkpt>
      <trkpt lat="44.41438" lon="1.37193">
        <ele>309</ele>
        <time>2019-04-14T12:49:48Z</time>
      </trkpt>
      <trkpt lat="44.41436" lon="1.37194">
        <ele>309</ele>
        <time>2019-04-14T12:49:49Z</time>
      </trkpt>
      <trkpt lat="44.41434" lon="1.37196">
        <ele>309</ele>
        <time>2019-04-14T12:49:51Z</time>
      </trkpt>
      <trkpt lat="44.41433" lon="1.37196">
        <ele>309</ele>
        <time>2019-04-14T12:49:52Z</time>
      </trkpt>
      <trkpt lat="44.41431" lon="1.37197">
        <ele>309</ele>
        <time>2019-04-14T12:49:53Z</time>
      </trkpt>
      <trkpt lat="44.41429" lon="1.37199">
        <ele>309</ele>
        <time>2019-04-14T12:49:54Z</time>
      </trkpt>
      <trkpt lat="44.41427" lon="1.372">
        <ele>309</ele>
        <time>2019-04-14T12:49:55Z</time>
      </trkpt>
      <trkpt lat="44.41426" lon="1.37201">
        <ele>309</ele>
        <time>2019-04-14T12:49:56Z</time>
      </trkpt>
      <trkpt lat="44.41425" lon="1.37202">
        <ele>309</ele>
        <time>2019-04-14T12:49:57Z</time>
      </trkpt>
      <trkpt lat="44.41423" lon="1.37202">
        <ele>309</ele>
        <time>2019-04-14T12:49:58Z</time>
      </trkpt>
      <trkpt lat="44.41421" lon="1.37203">
        <ele>309</ele>
        <time>2019-04-14T12:49:59Z</time>
      </trkpt>
      <trkpt lat="44.41418" lon="1.37204">
        <ele>309</ele>
        <time>2019-04-14T12:50:00Z</time>
      </trkpt>
      <trkpt lat="44.41415" lon="1.37205">
        <ele>309</ele>
        <time>2019-04-14T12:50:01Z</time>
      </trkpt>
      <trkpt lat="44.41412" lon="1.37207">
        <ele>308</ele>
        <time>2019-04-14T12:50:02Z</time>
      </trkpt>
      <trkpt lat="44.4141" lon="1.37208">
        <ele>308</ele>
        <time>2019-04-14T12:50:03Z</time>
      </trkpt>
      <trkpt lat="44.41407" lon="1.37209">
        <ele>308</ele>
        <time>2019-04-14T12:50:04Z</time>
      </trkpt>
      <trkpt lat="44.41405" lon="1.37211">
        <ele>308</ele>
        <time>2019-04-14T12:50:05Z</time>
      </trkpt>
      <trkpt lat="44.41405" lon="1.37214">
        <ele>308</ele>
        <time>2019-04-14T12:50:06Z</time>
      </trkpt>
      <trkpt lat="44.41404" lon="1.37223">
        <ele>308</ele>
        <time>2019-04-14T12:50:07Z</time>
      </trkpt>
      <trkpt lat="44.41404" lon="1.37228">
        <ele>308</ele>
        <time>2019-04-14T12:50:09Z</time>
      </trkpt>
      <trkpt lat="44.41405" lon="1.37239">
        <ele>308</ele>
        <time>2019-04-14T12:50:10Z</time>
      </trkpt>
      <trkpt lat="44.41405" lon="1.37244">
        <ele>308</ele>
        <time>2019-04-14T12:50:11Z</time>
      </trkpt>
      <trkpt lat="44.41405" lon="1.3725">
        <ele>307</ele>
        <time>2019-04-14T12:50:12Z</time>
      </trkpt>
      <trkpt lat="44.41406" lon="1.37255">
        <ele>307</ele>
        <time>2019-04-14T12:50:13Z</time>
      </trkpt>
      <trkpt lat="44.41406" lon="1.37261">
        <ele>307</ele>
        <time>2019-04-14T12:50:14Z</time>
      </trkpt>
      <trkpt lat="44.41406" lon="1.37267">
        <ele>307</ele>
        <time>2019-04-14T12:50:15Z</time>
      </trkpt>
      <trkpt lat="44.41407" lon="1.37273">
        <ele>307</ele>
        <time>2019-04-14T12:50:16Z</time>
      </trkpt>
      <trkpt lat="44.41408" lon="1.3728">
        <ele>307</ele>
        <time>2019-04-14T12:50:17Z</time>
      </trkpt>
      <trkpt lat="44.41409" lon="1.37286">
        <ele>307</ele>
        <time>2019-04-14T12:50:19Z</time>
      </trkpt>
      <trkpt lat="44.41409" lon="1.37293">
        <ele>307</ele>
        <time>2019-04-14T12:50:20Z</time>
      </trkpt>
      <trkpt lat="44.4141" lon="1.373">
        <ele>307</ele>
        <time>2019-04-14T12:50:21Z</time>
      </trkpt>
      <trkpt lat="44.41412" lon="1.37308">
        <ele>306</ele>
        <time>2019-04-14T12:50:22Z</time>
      </trkpt>
      <trkpt lat="44.41413" lon="1.37315">
        <ele>306</ele>
        <time>2019-04-14T12:50:23Z</time>
      </trkpt>
      <trkpt lat="44.41414" lon="1.37323">
        <ele>306</ele>
        <time>2019-04-14T12:50:24Z</time>
      </trkpt>
      <trkpt lat="44.41415" lon="1.37331">
        <ele>306</ele>
        <time>2019-04-14T12:50:25Z</time>
      </trkpt>
      <trkpt lat="44.41417" lon="1.37339">
        <ele>306</ele>
        <time>2019-04-14T12:50:26Z</time>
      </trkpt>
      <trkpt lat="44.41418" lon="1.37348">
        <ele>305</ele>
        <time>2019-04-14T12:50:27Z</time>
      </trkpt>
      <trkpt lat="44.41419" lon="1.37356">
        <ele>305</ele>
        <time>2019-04-14T12:50:28Z</time>
      </trkpt>
      <trkpt lat="44.41421" lon="1.37365">
        <ele>305</ele>
        <time>2019-04-14T12:50:29Z</time>
      </trkpt>
      <trkpt lat="44.41422" lon="1.37374">
        <ele>304</ele>
        <time>2019-04-14T12:50:30Z</time>
      </trkpt>
      <trkpt lat="44.41424" lon="1.37383">
        <ele>304</ele>
        <time>2019-04-14T12:50:31Z</time>
      </trkpt>
      <trkpt lat="44.41425" lon="1.37393">
        <ele>304</ele>
        <time>2019-04-14T12:50:32Z</time>
      </trkpt>
      <trkpt lat="44.41427" lon="1.37403">
        <ele>303</ele>
        <time>2019-04-14T12:50:33Z</time>
      </trkpt>
      <trkpt lat="44.41428" lon="1.37412">
        <ele>303</ele>
        <time>2019-04-14T12:50:34Z</time>
      </trkpt>
      <trkpt lat="44.4143" lon="1.37422">
        <ele>302</ele>
        <time>2019-04-14T12:50:35Z</time>
      </trkpt>
      <trkpt lat="44.41432" lon="1.37433">
        <ele>302</ele>
        <time>2019-04-14T12:50:36Z</time>
      </trkpt>
      <trkpt lat="44.41434" lon="1.37443">
        <ele>301</ele>
        <time>2019-04-14T12:50:37Z</time>
      </trkpt>
      <trkpt lat="44.41435" lon="1.37453">
        <ele>301</ele>
        <time>2019-04-14T12:50:38Z</time>
      </trkpt>
      <trkpt lat="44.41438" lon="1.37464">
        <ele>300</ele>
        <time>2019-04-14T12:50:39Z</time>
      </trkpt>
      <trkpt lat="44.4144" lon="1.37474">
        <ele>300</ele>
        <time>2019-04-14T12:50:40Z</time>
      </trkpt>
      <trkpt lat="44.41443" lon="1.37484">
        <ele>300</ele>
        <time>2019-04-14T12:50:41Z</time>
      </trkpt>
      <trkpt lat="44.41446" lon="1.37503">
        <ele>299</ele>
        <time>2019-04-14T12:50:42Z</time>
      </trkpt>
      <trkpt lat="44.41447" lon="1.37513">
        <ele>299</ele>
        <time>2019-04-14T12:50:43Z</time>
      </trkpt>
      <trkpt lat="44.41449" lon="1.37522">
        <ele>299</ele>
        <time>2019-04-14T12:50:44Z</time>
      </trkpt>
      <trkpt lat="44.41451" lon="1.3753">
        <ele>299</ele>
        <time>2019-04-14T12:50:46Z</time>
      </trkpt>
      <trkpt lat="44.41455" lon="1.37548">
        <ele>298</ele>
        <time>2019-04-14T12:50:47Z</time>
      </trkpt>
      <trkpt lat="44.41457" lon="1.37556">
        <ele>297</ele>
        <time>2019-04-14T12:50:48Z</time>
      </trkpt>
      <trkpt lat="44.4146" lon="1.37565">
        <ele>297</ele>
        <time>2019-04-14T12:50:49Z</time>
      </trkpt>
      <trkpt lat="44.41462" lon="1.37574">
        <ele>297</ele>
        <time>2019-04-14T12:50:51Z</time>
      </trkpt>
      <trkpt lat="44.41463" lon="1.37584">
        <ele>296</ele>
        <time>2019-04-14T12:50:52Z</time>
      </trkpt>
      <trkpt lat="44.41465" lon="1.37593">
        <ele>296</ele>
        <time>2019-04-14T12:50:53Z</time>
      </trkpt>
      <trkpt lat="44.41466" lon="1.37603">
        <ele>295</ele>
        <time>2019-04-14T12:50:54Z</time>
      </trkpt>
      <trkpt lat="44.41467" lon="1.37613">
        <ele>295</ele>
        <time>2019-04-14T12:50:55Z</time>
      </trkpt>
      <trkpt lat="44.41468" lon="1.37623">
        <ele>294</ele>
        <time>2019-04-14T12:50:56Z</time>
      </trkpt>
      <trkpt lat="44.41469" lon="1.37635">
        <ele>293</ele>
        <time>2019-04-14T12:50:57Z</time>
      </trkpt>
      <trkpt lat="44.4147" lon="1.37646">
        <ele>292</ele>
        <time>2019-04-14T12:50:58Z</time>
      </trkpt>
      <trkpt lat="44.41471" lon="1.37659">
        <ele>291</ele>
        <time>2019-04-14T12:50:59Z</time>
      </trkpt>
      <trkpt lat="44.41472" lon="1.37671">
        <ele>291</ele>
        <time>2019-04-14T12:51:00Z</time>
      </trkpt>
      <trkpt lat="44.41473" lon="1.37684">
        <ele>290</ele>
        <time>2019-04-14T12:51:01Z</time>
      </trkpt>
      <trkpt lat="44.41473" lon="1.37696">
        <ele>289</ele>
        <time>2019-04-14T12:51:02Z</time>
      </trkpt>
      <trkpt lat="44.41473" lon="1.37718">
        <ele>289</ele>
        <time>2019-04-14T12:51:03Z</time>
      </trkpt>
      <trkpt lat="44.41472" lon="1.37726">
        <ele>288</ele>
        <time>2019-04-14T12:51:04Z</time>
      </trkpt>
      <trkpt lat="44.41469" lon="1.37731">
        <ele>287</ele>
        <time>2019-04-14T12:51:05Z</time>
      </trkpt>
      <trkpt lat="44.41467" lon="1.37735">
        <ele>287</ele>
        <time>2019-04-14T12:51:06Z</time>
      </trkpt>
      <trkpt lat="44.41466" lon="1.3774">
        <ele>287</ele>
        <time>2019-04-14T12:51:07Z</time>
      </trkpt>
      <trkpt lat="44.41466" lon="1.37746">
        <ele>287</ele>
        <time>2019-04-14T12:51:09Z</time>
      </trkpt>
      <trkpt lat="44.41466" lon="1.37751">
        <ele>287</ele>
        <time>2019-04-14T12:51:10Z</time>
      </trkpt>
      <trkpt lat="44.41465" lon="1.37756">
        <ele>286</ele>
        <time>2019-04-14T12:51:11Z</time>
      </trkpt>
      <trkpt lat="44.41465" lon="1.3776">
        <ele>286</ele>
        <time>2019-04-14T12:51:12Z</time>
      </trkpt>
      <trkpt lat="44.41465" lon="1.37764">
        <ele>286</ele>
        <time>2019-04-14T12:51:13Z</time>
      </trkpt>
      <trkpt lat="44.41464" lon="1.37768">
        <ele>286</ele>
        <time>2019-04-14T12:51:14Z</time>
      </trkpt>
      <trkpt lat="44.41463" lon="1.37773">
        <ele>285</ele>
        <time>2019-04-14T12:51:15Z</time>
      </trkpt>
      <trkpt lat="44.41461" lon="1.37778">
        <ele>285</ele>
        <time>2019-04-14T12:51:16Z</time>
      </trkpt>
      <trkpt lat="44.41458" lon="1.37781">
        <ele>285</ele>
        <time>2019-04-14T12:51:17Z</time>
      </trkpt>
      <trkpt lat="44.41455" lon="1.37783">
        <ele>285</ele>
        <time>2019-04-14T12:51:18Z</time>
      </trkpt>
      <trkpt lat="44.41452" lon="1.37785">
        <ele>285</ele>
        <time>2019-04-14T12:51:19Z</time>
      </trkpt>
      <trkpt lat="44.41449" lon="1.37786">
        <ele>285</ele>
        <time>2019-04-14T12:51:20Z</time>
      </trkpt>
      <trkpt lat="44.41443" lon="1.37788">
        <ele>285</ele>
        <time>2019-04-14T12:51:21Z</time>
      </trkpt>
      <trkpt lat="44.41441" lon="1.37789">
        <ele>285</ele>
        <time>2019-04-14T12:51:22Z</time>
      </trkpt>
      <trkpt lat="44.41438" lon="1.37791">
        <ele>285</ele>
        <time>2019-04-14T12:51:23Z</time>
      </trkpt>
      <trkpt lat="44.41436" lon="1.37792">
        <ele>285</ele>
        <time>2019-04-14T12:51:24Z</time>
      </trkpt>
      <trkpt lat="44.41434" lon="1.37794">
        <ele>285</ele>
        <time>2019-04-14T12:51:25Z</time>
      </trkpt>
      <trkpt lat="44.41432" lon="1.37795">
        <ele>285</ele>
        <time>2019-04-14T12:51:26Z</time>
      </trkpt>
      <trkpt lat="44.4143" lon="1.37795">
        <ele>286</ele>
        <time>2019-04-14T12:51:27Z</time>
      </trkpt>
      <trkpt lat="44.41428" lon="1.37796">
        <ele>286</ele>
        <time>2019-04-14T12:51:29Z</time>
      </trkpt>
      <trkpt lat="44.41426" lon="1.37797">
        <ele>286</ele>
        <time>2019-04-14T12:51:30Z</time>
      </trkpt>
      <trkpt lat="44.41425" lon="1.37798">
        <ele>286</ele>
        <time>2019-04-14T12:51:31Z</time>
      </trkpt>
      <trkpt lat="44.41423" lon="1.37799">
        <ele>286</ele>
        <time>2019-04-14T12:51:32Z</time>
      </trkpt>
      <trkpt lat="44.41421" lon="1.378">
        <ele>286</ele>
        <time>2019-04-14T12:51:33Z</time>
      </trkpt>
      <trkpt lat="44.41419" lon="1.378">
        <ele>286</ele>
        <time>2019-04-14T12:51:34Z</time>
      </trkpt>
      <trkpt lat="44.41417" lon="1.37801">
        <ele>286</ele>
        <time>2019-04-14T12:51:35Z</time>
      </trkpt>
      <trkpt lat="44.41416" lon="1.37802">
        <ele>286</ele>
        <time>2019-04-14T12:51:36Z</time>
      </trkpt>
      <trkpt lat="44.41414" lon="1.37803">
        <ele>286</ele>
        <time>2019-04-14T12:51:37Z</time>
      </trkpt>
      <trkpt lat="44.41412" lon="1.37803">
        <ele>287</ele>
        <time>2019-04-14T12:51:38Z</time>
      </trkpt>
      <trkpt lat="44.41411" lon="1.37803">
        <ele>287</ele>
        <time>2019-04-14T12:51:39Z</time>
      </trkpt>
      <trkpt lat="44.4141" lon="1.37804">
        <ele>287</ele>
        <time>2019-04-14T12:51:40Z</time>
      </trkpt>
      <trkpt lat="44.41409" lon="1.37805">
        <ele>287</ele>
        <time>2019-04-14T12:51:41Z</time>
      </trkpt>
      <trkpt lat="44.41408" lon="1.37806">
        <ele>287</ele>
        <time>2019-04-14T12:51:42Z</time>
      </trkpt>
      <trkpt lat="44.41408" lon="1.37807">
        <ele>287</ele>
        <time>2019-04-14T12:51:43Z</time>
      </trkpt>
      <trkpt lat="44.41408" lon="1.37807">
        <ele>287</ele>
        <time>2019-04-14T12:51:44Z</time>
      </trkpt>
      <trkpt lat="44.41408" lon="1.37807">
        <ele>286</ele>
        <time>2019-04-14T12:51:45Z</time>
      </trkpt>
      <trkpt lat="44.41408" lon="1.37807">
        <ele>286</ele>
        <time>2019-04-14T12:51:46Z</time>
      </trkpt>
      <trkpt lat="44.41408" lon="1.37807">
        <ele>286</ele>
        <time>2019-04-14T12:51:47Z</time>
      </trkpt>
      <trkpt lat="44.41408" lon="1.37807">
        <ele>286</ele>
        <time>2019-04-14T12:51:49Z</time>
      </trkpt>
      <trkpt lat="44.41408" lon="1.37807">
        <ele>286</ele>
        <time>2019-04-14T12:51:50Z</time>
      </trkpt>
    </trkseg>
  </trk>
  <trk>
    <name><![CDATA[2019-04-14-07-08-02 on GPSies.com]]></name>
    <trkseg>
      <trkpt lat="44.41475" lon="1.37714">
        <ele>297</ele>
        <time>2019-04-14T08:09:16Z</time>
      </trkpt>
      <trkpt lat="44.41475" lon="1.3771">
        <ele>297</ele>
        <time>2019-04-14T08:09:17Z</time>
      </trkpt>
      <trkpt lat="44.41475" lon="1.37708">
        <ele>297</ele>
        <time>2019-04-14T08:09:18Z</time>
      </trkpt>
      <trkpt lat="44.41475" lon="1.37703">
        <ele>297</ele>
        <time>2019-04-14T08:09:19Z</time>
      </trkpt>
      <trkpt lat="44.41475" lon="1.377">
        <ele>298</ele>
        <time>2019-04-14T08:09:20Z</time>
      </trkpt>
      <trkpt lat="44.41475" lon="1.37696">
        <ele>298</ele>
        <time>2019-04-14T08:09:21Z</time>
      </trkpt>
      <trkpt lat="44.41475" lon="1.37693">
        <ele>298</ele>
        <time>2019-04-14T08:09:22Z</time>
      </trkpt>
      <trkpt lat="44.41475" lon="1.37689">
        <ele>298</ele>
        <time>2019-04-14T08:09:23Z</time>
      </trkpt>
      <trkpt lat="44.41475" lon="1.37686">
        <ele>298</ele>
        <time>2019-04-14T08:09:24Z</time>
      </trkpt>
      <trkpt lat="44.41474" lon="1.37683">
        <ele>299</ele>
        <time>2019-04-14T08:09:25Z</time>
      </trkpt>
      <trkpt lat="44.41474" lon="1.37679">
        <ele>299</ele>
        <time>2019-04-14T08:09:26Z</time>
      </trkpt>
      <trkpt lat="44.41474" lon="1.37676">
        <ele>299</ele>
        <time>2019-04-14T08:09:27Z</time>
      </trkpt>
      <trkpt lat="44.41474" lon="1.37672">
        <ele>299</ele>
        <time>2019-04-14T08:09:28Z</time>
      </trkpt>
      <trkpt lat="44.41474" lon="1.37669">
        <ele>300</ele>
        <time>2019-04-14T08:09:29Z</time>
      </trkpt>
      <trkpt lat="44.41474" lon="1.37666">
        <ele>300</ele>
        <time>2019-04-14T08:09:30Z</time>
      </trkpt>
      <trkpt lat="44.41474" lon="1.37662">
        <ele>300</ele>
        <time>2019-04-14T08:09:31Z</time>
      </trkpt>
      <trkpt lat="44.41474" lon="1.37659">
        <ele>300</ele>
        <time>2019-04-14T08:09:32Z</time>
      </trkpt>
      <trkpt lat="44.41473" lon="1.37656">
        <ele>300</ele>
        <time>2019-04-14T08:09:33Z</time>
      </trkpt>
      <trkpt lat="44.41473" lon="1.37653">
        <ele>300</ele>
        <time>2019-04-14T08:09:34Z</time>
      </trkpt>
      <trkpt lat="44.41473" lon="1.3765">
        <ele>301</ele>
        <time>2019-04-14T08:09:35Z</time>
      </trkpt>
      <trkpt lat="44.41473" lon="1.37646">
        <ele>301</ele>
        <time>2019-04-14T08:09:36Z</time>
      </trkpt>
      <trkpt lat="44.41473" lon="1.37643">
        <ele>301</ele>
        <time>2019-04-14T08:09:37Z</time>
      </trkpt>
      <trkpt lat="44.41472" lon="1.3764">
        <ele>301</ele>
        <time>2019-04-14T08:09:38Z</time>
      </trkpt>
      <trkpt lat="44.41472" lon="1.37637">
        <ele>301</ele>
        <time>2019-04-14T08:09:39Z</time>
      </trkpt>
      <trkpt lat="44.41472" lon="1.37634">
        <ele>301</ele>
        <time>2019-04-14T08:09:40Z</time>
      </trkpt>
      <trkpt lat="44.41472" lon="1.37631">
        <ele>302</ele>
        <time>2019-04-14T08:09:41Z</time>
      </trkpt>
      <trkpt lat="44.41472" lon="1.37628">
        <ele>302</ele>
        <time>2019-04-14T08:09:42Z</time>
      </trkpt>
      <trkpt lat="44.41472" lon="1.37625">
        <ele>302</ele>
        <time>2019-04-14T08:09:43Z</time>
      </trkpt>
      <trkpt lat="44.41471" lon="1.37622">
        <ele>302</ele>
        <time>2019-04-14T08:09:44Z</time>
      </trkpt>
      <trkpt lat="44.41471" lon="1.37619">
        <ele>303</ele>
        <time>2019-04-14T08:09:45Z</time>
      </trkpt>
      <trkpt lat="44.41471" lon="1.37616">
        <ele>303</ele>
        <time>2019-04-14T08:09:46Z</time>
      </trkpt>
      <trkpt lat="44.41471" lon="1.37613">
        <ele>303</ele>
        <time>2019-04-14T08:09:47Z</time>
      </trkpt>
      <trkpt lat="44.41471" lon="1.3761">
        <ele>303</ele>
        <time>2019-04-14T08:09:48Z</time>
      </trkpt>
      <trkpt lat="44.4147" lon="1.37607">
        <ele>304</ele>
        <time>2019-04-14T08:09:49Z</time>
      </trkpt>
      <trkpt lat="44.4147" lon="1.37604">
        <ele>304</ele>
        <time>2019-04-14T08:09:50Z</time>
      </trkpt>
      <trkpt lat="44.4147" lon="1.37601">
        <ele>304</ele>
        <time>2019-04-14T08:09:51Z</time>
      </trkpt>
      <trkpt lat="44.4147" lon="1.37598">
        <ele>304</ele>
        <time>2019-04-14T08:09:52Z</time>
      </trkpt>
      <trkpt lat="44.41469" lon="1.37595">
        <ele>304</ele>
        <time>2019-04-14T08:09:53Z</time>
      </trkpt>
      <trkpt lat="44.41469" lon="1.37592">
        <ele>305</ele>
        <time>2019-04-14T08:09:54Z</time>
      </trkpt>
      <trkpt lat="44.41468" lon="1.37589">
        <ele>305</ele>
        <time>2019-04-14T08:09:55Z</time>
      </trkpt>
      <trkpt lat="44.41468" lon="1.37586">
        <ele>305</ele>
        <time>2019-04-14T08:09:56Z</time>
      </trkpt>
      <trkpt lat="44.41467" lon="1.37583">
        <ele>305</ele>
        <time>2019-04-14T08:09:57Z</time>
      </trkpt>
      <trkpt lat="44.41467" lon="1.37581">
        <ele>305</ele>
        <time>2019-04-14T08:09:58Z</time>
      </trkpt>
      <trkpt lat="44.41466" lon="1.37578">
        <ele>306</ele>
        <time>2019-04-14T08:09:59Z</time>
      </trkpt>
      <trkpt lat="44.41466" lon="1.37575">
        <ele>306</ele>
        <time>2019-04-14T08:10:00Z</time>
      </trkpt>
      <trkpt lat="44.41465" lon="1.37571">
        <ele>306</ele>
        <time>2019-04-14T08:10:01Z</time>
      </trkpt>
      <trkpt lat="44.41464" lon="1.37568">
        <ele>306</ele>
        <time>2019-04-14T08:10:02Z</time>
      </trkpt>
      <trkpt lat="44.41463" lon="1.37565">
        <ele>306</ele>
        <time>2019-04-14T08:10:03Z</time>
      </trkpt>
      <trkpt lat="44.41463" lon="1.37562">
        <ele>306</ele>
        <time>2019-04-14T08:10:04Z</time>
      </trkpt>
      <trkpt lat="44.41462" lon="1.37559">
        <ele>307</ele>
        <time>2019-04-14T08:10:05Z</time>
      </trkpt>
      <trkpt lat="44.41461" lon="1.37556">
        <ele>307</ele>
        <time>2019-04-14T08:10:06Z</time>
      </trkpt>
      <trkpt lat="44.4146" lon="1.37552">
        <ele>307</ele>
        <time>2019-04-14T08:10:07Z</time>
      </trkpt>
      <trkpt lat="44.4146" lon="1.37549">
        <ele>307</ele>
        <time>2019-04-14T08:10:08Z</time>
      </trkpt>
      <trkpt lat="44.41459" lon="1.37546">
        <ele>307</ele>
        <time>2019-04-14T08:10:09Z</time>
      </trkpt>
      <trkpt lat="44.41458" lon="1.37543">
        <ele>307</ele>
        <time>2019-04-14T08:10:10Z</time>
      </trkpt>
      <trkpt lat="44.41457" lon="1.3754">
        <ele>307</ele>
        <time>2019-04-14T08:10:11Z</time>
      </trkpt>
      <trkpt lat="44.41456" lon="1.37537">
        <ele>308</ele>
        <time>2019-04-14T08:10:12Z</time>
      </trkpt>
      <trkpt lat="44.41455" lon="1.37535">
        <ele>308</ele>
        <time>2019-04-14T08:10:13Z</time>
      </trkpt>
      <trkpt lat="44.41454" lon="1.37532">
        <ele>308</ele>
        <time>2019-04-14T08:10:14Z</time>
      </trkpt>
      <trkpt lat="44.41454" lon="1.37529">
        <ele>308</ele>
        <time>2019-04-14T08:10:15Z</time>
      </trkpt>
      <trkpt lat="44.41453" lon="1.37526">
        <ele>308</ele>
        <time>2019-04-14T08:10:16Z</time>
      </trkpt>
      <trkpt lat="44.41452" lon="1.37523">
        <ele>308</ele>
        <time>2019-04-14T08:10:17Z</time>
      </trkpt>
      <trkpt lat="44.41452" lon="1.3752">
        <ele>308</ele>
        <time>2019-04-14T08:10:18Z</time>
      </trkpt>
      <trkpt lat="44.41451" lon="1.37516">
        <ele>308</ele>
        <time>2019-04-14T08:10:19Z</time>
      </trkpt>
      <trkpt lat="44.41451" lon="1.37512">
        <ele>308</ele>
        <time>2019-04-14T08:10:20Z</time>
      </trkpt>
      <trkpt lat="44.41451" lon="1.37509">
        <ele>308</ele>
        <time>2019-04-14T08:10:21Z</time>
      </trkpt>
      <trkpt lat="44.4145" lon="1.37505">
        <ele>309</ele>
        <time>2019-04-14T08:10:22Z</time>
      </trkpt>
      <trkpt lat="44.41449" lon="1.37501">
        <ele>309</ele>
        <time>2019-04-14T08:10:23Z</time>
      </trkpt>
      <trkpt lat="44.41449" lon="1.37497">
        <ele>309</ele>
        <time>2019-04-14T08:10:24Z</time>
      </trkpt>
      <trkpt lat="44.41448" lon="1.37494">
        <ele>309</ele>
        <time>2019-04-14T08:10:25Z</time>
      </trkpt>
      <trkpt lat="44.41448" lon="1.3749">
        <ele>309</ele>
        <time>2019-04-14T08:10:26Z</time>
      </trkpt>
      <trkpt lat="44.41447" lon="1.37486">
        <ele>309</ele>
        <time>2019-04-14T08:10:27Z</time>
      </trkpt>
      <trkpt lat="44.41446" lon="1.37483">
        <ele>309</ele>
        <time>2019-04-14T08:10:28Z</time>
      </trkpt>
      <trkpt lat="44.41445" lon="1.37479">
        <ele>309</ele>
        <time>2019-04-14T08:10:29Z</time>
      </trkpt>
      <trkpt lat="44.41445" lon="1.37476">
        <ele>310</ele>
        <time>2019-04-14T08:10:30Z</time>
      </trkpt>
      <trkpt lat="44.41444" lon="1.37472">
        <ele>310</ele>
        <time>2019-04-14T08:10:31Z</time>
      </trkpt>
      <trkpt lat="44.41444" lon="1.37468">
        <ele>310</ele>
        <time>2019-04-14T08:10:32Z</time>
      </trkpt>
      <trkpt lat="44.41444" lon="1.37465">
        <ele>310</ele>
        <time>2019-04-14T08:10:33Z</time>
      </trkpt>
      <trkpt lat="44.41443" lon="1.37462">
        <ele>310</ele>
        <time>2019-04-14T08:10:34Z</time>
      </trkpt>
      <trkpt lat="44.41443" lon="1.37459">
        <ele>310</ele>
        <time>2019-04-14T08:10:35Z</time>
      </trkpt>
      <trkpt lat="44.41442" lon="1.37456">
        <ele>310</ele>
        <time>2019-04-14T08:10:36Z</time>
      </trkpt>
      <trkpt lat="44.41442" lon="1.37453">
        <ele>311</ele>
        <time>2019-04-14T08:10:37Z</time>
      </trkpt>
      <trkpt lat="44.41441" lon="1.37449">
        <ele>311</ele>
        <time>2019-04-14T08:10:38Z</time>
      </trkpt>
      <trkpt lat="44.41441" lon="1.37446">
        <ele>311</ele>
        <time>2019-04-14T08:10:39Z</time>
      </trkpt>
      <trkpt lat="44.4144" lon="1.37443">
        <ele>311</ele>
        <time>2019-04-14T08:10:40Z</time>
      </trkpt>
      <trkpt lat="44.4144" lon="1.37439">
        <ele>311</ele>
        <time>2019-04-14T08:10:41Z</time>
      </trkpt>
      <trkpt lat="44.41439" lon="1.37436">
        <ele>311</ele>
        <time>2019-04-14T08:10:42Z</time>
      </trkpt>
      <trkpt lat="44.41439" lon="1.37433">
        <ele>311</ele>
        <time>2019-04-14T08:10:43Z</time>
      </trkpt>
      <trkpt lat="44.41438" lon="1.3743">
        <ele>311</ele>
        <time>2019-04-14T08:10:44Z</time>
      </trkpt>
      <trkpt lat="44.41438" lon="1.37426">
        <ele>312</ele>
        <time>2019-04-14T08:10:45Z</time>
      </trkpt>
      <trkpt lat="44.41437" lon="1.37423">
        <ele>312</ele>
        <time>2019-04-14T08:10:46Z</time>
      </trkpt>
      <trkpt lat="44.41437" lon="1.3742">
        <ele>312</ele>
        <time>2019-04-14T08:10:47Z</time>
      </trkpt>
      <trkpt lat="44.41436" lon="1.37417">
        <ele>312</ele>
        <time>2019-04-14T08:10:48Z</time>
      </trkpt>
      <trkpt lat="44.41436" lon="1.37414">
        <ele>312</ele>
        <time>2019-04-14T08:10:49Z</time>
      </trkpt>
      <trkpt lat="44.41436" lon="1.37411">
        <ele>312</ele>
        <time>2019-04-14T08:10:50Z</time>
      </trkpt>
      <trkpt lat="44.41435" lon="1.37408">
        <ele>312</ele>
        <time>2019-04-14T08:10:51Z</time>
      </trkpt>
      <trkpt lat="44.41434" lon="1.37405">
        <ele>313</ele>
        <time>2019-04-14T08:10:52Z</time>
      </trkpt>
      <trkpt lat="44.41434" lon="1.37401">
        <ele>313</ele>
        <time>2019-04-14T08:10:53Z</time>
      </trkpt>
      <trkpt lat="44.41433" lon="1.37398">
        <ele>313</ele>
        <time>2019-04-14T08:10:54Z</time>
      </trkpt>
      <trkpt lat="44.41433" lon="1.37395">
        <ele>313</ele>
        <time>2019-04-14T08:10:55Z</time>
      </trkpt>
      <trkpt lat="44.41432" lon="1.37392">
        <ele>313</ele>
        <time>2019-04-14T08:10:56Z</time>
      </trkpt>
      <trkpt lat="44.41431" lon="1.37389">
        <ele>313</ele>
        <time>2019-04-14T08:10:57Z</time>
      </trkpt>
      <trkpt lat="44.41431" lon="1.37386">
        <ele>313</ele>
        <time>2019-04-14T08:10:58Z</time>
      </trkpt>
      <trkpt lat="44.4143" lon="1.37383">
        <ele>314</ele>
        <time>2019-04-14T08:10:59Z</time>
      </trkpt>
      <trkpt lat="44.4143" lon="1.37379">
        <ele>314</ele>
        <time>2019-04-14T08:11:00Z</time>
      </trkpt>
      <trkpt lat="44.41429" lon="1.37376">
        <ele>314</ele>
        <time>2019-04-14T08:11:01Z</time>
      </trkpt>
      <trkpt lat="44.41429" lon="1.37373">
        <ele>314</ele>
        <time>2019-04-14T08:11:02Z</time>
      </trkpt>
      <trkpt lat="44.41428" lon="1.3737">
        <ele>314</ele>
        <time>2019-04-14T08:11:03Z</time>
      </trkpt>
      <trkpt lat="44.41428" lon="1.37367">
        <ele>314</ele>
        <time>2019-04-14T08:11:04Z</time>
      </trkpt>
      <trkpt lat="44.41427" lon="1.37363">
        <ele>314</ele>
        <time>2019-04-14T08:11:05Z</time>
      </trkpt>
      <trkpt lat="44.41426" lon="1.3736">
        <ele>314</ele>
        <time>2019-04-14T08:11:06Z</time>
      </trkpt>
      <trkpt lat="44.41426" lon="1.37357">
        <ele>315</ele>
        <time>2019-04-14T08:11:07Z</time>
      </trkpt>
      <trkpt lat="44.41426" lon="1.37353">
        <ele>315</ele>
        <time>2019-04-14T08:11:08Z</time>
      </trkpt>
      <trkpt lat="44.41425" lon="1.3735">
        <ele>315</ele>
        <time>2019-04-14T08:11:09Z</time>
      </trkpt>
      <trkpt lat="44.41424" lon="1.37347">
        <ele>315</ele>
        <time>2019-04-14T08:11:10Z</time>
      </trkpt>
      <trkpt lat="44.41424" lon="1.37344">
        <ele>315</ele>
        <time>2019-04-14T08:11:11Z</time>
      </trkpt>
      <trkpt lat="44.41423" lon="1.3734">
        <ele>315</ele>
        <time>2019-04-14T08:11:12Z</time>
      </trkpt>
      <trkpt lat="44.41423" lon="1.37337">
        <ele>315</ele>
        <time>2019-04-14T08:11:13Z</time>
      </trkpt>
      <trkpt lat="44.41422" lon="1.37334">
        <ele>316</ele>
        <time>2019-04-14T08:11:14Z</time>
      </trkpt>
      <trkpt lat="44.41422" lon="1.37331">
        <ele>316</ele>
        <time>2019-04-14T08:11:15Z</time>
      </trkpt>
      <trkpt lat="44.41421" lon="1.37327">
        <ele>316</ele>
        <time>2019-04-14T08:11:16Z</time>
      </trkpt>
      <trkpt lat="44.41421" lon="1.37324">
        <ele>316</ele>
        <time>2019-04-14T08:11:17Z</time>
      </trkpt>
      <trkpt lat="44.4142" lon="1.37321">
        <ele>316</ele>
        <time>2019-04-14T08:11:18Z</time>
      </trkpt>
      <trkpt lat="44.41419" lon="1.37318">
        <ele>316</ele>
        <time>2019-04-14T08:11:19Z</time>
      </trkpt>
      <trkpt lat="44.41419" lon="1.37315">
        <ele>316</ele>
        <time>2019-04-14T08:11:20Z</time>
      </trkpt>
      <trkpt lat="44.41418" lon="1.37311">
        <ele>316</ele>
        <time>2019-04-14T08:11:21Z</time>
      </trkpt>
      <trkpt lat="44.41418" lon="1.37308">
        <ele>317</ele>
        <time>2019-04-14T08:11:22Z</time>
      </trkpt>
      <trkpt lat="44.41417" lon="1.37305">
        <ele>317</ele>
        <time>2019-04-14T08:11:23Z</time>
      </trkpt>
      <trkpt lat="44.41417" lon="1.37301">
        <ele>317</ele>
        <time>2019-04-14T08:11:24Z</time>
      </trkpt>
      <trkpt lat="44.41416" lon="1.37298">
        <ele>317</ele>
        <time>2019-04-14T08:11:25Z</time>
      </trkpt>
      <trkpt lat="44.41416" lon="1.37295">
        <ele>317</ele>
        <time>2019-04-14T08:11:26Z</time>
      </trkpt>
      <trkpt lat="44.41415" lon="1.37291">
        <ele>317</ele>
        <time>2019-04-14T08:11:27Z</time>
      </trkpt>
      <trkpt lat="44.41414" lon="1.37288">
        <ele>317</ele>
        <time>2019-04-14T08:11:28Z</time>
      </trkpt>
      <trkpt lat="44.41414" lon="1.37284">
        <ele>317</ele>
        <time>2019-04-14T08:11:29Z</time>
      </trkpt>
      <trkpt lat="44.41413" lon="1.37281">
        <ele>318</ele>
        <time>2019-04-14T08:11:30Z</time>
      </trkpt>
      <trkpt lat="44.41413" lon="1.37277">
        <ele>318</ele>
        <time>2019-04-14T08:11:31Z</time>
      </trkpt>
      <trkpt lat="44.41412" lon="1.37274">
        <ele>318</ele>
        <time>2019-04-14T08:11:32Z</time>
      </trkpt>
      <trkpt lat="44.41412" lon="1.37271">
        <ele>318</ele>
        <time>2019-04-14T08:11:33Z</time>
      </trkpt>
      <trkpt lat="44.41411" lon="1.37267">
        <ele>318</ele>
        <time>2019-04-14T08:11:34Z</time>
      </trkpt>
      <trkpt lat="44.41411" lon="1.37264">
        <ele>318</ele>
        <time>2019-04-14T08:11:35Z</time>
      </trkpt>
      <trkpt lat="44.4141" lon="1.37261">
        <ele>318</ele>
        <time>2019-04-14T08:11:36Z</time>
      </trkpt>
      <trkpt lat="44.4141" lon="1.37257">
        <ele>318</ele>
        <time>2019-04-14T08:11:37Z</time>
      </trkpt>
      <trkpt lat="44.41409" lon="1.37254">
        <ele>318</ele>
        <time>2019-04-14T08:11:38Z</time>
      </trkpt>
      <trkpt lat="44.41409" lon="1.3725">
        <ele>318</ele>
        <time>2019-04-14T08:11:39Z</time>
      </trkpt>
      <trkpt lat="44.41408" lon="1.37247">
        <ele>318</ele>
        <time>2019-04-14T08:11:40Z</time>
      </trkpt>
      <trkpt lat="44.41408" lon="1.37244">
        <ele>318</ele>
        <time>2019-04-14T08:11:41Z</time>
      </trkpt>
      <trkpt lat="44.41407" lon="1.3724">
        <ele>319</ele>
        <time>2019-04-14T08:11:42Z</time>
      </trkpt>
      <trkpt lat="44.41407" lon="1.37237">
        <ele>319</ele>
        <time>2019-04-14T08:11:43Z</time>
      </trkpt>
      <trkpt lat="44.41407" lon="1.37234">
        <ele>319</ele>
        <time>2019-04-14T08:11:44Z</time>
      </trkpt>
      <trkpt lat="44.41406" lon="1.37231">
        <ele>319</ele>
        <time>2019-04-14T08:11:45Z</time>
      </trkpt>
      <trkpt lat="44.41406" lon="1.37228">
        <ele>319</ele>
        <time>2019-04-14T08:11:46Z</time>
      </trkpt>
      <trkpt lat="44.41406" lon="1.37226">
        <ele>319</ele>
        <time>2019-04-14T08:11:47Z</time>
      </trkpt>
      <trkpt lat="44.41406" lon="1.37224">
        <ele>319</ele>
        <time>2019-04-14T08:11:48Z</time>
      </trkpt>
      <trkpt lat="44.41405" lon="1.37221">
        <ele>319</ele>
        <time>2019-04-14T08:11:49Z</time>
      </trkpt>
      <trkpt lat="44.41406" lon="1.37219">
        <ele>319</ele>
        <time>2019-04-14T08:11:50Z</time>
      </trkpt>
      <trkpt lat="44.41407" lon="1.37216">
        <ele>319</ele>
        <time>2019-04-14T08:11:51Z</time>
      </trkpt>
      <trkpt lat="44.41408" lon="1.37214">
        <ele>319</ele>
        <time>2019-04-14T08:11:52Z</time>
      </trkpt>
      <trkpt lat="44.4141" lon="1.37213">
        <ele>319</ele>
        <time>2019-04-14T08:11:53Z</time>
      </trkpt>
      <trkpt lat="44.41412" lon="1.37212">
        <ele>319</ele>
        <time>2019-04-14T08:11:54Z</time>
      </trkpt>
      <trkpt lat="44.41414" lon="1.37211">
        <ele>320</ele>
        <time>2019-04-14T08:11:55Z</time>
      </trkpt>
      <trkpt lat="44.41416" lon="1.3721">
        <ele>320</ele>
        <time>2019-04-14T08:11:56Z</time>
      </trkpt>
      <trkpt lat="44.41417" lon="1.3721">
        <ele>320</ele>
        <time>2019-04-14T08:11:57Z</time>
      </trkpt>
      <trkpt lat="44.41419" lon="1.37209">
        <ele>320</ele>
        <time>2019-04-14T08:11:58Z</time>
      </trkpt>
      <trkpt lat="44.4142" lon="1.37208">
        <ele>320</ele>
        <time>2019-04-14T08:11:59Z</time>
      </trkpt>
      <trkpt lat="44.41421" lon="1.37208">
        <ele>320</ele>
        <time>2019-04-14T08:12:00Z</time>
      </trkpt>
      <trkpt lat="44.41422" lon="1.37207">
        <ele>320</ele>
        <time>2019-04-14T08:12:01Z</time>
      </trkpt>
      <trkpt lat="44.41423" lon="1.37206">
        <ele>320</ele>
        <time>2019-04-14T08:12:02Z</time>
      </trkpt>
      <trkpt lat="44.41424" lon="1.37206">
        <ele>320</ele>
        <time>2019-04-14T08:12:03Z</time>
      </trkpt>
      <trkpt lat="44.41425" lon="1.37205">
        <ele>320</ele>
        <time>2019-04-14T08:12:04Z</time>
      </trkpt>
      <trkpt lat="44.41426" lon="1.37204">
        <ele>320</ele>
        <time>2019-04-14T08:12:05Z</time>
      </trkpt>
      <trkpt lat="44.41427" lon="1.37204">
        <ele>320</ele>
        <time>2019-04-14T08:12:06Z</time>
      </trkpt>
      <trkpt lat="44.41427" lon="1.37204">
        <ele>320</ele>
        <time>2019-04-14T08:12:07Z</time>
      </trkpt>
      <trkpt lat="44.41428" lon="1.37204">
        <ele>320</ele>
        <time>2019-04-14T08:12:08Z</time>
      </trkpt>
      <trkpt lat="44.41429" lon="1.37203">
        <ele>320</ele>
        <time>2019-04-14T08:12:09Z</time>
      </trkpt>
      <trkpt lat="44.4143" lon="1.37203">
        <ele>320</ele>
        <time>2019-04-14T08:12:10Z</time>
      </trkpt>
      <trkpt lat="44.41431" lon="1.37203">
        <ele>320</ele>
        <time>2019-04-14T08:12:11Z</time>
      </trkpt>
      <trkpt lat="44.41431" lon="1.37203">
        <ele>320</ele>
        <time>2019-04-14T08:12:12Z</time>
      </trkpt>
      <trkpt lat="44.41432" lon="1.37202">
        <ele>320</ele>
        <time>2019-04-14T08:12:13Z</time>
      </trkpt>
      <trkpt lat="44.41433" lon="1.37202">
        <ele>320</ele>
        <time>2019-04-14T08:12:14Z</time>
      </trkpt>
      <trkpt lat="44.41433" lon="1.37202">
        <ele>320</ele>
        <time>2019-04-14T08:12:15Z</time>
      </trkpt>
      <trkpt lat="44.41433" lon="1.37201">
        <ele>320</ele>
        <time>2019-04-14T08:12:16Z</time>
      </trkpt>
      <trkpt lat="44.41434" lon="1.37201">
        <ele>320</ele>
        <time>2019-04-14T08:12:17Z</time>
      </trkpt>
      <trkpt lat="44.41434" lon="1.37201">
        <ele>320</ele>
        <time>2019-04-14T08:12:18Z</time>
      </trkpt>
      <trkpt lat="44.41435" lon="1.37201">
        <ele>320</ele>
        <time>2019-04-14T08:12:19Z</time>
      </trkpt>
      <trkpt lat="44.41438" lon="1.37183">
        <ele>320</ele>
        <time>2019-04-14T08:12:36Z</time>
      </trkpt>
      <trkpt lat="44.41437" lon="1.37182">
        <ele>320</ele>
        <time>2019-04-14T08:12:37Z</time>
      </trkpt>
      <trkpt lat="44.41436" lon="1.37181">
        <ele>320</ele>
        <time>2019-04-14T08:12:38Z</time>
      </trkpt>
      <trkpt lat="44.41435" lon="1.3718">
        <ele>320</ele>
        <time>2019-04-14T08:12:39Z</time>
      </trkpt>
      <trkpt lat="44.41434" lon="1.37179">
        <ele>320</ele>
        <time>2019-04-14T08:12:40Z</time>
      </trkpt>
      <trkpt lat="44.41433" lon="1.37178">
        <ele>320</ele>
        <time>2019-04-14T08:12:41Z</time>
      </trkpt>
      <trkpt lat="44.41433" lon="1.37177">
        <ele>320</ele>
        <time>2019-04-14T08:12:42Z</time>
      </trkpt>
      <trkpt lat="44.41432" lon="1.37176">
        <ele>320</ele>
        <time>2019-04-14T08:12:43Z</time>
      </trkpt>
      <trkpt lat="44.41431" lon="1.37176">
        <ele>320</ele>
        <time>2019-04-14T08:12:44Z</time>
      </trkpt>
      <trkpt lat="44.4143" lon="1.37176">
        <ele>320</ele>
        <time>2019-04-14T08:12:45Z</time>
      </trkpt>
      <trkpt lat="44.41429" lon="1.37176">
        <ele>320</ele>
        <time>2019-04-14T08:12:46Z</time>
      </trkpt>
      <trkpt lat="44.41429" lon="1.37176">
        <ele>320</ele>
        <time>2019-04-14T08:12:47Z</time>
      </trkpt>
      <trkpt lat="44.41428" lon="1.37176">
        <ele>320</ele>
        <time>2019-04-14T08:12:48Z</time>
      </trkpt>
      <trkpt lat="44.41427" lon="1.37176">
        <ele>320</ele>
        <time>2019-04-14T08:12:49Z</time>
      </trkpt>
      <trkpt lat="44.41427" lon="1.37177">
        <ele>320</ele>
        <time>2019-04-14T08:12:50Z</time>
      </trkpt>
      <trkpt lat="44.41427" lon="1.37177">
        <ele>320</ele>
        <time>2019-04-14T08:12:51Z</time>
      </trkpt>
      <trkpt lat="44.41427" lon="1.37178">
        <ele>320</ele>
        <time>2019-04-14T08:12:52Z</time>
      </trkpt>
      <trkpt lat="44.41427" lon="1.37178">
        <ele>320</ele>
        <time>2019-04-14T08:12:53Z</time>
      </trkpt>
      <trkpt lat="44.41427" lon="1.37177">
        <ele>319</ele>
        <time>2019-04-14T08:12:54Z</time>
      </trkpt>
      <trkpt lat="44.41427" lon="1.37177">
        <ele>320</ele>
        <time>2019-04-14T08:12:55Z</time>
      </trkpt>
      <trkpt lat="44.41426" lon="1.37177">
        <ele>320</ele>
        <time>2019-04-14T08:12:56Z</time>
      </trkpt>
      <trkpt lat="44.41426" lon="1.37177">
        <ele>320</ele>
        <time>2019-04-14T08:12:57Z</time>
      </trkpt>
      <trkpt lat="44.41426" lon="1.37177">
        <ele>319</ele>
        <time>2019-04-14T08:12:58Z</time>
      </trkpt>
      <trkpt lat="44.41433" lon="1.37165">
        <ele>316</ele>
        <time>2019-04-14T08:23:13Z</time>
      </trkpt>
      <trkpt lat="44.41433" lon="1.37165">
        <ele>316</ele>
        <time>2019-04-14T08:23:14Z</time>
      </trkpt>
      <trkpt lat="44.41433" lon="1.37165">
        <ele>316</ele>
        <time>2019-04-14T08:23:15Z</time>
      </trkpt>
      <trkpt lat="44.41433" lon="1.37165">
        <ele>316</ele>
        <time>2019-04-14T08:23:16Z</time>
      </trkpt>
      <trkpt lat="44.41433" lon="1.37165">
        <ele>316</ele>
        <time>2019-04-14T08:23:17Z</time>
      </trkpt>
      <trkpt lat="44.41435" lon="1.37176">
        <ele>315</ele>
        <time>2019-04-14T08:26:11Z</time>
      </trkpt>
      <trkpt lat="44.41436" lon="1.37177">
        <ele>315</ele>
        <time>2019-04-14T08:26:12Z</time>
      </trkpt>
      <trkpt lat="44.41436" lon="1.37178">
        <ele>315</ele>
        <time>2019-04-14T08:26:13Z</time>
      </trkpt>
      <trkpt lat="44.41436" lon="1.37179">
        <ele>315</ele>
        <time>2019-04-14T08:26:14Z</time>
      </trkpt>
      <trkpt lat="44.41437" lon="1.3718">
        <ele>315</ele>
        <time>2019-04-14T08:26:15Z</time>
      </trkpt>
      <trkpt lat="44.41437" lon="1.37182">
        <ele>315</ele>
        <time>2019-04-14T08:26:16Z</time>
      </trkpt>
      <trkpt lat="44.41439" lon="1.37184">
        <ele>315</ele>
        <time>2019-04-14T08:26:17Z</time>
      </trkpt>
      <trkpt lat="44.41439" lon="1.37185">
        <ele>315</ele>
        <time>2019-04-14T08:26:18Z</time>
      </trkpt>
      <trkpt lat="44.4144" lon="1.37186">
        <ele>315</ele>
        <time>2019-04-14T08:26:19Z</time>
      </trkpt>
      <trkpt lat="44.4144" lon="1.37187">
        <ele>315</ele>
        <time>2019-04-14T08:26:21Z</time>
      </trkpt>
      <trkpt lat="44.4144" lon="1.37189">
        <ele>315</ele>
        <time>2019-04-14T08:26:22Z</time>
      </trkpt>
      <trkpt lat="44.41441" lon="1.3719">
        <ele>316</ele>
        <time>2019-04-14T08:26:24Z</time>
      </trkpt>
      <trkpt lat="44.41439" lon="1.37192">
        <ele>316</ele>
        <time>2019-04-14T08:26:25Z</time>
      </trkpt>
      <trkpt lat="44.41438" lon="1.37193">
        <ele>316</ele>
        <time>2019-04-14T08:26:26Z</time>
      </trkpt>
      <trkpt lat="44.41437" lon="1.37194">
        <ele>316</ele>
        <time>2019-04-14T08:26:27Z</time>
      </trkpt>
      <trkpt lat="44.41436" lon="1.37194">
        <ele>315</ele>
        <time>2019-04-14T08:26:28Z</time>
      </trkpt>
      <trkpt lat="44.41434" lon="1.37195">
        <ele>315</ele>
        <time>2019-04-14T08:26:30Z</time>
      </trkpt>
      <trkpt lat="44.41432" lon="1.37196">
        <ele>315</ele>
        <time>2019-04-14T08:26:31Z</time>
      </trkpt>
      <trkpt lat="44.4143" lon="1.37197">
        <ele>315</ele>
        <time>2019-04-14T08:26:32Z</time>
      </trkpt>
      <trkpt lat="44.41428" lon="1.37198">
        <ele>315</ele>
        <time>2019-04-14T08:26:33Z</time>
      </trkpt>
      <trkpt lat="44.41426" lon="1.37199">
        <ele>315</ele>
        <time>2019-04-14T08:26:34Z</time>
      </trkpt>
      <trkpt lat="44.41425" lon="1.372">
        <ele>315</ele>
        <time>2019-04-14T08:26:35Z</time>
      </trkpt>
      <trkpt lat="44.41423" lon="1.37201">
        <ele>315</ele>
        <time>2019-04-14T08:26:36Z</time>
      </trkpt>
      <trkpt lat="44.41421" lon="1.37202">
        <ele>315</ele>
        <time>2019-04-14T08:26:37Z</time>
      </trkpt>
      <trkpt lat="44.41419" lon="1.37203">
        <ele>315</ele>
        <time>2019-04-14T08:26:38Z</time>
      </trkpt>
      <trkpt lat="44.41417" lon="1.37204">
        <ele>315</ele>
        <time>2019-04-14T08:26:39Z</time>
      </trkpt>
      <trkpt lat="44.41414" lon="1.37205">
        <ele>315</ele>
        <time>2019-04-14T08:26:40Z</time>
      </trkpt>
      <trkpt lat="44.41412" lon="1.37206">
        <ele>315</ele>
        <time>2019-04-14T08:26:41Z</time>
      </trkpt>
      <trkpt lat="44.41409" lon="1.37206">
        <ele>315</ele>
        <time>2019-04-14T08:26:42Z</time>
      </trkpt>
      <trkpt lat="44.41407" lon="1.37207">
        <ele>314</ele>
        <time>2019-04-14T08:26:43Z</time>
      </trkpt>
      <trkpt lat="44.41406" lon="1.37207">
        <ele>314</ele>
        <time>2019-04-14T08:26:44Z</time>
      </trkpt>
      <trkpt lat="44.41405" lon="1.37207">
        <ele>314</ele>
        <time>2019-04-14T08:26:45Z</time>
      </trkpt>
      <trkpt lat="44.41404" lon="1.37206">
        <ele>314</ele>
        <time>2019-04-14T08:26:46Z</time>
      </trkpt>
      <trkpt lat="44.41403" lon="1.37204">
        <ele>314</ele>
        <time>2019-04-14T08:26:47Z</time>
      </trkpt>
      <trkpt lat="44.41403" lon="1.37202">
        <ele>314</ele>
        <time>2019-04-14T08:26:48Z</time>
      </trkpt>
      <trkpt lat="44.41402" lon="1.37199">
        <ele>314</ele>
        <time>2019-04-14T08:26:49Z</time>
      </trkpt>
      <trkpt lat="44.41402" lon="1.37196">
        <ele>314</ele>
        <time>2019-04-14T08:26:50Z</time>
      </trkpt>
      <trkpt lat="44.41402" lon="1.37192">
        <ele>314</ele>
        <time>2019-04-14T08:26:51Z</time>
      </trkpt>
      <trkpt lat="44.41401" lon="1.37189">
        <ele>314</ele>
        <time>2019-04-14T08:26:52Z</time>
      </trkpt>
      <trkpt lat="44.41401" lon="1.37185">
        <ele>314</ele>
        <time>2019-04-14T08:26:53Z</time>
      </trkpt>
      <trkpt lat="44.41401" lon="1.37181">
        <ele>314</ele>
        <time>2019-04-14T08:26:54Z</time>
      </trkpt>
      <trkpt lat="44.41401" lon="1.37178">
        <ele>314</ele>
        <time>2019-04-14T08:26:55Z</time>
      </trkpt>
      <trkpt lat="44.414" lon="1.37174">
        <ele>314</ele>
        <time>2019-04-14T08:26:56Z</time>
      </trkpt>
      <trkpt lat="44.41399" lon="1.37165">
        <ele>314</ele>
        <time>2019-04-14T08:26:57Z</time>
      </trkpt>
      <trkpt lat="44.41399" lon="1.37161">
        <ele>314</ele>
        <time>2019-04-14T08:26:58Z</time>
      </trkpt>
      <trkpt lat="44.41399" lon="1.37157">
        <ele>314</ele>
        <time>2019-04-14T08:26:59Z</time>
      </trkpt>
      <trkpt lat="44.41399" lon="1.37152">
        <ele>314</ele>
        <time>2019-04-14T08:27:01Z</time>
      </trkpt>
      <trkpt lat="44.41398" lon="1.37148">
        <ele>313</ele>
        <time>2019-04-14T08:27:02Z</time>
      </trkpt>
      <trkpt lat="44.41398" lon="1.37143">
        <ele>313</ele>
        <time>2019-04-14T08:27:03Z</time>
      </trkpt>
      <trkpt lat="44.41397" lon="1.37137">
        <ele>313</ele>
        <time>2019-04-14T08:27:04Z</time>
      </trkpt>
      <trkpt lat="44.41397" lon="1.37132">
        <ele>313</ele>
        <time>2019-04-14T08:27:05Z</time>
      </trkpt>
      <trkpt lat="44.41397" lon="1.37127">
        <ele>313</ele>
        <time>2019-04-14T08:27:06Z</time>
      </trkpt>
      <trkpt lat="44.41396" lon="1.37122">
        <ele>313</ele>
        <time>2019-04-14T08:27:07Z</time>
      </trkpt>
      <trkpt lat="44.41396" lon="1.37117">
        <ele>312</ele>
        <time>2019-04-14T08:27:08Z</time>
      </trkpt>
      <trkpt lat="44.41396" lon="1.37111">
        <ele>312</ele>
        <time>2019-04-14T08:27:09Z</time>
      </trkpt>
      <trkpt lat="44.41395" lon="1.37106">
        <ele>312</ele>
        <time>2019-04-14T08:27:10Z</time>
      </trkpt>
      <trkpt lat="44.41395" lon="1.371">
        <ele>312</ele>
        <time>2019-04-14T08:27:11Z</time>
      </trkpt>
      <trkpt lat="44.41394" lon="1.37095">
        <ele>312</ele>
        <time>2019-04-14T08:27:12Z</time>
      </trkpt>
      <trkpt lat="44.41394" lon="1.37089">
        <ele>311</ele>
        <time>2019-04-14T08:27:13Z</time>
      </trkpt>
      <trkpt lat="44.41393" lon="1.37083">
        <ele>311</ele>
        <time>2019-04-14T08:27:14Z</time>
      </trkpt>
      <trkpt lat="44.41393" lon="1.37077">
        <ele>311</ele>
        <time>2019-04-14T08:27:15Z</time>
      </trkpt>
      <trkpt lat="44.41392" lon="1.37071">
        <ele>311</ele>
        <time>2019-04-14T08:27:16Z</time>
      </trkpt>
      <trkpt lat="44.41392" lon="1.37064">
        <ele>311</ele>
        <time>2019-04-14T08:27:17Z</time>
      </trkpt>
      <trkpt lat="44.41391" lon="1.37057">
        <ele>310</ele>
        <time>2019-04-14T08:27:18Z</time>
      </trkpt>
      <trkpt lat="44.4139" lon="1.3705">
        <ele>310</ele>
        <time>2019-04-14T08:27:19Z</time>
      </trkpt>
      <trkpt lat="44.41389" lon="1.37035">
        <ele>310</ele>
        <time>2019-04-14T08:27:20Z</time>
      </trkpt>
      <trkpt lat="44.41389" lon="1.37027">
        <ele>310</ele>
        <time>2019-04-14T08:27:21Z</time>
      </trkpt>
      <trkpt lat="44.41388" lon="1.3702">
        <ele>309</ele>
        <time>2019-04-14T08:27:23Z</time>
      </trkpt>
      <trkpt lat="44.41387" lon="1.37013">
        <ele>309</ele>
        <time>2019-04-14T08:27:24Z</time>
      </trkpt>
      <trkpt lat="44.41386" lon="1.37001">
        <ele>309</ele>
        <time>2019-04-14T08:27:25Z</time>
      </trkpt>
      <trkpt lat="44.41385" lon="1.36995">
        <ele>308</ele>
        <time>2019-04-14T08:27:26Z</time>
      </trkpt>
      <trkpt lat="44.41384" lon="1.36989">
        <ele>308</ele>
        <time>2019-04-14T08:27:27Z</time>
      </trkpt>
      <trkpt lat="44.41383" lon="1.36983">
        <ele>308</ele>
        <time>2019-04-14T08:27:28Z</time>
      </trkpt>
      <trkpt lat="44.41383" lon="1.36978">
        <ele>307</ele>
        <time>2019-04-14T08:27:30Z</time>
      </trkpt>
      <trkpt lat="44.41382" lon="1.36972">
        <ele>307</ele>
        <time>2019-04-14T08:27:31Z</time>
      </trkpt>
      <trkpt lat="44.41381" lon="1.36966">
        <ele>307</ele>
        <time>2019-04-14T08:27:32Z</time>
      </trkpt>
      <trkpt lat="44.4138" lon="1.36961">
        <ele>307</ele>
        <time>2019-04-14T08:27:33Z</time>
      </trkpt>
      <trkpt lat="44.41379" lon="1.36955">
        <ele>307</ele>
        <time>2019-04-14T08:27:34Z</time>
      </trkpt>
      <trkpt lat="44.41378" lon="1.3695">
        <ele>306</ele>
        <time>2019-04-14T08:27:35Z</time>
      </trkpt>
      <trkpt lat="44.41377" lon="1.36945">
        <ele>306</ele>
        <time>2019-04-14T08:27:36Z</time>
      </trkpt>
      <trkpt lat="44.41376" lon="1.3694">
        <ele>306</ele>
        <time>2019-04-14T08:27:37Z</time>
      </trkpt>
      <trkpt lat="44.41375" lon="1.36935">
        <ele>306</ele>
        <time>2019-04-14T08:27:38Z</time>
      </trkpt>
      <trkpt lat="44.41374" lon="1.36929">
        <ele>306</ele>
        <time>2019-04-14T08:27:39Z</time>
      </trkpt>
      <trkpt lat="44.41372" lon="1.36917">
        <ele>306</ele>
        <time>2019-04-14T08:27:40Z</time>
      </trkpt>
      <trkpt lat="44.4137" lon="1.3691">
        <ele>306</ele>
        <time>2019-04-14T08:27:41Z</time>
      </trkpt>
      <trkpt lat="44.41367" lon="1.36897">
        <ele>305</ele>
        <time>2019-04-14T08:27:43Z</time>
      </trkpt>
      <trkpt lat="44.41365" lon="1.36891">
        <ele>305</ele>
        <time>2019-04-14T08:27:44Z</time>
      </trkpt>
      <trkpt lat="44.41363" lon="1.36884">
        <ele>305</ele>
        <time>2019-04-14T08:27:45Z</time>
      </trkpt>
      <trkpt lat="44.41361" lon="1.36878">
        <ele>304</ele>
        <time>2019-04-14T08:27:46Z</time>
      </trkpt>
      <trkpt lat="44.41359" lon="1.36871">
        <ele>304</ele>
        <time>2019-04-14T08:27:48Z</time>
      </trkpt>
      <trkpt lat="44.41358" lon="1.36864">
        <ele>304</ele>
        <time>2019-04-14T08:27:49Z</time>
      </trkpt>
      <trkpt lat="44.41356" lon="1.36857">
        <ele>304</ele>
        <time>2019-04-14T08:27:50Z</time>
      </trkpt>
      <trkpt lat="44.41354" lon="1.36849">
        <ele>303</ele>
        <time>2019-04-14T08:27:51Z</time>
      </trkpt>
      <trkpt lat="44.41352" lon="1.36842">
        <ele>303</ele>
        <time>2019-04-14T08:27:52Z</time>
      </trkpt>
      <trkpt lat="44.4135" lon="1.36835">
        <ele>303</ele>
        <time>2019-04-14T08:27:53Z</time>
      </trkpt>
      <trkpt lat="44.41348" lon="1.36828">
        <ele>303</ele>
        <time>2019-04-14T08:27:54Z</time>
      </trkpt>
      <trkpt lat="44.41345" lon="1.36814">
        <ele>302</ele>
        <time>2019-04-14T08:27:55Z</time>
      </trkpt>
      <trkpt lat="44.41342" lon="1.36808">
        <ele>302</ele>
        <time>2019-04-14T08:27:56Z</time>
      </trkpt>
      <trkpt lat="44.4134" lon="1.36801">
        <ele>302</ele>
        <time>2019-04-14T08:27:57Z</time>
      </trkpt>
      <trkpt lat="44.41339" lon="1.36795">
        <ele>302</ele>
        <time>2019-04-14T08:27:58Z</time>
      </trkpt>
      <trkpt lat="44.41336" lon="1.36788">
        <ele>302</ele>
        <time>2019-04-14T08:27:59Z</time>
      </trkpt>
      <trkpt lat="44.41334" lon="1.36781">
        <ele>302</ele>
        <time>2019-04-14T08:28:00Z</time>
      </trkpt>
      <trkpt lat="44.41332" lon="1.36775">
        <ele>302</ele>
        <time>2019-04-14T08:28:01Z</time>
      </trkpt>
      <trkpt lat="44.4133" lon="1.36768">
        <ele>302</ele>
        <time>2019-04-14T08:28:02Z</time>
      </trkpt>
      <trkpt lat="44.41327" lon="1.36761">
        <ele>301</ele>
        <time>2019-04-14T08:28:03Z</time>
      </trkpt>
      <trkpt lat="44.41325" lon="1.36754">
        <ele>301</ele>
        <time>2019-04-14T08:28:04Z</time>
      </trkpt>
      <trkpt lat="44.41322" lon="1.36748">
        <ele>301</ele>
        <time>2019-04-14T08:28:05Z</time>
      </trkpt>
      <trkpt lat="44.4132" lon="1.36742">
        <ele>301</ele>
        <time>2019-04-14T08:28:06Z</time>
      </trkpt>
      <trkpt lat="44.41318" lon="1.36736">
        <ele>301</ele>
        <time>2019-04-14T08:28:07Z</time>
      </trkpt>
      <trkpt lat="44.41317" lon="1.3673">
        <ele>301</ele>
        <time>2019-04-14T08:28:08Z</time>
      </trkpt>
      <trkpt lat="44.41317" lon="1.36723">
        <ele>301</ele>
        <time>2019-04-14T08:28:09Z</time>
      </trkpt>
      <trkpt lat="44.41317" lon="1.36718">
        <ele>301</ele>
        <time>2019-04-14T08:28:10Z</time>
      </trkpt>
      <trkpt lat="44.41318" lon="1.36712">
        <ele>301</ele>
        <time>2019-04-14T08:28:12Z</time>
      </trkpt>
      <trkpt lat="44.41319" lon="1.36707">
        <ele>302</ele>
        <time>2019-04-14T08:28:13Z</time>
      </trkpt>
      <trkpt lat="44.41319" lon="1.36702">
        <ele>302</ele>
        <time>2019-04-14T08:28:14Z</time>
      </trkpt>
      <trkpt lat="44.4132" lon="1.36698">
        <ele>302</ele>
        <time>2019-04-14T08:28:15Z</time>
      </trkpt>
      <trkpt lat="44.41321" lon="1.36693">
        <ele>302</ele>
        <time>2019-04-14T08:28:16Z</time>
      </trkpt>
      <trkpt lat="44.41322" lon="1.36688">
        <ele>302</ele>
        <time>2019-04-14T08:28:17Z</time>
      </trkpt>
      <trkpt lat="44.41323" lon="1.36684">
        <ele>302</ele>
        <time>2019-04-14T08:28:18Z</time>
      </trkpt>
      <trkpt lat="44.41325" lon="1.36674">
        <ele>302</ele>
        <time>2019-04-14T08:28:19Z</time>
      </trkpt>
      <trkpt lat="44.41326" lon="1.3667">
        <ele>302</ele>
        <time>2019-04-14T08:28:20Z</time>
      </trkpt>
      <trkpt lat="44.41327" lon="1.36665">
        <ele>302</ele>
        <time>2019-04-14T08:28:21Z</time>
      </trkpt>
      <trkpt lat="44.41328" lon="1.36661">
        <ele>302</ele>
        <time>2019-04-14T08:28:22Z</time>
      </trkpt>
      <trkpt lat="44.4133" lon="1.36656">
        <ele>302</ele>
        <time>2019-04-14T08:28:23Z</time>
      </trkpt>
      <trkpt lat="44.4133" lon="1.36651">
        <ele>302</ele>
        <time>2019-04-14T08:28:25Z</time>
      </trkpt>
      <trkpt lat="44.41331" lon="1.36646">
        <ele>302</ele>
        <time>2019-04-14T08:28:26Z</time>
      </trkpt>
      <trkpt lat="44.41331" lon="1.36642">
        <ele>302</ele>
        <time>2019-04-14T08:28:27Z</time>
      </trkpt>
      <trkpt lat="44.41332" lon="1.36632">
        <ele>302</ele>
        <time>2019-04-14T08:28:28Z</time>
      </trkpt>
      <trkpt lat="44.41332" lon="1.36627">
        <ele>302</ele>
        <time>2019-04-14T08:28:29Z</time>
      </trkpt>
      <trkpt lat="44.41332" lon="1.36622">
        <ele>302</ele>
        <time>2019-04-14T08:28:30Z</time>
      </trkpt>
      <trkpt lat="44.41332" lon="1.36616">
        <ele>302</ele>
        <time>2019-04-14T08:28:31Z</time>
      </trkpt>
      <trkpt lat="44.41332" lon="1.36611">
        <ele>302</ele>
        <time>2019-04-14T08:28:32Z</time>
      </trkpt>
      <trkpt lat="44.41332" lon="1.36606">
        <ele>302</ele>
        <time>2019-04-14T08:28:33Z</time>
      </trkpt>
      <trkpt lat="44.41332" lon="1.366">
        <ele>302</ele>
        <time>2019-04-14T08:28:34Z</time>
      </trkpt>
      <trkpt lat="44.41331" lon="1.36595">
        <ele>302</ele>
        <time>2019-04-14T08:28:35Z</time>
      </trkpt>
      <trkpt lat="44.41331" lon="1.3659">
        <ele>303</ele>
        <time>2019-04-14T08:28:36Z</time>
      </trkpt>
      <trkpt lat="44.41331" lon="1.36585">
        <ele>303</ele>
        <time>2019-04-14T08:28:37Z</time>
      </trkpt>
      <trkpt lat="44.4133" lon="1.3658">
        <ele>302</ele>
        <time>2019-04-14T08:28:38Z</time>
      </trkpt>
      <trkpt lat="44.41329" lon="1.36574">
        <ele>302</ele>
        <time>2019-04-14T08:28:39Z</time>
      </trkpt>
      <trkpt lat="44.41328" lon="1.36569">
        <ele>303</ele>
        <time>2019-04-14T08:28:40Z</time>
      </trkpt>
      <trkpt lat="44.41327" lon="1.36563">
        <ele>302</ele>
        <time>2019-04-14T08:28:41Z</time>
      </trkpt>
      <trkpt lat="44.41326" lon="1.36558">
        <ele>303</ele>
        <time>2019-04-14T08:28:42Z</time>
      </trkpt>
      <trkpt lat="44.41325" lon="1.36552">
        <ele>303</ele>
        <time>2019-04-14T08:28:43Z</time>
      </trkpt>
      <trkpt lat="44.41324" lon="1.36546">
        <ele>303</ele>
        <time>2019-04-14T08:28:44Z</time>
      </trkpt>
      <trkpt lat="44.41323" lon="1.36541">
        <ele>303</ele>
        <time>2019-04-14T08:28:45Z</time>
      </trkpt>
      <trkpt lat="44.41322" lon="1.36535">
        <ele>303</ele>
        <time>2019-04-14T08:28:46Z</time>
      </trkpt>
      <trkpt lat="44.41321" lon="1.3653">
        <ele>303</ele>
        <time>2019-04-14T08:28:47Z</time>
      </trkpt>
      <trkpt lat="44.4132" lon="1.36525">
        <ele>303</ele>
        <time>2019-04-14T08:28:49Z</time>
      </trkpt>
      <trkpt lat="44.41319" lon="1.36519">
        <ele>303</ele>
        <time>2019-04-14T08:28:50Z</time>
      </trkpt>
      <trkpt lat="44.41318" lon="1.36514">
        <ele>303</ele>
        <time>2019-04-14T08:28:51Z</time>
      </trkpt>
      <trkpt lat="44.41317" lon="1.36509">
        <ele>303</ele>
        <time>2019-04-14T08:28:52Z</time>
      </trkpt>
      <trkpt lat="44.41316" lon="1.36504">
        <ele>303</ele>
        <time>2019-04-14T08:28:53Z</time>
      </trkpt>
      <trkpt lat="44.41314" lon="1.36499">
        <ele>303</ele>
        <time>2019-04-14T08:28:54Z</time>
      </trkpt>
      <trkpt lat="44.41313" lon="1.36494">
        <ele>303</ele>
        <time>2019-04-14T08:28:55Z</time>
      </trkpt>
      <trkpt lat="44.41312" lon="1.36489">
        <ele>303</ele>
        <time>2019-04-14T08:28:56Z</time>
      </trkpt>
      <trkpt lat="44.4131" lon="1.36485">
        <ele>303</ele>
        <time>2019-04-14T08:28:57Z</time>
      </trkpt>
      <trkpt lat="44.41309" lon="1.3648">
        <ele>303</ele>
        <time>2019-04-14T08:28:58Z</time>
      </trkpt>
      <trkpt lat="44.41307" lon="1.36476">
        <ele>303</ele>
        <time>2019-04-14T08:28:59Z</time>
      </trkpt>
      <trkpt lat="44.41304" lon="1.36467">
        <ele>303</ele>
        <time>2019-04-14T08:29:00Z</time>
      </trkpt>
      <trkpt lat="44.41302" lon="1.36463">
        <ele>303</ele>
        <time>2019-04-14T08:29:01Z</time>
      </trkpt>
      <trkpt lat="44.41301" lon="1.36459">
        <ele>303</ele>
        <time>2019-04-14T08:29:02Z</time>
      </trkpt>
      <trkpt lat="44.413" lon="1.36454">
        <ele>303</ele>
        <time>2019-04-14T08:29:03Z</time>
      </trkpt>
      <trkpt lat="44.41299" lon="1.36444">
        <ele>304</ele>
        <time>2019-04-14T08:29:05Z</time>
      </trkpt>
      <trkpt lat="44.41299" lon="1.36439">
        <ele>304</ele>
        <time>2019-04-14T08:29:06Z</time>
      </trkpt>
      <trkpt lat="44.413" lon="1.36434">
        <ele>304</ele>
        <time>2019-04-14T08:29:07Z</time>
      </trkpt>
      <trkpt lat="44.41301" lon="1.36429">
        <ele>304</ele>
        <time>2019-04-14T08:29:08Z</time>
      </trkpt>
      <trkpt lat="44.41303" lon="1.36425">
        <ele>304</ele>
        <time>2019-04-14T08:29:09Z</time>
      </trkpt>
      <trkpt lat="44.41304" lon="1.3642">
        <ele>304</ele>
        <time>2019-04-14T08:29:10Z</time>
      </trkpt>
      <trkpt lat="44.41307" lon="1.36416">
        <ele>304</ele>
        <time>2019-04-14T08:29:11Z</time>
      </trkpt>
      <trkpt lat="44.41309" lon="1.36413">
        <ele>304</ele>
        <time>2019-04-14T08:29:12Z</time>
      </trkpt>
      <trkpt lat="44.41312" lon="1.36409">
        <ele>304</ele>
        <time>2019-04-14T08:29:13Z</time>
      </trkpt>
      <trkpt lat="44.41315" lon="1.36405">
        <ele>304</ele>
        <time>2019-04-14T08:29:14Z</time>
      </trkpt>
      <trkpt lat="44.41319" lon="1.36402">
        <ele>303</ele>
        <time>2019-04-14T08:29:15Z</time>
      </trkpt>
      <trkpt lat="44.41322" lon="1.36399">
        <ele>303</ele>
        <time>2019-04-14T08:29:16Z</time>
      </trkpt>
      <trkpt lat="44.41325" lon="1.36395">
        <ele>303</ele>
        <time>2019-04-14T08:29:17Z</time>
      </trkpt>
      <trkpt lat="44.41328" lon="1.36392">
        <ele>303</ele>
        <time>2019-04-14T08:29:18Z</time>
      </trkpt>
      <trkpt lat="44.41331" lon="1.36389">
        <ele>303</ele>
        <time>2019-04-14T08:29:19Z</time>
      </trkpt>
      <trkpt lat="44.41335" lon="1.36386">
        <ele>303</ele>
        <time>2019-04-14T08:29:20Z</time>
      </trkpt>
      <trkpt lat="44.41338" lon="1.36383">
        <ele>303</ele>
        <time>2019-04-14T08:29:21Z</time>
      </trkpt>
      <trkpt lat="44.41341" lon="1.3638">
        <ele>303</ele>
        <time>2019-04-14T08:29:22Z</time>
      </trkpt>
      <trkpt lat="44.41345" lon="1.36377">
        <ele>303</ele>
        <time>2019-04-14T08:29:24Z</time>
      </trkpt>
      <trkpt lat="44.41348" lon="1.36374">
        <ele>303</ele>
        <time>2019-04-14T08:29:25Z</time>
      </trkpt>
      <trkpt lat="44.41351" lon="1.36371">
        <ele>303</ele>
        <time>2019-04-14T08:29:26Z</time>
      </trkpt>
      <trkpt lat="44.41354" lon="1.36368">
        <ele>303</ele>
        <time>2019-04-14T08:29:27Z</time>
      </trkpt>
      <trkpt lat="44.41358" lon="1.36364">
        <ele>303</ele>
        <time>2019-04-14T08:29:28Z</time>
      </trkpt>
      <trkpt lat="44.41364" lon="1.36358">
        <ele>303</ele>
        <time>2019-04-14T08:29:29Z</time>
      </trkpt>
      <trkpt lat="44.41367" lon="1.36355">
        <ele>302</ele>
        <time>2019-04-14T08:29:30Z</time>
      </trkpt>
      <trkpt lat="44.4137" lon="1.36351">
        <ele>302</ele>
        <time>2019-04-14T08:29:31Z</time>
      </trkpt>
      <trkpt lat="44.41374" lon="1.36348">
        <ele>302</ele>
        <time>2019-04-14T08:29:32Z</time>
      </trkpt>
      <trkpt lat="44.41377" lon="1.36344">
        <ele>302</ele>
        <time>2019-04-14T08:29:33Z</time>
      </trkpt>
      <trkpt lat="44.4138" lon="1.36341">
        <ele>302</ele>
        <time>2019-04-14T08:29:34Z</time>
      </trkpt>
      <trkpt lat="44.41384" lon="1.36337">
        <ele>302</ele>
        <time>2019-04-14T08:29:35Z</time>
      </trkpt>
      <trkpt lat="44.41387" lon="1.36334">
        <ele>302</ele>
        <time>2019-04-14T08:29:36Z</time>
      </trkpt>
      <trkpt lat="44.4139" lon="1.36331">
        <ele>302</ele>
        <time>2019-04-14T08:29:37Z</time>
      </trkpt>
      <trkpt lat="44.41394" lon="1.36328">
        <ele>302</ele>
        <time>2019-04-14T08:29:38Z</time>
      </trkpt>
      <trkpt lat="44.41397" lon="1.36325">
        <ele>302</ele>
        <time>2019-04-14T08:29:40Z</time>
      </trkpt>
      <trkpt lat="44.41401" lon="1.36323">
        <ele>301</ele>
        <time>2019-04-14T08:29:41Z</time>
      </trkpt>
      <trkpt lat="44.41407" lon="1.36317">
        <ele>301</ele>
        <time>2019-04-14T08:29:42Z</time>
      </trkpt>
      <trkpt lat="44.41411" lon="1.36314">
        <ele>301</ele>
        <time>2019-04-14T08:29:43Z</time>
      </trkpt>
      <trkpt lat="44.41415" lon="1.36311">
        <ele>300</ele>
        <time>2019-04-14T08:29:45Z</time>
      </trkpt>
      <trkpt lat="44.41419" lon="1.36309">
        <ele>300</ele>
        <time>2019-04-14T08:29:46Z</time>
      </trkpt>
      <trkpt lat="44.41423" lon="1.36306">
        <ele>300</ele>
        <time>2019-04-14T08:29:47Z</time>
      </trkpt>
      <trkpt lat="44.41432" lon="1.36299">
        <ele>300</ele>
        <time>2019-04-14T08:29:48Z</time>
      </trkpt>
      <trkpt lat="44.41437" lon="1.36296">
        <ele>300</ele>
        <time>2019-04-14T08:29:49Z</time>
      </trkpt>
      <trkpt lat="44.41441" lon="1.36294">
        <ele>300</ele>
        <time>2019-04-14T08:29:50Z</time>
      </trkpt>
      <trkpt lat="44.41446" lon="1.36291">
        <ele>300</ele>
        <time>2019-04-14T08:29:51Z</time>
      </trkpt>
      <trkpt lat="44.41451" lon="1.36289">
        <ele>299</ele>
        <time>2019-04-14T08:29:53Z</time>
      </trkpt>
      <trkpt lat="44.41461" lon="1.36283">
        <ele>299</ele>
        <time>2019-04-14T08:29:54Z</time>
      </trkpt>
      <trkpt lat="44.41465" lon="1.3628">
        <ele>299</ele>
        <time>2019-04-14T08:29:55Z</time>
      </trkpt>
      <trkpt lat="44.4147" lon="1.36278">
        <ele>298</ele>
        <time>2019-04-14T08:29:56Z</time>
      </trkpt>
      <trkpt lat="44.41475" lon="1.36275">
        <ele>298</ele>
        <time>2019-04-14T08:29:57Z</time>
      </trkpt>
      <trkpt lat="44.41481" lon="1.36272">
        <ele>298</ele>
        <time>2019-04-14T08:29:58Z</time>
      </trkpt>
      <trkpt lat="44.41485" lon="1.36269">
        <ele>298</ele>
        <time>2019-04-14T08:29:59Z</time>
      </trkpt>
      <trkpt lat="44.4149" lon="1.36267">
        <ele>298</ele>
        <time>2019-04-14T08:30:00Z</time>
      </trkpt>
      <trkpt lat="44.41496" lon="1.36264">
        <ele>298</ele>
        <time>2019-04-14T08:30:01Z</time>
      </trkpt>
      <trkpt lat="44.41501" lon="1.36261">
        <ele>297</ele>
        <time>2019-04-14T08:30:02Z</time>
      </trkpt>
      <trkpt lat="44.41507" lon="1.36258">
        <ele>297</ele>
        <time>2019-04-14T08:30:03Z</time>
      </trkpt>
      <trkpt lat="44.41512" lon="1.36254">
        <ele>297</ele>
        <time>2019-04-14T08:30:04Z</time>
      </trkpt>
      <trkpt lat="44.41518" lon="1.36251">
        <ele>296</ele>
        <time>2019-04-14T08:30:05Z</time>
      </trkpt>
      <trkpt lat="44.41524" lon="1.36248">
        <ele>296</ele>
        <time>2019-04-14T08:30:06Z</time>
      </trkpt>
      <trkpt lat="44.41531" lon="1.36244">
        <ele>295</ele>
        <time>2019-04-14T08:30:07Z</time>
      </trkpt>
      <trkpt lat="44.41538" lon="1.3624">
        <ele>295</ele>
        <time>2019-04-14T08:30:08Z</time>
      </trkpt>
      <trkpt lat="44.41545" lon="1.36237">
        <ele>294</ele>
        <time>2019-04-14T08:30:09Z</time>
      </trkpt>
      <trkpt lat="44.41553" lon="1.36234">
        <ele>294</ele>
        <time>2019-04-14T08:30:10Z</time>
      </trkpt>
      <trkpt lat="44.4156" lon="1.36229">
        <ele>294</ele>
        <time>2019-04-14T08:30:11Z</time>
      </trkpt>
      <trkpt lat="44.41569" lon="1.36224">
        <ele>293</ele>
        <time>2019-04-14T08:30:12Z</time>
      </trkpt>
      <trkpt lat="44.41576" lon="1.36219">
        <ele>293</ele>
        <time>2019-04-14T08:30:13Z</time>
      </trkpt>
      <trkpt lat="44.41584" lon="1.36213">
        <ele>292</ele>
        <time>2019-04-14T08:30:14Z</time>
      </trkpt>
      <trkpt lat="44.41592" lon="1.36207">
        <ele>292</ele>
        <time>2019-04-14T08:30:15Z</time>
      </trkpt>
      <trkpt lat="44.416" lon="1.36202">
        <ele>291</ele>
        <time>2019-04-14T08:30:16Z</time>
      </trkpt>
      <trkpt lat="44.41608" lon="1.36196">
        <ele>290</ele>
        <time>2019-04-14T08:30:18Z</time>
      </trkpt>
      <trkpt lat="44.41616" lon="1.36191">
        <ele>290</ele>
        <time>2019-04-14T08:30:19Z</time>
      </trkpt>
      <trkpt lat="44.41632" lon="1.36182">
        <ele>290</ele>
        <time>2019-04-14T08:30:20Z</time>
      </trkpt>
      <trkpt lat="44.41638" lon="1.36177">
        <ele>290</ele>
        <time>2019-04-14T08:30:21Z</time>
      </trkpt>
      <trkpt lat="44.41644" lon="1.36171">
        <ele>289</ele>
        <time>2019-04-14T08:30:23Z</time>
      </trkpt>
      <trkpt lat="44.41652" lon="1.36167">
        <ele>289</ele>
        <time>2019-04-14T08:30:24Z</time>
      </trkpt>
      <trkpt lat="44.41666" lon="1.36157">
        <ele>289</ele>
        <time>2019-04-14T08:30:25Z</time>
      </trkpt>
      <trkpt lat="44.41673" lon="1.36153">
        <ele>289</ele>
        <time>2019-04-14T08:30:26Z</time>
      </trkpt>
      <trkpt lat="44.4168" lon="1.36148">
        <ele>288</ele>
        <time>2019-04-14T08:30:27Z</time>
      </trkpt>
      <trkpt lat="44.41686" lon="1.36144">
        <ele>288</ele>
        <time>2019-04-14T08:30:28Z</time>
      </trkpt>
      <trkpt lat="44.41692" lon="1.3614">
        <ele>288</ele>
        <time>2019-04-14T08:30:29Z</time>
      </trkpt>
      <trkpt lat="44.41698" lon="1.36137">
        <ele>288</ele>
        <time>2019-04-14T08:30:30Z</time>
      </trkpt>
      <trkpt lat="44.41704" lon="1.36134">
        <ele>288</ele>
        <time>2019-04-14T08:30:31Z</time>
      </trkpt>
      <trkpt lat="44.41711" lon="1.36131">
        <ele>288</ele>
        <time>2019-04-14T08:30:32Z</time>
      </trkpt>
      <trkpt lat="44.41717" lon="1.36127">
        <ele>288</ele>
        <time>2019-04-14T08:30:33Z</time>
      </trkpt>
      <trkpt lat="44.41723" lon="1.36123">
        <ele>288</ele>
        <time>2019-04-14T08:30:34Z</time>
      </trkpt>
      <trkpt lat="44.41728" lon="1.36119">
        <ele>288</ele>
        <time>2019-04-14T08:30:35Z</time>
      </trkpt>
      <trkpt lat="44.41732" lon="1.36115">
        <ele>288</ele>
        <time>2019-04-14T08:30:36Z</time>
      </trkpt>
      <trkpt lat="44.41736" lon="1.36111">
        <ele>289</ele>
        <time>2019-04-14T08:30:37Z</time>
      </trkpt>
      <trkpt lat="44.41739" lon="1.36106">
        <ele>289</ele>
        <time>2019-04-14T08:30:39Z</time>
      </trkpt>
      <trkpt lat="44.41743" lon="1.36102">
        <ele>289</ele>
        <time>2019-04-14T08:30:40Z</time>
      </trkpt>
      <trkpt lat="44.41746" lon="1.36098">
        <ele>289</ele>
        <time>2019-04-14T08:30:41Z</time>
      </trkpt>
      <trkpt lat="44.41754" lon="1.3609">
        <ele>289</ele>
        <time>2019-04-14T08:30:42Z</time>
      </trkpt>
      <trkpt lat="44.41758" lon="1.36086">
        <ele>289</ele>
        <time>2019-04-14T08:30:43Z</time>
      </trkpt>
      <trkpt lat="44.41762" lon="1.36082">
        <ele>289</ele>
        <time>2019-04-14T08:30:44Z</time>
      </trkpt>
      <trkpt lat="44.41766" lon="1.36078">
        <ele>289</ele>
        <time>2019-04-14T08:30:45Z</time>
      </trkpt>
      <trkpt lat="44.4177" lon="1.36074">
        <ele>289</ele>
        <time>2019-04-14T08:30:46Z</time>
      </trkpt>
      <trkpt lat="44.41775" lon="1.36071">
        <ele>289</ele>
        <time>2019-04-14T08:30:47Z</time>
      </trkpt>
      <trkpt lat="44.41778" lon="1.36067">
        <ele>290</ele>
        <time>2019-04-14T08:30:48Z</time>
      </trkpt>
      <trkpt lat="44.41782" lon="1.36064">
        <ele>290</ele>
        <time>2019-04-14T08:30:49Z</time>
      </trkpt>
      <trkpt lat="44.41784" lon="1.3606">
        <ele>290</ele>
        <time>2019-04-14T08:30:50Z</time>
      </trkpt>
      <trkpt lat="44.41787" lon="1.36056">
        <ele>290</ele>
        <time>2019-04-14T08:30:51Z</time>
      </trkpt>
      <trkpt lat="44.4179" lon="1.36053">
        <ele>290</ele>
        <time>2019-04-14T08:30:52Z</time>
      </trkpt>
      <trkpt lat="44.41793" lon="1.3605">
        <ele>291</ele>
        <time>2019-04-14T08:30:53Z</time>
      </trkpt>
      <trkpt lat="44.41796" lon="1.36046">
        <ele>291</ele>
        <time>2019-04-14T08:30:54Z</time>
      </trkpt>
      <trkpt lat="44.418" lon="1.36042">
        <ele>291</ele>
        <time>2019-04-14T08:30:55Z</time>
      </trkpt>
      <trkpt lat="44.41803" lon="1.36039">
        <ele>291</ele>
        <time>2019-04-14T08:30:57Z</time>
      </trkpt>
      <trkpt lat="44.41808" lon="1.36032">
        <ele>291</ele>
        <time>2019-04-14T08:30:58Z</time>
      </trkpt>
      <trkpt lat="44.41811" lon="1.36029">
        <ele>291</ele>
        <time>2019-04-14T08:30:59Z</time>
      </trkpt>
      <trkpt lat="44.41814" lon="1.36026">
        <ele>291</ele>
        <time>2019-04-14T08:31:00Z</time>
      </trkpt>
      <trkpt lat="44.41817" lon="1.36023">
        <ele>292</ele>
        <time>2019-04-14T08:31:01Z</time>
      </trkpt>
      <trkpt lat="44.4182" lon="1.3602">
        <ele>292</ele>
        <time>2019-04-14T08:31:02Z</time>
      </trkpt>
      <trkpt lat="44.41823" lon="1.36017">
        <ele>292</ele>
        <time>2019-04-14T08:31:03Z</time>
      </trkpt>
      <trkpt lat="44.41826" lon="1.36013">
        <ele>292</ele>
        <time>2019-04-14T08:31:04Z</time>
      </trkpt>
      <trkpt lat="44.4183" lon="1.3601">
        <ele>293</ele>
        <time>2019-04-14T08:31:05Z</time>
      </trkpt>
      <trkpt lat="44.41833" lon="1.36007">
        <ele>293</ele>
        <time>2019-04-14T08:31:06Z</time>
      </trkpt>
      <trkpt lat="44.41837" lon="1.36003">
        <ele>293</ele>
        <time>2019-04-14T08:31:07Z</time>
      </trkpt>
      <trkpt lat="44.41839" lon="1.36">
        <ele>293</ele>
        <time>2019-04-14T08:31:08Z</time>
      </trkpt>
      <trkpt lat="44.41842" lon="1.35996">
        <ele>293</ele>
        <time>2019-04-14T08:31:09Z</time>
      </trkpt>
      <trkpt lat="44.41845" lon="1.35993">
        <ele>293</ele>
        <time>2019-04-14T08:31:10Z</time>
      </trkpt>
      <trkpt lat="44.41849" lon="1.35989">
        <ele>294</ele>
        <time>2019-04-14T08:31:11Z</time>
      </trkpt>
      <trkpt lat="44.41852" lon="1.35986">
        <ele>294</ele>
        <time>2019-04-14T08:31:12Z</time>
      </trkpt>
      <trkpt lat="44.41855" lon="1.35982">
        <ele>294</ele>
        <time>2019-04-14T08:31:13Z</time>
      </trkpt>
      <trkpt lat="44.41858" lon="1.35979">
        <ele>294</ele>
        <time>2019-04-14T08:31:14Z</time>
      </trkpt>
      <trkpt lat="44.41861" lon="1.35975">
        <ele>294</ele>
        <time>2019-04-14T08:31:15Z</time>
      </trkpt>
      <trkpt lat="44.41864" lon="1.35972">
        <ele>294</ele>
        <time>2019-04-14T08:31:16Z</time>
      </trkpt>
      <trkpt lat="44.41867" lon="1.35968">
        <ele>294</ele>
        <time>2019-04-14T08:31:17Z</time>
      </trkpt>
      <trkpt lat="44.41869" lon="1.35964">
        <ele>294</ele>
        <time>2019-04-14T08:31:18Z</time>
      </trkpt>
      <trkpt lat="44.41871" lon="1.3596">
        <ele>294</ele>
        <time>2019-04-14T08:31:19Z</time>
      </trkpt>
      <trkpt lat="44.41874" lon="1.35956">
        <ele>294</ele>
        <time>2019-04-14T08:31:20Z</time>
      </trkpt>
      <trkpt lat="44.41876" lon="1.35952">
        <ele>294</ele>
        <time>2019-04-14T08:31:21Z</time>
      </trkpt>
      <trkpt lat="44.41879" lon="1.35948">
        <ele>294</ele>
        <time>2019-04-14T08:31:22Z</time>
      </trkpt>
      <trkpt lat="44.41881" lon="1.35945">
        <ele>295</ele>
        <time>2019-04-14T08:31:23Z</time>
      </trkpt>
      <trkpt lat="44.41883" lon="1.35941">
        <ele>295</ele>
        <time>2019-04-14T08:31:24Z</time>
      </trkpt>
      <trkpt lat="44.41888" lon="1.35933">
        <ele>295</ele>
        <time>2019-04-14T08:31:26Z</time>
      </trkpt>
      <trkpt lat="44.4189" lon="1.3593">
        <ele>295</ele>
        <time>2019-04-14T08:31:27Z</time>
      </trkpt>
      <trkpt lat="44.41893" lon="1.35926">
        <ele>294</ele>
        <time>2019-04-14T08:31:28Z</time>
      </trkpt>
      <trkpt lat="44.41896" lon="1.35922">
        <ele>294</ele>
        <time>2019-04-14T08:31:29Z</time>
      </trkpt>
      <trkpt lat="44.41898" lon="1.35919">
        <ele>294</ele>
        <time>2019-04-14T08:31:30Z</time>
      </trkpt>
      <trkpt lat="44.41901" lon="1.35916">
        <ele>294</ele>
        <time>2019-04-14T08:31:31Z</time>
      </trkpt>
      <trkpt lat="44.41903" lon="1.35913">
        <ele>294</ele>
        <time>2019-04-14T08:31:32Z</time>
      </trkpt>
      <trkpt lat="44.41906" lon="1.35909">
        <ele>294</ele>
        <time>2019-04-14T08:31:33Z</time>
      </trkpt>
      <trkpt lat="44.41909" lon="1.35905">
        <ele>294</ele>
        <time>2019-04-14T08:31:34Z</time>
      </trkpt>
      <trkpt lat="44.41912" lon="1.35901">
        <ele>294</ele>
        <time>2019-04-14T08:31:35Z</time>
      </trkpt>
      <trkpt lat="44.41914" lon="1.35897">
        <ele>294</ele>
        <time>2019-04-14T08:31:36Z</time>
      </trkpt>
      <trkpt lat="44.41916" lon="1.35893">
        <ele>293</ele>
        <time>2019-04-14T08:31:37Z</time>
      </trkpt>
      <trkpt lat="44.41917" lon="1.35889">
        <ele>293</ele>
        <time>2019-04-14T08:31:38Z</time>
      </trkpt>
      <trkpt lat="44.41918" lon="1.35884">
        <ele>293</ele>
        <time>2019-04-14T08:31:39Z</time>
      </trkpt>
      <trkpt lat="44.41919" lon="1.35878">
        <ele>292</ele>
        <time>2019-04-14T08:31:40Z</time>
      </trkpt>
      <trkpt lat="44.4192" lon="1.35872">
        <ele>292</ele>
        <time>2019-04-14T08:31:41Z</time>
      </trkpt>
      <trkpt lat="44.41922" lon="1.35868">
        <ele>292</ele>
        <time>2019-04-14T08:31:42Z</time>
      </trkpt>
      <trkpt lat="44.41922" lon="1.35864">
        <ele>291</ele>
        <time>2019-04-14T08:31:43Z</time>
      </trkpt>
      <trkpt lat="44.41923" lon="1.35861">
        <ele>291</ele>
        <time>2019-04-14T08:31:44Z</time>
      </trkpt>
      <trkpt lat="44.41926" lon="1.3586">
        <ele>291</ele>
        <time>2019-04-14T08:31:45Z</time>
      </trkpt>
      <trkpt lat="44.41928" lon="1.35859">
        <ele>291</ele>
        <time>2019-04-14T08:31:46Z</time>
      </trkpt>
      <trkpt lat="44.41932" lon="1.35859">
        <ele>291</ele>
        <time>2019-04-14T08:31:47Z</time>
      </trkpt>
      <trkpt lat="44.41934" lon="1.35859">
        <ele>291</ele>
        <time>2019-04-14T08:31:48Z</time>
      </trkpt>
      <trkpt lat="44.41936" lon="1.35858">
        <ele>292</ele>
        <time>2019-04-14T08:31:49Z</time>
      </trkpt>
      <trkpt lat="44.41938" lon="1.35856">
        <ele>292</ele>
        <time>2019-04-14T08:31:50Z</time>
      </trkpt>
      <trkpt lat="44.41941" lon="1.35854">
        <ele>292</ele>
        <time>2019-04-14T08:31:51Z</time>
      </trkpt>
      <trkpt lat="44.41942" lon="1.35849">
        <ele>291</ele>
        <time>2019-04-14T08:31:52Z</time>
      </trkpt>
      <trkpt lat="44.41944" lon="1.35846">
        <ele>291</ele>
        <time>2019-04-14T08:31:53Z</time>
      </trkpt>
      <trkpt lat="44.41947" lon="1.35844">
        <ele>291</ele>
        <time>2019-04-14T08:31:54Z</time>
      </trkpt>
      <trkpt lat="44.4195" lon="1.35841">
        <ele>291</ele>
        <time>2019-04-14T08:31:55Z</time>
      </trkpt>
      <trkpt lat="44.41952" lon="1.35837">
        <ele>290</ele>
        <time>2019-04-14T08:31:56Z</time>
      </trkpt>
      <trkpt lat="44.41955" lon="1.35833">
        <ele>290</ele>
        <time>2019-04-14T08:31:57Z</time>
      </trkpt>
      <trkpt lat="44.41958" lon="1.35829">
        <ele>290</ele>
        <time>2019-04-14T08:31:58Z</time>
      </trkpt>
      <trkpt lat="44.4196" lon="1.35825">
        <ele>290</ele>
        <time>2019-04-14T08:31:59Z</time>
      </trkpt>
      <trkpt lat="44.41963" lon="1.35822">
        <ele>289</ele>
        <time>2019-04-14T08:32:00Z</time>
      </trkpt>
      <trkpt lat="44.41965" lon="1.3582">
        <ele>289</ele>
        <time>2019-04-14T08:32:01Z</time>
      </trkpt>
      <trkpt lat="44.41965" lon="1.35816">
        <ele>289</ele>
        <time>2019-04-14T08:32:02Z</time>
      </trkpt>
      <trkpt lat="44.41968" lon="1.35812">
        <ele>289</ele>
        <time>2019-04-14T08:32:03Z</time>
      </trkpt>
      <trkpt lat="44.41971" lon="1.35808">
        <ele>288</ele>
        <time>2019-04-14T08:32:04Z</time>
      </trkpt>
      <trkpt lat="44.41975" lon="1.35804">
        <ele>288</ele>
        <time>2019-04-14T08:32:05Z</time>
      </trkpt>
      <trkpt lat="44.41978" lon="1.358">
        <ele>288</ele>
        <time>2019-04-14T08:32:06Z</time>
      </trkpt>
      <trkpt lat="44.41981" lon="1.35796">
        <ele>287</ele>
        <time>2019-04-14T08:32:07Z</time>
      </trkpt>
      <trkpt lat="44.41983" lon="1.35792">
        <ele>287</ele>
        <time>2019-04-14T08:32:08Z</time>
      </trkpt>
      <trkpt lat="44.41985" lon="1.35788">
        <ele>287</ele>
        <time>2019-04-14T08:32:09Z</time>
      </trkpt>
      <trkpt lat="44.41987" lon="1.35784">
        <ele>286</ele>
        <time>2019-04-14T08:32:10Z</time>
      </trkpt>
      <trkpt lat="44.41991" lon="1.35779">
        <ele>286</ele>
        <time>2019-04-14T08:32:11Z</time>
      </trkpt>
      <trkpt lat="44.41993" lon="1.35774">
        <ele>285</ele>
        <time>2019-04-14T08:32:12Z</time>
      </trkpt>
      <trkpt lat="44.41996" lon="1.35769">
        <ele>285</ele>
        <time>2019-04-14T08:32:13Z</time>
      </trkpt>
      <trkpt lat="44.42" lon="1.35764">
        <ele>284</ele>
        <time>2019-04-14T08:32:14Z</time>
      </trkpt>
      <trkpt lat="44.42003" lon="1.35761">
        <ele>284</ele>
        <time>2019-04-14T08:32:15Z</time>
      </trkpt>
      <trkpt lat="44.42006" lon="1.35757">
        <ele>283</ele>
        <time>2019-04-14T08:32:16Z</time>
      </trkpt>
      <trkpt lat="44.42008" lon="1.35753">
        <ele>283</ele>
        <time>2019-04-14T08:32:17Z</time>
      </trkpt>
      <trkpt lat="44.42012" lon="1.35749">
        <ele>282</ele>
        <time>2019-04-14T08:32:18Z</time>
      </trkpt>
      <trkpt lat="44.42015" lon="1.35747">
        <ele>282</ele>
        <time>2019-04-14T08:32:19Z</time>
      </trkpt>
      <trkpt lat="44.42018" lon="1.35744">
        <ele>282</ele>
        <time>2019-04-14T08:32:20Z</time>
      </trkpt>
      <trkpt lat="44.4202" lon="1.35742">
        <ele>281</ele>
        <time>2019-04-14T08:32:21Z</time>
      </trkpt>
      <trkpt lat="44.42023" lon="1.35739">
        <ele>281</ele>
        <time>2019-04-14T08:32:22Z</time>
      </trkpt>
      <trkpt lat="44.42024" lon="1.35737">
        <ele>280</ele>
        <time>2019-04-14T08:32:23Z</time>
      </trkpt>
      <trkpt lat="44.42026" lon="1.35735">
        <ele>280</ele>
        <time>2019-04-14T08:32:24Z</time>
      </trkpt>
      <trkpt lat="44.42027" lon="1.35733">
        <ele>280</ele>
        <time>2019-04-14T08:32:25Z</time>
      </trkpt>
      <trkpt lat="44.42031" lon="1.35731">
        <ele>279</ele>
        <time>2019-04-14T08:32:26Z</time>
      </trkpt>
      <trkpt lat="44.42033" lon="1.3573">
        <ele>279</ele>
        <time>2019-04-14T08:32:27Z</time>
      </trkpt>
      <trkpt lat="44.42037" lon="1.35729">
        <ele>278</ele>
        <time>2019-04-14T08:32:28Z</time>
      </trkpt>
      <trkpt lat="44.42041" lon="1.35729">
        <ele>278</ele>
        <time>2019-04-14T08:32:29Z</time>
      </trkpt>
      <trkpt lat="44.42045" lon="1.3573">
        <ele>278</ele>
        <time>2019-04-14T08:32:30Z</time>
      </trkpt>
      <trkpt lat="44.42049" lon="1.3573">
        <ele>278</ele>
        <time>2019-04-14T08:32:31Z</time>
      </trkpt>
      <trkpt lat="44.42053" lon="1.3573">
        <ele>277</ele>
        <time>2019-04-14T08:32:32Z</time>
      </trkpt>
      <trkpt lat="44.42057" lon="1.3573">
        <ele>277</ele>
        <time>2019-04-14T08:32:33Z</time>
      </trkpt>
      <trkpt lat="44.42061" lon="1.35731">
        <ele>277</ele>
        <time>2019-04-14T08:32:34Z</time>
      </trkpt>
      <trkpt lat="44.42065" lon="1.35733">
        <ele>276</ele>
        <time>2019-04-14T08:32:35Z</time>
      </trkpt>
      <trkpt lat="44.42066" lon="1.35735">
        <ele>276</ele>
        <time>2019-04-14T08:32:36Z</time>
      </trkpt>
      <trkpt lat="44.42067" lon="1.35738">
        <ele>276</ele>
        <time>2019-04-14T08:32:37Z</time>
      </trkpt>
      <trkpt lat="44.42068" lon="1.35741">
        <ele>276</ele>
        <time>2019-04-14T08:32:38Z</time>
      </trkpt>
      <trkpt lat="44.42069" lon="1.35744">
        <ele>276</ele>
        <time>2019-04-14T08:32:39Z</time>
      </trkpt>
      <trkpt lat="44.4207" lon="1.35747">
        <ele>276</ele>
        <time>2019-04-14T08:32:40Z</time>
      </trkpt>
      <trkpt lat="44.4207" lon="1.3575">
        <ele>276</ele>
        <time>2019-04-14T08:32:41Z</time>
      </trkpt>
      <trkpt lat="44.4207" lon="1.35755">
        <ele>276</ele>
        <time>2019-04-14T08:32:42Z</time>
      </trkpt>
      <trkpt lat="44.4207" lon="1.35759">
        <ele>276</ele>
        <time>2019-04-14T08:32:43Z</time>
      </trkpt>
      <trkpt lat="44.4207" lon="1.35763">
        <ele>275</ele>
        <time>2019-04-14T08:32:44Z</time>
      </trkpt>
      <trkpt lat="44.4207" lon="1.35766">
        <ele>275</ele>
        <time>2019-04-14T08:32:45Z</time>
      </trkpt>
      <trkpt lat="44.42069" lon="1.35769">
        <ele>275</ele>
        <time>2019-04-14T08:32:46Z</time>
      </trkpt>
      <trkpt lat="44.42068" lon="1.35772">
        <ele>275</ele>
        <time>2019-04-14T08:32:47Z</time>
      </trkpt>
      <trkpt lat="44.42067" lon="1.35774">
        <ele>275</ele>
        <time>2019-04-14T08:32:48Z</time>
      </trkpt>
      <trkpt lat="44.42066" lon="1.35774">
        <ele>275</ele>
        <time>2019-04-14T08:32:49Z</time>
      </trkpt>
      <trkpt lat="44.42067" lon="1.35774">
        <ele>275</ele>
        <time>2019-04-14T08:32:50Z</time>
      </trkpt>
      <trkpt lat="44.42067" lon="1.35774">
        <ele>275</ele>
        <time>2019-04-14T08:32:51Z</time>
      </trkpt>
      <trkpt lat="44.42067" lon="1.35774">
        <ele>275</ele>
        <time>2019-04-14T08:32:52Z</time>
      </trkpt>
      <trkpt lat="44.42067" lon="1.35774">
        <ele>275</ele>
        <time>2019-04-14T08:32:53Z</time>
      </trkpt>
      <trkpt lat="44.42068" lon="1.35774">
        <ele>275</ele>
        <time>2019-04-14T08:32:54Z</time>
      </trkpt>
      <trkpt lat="44.42068" lon="1.35774">
        <ele>275</ele>
        <time>2019-04-14T08:32:55Z</time>
      </trkpt>
      <trkpt lat="44.42069" lon="1.35774">
        <ele>275</ele>
        <time>2019-04-14T08:32:56Z</time>
      </trkpt>
      <trkpt lat="44.42049" lon="1.35793">
        <ele>278</ele>
        <time>2019-04-14T08:34:45Z</time>
      </trkpt>
      <trkpt lat="44.42049" lon="1.35793">
        <ele>278</ele>
        <time>2019-04-14T08:34:46Z</time>
      </trkpt>
      <trkpt lat="44.42049" lon="1.35794">
        <ele>278</ele>
        <time>2019-04-14T08:34:47Z</time>
      </trkpt>
      <trkpt lat="44.42049" lon="1.35794">
        <ele>278</ele>
        <time>2019-04-14T08:34:48Z</time>
      </trkpt>
      <trkpt lat="44.42049" lon="1.35796">
        <ele>278</ele>
        <time>2019-04-14T08:34:49Z</time>
      </trkpt>
      <trkpt lat="44.42048" lon="1.35797">
        <ele>278</ele>
        <time>2019-04-14T08:34:50Z</time>
      </trkpt>
      <trkpt lat="44.42048" lon="1.35799">
        <ele>278</ele>
        <time>2019-04-14T08:34:51Z</time>
      </trkpt>
      <trkpt lat="44.42047" lon="1.358">
        <ele>278</ele>
        <time>2019-04-14T08:34:52Z</time>
      </trkpt>
      <trkpt lat="44.42034" lon="1.3582">
        <ele>279</ele>
        <time>2019-04-14T08:35:12Z</time>
      </trkpt>
      <trkpt lat="44.42032" lon="1.35822">
        <ele>279</ele>
        <time>2019-04-14T08:35:13Z</time>
      </trkpt>
      <trkpt lat="44.42031" lon="1.35824">
        <ele>279</ele>
        <time>2019-04-14T08:35:14Z</time>
      </trkpt>
      <trkpt lat="44.42029" lon="1.35826">
        <ele>280</ele>
        <time>2019-04-14T08:35:15Z</time>
      </trkpt>
      <trkpt lat="44.42028" lon="1.35828">
        <ele>280</ele>
        <time>2019-04-14T08:35:16Z</time>
      </trkpt>
      <trkpt lat="44.42026" lon="1.3583">
        <ele>280</ele>
        <time>2019-04-14T08:35:17Z</time>
      </trkpt>
      <trkpt lat="44.42025" lon="1.35833">
        <ele>280</ele>
        <time>2019-04-14T08:35:18Z</time>
      </trkpt>
      <trkpt lat="44.42024" lon="1.35835">
        <ele>280</ele>
        <time>2019-04-14T08:35:19Z</time>
      </trkpt>
      <trkpt lat="44.42023" lon="1.35838">
        <ele>281</ele>
        <time>2019-04-14T08:35:20Z</time>
      </trkpt>
      <trkpt lat="44.42022" lon="1.35842">
        <ele>281</ele>
        <time>2019-04-14T08:35:21Z</time>
      </trkpt>
      <trkpt lat="44.42021" lon="1.35846">
        <ele>280</ele>
        <time>2019-04-14T08:35:22Z</time>
      </trkpt>
      <trkpt lat="44.42019" lon="1.35848">
        <ele>280</ele>
        <time>2019-04-14T08:35:23Z</time>
      </trkpt>
      <trkpt lat="44.42017" lon="1.3585">
        <ele>281</ele>
        <time>2019-04-14T08:35:24Z</time>
      </trkpt>
      <trkpt lat="44.42015" lon="1.35852">
        <ele>281</ele>
        <time>2019-04-14T08:35:25Z</time>
      </trkpt>
      <trkpt lat="44.42014" lon="1.35853">
        <ele>282</ele>
        <time>2019-04-14T08:35:26Z</time>
      </trkpt>
      <trkpt lat="44.42013" lon="1.35856">
        <ele>282</ele>
        <time>2019-04-14T08:35:27Z</time>
      </trkpt>
      <trkpt lat="44.42013" lon="1.35858">
        <ele>282</ele>
        <time>2019-04-14T08:35:28Z</time>
      </trkpt>
      <trkpt lat="44.42014" lon="1.35861">
        <ele>282</ele>
        <time>2019-04-14T08:35:29Z</time>
      </trkpt>
      <trkpt lat="44.42014" lon="1.35865">
        <ele>282</ele>
        <time>2019-04-14T08:35:30Z</time>
      </trkpt>
      <trkpt lat="44.42014" lon="1.35867">
        <ele>282</ele>
        <time>2019-04-14T08:35:31Z</time>
      </trkpt>
      <trkpt lat="44.42014" lon="1.3587">
        <ele>282</ele>
        <time>2019-04-14T08:35:32Z</time>
      </trkpt>
      <trkpt lat="44.42015" lon="1.35873">
        <ele>282</ele>
        <time>2019-04-14T08:35:33Z</time>
      </trkpt>
      <trkpt lat="44.42015" lon="1.35876">
        <ele>282</ele>
        <time>2019-04-14T08:35:34Z</time>
      </trkpt>
      <trkpt lat="44.42017" lon="1.3588">
        <ele>281</ele>
        <time>2019-04-14T08:35:35Z</time>
      </trkpt>
      <trkpt lat="44.42019" lon="1.35884">
        <ele>280</ele>
        <time>2019-04-14T08:35:36Z</time>
      </trkpt>
      <trkpt lat="44.4202" lon="1.35889">
        <ele>279</ele>
        <time>2019-04-14T08:35:37Z</time>
      </trkpt>
      <trkpt lat="44.4202" lon="1.35895">
        <ele>278</ele>
        <time>2019-04-14T08:35:38Z</time>
      </trkpt>
      <trkpt lat="44.4202" lon="1.359">
        <ele>278</ele>
        <time>2019-04-14T08:35:39Z</time>
      </trkpt>
      <trkpt lat="44.42021" lon="1.35905">
        <ele>277</ele>
        <time>2019-04-14T08:35:40Z</time>
      </trkpt>
      <trkpt lat="44.42021" lon="1.35908">
        <ele>277</ele>
        <time>2019-04-14T08:35:41Z</time>
      </trkpt>
      <trkpt lat="44.42024" lon="1.35913">
        <ele>276</ele>
        <time>2019-04-14T08:35:42Z</time>
      </trkpt>
      <trkpt lat="44.42026" lon="1.35918">
        <ele>275</ele>
        <time>2019-04-14T08:35:43Z</time>
      </trkpt>
      <trkpt lat="44.42027" lon="1.35923">
        <ele>275</ele>
        <time>2019-04-14T08:35:44Z</time>
      </trkpt>
      <trkpt lat="44.42028" lon="1.35927">
        <ele>275</ele>
        <time>2019-04-14T08:35:45Z</time>
      </trkpt>
      <trkpt lat="44.4203" lon="1.3593">
        <ele>275</ele>
        <time>2019-04-14T08:35:46Z</time>
      </trkpt>
      <trkpt lat="44.42032" lon="1.35935">
        <ele>275</ele>
        <time>2019-04-14T08:35:47Z</time>
      </trkpt>
      <trkpt lat="44.42033" lon="1.35938">
        <ele>275</ele>
        <time>2019-04-14T08:35:48Z</time>
      </trkpt>
      <trkpt lat="44.42034" lon="1.3594">
        <ele>275</ele>
        <time>2019-04-14T08:35:49Z</time>
      </trkpt>
      <trkpt lat="44.42036" lon="1.35943">
        <ele>275</ele>
        <time>2019-04-14T08:35:50Z</time>
      </trkpt>
      <trkpt lat="44.42038" lon="1.35945">
        <ele>275</ele>
        <time>2019-04-14T08:35:51Z</time>
      </trkpt>
      <trkpt lat="44.42041" lon="1.35946">
        <ele>275</ele>
        <time>2019-04-14T08:35:52Z</time>
      </trkpt>
      <trkpt lat="44.42043" lon="1.35948">
        <ele>275</ele>
        <time>2019-04-14T08:35:53Z</time>
      </trkpt>
      <trkpt lat="44.42044" lon="1.3595">
        <ele>276</ele>
        <time>2019-04-14T08:35:54Z</time>
      </trkpt>
      <trkpt lat="44.42045" lon="1.35953">
        <ele>276</ele>
        <time>2019-04-14T08:35:55Z</time>
      </trkpt>
      <trkpt lat="44.42047" lon="1.35956">
        <ele>276</ele>
        <time>2019-04-14T08:35:56Z</time>
      </trkpt>
      <trkpt lat="44.42048" lon="1.35957">
        <ele>277</ele>
        <time>2019-04-14T08:35:57Z</time>
      </trkpt>
      <trkpt lat="44.42048" lon="1.35959">
        <ele>277</ele>
        <time>2019-04-14T08:35:58Z</time>
      </trkpt>
      <trkpt lat="44.42047" lon="1.3596">
        <ele>278</ele>
        <time>2019-04-14T08:35:59Z</time>
      </trkpt>
      <trkpt lat="44.42046" lon="1.35961">
        <ele>278</ele>
        <time>2019-04-14T08:36:00Z</time>
      </trkpt>
      <trkpt lat="44.42046" lon="1.35963">
        <ele>278</ele>
        <time>2019-04-14T08:36:01Z</time>
      </trkpt>
      <trkpt lat="44.42047" lon="1.35964">
        <ele>278</ele>
        <time>2019-04-14T08:36:02Z</time>
      </trkpt>
      <trkpt lat="44.42048" lon="1.35965">
        <ele>278</ele>
        <time>2019-04-14T08:36:03Z</time>
      </trkpt>
      <trkpt lat="44.42048" lon="1.35965">
        <ele>278</ele>
        <time>2019-04-14T08:36:04Z</time>
      </trkpt>
      <trkpt lat="44.42048" lon="1.35965">
        <ele>278</ele>
        <time>2019-04-14T08:36:05Z</time>
      </trkpt>
      <trkpt lat="44.42048" lon="1.35966">
        <ele>278</ele>
        <time>2019-04-14T08:36:06Z</time>
      </trkpt>
      <trkpt lat="44.42049" lon="1.35966">
        <ele>278</ele>
        <time>2019-04-14T08:36:07Z</time>
      </trkpt>
      <trkpt lat="44.42049" lon="1.35966">
        <ele>278</ele>
        <time>2019-04-14T08:36:08Z</time>
      </trkpt>
      <trkpt lat="44.42049" lon="1.35966">
        <ele>278</ele>
        <time>2019-04-14T08:36:09Z</time>
      </trkpt>
      <trkpt lat="44.42065" lon="1.35992">
        <ele>280</ele>
        <time>2019-04-14T08:37:24Z</time>
      </trkpt>
      <trkpt lat="44.42067" lon="1.35992">
        <ele>280</ele>
        <time>2019-04-14T08:37:25Z</time>
      </trkpt>
      <trkpt lat="44.42071" lon="1.35992">
        <ele>280</ele>
        <time>2019-04-14T08:37:26Z</time>
      </trkpt>
      <trkpt lat="44.42074" lon="1.35992">
        <ele>279</ele>
        <time>2019-04-14T08:37:27Z</time>
      </trkpt>
      <trkpt lat="44.42078" lon="1.35991">
        <ele>279</ele>
        <time>2019-04-14T08:37:28Z</time>
      </trkpt>
      <trkpt lat="44.42081" lon="1.35991">
        <ele>279</ele>
        <time>2019-04-14T08:37:29Z</time>
      </trkpt>
      <trkpt lat="44.42085" lon="1.35992">
        <ele>279</ele>
        <time>2019-04-14T08:37:30Z</time>
      </trkpt>
      <trkpt lat="44.42088" lon="1.35992">
        <ele>279</ele>
        <time>2019-04-14T08:37:31Z</time>
      </trkpt>
      <trkpt lat="44.42091" lon="1.35991">
        <ele>279</ele>
        <time>2019-04-14T08:37:32Z</time>
      </trkpt>
      <trkpt lat="44.42093" lon="1.35989">
        <ele>278</ele>
        <time>2019-04-14T08:37:33Z</time>
      </trkpt>
      <trkpt lat="44.42096" lon="1.35987">
        <ele>278</ele>
        <time>2019-04-14T08:37:34Z</time>
      </trkpt>
      <trkpt lat="44.42099" lon="1.35984">
        <ele>277</ele>
        <time>2019-04-14T08:37:35Z</time>
      </trkpt>
      <trkpt lat="44.42101" lon="1.35982">
        <ele>277</ele>
        <time>2019-04-14T08:37:36Z</time>
      </trkpt>
      <trkpt lat="44.42104" lon="1.35981">
        <ele>276</ele>
        <time>2019-04-14T08:37:37Z</time>
      </trkpt>
      <trkpt lat="44.42106" lon="1.35981">
        <ele>276</ele>
        <time>2019-04-14T08:37:38Z</time>
      </trkpt>
      <trkpt lat="44.42109" lon="1.35981">
        <ele>276</ele>
        <time>2019-04-14T08:37:39Z</time>
      </trkpt>
      <trkpt lat="44.42111" lon="1.35981">
        <ele>276</ele>
        <time>2019-04-14T08:37:40Z</time>
      </trkpt>
      <trkpt lat="44.42113" lon="1.35979">
        <ele>276</ele>
        <time>2019-04-14T08:37:41Z</time>
      </trkpt>
      <trkpt lat="44.42116" lon="1.35978">
        <ele>275</ele>
        <time>2019-04-14T08:37:42Z</time>
      </trkpt>
      <trkpt lat="44.42117" lon="1.35977">
        <ele>275</ele>
        <time>2019-04-14T08:37:43Z</time>
      </trkpt>
      <trkpt lat="44.4212" lon="1.35976">
        <ele>274</ele>
        <time>2019-04-14T08:37:44Z</time>
      </trkpt>
      <trkpt lat="44.42124" lon="1.35975">
        <ele>274</ele>
        <time>2019-04-14T08:37:45Z</time>
      </trkpt>
      <trkpt lat="44.42127" lon="1.35975">
        <ele>274</ele>
        <time>2019-04-14T08:37:46Z</time>
      </trkpt>
      <trkpt lat="44.42127" lon="1.35975">
        <ele>274</ele>
        <time>2019-04-14T08:37:47Z</time>
      </trkpt>
      <trkpt lat="44.42127" lon="1.35974">
        <ele>274</ele>
        <time>2019-04-14T08:37:48Z</time>
      </trkpt>
      <trkpt lat="44.42128" lon="1.35973">
        <ele>273</ele>
        <time>2019-04-14T08:37:49Z</time>
      </trkpt>
      <trkpt lat="44.42131" lon="1.3597">
        <ele>273</ele>
        <time>2019-04-14T08:37:50Z</time>
      </trkpt>
      <trkpt lat="44.42134" lon="1.3597">
        <ele>273</ele>
        <time>2019-04-14T08:37:51Z</time>
      </trkpt>
      <trkpt lat="44.42136" lon="1.3597">
        <ele>272</ele>
        <time>2019-04-14T08:37:52Z</time>
      </trkpt>
      <trkpt lat="44.4214" lon="1.3597">
        <ele>272</ele>
        <time>2019-04-14T08:37:53Z</time>
      </trkpt>
      <trkpt lat="44.42142" lon="1.3597">
        <ele>273</ele>
        <time>2019-04-14T08:37:54Z</time>
      </trkpt>
      <trkpt lat="44.42144" lon="1.35969">
        <ele>273</ele>
        <time>2019-04-14T08:37:55Z</time>
      </trkpt>
      <trkpt lat="44.42147" lon="1.35969">
        <ele>272</ele>
        <time>2019-04-14T08:37:56Z</time>
      </trkpt>
      <trkpt lat="44.4215" lon="1.35968">
        <ele>272</ele>
        <time>2019-04-14T08:37:57Z</time>
      </trkpt>
      <trkpt lat="44.42154" lon="1.35967">
        <ele>272</ele>
        <time>2019-04-14T08:37:58Z</time>
      </trkpt>
      <trkpt lat="44.42158" lon="1.35967">
        <ele>272</ele>
        <time>2019-04-14T08:37:59Z</time>
      </trkpt>
      <trkpt lat="44.42163" lon="1.35968">
        <ele>272</ele>
        <time>2019-04-14T08:38:00Z</time>
      </trkpt>
      <trkpt lat="44.42167" lon="1.35969">
        <ele>272</ele>
        <time>2019-04-14T08:38:01Z</time>
      </trkpt>
      <trkpt lat="44.42169" lon="1.35969">
        <ele>272</ele>
        <time>2019-04-14T08:38:02Z</time>
      </trkpt>
      <trkpt lat="44.42171" lon="1.35967">
        <ele>272</ele>
        <time>2019-04-14T08:38:03Z</time>
      </trkpt>
      <trkpt lat="44.42175" lon="1.35966">
        <ele>271</ele>
        <time>2019-04-14T08:38:04Z</time>
      </trkpt>
      <trkpt lat="44.42177" lon="1.35965">
        <ele>271</ele>
        <time>2019-04-14T08:38:05Z</time>
      </trkpt>
      <trkpt lat="44.42178" lon="1.35963">
        <ele>271</ele>
        <time>2019-04-14T08:38:06Z</time>
      </trkpt>
      <trkpt lat="44.42181" lon="1.35961">
        <ele>271</ele>
        <time>2019-04-14T08:38:07Z</time>
      </trkpt>
      <trkpt lat="44.42184" lon="1.35959">
        <ele>270</ele>
        <time>2019-04-14T08:38:08Z</time>
      </trkpt>
      <trkpt lat="44.42186" lon="1.35958">
        <ele>270</ele>
        <time>2019-04-14T08:38:09Z</time>
      </trkpt>
      <trkpt lat="44.42189" lon="1.35956">
        <ele>270</ele>
        <time>2019-04-14T08:38:10Z</time>
      </trkpt>
      <trkpt lat="44.42191" lon="1.35953">
        <ele>270</ele>
        <time>2019-04-14T08:38:11Z</time>
      </trkpt>
      <trkpt lat="44.42193" lon="1.3595">
        <ele>269</ele>
        <time>2019-04-14T08:38:12Z</time>
      </trkpt>
      <trkpt lat="44.42196" lon="1.35948">
        <ele>268</ele>
        <time>2019-04-14T08:38:13Z</time>
      </trkpt>
      <trkpt lat="44.42199" lon="1.35947">
        <ele>268</ele>
        <time>2019-04-14T08:38:14Z</time>
      </trkpt>
      <trkpt lat="44.42202" lon="1.35945">
        <ele>268</ele>
        <time>2019-04-14T08:38:15Z</time>
      </trkpt>
      <trkpt lat="44.42205" lon="1.35944">
        <ele>268</ele>
        <time>2019-04-14T08:38:16Z</time>
      </trkpt>
      <trkpt lat="44.42207" lon="1.35943">
        <ele>268</ele>
        <time>2019-04-14T08:38:17Z</time>
      </trkpt>
      <trkpt lat="44.42208" lon="1.35941">
        <ele>268</ele>
        <time>2019-04-14T08:38:18Z</time>
      </trkpt>
      <trkpt lat="44.4221" lon="1.35939">
        <ele>267</ele>
        <time>2019-04-14T08:38:19Z</time>
      </trkpt>
      <trkpt lat="44.42212" lon="1.35937">
        <ele>267</ele>
        <time>2019-04-14T08:38:20Z</time>
      </trkpt>
      <trkpt lat="44.42214" lon="1.35935">
        <ele>267</ele>
        <time>2019-04-14T08:38:21Z</time>
      </trkpt>
      <trkpt lat="44.42216" lon="1.35933">
        <ele>267</ele>
        <time>2019-04-14T08:38:22Z</time>
      </trkpt>
      <trkpt lat="44.42218" lon="1.35931">
        <ele>266</ele>
        <time>2019-04-14T08:38:23Z</time>
      </trkpt>
      <trkpt lat="44.42221" lon="1.35928">
        <ele>266</ele>
        <time>2019-04-14T08:38:24Z</time>
      </trkpt>
      <trkpt lat="44.42224" lon="1.35926">
        <ele>266</ele>
        <time>2019-04-14T08:38:25Z</time>
      </trkpt>
      <trkpt lat="44.42226" lon="1.35925">
        <ele>266</ele>
        <time>2019-04-14T08:38:26Z</time>
      </trkpt>
      <trkpt lat="44.42228" lon="1.35923">
        <ele>265</ele>
        <time>2019-04-14T08:38:27Z</time>
      </trkpt>
      <trkpt lat="44.4223" lon="1.35921">
        <ele>265</ele>
        <time>2019-04-14T08:38:28Z</time>
      </trkpt>
      <trkpt lat="44.42232" lon="1.35919">
        <ele>265</ele>
        <time>2019-04-14T08:38:29Z</time>
      </trkpt>
      <trkpt lat="44.42235" lon="1.35917">
        <ele>265</ele>
        <time>2019-04-14T08:38:30Z</time>
      </trkpt>
      <trkpt lat="44.42237" lon="1.35915">
        <ele>265</ele>
        <time>2019-04-14T08:38:31Z</time>
      </trkpt>
      <trkpt lat="44.42238" lon="1.35913">
        <ele>265</ele>
        <time>2019-04-14T08:38:32Z</time>
      </trkpt>
      <trkpt lat="44.4224" lon="1.35911">
        <ele>265</ele>
        <time>2019-04-14T08:38:33Z</time>
      </trkpt>
      <trkpt lat="44.42242" lon="1.35909">
        <ele>264</ele>
        <time>2019-04-14T08:38:34Z</time>
      </trkpt>
      <trkpt lat="44.42243" lon="1.35908">
        <ele>264</ele>
        <time>2019-04-14T08:38:35Z</time>
      </trkpt>
      <trkpt lat="44.42244" lon="1.35907">
        <ele>264</ele>
        <time>2019-04-14T08:38:36Z</time>
      </trkpt>
      <trkpt lat="44.42245" lon="1.35906">
        <ele>264</ele>
        <time>2019-04-14T08:38:37Z</time>
      </trkpt>
      <trkpt lat="44.42247" lon="1.35905">
        <ele>264</ele>
        <time>2019-04-14T08:38:38Z</time>
      </trkpt>
      <trkpt lat="44.42247" lon="1.35904">
        <ele>264</ele>
        <time>2019-04-14T08:38:39Z</time>
      </trkpt>
      <trkpt lat="44.42248" lon="1.35903">
        <ele>264</ele>
        <time>2019-04-14T08:38:40Z</time>
      </trkpt>
      <trkpt lat="44.42249" lon="1.35902">
        <ele>264</ele>
        <time>2019-04-14T08:38:41Z</time>
      </trkpt>
      <trkpt lat="44.42249" lon="1.35901">
        <ele>264</ele>
        <time>2019-04-14T08:38:42Z</time>
      </trkpt>
      <trkpt lat="44.4225" lon="1.359">
        <ele>264</ele>
        <time>2019-04-14T08:38:43Z</time>
      </trkpt>
      <trkpt lat="44.42251" lon="1.35898">
        <ele>264</ele>
        <time>2019-04-14T08:38:44Z</time>
      </trkpt>
      <trkpt lat="44.42251" lon="1.35896">
        <ele>264</ele>
        <time>2019-04-14T08:38:45Z</time>
      </trkpt>
      <trkpt lat="44.42253" lon="1.35895">
        <ele>264</ele>
        <time>2019-04-14T08:38:46Z</time>
      </trkpt>
      <trkpt lat="44.42255" lon="1.35894">
        <ele>264</ele>
        <time>2019-04-14T08:38:47Z</time>
      </trkpt>
      <trkpt lat="44.42257" lon="1.35894">
        <ele>264</ele>
        <time>2019-04-14T08:38:48Z</time>
      </trkpt>
      <trkpt lat="44.42259" lon="1.35892">
        <ele>264</ele>
        <time>2019-04-14T08:38:49Z</time>
      </trkpt>
      <trkpt lat="44.4226" lon="1.3589">
        <ele>264</ele>
        <time>2019-04-14T08:38:50Z</time>
      </trkpt>
      <trkpt lat="44.42262" lon="1.35888">
        <ele>264</ele>
        <time>2019-04-14T08:38:51Z</time>
      </trkpt>
      <trkpt lat="44.42264" lon="1.35886">
        <ele>264</ele>
        <time>2019-04-14T08:38:52Z</time>
      </trkpt>
      <trkpt lat="44.42266" lon="1.35882">
        <ele>264</ele>
        <time>2019-04-14T08:38:53Z</time>
      </trkpt>
      <trkpt lat="44.42268" lon="1.35878">
        <ele>263</ele>
        <time>2019-04-14T08:38:54Z</time>
      </trkpt>
      <trkpt lat="44.4227" lon="1.35874">
        <ele>263</ele>
        <time>2019-04-14T08:38:55Z</time>
      </trkpt>
      <trkpt lat="44.42272" lon="1.3587">
        <ele>263</ele>
        <time>2019-04-14T08:38:56Z</time>
      </trkpt>
      <trkpt lat="44.42274" lon="1.35868">
        <ele>263</ele>
        <time>2019-04-14T08:38:57Z</time>
      </trkpt>
      <trkpt lat="44.42276" lon="1.35865">
        <ele>262</ele>
        <time>2019-04-14T08:38:58Z</time>
      </trkpt>
      <trkpt lat="44.42279" lon="1.35863">
        <ele>262</ele>
        <time>2019-04-14T08:38:59Z</time>
      </trkpt>
      <trkpt lat="44.42281" lon="1.35861">
        <ele>262</ele>
        <time>2019-04-14T08:39:00Z</time>
      </trkpt>
      <trkpt lat="44.42283" lon="1.3586">
        <ele>263</ele>
        <time>2019-04-14T08:39:01Z</time>
      </trkpt>
      <trkpt lat="44.42285" lon="1.35859">
        <ele>263</ele>
        <time>2019-04-14T08:39:02Z</time>
      </trkpt>
      <trkpt lat="44.42287" lon="1.35858">
        <ele>263</ele>
        <time>2019-04-14T08:39:03Z</time>
      </trkpt>
      <trkpt lat="44.42288" lon="1.35857">
        <ele>263</ele>
        <time>2019-04-14T08:39:04Z</time>
      </trkpt>
      <trkpt lat="44.4229" lon="1.35855">
        <ele>263</ele>
        <time>2019-04-14T08:39:05Z</time>
      </trkpt>
      <trkpt lat="44.42292" lon="1.35853">
        <ele>263</ele>
        <time>2019-04-14T08:39:06Z</time>
      </trkpt>
      <trkpt lat="44.42295" lon="1.35851">
        <ele>262</ele>
        <time>2019-04-14T08:39:07Z</time>
      </trkpt>
      <trkpt lat="44.42297" lon="1.35849">
        <ele>263</ele>
        <time>2019-04-14T08:39:08Z</time>
      </trkpt>
      <trkpt lat="44.42299" lon="1.35848">
        <ele>263</ele>
        <time>2019-04-14T08:39:09Z</time>
      </trkpt>
      <trkpt lat="44.42301" lon="1.35845">
        <ele>263</ele>
        <time>2019-04-14T08:39:10Z</time>
      </trkpt>
      <trkpt lat="44.42302" lon="1.35842">
        <ele>262</ele>
        <time>2019-04-14T08:39:11Z</time>
      </trkpt>
      <trkpt lat="44.42304" lon="1.35839">
        <ele>262</ele>
        <time>2019-04-14T08:39:12Z</time>
      </trkpt>
      <trkpt lat="44.42306" lon="1.35836">
        <ele>262</ele>
        <time>2019-04-14T08:39:13Z</time>
      </trkpt>
      <trkpt lat="44.42308" lon="1.35834">
        <ele>262</ele>
        <time>2019-04-14T08:39:14Z</time>
      </trkpt>
      <trkpt lat="44.42311" lon="1.35833">
        <ele>262</ele>
        <time>2019-04-14T08:39:15Z</time>
      </trkpt>
      <trkpt lat="44.42313" lon="1.35832">
        <ele>263</ele>
        <time>2019-04-14T08:39:16Z</time>
      </trkpt>
      <trkpt lat="44.42315" lon="1.3583">
        <ele>263</ele>
        <time>2019-04-14T08:39:17Z</time>
      </trkpt>
      <trkpt lat="44.42316" lon="1.35828">
        <ele>263</ele>
        <time>2019-04-14T08:39:18Z</time>
      </trkpt>
      <trkpt lat="44.42317" lon="1.35825">
        <ele>263</ele>
        <time>2019-04-14T08:39:19Z</time>
      </trkpt>
      <trkpt lat="44.42319" lon="1.35823">
        <ele>263</ele>
        <time>2019-04-14T08:39:20Z</time>
      </trkpt>
      <trkpt lat="44.42321" lon="1.3582">
        <ele>263</ele>
        <time>2019-04-14T08:39:21Z</time>
      </trkpt>
      <trkpt lat="44.42322" lon="1.35817">
        <ele>263</ele>
        <time>2019-04-14T08:39:22Z</time>
      </trkpt>
      <trkpt lat="44.42323" lon="1.35814">
        <ele>263</ele>
        <time>2019-04-14T08:39:23Z</time>
      </trkpt>
      <trkpt lat="44.42325" lon="1.35811">
        <ele>263</ele>
        <time>2019-04-14T08:39:24Z</time>
      </trkpt>
      <trkpt lat="44.42327" lon="1.35807">
        <ele>263</ele>
        <time>2019-04-14T08:39:25Z</time>
      </trkpt>
      <trkpt lat="44.42329" lon="1.35804">
        <ele>263</ele>
        <time>2019-04-14T08:39:26Z</time>
      </trkpt>
      <trkpt lat="44.42331" lon="1.35801">
        <ele>263</ele>
        <time>2019-04-14T08:39:27Z</time>
      </trkpt>
      <trkpt lat="44.42332" lon="1.35798">
        <ele>263</ele>
        <time>2019-04-14T08:39:28Z</time>
      </trkpt>
      <trkpt lat="44.42335" lon="1.35795">
        <ele>263</ele>
        <time>2019-04-14T08:39:29Z</time>
      </trkpt>
      <trkpt lat="44.42337" lon="1.35793">
        <ele>263</ele>
        <time>2019-04-14T08:39:30Z</time>
      </trkpt>
      <trkpt lat="44.4234" lon="1.35791">
        <ele>263</ele>
        <time>2019-04-14T08:39:31Z</time>
      </trkpt>
      <trkpt lat="44.42343" lon="1.35789">
        <ele>263</ele>
        <time>2019-04-14T08:39:32Z</time>
      </trkpt>
      <trkpt lat="44.42344" lon="1.35787">
        <ele>263</ele>
        <time>2019-04-14T08:39:33Z</time>
      </trkpt>
      <trkpt lat="44.42346" lon="1.35784">
        <ele>263</ele>
        <time>2019-04-14T08:39:34Z</time>
      </trkpt>
      <trkpt lat="44.42349" lon="1.35783">
        <ele>263</ele>
        <time>2019-04-14T08:39:35Z</time>
      </trkpt>
      <trkpt lat="44.42352" lon="1.35783">
        <ele>264</ele>
        <time>2019-04-14T08:39:36Z</time>
      </trkpt>
      <trkpt lat="44.42354" lon="1.35782">
        <ele>264</ele>
        <time>2019-04-14T08:39:37Z</time>
      </trkpt>
      <trkpt lat="44.42355" lon="1.35781">
        <ele>264</ele>
        <time>2019-04-14T08:39:38Z</time>
      </trkpt>
      <trkpt lat="44.42357" lon="1.3578">
        <ele>264</ele>
        <time>2019-04-14T08:39:39Z</time>
      </trkpt>
      <trkpt lat="44.42359" lon="1.35777">
        <ele>264</ele>
        <time>2019-04-14T08:39:40Z</time>
      </trkpt>
      <trkpt lat="44.4236" lon="1.35776">
        <ele>264</ele>
        <time>2019-04-14T08:39:41Z</time>
      </trkpt>
      <trkpt lat="44.42363" lon="1.35774">
        <ele>265</ele>
        <time>2019-04-14T08:39:42Z</time>
      </trkpt>
      <trkpt lat="44.42364" lon="1.35773">
        <ele>265</ele>
        <time>2019-04-14T08:39:43Z</time>
      </trkpt>
      <trkpt lat="44.42365" lon="1.35772">
        <ele>265</ele>
        <time>2019-04-14T08:39:44Z</time>
      </trkpt>
      <trkpt lat="44.42365" lon="1.35772">
        <ele>265</ele>
        <time>2019-04-14T08:39:45Z</time>
      </trkpt>
      <trkpt lat="44.42365" lon="1.35771">
        <ele>265</ele>
        <time>2019-04-14T08:39:46Z</time>
      </trkpt>
      <trkpt lat="44.42365" lon="1.35771">
        <ele>265</ele>
        <time>2019-04-14T08:39:47Z</time>
      </trkpt>
      <trkpt lat="44.42365" lon="1.3577">
        <ele>265</ele>
        <time>2019-04-14T08:39:48Z</time>
      </trkpt>
      <trkpt lat="44.42364" lon="1.35767">
        <ele>265</ele>
        <time>2019-04-14T08:39:49Z</time>
      </trkpt>
      <trkpt lat="44.42364" lon="1.35763">
        <ele>264</ele>
        <time>2019-04-14T08:39:50Z</time>
      </trkpt>
      <trkpt lat="44.42379" lon="1.3575">
        <ele>265</ele>
        <time>2019-04-14T08:39:56Z</time>
      </trkpt>
      <trkpt lat="44.42382" lon="1.35747">
        <ele>265</ele>
        <time>2019-04-14T08:39:57Z</time>
      </trkpt>
      <trkpt lat="44.42386" lon="1.35746">
        <ele>265</ele>
        <time>2019-04-14T08:39:58Z</time>
      </trkpt>
      <trkpt lat="44.42389" lon="1.35744">
        <ele>265</ele>
        <time>2019-04-14T08:39:59Z</time>
      </trkpt>
      <trkpt lat="44.42391" lon="1.35741">
        <ele>265</ele>
        <time>2019-04-14T08:40:00Z</time>
      </trkpt>
      <trkpt lat="44.42393" lon="1.35735">
        <ele>265</ele>
        <time>2019-04-14T08:40:01Z</time>
      </trkpt>
      <trkpt lat="44.42392" lon="1.35729">
        <ele>265</ele>
        <time>2019-04-14T08:40:02Z</time>
      </trkpt>
      <trkpt lat="44.42391" lon="1.35723">
        <ele>265</ele>
        <time>2019-04-14T08:40:03Z</time>
      </trkpt>
      <trkpt lat="44.42389" lon="1.35717">
        <ele>264</ele>
        <time>2019-04-14T08:40:04Z</time>
      </trkpt>
      <trkpt lat="44.42387" lon="1.35711">
        <ele>264</ele>
        <time>2019-04-14T08:40:05Z</time>
      </trkpt>
      <trkpt lat="44.42385" lon="1.35706">
        <ele>263</ele>
        <time>2019-04-14T08:40:06Z</time>
      </trkpt>
      <trkpt lat="44.42384" lon="1.35701">
        <ele>262</ele>
        <time>2019-04-14T08:40:07Z</time>
      </trkpt>
      <trkpt lat="44.42384" lon="1.35696">
        <ele>261</ele>
        <time>2019-04-14T08:40:08Z</time>
      </trkpt>
      <trkpt lat="44.42383" lon="1.35693">
        <ele>261</ele>
        <time>2019-04-14T08:40:09Z</time>
      </trkpt>
      <trkpt lat="44.42384" lon="1.3569">
        <ele>260</ele>
        <time>2019-04-14T08:40:10Z</time>
      </trkpt>
      <trkpt lat="44.42383" lon="1.35689">
        <ele>260</ele>
        <time>2019-04-14T08:40:11Z</time>
      </trkpt>
      <trkpt lat="44.42384" lon="1.35687">
        <ele>260</ele>
        <time>2019-04-14T08:40:12Z</time>
      </trkpt>
      <trkpt lat="44.42384" lon="1.35686">
        <ele>260</ele>
        <time>2019-04-14T08:40:13Z</time>
      </trkpt>
      <trkpt lat="44.42385" lon="1.35684">
        <ele>259</ele>
        <time>2019-04-14T08:40:14Z</time>
      </trkpt>
      <trkpt lat="44.42385" lon="1.35683">
        <ele>260</ele>
        <time>2019-04-14T08:40:15Z</time>
      </trkpt>
      <trkpt lat="44.42386" lon="1.35682">
        <ele>259</ele>
        <time>2019-04-14T08:40:16Z</time>
      </trkpt>
      <trkpt lat="44.42386" lon="1.35681">
        <ele>259</ele>
        <time>2019-04-14T08:40:17Z</time>
      </trkpt>
      <trkpt lat="44.42387" lon="1.3568">
        <ele>259</ele>
        <time>2019-04-14T08:40:18Z</time>
      </trkpt>
      <trkpt lat="44.42387" lon="1.3568">
        <ele>259</ele>
        <time>2019-04-14T08:40:19Z</time>
      </trkpt>
      <trkpt lat="44.42388" lon="1.3568">
        <ele>259</ele>
        <time>2019-04-14T08:40:20Z</time>
      </trkpt>
      <trkpt lat="44.42389" lon="1.3568">
        <ele>260</ele>
        <time>2019-04-14T08:40:21Z</time>
      </trkpt>
      <trkpt lat="44.42389" lon="1.3568">
        <ele>260</ele>
        <time>2019-04-14T08:40:22Z</time>
      </trkpt>
      <trkpt lat="44.42389" lon="1.35681">
        <ele>260</ele>
        <time>2019-04-14T08:40:23Z</time>
      </trkpt>
      <trkpt lat="44.42389" lon="1.3568">
        <ele>260</ele>
        <time>2019-04-14T08:40:24Z</time>
      </trkpt>
      <trkpt lat="44.42389" lon="1.3568">
        <ele>260</ele>
        <time>2019-04-14T08:40:25Z</time>
      </trkpt>
      <trkpt lat="44.42389" lon="1.3568">
        <ele>260</ele>
        <time>2019-04-14T08:40:26Z</time>
      </trkpt>
      <trkpt lat="44.42389" lon="1.3568">
        <ele>260</ele>
        <time>2019-04-14T08:40:27Z</time>
      </trkpt>
      <trkpt lat="44.42389" lon="1.35679">
        <ele>260</ele>
        <time>2019-04-14T08:40:28Z</time>
      </trkpt>
      <trkpt lat="44.4241" lon="1.35647">
        <ele>258</ele>
        <time>2019-04-14T08:41:13Z</time>
      </trkpt>
      <trkpt lat="44.42414" lon="1.35644">
        <ele>258</ele>
        <time>2019-04-14T08:41:14Z</time>
      </trkpt>
      <trkpt lat="44.42417" lon="1.3564">
        <ele>258</ele>
        <time>2019-04-14T08:41:15Z</time>
      </trkpt>
      <trkpt lat="44.42422" lon="1.35638">
        <ele>259</ele>
        <time>2019-04-14T08:41:16Z</time>
      </trkpt>
      <trkpt lat="44.42427" lon="1.35637">
        <ele>259</ele>
        <time>2019-04-14T08:41:17Z</time>
      </trkpt>
      <trkpt lat="44.42431" lon="1.35636">
        <ele>259</ele>
        <time>2019-04-14T08:41:18Z</time>
      </trkpt>
      <trkpt lat="44.42435" lon="1.35634">
        <ele>260</ele>
        <time>2019-04-14T08:41:19Z</time>
      </trkpt>
      <trkpt lat="44.42439" lon="1.35632">
        <ele>260</ele>
        <time>2019-04-14T08:41:20Z</time>
      </trkpt>
      <trkpt lat="44.42443" lon="1.35632">
        <ele>260</ele>
        <time>2019-04-14T08:41:21Z</time>
      </trkpt>
      <trkpt lat="44.42446" lon="1.35633">
        <ele>261</ele>
        <time>2019-04-14T08:41:22Z</time>
      </trkpt>
      <trkpt lat="44.42449" lon="1.35632">
        <ele>261</ele>
        <time>2019-04-14T08:41:23Z</time>
      </trkpt>
      <trkpt lat="44.42452" lon="1.35631">
        <ele>261</ele>
        <time>2019-04-14T08:41:24Z</time>
      </trkpt>
      <trkpt lat="44.42455" lon="1.35629">
        <ele>261</ele>
        <time>2019-04-14T08:41:25Z</time>
      </trkpt>
      <trkpt lat="44.42457" lon="1.35628">
        <ele>261</ele>
        <time>2019-04-14T08:41:26Z</time>
      </trkpt>
      <trkpt lat="44.42459" lon="1.35627">
        <ele>261</ele>
        <time>2019-04-14T08:41:27Z</time>
      </trkpt>
      <trkpt lat="44.42461" lon="1.35626">
        <ele>261</ele>
        <time>2019-04-14T08:41:28Z</time>
      </trkpt>
      <trkpt lat="44.42462" lon="1.35626">
        <ele>261</ele>
        <time>2019-04-14T08:41:29Z</time>
      </trkpt>
      <trkpt lat="44.42463" lon="1.35626">
        <ele>261</ele>
        <time>2019-04-14T08:41:30Z</time>
      </trkpt>
      <trkpt lat="44.42463" lon="1.35626">
        <ele>261</ele>
        <time>2019-04-14T08:41:31Z</time>
      </trkpt>
      <trkpt lat="44.42464" lon="1.35625">
        <ele>261</ele>
        <time>2019-04-14T08:41:32Z</time>
      </trkpt>
      <trkpt lat="44.42464" lon="1.35626">
        <ele>261</ele>
        <time>2019-04-14T08:41:33Z</time>
      </trkpt>
      <trkpt lat="44.42465" lon="1.35625">
        <ele>261</ele>
        <time>2019-04-14T08:41:34Z</time>
      </trkpt>
      <trkpt lat="44.42466" lon="1.35624">
        <ele>261</ele>
        <time>2019-04-14T08:41:35Z</time>
      </trkpt>
      <trkpt lat="44.42467" lon="1.35623">
        <ele>261</ele>
        <time>2019-04-14T08:41:36Z</time>
      </trkpt>
      <trkpt lat="44.42468" lon="1.35622">
        <ele>261</ele>
        <time>2019-04-14T08:41:37Z</time>
      </trkpt>
      <trkpt lat="44.4248" lon="1.35614">
        <ele>261</ele>
        <time>2019-04-14T08:41:43Z</time>
      </trkpt>
      <trkpt lat="44.42481" lon="1.35613">
        <ele>261</ele>
        <time>2019-04-14T08:41:44Z</time>
      </trkpt>
      <trkpt lat="44.42481" lon="1.35613">
        <ele>261</ele>
        <time>2019-04-14T08:41:45Z</time>
      </trkpt>
      <trkpt lat="44.42481" lon="1.35613">
        <ele>261</ele>
        <time>2019-04-14T08:41:46Z</time>
      </trkpt>
      <trkpt lat="44.42481" lon="1.35612">
        <ele>260</ele>
        <time>2019-04-14T08:41:47Z</time>
      </trkpt>
      <trkpt lat="44.42481" lon="1.35612">
        <ele>260</ele>
        <time>2019-04-14T08:41:48Z</time>
      </trkpt>
      <trkpt lat="44.42482" lon="1.35612">
        <ele>260</ele>
        <time>2019-04-14T08:41:49Z</time>
      </trkpt>
      <trkpt lat="44.42482" lon="1.35612">
        <ele>260</ele>
        <time>2019-04-14T08:41:50Z</time>
      </trkpt>
      <trkpt lat="44.42482" lon="1.35612">
        <ele>260</ele>
        <time>2019-04-14T08:41:51Z</time>
      </trkpt>
      <trkpt lat="44.42482" lon="1.35612">
        <ele>260</ele>
        <time>2019-04-14T08:41:52Z</time>
      </trkpt>
      <trkpt lat="44.42505" lon="1.35587">
        <ele>258</ele>
        <time>2019-04-14T08:42:12Z</time>
      </trkpt>
      <trkpt lat="44.42508" lon="1.35587">
        <ele>258</ele>
        <time>2019-04-14T08:42:13Z</time>
      </trkpt>
      <trkpt lat="44.4251" lon="1.35588">
        <ele>258</ele>
        <time>2019-04-14T08:42:14Z</time>
      </trkpt>
      <trkpt lat="44.42512" lon="1.35588">
        <ele>258</ele>
        <time>2019-04-14T08:42:15Z</time>
      </trkpt>
      <trkpt lat="44.42516" lon="1.35589">
        <ele>259</ele>
        <time>2019-04-14T08:42:16Z</time>
      </trkpt>
      <trkpt lat="44.42518" lon="1.3559">
        <ele>259</ele>
        <time>2019-04-14T08:42:17Z</time>
      </trkpt>
      <trkpt lat="44.4252" lon="1.3559">
        <ele>259</ele>
        <time>2019-04-14T08:42:18Z</time>
      </trkpt>
      <trkpt lat="44.42522" lon="1.35589">
        <ele>259</ele>
        <time>2019-04-14T08:42:19Z</time>
      </trkpt>
      <trkpt lat="44.42526" lon="1.35588">
        <ele>259</ele>
        <time>2019-04-14T08:42:20Z</time>
      </trkpt>
      <trkpt lat="44.4253" lon="1.35587">
        <ele>259</ele>
        <time>2019-04-14T08:42:21Z</time>
      </trkpt>
      <trkpt lat="44.42533" lon="1.35587">
        <ele>259</ele>
        <time>2019-04-14T08:42:22Z</time>
      </trkpt>
      <trkpt lat="44.42536" lon="1.35586">
        <ele>259</ele>
        <time>2019-04-14T08:42:23Z</time>
      </trkpt>
      <trkpt lat="44.42538" lon="1.35585">
        <ele>259</ele>
        <time>2019-04-14T08:42:24Z</time>
      </trkpt>
      <trkpt lat="44.4254" lon="1.35585">
        <ele>259</ele>
        <time>2019-04-14T08:42:25Z</time>
      </trkpt>
      <trkpt lat="44.42541" lon="1.35584">
        <ele>259</ele>
        <time>2019-04-14T08:42:26Z</time>
      </trkpt>
      <trkpt lat="44.42542" lon="1.35584">
        <ele>259</ele>
        <time>2019-04-14T08:42:27Z</time>
      </trkpt>
      <trkpt lat="44.42544" lon="1.35584">
        <ele>259</ele>
        <time>2019-04-14T08:42:28Z</time>
      </trkpt>
      <trkpt lat="44.42546" lon="1.35583">
        <ele>259</ele>
        <time>2019-04-14T08:42:29Z</time>
      </trkpt>
      <trkpt lat="44.42549" lon="1.35583">
        <ele>259</ele>
        <time>2019-04-14T08:42:30Z</time>
      </trkpt>
      <trkpt lat="44.42551" lon="1.3558">
        <ele>258</ele>
        <time>2019-04-14T08:42:31Z</time>
      </trkpt>
      <trkpt lat="44.42553" lon="1.35577">
        <ele>258</ele>
        <time>2019-04-14T08:42:32Z</time>
      </trkpt>
      <trkpt lat="44.42554" lon="1.35573">
        <ele>258</ele>
        <time>2019-04-14T08:42:33Z</time>
      </trkpt>
      <trkpt lat="44.42556" lon="1.3557">
        <ele>257</ele>
        <time>2019-04-14T08:42:34Z</time>
      </trkpt>
      <trkpt lat="44.42559" lon="1.35567">
        <ele>257</ele>
        <time>2019-04-14T08:42:35Z</time>
      </trkpt>
      <trkpt lat="44.42562" lon="1.35564">
        <ele>256</ele>
        <time>2019-04-14T08:42:36Z</time>
      </trkpt>
      <trkpt lat="44.42565" lon="1.35561">
        <ele>256</ele>
        <time>2019-04-14T08:42:37Z</time>
      </trkpt>
      <trkpt lat="44.42567" lon="1.35559">
        <ele>255</ele>
        <time>2019-04-14T08:42:38Z</time>
      </trkpt>
      <trkpt lat="44.4257" lon="1.35557">
        <ele>255</ele>
        <time>2019-04-14T08:42:39Z</time>
      </trkpt>
      <trkpt lat="44.42572" lon="1.35556">
        <ele>255</ele>
        <time>2019-04-14T08:42:40Z</time>
      </trkpt>
      <trkpt lat="44.42575" lon="1.35555">
        <ele>255</ele>
        <time>2019-04-14T08:42:41Z</time>
      </trkpt>
      <trkpt lat="44.42578" lon="1.35554">
        <ele>254</ele>
        <time>2019-04-14T08:42:42Z</time>
      </trkpt>
      <trkpt lat="44.42582" lon="1.35553">
        <ele>254</ele>
        <time>2019-04-14T08:42:43Z</time>
      </trkpt>
      <trkpt lat="44.42586" lon="1.35552">
        <ele>254</ele>
        <time>2019-04-14T08:42:44Z</time>
      </trkpt>
      <trkpt lat="44.42589" lon="1.35552">
        <ele>254</ele>
        <time>2019-04-14T08:42:45Z</time>
      </trkpt>
      <trkpt lat="44.42592" lon="1.35551">
        <ele>254</ele>
        <time>2019-04-14T08:42:46Z</time>
      </trkpt>
      <trkpt lat="44.42594" lon="1.35551">
        <ele>254</ele>
        <time>2019-04-14T08:42:47Z</time>
      </trkpt>
      <trkpt lat="44.42597" lon="1.35552">
        <ele>254</ele>
        <time>2019-04-14T08:42:48Z</time>
      </trkpt>
      <trkpt lat="44.426" lon="1.35552">
        <ele>254</ele>
        <time>2019-04-14T08:42:49Z</time>
      </trkpt>
      <trkpt lat="44.42602" lon="1.35551">
        <ele>254</ele>
        <time>2019-04-14T08:42:50Z</time>
      </trkpt>
      <trkpt lat="44.42604" lon="1.35549">
        <ele>254</ele>
        <time>2019-04-14T08:42:51Z</time>
      </trkpt>
      <trkpt lat="44.42607" lon="1.35549">
        <ele>254</ele>
        <time>2019-04-14T08:42:52Z</time>
      </trkpt>
      <trkpt lat="44.4261" lon="1.35549">
        <ele>254</ele>
        <time>2019-04-14T08:42:53Z</time>
      </trkpt>
      <trkpt lat="44.42612" lon="1.3555">
        <ele>254</ele>
        <time>2019-04-14T08:42:54Z</time>
      </trkpt>
      <trkpt lat="44.42614" lon="1.35549">
        <ele>254</ele>
        <time>2019-04-14T08:42:55Z</time>
      </trkpt>
      <trkpt lat="44.42615" lon="1.35549">
        <ele>253</ele>
        <time>2019-04-14T08:42:56Z</time>
      </trkpt>
      <trkpt lat="44.42619" lon="1.3555">
        <ele>253</ele>
        <time>2019-04-14T08:42:57Z</time>
      </trkpt>
      <trkpt lat="44.42622" lon="1.35552">
        <ele>253</ele>
        <time>2019-04-14T08:42:58Z</time>
      </trkpt>
      <trkpt lat="44.42625" lon="1.35553">
        <ele>253</ele>
        <time>2019-04-14T08:42:59Z</time>
      </trkpt>
      <trkpt lat="44.42627" lon="1.35556">
        <ele>253</ele>
        <time>2019-04-14T08:43:00Z</time>
      </trkpt>
      <trkpt lat="44.4263" lon="1.35559">
        <ele>254</ele>
        <time>2019-04-14T08:43:01Z</time>
      </trkpt>
      <trkpt lat="44.42632" lon="1.35563">
        <ele>254</ele>
        <time>2019-04-14T08:43:02Z</time>
      </trkpt>
      <trkpt lat="44.42633" lon="1.35566">
        <ele>254</ele>
        <time>2019-04-14T08:43:03Z</time>
      </trkpt>
      <trkpt lat="44.42635" lon="1.3557">
        <ele>255</ele>
        <time>2019-04-14T08:43:04Z</time>
      </trkpt>
      <trkpt lat="44.42636" lon="1.35573">
        <ele>255</ele>
        <time>2019-04-14T08:43:05Z</time>
      </trkpt>
      <trkpt lat="44.42638" lon="1.35576">
        <ele>255</ele>
        <time>2019-04-14T08:43:06Z</time>
      </trkpt>
      <trkpt lat="44.42639" lon="1.35579">
        <ele>255</ele>
        <time>2019-04-14T08:43:07Z</time>
      </trkpt>
      <trkpt lat="44.42641" lon="1.35581">
        <ele>255</ele>
        <time>2019-04-14T08:43:08Z</time>
      </trkpt>
      <trkpt lat="44.42641" lon="1.35582">
        <ele>255</ele>
        <time>2019-04-14T08:43:09Z</time>
      </trkpt>
      <trkpt lat="44.42642" lon="1.35582">
        <ele>256</ele>
        <time>2019-04-14T08:43:10Z</time>
      </trkpt>
      <trkpt lat="44.42644" lon="1.35583">
        <ele>255</ele>
        <time>2019-04-14T08:43:11Z</time>
      </trkpt>
      <trkpt lat="44.42646" lon="1.35586">
        <ele>255</ele>
        <time>2019-04-14T08:43:12Z</time>
      </trkpt>
      <trkpt lat="44.42647" lon="1.35588">
        <ele>256</ele>
        <time>2019-04-14T08:43:13Z</time>
      </trkpt>
      <trkpt lat="44.42647" lon="1.3559">
        <ele>256</ele>
        <time>2019-04-14T08:43:14Z</time>
      </trkpt>
      <trkpt lat="44.42648" lon="1.35589">
        <ele>255</ele>
        <time>2019-04-14T08:43:15Z</time>
      </trkpt>
      <trkpt lat="44.42651" lon="1.35587">
        <ele>255</ele>
        <time>2019-04-14T08:43:16Z</time>
      </trkpt>
      <trkpt lat="44.42655" lon="1.35584">
        <ele>255</ele>
        <time>2019-04-14T08:43:17Z</time>
      </trkpt>
      <trkpt lat="44.42658" lon="1.35583">
        <ele>254</ele>
        <time>2019-04-14T08:43:18Z</time>
      </trkpt>
      <trkpt lat="44.42661" lon="1.35583">
        <ele>254</ele>
        <time>2019-04-14T08:43:19Z</time>
      </trkpt>
      <trkpt lat="44.42665" lon="1.35582">
        <ele>254</ele>
        <time>2019-04-14T08:43:20Z</time>
      </trkpt>
      <trkpt lat="44.42669" lon="1.35581">
        <ele>253</ele>
        <time>2019-04-14T08:43:21Z</time>
      </trkpt>
      <trkpt lat="44.42671" lon="1.35582">
        <ele>252</ele>
        <time>2019-04-14T08:43:22Z</time>
      </trkpt>
      <trkpt lat="44.42674" lon="1.35582">
        <ele>252</ele>
        <time>2019-04-14T08:43:23Z</time>
      </trkpt>
      <trkpt lat="44.42678" lon="1.35582">
        <ele>252</ele>
        <time>2019-04-14T08:43:24Z</time>
      </trkpt>
      <trkpt lat="44.42681" lon="1.35581">
        <ele>251</ele>
        <time>2019-04-14T08:43:25Z</time>
      </trkpt>
      <trkpt lat="44.42686" lon="1.35581">
        <ele>251</ele>
        <time>2019-04-14T08:43:26Z</time>
      </trkpt>
      <trkpt lat="44.4269" lon="1.35582">
        <ele>251</ele>
        <time>2019-04-14T08:43:27Z</time>
      </trkpt>
      <trkpt lat="44.42695" lon="1.35584">
        <ele>250</ele>
        <time>2019-04-14T08:43:28Z</time>
      </trkpt>
      <trkpt lat="44.42698" lon="1.35585">
        <ele>250</ele>
        <time>2019-04-14T08:43:29Z</time>
      </trkpt>
      <trkpt lat="44.427" lon="1.35587">
        <ele>250</ele>
        <time>2019-04-14T08:43:30Z</time>
      </trkpt>
      <trkpt lat="44.42704" lon="1.3559">
        <ele>249</ele>
        <time>2019-04-14T08:43:31Z</time>
      </trkpt>
      <trkpt lat="44.42707" lon="1.3559">
        <ele>249</ele>
        <time>2019-04-14T08:43:32Z</time>
      </trkpt>
      <trkpt lat="44.42711" lon="1.3559">
        <ele>249</ele>
        <time>2019-04-14T08:43:33Z</time>
      </trkpt>
      <trkpt lat="44.42715" lon="1.3559">
        <ele>248</ele>
        <time>2019-04-14T08:43:34Z</time>
      </trkpt>
      <trkpt lat="44.42718" lon="1.35591">
        <ele>248</ele>
        <time>2019-04-14T08:43:35Z</time>
      </trkpt>
      <trkpt lat="44.42721" lon="1.35591">
        <ele>247</ele>
        <time>2019-04-14T08:43:36Z</time>
      </trkpt>
      <trkpt lat="44.42723" lon="1.35592">
        <ele>247</ele>
        <time>2019-04-14T08:43:37Z</time>
      </trkpt>
      <trkpt lat="44.42726" lon="1.35591">
        <ele>247</ele>
        <time>2019-04-14T08:43:38Z</time>
      </trkpt>
      <trkpt lat="44.42729" lon="1.35592">
        <ele>246</ele>
        <time>2019-04-14T08:43:39Z</time>
      </trkpt>
      <trkpt lat="44.4273" lon="1.35591">
        <ele>246</ele>
        <time>2019-04-14T08:43:40Z</time>
      </trkpt>
      <trkpt lat="44.42732" lon="1.35591">
        <ele>245</ele>
        <time>2019-04-14T08:43:41Z</time>
      </trkpt>
      <trkpt lat="44.42734" lon="1.35591">
        <ele>245</ele>
        <time>2019-04-14T08:43:42Z</time>
      </trkpt>
      <trkpt lat="44.42737" lon="1.35592">
        <ele>245</ele>
        <time>2019-04-14T08:43:43Z</time>
      </trkpt>
      <trkpt lat="44.42739" lon="1.35595">
        <ele>245</ele>
        <time>2019-04-14T08:43:44Z</time>
      </trkpt>
      <trkpt lat="44.4274" lon="1.35598">
        <ele>245</ele>
        <time>2019-04-14T08:43:45Z</time>
      </trkpt>
      <trkpt lat="44.42741" lon="1.35601">
        <ele>245</ele>
        <time>2019-04-14T08:43:46Z</time>
      </trkpt>
      <trkpt lat="44.42743" lon="1.35604">
        <ele>245</ele>
        <time>2019-04-14T08:43:47Z</time>
      </trkpt>
      <trkpt lat="44.42744" lon="1.35607">
        <ele>245</ele>
        <time>2019-04-14T08:43:48Z</time>
      </trkpt>
      <trkpt lat="44.42746" lon="1.3561">
        <ele>246</ele>
        <time>2019-04-14T08:43:49Z</time>
      </trkpt>
      <trkpt lat="44.42747" lon="1.35612">
        <ele>246</ele>
        <time>2019-04-14T08:43:50Z</time>
      </trkpt>
      <trkpt lat="44.42748" lon="1.35612">
        <ele>245</ele>
        <time>2019-04-14T08:43:51Z</time>
      </trkpt>
      <trkpt lat="44.42749" lon="1.35611">
        <ele>245</ele>
        <time>2019-04-14T08:43:52Z</time>
      </trkpt>
      <trkpt lat="44.42751" lon="1.35609">
        <ele>245</ele>
        <time>2019-04-14T08:43:53Z</time>
      </trkpt>
      <trkpt lat="44.42753" lon="1.35609">
        <ele>245</ele>
        <time>2019-04-14T08:43:54Z</time>
      </trkpt>
      <trkpt lat="44.42755" lon="1.35611">
        <ele>244</ele>
        <time>2019-04-14T08:43:55Z</time>
      </trkpt>
      <trkpt lat="44.42756" lon="1.3561">
        <ele>244</ele>
        <time>2019-04-14T08:43:56Z</time>
      </trkpt>
      <trkpt lat="44.42757" lon="1.35608">
        <ele>244</ele>
        <time>2019-04-14T08:43:57Z</time>
      </trkpt>
      <trkpt lat="44.42759" lon="1.35606">
        <ele>243</ele>
        <time>2019-04-14T08:43:58Z</time>
      </trkpt>
      <trkpt lat="44.42761" lon="1.35605">
        <ele>243</ele>
        <time>2019-04-14T08:43:59Z</time>
      </trkpt>
      <trkpt lat="44.42763" lon="1.35605">
        <ele>243</ele>
        <time>2019-04-14T08:44:00Z</time>
      </trkpt>
      <trkpt lat="44.42766" lon="1.35606">
        <ele>243</ele>
        <time>2019-04-14T08:44:01Z</time>
      </trkpt>
      <trkpt lat="44.42769" lon="1.35607">
        <ele>243</ele>
        <time>2019-04-14T08:44:02Z</time>
      </trkpt>
      <trkpt lat="44.42772" lon="1.35608">
        <ele>242</ele>
        <time>2019-04-14T08:44:03Z</time>
      </trkpt>
      <trkpt lat="44.42775" lon="1.35609">
        <ele>242</ele>
        <time>2019-04-14T08:44:04Z</time>
      </trkpt>
      <trkpt lat="44.42777" lon="1.35609">
        <ele>242</ele>
        <time>2019-04-14T08:44:05Z</time>
      </trkpt>
      <trkpt lat="44.4278" lon="1.35608">
        <ele>242</ele>
        <time>2019-04-14T08:44:06Z</time>
      </trkpt>
      <trkpt lat="44.42785" lon="1.35608">
        <ele>242</ele>
        <time>2019-04-14T08:44:07Z</time>
      </trkpt>
      <trkpt lat="44.42789" lon="1.35607">
        <ele>241</ele>
        <time>2019-04-14T08:44:08Z</time>
      </trkpt>
      <trkpt lat="44.42793" lon="1.35605">
        <ele>241</ele>
        <time>2019-04-14T08:44:09Z</time>
      </trkpt>
      <trkpt lat="44.42797" lon="1.35604">
        <ele>241</ele>
        <time>2019-04-14T08:44:10Z</time>
      </trkpt>
      <trkpt lat="44.428" lon="1.35603">
        <ele>241</ele>
        <time>2019-04-14T08:44:11Z</time>
      </trkpt>
      <trkpt lat="44.42803" lon="1.356">
        <ele>240</ele>
        <time>2019-04-14T08:44:12Z</time>
      </trkpt>
      <trkpt lat="44.42806" lon="1.35598">
        <ele>240</ele>
        <time>2019-04-14T08:44:13Z</time>
      </trkpt>
      <trkpt lat="44.42808" lon="1.35596">
        <ele>240</ele>
        <time>2019-04-14T08:44:14Z</time>
      </trkpt>
      <trkpt lat="44.42811" lon="1.35594">
        <ele>239</ele>
        <time>2019-04-14T08:44:15Z</time>
      </trkpt>
      <trkpt lat="44.42815" lon="1.35593">
        <ele>239</ele>
        <time>2019-04-14T08:44:16Z</time>
      </trkpt>
      <trkpt lat="44.4282" lon="1.35592">
        <ele>239</ele>
        <time>2019-04-14T08:44:17Z</time>
      </trkpt>
      <trkpt lat="44.42823" lon="1.35592">
        <ele>238</ele>
        <time>2019-04-14T08:44:18Z</time>
      </trkpt>
      <trkpt lat="44.42827" lon="1.35592">
        <ele>238</ele>
        <time>2019-04-14T08:44:19Z</time>
      </trkpt>
      <trkpt lat="44.4283" lon="1.35592">
        <ele>238</ele>
        <time>2019-04-14T08:44:20Z</time>
      </trkpt>
      <trkpt lat="44.42832" lon="1.35593">
        <ele>238</ele>
        <time>2019-04-14T08:44:21Z</time>
      </trkpt>
      <trkpt lat="44.42834" lon="1.35596">
        <ele>238</ele>
        <time>2019-04-14T08:44:22Z</time>
      </trkpt>
      <trkpt lat="44.42835" lon="1.35598">
        <ele>239</ele>
        <time>2019-04-14T08:44:23Z</time>
      </trkpt>
      <trkpt lat="44.42836" lon="1.356">
        <ele>239</ele>
        <time>2019-04-14T08:44:24Z</time>
      </trkpt>
      <trkpt lat="44.42838" lon="1.35601">
        <ele>239</ele>
        <time>2019-04-14T08:44:25Z</time>
      </trkpt>
      <trkpt lat="44.4284" lon="1.35603">
        <ele>239</ele>
        <time>2019-04-14T08:44:26Z</time>
      </trkpt>
      <trkpt lat="44.42843" lon="1.35605">
        <ele>240</ele>
        <time>2019-04-14T08:44:27Z</time>
      </trkpt>
      <trkpt lat="44.42845" lon="1.35608">
        <ele>240</ele>
        <time>2019-04-14T08:44:28Z</time>
      </trkpt>
      <trkpt lat="44.42847" lon="1.35611">
        <ele>240</ele>
        <time>2019-04-14T08:44:29Z</time>
      </trkpt>
      <trkpt lat="44.42849" lon="1.35614">
        <ele>240</ele>
        <time>2019-04-14T08:44:30Z</time>
      </trkpt>
      <trkpt lat="44.42853" lon="1.35614">
        <ele>241</ele>
        <time>2019-04-14T08:44:31Z</time>
      </trkpt>
      <trkpt lat="44.42854" lon="1.35613">
        <ele>241</ele>
        <time>2019-04-14T08:44:32Z</time>
      </trkpt>
      <trkpt lat="44.42858" lon="1.35612">
        <ele>240</ele>
        <time>2019-04-14T08:44:33Z</time>
      </trkpt>
      <trkpt lat="44.42861" lon="1.35613">
        <ele>240</ele>
        <time>2019-04-14T08:44:34Z</time>
      </trkpt>
      <trkpt lat="44.42865" lon="1.35614">
        <ele>240</ele>
        <time>2019-04-14T08:44:35Z</time>
      </trkpt>
      <trkpt lat="44.42868" lon="1.35613">
        <ele>240</ele>
        <time>2019-04-14T08:44:36Z</time>
      </trkpt>
      <trkpt lat="44.42872" lon="1.35611">
        <ele>240</ele>
        <time>2019-04-14T08:44:37Z</time>
      </trkpt>
      <trkpt lat="44.42875" lon="1.35609">
        <ele>240</ele>
        <time>2019-04-14T08:44:38Z</time>
      </trkpt>
      <trkpt lat="44.42878" lon="1.35606">
        <ele>240</ele>
        <time>2019-04-14T08:44:39Z</time>
      </trkpt>
      <trkpt lat="44.4288" lon="1.35604">
        <ele>239</ele>
        <time>2019-04-14T08:44:40Z</time>
      </trkpt>
      <trkpt lat="44.42881" lon="1.35604">
        <ele>239</ele>
        <time>2019-04-14T08:44:41Z</time>
      </trkpt>
      <trkpt lat="44.42882" lon="1.35604">
        <ele>239</ele>
        <time>2019-04-14T08:44:42Z</time>
      </trkpt>
      <trkpt lat="44.42882" lon="1.35604">
        <ele>239</ele>
        <time>2019-04-14T08:44:43Z</time>
      </trkpt>
      <trkpt lat="44.42882" lon="1.35604">
        <ele>239</ele>
        <time>2019-04-14T08:44:44Z</time>
      </trkpt>
      <trkpt lat="44.42882" lon="1.35604">
        <ele>239</ele>
        <time>2019-04-14T08:44:45Z</time>
      </trkpt>
      <trkpt lat="44.42883" lon="1.35604">
        <ele>239</ele>
        <time>2019-04-14T08:44:46Z</time>
      </trkpt>
      <trkpt lat="44.42883" lon="1.35605">
        <ele>239</ele>
        <time>2019-04-14T08:44:47Z</time>
      </trkpt>
      <trkpt lat="44.42883" lon="1.35605">
        <ele>239</ele>
        <time>2019-04-14T08:44:48Z</time>
      </trkpt>
      <trkpt lat="44.42906" lon="1.35594">
        <ele>237</ele>
        <time>2019-04-14T08:45:14Z</time>
      </trkpt>
      <trkpt lat="44.42906" lon="1.35594">
        <ele>237</ele>
        <time>2019-04-14T08:45:15Z</time>
      </trkpt>
      <trkpt lat="44.42907" lon="1.35594">
        <ele>237</ele>
        <time>2019-04-14T08:45:16Z</time>
      </trkpt>
      <trkpt lat="44.42907" lon="1.35594">
        <ele>237</ele>
        <time>2019-04-14T08:45:17Z</time>
      </trkpt>
      <trkpt lat="44.42908" lon="1.35594">
        <ele>237</ele>
        <time>2019-04-14T08:45:18Z</time>
      </trkpt>
      <trkpt lat="44.42908" lon="1.35594">
        <ele>237</ele>
        <time>2019-04-14T08:45:19Z</time>
      </trkpt>
      <trkpt lat="44.42908" lon="1.35595">
        <ele>237</ele>
        <time>2019-04-14T08:45:20Z</time>
      </trkpt>
      <trkpt lat="44.42935" lon="1.35573">
        <ele>234</ele>
        <time>2019-04-14T08:46:08Z</time>
      </trkpt>
      <trkpt lat="44.42937" lon="1.3557">
        <ele>233</ele>
        <time>2019-04-14T08:46:09Z</time>
      </trkpt>
      <trkpt lat="44.4294" lon="1.35567">
        <ele>233</ele>
        <time>2019-04-14T08:46:10Z</time>
      </trkpt>
      <trkpt lat="44.42943" lon="1.35564">
        <ele>232</ele>
        <time>2019-04-14T08:46:11Z</time>
      </trkpt>
      <trkpt lat="44.42946" lon="1.35561">
        <ele>232</ele>
        <time>2019-04-14T08:46:12Z</time>
      </trkpt>
      <trkpt lat="44.4295" lon="1.35558">
        <ele>231</ele>
        <time>2019-04-14T08:46:13Z</time>
      </trkpt>
      <trkpt lat="44.42953" lon="1.35556">
        <ele>231</ele>
        <time>2019-04-14T08:46:14Z</time>
      </trkpt>
      <trkpt lat="44.42957" lon="1.35553">
        <ele>230</ele>
        <time>2019-04-14T08:46:15Z</time>
      </trkpt>
      <trkpt lat="44.42961" lon="1.35551">
        <ele>230</ele>
        <time>2019-04-14T08:46:16Z</time>
      </trkpt>
      <trkpt lat="44.42966" lon="1.35548">
        <ele>230</ele>
        <time>2019-04-14T08:46:17Z</time>
      </trkpt>
      <trkpt lat="44.4297" lon="1.35546">
        <ele>230</ele>
        <time>2019-04-14T08:46:18Z</time>
      </trkpt>
      <trkpt lat="44.42974" lon="1.35544">
        <ele>230</ele>
        <time>2019-04-14T08:46:19Z</time>
      </trkpt>
      <trkpt lat="44.42976" lon="1.35542">
        <ele>230</ele>
        <time>2019-04-14T08:46:20Z</time>
      </trkpt>
      <trkpt lat="44.4298" lon="1.35541">
        <ele>230</ele>
        <time>2019-04-14T08:46:21Z</time>
      </trkpt>
      <trkpt lat="44.42983" lon="1.35539">
        <ele>230</ele>
        <time>2019-04-14T08:46:22Z</time>
      </trkpt>
      <trkpt lat="44.42986" lon="1.35538">
        <ele>230</ele>
        <time>2019-04-14T08:46:23Z</time>
      </trkpt>
      <trkpt lat="44.42989" lon="1.35537">
        <ele>230</ele>
        <time>2019-04-14T08:46:24Z</time>
      </trkpt>
      <trkpt lat="44.42992" lon="1.35537">
        <ele>231</ele>
        <time>2019-04-14T08:46:25Z</time>
      </trkpt>
      <trkpt lat="44.42995" lon="1.35537">
        <ele>231</ele>
        <time>2019-04-14T08:46:26Z</time>
      </trkpt>
      <trkpt lat="44.42997" lon="1.35536">
        <ele>231</ele>
        <time>2019-04-14T08:46:27Z</time>
      </trkpt>
      <trkpt lat="44.42998" lon="1.35535">
        <ele>231</ele>
        <time>2019-04-14T08:46:28Z</time>
      </trkpt>
      <trkpt lat="44.43" lon="1.35533">
        <ele>231</ele>
        <time>2019-04-14T08:46:29Z</time>
      </trkpt>
      <trkpt lat="44.43002" lon="1.35528">
        <ele>231</ele>
        <time>2019-04-14T08:46:30Z</time>
      </trkpt>
      <trkpt lat="44.43005" lon="1.35524">
        <ele>231</ele>
        <time>2019-04-14T08:46:31Z</time>
      </trkpt>
      <trkpt lat="44.43009" lon="1.35522">
        <ele>231</ele>
        <time>2019-04-14T08:46:32Z</time>
      </trkpt>
      <trkpt lat="44.43012" lon="1.35519">
        <ele>231</ele>
        <time>2019-04-14T08:46:33Z</time>
      </trkpt>
      <trkpt lat="44.43015" lon="1.35518">
        <ele>231</ele>
        <time>2019-04-14T08:46:34Z</time>
      </trkpt>
      <trkpt lat="44.43018" lon="1.35516">
        <ele>231</ele>
        <time>2019-04-14T08:46:35Z</time>
      </trkpt>
      <trkpt lat="44.4302" lon="1.35514">
        <ele>232</ele>
        <time>2019-04-14T08:46:36Z</time>
      </trkpt>
      <trkpt lat="44.43023" lon="1.35512">
        <ele>232</ele>
        <time>2019-04-14T08:46:37Z</time>
      </trkpt>
      <trkpt lat="44.43026" lon="1.35511">
        <ele>232</ele>
        <time>2019-04-14T08:46:38Z</time>
      </trkpt>
      <trkpt lat="44.43029" lon="1.3551">
        <ele>233</ele>
        <time>2019-04-14T08:46:39Z</time>
      </trkpt>
      <trkpt lat="44.43032" lon="1.35509">
        <ele>233</ele>
        <time>2019-04-14T08:46:40Z</time>
      </trkpt>
      <trkpt lat="44.43034" lon="1.35509">
        <ele>234</ele>
        <time>2019-04-14T08:46:41Z</time>
      </trkpt>
      <trkpt lat="44.43037" lon="1.35509">
        <ele>234</ele>
        <time>2019-04-14T08:46:42Z</time>
      </trkpt>
      <trkpt lat="44.43039" lon="1.35508">
        <ele>234</ele>
        <time>2019-04-14T08:46:43Z</time>
      </trkpt>
      <trkpt lat="44.43041" lon="1.35508">
        <ele>235</ele>
        <time>2019-04-14T08:46:44Z</time>
      </trkpt>
      <trkpt lat="44.43044" lon="1.35506">
        <ele>235</ele>
        <time>2019-04-14T08:46:45Z</time>
      </trkpt>
      <trkpt lat="44.43046" lon="1.35505">
        <ele>235</ele>
        <time>2019-04-14T08:46:46Z</time>
      </trkpt>
      <trkpt lat="44.43047" lon="1.35503">
        <ele>236</ele>
        <time>2019-04-14T08:46:47Z</time>
      </trkpt>
      <trkpt lat="44.43048" lon="1.35501">
        <ele>236</ele>
        <time>2019-04-14T08:46:48Z</time>
      </trkpt>
      <trkpt lat="44.4305" lon="1.35499">
        <ele>236</ele>
        <time>2019-04-14T08:46:49Z</time>
      </trkpt>
      <trkpt lat="44.43052" lon="1.35499">
        <ele>237</ele>
        <time>2019-04-14T08:46:50Z</time>
      </trkpt>
      <trkpt lat="44.43054" lon="1.35499">
        <ele>237</ele>
        <time>2019-04-14T08:46:51Z</time>
      </trkpt>
      <trkpt lat="44.43056" lon="1.355">
        <ele>238</ele>
        <time>2019-04-14T08:46:52Z</time>
      </trkpt>
      <trkpt lat="44.43057" lon="1.35501">
        <ele>238</ele>
        <time>2019-04-14T08:46:53Z</time>
      </trkpt>
      <trkpt lat="44.43059" lon="1.35501">
        <ele>238</ele>
        <time>2019-04-14T08:46:54Z</time>
      </trkpt>
      <trkpt lat="44.43061" lon="1.35501">
        <ele>239</ele>
        <time>2019-04-14T08:46:55Z</time>
      </trkpt>
      <trkpt lat="44.43063" lon="1.35501">
        <ele>239</ele>
        <time>2019-04-14T08:46:56Z</time>
      </trkpt>
      <trkpt lat="44.43065" lon="1.35502">
        <ele>239</ele>
        <time>2019-04-14T08:46:57Z</time>
      </trkpt>
      <trkpt lat="44.43066" lon="1.35502">
        <ele>240</ele>
        <time>2019-04-14T08:46:58Z</time>
      </trkpt>
      <trkpt lat="44.43067" lon="1.35503">
        <ele>240</ele>
        <time>2019-04-14T08:46:59Z</time>
      </trkpt>
      <trkpt lat="44.43068" lon="1.35504">
        <ele>240</ele>
        <time>2019-04-14T08:47:00Z</time>
      </trkpt>
      <trkpt lat="44.43069" lon="1.35506">
        <ele>241</ele>
        <time>2019-04-14T08:47:01Z</time>
      </trkpt>
      <trkpt lat="44.43071" lon="1.35506">
        <ele>241</ele>
        <time>2019-04-14T08:47:02Z</time>
      </trkpt>
      <trkpt lat="44.43073" lon="1.35506">
        <ele>241</ele>
        <time>2019-04-14T08:47:03Z</time>
      </trkpt>
      <trkpt lat="44.43075" lon="1.35505">
        <ele>242</ele>
        <time>2019-04-14T08:47:04Z</time>
      </trkpt>
      <trkpt lat="44.43077" lon="1.35504">
        <ele>242</ele>
        <time>2019-04-14T08:47:05Z</time>
      </trkpt>
      <trkpt lat="44.43079" lon="1.35503">
        <ele>242</ele>
        <time>2019-04-14T08:47:06Z</time>
      </trkpt>
      <trkpt lat="44.43081" lon="1.35502">
        <ele>243</ele>
        <time>2019-04-14T08:47:07Z</time>
      </trkpt>
      <trkpt lat="44.43082" lon="1.35502">
        <ele>243</ele>
        <time>2019-04-14T08:47:08Z</time>
      </trkpt>
      <trkpt lat="44.43084" lon="1.35501">
        <ele>243</ele>
        <time>2019-04-14T08:47:09Z</time>
      </trkpt>
      <trkpt lat="44.43086" lon="1.355">
        <ele>244</ele>
        <time>2019-04-14T08:47:10Z</time>
      </trkpt>
      <trkpt lat="44.43088" lon="1.35499">
        <ele>244</ele>
        <time>2019-04-14T08:47:11Z</time>
      </trkpt>
      <trkpt lat="44.4309" lon="1.35499">
        <ele>244</ele>
        <time>2019-04-14T08:47:12Z</time>
      </trkpt>
      <trkpt lat="44.43092" lon="1.35499">
        <ele>245</ele>
        <time>2019-04-14T08:47:13Z</time>
      </trkpt>
      <trkpt lat="44.43093" lon="1.35499">
        <ele>245</ele>
        <time>2019-04-14T08:47:14Z</time>
      </trkpt>
      <trkpt lat="44.43095" lon="1.35499">
        <ele>245</ele>
        <time>2019-04-14T08:47:15Z</time>
      </trkpt>
      <trkpt lat="44.43097" lon="1.35499">
        <ele>246</ele>
        <time>2019-04-14T08:47:16Z</time>
      </trkpt>
      <trkpt lat="44.43098" lon="1.35499">
        <ele>246</ele>
        <time>2019-04-14T08:47:17Z</time>
      </trkpt>
      <trkpt lat="44.431" lon="1.35499">
        <ele>246</ele>
        <time>2019-04-14T08:47:18Z</time>
      </trkpt>
      <trkpt lat="44.431" lon="1.35498">
        <ele>246</ele>
        <time>2019-04-14T08:47:19Z</time>
      </trkpt>
      <trkpt lat="44.43102" lon="1.35498">
        <ele>247</ele>
        <time>2019-04-14T08:47:20Z</time>
      </trkpt>
      <trkpt lat="44.43103" lon="1.35499">
        <ele>247</ele>
        <time>2019-04-14T08:47:21Z</time>
      </trkpt>
      <trkpt lat="44.43105" lon="1.35499">
        <ele>247</ele>
        <time>2019-04-14T08:47:22Z</time>
      </trkpt>
      <trkpt lat="44.43107" lon="1.35498">
        <ele>247</ele>
        <time>2019-04-14T08:47:23Z</time>
      </trkpt>
      <trkpt lat="44.43108" lon="1.35496">
        <ele>247</ele>
        <time>2019-04-14T08:47:24Z</time>
      </trkpt>
      <trkpt lat="44.43109" lon="1.35494">
        <ele>248</ele>
        <time>2019-04-14T08:47:25Z</time>
      </trkpt>
      <trkpt lat="44.4311" lon="1.35493">
        <ele>248</ele>
        <time>2019-04-14T08:47:26Z</time>
      </trkpt>
      <trkpt lat="44.43111" lon="1.35492">
        <ele>248</ele>
        <time>2019-04-14T08:47:27Z</time>
      </trkpt>
      <trkpt lat="44.43111" lon="1.35489">
        <ele>248</ele>
        <time>2019-04-14T08:47:28Z</time>
      </trkpt>
      <trkpt lat="44.43112" lon="1.35486">
        <ele>248</ele>
        <time>2019-04-14T08:47:29Z</time>
      </trkpt>
      <trkpt lat="44.43112" lon="1.35483">
        <ele>248</ele>
        <time>2019-04-14T08:47:30Z</time>
      </trkpt>
      <trkpt lat="44.43112" lon="1.3548">
        <ele>248</ele>
        <time>2019-04-14T08:47:31Z</time>
      </trkpt>
      <trkpt lat="44.43111" lon="1.35476">
        <ele>247</ele>
        <time>2019-04-14T08:47:32Z</time>
      </trkpt>
      <trkpt lat="44.43111" lon="1.35472">
        <ele>247</ele>
        <time>2019-04-14T08:47:33Z</time>
      </trkpt>
      <trkpt lat="44.43113" lon="1.35468">
        <ele>246</ele>
        <time>2019-04-14T08:47:34Z</time>
      </trkpt>
      <trkpt lat="44.43114" lon="1.35464">
        <ele>246</ele>
        <time>2019-04-14T08:47:35Z</time>
      </trkpt>
      <trkpt lat="44.43116" lon="1.35461">
        <ele>246</ele>
        <time>2019-04-14T08:47:36Z</time>
      </trkpt>
      <trkpt lat="44.43118" lon="1.35459">
        <ele>246</ele>
        <time>2019-04-14T08:47:37Z</time>
      </trkpt>
      <trkpt lat="44.43119" lon="1.35454">
        <ele>246</ele>
        <time>2019-04-14T08:47:38Z</time>
      </trkpt>
      <trkpt lat="44.43119" lon="1.35449">
        <ele>245</ele>
        <time>2019-04-14T08:47:39Z</time>
      </trkpt>
      <trkpt lat="44.4312" lon="1.35443">
        <ele>244</ele>
        <time>2019-04-14T08:47:40Z</time>
      </trkpt>
      <trkpt lat="44.43122" lon="1.35437">
        <ele>243</ele>
        <time>2019-04-14T08:47:41Z</time>
      </trkpt>
      <trkpt lat="44.43125" lon="1.35432">
        <ele>242</ele>
        <time>2019-04-14T08:47:42Z</time>
      </trkpt>
      <trkpt lat="44.43128" lon="1.35427">
        <ele>242</ele>
        <time>2019-04-14T08:47:43Z</time>
      </trkpt>
      <trkpt lat="44.43134" lon="1.35426">
        <ele>242</ele>
        <time>2019-04-14T08:47:44Z</time>
      </trkpt>
      <trkpt lat="44.43138" lon="1.35423">
        <ele>241</ele>
        <time>2019-04-14T08:47:45Z</time>
      </trkpt>
      <trkpt lat="44.43142" lon="1.35421">
        <ele>241</ele>
        <time>2019-04-14T08:47:46Z</time>
      </trkpt>
      <trkpt lat="44.43145" lon="1.3542">
        <ele>241</ele>
        <time>2019-04-14T08:47:47Z</time>
      </trkpt>
      <trkpt lat="44.43147" lon="1.3542">
        <ele>241</ele>
        <time>2019-04-14T08:47:48Z</time>
      </trkpt>
      <trkpt lat="44.4315" lon="1.35422">
        <ele>242</ele>
        <time>2019-04-14T08:47:49Z</time>
      </trkpt>
      <trkpt lat="44.43151" lon="1.35423">
        <ele>242</ele>
        <time>2019-04-14T08:47:50Z</time>
      </trkpt>
      <trkpt lat="44.43153" lon="1.35424">
        <ele>243</ele>
        <time>2019-04-14T08:47:51Z</time>
      </trkpt>
      <trkpt lat="44.43155" lon="1.35424">
        <ele>244</ele>
        <time>2019-04-14T08:47:52Z</time>
      </trkpt>
      <trkpt lat="44.43157" lon="1.35422">
        <ele>244</ele>
        <time>2019-04-14T08:47:53Z</time>
      </trkpt>
      <trkpt lat="44.4316" lon="1.35421">
        <ele>243</ele>
        <time>2019-04-14T08:47:54Z</time>
      </trkpt>
      <trkpt lat="44.43163" lon="1.35418">
        <ele>243</ele>
        <time>2019-04-14T08:47:55Z</time>
      </trkpt>
      <trkpt lat="44.43166" lon="1.35415">
        <ele>243</ele>
        <time>2019-04-14T08:47:56Z</time>
      </trkpt>
      <trkpt lat="44.4317" lon="1.35413">
        <ele>242</ele>
        <time>2019-04-14T08:47:57Z</time>
      </trkpt>
      <trkpt lat="44.43174" lon="1.35411">
        <ele>242</ele>
        <time>2019-04-14T08:47:58Z</time>
      </trkpt>
      <trkpt lat="44.43177" lon="1.35409">
        <ele>242</ele>
        <time>2019-04-14T08:47:59Z</time>
      </trkpt>
      <trkpt lat="44.4318" lon="1.35407">
        <ele>241</ele>
        <time>2019-04-14T08:48:00Z</time>
      </trkpt>
      <trkpt lat="44.43184" lon="1.35406">
        <ele>241</ele>
        <time>2019-04-14T08:48:01Z</time>
      </trkpt>
      <trkpt lat="44.43188" lon="1.35406">
        <ele>241</ele>
        <time>2019-04-14T08:48:02Z</time>
      </trkpt>
      <trkpt lat="44.43192" lon="1.35406">
        <ele>241</ele>
        <time>2019-04-14T08:48:03Z</time>
      </trkpt>
      <trkpt lat="44.43197" lon="1.35407">
        <ele>241</ele>
        <time>2019-04-14T08:48:04Z</time>
      </trkpt>
      <trkpt lat="44.432" lon="1.35409">
        <ele>241</ele>
        <time>2019-04-14T08:48:05Z</time>
      </trkpt>
      <trkpt lat="44.43202" lon="1.35411">
        <ele>241</ele>
        <time>2019-04-14T08:48:06Z</time>
      </trkpt>
      <trkpt lat="44.43204" lon="1.35413">
        <ele>241</ele>
        <time>2019-04-14T08:48:07Z</time>
      </trkpt>
      <trkpt lat="44.43206" lon="1.35415">
        <ele>241</ele>
        <time>2019-04-14T08:48:08Z</time>
      </trkpt>
      <trkpt lat="44.43208" lon="1.35418">
        <ele>241</ele>
        <time>2019-04-14T08:48:09Z</time>
      </trkpt>
      <trkpt lat="44.4321" lon="1.35421">
        <ele>240</ele>
        <time>2019-04-14T08:48:10Z</time>
      </trkpt>
      <trkpt lat="44.43212" lon="1.35424">
        <ele>240</ele>
        <time>2019-04-14T08:48:11Z</time>
      </trkpt>
      <trkpt lat="44.43216" lon="1.35426">
        <ele>240</ele>
        <time>2019-04-14T08:48:12Z</time>
      </trkpt>
      <trkpt lat="44.43219" lon="1.35428">
        <ele>240</ele>
        <time>2019-04-14T08:48:13Z</time>
      </trkpt>
      <trkpt lat="44.43224" lon="1.3543">
        <ele>239</ele>
        <time>2019-04-14T08:48:14Z</time>
      </trkpt>
      <trkpt lat="44.43228" lon="1.35434">
        <ele>239</ele>
        <time>2019-04-14T08:48:15Z</time>
      </trkpt>
      <trkpt lat="44.43231" lon="1.35437">
        <ele>239</ele>
        <time>2019-04-14T08:48:16Z</time>
      </trkpt>
      <trkpt lat="44.43233" lon="1.35439">
        <ele>239</ele>
        <time>2019-04-14T08:48:17Z</time>
      </trkpt>
      <trkpt lat="44.43235" lon="1.3544">
        <ele>239</ele>
        <time>2019-04-14T08:48:18Z</time>
      </trkpt>
      <trkpt lat="44.43238" lon="1.35441">
        <ele>239</ele>
        <time>2019-04-14T08:48:19Z</time>
      </trkpt>
      <trkpt lat="44.43239" lon="1.35441">
        <ele>239</ele>
        <time>2019-04-14T08:48:20Z</time>
      </trkpt>
      <trkpt lat="44.43239" lon="1.35442">
        <ele>239</ele>
        <time>2019-04-14T08:48:21Z</time>
      </trkpt>
      <trkpt lat="44.43239" lon="1.35442">
        <ele>239</ele>
        <time>2019-04-14T08:48:22Z</time>
      </trkpt>
      <trkpt lat="44.4324" lon="1.35442">
        <ele>239</ele>
        <time>2019-04-14T08:48:23Z</time>
      </trkpt>
      <trkpt lat="44.4324" lon="1.35442">
        <ele>239</ele>
        <time>2019-04-14T08:48:24Z</time>
      </trkpt>
      <trkpt lat="44.43241" lon="1.35442">
        <ele>239</ele>
        <time>2019-04-14T08:48:25Z</time>
      </trkpt>
      <trkpt lat="44.43241" lon="1.35443">
        <ele>239</ele>
        <time>2019-04-14T08:48:26Z</time>
      </trkpt>
      <trkpt lat="44.43242" lon="1.35443">
        <ele>239</ele>
        <time>2019-04-14T08:48:27Z</time>
      </trkpt>
      <trkpt lat="44.43257" lon="1.35459">
        <ele>242</ele>
        <time>2019-04-14T08:52:38Z</time>
      </trkpt>
      <trkpt lat="44.43258" lon="1.3546">
        <ele>242</ele>
        <time>2019-04-14T08:52:39Z</time>
      </trkpt>
      <trkpt lat="44.4326" lon="1.35461">
        <ele>242</ele>
        <time>2019-04-14T08:52:40Z</time>
      </trkpt>
      <trkpt lat="44.43262" lon="1.35463">
        <ele>243</ele>
        <time>2019-04-14T08:52:41Z</time>
      </trkpt>
      <trkpt lat="44.43263" lon="1.35464">
        <ele>243</ele>
        <time>2019-04-14T08:52:42Z</time>
      </trkpt>
      <trkpt lat="44.43265" lon="1.35463">
        <ele>243</ele>
        <time>2019-04-14T08:52:43Z</time>
      </trkpt>
      <trkpt lat="44.43269" lon="1.35463">
        <ele>243</ele>
        <time>2019-04-14T08:52:44Z</time>
      </trkpt>
      <trkpt lat="44.43272" lon="1.35464">
        <ele>243</ele>
        <time>2019-04-14T08:52:45Z</time>
      </trkpt>
      <trkpt lat="44.43275" lon="1.35463">
        <ele>243</ele>
        <time>2019-04-14T08:52:46Z</time>
      </trkpt>
      <trkpt lat="44.43277" lon="1.35463">
        <ele>243</ele>
        <time>2019-04-14T08:52:47Z</time>
      </trkpt>
      <trkpt lat="44.4328" lon="1.35463">
        <ele>243</ele>
        <time>2019-04-14T08:52:48Z</time>
      </trkpt>
      <trkpt lat="44.43284" lon="1.35462">
        <ele>243</ele>
        <time>2019-04-14T08:52:49Z</time>
      </trkpt>
      <trkpt lat="44.43286" lon="1.35462">
        <ele>244</ele>
        <time>2019-04-14T08:52:50Z</time>
      </trkpt>
      <trkpt lat="44.4329" lon="1.35462">
        <ele>244</ele>
        <time>2019-04-14T08:52:51Z</time>
      </trkpt>
      <trkpt lat="44.43293" lon="1.35462">
        <ele>244</ele>
        <time>2019-04-14T08:52:52Z</time>
      </trkpt>
      <trkpt lat="44.43295" lon="1.35461">
        <ele>244</ele>
        <time>2019-04-14T08:52:53Z</time>
      </trkpt>
      <trkpt lat="44.43297" lon="1.35459">
        <ele>244</ele>
        <time>2019-04-14T08:52:54Z</time>
      </trkpt>
      <trkpt lat="44.433" lon="1.35456">
        <ele>243</ele>
        <time>2019-04-14T08:52:55Z</time>
      </trkpt>
      <trkpt lat="44.43303" lon="1.35453">
        <ele>243</ele>
        <time>2019-04-14T08:52:56Z</time>
      </trkpt>
      <trkpt lat="44.43307" lon="1.35449">
        <ele>243</ele>
        <time>2019-04-14T08:52:57Z</time>
      </trkpt>
      <trkpt lat="44.43311" lon="1.35446">
        <ele>243</ele>
        <time>2019-04-14T08:52:58Z</time>
      </trkpt>
      <trkpt lat="44.43314" lon="1.35442">
        <ele>243</ele>
        <time>2019-04-14T08:52:59Z</time>
      </trkpt>
      <trkpt lat="44.43318" lon="1.3544">
        <ele>243</ele>
        <time>2019-04-14T08:53:00Z</time>
      </trkpt>
      <trkpt lat="44.43321" lon="1.3544">
        <ele>243</ele>
        <time>2019-04-14T08:53:01Z</time>
      </trkpt>
      <trkpt lat="44.43323" lon="1.35439">
        <ele>243</ele>
        <time>2019-04-14T08:53:02Z</time>
      </trkpt>
      <trkpt lat="44.43324" lon="1.35439">
        <ele>243</ele>
        <time>2019-04-14T08:53:03Z</time>
      </trkpt>
      <trkpt lat="44.43326" lon="1.35438">
        <ele>243</ele>
        <time>2019-04-14T08:53:04Z</time>
      </trkpt>
      <trkpt lat="44.43327" lon="1.35436">
        <ele>243</ele>
        <time>2019-04-14T08:53:05Z</time>
      </trkpt>
      <trkpt lat="44.43329" lon="1.35433">
        <ele>243</ele>
        <time>2019-04-14T08:53:06Z</time>
      </trkpt>
      <trkpt lat="44.4333" lon="1.3543">
        <ele>242</ele>
        <time>2019-04-14T08:53:07Z</time>
      </trkpt>
      <trkpt lat="44.4333" lon="1.35427">
        <ele>242</ele>
        <time>2019-04-14T08:53:08Z</time>
      </trkpt>
      <trkpt lat="44.43331" lon="1.35423">
        <ele>241</ele>
        <time>2019-04-14T08:53:09Z</time>
      </trkpt>
      <trkpt lat="44.43333" lon="1.35421">
        <ele>241</ele>
        <time>2019-04-14T08:53:10Z</time>
      </trkpt>
      <trkpt lat="44.43335" lon="1.35419">
        <ele>241</ele>
        <time>2019-04-14T08:53:11Z</time>
      </trkpt>
      <trkpt lat="44.43336" lon="1.35417">
        <ele>241</ele>
        <time>2019-04-14T08:53:12Z</time>
      </trkpt>
      <trkpt lat="44.43338" lon="1.35415">
        <ele>240</ele>
        <time>2019-04-14T08:53:13Z</time>
      </trkpt>
      <trkpt lat="44.43339" lon="1.35412">
        <ele>240</ele>
        <time>2019-04-14T08:53:14Z</time>
      </trkpt>
      <trkpt lat="44.43342" lon="1.35409">
        <ele>239</ele>
        <time>2019-04-14T08:53:15Z</time>
      </trkpt>
      <trkpt lat="44.43344" lon="1.35407">
        <ele>239</ele>
        <time>2019-04-14T08:53:16Z</time>
      </trkpt>
      <trkpt lat="44.43347" lon="1.35405">
        <ele>239</ele>
        <time>2019-04-14T08:53:17Z</time>
      </trkpt>
      <trkpt lat="44.4335" lon="1.35403">
        <ele>239</ele>
        <time>2019-04-14T08:53:18Z</time>
      </trkpt>
      <trkpt lat="44.43354" lon="1.35401">
        <ele>239</ele>
        <time>2019-04-14T08:53:19Z</time>
      </trkpt>
      <trkpt lat="44.43357" lon="1.35399">
        <ele>238</ele>
        <time>2019-04-14T08:53:20Z</time>
      </trkpt>
      <trkpt lat="44.43359" lon="1.35397">
        <ele>239</ele>
        <time>2019-04-14T08:53:21Z</time>
      </trkpt>
      <trkpt lat="44.43361" lon="1.35394">
        <ele>238</ele>
        <time>2019-04-14T08:53:22Z</time>
      </trkpt>
      <trkpt lat="44.43362" lon="1.35392">
        <ele>238</ele>
        <time>2019-04-14T08:53:23Z</time>
      </trkpt>
      <trkpt lat="44.43363" lon="1.35391">
        <ele>238</ele>
        <time>2019-04-14T08:53:24Z</time>
      </trkpt>
      <trkpt lat="44.43364" lon="1.3539">
        <ele>238</ele>
        <time>2019-04-14T08:53:25Z</time>
      </trkpt>
      <trkpt lat="44.43364" lon="1.3539">
        <ele>238</ele>
        <time>2019-04-14T08:53:26Z</time>
      </trkpt>
      <trkpt lat="44.43364" lon="1.35389">
        <ele>237</ele>
        <time>2019-04-14T08:53:27Z</time>
      </trkpt>
      <trkpt lat="44.43364" lon="1.35389">
        <ele>237</ele>
        <time>2019-04-14T08:53:28Z</time>
      </trkpt>
      <trkpt lat="44.43364" lon="1.35389">
        <ele>237</ele>
        <time>2019-04-14T08:53:29Z</time>
      </trkpt>
      <trkpt lat="44.43365" lon="1.35389">
        <ele>237</ele>
        <time>2019-04-14T08:53:30Z</time>
      </trkpt>
      <trkpt lat="44.43365" lon="1.35388">
        <ele>237</ele>
        <time>2019-04-14T08:53:31Z</time>
      </trkpt>
      <trkpt lat="44.43365" lon="1.35388">
        <ele>237</ele>
        <time>2019-04-14T08:53:32Z</time>
      </trkpt>
      <trkpt lat="44.4339" lon="1.35359">
        <ele>235</ele>
        <time>2019-04-14T08:54:00Z</time>
      </trkpt>
      <trkpt lat="44.43393" lon="1.35359">
        <ele>235</ele>
        <time>2019-04-14T08:54:01Z</time>
      </trkpt>
      <trkpt lat="44.43395" lon="1.35358">
        <ele>235</ele>
        <time>2019-04-14T08:54:02Z</time>
      </trkpt>
      <trkpt lat="44.43397" lon="1.35357">
        <ele>235</ele>
        <time>2019-04-14T08:54:03Z</time>
      </trkpt>
      <trkpt lat="44.43398" lon="1.35357">
        <ele>235</ele>
        <time>2019-04-14T08:54:04Z</time>
      </trkpt>
      <trkpt lat="44.43399" lon="1.35357">
        <ele>234</ele>
        <time>2019-04-14T08:54:05Z</time>
      </trkpt>
      <trkpt lat="44.43399" lon="1.35356">
        <ele>234</ele>
        <time>2019-04-14T08:54:06Z</time>
      </trkpt>
      <trkpt lat="44.434" lon="1.35355">
        <ele>234</ele>
        <time>2019-04-14T08:54:07Z</time>
      </trkpt>
      <trkpt lat="44.43401" lon="1.35354">
        <ele>234</ele>
        <time>2019-04-14T08:54:08Z</time>
      </trkpt>
      <trkpt lat="44.43401" lon="1.35353">
        <ele>234</ele>
        <time>2019-04-14T08:54:09Z</time>
      </trkpt>
      <trkpt lat="44.43402" lon="1.35352">
        <ele>234</ele>
        <time>2019-04-14T08:54:10Z</time>
      </trkpt>
      <trkpt lat="44.43402" lon="1.35351">
        <ele>234</ele>
        <time>2019-04-14T08:54:11Z</time>
      </trkpt>
      <trkpt lat="44.43403" lon="1.3535">
        <ele>233</ele>
        <time>2019-04-14T08:54:12Z</time>
      </trkpt>
      <trkpt lat="44.43403" lon="1.35348">
        <ele>233</ele>
        <time>2019-04-14T08:54:13Z</time>
      </trkpt>
      <trkpt lat="44.43404" lon="1.35347">
        <ele>233</ele>
        <time>2019-04-14T08:54:14Z</time>
      </trkpt>
      <trkpt lat="44.43404" lon="1.35346">
        <ele>233</ele>
        <time>2019-04-14T08:54:15Z</time>
      </trkpt>
      <trkpt lat="44.43405" lon="1.35345">
        <ele>233</ele>
        <time>2019-04-14T08:54:16Z</time>
      </trkpt>
      <trkpt lat="44.43405" lon="1.35343">
        <ele>232</ele>
        <time>2019-04-14T08:54:17Z</time>
      </trkpt>
      <trkpt lat="44.43406" lon="1.35341">
        <ele>232</ele>
        <time>2019-04-14T08:54:18Z</time>
      </trkpt>
      <trkpt lat="44.43407" lon="1.35341">
        <ele>232</ele>
        <time>2019-04-14T08:54:19Z</time>
      </trkpt>
      <trkpt lat="44.43408" lon="1.3534">
        <ele>232</ele>
        <time>2019-04-14T08:54:20Z</time>
      </trkpt>
      <trkpt lat="44.43409" lon="1.3534">
        <ele>232</ele>
        <time>2019-04-14T08:54:21Z</time>
      </trkpt>
      <trkpt lat="44.4341" lon="1.3534">
        <ele>232</ele>
        <time>2019-04-14T08:54:22Z</time>
      </trkpt>
      <trkpt lat="44.43412" lon="1.35339">
        <ele>232</ele>
        <time>2019-04-14T08:54:23Z</time>
      </trkpt>
      <trkpt lat="44.43414" lon="1.35339">
        <ele>232</ele>
        <time>2019-04-14T08:54:24Z</time>
      </trkpt>
      <trkpt lat="44.43417" lon="1.35339">
        <ele>232</ele>
        <time>2019-04-14T08:54:25Z</time>
      </trkpt>
      <trkpt lat="44.4342" lon="1.3534">
        <ele>232</ele>
        <time>2019-04-14T08:54:26Z</time>
      </trkpt>
      <trkpt lat="44.43422" lon="1.3534">
        <ele>232</ele>
        <time>2019-04-14T08:54:27Z</time>
      </trkpt>
      <trkpt lat="44.43424" lon="1.35341">
        <ele>232</ele>
        <time>2019-04-14T08:54:28Z</time>
      </trkpt>
      <trkpt lat="44.43427" lon="1.35342">
        <ele>232</ele>
        <time>2019-04-14T08:54:29Z</time>
      </trkpt>
      <trkpt lat="44.43429" lon="1.35343">
        <ele>232</ele>
        <time>2019-04-14T08:54:30Z</time>
      </trkpt>
      <trkpt lat="44.43431" lon="1.35344">
        <ele>231</ele>
        <time>2019-04-14T08:54:31Z</time>
      </trkpt>
      <trkpt lat="44.43434" lon="1.35346">
        <ele>231</ele>
        <time>2019-04-14T08:54:32Z</time>
      </trkpt>
      <trkpt lat="44.43436" lon="1.35348">
        <ele>231</ele>
        <time>2019-04-14T08:54:33Z</time>
      </trkpt>
      <trkpt lat="44.43437" lon="1.3535">
        <ele>232</ele>
        <time>2019-04-14T08:54:34Z</time>
      </trkpt>
      <trkpt lat="44.43438" lon="1.35354">
        <ele>231</ele>
        <time>2019-04-14T08:54:35Z</time>
      </trkpt>
      <trkpt lat="44.4344" lon="1.35357">
        <ele>231</ele>
        <time>2019-04-14T08:54:36Z</time>
      </trkpt>
      <trkpt lat="44.43441" lon="1.3536">
        <ele>231</ele>
        <time>2019-04-14T08:54:37Z</time>
      </trkpt>
      <trkpt lat="44.43442" lon="1.35363">
        <ele>231</ele>
        <time>2019-04-14T08:54:38Z</time>
      </trkpt>
      <trkpt lat="44.43442" lon="1.35367">
        <ele>231</ele>
        <time>2019-04-14T08:54:39Z</time>
      </trkpt>
      <trkpt lat="44.43443" lon="1.35371">
        <ele>231</ele>
        <time>2019-04-14T08:54:40Z</time>
      </trkpt>
      <trkpt lat="44.43443" lon="1.35375">
        <ele>232</ele>
        <time>2019-04-14T08:54:41Z</time>
      </trkpt>
      <trkpt lat="44.43443" lon="1.35377">
        <ele>233</ele>
        <time>2019-04-14T08:54:42Z</time>
      </trkpt>
      <trkpt lat="44.43442" lon="1.35379">
        <ele>233</ele>
        <time>2019-04-14T08:54:43Z</time>
      </trkpt>
      <trkpt lat="44.43442" lon="1.35381">
        <ele>233</ele>
        <time>2019-04-14T08:54:44Z</time>
      </trkpt>
      <trkpt lat="44.43442" lon="1.35383">
        <ele>233</ele>
        <time>2019-04-14T08:54:45Z</time>
      </trkpt>
      <trkpt lat="44.43441" lon="1.35386">
        <ele>234</ele>
        <time>2019-04-14T08:54:46Z</time>
      </trkpt>
      <trkpt lat="44.4344" lon="1.35389">
        <ele>234</ele>
        <time>2019-04-14T08:54:47Z</time>
      </trkpt>
      <trkpt lat="44.4344" lon="1.35391">
        <ele>234</ele>
        <time>2019-04-14T08:54:48Z</time>
      </trkpt>
      <trkpt lat="44.4344" lon="1.35394">
        <ele>234</ele>
        <time>2019-04-14T08:54:49Z</time>
      </trkpt>
      <trkpt lat="44.4344" lon="1.35396">
        <ele>235</ele>
        <time>2019-04-14T08:54:50Z</time>
      </trkpt>
      <trkpt lat="44.43442" lon="1.35398">
        <ele>234</ele>
        <time>2019-04-14T08:54:51Z</time>
      </trkpt>
      <trkpt lat="44.43443" lon="1.35401">
        <ele>234</ele>
        <time>2019-04-14T08:54:52Z</time>
      </trkpt>
      <trkpt lat="44.43444" lon="1.35405">
        <ele>234</ele>
        <time>2019-04-14T08:54:53Z</time>
      </trkpt>
      <trkpt lat="44.43444" lon="1.35408">
        <ele>234</ele>
        <time>2019-04-14T08:54:54Z</time>
      </trkpt>
      <trkpt lat="44.43444" lon="1.35412">
        <ele>234</ele>
        <time>2019-04-14T08:54:55Z</time>
      </trkpt>
      <trkpt lat="44.43444" lon="1.35415">
        <ele>234</ele>
        <time>2019-04-14T08:54:56Z</time>
      </trkpt>
      <trkpt lat="44.43444" lon="1.35417">
        <ele>234</ele>
        <time>2019-04-14T08:54:57Z</time>
      </trkpt>
      <trkpt lat="44.43445" lon="1.35419">
        <ele>234</ele>
        <time>2019-04-14T08:54:58Z</time>
      </trkpt>
      <trkpt lat="44.43445" lon="1.35421">
        <ele>234</ele>
        <time>2019-04-14T08:54:59Z</time>
      </trkpt>
      <trkpt lat="44.43446" lon="1.35424">
        <ele>234</ele>
        <time>2019-04-14T08:55:00Z</time>
      </trkpt>
      <trkpt lat="44.43446" lon="1.35427">
        <ele>234</ele>
        <time>2019-04-14T08:55:01Z</time>
      </trkpt>
      <trkpt lat="44.43446" lon="1.3543">
        <ele>234</ele>
        <time>2019-04-14T08:55:02Z</time>
      </trkpt>
      <trkpt lat="44.43446" lon="1.35432">
        <ele>234</ele>
        <time>2019-04-14T08:55:03Z</time>
      </trkpt>
      <trkpt lat="44.43446" lon="1.35434">
        <ele>235</ele>
        <time>2019-04-14T08:55:04Z</time>
      </trkpt>
      <trkpt lat="44.43447" lon="1.35437">
        <ele>235</ele>
        <time>2019-04-14T08:55:05Z</time>
      </trkpt>
      <trkpt lat="44.43447" lon="1.35439">
        <ele>235</ele>
        <time>2019-04-14T08:55:06Z</time>
      </trkpt>
      <trkpt lat="44.43449" lon="1.35442">
        <ele>235</ele>
        <time>2019-04-14T08:55:07Z</time>
      </trkpt>
      <trkpt lat="44.43449" lon="1.35447">
        <ele>235</ele>
        <time>2019-04-14T08:55:08Z</time>
      </trkpt>
      <trkpt lat="44.43448" lon="1.35451">
        <ele>235</ele>
        <time>2019-04-14T08:55:09Z</time>
      </trkpt>
      <trkpt lat="44.43446" lon="1.35454">
        <ele>235</ele>
        <time>2019-04-14T08:55:10Z</time>
      </trkpt>
      <trkpt lat="44.43445" lon="1.35456">
        <ele>236</ele>
        <time>2019-04-14T08:55:11Z</time>
      </trkpt>
      <trkpt lat="44.43443" lon="1.35457">
        <ele>236</ele>
        <time>2019-04-14T08:55:12Z</time>
      </trkpt>
      <trkpt lat="44.43441" lon="1.35458">
        <ele>237</ele>
        <time>2019-04-14T08:55:13Z</time>
      </trkpt>
      <trkpt lat="44.4344" lon="1.3546">
        <ele>237</ele>
        <time>2019-04-14T08:55:14Z</time>
      </trkpt>
      <trkpt lat="44.43439" lon="1.35463">
        <ele>238</ele>
        <time>2019-04-14T08:55:15Z</time>
      </trkpt>
      <trkpt lat="44.43438" lon="1.35465">
        <ele>238</ele>
        <time>2019-04-14T08:55:16Z</time>
      </trkpt>
      <trkpt lat="44.43438" lon="1.35467">
        <ele>238</ele>
        <time>2019-04-14T08:55:17Z</time>
      </trkpt>
      <trkpt lat="44.43438" lon="1.35467">
        <ele>238</ele>
        <time>2019-04-14T08:55:18Z</time>
      </trkpt>
      <trkpt lat="44.43437" lon="1.35469">
        <ele>238</ele>
        <time>2019-04-14T08:55:19Z</time>
      </trkpt>
      <trkpt lat="44.43437" lon="1.35469">
        <ele>238</ele>
        <time>2019-04-14T08:55:20Z</time>
      </trkpt>
      <trkpt lat="44.43438" lon="1.3547">
        <ele>238</ele>
        <time>2019-04-14T08:55:21Z</time>
      </trkpt>
      <trkpt lat="44.43439" lon="1.35472">
        <ele>238</ele>
        <time>2019-04-14T08:55:22Z</time>
      </trkpt>
      <trkpt lat="44.43439" lon="1.35476">
        <ele>238</ele>
        <time>2019-04-14T08:55:23Z</time>
      </trkpt>
      <trkpt lat="44.43441" lon="1.3548">
        <ele>238</ele>
        <time>2019-04-14T08:55:24Z</time>
      </trkpt>
      <trkpt lat="44.43441" lon="1.35484">
        <ele>238</ele>
        <time>2019-04-14T08:55:25Z</time>
      </trkpt>
      <trkpt lat="44.43441" lon="1.35488">
        <ele>238</ele>
        <time>2019-04-14T08:55:26Z</time>
      </trkpt>
      <trkpt lat="44.4344" lon="1.35491">
        <ele>238</ele>
        <time>2019-04-14T08:55:27Z</time>
      </trkpt>
      <trkpt lat="44.43439" lon="1.35495">
        <ele>239</ele>
        <time>2019-04-14T08:55:28Z</time>
      </trkpt>
      <trkpt lat="44.43436" lon="1.35498">
        <ele>239</ele>
        <time>2019-04-14T08:55:29Z</time>
      </trkpt>
      <trkpt lat="44.43434" lon="1.355">
        <ele>240</ele>
        <time>2019-04-14T08:55:30Z</time>
      </trkpt>
      <trkpt lat="44.43432" lon="1.35501">
        <ele>240</ele>
        <time>2019-04-14T08:55:31Z</time>
      </trkpt>
      <trkpt lat="44.4343" lon="1.35503">
        <ele>241</ele>
        <time>2019-04-14T08:55:32Z</time>
      </trkpt>
      <trkpt lat="44.4343" lon="1.35506">
        <ele>241</ele>
        <time>2019-04-14T08:55:33Z</time>
      </trkpt>
      <trkpt lat="44.4343" lon="1.35509">
        <ele>241</ele>
        <time>2019-04-14T08:55:34Z</time>
      </trkpt>
      <trkpt lat="44.43431" lon="1.35512">
        <ele>241</ele>
        <time>2019-04-14T08:55:35Z</time>
      </trkpt>
      <trkpt lat="44.43431" lon="1.35515">
        <ele>241</ele>
        <time>2019-04-14T08:55:36Z</time>
      </trkpt>
      <trkpt lat="44.4343" lon="1.35519">
        <ele>241</ele>
        <time>2019-04-14T08:55:37Z</time>
      </trkpt>
      <trkpt lat="44.43429" lon="1.35522">
        <ele>242</ele>
        <time>2019-04-14T08:55:38Z</time>
      </trkpt>
      <trkpt lat="44.43428" lon="1.35524">
        <ele>242</ele>
        <time>2019-04-14T08:55:39Z</time>
      </trkpt>
      <trkpt lat="44.43427" lon="1.35524">
        <ele>242</ele>
        <time>2019-04-14T08:55:40Z</time>
      </trkpt>
      <trkpt lat="44.43425" lon="1.35526">
        <ele>242</ele>
        <time>2019-04-14T08:55:41Z</time>
      </trkpt>
      <trkpt lat="44.43425" lon="1.35529">
        <ele>242</ele>
        <time>2019-04-14T08:55:42Z</time>
      </trkpt>
      <trkpt lat="44.43425" lon="1.35532">
        <ele>242</ele>
        <time>2019-04-14T08:55:43Z</time>
      </trkpt>
      <trkpt lat="44.43425" lon="1.35536">
        <ele>242</ele>
        <time>2019-04-14T08:55:44Z</time>
      </trkpt>
      <trkpt lat="44.43426" lon="1.3554">
        <ele>242</ele>
        <time>2019-04-14T08:55:45Z</time>
      </trkpt>
      <trkpt lat="44.43428" lon="1.35542">
        <ele>242</ele>
        <time>2019-04-14T08:55:46Z</time>
      </trkpt>
      <trkpt lat="44.4343" lon="1.35543">
        <ele>242</ele>
        <time>2019-04-14T08:55:47Z</time>
      </trkpt>
      <trkpt lat="44.43432" lon="1.35544">
        <ele>242</ele>
        <time>2019-04-14T08:55:48Z</time>
      </trkpt>
      <trkpt lat="44.43434" lon="1.35544">
        <ele>242</ele>
        <time>2019-04-14T08:55:49Z</time>
      </trkpt>
      <trkpt lat="44.43438" lon="1.35545">
        <ele>241</ele>
        <time>2019-04-14T08:55:50Z</time>
      </trkpt>
      <trkpt lat="44.43439" lon="1.35549">
        <ele>241</ele>
        <time>2019-04-14T08:55:51Z</time>
      </trkpt>
      <trkpt lat="44.4344" lon="1.35551">
        <ele>241</ele>
        <time>2019-04-14T08:55:52Z</time>
      </trkpt>
      <trkpt lat="44.43442" lon="1.35553">
        <ele>241</ele>
        <time>2019-04-14T08:55:53Z</time>
      </trkpt>
      <trkpt lat="44.43443" lon="1.35557">
        <ele>241</ele>
        <time>2019-04-14T08:55:54Z</time>
      </trkpt>
      <trkpt lat="44.43444" lon="1.35561">
        <ele>241</ele>
        <time>2019-04-14T08:55:55Z</time>
      </trkpt>
      <trkpt lat="44.43445" lon="1.35565">
        <ele>241</ele>
        <time>2019-04-14T08:55:56Z</time>
      </trkpt>
      <trkpt lat="44.43445" lon="1.35568">
        <ele>241</ele>
        <time>2019-04-14T08:55:57Z</time>
      </trkpt>
      <trkpt lat="44.43447" lon="1.35572">
        <ele>241</ele>
        <time>2019-04-14T08:55:58Z</time>
      </trkpt>
      <trkpt lat="44.43449" lon="1.35575">
        <ele>241</ele>
        <time>2019-04-14T08:55:59Z</time>
      </trkpt>
      <trkpt lat="44.43451" lon="1.35576">
        <ele>241</ele>
        <time>2019-04-14T08:56:00Z</time>
      </trkpt>
      <trkpt lat="44.43456" lon="1.35576">
        <ele>241</ele>
        <time>2019-04-14T08:56:01Z</time>
      </trkpt>
      <trkpt lat="44.43459" lon="1.35574">
        <ele>240</ele>
        <time>2019-04-14T08:56:02Z</time>
      </trkpt>
      <trkpt lat="44.43463" lon="1.35573">
        <ele>240</ele>
        <time>2019-04-14T08:56:03Z</time>
      </trkpt>
      <trkpt lat="44.43468" lon="1.35572">
        <ele>239</ele>
        <time>2019-04-14T08:56:04Z</time>
      </trkpt>
      <trkpt lat="44.43474" lon="1.35571">
        <ele>239</ele>
        <time>2019-04-14T08:56:05Z</time>
      </trkpt>
      <trkpt lat="44.43479" lon="1.3557">
        <ele>238</ele>
        <time>2019-04-14T08:56:06Z</time>
      </trkpt>
      <trkpt lat="44.43483" lon="1.35567">
        <ele>237</ele>
        <time>2019-04-14T08:56:07Z</time>
      </trkpt>
      <trkpt lat="44.43487" lon="1.35565">
        <ele>237</ele>
        <time>2019-04-14T08:56:08Z</time>
      </trkpt>
      <trkpt lat="44.4349" lon="1.35565">
        <ele>236</ele>
        <time>2019-04-14T08:56:09Z</time>
      </trkpt>
      <trkpt lat="44.43492" lon="1.35565">
        <ele>236</ele>
        <time>2019-04-14T08:56:10Z</time>
      </trkpt>
      <trkpt lat="44.43494" lon="1.35567">
        <ele>236</ele>
        <time>2019-04-14T08:56:11Z</time>
      </trkpt>
      <trkpt lat="44.43496" lon="1.35568">
        <ele>236</ele>
        <time>2019-04-14T08:56:12Z</time>
      </trkpt>
      <trkpt lat="44.43497" lon="1.35568">
        <ele>236</ele>
        <time>2019-04-14T08:56:13Z</time>
      </trkpt>
      <trkpt lat="44.43498" lon="1.35568">
        <ele>236</ele>
        <time>2019-04-14T08:56:14Z</time>
      </trkpt>
      <trkpt lat="44.43498" lon="1.35568">
        <ele>236</ele>
        <time>2019-04-14T08:56:15Z</time>
      </trkpt>
      <trkpt lat="44.43498" lon="1.35568">
        <ele>236</ele>
        <time>2019-04-14T08:56:16Z</time>
      </trkpt>
      <trkpt lat="44.43498" lon="1.35568">
        <ele>236</ele>
        <time>2019-04-14T08:56:17Z</time>
      </trkpt>
      <trkpt lat="44.43499" lon="1.35569">
        <ele>236</ele>
        <time>2019-04-14T08:56:18Z</time>
      </trkpt>
      <trkpt lat="44.43499" lon="1.35569">
        <ele>236</ele>
        <time>2019-04-14T08:56:19Z</time>
      </trkpt>
      <trkpt lat="44.43499" lon="1.35569">
        <ele>236</ele>
        <time>2019-04-14T08:56:20Z</time>
      </trkpt>
      <trkpt lat="44.435" lon="1.3557">
        <ele>236</ele>
        <time>2019-04-14T08:56:21Z</time>
      </trkpt>
      <trkpt lat="44.43523" lon="1.35562">
        <ele>233</ele>
        <time>2019-04-14T08:59:27Z</time>
      </trkpt>
      <trkpt lat="44.43524" lon="1.35563">
        <ele>233</ele>
        <time>2019-04-14T08:59:28Z</time>
      </trkpt>
      <trkpt lat="44.43525" lon="1.35563">
        <ele>233</ele>
        <time>2019-04-14T08:59:29Z</time>
      </trkpt>
      <trkpt lat="44.43526" lon="1.35563">
        <ele>233</ele>
        <time>2019-04-14T08:59:30Z</time>
      </trkpt>
      <trkpt lat="44.43527" lon="1.35561">
        <ele>233</ele>
        <time>2019-04-14T08:59:31Z</time>
      </trkpt>
      <trkpt lat="44.43529" lon="1.3556">
        <ele>232</ele>
        <time>2019-04-14T08:59:32Z</time>
      </trkpt>
      <trkpt lat="44.43532" lon="1.35558">
        <ele>232</ele>
        <time>2019-04-14T08:59:33Z</time>
      </trkpt>
      <trkpt lat="44.43534" lon="1.35557">
        <ele>231</ele>
        <time>2019-04-14T08:59:34Z</time>
      </trkpt>
      <trkpt lat="44.43537" lon="1.35557">
        <ele>231</ele>
        <time>2019-04-14T08:59:35Z</time>
      </trkpt>
      <trkpt lat="44.43538" lon="1.35558">
        <ele>231</ele>
        <time>2019-04-14T08:59:36Z</time>
      </trkpt>
      <trkpt lat="44.43539" lon="1.3556">
        <ele>232</ele>
        <time>2019-04-14T08:59:37Z</time>
      </trkpt>
      <trkpt lat="44.43539" lon="1.35561">
        <ele>232</ele>
        <time>2019-04-14T08:59:38Z</time>
      </trkpt>
      <trkpt lat="44.4354" lon="1.35562">
        <ele>232</ele>
        <time>2019-04-14T08:59:39Z</time>
      </trkpt>
      <trkpt lat="44.43541" lon="1.35565">
        <ele>232</ele>
        <time>2019-04-14T08:59:40Z</time>
      </trkpt>
      <trkpt lat="44.43541" lon="1.35566">
        <ele>233</ele>
        <time>2019-04-14T08:59:41Z</time>
      </trkpt>
      <trkpt lat="44.43543" lon="1.35569">
        <ele>233</ele>
        <time>2019-04-14T08:59:42Z</time>
      </trkpt>
      <trkpt lat="44.43544" lon="1.35571">
        <ele>234</ele>
        <time>2019-04-14T08:59:43Z</time>
      </trkpt>
      <trkpt lat="44.43545" lon="1.35573">
        <ele>234</ele>
        <time>2019-04-14T08:59:44Z</time>
      </trkpt>
      <trkpt lat="44.43546" lon="1.35575">
        <ele>235</ele>
        <time>2019-04-14T08:59:45Z</time>
      </trkpt>
      <trkpt lat="44.43548" lon="1.35576">
        <ele>235</ele>
        <time>2019-04-14T08:59:46Z</time>
      </trkpt>
      <trkpt lat="44.4355" lon="1.35577">
        <ele>235</ele>
        <time>2019-04-14T08:59:47Z</time>
      </trkpt>
      <trkpt lat="44.43551" lon="1.35577">
        <ele>235</ele>
        <time>2019-04-14T08:59:48Z</time>
      </trkpt>
      <trkpt lat="44.43552" lon="1.35579">
        <ele>236</ele>
        <time>2019-04-14T08:59:49Z</time>
      </trkpt>
      <trkpt lat="44.43554" lon="1.3558">
        <ele>236</ele>
        <time>2019-04-14T08:59:50Z</time>
      </trkpt>
      <trkpt lat="44.43555" lon="1.35581">
        <ele>236</ele>
        <time>2019-04-14T08:59:51Z</time>
      </trkpt>
      <trkpt lat="44.43556" lon="1.35581">
        <ele>236</ele>
        <time>2019-04-14T08:59:52Z</time>
      </trkpt>
      <trkpt lat="44.43556" lon="1.35581">
        <ele>236</ele>
        <time>2019-04-14T08:59:53Z</time>
      </trkpt>
      <trkpt lat="44.43557" lon="1.35581">
        <ele>236</ele>
        <time>2019-04-14T08:59:54Z</time>
      </trkpt>
      <trkpt lat="44.43557" lon="1.35582">
        <ele>236</ele>
        <time>2019-04-14T08:59:55Z</time>
      </trkpt>
      <trkpt lat="44.43558" lon="1.35583">
        <ele>236</ele>
        <time>2019-04-14T08:59:56Z</time>
      </trkpt>
      <trkpt lat="44.43558" lon="1.35584">
        <ele>236</ele>
        <time>2019-04-14T08:59:57Z</time>
      </trkpt>
      <trkpt lat="44.43558" lon="1.35584">
        <ele>236</ele>
        <time>2019-04-14T08:59:58Z</time>
      </trkpt>
      <trkpt lat="44.43558" lon="1.35584">
        <ele>236</ele>
        <time>2019-04-14T08:59:59Z</time>
      </trkpt>
      <trkpt lat="44.43566" lon="1.35598">
        <ele>238</ele>
        <time>2019-04-14T09:00:11Z</time>
      </trkpt>
      <trkpt lat="44.43567" lon="1.35598">
        <ele>238</ele>
        <time>2019-04-14T09:00:12Z</time>
      </trkpt>
      <trkpt lat="44.43568" lon="1.35598">
        <ele>238</ele>
        <time>2019-04-14T09:00:13Z</time>
      </trkpt>
      <trkpt lat="44.43569" lon="1.35598">
        <ele>238</ele>
        <time>2019-04-14T09:00:14Z</time>
      </trkpt>
      <trkpt lat="44.4357" lon="1.35598">
        <ele>238</ele>
        <time>2019-04-14T09:00:15Z</time>
      </trkpt>
      <trkpt lat="44.4357" lon="1.35597">
        <ele>238</ele>
        <time>2019-04-14T09:00:16Z</time>
      </trkpt>
      <trkpt lat="44.43572" lon="1.35597">
        <ele>238</ele>
        <time>2019-04-14T09:00:17Z</time>
      </trkpt>
      <trkpt lat="44.43573" lon="1.35596">
        <ele>238</ele>
        <time>2019-04-14T09:00:18Z</time>
      </trkpt>
      <trkpt lat="44.43574" lon="1.35596">
        <ele>238</ele>
        <time>2019-04-14T09:00:19Z</time>
      </trkpt>
      <trkpt lat="44.43576" lon="1.35596">
        <ele>238</ele>
        <time>2019-04-14T09:00:20Z</time>
      </trkpt>
      <trkpt lat="44.43578" lon="1.35596">
        <ele>238</ele>
        <time>2019-04-14T09:00:21Z</time>
      </trkpt>
      <trkpt lat="44.43579" lon="1.35597">
        <ele>238</ele>
        <time>2019-04-14T09:00:22Z</time>
      </trkpt>
      <trkpt lat="44.43581" lon="1.35597">
        <ele>238</ele>
        <time>2019-04-14T09:00:23Z</time>
      </trkpt>
      <trkpt lat="44.43583" lon="1.35597">
        <ele>238</ele>
        <time>2019-04-14T09:00:24Z</time>
      </trkpt>
      <trkpt lat="44.43585" lon="1.35597">
        <ele>238</ele>
        <time>2019-04-14T09:00:25Z</time>
      </trkpt>
      <trkpt lat="44.43587" lon="1.35597">
        <ele>238</ele>
        <time>2019-04-14T09:00:26Z</time>
      </trkpt>
      <trkpt lat="44.43589" lon="1.35597">
        <ele>238</ele>
        <time>2019-04-14T09:00:27Z</time>
      </trkpt>
      <trkpt lat="44.43591" lon="1.35597">
        <ele>238</ele>
        <time>2019-04-14T09:00:28Z</time>
      </trkpt>
      <trkpt lat="44.43593" lon="1.35597">
        <ele>238</ele>
        <time>2019-04-14T09:00:29Z</time>
      </trkpt>
      <trkpt lat="44.43595" lon="1.35596">
        <ele>237</ele>
        <time>2019-04-14T09:00:30Z</time>
      </trkpt>
      <trkpt lat="44.43595" lon="1.35594">
        <ele>237</ele>
        <time>2019-04-14T09:00:31Z</time>
      </trkpt>
      <trkpt lat="44.43595" lon="1.35593">
        <ele>237</ele>
        <time>2019-04-14T09:00:32Z</time>
      </trkpt>
      <trkpt lat="44.43594" lon="1.35592">
        <ele>237</ele>
        <time>2019-04-14T09:00:33Z</time>
      </trkpt>
      <trkpt lat="44.43593" lon="1.35592">
        <ele>237</ele>
        <time>2019-04-14T09:00:34Z</time>
      </trkpt>
      <trkpt lat="44.43592" lon="1.35591">
        <ele>237</ele>
        <time>2019-04-14T09:00:35Z</time>
      </trkpt>
      <trkpt lat="44.4359" lon="1.35591">
        <ele>237</ele>
        <time>2019-04-14T09:00:36Z</time>
      </trkpt>
      <trkpt lat="44.43589" lon="1.35592">
        <ele>237</ele>
        <time>2019-04-14T09:00:37Z</time>
      </trkpt>
      <trkpt lat="44.43587" lon="1.35593">
        <ele>237</ele>
        <time>2019-04-14T09:00:38Z</time>
      </trkpt>
      <trkpt lat="44.43586" lon="1.35593">
        <ele>237</ele>
        <time>2019-04-14T09:00:39Z</time>
      </trkpt>
      <trkpt lat="44.43585" lon="1.35593">
        <ele>237</ele>
        <time>2019-04-14T09:00:40Z</time>
      </trkpt>
      <trkpt lat="44.43583" lon="1.35594">
        <ele>237</ele>
        <time>2019-04-14T09:00:41Z</time>
      </trkpt>
      <trkpt lat="44.43582" lon="1.35594">
        <ele>237</ele>
        <time>2019-04-14T09:00:42Z</time>
      </trkpt>
      <trkpt lat="44.43581" lon="1.35594">
        <ele>237</ele>
        <time>2019-04-14T09:00:43Z</time>
      </trkpt>
      <trkpt lat="44.4358" lon="1.35594">
        <ele>238</ele>
        <time>2019-04-14T09:00:44Z</time>
      </trkpt>
      <trkpt lat="44.43579" lon="1.35594">
        <ele>238</ele>
        <time>2019-04-14T09:00:45Z</time>
      </trkpt>
      <trkpt lat="44.43578" lon="1.35594">
        <ele>238</ele>
        <time>2019-04-14T09:00:46Z</time>
      </trkpt>
      <trkpt lat="44.43576" lon="1.35595">
        <ele>238</ele>
        <time>2019-04-14T09:00:47Z</time>
      </trkpt>
      <trkpt lat="44.43575" lon="1.35595">
        <ele>238</ele>
        <time>2019-04-14T09:00:48Z</time>
      </trkpt>
      <trkpt lat="44.43574" lon="1.35596">
        <ele>238</ele>
        <time>2019-04-14T09:00:49Z</time>
      </trkpt>
      <trkpt lat="44.43574" lon="1.35596">
        <ele>238</ele>
        <time>2019-04-14T09:00:50Z</time>
      </trkpt>
      <trkpt lat="44.43573" lon="1.35598">
        <ele>238</ele>
        <time>2019-04-14T09:00:51Z</time>
      </trkpt>
      <trkpt lat="44.43573" lon="1.35599">
        <ele>238</ele>
        <time>2019-04-14T09:00:52Z</time>
      </trkpt>
      <trkpt lat="44.43574" lon="1.356">
        <ele>238</ele>
        <time>2019-04-14T09:00:53Z</time>
      </trkpt>
      <trkpt lat="44.43575" lon="1.35602">
        <ele>238</ele>
        <time>2019-04-14T09:00:54Z</time>
      </trkpt>
      <trkpt lat="44.43577" lon="1.35602">
        <ele>238</ele>
        <time>2019-04-14T09:00:55Z</time>
      </trkpt>
      <trkpt lat="44.43579" lon="1.35601">
        <ele>237</ele>
        <time>2019-04-14T09:00:56Z</time>
      </trkpt>
      <trkpt lat="44.4358" lon="1.356">
        <ele>237</ele>
        <time>2019-04-14T09:00:57Z</time>
      </trkpt>
      <trkpt lat="44.43581" lon="1.35599">
        <ele>237</ele>
        <time>2019-04-14T09:00:58Z</time>
      </trkpt>
      <trkpt lat="44.43582" lon="1.35598">
        <ele>237</ele>
        <time>2019-04-14T09:00:59Z</time>
      </trkpt>
      <trkpt lat="44.43583" lon="1.35597">
        <ele>237</ele>
        <time>2019-04-14T09:01:00Z</time>
      </trkpt>
      <trkpt lat="44.43584" lon="1.35596">
        <ele>237</ele>
        <time>2019-04-14T09:01:01Z</time>
      </trkpt>
      <trkpt lat="44.43585" lon="1.35595">
        <ele>237</ele>
        <time>2019-04-14T09:01:02Z</time>
      </trkpt>
      <trkpt lat="44.43587" lon="1.35594">
        <ele>237</ele>
        <time>2019-04-14T09:01:03Z</time>
      </trkpt>
      <trkpt lat="44.43589" lon="1.35595">
        <ele>237</ele>
        <time>2019-04-14T09:01:04Z</time>
      </trkpt>
      <trkpt lat="44.4359" lon="1.35595">
        <ele>237</ele>
        <time>2019-04-14T09:01:05Z</time>
      </trkpt>
      <trkpt lat="44.43592" lon="1.35596">
        <ele>237</ele>
        <time>2019-04-14T09:01:06Z</time>
      </trkpt>
      <trkpt lat="44.43594" lon="1.35597">
        <ele>237</ele>
        <time>2019-04-14T09:01:07Z</time>
      </trkpt>
      <trkpt lat="44.43595" lon="1.35598">
        <ele>237</ele>
        <time>2019-04-14T09:01:08Z</time>
      </trkpt>
      <trkpt lat="44.43597" lon="1.35598">
        <ele>237</ele>
        <time>2019-04-14T09:01:09Z</time>
      </trkpt>
      <trkpt lat="44.43598" lon="1.35599">
        <ele>237</ele>
        <time>2019-04-14T09:01:10Z</time>
      </trkpt>
      <trkpt lat="44.43599" lon="1.35601">
        <ele>237</ele>
        <time>2019-04-14T09:01:11Z</time>
      </trkpt>
      <trkpt lat="44.43599" lon="1.35603">
        <ele>237</ele>
        <time>2019-04-14T09:01:12Z</time>
      </trkpt>
      <trkpt lat="44.43599" lon="1.35604">
        <ele>237</ele>
        <time>2019-04-14T09:01:13Z</time>
      </trkpt>
      <trkpt lat="44.43599" lon="1.35606">
        <ele>237</ele>
        <time>2019-04-14T09:01:14Z</time>
      </trkpt>
      <trkpt lat="44.436" lon="1.35609">
        <ele>237</ele>
        <time>2019-04-14T09:01:15Z</time>
      </trkpt>
      <trkpt lat="44.436" lon="1.35611">
        <ele>237</ele>
        <time>2019-04-14T09:01:16Z</time>
      </trkpt>
      <trkpt lat="44.436" lon="1.35614">
        <ele>237</ele>
        <time>2019-04-14T09:01:17Z</time>
      </trkpt>
      <trkpt lat="44.43601" lon="1.35617">
        <ele>237</ele>
        <time>2019-04-14T09:01:18Z</time>
      </trkpt>
      <trkpt lat="44.43603" lon="1.3562">
        <ele>237</ele>
        <time>2019-04-14T09:01:19Z</time>
      </trkpt>
      <trkpt lat="44.43605" lon="1.35622">
        <ele>237</ele>
        <time>2019-04-14T09:01:20Z</time>
      </trkpt>
      <trkpt lat="44.43607" lon="1.35624">
        <ele>237</ele>
        <time>2019-04-14T09:01:21Z</time>
      </trkpt>
      <trkpt lat="44.43609" lon="1.35625">
        <ele>237</ele>
        <time>2019-04-14T09:01:22Z</time>
      </trkpt>
      <trkpt lat="44.43611" lon="1.35625">
        <ele>237</ele>
        <time>2019-04-14T09:01:23Z</time>
      </trkpt>
      <trkpt lat="44.43613" lon="1.35626">
        <ele>237</ele>
        <time>2019-04-14T09:01:24Z</time>
      </trkpt>
      <trkpt lat="44.43615" lon="1.35626">
        <ele>237</ele>
        <time>2019-04-14T09:01:25Z</time>
      </trkpt>
      <trkpt lat="44.43617" lon="1.35626">
        <ele>237</ele>
        <time>2019-04-14T09:01:26Z</time>
      </trkpt>
      <trkpt lat="44.43619" lon="1.35626">
        <ele>237</ele>
        <time>2019-04-14T09:01:27Z</time>
      </trkpt>
      <trkpt lat="44.43621" lon="1.35626">
        <ele>237</ele>
        <time>2019-04-14T09:01:28Z</time>
      </trkpt>
      <trkpt lat="44.43623" lon="1.35626">
        <ele>237</ele>
        <time>2019-04-14T09:01:29Z</time>
      </trkpt>
      <trkpt lat="44.43625" lon="1.35626">
        <ele>238</ele>
        <time>2019-04-14T09:01:30Z</time>
      </trkpt>
      <trkpt lat="44.43627" lon="1.35626">
        <ele>238</ele>
        <time>2019-04-14T09:01:31Z</time>
      </trkpt>
      <trkpt lat="44.43629" lon="1.35625">
        <ele>238</ele>
        <time>2019-04-14T09:01:32Z</time>
      </trkpt>
      <trkpt lat="44.4363" lon="1.35624">
        <ele>238</ele>
        <time>2019-04-14T09:01:33Z</time>
      </trkpt>
      <trkpt lat="44.43632" lon="1.35622">
        <ele>238</ele>
        <time>2019-04-14T09:01:34Z</time>
      </trkpt>
      <trkpt lat="44.43633" lon="1.3562">
        <ele>238</ele>
        <time>2019-04-14T09:01:35Z</time>
      </trkpt>
      <trkpt lat="44.43633" lon="1.35618">
        <ele>238</ele>
        <time>2019-04-14T09:01:36Z</time>
      </trkpt>
      <trkpt lat="44.43634" lon="1.35616">
        <ele>238</ele>
        <time>2019-04-14T09:01:37Z</time>
      </trkpt>
      <trkpt lat="44.43635" lon="1.35613">
        <ele>238</ele>
        <time>2019-04-14T09:01:38Z</time>
      </trkpt>
      <trkpt lat="44.43636" lon="1.35611">
        <ele>239</ele>
        <time>2019-04-14T09:01:39Z</time>
      </trkpt>
      <trkpt lat="44.43637" lon="1.35608">
        <ele>239</ele>
        <time>2019-04-14T09:01:40Z</time>
      </trkpt>
      <trkpt lat="44.43638" lon="1.35606">
        <ele>239</ele>
        <time>2019-04-14T09:01:41Z</time>
      </trkpt>
      <trkpt lat="44.43639" lon="1.35604">
        <ele>239</ele>
        <time>2019-04-14T09:01:42Z</time>
      </trkpt>
      <trkpt lat="44.43641" lon="1.35602">
        <ele>239</ele>
        <time>2019-04-14T09:01:43Z</time>
      </trkpt>
      <trkpt lat="44.43643" lon="1.356">
        <ele>239</ele>
        <time>2019-04-14T09:01:44Z</time>
      </trkpt>
      <trkpt lat="44.43644" lon="1.35599">
        <ele>239</ele>
        <time>2019-04-14T09:01:45Z</time>
      </trkpt>
      <trkpt lat="44.43646" lon="1.35598">
        <ele>239</ele>
        <time>2019-04-14T09:01:46Z</time>
      </trkpt>
      <trkpt lat="44.43648" lon="1.35597">
        <ele>239</ele>
        <time>2019-04-14T09:01:47Z</time>
      </trkpt>
      <trkpt lat="44.4365" lon="1.35595">
        <ele>239</ele>
        <time>2019-04-14T09:01:48Z</time>
      </trkpt>
      <trkpt lat="44.43652" lon="1.35594">
        <ele>238</ele>
        <time>2019-04-14T09:01:49Z</time>
      </trkpt>
      <trkpt lat="44.43654" lon="1.35593">
        <ele>238</ele>
        <time>2019-04-14T09:01:50Z</time>
      </trkpt>
      <trkpt lat="44.43656" lon="1.35592">
        <ele>238</ele>
        <time>2019-04-14T09:01:51Z</time>
      </trkpt>
      <trkpt lat="44.43658" lon="1.35591">
        <ele>238</ele>
        <time>2019-04-14T09:01:52Z</time>
      </trkpt>
      <trkpt lat="44.43661" lon="1.35591">
        <ele>238</ele>
        <time>2019-04-14T09:01:53Z</time>
      </trkpt>
      <trkpt lat="44.43664" lon="1.35591">
        <ele>238</ele>
        <time>2019-04-14T09:01:54Z</time>
      </trkpt>
      <trkpt lat="44.43667" lon="1.35591">
        <ele>238</ele>
        <time>2019-04-14T09:01:55Z</time>
      </trkpt>
      <trkpt lat="44.4367" lon="1.35591">
        <ele>238</ele>
        <time>2019-04-14T09:01:56Z</time>
      </trkpt>
      <trkpt lat="44.43672" lon="1.35592">
        <ele>238</ele>
        <time>2019-04-14T09:01:57Z</time>
      </trkpt>
      <trkpt lat="44.43675" lon="1.35593">
        <ele>237</ele>
        <time>2019-04-14T09:01:58Z</time>
      </trkpt>
      <trkpt lat="44.43678" lon="1.35594">
        <ele>237</ele>
        <time>2019-04-14T09:01:59Z</time>
      </trkpt>
      <trkpt lat="44.4368" lon="1.35595">
        <ele>237</ele>
        <time>2019-04-14T09:02:00Z</time>
      </trkpt>
      <trkpt lat="44.43682" lon="1.35598">
        <ele>237</ele>
        <time>2019-04-14T09:02:01Z</time>
      </trkpt>
      <trkpt lat="44.43683" lon="1.35601">
        <ele>237</ele>
        <time>2019-04-14T09:02:02Z</time>
      </trkpt>
      <trkpt lat="44.43684" lon="1.35604">
        <ele>237</ele>
        <time>2019-04-14T09:02:03Z</time>
      </trkpt>
      <trkpt lat="44.43684" lon="1.35608">
        <ele>237</ele>
        <time>2019-04-14T09:02:04Z</time>
      </trkpt>
      <trkpt lat="44.43685" lon="1.35613">
        <ele>237</ele>
        <time>2019-04-14T09:02:05Z</time>
      </trkpt>
      <trkpt lat="44.43685" lon="1.35616">
        <ele>237</ele>
        <time>2019-04-14T09:02:06Z</time>
      </trkpt>
      <trkpt lat="44.43686" lon="1.3562">
        <ele>237</ele>
        <time>2019-04-14T09:02:07Z</time>
      </trkpt>
      <trkpt lat="44.43686" lon="1.35623">
        <ele>237</ele>
        <time>2019-04-14T09:02:08Z</time>
      </trkpt>
      <trkpt lat="44.43686" lon="1.35627">
        <ele>237</ele>
        <time>2019-04-14T09:02:09Z</time>
      </trkpt>
      <trkpt lat="44.43686" lon="1.3563">
        <ele>237</ele>
        <time>2019-04-14T09:02:10Z</time>
      </trkpt>
      <trkpt lat="44.43686" lon="1.35634">
        <ele>237</ele>
        <time>2019-04-14T09:02:11Z</time>
      </trkpt>
      <trkpt lat="44.43686" lon="1.35637">
        <ele>236</ele>
        <time>2019-04-14T09:02:12Z</time>
      </trkpt>
      <trkpt lat="44.43686" lon="1.35641">
        <ele>236</ele>
        <time>2019-04-14T09:02:13Z</time>
      </trkpt>
      <trkpt lat="44.43686" lon="1.35645">
        <ele>236</ele>
        <time>2019-04-14T09:02:14Z</time>
      </trkpt>
      <trkpt lat="44.43687" lon="1.3565">
        <ele>236</ele>
        <time>2019-04-14T09:02:15Z</time>
      </trkpt>
      <trkpt lat="44.43687" lon="1.35655">
        <ele>236</ele>
        <time>2019-04-14T09:02:16Z</time>
      </trkpt>
      <trkpt lat="44.43687" lon="1.3566">
        <ele>235</ele>
        <time>2019-04-14T09:02:17Z</time>
      </trkpt>
      <trkpt lat="44.43688" lon="1.35666">
        <ele>235</ele>
        <time>2019-04-14T09:02:18Z</time>
      </trkpt>
      <trkpt lat="44.43688" lon="1.35672">
        <ele>235</ele>
        <time>2019-04-14T09:02:19Z</time>
      </trkpt>
      <trkpt lat="44.43688" lon="1.35678">
        <ele>235</ele>
        <time>2019-04-14T09:02:20Z</time>
      </trkpt>
      <trkpt lat="44.43688" lon="1.35685">
        <ele>234</ele>
        <time>2019-04-14T09:02:21Z</time>
      </trkpt>
      <trkpt lat="44.43689" lon="1.35692">
        <ele>233</ele>
        <time>2019-04-14T09:02:22Z</time>
      </trkpt>
      <trkpt lat="44.43689" lon="1.357">
        <ele>233</ele>
        <time>2019-04-14T09:02:23Z</time>
      </trkpt>
      <trkpt lat="44.4369" lon="1.35707">
        <ele>232</ele>
        <time>2019-04-14T09:02:24Z</time>
      </trkpt>
      <trkpt lat="44.4369" lon="1.35714">
        <ele>232</ele>
        <time>2019-04-14T09:02:25Z</time>
      </trkpt>
      <trkpt lat="44.4369" lon="1.35722">
        <ele>231</ele>
        <time>2019-04-14T09:02:26Z</time>
      </trkpt>
      <trkpt lat="44.43691" lon="1.35729">
        <ele>231</ele>
        <time>2019-04-14T09:02:27Z</time>
      </trkpt>
      <trkpt lat="44.43691" lon="1.35736">
        <ele>230</ele>
        <time>2019-04-14T09:02:28Z</time>
      </trkpt>
      <trkpt lat="44.43691" lon="1.35743">
        <ele>229</ele>
        <time>2019-04-14T09:02:29Z</time>
      </trkpt>
      <trkpt lat="44.43692" lon="1.35749">
        <ele>228</ele>
        <time>2019-04-14T09:02:30Z</time>
      </trkpt>
      <trkpt lat="44.43693" lon="1.35754">
        <ele>228</ele>
        <time>2019-04-14T09:02:31Z</time>
      </trkpt>
      <trkpt lat="44.43695" lon="1.35757">
        <ele>227</ele>
        <time>2019-04-14T09:02:32Z</time>
      </trkpt>
      <trkpt lat="44.43697" lon="1.35759">
        <ele>227</ele>
        <time>2019-04-14T09:02:33Z</time>
      </trkpt>
      <trkpt lat="44.43698" lon="1.3576">
        <ele>226</ele>
        <time>2019-04-14T09:02:34Z</time>
      </trkpt>
      <trkpt lat="44.43699" lon="1.35761">
        <ele>226</ele>
        <time>2019-04-14T09:02:35Z</time>
      </trkpt>
      <trkpt lat="44.437" lon="1.35761">
        <ele>226</ele>
        <time>2019-04-14T09:02:36Z</time>
      </trkpt>
      <trkpt lat="44.43701" lon="1.35761">
        <ele>226</ele>
        <time>2019-04-14T09:02:37Z</time>
      </trkpt>
      <trkpt lat="44.43703" lon="1.35761">
        <ele>226</ele>
        <time>2019-04-14T09:02:38Z</time>
      </trkpt>
      <trkpt lat="44.43705" lon="1.3576">
        <ele>226</ele>
        <time>2019-04-14T09:02:39Z</time>
      </trkpt>
      <trkpt lat="44.43707" lon="1.35759">
        <ele>226</ele>
        <time>2019-04-14T09:02:40Z</time>
      </trkpt>
      <trkpt lat="44.43709" lon="1.35759">
        <ele>226</ele>
        <time>2019-04-14T09:02:41Z</time>
      </trkpt>
      <trkpt lat="44.43712" lon="1.35759">
        <ele>226</ele>
        <time>2019-04-14T09:02:42Z</time>
      </trkpt>
      <trkpt lat="44.43715" lon="1.3576">
        <ele>226</ele>
        <time>2019-04-14T09:02:43Z</time>
      </trkpt>
      <trkpt lat="44.43717" lon="1.3576">
        <ele>226</ele>
        <time>2019-04-14T09:02:44Z</time>
      </trkpt>
      <trkpt lat="44.4372" lon="1.35761">
        <ele>226</ele>
        <time>2019-04-14T09:02:45Z</time>
      </trkpt>
      <trkpt lat="44.43723" lon="1.35762">
        <ele>225</ele>
        <time>2019-04-14T09:02:46Z</time>
      </trkpt>
      <trkpt lat="44.43726" lon="1.35765">
        <ele>225</ele>
        <time>2019-04-14T09:02:47Z</time>
      </trkpt>
      <trkpt lat="44.4373" lon="1.35768">
        <ele>224</ele>
        <time>2019-04-14T09:02:48Z</time>
      </trkpt>
      <trkpt lat="44.43735" lon="1.35771">
        <ele>224</ele>
        <time>2019-04-14T09:02:49Z</time>
      </trkpt>
      <trkpt lat="44.43739" lon="1.35775">
        <ele>223</ele>
        <time>2019-04-14T09:02:50Z</time>
      </trkpt>
      <trkpt lat="44.43745" lon="1.3578">
        <ele>222</ele>
        <time>2019-04-14T09:02:51Z</time>
      </trkpt>
      <trkpt lat="44.43751" lon="1.35786">
        <ele>221</ele>
        <time>2019-04-14T09:02:52Z</time>
      </trkpt>
      <trkpt lat="44.43757" lon="1.35791">
        <ele>220</ele>
        <time>2019-04-14T09:02:53Z</time>
      </trkpt>
      <trkpt lat="44.43763" lon="1.35797">
        <ele>218</ele>
        <time>2019-04-14T09:02:54Z</time>
      </trkpt>
      <trkpt lat="44.43768" lon="1.35802">
        <ele>217</ele>
        <time>2019-04-14T09:02:55Z</time>
      </trkpt>
      <trkpt lat="44.43772" lon="1.35807">
        <ele>217</ele>
        <time>2019-04-14T09:02:56Z</time>
      </trkpt>
      <trkpt lat="44.43777" lon="1.35811">
        <ele>216</ele>
        <time>2019-04-14T09:02:57Z</time>
      </trkpt>
      <trkpt lat="44.43782" lon="1.35816">
        <ele>215</ele>
        <time>2019-04-14T09:02:58Z</time>
      </trkpt>
      <trkpt lat="44.43787" lon="1.35821">
        <ele>214</ele>
        <time>2019-04-14T09:02:59Z</time>
      </trkpt>
      <trkpt lat="44.43791" lon="1.35826">
        <ele>213</ele>
        <time>2019-04-14T09:03:00Z</time>
      </trkpt>
      <trkpt lat="44.43796" lon="1.35829">
        <ele>213</ele>
        <time>2019-04-14T09:03:01Z</time>
      </trkpt>
      <trkpt lat="44.438" lon="1.35831">
        <ele>212</ele>
        <time>2019-04-14T09:03:02Z</time>
      </trkpt>
      <trkpt lat="44.43803" lon="1.35832">
        <ele>212</ele>
        <time>2019-04-14T09:03:03Z</time>
      </trkpt>
      <trkpt lat="44.43805" lon="1.35834">
        <ele>212</ele>
        <time>2019-04-14T09:03:04Z</time>
      </trkpt>
      <trkpt lat="44.43807" lon="1.35837">
        <ele>212</ele>
        <time>2019-04-14T09:03:05Z</time>
      </trkpt>
      <trkpt lat="44.43808" lon="1.35841">
        <ele>212</ele>
        <time>2019-04-14T09:03:06Z</time>
      </trkpt>
      <trkpt lat="44.43808" lon="1.35843">
        <ele>212</ele>
        <time>2019-04-14T09:03:07Z</time>
      </trkpt>
      <trkpt lat="44.43808" lon="1.35845">
        <ele>212</ele>
        <time>2019-04-14T09:03:08Z</time>
      </trkpt>
      <trkpt lat="44.43808" lon="1.35846">
        <ele>212</ele>
        <time>2019-04-14T09:03:09Z</time>
      </trkpt>
      <trkpt lat="44.43809" lon="1.35848">
        <ele>212</ele>
        <time>2019-04-14T09:03:10Z</time>
      </trkpt>
      <trkpt lat="44.43809" lon="1.3585">
        <ele>212</ele>
        <time>2019-04-14T09:03:11Z</time>
      </trkpt>
      <trkpt lat="44.43811" lon="1.35852">
        <ele>211</ele>
        <time>2019-04-14T09:03:12Z</time>
      </trkpt>
      <trkpt lat="44.43813" lon="1.35854">
        <ele>211</ele>
        <time>2019-04-14T09:03:13Z</time>
      </trkpt>
      <trkpt lat="44.43815" lon="1.35855">
        <ele>211</ele>
        <time>2019-04-14T09:03:14Z</time>
      </trkpt>
      <trkpt lat="44.43817" lon="1.35857">
        <ele>211</ele>
        <time>2019-04-14T09:03:15Z</time>
      </trkpt>
      <trkpt lat="44.43819" lon="1.3586">
        <ele>211</ele>
        <time>2019-04-14T09:03:16Z</time>
      </trkpt>
      <trkpt lat="44.4382" lon="1.35862">
        <ele>211</ele>
        <time>2019-04-14T09:03:17Z</time>
      </trkpt>
      <trkpt lat="44.43823" lon="1.35866">
        <ele>210</ele>
        <time>2019-04-14T09:03:18Z</time>
      </trkpt>
      <trkpt lat="44.43826" lon="1.35871">
        <ele>210</ele>
        <time>2019-04-14T09:03:19Z</time>
      </trkpt>
      <trkpt lat="44.43829" lon="1.35876">
        <ele>209</ele>
        <time>2019-04-14T09:03:20Z</time>
      </trkpt>
      <trkpt lat="44.43833" lon="1.35881">
        <ele>209</ele>
        <time>2019-04-14T09:03:21Z</time>
      </trkpt>
      <trkpt lat="44.43836" lon="1.35886">
        <ele>209</ele>
        <time>2019-04-14T09:03:22Z</time>
      </trkpt>
      <trkpt lat="44.4384" lon="1.35891">
        <ele>209</ele>
        <time>2019-04-14T09:03:23Z</time>
      </trkpt>
      <trkpt lat="44.43843" lon="1.35895">
        <ele>208</ele>
        <time>2019-04-14T09:03:24Z</time>
      </trkpt>
      <trkpt lat="44.43846" lon="1.359">
        <ele>208</ele>
        <time>2019-04-14T09:03:25Z</time>
      </trkpt>
      <trkpt lat="44.4385" lon="1.35903">
        <ele>208</ele>
        <time>2019-04-14T09:03:26Z</time>
      </trkpt>
      <trkpt lat="44.43854" lon="1.35905">
        <ele>208</ele>
        <time>2019-04-14T09:03:27Z</time>
      </trkpt>
      <trkpt lat="44.43858" lon="1.35907">
        <ele>208</ele>
        <time>2019-04-14T09:03:28Z</time>
      </trkpt>
      <trkpt lat="44.43861" lon="1.35908">
        <ele>208</ele>
        <time>2019-04-14T09:03:29Z</time>
      </trkpt>
      <trkpt lat="44.43864" lon="1.35912">
        <ele>208</ele>
        <time>2019-04-14T09:03:30Z</time>
      </trkpt>
      <trkpt lat="44.43866" lon="1.35916">
        <ele>208</ele>
        <time>2019-04-14T09:03:31Z</time>
      </trkpt>
      <trkpt lat="44.43868" lon="1.3592">
        <ele>207</ele>
        <time>2019-04-14T09:03:32Z</time>
      </trkpt>
      <trkpt lat="44.43868" lon="1.35925">
        <ele>207</ele>
        <time>2019-04-14T09:03:33Z</time>
      </trkpt>
      <trkpt lat="44.43869" lon="1.3593">
        <ele>207</ele>
        <time>2019-04-14T09:03:34Z</time>
      </trkpt>
      <trkpt lat="44.43871" lon="1.35934">
        <ele>207</ele>
        <time>2019-04-14T09:03:35Z</time>
      </trkpt>
      <trkpt lat="44.43874" lon="1.35936">
        <ele>206</ele>
        <time>2019-04-14T09:03:36Z</time>
      </trkpt>
      <trkpt lat="44.43877" lon="1.35938">
        <ele>206</ele>
        <time>2019-04-14T09:03:37Z</time>
      </trkpt>
      <trkpt lat="44.43881" lon="1.35939">
        <ele>206</ele>
        <time>2019-04-14T09:03:38Z</time>
      </trkpt>
      <trkpt lat="44.43884" lon="1.35941">
        <ele>205</ele>
        <time>2019-04-14T09:03:39Z</time>
      </trkpt>
      <trkpt lat="44.43887" lon="1.35944">
        <ele>205</ele>
        <time>2019-04-14T09:03:40Z</time>
      </trkpt>
      <trkpt lat="44.43891" lon="1.35945">
        <ele>205</ele>
        <time>2019-04-14T09:03:41Z</time>
      </trkpt>
      <trkpt lat="44.43895" lon="1.35944">
        <ele>204</ele>
        <time>2019-04-14T09:03:42Z</time>
      </trkpt>
      <trkpt lat="44.43898" lon="1.35943">
        <ele>204</ele>
        <time>2019-04-14T09:03:43Z</time>
      </trkpt>
      <trkpt lat="44.43901" lon="1.35942">
        <ele>204</ele>
        <time>2019-04-14T09:03:44Z</time>
      </trkpt>
      <trkpt lat="44.43904" lon="1.35942">
        <ele>204</ele>
        <time>2019-04-14T09:03:45Z</time>
      </trkpt>
      <trkpt lat="44.43907" lon="1.35943">
        <ele>204</ele>
        <time>2019-04-14T09:03:46Z</time>
      </trkpt>
      <trkpt lat="44.4391" lon="1.35944">
        <ele>203</ele>
        <time>2019-04-14T09:03:47Z</time>
      </trkpt>
      <trkpt lat="44.43912" lon="1.35945">
        <ele>203</ele>
        <time>2019-04-14T09:03:48Z</time>
      </trkpt>
      <trkpt lat="44.43914" lon="1.35944">
        <ele>203</ele>
        <time>2019-04-14T09:03:49Z</time>
      </trkpt>
      <trkpt lat="44.43916" lon="1.35943">
        <ele>202</ele>
        <time>2019-04-14T09:03:50Z</time>
      </trkpt>
      <trkpt lat="44.43918" lon="1.35944">
        <ele>202</ele>
        <time>2019-04-14T09:03:51Z</time>
      </trkpt>
      <trkpt lat="44.43919" lon="1.35944">
        <ele>202</ele>
        <time>2019-04-14T09:03:52Z</time>
      </trkpt>
      <trkpt lat="44.43922" lon="1.35946">
        <ele>201</ele>
        <time>2019-04-14T09:03:53Z</time>
      </trkpt>
      <trkpt lat="44.43924" lon="1.35947">
        <ele>201</ele>
        <time>2019-04-14T09:03:54Z</time>
      </trkpt>
      <trkpt lat="44.43927" lon="1.35948">
        <ele>200</ele>
        <time>2019-04-14T09:03:55Z</time>
      </trkpt>
      <trkpt lat="44.43929" lon="1.35949">
        <ele>200</ele>
        <time>2019-04-14T09:03:56Z</time>
      </trkpt>
      <trkpt lat="44.43931" lon="1.35951">
        <ele>200</ele>
        <time>2019-04-14T09:03:57Z</time>
      </trkpt>
      <trkpt lat="44.43932" lon="1.35953">
        <ele>199</ele>
        <time>2019-04-14T09:03:58Z</time>
      </trkpt>
      <trkpt lat="44.43932" lon="1.35957">
        <ele>199</ele>
        <time>2019-04-14T09:03:59Z</time>
      </trkpt>
      <trkpt lat="44.43932" lon="1.35961">
        <ele>199</ele>
        <time>2019-04-14T09:04:00Z</time>
      </trkpt>
      <trkpt lat="44.43931" lon="1.35964">
        <ele>199</ele>
        <time>2019-04-14T09:04:01Z</time>
      </trkpt>
      <trkpt lat="44.43931" lon="1.35967">
        <ele>198</ele>
        <time>2019-04-14T09:04:02Z</time>
      </trkpt>
      <trkpt lat="44.43931" lon="1.35969">
        <ele>198</ele>
        <time>2019-04-14T09:04:03Z</time>
      </trkpt>
      <trkpt lat="44.43931" lon="1.35971">
        <ele>198</ele>
        <time>2019-04-14T09:04:04Z</time>
      </trkpt>
      <trkpt lat="44.4393" lon="1.35972">
        <ele>198</ele>
        <time>2019-04-14T09:04:05Z</time>
      </trkpt>
      <trkpt lat="44.43931" lon="1.35974">
        <ele>198</ele>
        <time>2019-04-14T09:04:06Z</time>
      </trkpt>
      <trkpt lat="44.43932" lon="1.35976">
        <ele>197</ele>
        <time>2019-04-14T09:04:07Z</time>
      </trkpt>
      <trkpt lat="44.43933" lon="1.35978">
        <ele>196</ele>
        <time>2019-04-14T09:04:08Z</time>
      </trkpt>
      <trkpt lat="44.43934" lon="1.3598">
        <ele>196</ele>
        <time>2019-04-14T09:04:09Z</time>
      </trkpt>
      <trkpt lat="44.43935" lon="1.35982">
        <ele>195</ele>
        <time>2019-04-14T09:04:10Z</time>
      </trkpt>
      <trkpt lat="44.43937" lon="1.35984">
        <ele>194</ele>
        <time>2019-04-14T09:04:11Z</time>
      </trkpt>
      <trkpt lat="44.43938" lon="1.35985">
        <ele>194</ele>
        <time>2019-04-14T09:04:12Z</time>
      </trkpt>
      <trkpt lat="44.43939" lon="1.35986">
        <ele>193</ele>
        <time>2019-04-14T09:04:13Z</time>
      </trkpt>
      <trkpt lat="44.4394" lon="1.35986">
        <ele>192</ele>
        <time>2019-04-14T09:04:14Z</time>
      </trkpt>
      <trkpt lat="44.43942" lon="1.35987">
        <ele>192</ele>
        <time>2019-04-14T09:04:15Z</time>
      </trkpt>
      <trkpt lat="44.43944" lon="1.35987">
        <ele>191</ele>
        <time>2019-04-14T09:04:16Z</time>
      </trkpt>
      <trkpt lat="44.43946" lon="1.35988">
        <ele>190</ele>
        <time>2019-04-14T09:04:17Z</time>
      </trkpt>
      <trkpt lat="44.4395" lon="1.35989">
        <ele>190</ele>
        <time>2019-04-14T09:04:18Z</time>
      </trkpt>
      <trkpt lat="44.43954" lon="1.3599">
        <ele>189</ele>
        <time>2019-04-14T09:04:19Z</time>
      </trkpt>
      <trkpt lat="44.43957" lon="1.35991">
        <ele>188</ele>
        <time>2019-04-14T09:04:20Z</time>
      </trkpt>
      <trkpt lat="44.43962" lon="1.3599">
        <ele>187</ele>
        <time>2019-04-14T09:04:21Z</time>
      </trkpt>
      <trkpt lat="44.43966" lon="1.3599">
        <ele>186</ele>
        <time>2019-04-14T09:04:22Z</time>
      </trkpt>
      <trkpt lat="44.4397" lon="1.3599">
        <ele>186</ele>
        <time>2019-04-14T09:04:23Z</time>
      </trkpt>
      <trkpt lat="44.43974" lon="1.3599">
        <ele>185</ele>
        <time>2019-04-14T09:04:24Z</time>
      </trkpt>
      <trkpt lat="44.43975" lon="1.3599">
        <ele>184</ele>
        <time>2019-04-14T09:04:25Z</time>
      </trkpt>
      <trkpt lat="44.43977" lon="1.35991">
        <ele>183</ele>
        <time>2019-04-14T09:04:26Z</time>
      </trkpt>
      <trkpt lat="44.43979" lon="1.35991">
        <ele>183</ele>
        <time>2019-04-14T09:04:27Z</time>
      </trkpt>
      <trkpt lat="44.43981" lon="1.35989">
        <ele>183</ele>
        <time>2019-04-14T09:04:28Z</time>
      </trkpt>
      <trkpt lat="44.43985" lon="1.35988">
        <ele>182</ele>
        <time>2019-04-14T09:04:29Z</time>
      </trkpt>
      <trkpt lat="44.43988" lon="1.35987">
        <ele>181</ele>
        <time>2019-04-14T09:04:30Z</time>
      </trkpt>
      <trkpt lat="44.43991" lon="1.35988">
        <ele>181</ele>
        <time>2019-04-14T09:04:31Z</time>
      </trkpt>
      <trkpt lat="44.43994" lon="1.35989">
        <ele>180</ele>
        <time>2019-04-14T09:04:32Z</time>
      </trkpt>
      <trkpt lat="44.43997" lon="1.35991">
        <ele>177</ele>
        <time>2019-04-14T09:04:33Z</time>
      </trkpt>
      <trkpt lat="44.44" lon="1.3599">
        <ele>177</ele>
        <time>2019-04-14T09:04:34Z</time>
      </trkpt>
      <trkpt lat="44.44003" lon="1.35989">
        <ele>176</ele>
        <time>2019-04-14T09:04:35Z</time>
      </trkpt>
      <trkpt lat="44.44007" lon="1.35988">
        <ele>175</ele>
        <time>2019-04-14T09:04:36Z</time>
      </trkpt>
      <trkpt lat="44.4401" lon="1.35986">
        <ele>174</ele>
        <time>2019-04-14T09:04:37Z</time>
      </trkpt>
      <trkpt lat="44.44012" lon="1.35986">
        <ele>173</ele>
        <time>2019-04-14T09:04:38Z</time>
      </trkpt>
      <trkpt lat="44.44013" lon="1.35986">
        <ele>172</ele>
        <time>2019-04-14T09:04:39Z</time>
      </trkpt>
      <trkpt lat="44.44015" lon="1.35985">
        <ele>172</ele>
        <time>2019-04-14T09:04:40Z</time>
      </trkpt>
      <trkpt lat="44.44018" lon="1.35983">
        <ele>171</ele>
        <time>2019-04-14T09:04:41Z</time>
      </trkpt>
      <trkpt lat="44.44021" lon="1.35982">
        <ele>170</ele>
        <time>2019-04-14T09:04:42Z</time>
      </trkpt>
      <trkpt lat="44.44024" lon="1.3598">
        <ele>169</ele>
        <time>2019-04-14T09:04:43Z</time>
      </trkpt>
      <trkpt lat="44.44026" lon="1.35978">
        <ele>168</ele>
        <time>2019-04-14T09:04:44Z</time>
      </trkpt>
      <trkpt lat="44.44028" lon="1.35977">
        <ele>167</ele>
        <time>2019-04-14T09:04:45Z</time>
      </trkpt>
      <trkpt lat="44.4403" lon="1.35977">
        <ele>167</ele>
        <time>2019-04-14T09:04:46Z</time>
      </trkpt>
      <trkpt lat="44.44032" lon="1.35976">
        <ele>166</ele>
        <time>2019-04-14T09:04:47Z</time>
      </trkpt>
      <trkpt lat="44.44034" lon="1.35976">
        <ele>165</ele>
        <time>2019-04-14T09:04:48Z</time>
      </trkpt>
      <trkpt lat="44.44036" lon="1.35976">
        <ele>164</ele>
        <time>2019-04-14T09:04:49Z</time>
      </trkpt>
      <trkpt lat="44.44038" lon="1.35976">
        <ele>163</ele>
        <time>2019-04-14T09:04:50Z</time>
      </trkpt>
      <trkpt lat="44.44039" lon="1.35976">
        <ele>161</ele>
        <time>2019-04-14T09:04:51Z</time>
      </trkpt>
      <trkpt lat="44.4404" lon="1.35976">
        <ele>161</ele>
        <time>2019-04-14T09:04:52Z</time>
      </trkpt>
      <trkpt lat="44.44042" lon="1.35977">
        <ele>160</ele>
        <time>2019-04-14T09:04:53Z</time>
      </trkpt>
      <trkpt lat="44.44045" lon="1.35977">
        <ele>159</ele>
        <time>2019-04-14T09:04:54Z</time>
      </trkpt>
      <trkpt lat="44.44047" lon="1.35977">
        <ele>157</ele>
        <time>2019-04-14T09:04:55Z</time>
      </trkpt>
      <trkpt lat="44.4405" lon="1.35977">
        <ele>156</ele>
        <time>2019-04-14T09:04:56Z</time>
      </trkpt>
      <trkpt lat="44.44054" lon="1.35976">
        <ele>155</ele>
        <time>2019-04-14T09:04:57Z</time>
      </trkpt>
      <trkpt lat="44.44057" lon="1.35975">
        <ele>154</ele>
        <time>2019-04-14T09:04:58Z</time>
      </trkpt>
      <trkpt lat="44.4406" lon="1.35973">
        <ele>153</ele>
        <time>2019-04-14T09:04:59Z</time>
      </trkpt>
      <trkpt lat="44.44062" lon="1.3597">
        <ele>152</ele>
        <time>2019-04-14T09:05:00Z</time>
      </trkpt>
      <trkpt lat="44.44063" lon="1.35966">
        <ele>151</ele>
        <time>2019-04-14T09:05:01Z</time>
      </trkpt>
      <trkpt lat="44.44064" lon="1.35963">
        <ele>150</ele>
        <time>2019-04-14T09:05:02Z</time>
      </trkpt>
      <trkpt lat="44.44065" lon="1.3596">
        <ele>149</ele>
        <time>2019-04-14T09:05:03Z</time>
      </trkpt>
      <trkpt lat="44.44067" lon="1.35958">
        <ele>148</ele>
        <time>2019-04-14T09:05:04Z</time>
      </trkpt>
      <trkpt lat="44.4407" lon="1.35954">
        <ele>147</ele>
        <time>2019-04-14T09:05:05Z</time>
      </trkpt>
      <trkpt lat="44.44073" lon="1.35952">
        <ele>146</ele>
        <time>2019-04-14T09:05:06Z</time>
      </trkpt>
      <trkpt lat="44.44076" lon="1.35952">
        <ele>146</ele>
        <time>2019-04-14T09:05:07Z</time>
      </trkpt>
      <trkpt lat="44.44079" lon="1.35954">
        <ele>145</ele>
        <time>2019-04-14T09:05:08Z</time>
      </trkpt>
      <trkpt lat="44.4408" lon="1.35957">
        <ele>144</ele>
        <time>2019-04-14T09:05:09Z</time>
      </trkpt>
      <trkpt lat="44.4408" lon="1.35962">
        <ele>144</ele>
        <time>2019-04-14T09:05:10Z</time>
      </trkpt>
      <trkpt lat="44.44083" lon="1.35964">
        <ele>144</ele>
        <time>2019-04-14T09:05:11Z</time>
      </trkpt>
      <trkpt lat="44.44087" lon="1.35966">
        <ele>143</ele>
        <time>2019-04-14T09:05:12Z</time>
      </trkpt>
      <trkpt lat="44.44092" lon="1.3597">
        <ele>142</ele>
        <time>2019-04-14T09:05:13Z</time>
      </trkpt>
      <trkpt lat="44.44096" lon="1.35975">
        <ele>142</ele>
        <time>2019-04-14T09:05:14Z</time>
      </trkpt>
      <trkpt lat="44.44099" lon="1.35979">
        <ele>141</ele>
        <time>2019-04-14T09:05:15Z</time>
      </trkpt>
      <trkpt lat="44.44101" lon="1.35982">
        <ele>141</ele>
        <time>2019-04-14T09:05:16Z</time>
      </trkpt>
      <trkpt lat="44.44101" lon="1.35983">
        <ele>141</ele>
        <time>2019-04-14T09:05:17Z</time>
      </trkpt>
      <trkpt lat="44.44102" lon="1.35982">
        <ele>141</ele>
        <time>2019-04-14T09:05:18Z</time>
      </trkpt>
      <trkpt lat="44.44102" lon="1.35982">
        <ele>141</ele>
        <time>2019-04-14T09:05:19Z</time>
      </trkpt>
      <trkpt lat="44.44102" lon="1.35982">
        <ele>141</ele>
        <time>2019-04-14T09:05:20Z</time>
      </trkpt>
      <trkpt lat="44.44102" lon="1.35982">
        <ele>141</ele>
        <time>2019-04-14T09:05:21Z</time>
      </trkpt>
      <trkpt lat="44.44102" lon="1.35982">
        <ele>141</ele>
        <time>2019-04-14T09:05:22Z</time>
      </trkpt>
      <trkpt lat="44.44103" lon="1.35982">
        <ele>141</ele>
        <time>2019-04-14T09:05:23Z</time>
      </trkpt>
      <trkpt lat="44.44103" lon="1.35982">
        <ele>141</ele>
        <time>2019-04-14T09:05:24Z</time>
      </trkpt>
      <trkpt lat="44.44116" lon="1.35978">
        <ele>135</ele>
        <time>2019-04-14T09:10:01Z</time>
      </trkpt>
      <trkpt lat="44.44116" lon="1.35979">
        <ele>135</ele>
        <time>2019-04-14T09:10:02Z</time>
      </trkpt>
      <trkpt lat="44.44116" lon="1.35979">
        <ele>135</ele>
        <time>2019-04-14T09:10:03Z</time>
      </trkpt>
      <trkpt lat="44.44116" lon="1.35978">
        <ele>135</ele>
        <time>2019-04-14T09:10:04Z</time>
      </trkpt>
      <trkpt lat="44.44116" lon="1.35978">
        <ele>135</ele>
        <time>2019-04-14T09:10:05Z</time>
      </trkpt>
      <trkpt lat="44.44142" lon="1.35989">
        <ele>131</ele>
        <time>2019-04-14T09:10:19Z</time>
      </trkpt>
      <trkpt lat="44.44144" lon="1.35992">
        <ele>131</ele>
        <time>2019-04-14T09:10:20Z</time>
      </trkpt>
      <trkpt lat="44.44145" lon="1.35995">
        <ele>130</ele>
        <time>2019-04-14T09:10:21Z</time>
      </trkpt>
      <trkpt lat="44.44147" lon="1.35996">
        <ele>130</ele>
        <time>2019-04-14T09:10:22Z</time>
      </trkpt>
      <trkpt lat="44.44149" lon="1.35999">
        <ele>129</ele>
        <time>2019-04-14T09:10:23Z</time>
      </trkpt>
      <trkpt lat="44.4415" lon="1.36001">
        <ele>129</ele>
        <time>2019-04-14T09:10:24Z</time>
      </trkpt>
      <trkpt lat="44.44151" lon="1.36003">
        <ele>128</ele>
        <time>2019-04-14T09:10:25Z</time>
      </trkpt>
      <trkpt lat="44.44152" lon="1.36005">
        <ele>128</ele>
        <time>2019-04-14T09:10:26Z</time>
      </trkpt>
      <trkpt lat="44.44153" lon="1.36008">
        <ele>127</ele>
        <time>2019-04-14T09:10:27Z</time>
      </trkpt>
      <trkpt lat="44.44154" lon="1.36011">
        <ele>127</ele>
        <time>2019-04-14T09:10:28Z</time>
      </trkpt>
      <trkpt lat="44.44155" lon="1.36015">
        <ele>126</ele>
        <time>2019-04-14T09:10:29Z</time>
      </trkpt>
      <trkpt lat="44.44155" lon="1.36019">
        <ele>126</ele>
        <time>2019-04-14T09:10:30Z</time>
      </trkpt>
      <trkpt lat="44.44156" lon="1.36022">
        <ele>125</ele>
        <time>2019-04-14T09:10:31Z</time>
      </trkpt>
      <trkpt lat="44.44157" lon="1.36024">
        <ele>125</ele>
        <time>2019-04-14T09:10:32Z</time>
      </trkpt>
      <trkpt lat="44.44157" lon="1.36026">
        <ele>125</ele>
        <time>2019-04-14T09:10:33Z</time>
      </trkpt>
      <trkpt lat="44.44158" lon="1.36027">
        <ele>125</ele>
        <time>2019-04-14T09:10:34Z</time>
      </trkpt>
      <trkpt lat="44.44159" lon="1.36028">
        <ele>125</ele>
        <time>2019-04-14T09:10:35Z</time>
      </trkpt>
      <trkpt lat="44.44159" lon="1.3603">
        <ele>125</ele>
        <time>2019-04-14T09:10:36Z</time>
      </trkpt>
      <trkpt lat="44.44159" lon="1.36031">
        <ele>125</ele>
        <time>2019-04-14T09:10:37Z</time>
      </trkpt>
      <trkpt lat="44.44159" lon="1.36032">
        <ele>124</ele>
        <time>2019-04-14T09:10:38Z</time>
      </trkpt>
      <trkpt lat="44.44159" lon="1.36033">
        <ele>124</ele>
        <time>2019-04-14T09:10:39Z</time>
      </trkpt>
      <trkpt lat="44.44158" lon="1.36035">
        <ele>124</ele>
        <time>2019-04-14T09:10:40Z</time>
      </trkpt>
      <trkpt lat="44.44159" lon="1.36036">
        <ele>124</ele>
        <time>2019-04-14T09:10:41Z</time>
      </trkpt>
      <trkpt lat="44.44159" lon="1.36035">
        <ele>123</ele>
        <time>2019-04-14T09:10:42Z</time>
      </trkpt>
      <trkpt lat="44.44161" lon="1.36034">
        <ele>123</ele>
        <time>2019-04-14T09:10:43Z</time>
      </trkpt>
      <trkpt lat="44.44163" lon="1.36033">
        <ele>123</ele>
        <time>2019-04-14T09:10:44Z</time>
      </trkpt>
      <trkpt lat="44.44166" lon="1.36032">
        <ele>122</ele>
        <time>2019-04-14T09:10:45Z</time>
      </trkpt>
      <trkpt lat="44.4417" lon="1.36028">
        <ele>122</ele>
        <time>2019-04-14T09:10:46Z</time>
      </trkpt>
      <trkpt lat="44.44174" lon="1.36025">
        <ele>121</ele>
        <time>2019-04-14T09:10:47Z</time>
      </trkpt>
      <trkpt lat="44.44179" lon="1.36023">
        <ele>121</ele>
        <time>2019-04-14T09:10:48Z</time>
      </trkpt>
      <trkpt lat="44.44183" lon="1.3602">
        <ele>121</ele>
        <time>2019-04-14T09:10:49Z</time>
      </trkpt>
      <trkpt lat="44.4419" lon="1.36017">
        <ele>121</ele>
        <time>2019-04-14T09:10:50Z</time>
      </trkpt>
      <trkpt lat="44.44196" lon="1.36014">
        <ele>121</ele>
        <time>2019-04-14T09:10:51Z</time>
      </trkpt>
      <trkpt lat="44.44202" lon="1.3601">
        <ele>121</ele>
        <time>2019-04-14T09:10:52Z</time>
      </trkpt>
      <trkpt lat="44.44206" lon="1.36008">
        <ele>121</ele>
        <time>2019-04-14T09:10:53Z</time>
      </trkpt>
      <trkpt lat="44.4421" lon="1.36004">
        <ele>121</ele>
        <time>2019-04-14T09:10:54Z</time>
      </trkpt>
      <trkpt lat="44.44213" lon="1.35999">
        <ele>121</ele>
        <time>2019-04-14T09:10:55Z</time>
      </trkpt>
      <trkpt lat="44.44215" lon="1.35995">
        <ele>121</ele>
        <time>2019-04-14T09:10:56Z</time>
      </trkpt>
      <trkpt lat="44.44219" lon="1.35991">
        <ele>121</ele>
        <time>2019-04-14T09:10:57Z</time>
      </trkpt>
      <trkpt lat="44.44223" lon="1.35988">
        <ele>121</ele>
        <time>2019-04-14T09:10:58Z</time>
      </trkpt>
      <trkpt lat="44.44227" lon="1.35985">
        <ele>121</ele>
        <time>2019-04-14T09:10:59Z</time>
      </trkpt>
      <trkpt lat="44.44231" lon="1.35983">
        <ele>121</ele>
        <time>2019-04-14T09:11:00Z</time>
      </trkpt>
      <trkpt lat="44.44234" lon="1.3598">
        <ele>121</ele>
        <time>2019-04-14T09:11:01Z</time>
      </trkpt>
      <trkpt lat="44.44238" lon="1.35977">
        <ele>121</ele>
        <time>2019-04-14T09:11:02Z</time>
      </trkpt>
      <trkpt lat="44.44241" lon="1.35974">
        <ele>121</ele>
        <time>2019-04-14T09:11:03Z</time>
      </trkpt>
      <trkpt lat="44.44243" lon="1.3597">
        <ele>121</ele>
        <time>2019-04-14T09:11:04Z</time>
      </trkpt>
      <trkpt lat="44.44247" lon="1.35968">
        <ele>121</ele>
        <time>2019-04-14T09:11:05Z</time>
      </trkpt>
      <trkpt lat="44.4425" lon="1.35966">
        <ele>121</ele>
        <time>2019-04-14T09:11:06Z</time>
      </trkpt>
      <trkpt lat="44.44251" lon="1.35962">
        <ele>121</ele>
        <time>2019-04-14T09:11:07Z</time>
      </trkpt>
      <trkpt lat="44.44254" lon="1.35959">
        <ele>121</ele>
        <time>2019-04-14T09:11:08Z</time>
      </trkpt>
      <trkpt lat="44.44255" lon="1.35959">
        <ele>121</ele>
        <time>2019-04-14T09:11:09Z</time>
      </trkpt>
      <trkpt lat="44.44258" lon="1.35959">
        <ele>121</ele>
        <time>2019-04-14T09:11:10Z</time>
      </trkpt>
      <trkpt lat="44.4426" lon="1.35958">
        <ele>121</ele>
        <time>2019-04-14T09:11:11Z</time>
      </trkpt>
      <trkpt lat="44.4426" lon="1.35957">
        <ele>121</ele>
        <time>2019-04-14T09:11:12Z</time>
      </trkpt>
      <trkpt lat="44.4426" lon="1.35957">
        <ele>121</ele>
        <time>2019-04-14T09:11:13Z</time>
      </trkpt>
      <trkpt lat="44.4426" lon="1.35957">
        <ele>121</ele>
        <time>2019-04-14T09:11:14Z</time>
      </trkpt>
      <trkpt lat="44.44261" lon="1.35956">
        <ele>121</ele>
        <time>2019-04-14T09:11:15Z</time>
      </trkpt>
      <trkpt lat="44.44261" lon="1.35956">
        <ele>121</ele>
        <time>2019-04-14T09:11:16Z</time>
      </trkpt>
      <trkpt lat="44.44296" lon="1.35947">
        <ele>121</ele>
        <time>2019-04-14T09:11:40Z</time>
      </trkpt>
      <trkpt lat="44.44299" lon="1.35945">
        <ele>121</ele>
        <time>2019-04-14T09:11:41Z</time>
      </trkpt>
      <trkpt lat="44.44302" lon="1.35943">
        <ele>121</ele>
        <time>2019-04-14T09:11:42Z</time>
      </trkpt>
      <trkpt lat="44.44305" lon="1.3594">
        <ele>121</ele>
        <time>2019-04-14T09:11:43Z</time>
      </trkpt>
      <trkpt lat="44.44307" lon="1.35939">
        <ele>121</ele>
        <time>2019-04-14T09:11:44Z</time>
      </trkpt>
      <trkpt lat="44.44309" lon="1.35938">
        <ele>121</ele>
        <time>2019-04-14T09:11:45Z</time>
      </trkpt>
      <trkpt lat="44.44312" lon="1.35937">
        <ele>120</ele>
        <time>2019-04-14T09:11:46Z</time>
      </trkpt>
      <trkpt lat="44.44315" lon="1.35936">
        <ele>120</ele>
        <time>2019-04-14T09:11:47Z</time>
      </trkpt>
      <trkpt lat="44.44319" lon="1.35935">
        <ele>120</ele>
        <time>2019-04-14T09:11:48Z</time>
      </trkpt>
      <trkpt lat="44.44321" lon="1.35933">
        <ele>120</ele>
        <time>2019-04-14T09:11:49Z</time>
      </trkpt>
      <trkpt lat="44.44323" lon="1.3593">
        <ele>120</ele>
        <time>2019-04-14T09:11:50Z</time>
      </trkpt>
      <trkpt lat="44.44325" lon="1.35928">
        <ele>120</ele>
        <time>2019-04-14T09:11:51Z</time>
      </trkpt>
      <trkpt lat="44.44327" lon="1.35926">
        <ele>120</ele>
        <time>2019-04-14T09:11:52Z</time>
      </trkpt>
      <trkpt lat="44.4433" lon="1.35924">
        <ele>120</ele>
        <time>2019-04-14T09:11:53Z</time>
      </trkpt>
      <trkpt lat="44.44332" lon="1.35923">
        <ele>121</ele>
        <time>2019-04-14T09:11:54Z</time>
      </trkpt>
      <trkpt lat="44.44333" lon="1.35922">
        <ele>121</ele>
        <time>2019-04-14T09:11:55Z</time>
      </trkpt>
      <trkpt lat="44.44333" lon="1.35921">
        <ele>121</ele>
        <time>2019-04-14T09:11:56Z</time>
      </trkpt>
      <trkpt lat="44.44334" lon="1.35922">
        <ele>121</ele>
        <time>2019-04-14T09:11:57Z</time>
      </trkpt>
      <trkpt lat="44.44335" lon="1.35921">
        <ele>121</ele>
        <time>2019-04-14T09:11:58Z</time>
      </trkpt>
      <trkpt lat="44.44337" lon="1.35921">
        <ele>121</ele>
        <time>2019-04-14T09:11:59Z</time>
      </trkpt>
      <trkpt lat="44.4434" lon="1.3592">
        <ele>121</ele>
        <time>2019-04-14T09:12:00Z</time>
      </trkpt>
      <trkpt lat="44.44344" lon="1.35919">
        <ele>121</ele>
        <time>2019-04-14T09:12:01Z</time>
      </trkpt>
      <trkpt lat="44.44349" lon="1.35917">
        <ele>121</ele>
        <time>2019-04-14T09:12:02Z</time>
      </trkpt>
      <trkpt lat="44.44353" lon="1.35916">
        <ele>121</ele>
        <time>2019-04-14T09:12:03Z</time>
      </trkpt>
      <trkpt lat="44.44357" lon="1.35915">
        <ele>121</ele>
        <time>2019-04-14T09:12:04Z</time>
      </trkpt>
      <trkpt lat="44.44361" lon="1.35916">
        <ele>121</ele>
        <time>2019-04-14T09:12:05Z</time>
      </trkpt>
      <trkpt lat="44.44366" lon="1.35916">
        <ele>121</ele>
        <time>2019-04-14T09:12:06Z</time>
      </trkpt>
      <trkpt lat="44.4437" lon="1.35916">
        <ele>121</ele>
        <time>2019-04-14T09:12:07Z</time>
      </trkpt>
      <trkpt lat="44.44375" lon="1.35915">
        <ele>120</ele>
        <time>2019-04-14T09:12:08Z</time>
      </trkpt>
      <trkpt lat="44.44378" lon="1.35914">
        <ele>120</ele>
        <time>2019-04-14T09:12:09Z</time>
      </trkpt>
      <trkpt lat="44.4438" lon="1.35914">
        <ele>120</ele>
        <time>2019-04-14T09:12:10Z</time>
      </trkpt>
      <trkpt lat="44.44382" lon="1.35915">
        <ele>120</ele>
        <time>2019-04-14T09:12:11Z</time>
      </trkpt>
      <trkpt lat="44.44384" lon="1.35916">
        <ele>120</ele>
        <time>2019-04-14T09:12:12Z</time>
      </trkpt>
      <trkpt lat="44.44388" lon="1.35916">
        <ele>120</ele>
        <time>2019-04-14T09:12:13Z</time>
      </trkpt>
      <trkpt lat="44.44391" lon="1.35916">
        <ele>120</ele>
        <time>2019-04-14T09:12:14Z</time>
      </trkpt>
      <trkpt lat="44.44394" lon="1.35917">
        <ele>120</ele>
        <time>2019-04-14T09:12:15Z</time>
      </trkpt>
      <trkpt lat="44.44397" lon="1.35916">
        <ele>120</ele>
        <time>2019-04-14T09:12:16Z</time>
      </trkpt>
      <trkpt lat="44.44401" lon="1.35915">
        <ele>120</ele>
        <time>2019-04-14T09:12:17Z</time>
      </trkpt>
      <trkpt lat="44.44405" lon="1.35915">
        <ele>120</ele>
        <time>2019-04-14T09:12:18Z</time>
      </trkpt>
      <trkpt lat="44.44409" lon="1.35915">
        <ele>120</ele>
        <time>2019-04-14T09:12:19Z</time>
      </trkpt>
      <trkpt lat="44.4441" lon="1.35915">
        <ele>120</ele>
        <time>2019-04-14T09:12:20Z</time>
      </trkpt>
      <trkpt lat="44.44413" lon="1.35915">
        <ele>120</ele>
        <time>2019-04-14T09:12:21Z</time>
      </trkpt>
      <trkpt lat="44.44416" lon="1.35916">
        <ele>120</ele>
        <time>2019-04-14T09:12:22Z</time>
      </trkpt>
      <trkpt lat="44.44417" lon="1.35916">
        <ele>120</ele>
        <time>2019-04-14T09:12:23Z</time>
      </trkpt>
      <trkpt lat="44.44421" lon="1.35916">
        <ele>120</ele>
        <time>2019-04-14T09:12:24Z</time>
      </trkpt>
      <trkpt lat="44.44425" lon="1.35917">
        <ele>120</ele>
        <time>2019-04-14T09:12:25Z</time>
      </trkpt>
      <trkpt lat="44.44428" lon="1.35917">
        <ele>120</ele>
        <time>2019-04-14T09:12:26Z</time>
      </trkpt>
      <trkpt lat="44.44431" lon="1.35916">
        <ele>120</ele>
        <time>2019-04-14T09:12:27Z</time>
      </trkpt>
      <trkpt lat="44.44433" lon="1.35916">
        <ele>120</ele>
        <time>2019-04-14T09:12:28Z</time>
      </trkpt>
      <trkpt lat="44.44437" lon="1.35917">
        <ele>120</ele>
        <time>2019-04-14T09:12:29Z</time>
      </trkpt>
      <trkpt lat="44.44441" lon="1.35918">
        <ele>120</ele>
        <time>2019-04-14T09:12:30Z</time>
      </trkpt>
      <trkpt lat="44.44444" lon="1.35917">
        <ele>120</ele>
        <time>2019-04-14T09:12:31Z</time>
      </trkpt>
      <trkpt lat="44.44448" lon="1.35918">
        <ele>120</ele>
        <time>2019-04-14T09:12:32Z</time>
      </trkpt>
      <trkpt lat="44.44451" lon="1.35919">
        <ele>120</ele>
        <time>2019-04-14T09:12:33Z</time>
      </trkpt>
      <trkpt lat="44.44454" lon="1.35919">
        <ele>120</ele>
        <time>2019-04-14T09:12:34Z</time>
      </trkpt>
      <trkpt lat="44.44457" lon="1.3592">
        <ele>120</ele>
        <time>2019-04-14T09:12:35Z</time>
      </trkpt>
      <trkpt lat="44.44459" lon="1.3592">
        <ele>120</ele>
        <time>2019-04-14T09:12:36Z</time>
      </trkpt>
      <trkpt lat="44.44462" lon="1.35921">
        <ele>120</ele>
        <time>2019-04-14T09:12:37Z</time>
      </trkpt>
      <trkpt lat="44.44465" lon="1.35921">
        <ele>120</ele>
        <time>2019-04-14T09:12:38Z</time>
      </trkpt>
      <trkpt lat="44.44468" lon="1.35922">
        <ele>120</ele>
        <time>2019-04-14T09:12:39Z</time>
      </trkpt>
      <trkpt lat="44.4447" lon="1.35922">
        <ele>119</ele>
        <time>2019-04-14T09:12:40Z</time>
      </trkpt>
      <trkpt lat="44.44474" lon="1.35923">
        <ele>119</ele>
        <time>2019-04-14T09:12:41Z</time>
      </trkpt>
      <trkpt lat="44.44478" lon="1.35923">
        <ele>118</ele>
        <time>2019-04-14T09:12:42Z</time>
      </trkpt>
      <trkpt lat="44.44482" lon="1.35924">
        <ele>118</ele>
        <time>2019-04-14T09:12:43Z</time>
      </trkpt>
      <trkpt lat="44.44487" lon="1.35923">
        <ele>118</ele>
        <time>2019-04-14T09:12:44Z</time>
      </trkpt>
      <trkpt lat="44.44491" lon="1.35923">
        <ele>118</ele>
        <time>2019-04-14T09:12:45Z</time>
      </trkpt>
      <trkpt lat="44.44494" lon="1.35924">
        <ele>118</ele>
        <time>2019-04-14T09:12:46Z</time>
      </trkpt>
      <trkpt lat="44.44497" lon="1.35926">
        <ele>118</ele>
        <time>2019-04-14T09:12:47Z</time>
      </trkpt>
      <trkpt lat="44.44501" lon="1.35927">
        <ele>118</ele>
        <time>2019-04-14T09:12:48Z</time>
      </trkpt>
      <trkpt lat="44.44505" lon="1.3593">
        <ele>118</ele>
        <time>2019-04-14T09:12:49Z</time>
      </trkpt>
      <trkpt lat="44.44507" lon="1.35931">
        <ele>118</ele>
        <time>2019-04-14T09:12:50Z</time>
      </trkpt>
      <trkpt lat="44.4451" lon="1.35931">
        <ele>118</ele>
        <time>2019-04-14T09:12:51Z</time>
      </trkpt>
      <trkpt lat="44.44511" lon="1.35932">
        <ele>118</ele>
        <time>2019-04-14T09:12:52Z</time>
      </trkpt>
      <trkpt lat="44.44514" lon="1.35934">
        <ele>118</ele>
        <time>2019-04-14T09:12:53Z</time>
      </trkpt>
      <trkpt lat="44.44519" lon="1.35935">
        <ele>118</ele>
        <time>2019-04-14T09:12:54Z</time>
      </trkpt>
      <trkpt lat="44.44522" lon="1.35935">
        <ele>118</ele>
        <time>2019-04-14T09:12:55Z</time>
      </trkpt>
      <trkpt lat="44.44524" lon="1.35936">
        <ele>118</ele>
        <time>2019-04-14T09:12:56Z</time>
      </trkpt>
      <trkpt lat="44.44527" lon="1.35938">
        <ele>118</ele>
        <time>2019-04-14T09:12:57Z</time>
      </trkpt>
      <trkpt lat="44.44529" lon="1.35939">
        <ele>118</ele>
        <time>2019-04-14T09:12:58Z</time>
      </trkpt>
      <trkpt lat="44.44531" lon="1.3594">
        <ele>117</ele>
        <time>2019-04-14T09:12:59Z</time>
      </trkpt>
      <trkpt lat="44.44534" lon="1.35941">
        <ele>117</ele>
        <time>2019-04-14T09:13:00Z</time>
      </trkpt>
      <trkpt lat="44.44535" lon="1.35943">
        <ele>117</ele>
        <time>2019-04-14T09:13:01Z</time>
      </trkpt>
      <trkpt lat="44.44537" lon="1.35943">
        <ele>117</ele>
        <time>2019-04-14T09:13:02Z</time>
      </trkpt>
      <trkpt lat="44.4454" lon="1.35943">
        <ele>117</ele>
        <time>2019-04-14T09:13:03Z</time>
      </trkpt>
      <trkpt lat="44.44544" lon="1.35943">
        <ele>118</ele>
        <time>2019-04-14T09:13:04Z</time>
      </trkpt>
      <trkpt lat="44.44547" lon="1.35943">
        <ele>118</ele>
        <time>2019-04-14T09:13:05Z</time>
      </trkpt>
      <trkpt lat="44.44551" lon="1.35944">
        <ele>118</ele>
        <time>2019-04-14T09:13:06Z</time>
      </trkpt>
      <trkpt lat="44.44553" lon="1.35946">
        <ele>118</ele>
        <time>2019-04-14T09:13:07Z</time>
      </trkpt>
      <trkpt lat="44.44554" lon="1.35945">
        <ele>118</ele>
        <time>2019-04-14T09:13:08Z</time>
      </trkpt>
      <trkpt lat="44.44556" lon="1.35945">
        <ele>118</ele>
        <time>2019-04-14T09:13:09Z</time>
      </trkpt>
      <trkpt lat="44.44558" lon="1.35946">
        <ele>119</ele>
        <time>2019-04-14T09:13:10Z</time>
      </trkpt>
      <trkpt lat="44.44561" lon="1.35947">
        <ele>119</ele>
        <time>2019-04-14T09:13:11Z</time>
      </trkpt>
      <trkpt lat="44.44564" lon="1.35948">
        <ele>118</ele>
        <time>2019-04-14T09:13:12Z</time>
      </trkpt>
      <trkpt lat="44.44566" lon="1.35948">
        <ele>118</ele>
        <time>2019-04-14T09:13:13Z</time>
      </trkpt>
      <trkpt lat="44.44567" lon="1.35949">
        <ele>118</ele>
        <time>2019-04-14T09:13:14Z</time>
      </trkpt>
      <trkpt lat="44.44569" lon="1.35951">
        <ele>118</ele>
        <time>2019-04-14T09:13:15Z</time>
      </trkpt>
      <trkpt lat="44.4457" lon="1.35953">
        <ele>118</ele>
        <time>2019-04-14T09:13:16Z</time>
      </trkpt>
      <trkpt lat="44.44572" lon="1.35956">
        <ele>118</ele>
        <time>2019-04-14T09:13:17Z</time>
      </trkpt>
      <trkpt lat="44.44574" lon="1.35956">
        <ele>118</ele>
        <time>2019-04-14T09:13:18Z</time>
      </trkpt>
      <trkpt lat="44.44575" lon="1.35956">
        <ele>118</ele>
        <time>2019-04-14T09:13:19Z</time>
      </trkpt>
      <trkpt lat="44.44577" lon="1.35956">
        <ele>118</ele>
        <time>2019-04-14T09:13:20Z</time>
      </trkpt>
      <trkpt lat="44.44577" lon="1.35956">
        <ele>118</ele>
        <time>2019-04-14T09:13:21Z</time>
      </trkpt>
      <trkpt lat="44.44577" lon="1.35956">
        <ele>118</ele>
        <time>2019-04-14T09:13:22Z</time>
      </trkpt>
      <trkpt lat="44.44577" lon="1.35956">
        <ele>118</ele>
        <time>2019-04-14T09:13:23Z</time>
      </trkpt>
      <trkpt lat="44.44578" lon="1.35957">
        <ele>118</ele>
        <time>2019-04-14T09:13:24Z</time>
      </trkpt>
      <trkpt lat="44.44578" lon="1.35957">
        <ele>118</ele>
        <time>2019-04-14T09:13:25Z</time>
      </trkpt>
      <trkpt lat="44.44579" lon="1.35958">
        <ele>118</ele>
        <time>2019-04-14T09:13:26Z</time>
      </trkpt>
      <trkpt lat="44.44579" lon="1.35958">
        <ele>118</ele>
        <time>2019-04-14T09:13:27Z</time>
      </trkpt>
      <trkpt lat="44.4461" lon="1.35974">
        <ele>116</ele>
        <time>2019-04-14T09:13:58Z</time>
      </trkpt>
      <trkpt lat="44.44611" lon="1.35974">
        <ele>116</ele>
        <time>2019-04-14T09:13:59Z</time>
      </trkpt>
      <trkpt lat="44.44612" lon="1.35975">
        <ele>116</ele>
        <time>2019-04-14T09:14:00Z</time>
      </trkpt>
      <trkpt lat="44.44613" lon="1.35975">
        <ele>116</ele>
        <time>2019-04-14T09:14:01Z</time>
      </trkpt>
      <trkpt lat="44.44613" lon="1.35976">
        <ele>116</ele>
        <time>2019-04-14T09:14:02Z</time>
      </trkpt>
      <trkpt lat="44.44615" lon="1.35976">
        <ele>116</ele>
        <time>2019-04-14T09:14:03Z</time>
      </trkpt>
      <trkpt lat="44.44617" lon="1.35976">
        <ele>116</ele>
        <time>2019-04-14T09:14:04Z</time>
      </trkpt>
      <trkpt lat="44.4462" lon="1.35977">
        <ele>116</ele>
        <time>2019-04-14T09:14:05Z</time>
      </trkpt>
      <trkpt lat="44.44622" lon="1.35977">
        <ele>116</ele>
        <time>2019-04-14T09:14:06Z</time>
      </trkpt>
      <trkpt lat="44.44624" lon="1.35978">
        <ele>116</ele>
        <time>2019-04-14T09:14:07Z</time>
      </trkpt>
      <trkpt lat="44.44626" lon="1.35979">
        <ele>115</ele>
        <time>2019-04-14T09:14:08Z</time>
      </trkpt>
      <trkpt lat="44.4463" lon="1.35981">
        <ele>116</ele>
        <time>2019-04-14T09:14:09Z</time>
      </trkpt>
      <trkpt lat="44.44632" lon="1.35982">
        <ele>115</ele>
        <time>2019-04-14T09:14:10Z</time>
      </trkpt>
      <trkpt lat="44.44635" lon="1.35983">
        <ele>115</ele>
        <time>2019-04-14T09:14:11Z</time>
      </trkpt>
      <trkpt lat="44.44638" lon="1.35983">
        <ele>115</ele>
        <time>2019-04-14T09:14:12Z</time>
      </trkpt>
      <trkpt lat="44.44641" lon="1.35983">
        <ele>115</ele>
        <time>2019-04-14T09:14:13Z</time>
      </trkpt>
      <trkpt lat="44.44643" lon="1.35983">
        <ele>115</ele>
        <time>2019-04-14T09:14:14Z</time>
      </trkpt>
      <trkpt lat="44.44645" lon="1.35986">
        <ele>115</ele>
        <time>2019-04-14T09:14:15Z</time>
      </trkpt>
      <trkpt lat="44.44649" lon="1.35989">
        <ele>115</ele>
        <time>2019-04-14T09:14:16Z</time>
      </trkpt>
      <trkpt lat="44.44651" lon="1.35991">
        <ele>115</ele>
        <time>2019-04-14T09:14:17Z</time>
      </trkpt>
      <trkpt lat="44.44654" lon="1.35994">
        <ele>115</ele>
        <time>2019-04-14T09:14:18Z</time>
      </trkpt>
      <trkpt lat="44.44657" lon="1.35995">
        <ele>114</ele>
        <time>2019-04-14T09:14:19Z</time>
      </trkpt>
      <trkpt lat="44.44659" lon="1.35996">
        <ele>114</ele>
        <time>2019-04-14T09:14:20Z</time>
      </trkpt>
      <trkpt lat="44.44661" lon="1.35996">
        <ele>114</ele>
        <time>2019-04-14T09:14:21Z</time>
      </trkpt>
      <trkpt lat="44.44662" lon="1.35996">
        <ele>114</ele>
        <time>2019-04-14T09:14:22Z</time>
      </trkpt>
      <trkpt lat="44.44665" lon="1.35997">
        <ele>114</ele>
        <time>2019-04-14T09:14:23Z</time>
      </trkpt>
      <trkpt lat="44.44668" lon="1.35998">
        <ele>114</ele>
        <time>2019-04-14T09:14:24Z</time>
      </trkpt>
      <trkpt lat="44.44671" lon="1.35998">
        <ele>114</ele>
        <time>2019-04-14T09:14:25Z</time>
      </trkpt>
      <trkpt lat="44.44673" lon="1.35998">
        <ele>114</ele>
        <time>2019-04-14T09:14:26Z</time>
      </trkpt>
      <trkpt lat="44.44675" lon="1.35999">
        <ele>114</ele>
        <time>2019-04-14T09:14:27Z</time>
      </trkpt>
      <trkpt lat="44.44678" lon="1.36">
        <ele>114</ele>
        <time>2019-04-14T09:14:28Z</time>
      </trkpt>
      <trkpt lat="44.44679" lon="1.35999">
        <ele>114</ele>
        <time>2019-04-14T09:14:29Z</time>
      </trkpt>
      <trkpt lat="44.44683" lon="1.35998">
        <ele>114</ele>
        <time>2019-04-14T09:14:30Z</time>
      </trkpt>
      <trkpt lat="44.44686" lon="1.35997">
        <ele>115</ele>
        <time>2019-04-14T09:14:31Z</time>
      </trkpt>
      <trkpt lat="44.44689" lon="1.35996">
        <ele>115</ele>
        <time>2019-04-14T09:14:32Z</time>
      </trkpt>
      <trkpt lat="44.44692" lon="1.35995">
        <ele>115</ele>
        <time>2019-04-14T09:14:33Z</time>
      </trkpt>
      <trkpt lat="44.44694" lon="1.35996">
        <ele>115</ele>
        <time>2019-04-14T09:14:34Z</time>
      </trkpt>
      <trkpt lat="44.44696" lon="1.35997">
        <ele>115</ele>
        <time>2019-04-14T09:14:35Z</time>
      </trkpt>
      <trkpt lat="44.44698" lon="1.35997">
        <ele>115</ele>
        <time>2019-04-14T09:14:36Z</time>
      </trkpt>
      <trkpt lat="44.447" lon="1.35997">
        <ele>115</ele>
        <time>2019-04-14T09:14:37Z</time>
      </trkpt>
      <trkpt lat="44.44703" lon="1.35998">
        <ele>115</ele>
        <time>2019-04-14T09:14:38Z</time>
      </trkpt>
      <trkpt lat="44.44706" lon="1.35999">
        <ele>115</ele>
        <time>2019-04-14T09:14:39Z</time>
      </trkpt>
      <trkpt lat="44.44708" lon="1.35999">
        <ele>115</ele>
        <time>2019-04-14T09:14:40Z</time>
      </trkpt>
      <trkpt lat="44.4471" lon="1.36">
        <ele>115</ele>
        <time>2019-04-14T09:14:41Z</time>
      </trkpt>
      <trkpt lat="44.44713" lon="1.36003">
        <ele>114</ele>
        <time>2019-04-14T09:14:42Z</time>
      </trkpt>
      <trkpt lat="44.44717" lon="1.36005">
        <ele>114</ele>
        <time>2019-04-14T09:14:43Z</time>
      </trkpt>
      <trkpt lat="44.4472" lon="1.36005">
        <ele>113</ele>
        <time>2019-04-14T09:14:44Z</time>
      </trkpt>
      <trkpt lat="44.44723" lon="1.36005">
        <ele>113</ele>
        <time>2019-04-14T09:14:45Z</time>
      </trkpt>
      <trkpt lat="44.44725" lon="1.36006">
        <ele>113</ele>
        <time>2019-04-14T09:14:46Z</time>
      </trkpt>
      <trkpt lat="44.44728" lon="1.36006">
        <ele>113</ele>
        <time>2019-04-14T09:14:47Z</time>
      </trkpt>
      <trkpt lat="44.44728" lon="1.36007">
        <ele>113</ele>
        <time>2019-04-14T09:14:48Z</time>
      </trkpt>
      <trkpt lat="44.44731" lon="1.36008">
        <ele>113</ele>
        <time>2019-04-14T09:14:49Z</time>
      </trkpt>
      <trkpt lat="44.44735" lon="1.36008">
        <ele>113</ele>
        <time>2019-04-14T09:14:50Z</time>
      </trkpt>
      <trkpt lat="44.44738" lon="1.36008">
        <ele>112</ele>
        <time>2019-04-14T09:14:51Z</time>
      </trkpt>
      <trkpt lat="44.44739" lon="1.36007">
        <ele>113</ele>
        <time>2019-04-14T09:14:52Z</time>
      </trkpt>
      <trkpt lat="44.44743" lon="1.36007">
        <ele>113</ele>
        <time>2019-04-14T09:14:53Z</time>
      </trkpt>
      <trkpt lat="44.44746" lon="1.36007">
        <ele>113</ele>
        <time>2019-04-14T09:14:54Z</time>
      </trkpt>
      <trkpt lat="44.44749" lon="1.36006">
        <ele>113</ele>
        <time>2019-04-14T09:14:55Z</time>
      </trkpt>
      <trkpt lat="44.44753" lon="1.36005">
        <ele>113</ele>
        <time>2019-04-14T09:14:56Z</time>
      </trkpt>
      <trkpt lat="44.44756" lon="1.36003">
        <ele>113</ele>
        <time>2019-04-14T09:14:57Z</time>
      </trkpt>
      <trkpt lat="44.4476" lon="1.36003">
        <ele>113</ele>
        <time>2019-04-14T09:14:58Z</time>
      </trkpt>
      <trkpt lat="44.44763" lon="1.36003">
        <ele>113</ele>
        <time>2019-04-14T09:14:59Z</time>
      </trkpt>
      <trkpt lat="44.44765" lon="1.36003">
        <ele>114</ele>
        <time>2019-04-14T09:15:00Z</time>
      </trkpt>
      <trkpt lat="44.44767" lon="1.36002">
        <ele>114</ele>
        <time>2019-04-14T09:15:01Z</time>
      </trkpt>
      <trkpt lat="44.44769" lon="1.36001">
        <ele>114</ele>
        <time>2019-04-14T09:15:02Z</time>
      </trkpt>
      <trkpt lat="44.44771" lon="1.36">
        <ele>114</ele>
        <time>2019-04-14T09:15:03Z</time>
      </trkpt>
      <trkpt lat="44.44773" lon="1.35998">
        <ele>114</ele>
        <time>2019-04-14T09:15:04Z</time>
      </trkpt>
      <trkpt lat="44.44776" lon="1.35998">
        <ele>114</ele>
        <time>2019-04-14T09:15:05Z</time>
      </trkpt>
      <trkpt lat="44.44779" lon="1.35998">
        <ele>114</ele>
        <time>2019-04-14T09:15:06Z</time>
      </trkpt>
      <trkpt lat="44.44782" lon="1.35998">
        <ele>114</ele>
        <time>2019-04-14T09:15:07Z</time>
      </trkpt>
      <trkpt lat="44.44784" lon="1.35998">
        <ele>114</ele>
        <time>2019-04-14T09:15:08Z</time>
      </trkpt>
      <trkpt lat="44.44788" lon="1.35999">
        <ele>113</ele>
        <time>2019-04-14T09:15:09Z</time>
      </trkpt>
      <trkpt lat="44.44791" lon="1.35998">
        <ele>113</ele>
        <time>2019-04-14T09:15:10Z</time>
      </trkpt>
      <trkpt lat="44.44795" lon="1.35997">
        <ele>112</ele>
        <time>2019-04-14T09:15:11Z</time>
      </trkpt>
      <trkpt lat="44.44799" lon="1.35995">
        <ele>112</ele>
        <time>2019-04-14T09:15:12Z</time>
      </trkpt>
      <trkpt lat="44.44801" lon="1.35991">
        <ele>112</ele>
        <time>2019-04-14T09:15:13Z</time>
      </trkpt>
      <trkpt lat="44.44805" lon="1.35987">
        <ele>112</ele>
        <time>2019-04-14T09:15:14Z</time>
      </trkpt>
      <trkpt lat="44.44809" lon="1.35986">
        <ele>112</ele>
        <time>2019-04-14T09:15:15Z</time>
      </trkpt>
      <trkpt lat="44.44813" lon="1.35984">
        <ele>112</ele>
        <time>2019-04-14T09:15:16Z</time>
      </trkpt>
      <trkpt lat="44.44815" lon="1.35982">
        <ele>112</ele>
        <time>2019-04-14T09:15:17Z</time>
      </trkpt>
      <trkpt lat="44.44818" lon="1.3598">
        <ele>112</ele>
        <time>2019-04-14T09:15:18Z</time>
      </trkpt>
      <trkpt lat="44.44821" lon="1.3598">
        <ele>112</ele>
        <time>2019-04-14T09:15:19Z</time>
      </trkpt>
      <trkpt lat="44.44823" lon="1.35978">
        <ele>112</ele>
        <time>2019-04-14T09:15:20Z</time>
      </trkpt>
      <trkpt lat="44.44825" lon="1.35975">
        <ele>112</ele>
        <time>2019-04-14T09:15:21Z</time>
      </trkpt>
      <trkpt lat="44.44827" lon="1.35973">
        <ele>112</ele>
        <time>2019-04-14T09:15:22Z</time>
      </trkpt>
      <trkpt lat="44.44827" lon="1.35971">
        <ele>112</ele>
        <time>2019-04-14T09:15:23Z</time>
      </trkpt>
      <trkpt lat="44.44832" lon="1.35969">
        <ele>112</ele>
        <time>2019-04-14T09:15:24Z</time>
      </trkpt>
      <trkpt lat="44.44835" lon="1.35967">
        <ele>112</ele>
        <time>2019-04-14T09:15:25Z</time>
      </trkpt>
      <trkpt lat="44.44838" lon="1.35966">
        <ele>112</ele>
        <time>2019-04-14T09:15:26Z</time>
      </trkpt>
      <trkpt lat="44.44841" lon="1.35963">
        <ele>112</ele>
        <time>2019-04-14T09:15:27Z</time>
      </trkpt>
      <trkpt lat="44.44845" lon="1.35961">
        <ele>112</ele>
        <time>2019-04-14T09:15:28Z</time>
      </trkpt>
      <trkpt lat="44.44848" lon="1.3596">
        <ele>112</ele>
        <time>2019-04-14T09:15:29Z</time>
      </trkpt>
      <trkpt lat="44.44851" lon="1.35959">
        <ele>112</ele>
        <time>2019-04-14T09:15:30Z</time>
      </trkpt>
      <trkpt lat="44.44853" lon="1.35958">
        <ele>112</ele>
        <time>2019-04-14T09:15:31Z</time>
      </trkpt>
      <trkpt lat="44.44854" lon="1.35956">
        <ele>112</ele>
        <time>2019-04-14T09:15:32Z</time>
      </trkpt>
      <trkpt lat="44.44858" lon="1.35953">
        <ele>112</ele>
        <time>2019-04-14T09:15:33Z</time>
      </trkpt>
      <trkpt lat="44.44862" lon="1.35951">
        <ele>111</ele>
        <time>2019-04-14T09:15:34Z</time>
      </trkpt>
      <trkpt lat="44.44865" lon="1.35948">
        <ele>111</ele>
        <time>2019-04-14T09:15:35Z</time>
      </trkpt>
      <trkpt lat="44.44869" lon="1.35945">
        <ele>111</ele>
        <time>2019-04-14T09:15:36Z</time>
      </trkpt>
      <trkpt lat="44.44872" lon="1.35943">
        <ele>111</ele>
        <time>2019-04-14T09:15:37Z</time>
      </trkpt>
      <trkpt lat="44.44874" lon="1.3594">
        <ele>112</ele>
        <time>2019-04-14T09:15:38Z</time>
      </trkpt>
      <trkpt lat="44.44876" lon="1.35939">
        <ele>112</ele>
        <time>2019-04-14T09:15:39Z</time>
      </trkpt>
      <trkpt lat="44.44878" lon="1.35937">
        <ele>111</ele>
        <time>2019-04-14T09:15:40Z</time>
      </trkpt>
      <trkpt lat="44.44881" lon="1.35935">
        <ele>111</ele>
        <time>2019-04-14T09:15:41Z</time>
      </trkpt>
      <trkpt lat="44.44884" lon="1.35933">
        <ele>111</ele>
        <time>2019-04-14T09:15:42Z</time>
      </trkpt>
      <trkpt lat="44.44886" lon="1.35931">
        <ele>111</ele>
        <time>2019-04-14T09:15:43Z</time>
      </trkpt>
      <trkpt lat="44.44888" lon="1.35929">
        <ele>111</ele>
        <time>2019-04-14T09:15:44Z</time>
      </trkpt>
      <trkpt lat="44.44889" lon="1.35926">
        <ele>111</ele>
        <time>2019-04-14T09:15:45Z</time>
      </trkpt>
      <trkpt lat="44.44891" lon="1.35922">
        <ele>111</ele>
        <time>2019-04-14T09:15:46Z</time>
      </trkpt>
      <trkpt lat="44.44893" lon="1.35918">
        <ele>111</ele>
        <time>2019-04-14T09:15:47Z</time>
      </trkpt>
      <trkpt lat="44.44893" lon="1.35916">
        <ele>111</ele>
        <time>2019-04-14T09:15:48Z</time>
      </trkpt>
      <trkpt lat="44.44895" lon="1.35913">
        <ele>111</ele>
        <time>2019-04-14T09:15:49Z</time>
      </trkpt>
      <trkpt lat="44.44897" lon="1.3591">
        <ele>111</ele>
        <time>2019-04-14T09:15:50Z</time>
      </trkpt>
      <trkpt lat="44.44899" lon="1.35907">
        <ele>111</ele>
        <time>2019-04-14T09:15:51Z</time>
      </trkpt>
      <trkpt lat="44.44902" lon="1.35904">
        <ele>111</ele>
        <time>2019-04-14T09:15:52Z</time>
      </trkpt>
      <trkpt lat="44.44904" lon="1.35902">
        <ele>111</ele>
        <time>2019-04-14T09:15:53Z</time>
      </trkpt>
      <trkpt lat="44.44907" lon="1.359">
        <ele>111</ele>
        <time>2019-04-14T09:15:54Z</time>
      </trkpt>
      <trkpt lat="44.4491" lon="1.35898">
        <ele>111</ele>
        <time>2019-04-14T09:15:55Z</time>
      </trkpt>
      <trkpt lat="44.44913" lon="1.35896">
        <ele>111</ele>
        <time>2019-04-14T09:15:56Z</time>
      </trkpt>
      <trkpt lat="44.44914" lon="1.35894">
        <ele>111</ele>
        <time>2019-04-14T09:15:57Z</time>
      </trkpt>
      <trkpt lat="44.44917" lon="1.35891">
        <ele>111</ele>
        <time>2019-04-14T09:15:58Z</time>
      </trkpt>
      <trkpt lat="44.4492" lon="1.35889">
        <ele>111</ele>
        <time>2019-04-14T09:15:59Z</time>
      </trkpt>
      <trkpt lat="44.44923" lon="1.35887">
        <ele>111</ele>
        <time>2019-04-14T09:16:00Z</time>
      </trkpt>
      <trkpt lat="44.44926" lon="1.35884">
        <ele>111</ele>
        <time>2019-04-14T09:16:01Z</time>
      </trkpt>
      <trkpt lat="44.44929" lon="1.35881">
        <ele>111</ele>
        <time>2019-04-14T09:16:02Z</time>
      </trkpt>
      <trkpt lat="44.44932" lon="1.35878">
        <ele>111</ele>
        <time>2019-04-14T09:16:03Z</time>
      </trkpt>
      <trkpt lat="44.44935" lon="1.35874">
        <ele>111</ele>
        <time>2019-04-14T09:16:04Z</time>
      </trkpt>
      <trkpt lat="44.44938" lon="1.35872">
        <ele>111</ele>
        <time>2019-04-14T09:16:05Z</time>
      </trkpt>
      <trkpt lat="44.44939" lon="1.35869">
        <ele>111</ele>
        <time>2019-04-14T09:16:06Z</time>
      </trkpt>
      <trkpt lat="44.44941" lon="1.35866">
        <ele>111</ele>
        <time>2019-04-14T09:16:07Z</time>
      </trkpt>
      <trkpt lat="44.44943" lon="1.35864">
        <ele>111</ele>
        <time>2019-04-14T09:16:08Z</time>
      </trkpt>
      <trkpt lat="44.44946" lon="1.35862">
        <ele>111</ele>
        <time>2019-04-14T09:16:09Z</time>
      </trkpt>
      <trkpt lat="44.44948" lon="1.3586">
        <ele>111</ele>
        <time>2019-04-14T09:16:10Z</time>
      </trkpt>
      <trkpt lat="44.44951" lon="1.35859">
        <ele>111</ele>
        <time>2019-04-14T09:16:11Z</time>
      </trkpt>
      <trkpt lat="44.44952" lon="1.35858">
        <ele>111</ele>
        <time>2019-04-14T09:16:12Z</time>
      </trkpt>
      <trkpt lat="44.44954" lon="1.35855">
        <ele>110</ele>
        <time>2019-04-14T09:16:13Z</time>
      </trkpt>
      <trkpt lat="44.44955" lon="1.35852">
        <ele>110</ele>
        <time>2019-04-14T09:16:14Z</time>
      </trkpt>
      <trkpt lat="44.44957" lon="1.35848">
        <ele>110</ele>
        <time>2019-04-14T09:16:15Z</time>
      </trkpt>
      <trkpt lat="44.44959" lon="1.35846">
        <ele>111</ele>
        <time>2019-04-14T09:16:16Z</time>
      </trkpt>
      <trkpt lat="44.44962" lon="1.35843">
        <ele>111</ele>
        <time>2019-04-14T09:16:17Z</time>
      </trkpt>
      <trkpt lat="44.44965" lon="1.35841">
        <ele>111</ele>
        <time>2019-04-14T09:16:18Z</time>
      </trkpt>
      <trkpt lat="44.44967" lon="1.3584">
        <ele>111</ele>
        <time>2019-04-14T09:16:19Z</time>
      </trkpt>
      <trkpt lat="44.44967" lon="1.35838">
        <ele>112</ele>
        <time>2019-04-14T09:16:20Z</time>
      </trkpt>
      <trkpt lat="44.44968" lon="1.35838">
        <ele>112</ele>
        <time>2019-04-14T09:16:21Z</time>
      </trkpt>
      <trkpt lat="44.44966" lon="1.35836">
        <ele>112</ele>
        <time>2019-04-14T09:16:22Z</time>
      </trkpt>
      <trkpt lat="44.44968" lon="1.35833">
        <ele>112</ele>
        <time>2019-04-14T09:16:23Z</time>
      </trkpt>
      <trkpt lat="44.44969" lon="1.35831">
        <ele>112</ele>
        <time>2019-04-14T09:16:24Z</time>
      </trkpt>
      <trkpt lat="44.44973" lon="1.35828">
        <ele>112</ele>
        <time>2019-04-14T09:16:25Z</time>
      </trkpt>
      <trkpt lat="44.44975" lon="1.35824">
        <ele>113</ele>
        <time>2019-04-14T09:16:26Z</time>
      </trkpt>
      <trkpt lat="44.44977" lon="1.35821">
        <ele>113</ele>
        <time>2019-04-14T09:16:27Z</time>
      </trkpt>
      <trkpt lat="44.44979" lon="1.35818">
        <ele>113</ele>
        <time>2019-04-14T09:16:28Z</time>
      </trkpt>
      <trkpt lat="44.4498" lon="1.35816">
        <ele>113</ele>
        <time>2019-04-14T09:16:29Z</time>
      </trkpt>
      <trkpt lat="44.44983" lon="1.35813">
        <ele>113</ele>
        <time>2019-04-14T09:16:30Z</time>
      </trkpt>
      <trkpt lat="44.44984" lon="1.35809">
        <ele>112</ele>
        <time>2019-04-14T09:16:31Z</time>
      </trkpt>
      <trkpt lat="44.44987" lon="1.35805">
        <ele>112</ele>
        <time>2019-04-14T09:16:32Z</time>
      </trkpt>
      <trkpt lat="44.4499" lon="1.35801">
        <ele>112</ele>
        <time>2019-04-14T09:16:33Z</time>
      </trkpt>
      <trkpt lat="44.44992" lon="1.35798">
        <ele>111</ele>
        <time>2019-04-14T09:16:34Z</time>
      </trkpt>
      <trkpt lat="44.44992" lon="1.35794">
        <ele>111</ele>
        <time>2019-04-14T09:16:35Z</time>
      </trkpt>
      <trkpt lat="44.44993" lon="1.3579">
        <ele>111</ele>
        <time>2019-04-14T09:16:36Z</time>
      </trkpt>
      <trkpt lat="44.44993" lon="1.35788">
        <ele>113</ele>
        <time>2019-04-14T09:16:37Z</time>
      </trkpt>
      <trkpt lat="44.44993" lon="1.35787">
        <ele>111</ele>
        <time>2019-04-14T09:16:38Z</time>
      </trkpt>
      <trkpt lat="44.44993" lon="1.35787">
        <ele>111</ele>
        <time>2019-04-14T09:16:39Z</time>
      </trkpt>
      <trkpt lat="44.44993" lon="1.35786">
        <ele>111</ele>
        <time>2019-04-14T09:16:40Z</time>
      </trkpt>
      <trkpt lat="44.44994" lon="1.35785">
        <ele>111</ele>
        <time>2019-04-14T09:16:41Z</time>
      </trkpt>
      <trkpt lat="44.44994" lon="1.35785">
        <ele>111</ele>
        <time>2019-04-14T09:16:42Z</time>
      </trkpt>
      <trkpt lat="44.44994" lon="1.35784">
        <ele>111</ele>
        <time>2019-04-14T09:16:43Z</time>
      </trkpt>
      <trkpt lat="44.44996" lon="1.35784">
        <ele>111</ele>
        <time>2019-04-14T09:16:44Z</time>
      </trkpt>
      <trkpt lat="44.45015" lon="1.35782">
        <ele>107</ele>
        <time>2019-04-14T09:17:12Z</time>
      </trkpt>
      <trkpt lat="44.45016" lon="1.3578">
        <ele>107</ele>
        <time>2019-04-14T09:17:13Z</time>
      </trkpt>
      <trkpt lat="44.45017" lon="1.35778">
        <ele>107</ele>
        <time>2019-04-14T09:17:14Z</time>
      </trkpt>
      <trkpt lat="44.45018" lon="1.35775">
        <ele>107</ele>
        <time>2019-04-14T09:17:15Z</time>
      </trkpt>
      <trkpt lat="44.45019" lon="1.35773">
        <ele>107</ele>
        <time>2019-04-14T09:17:16Z</time>
      </trkpt>
      <trkpt lat="44.45019" lon="1.35772">
        <ele>106</ele>
        <time>2019-04-14T09:17:17Z</time>
      </trkpt>
      <trkpt lat="44.45019" lon="1.35771">
        <ele>106</ele>
        <time>2019-04-14T09:17:18Z</time>
      </trkpt>
      <trkpt lat="44.45019" lon="1.3577">
        <ele>106</ele>
        <time>2019-04-14T09:17:19Z</time>
      </trkpt>
      <trkpt lat="44.4502" lon="1.35769">
        <ele>106</ele>
        <time>2019-04-14T09:17:20Z</time>
      </trkpt>
      <trkpt lat="44.4502" lon="1.35768">
        <ele>106</ele>
        <time>2019-04-14T09:17:21Z</time>
      </trkpt>
      <trkpt lat="44.4502" lon="1.35769">
        <ele>106</ele>
        <time>2019-04-14T09:17:22Z</time>
      </trkpt>
      <trkpt lat="44.4502" lon="1.35769">
        <ele>106</ele>
        <time>2019-04-14T09:17:23Z</time>
      </trkpt>
      <trkpt lat="44.4502" lon="1.35769">
        <ele>106</ele>
        <time>2019-04-14T09:17:24Z</time>
      </trkpt>
      <trkpt lat="44.4502" lon="1.35769">
        <ele>106</ele>
        <time>2019-04-14T09:17:25Z</time>
      </trkpt>
      <trkpt lat="44.4502" lon="1.35768">
        <ele>106</ele>
        <time>2019-04-14T09:17:26Z</time>
      </trkpt>
      <trkpt lat="44.45019" lon="1.35768">
        <ele>106</ele>
        <time>2019-04-14T09:17:27Z</time>
      </trkpt>
      <trkpt lat="44.45002" lon="1.35748">
        <ele>106</ele>
        <time>2019-04-14T09:17:43Z</time>
      </trkpt>
      <trkpt lat="44.44999" lon="1.35746">
        <ele>106</ele>
        <time>2019-04-14T09:17:44Z</time>
      </trkpt>
      <trkpt lat="44.44996" lon="1.35745">
        <ele>106</ele>
        <time>2019-04-14T09:17:45Z</time>
      </trkpt>
      <trkpt lat="44.44994" lon="1.35744">
        <ele>107</ele>
        <time>2019-04-14T09:17:46Z</time>
      </trkpt>
      <trkpt lat="44.44993" lon="1.35744">
        <ele>107</ele>
        <time>2019-04-14T09:17:47Z</time>
      </trkpt>
      <trkpt lat="44.44991" lon="1.35742">
        <ele>107</ele>
        <time>2019-04-14T09:17:48Z</time>
      </trkpt>
      <trkpt lat="44.44989" lon="1.3574">
        <ele>107</ele>
        <time>2019-04-14T09:17:49Z</time>
      </trkpt>
      <trkpt lat="44.44988" lon="1.35738">
        <ele>107</ele>
        <time>2019-04-14T09:17:50Z</time>
      </trkpt>
      <trkpt lat="44.44984" lon="1.35736">
        <ele>107</ele>
        <time>2019-04-14T09:17:51Z</time>
      </trkpt>
      <trkpt lat="44.44981" lon="1.35734">
        <ele>107</ele>
        <time>2019-04-14T09:17:52Z</time>
      </trkpt>
      <trkpt lat="44.44981" lon="1.35732">
        <ele>107</ele>
        <time>2019-04-14T09:17:53Z</time>
      </trkpt>
      <trkpt lat="44.44979" lon="1.3573">
        <ele>108</ele>
        <time>2019-04-14T09:17:54Z</time>
      </trkpt>
      <trkpt lat="44.44976" lon="1.35729">
        <ele>108</ele>
        <time>2019-04-14T09:17:55Z</time>
      </trkpt>
      <trkpt lat="44.44973" lon="1.35727">
        <ele>108</ele>
        <time>2019-04-14T09:17:56Z</time>
      </trkpt>
      <trkpt lat="44.4497" lon="1.35726">
        <ele>108</ele>
        <time>2019-04-14T09:17:57Z</time>
      </trkpt>
      <trkpt lat="44.44966" lon="1.35726">
        <ele>108</ele>
        <time>2019-04-14T09:17:58Z</time>
      </trkpt>
      <trkpt lat="44.44964" lon="1.35725">
        <ele>108</ele>
        <time>2019-04-14T09:17:59Z</time>
      </trkpt>
      <trkpt lat="44.44962" lon="1.35724">
        <ele>108</ele>
        <time>2019-04-14T09:18:00Z</time>
      </trkpt>
      <trkpt lat="44.44961" lon="1.35723">
        <ele>108</ele>
        <time>2019-04-14T09:18:01Z</time>
      </trkpt>
      <trkpt lat="44.44957" lon="1.35721">
        <ele>108</ele>
        <time>2019-04-14T09:18:02Z</time>
      </trkpt>
      <trkpt lat="44.44955" lon="1.35718">
        <ele>108</ele>
        <time>2019-04-14T09:18:03Z</time>
      </trkpt>
      <trkpt lat="44.44951" lon="1.35715">
        <ele>108</ele>
        <time>2019-04-14T09:18:04Z</time>
      </trkpt>
      <trkpt lat="44.44947" lon="1.35713">
        <ele>108</ele>
        <time>2019-04-14T09:18:05Z</time>
      </trkpt>
      <trkpt lat="44.44944" lon="1.35711">
        <ele>108</ele>
        <time>2019-04-14T09:18:06Z</time>
      </trkpt>
      <trkpt lat="44.44941" lon="1.35709">
        <ele>108</ele>
        <time>2019-04-14T09:18:07Z</time>
      </trkpt>
      <trkpt lat="44.44939" lon="1.35708">
        <ele>107</ele>
        <time>2019-04-14T09:18:08Z</time>
      </trkpt>
      <trkpt lat="44.44935" lon="1.35703">
        <ele>107</ele>
        <time>2019-04-14T09:18:09Z</time>
      </trkpt>
      <trkpt lat="44.44932" lon="1.35699">
        <ele>107</ele>
        <time>2019-04-14T09:18:10Z</time>
      </trkpt>
      <trkpt lat="44.44929" lon="1.35698">
        <ele>107</ele>
        <time>2019-04-14T09:18:11Z</time>
      </trkpt>
      <trkpt lat="44.44927" lon="1.35698">
        <ele>107</ele>
        <time>2019-04-14T09:18:12Z</time>
      </trkpt>
      <trkpt lat="44.44924" lon="1.35697">
        <ele>107</ele>
        <time>2019-04-14T09:18:13Z</time>
      </trkpt>
      <trkpt lat="44.44921" lon="1.35696">
        <ele>108</ele>
        <time>2019-04-14T09:18:14Z</time>
      </trkpt>
      <trkpt lat="44.44919" lon="1.35694">
        <ele>108</ele>
        <time>2019-04-14T09:18:15Z</time>
      </trkpt>
      <trkpt lat="44.44917" lon="1.35692">
        <ele>107</ele>
        <time>2019-04-14T09:18:16Z</time>
      </trkpt>
      <trkpt lat="44.44913" lon="1.35691">
        <ele>107</ele>
        <time>2019-04-14T09:18:17Z</time>
      </trkpt>
      <trkpt lat="44.4491" lon="1.35689">
        <ele>108</ele>
        <time>2019-04-14T09:18:18Z</time>
      </trkpt>
      <trkpt lat="44.44907" lon="1.35688">
        <ele>108</ele>
        <time>2019-04-14T09:18:19Z</time>
      </trkpt>
      <trkpt lat="44.44905" lon="1.35687">
        <ele>108</ele>
        <time>2019-04-14T09:18:20Z</time>
      </trkpt>
      <trkpt lat="44.44904" lon="1.35688">
        <ele>108</ele>
        <time>2019-04-14T09:18:21Z</time>
      </trkpt>
      <trkpt lat="44.44901" lon="1.35688">
        <ele>108</ele>
        <time>2019-04-14T09:18:22Z</time>
      </trkpt>
      <trkpt lat="44.44899" lon="1.35688">
        <ele>109</ele>
        <time>2019-04-14T09:18:23Z</time>
      </trkpt>
      <trkpt lat="44.44897" lon="1.35688">
        <ele>109</ele>
        <time>2019-04-14T09:18:24Z</time>
      </trkpt>
      <trkpt lat="44.44895" lon="1.35689">
        <ele>110</ele>
        <time>2019-04-14T09:18:25Z</time>
      </trkpt>
      <trkpt lat="44.44894" lon="1.35688">
        <ele>110</ele>
        <time>2019-04-14T09:18:26Z</time>
      </trkpt>
      <trkpt lat="44.44892" lon="1.35688">
        <ele>110</ele>
        <time>2019-04-14T09:18:27Z</time>
      </trkpt>
      <trkpt lat="44.44889" lon="1.35688">
        <ele>110</ele>
        <time>2019-04-14T09:18:28Z</time>
      </trkpt>
      <trkpt lat="44.44885" lon="1.35687">
        <ele>110</ele>
        <time>2019-04-14T09:18:29Z</time>
      </trkpt>
      <trkpt lat="44.44882" lon="1.35687">
        <ele>110</ele>
        <time>2019-04-14T09:18:30Z</time>
      </trkpt>
      <trkpt lat="44.44879" lon="1.35687">
        <ele>110</ele>
        <time>2019-04-14T09:18:31Z</time>
      </trkpt>
      <trkpt lat="44.44876" lon="1.35687">
        <ele>111</ele>
        <time>2019-04-14T09:18:32Z</time>
      </trkpt>
      <trkpt lat="44.44874" lon="1.35686">
        <ele>111</ele>
        <time>2019-04-14T09:18:33Z</time>
      </trkpt>
      <trkpt lat="44.44872" lon="1.35685">
        <ele>111</ele>
        <time>2019-04-14T09:18:34Z</time>
      </trkpt>
      <trkpt lat="44.44871" lon="1.35685">
        <ele>111</ele>
        <time>2019-04-14T09:18:35Z</time>
      </trkpt>
      <trkpt lat="44.44869" lon="1.35684">
        <ele>111</ele>
        <time>2019-04-14T09:18:36Z</time>
      </trkpt>
      <trkpt lat="44.44868" lon="1.35683">
        <ele>111</ele>
        <time>2019-04-14T09:18:37Z</time>
      </trkpt>
      <trkpt lat="44.44867" lon="1.35681">
        <ele>110</ele>
        <time>2019-04-14T09:18:38Z</time>
      </trkpt>
      <trkpt lat="44.44865" lon="1.35676">
        <ele>109</ele>
        <time>2019-04-14T09:18:39Z</time>
      </trkpt>
      <trkpt lat="44.44863" lon="1.35673">
        <ele>109</ele>
        <time>2019-04-14T09:18:40Z</time>
      </trkpt>
      <trkpt lat="44.44859" lon="1.35672">
        <ele>109</ele>
        <time>2019-04-14T09:18:41Z</time>
      </trkpt>
      <trkpt lat="44.44857" lon="1.35672">
        <ele>109</ele>
        <time>2019-04-14T09:18:42Z</time>
      </trkpt>
      <trkpt lat="44.44855" lon="1.35672">
        <ele>109</ele>
        <time>2019-04-14T09:18:43Z</time>
      </trkpt>
      <trkpt lat="44.44852" lon="1.35671">
        <ele>110</ele>
        <time>2019-04-14T09:18:44Z</time>
      </trkpt>
      <trkpt lat="44.44849" lon="1.3567">
        <ele>109</ele>
        <time>2019-04-14T09:18:45Z</time>
      </trkpt>
      <trkpt lat="44.44846" lon="1.35669">
        <ele>109</ele>
        <time>2019-04-14T09:18:46Z</time>
      </trkpt>
      <trkpt lat="44.44843" lon="1.35666">
        <ele>109</ele>
        <time>2019-04-14T09:18:47Z</time>
      </trkpt>
      <trkpt lat="44.44841" lon="1.35665">
        <ele>109</ele>
        <time>2019-04-14T09:18:48Z</time>
      </trkpt>
      <trkpt lat="44.44839" lon="1.35663">
        <ele>109</ele>
        <time>2019-04-14T09:18:49Z</time>
      </trkpt>
      <trkpt lat="44.44837" lon="1.35661">
        <ele>109</ele>
        <time>2019-04-14T09:18:50Z</time>
      </trkpt>
      <trkpt lat="44.44834" lon="1.3566">
        <ele>109</ele>
        <time>2019-04-14T09:18:51Z</time>
      </trkpt>
      <trkpt lat="44.44831" lon="1.35658">
        <ele>109</ele>
        <time>2019-04-14T09:18:52Z</time>
      </trkpt>
      <trkpt lat="44.44828" lon="1.35654">
        <ele>109</ele>
        <time>2019-04-14T09:18:53Z</time>
      </trkpt>
      <trkpt lat="44.44826" lon="1.35652">
        <ele>109</ele>
        <time>2019-04-14T09:18:54Z</time>
      </trkpt>
      <trkpt lat="44.44823" lon="1.35649">
        <ele>109</ele>
        <time>2019-04-14T09:18:55Z</time>
      </trkpt>
      <trkpt lat="44.4482" lon="1.35648">
        <ele>109</ele>
        <time>2019-04-14T09:18:56Z</time>
      </trkpt>
      <trkpt lat="44.44817" lon="1.35646">
        <ele>109</ele>
        <time>2019-04-14T09:18:57Z</time>
      </trkpt>
      <trkpt lat="44.44813" lon="1.35646">
        <ele>109</ele>
        <time>2019-04-14T09:18:58Z</time>
      </trkpt>
      <trkpt lat="44.4481" lon="1.35645">
        <ele>109</ele>
        <time>2019-04-14T09:18:59Z</time>
      </trkpt>
      <trkpt lat="44.44806" lon="1.35642">
        <ele>109</ele>
        <time>2019-04-14T09:19:00Z</time>
      </trkpt>
      <trkpt lat="44.44803" lon="1.35641">
        <ele>109</ele>
        <time>2019-04-14T09:19:01Z</time>
      </trkpt>
      <trkpt lat="44.44801" lon="1.3564">
        <ele>109</ele>
        <time>2019-04-14T09:19:02Z</time>
      </trkpt>
      <trkpt lat="44.448" lon="1.3564">
        <ele>109</ele>
        <time>2019-04-14T09:19:03Z</time>
      </trkpt>
      <trkpt lat="44.44796" lon="1.35637">
        <ele>109</ele>
        <time>2019-04-14T09:19:04Z</time>
      </trkpt>
      <trkpt lat="44.44794" lon="1.35635">
        <ele>109</ele>
        <time>2019-04-14T09:19:05Z</time>
      </trkpt>
      <trkpt lat="44.44791" lon="1.35634">
        <ele>109</ele>
        <time>2019-04-14T09:19:06Z</time>
      </trkpt>
      <trkpt lat="44.44788" lon="1.35634">
        <ele>110</ele>
        <time>2019-04-14T09:19:07Z</time>
      </trkpt>
      <trkpt lat="44.44785" lon="1.35633">
        <ele>110</ele>
        <time>2019-04-14T09:19:08Z</time>
      </trkpt>
      <trkpt lat="44.44782" lon="1.35633">
        <ele>110</ele>
        <time>2019-04-14T09:19:09Z</time>
      </trkpt>
      <trkpt lat="44.44779" lon="1.35632">
        <ele>110</ele>
        <time>2019-04-14T09:19:10Z</time>
      </trkpt>
      <trkpt lat="44.44776" lon="1.3563">
        <ele>110</ele>
        <time>2019-04-14T09:19:11Z</time>
      </trkpt>
      <trkpt lat="44.44773" lon="1.35629">
        <ele>110</ele>
        <time>2019-04-14T09:19:12Z</time>
      </trkpt>
      <trkpt lat="44.44771" lon="1.35629">
        <ele>110</ele>
        <time>2019-04-14T09:19:13Z</time>
      </trkpt>
      <trkpt lat="44.44769" lon="1.35628">
        <ele>110</ele>
        <time>2019-04-14T09:19:14Z</time>
      </trkpt>
      <trkpt lat="44.44766" lon="1.35627">
        <ele>110</ele>
        <time>2019-04-14T09:19:15Z</time>
      </trkpt>
      <trkpt lat="44.44763" lon="1.35626">
        <ele>110</ele>
        <time>2019-04-14T09:19:16Z</time>
      </trkpt>
      <trkpt lat="44.4476" lon="1.35625">
        <ele>110</ele>
        <time>2019-04-14T09:19:17Z</time>
      </trkpt>
      <trkpt lat="44.44757" lon="1.35623">
        <ele>110</ele>
        <time>2019-04-14T09:19:18Z</time>
      </trkpt>
      <trkpt lat="44.44754" lon="1.35622">
        <ele>110</ele>
        <time>2019-04-14T09:19:19Z</time>
      </trkpt>
      <trkpt lat="44.4475" lon="1.3562">
        <ele>110</ele>
        <time>2019-04-14T09:19:20Z</time>
      </trkpt>
      <trkpt lat="44.44746" lon="1.35619">
        <ele>110</ele>
        <time>2019-04-14T09:19:21Z</time>
      </trkpt>
      <trkpt lat="44.44744" lon="1.35619">
        <ele>111</ele>
        <time>2019-04-14T09:19:22Z</time>
      </trkpt>
      <trkpt lat="44.44742" lon="1.35618">
        <ele>111</ele>
        <time>2019-04-14T09:19:23Z</time>
      </trkpt>
      <trkpt lat="44.44739" lon="1.35618">
        <ele>111</ele>
        <time>2019-04-14T09:19:24Z</time>
      </trkpt>
      <trkpt lat="44.44736" lon="1.35618">
        <ele>111</ele>
        <time>2019-04-14T09:19:25Z</time>
      </trkpt>
      <trkpt lat="44.44733" lon="1.35616">
        <ele>111</ele>
        <time>2019-04-14T09:19:26Z</time>
      </trkpt>
      <trkpt lat="44.44731" lon="1.35615">
        <ele>111</ele>
        <time>2019-04-14T09:19:27Z</time>
      </trkpt>
      <trkpt lat="44.44729" lon="1.35614">
        <ele>111</ele>
        <time>2019-04-14T09:19:28Z</time>
      </trkpt>
      <trkpt lat="44.44726" lon="1.35614">
        <ele>111</ele>
        <time>2019-04-14T09:19:29Z</time>
      </trkpt>
      <trkpt lat="44.44722" lon="1.35613">
        <ele>111</ele>
        <time>2019-04-14T09:19:30Z</time>
      </trkpt>
      <trkpt lat="44.44719" lon="1.35612">
        <ele>112</ele>
        <time>2019-04-14T09:19:31Z</time>
      </trkpt>
      <trkpt lat="44.44716" lon="1.35609">
        <ele>112</ele>
        <time>2019-04-14T09:19:32Z</time>
      </trkpt>
      <trkpt lat="44.44713" lon="1.35607">
        <ele>112</ele>
        <time>2019-04-14T09:19:33Z</time>
      </trkpt>
      <trkpt lat="44.4471" lon="1.35605">
        <ele>112</ele>
        <time>2019-04-14T09:19:34Z</time>
      </trkpt>
      <trkpt lat="44.44707" lon="1.35605">
        <ele>112</ele>
        <time>2019-04-14T09:19:35Z</time>
      </trkpt>
      <trkpt lat="44.44703" lon="1.35605">
        <ele>112</ele>
        <time>2019-04-14T09:19:36Z</time>
      </trkpt>
      <trkpt lat="44.447" lon="1.35606">
        <ele>112</ele>
        <time>2019-04-14T09:19:37Z</time>
      </trkpt>
      <trkpt lat="44.44698" lon="1.35604">
        <ele>112</ele>
        <time>2019-04-14T09:19:38Z</time>
      </trkpt>
      <trkpt lat="44.44694" lon="1.35603">
        <ele>112</ele>
        <time>2019-04-14T09:19:39Z</time>
      </trkpt>
      <trkpt lat="44.44691" lon="1.35602">
        <ele>112</ele>
        <time>2019-04-14T09:19:40Z</time>
      </trkpt>
      <trkpt lat="44.44687" lon="1.35601">
        <ele>112</ele>
        <time>2019-04-14T09:19:41Z</time>
      </trkpt>
      <trkpt lat="44.44683" lon="1.35599">
        <ele>112</ele>
        <time>2019-04-14T09:19:42Z</time>
      </trkpt>
      <trkpt lat="44.44679" lon="1.35598">
        <ele>112</ele>
        <time>2019-04-14T09:19:43Z</time>
      </trkpt>
      <trkpt lat="44.44675" lon="1.35598">
        <ele>112</ele>
        <time>2019-04-14T09:19:44Z</time>
      </trkpt>
      <trkpt lat="44.44671" lon="1.35598">
        <ele>112</ele>
        <time>2019-04-14T09:19:45Z</time>
      </trkpt>
      <trkpt lat="44.44667" lon="1.35599">
        <ele>113</ele>
        <time>2019-04-14T09:19:46Z</time>
      </trkpt>
      <trkpt lat="44.44665" lon="1.35599">
        <ele>113</ele>
        <time>2019-04-14T09:19:47Z</time>
      </trkpt>
      <trkpt lat="44.44664" lon="1.356">
        <ele>113</ele>
        <time>2019-04-14T09:19:48Z</time>
      </trkpt>
      <trkpt lat="44.44662" lon="1.35602">
        <ele>113</ele>
        <time>2019-04-14T09:19:49Z</time>
      </trkpt>
      <trkpt lat="44.44661" lon="1.356">
        <ele>113</ele>
        <time>2019-04-14T09:19:50Z</time>
      </trkpt>
      <trkpt lat="44.44659" lon="1.35598">
        <ele>113</ele>
        <time>2019-04-14T09:19:51Z</time>
      </trkpt>
      <trkpt lat="44.44656" lon="1.35598">
        <ele>113</ele>
        <time>2019-04-14T09:19:52Z</time>
      </trkpt>
      <trkpt lat="44.44653" lon="1.35596">
        <ele>113</ele>
        <time>2019-04-14T09:19:53Z</time>
      </trkpt>
      <trkpt lat="44.4465" lon="1.35595">
        <ele>113</ele>
        <time>2019-04-14T09:19:54Z</time>
      </trkpt>
      <trkpt lat="44.44649" lon="1.35595">
        <ele>113</ele>
        <time>2019-04-14T09:19:55Z</time>
      </trkpt>
      <trkpt lat="44.44646" lon="1.35596">
        <ele>113</ele>
        <time>2019-04-14T09:19:56Z</time>
      </trkpt>
      <trkpt lat="44.44643" lon="1.35596">
        <ele>113</ele>
        <time>2019-04-14T09:19:57Z</time>
      </trkpt>
      <trkpt lat="44.4464" lon="1.35595">
        <ele>113</ele>
        <time>2019-04-14T09:19:58Z</time>
      </trkpt>
      <trkpt lat="44.44637" lon="1.35594">
        <ele>113</ele>
        <time>2019-04-14T09:19:59Z</time>
      </trkpt>
      <trkpt lat="44.44634" lon="1.35594">
        <ele>113</ele>
        <time>2019-04-14T09:20:00Z</time>
      </trkpt>
      <trkpt lat="44.44631" lon="1.35594">
        <ele>113</ele>
        <time>2019-04-14T09:20:01Z</time>
      </trkpt>
      <trkpt lat="44.44627" lon="1.35594">
        <ele>113</ele>
        <time>2019-04-14T09:20:02Z</time>
      </trkpt>
      <trkpt lat="44.44624" lon="1.35593">
        <ele>113</ele>
        <time>2019-04-14T09:20:03Z</time>
      </trkpt>
      <trkpt lat="44.4462" lon="1.35592">
        <ele>113</ele>
        <time>2019-04-14T09:20:04Z</time>
      </trkpt>
      <trkpt lat="44.44616" lon="1.35591">
        <ele>113</ele>
        <time>2019-04-14T09:20:05Z</time>
      </trkpt>
      <trkpt lat="44.44613" lon="1.3559">
        <ele>113</ele>
        <time>2019-04-14T09:20:06Z</time>
      </trkpt>
      <trkpt lat="44.44609" lon="1.3559">
        <ele>113</ele>
        <time>2019-04-14T09:20:07Z</time>
      </trkpt>
      <trkpt lat="44.44606" lon="1.35589">
        <ele>113</ele>
        <time>2019-04-14T09:20:08Z</time>
      </trkpt>
      <trkpt lat="44.44603" lon="1.35586">
        <ele>113</ele>
        <time>2019-04-14T09:20:09Z</time>
      </trkpt>
      <trkpt lat="44.446" lon="1.35583">
        <ele>113</ele>
        <time>2019-04-14T09:20:10Z</time>
      </trkpt>
      <trkpt lat="44.44596" lon="1.35581">
        <ele>113</ele>
        <time>2019-04-14T09:20:11Z</time>
      </trkpt>
      <trkpt lat="44.44593" lon="1.3558">
        <ele>112</ele>
        <time>2019-04-14T09:20:12Z</time>
      </trkpt>
      <trkpt lat="44.4459" lon="1.35579">
        <ele>113</ele>
        <time>2019-04-14T09:20:13Z</time>
      </trkpt>
      <trkpt lat="44.44589" lon="1.3558">
        <ele>113</ele>
        <time>2019-04-14T09:20:14Z</time>
      </trkpt>
      <trkpt lat="44.44587" lon="1.3558">
        <ele>113</ele>
        <time>2019-04-14T09:20:15Z</time>
      </trkpt>
      <trkpt lat="44.44586" lon="1.3558">
        <ele>113</ele>
        <time>2019-04-14T09:20:16Z</time>
      </trkpt>
      <trkpt lat="44.44585" lon="1.35581">
        <ele>113</ele>
        <time>2019-04-14T09:20:17Z</time>
      </trkpt>
      <trkpt lat="44.44585" lon="1.35582">
        <ele>114</ele>
        <time>2019-04-14T09:20:18Z</time>
      </trkpt>
      <trkpt lat="44.44583" lon="1.35582">
        <ele>113</ele>
        <time>2019-04-14T09:20:19Z</time>
      </trkpt>
      <trkpt lat="44.44581" lon="1.35581">
        <ele>113</ele>
        <time>2019-04-14T09:20:20Z</time>
      </trkpt>
      <trkpt lat="44.44579" lon="1.35578">
        <ele>113</ele>
        <time>2019-04-14T09:20:21Z</time>
      </trkpt>
      <trkpt lat="44.44576" lon="1.35577">
        <ele>112</ele>
        <time>2019-04-14T09:20:22Z</time>
      </trkpt>
      <trkpt lat="44.44573" lon="1.35576">
        <ele>112</ele>
        <time>2019-04-14T09:20:23Z</time>
      </trkpt>
      <trkpt lat="44.4457" lon="1.35575">
        <ele>112</ele>
        <time>2019-04-14T09:20:24Z</time>
      </trkpt>
      <trkpt lat="44.44568" lon="1.35574">
        <ele>112</ele>
        <time>2019-04-14T09:20:25Z</time>
      </trkpt>
      <trkpt lat="44.44565" lon="1.35574">
        <ele>112</ele>
        <time>2019-04-14T09:20:26Z</time>
      </trkpt>
      <trkpt lat="44.44563" lon="1.35575">
        <ele>112</ele>
        <time>2019-04-14T09:20:27Z</time>
      </trkpt>
      <trkpt lat="44.4456" lon="1.35574">
        <ele>112</ele>
        <time>2019-04-14T09:20:28Z</time>
      </trkpt>
      <trkpt lat="44.44558" lon="1.35574">
        <ele>112</ele>
        <time>2019-04-14T09:20:29Z</time>
      </trkpt>
      <trkpt lat="44.44555" lon="1.35575">
        <ele>112</ele>
        <time>2019-04-14T09:20:30Z</time>
      </trkpt>
      <trkpt lat="44.44553" lon="1.35574">
        <ele>112</ele>
        <time>2019-04-14T09:20:31Z</time>
      </trkpt>
      <trkpt lat="44.4455" lon="1.35573">
        <ele>113</ele>
        <time>2019-04-14T09:20:32Z</time>
      </trkpt>
      <trkpt lat="44.44547" lon="1.3557">
        <ele>113</ele>
        <time>2019-04-14T09:20:33Z</time>
      </trkpt>
      <trkpt lat="44.44544" lon="1.35568">
        <ele>113</ele>
        <time>2019-04-14T09:20:34Z</time>
      </trkpt>
      <trkpt lat="44.44541" lon="1.35565">
        <ele>112</ele>
        <time>2019-04-14T09:20:35Z</time>
      </trkpt>
      <trkpt lat="44.44538" lon="1.35561">
        <ele>112</ele>
        <time>2019-04-14T09:20:36Z</time>
      </trkpt>
      <trkpt lat="44.44534" lon="1.35561">
        <ele>112</ele>
        <time>2019-04-14T09:20:37Z</time>
      </trkpt>
      <trkpt lat="44.44531" lon="1.35562">
        <ele>113</ele>
        <time>2019-04-14T09:20:38Z</time>
      </trkpt>
      <trkpt lat="44.44528" lon="1.35561">
        <ele>113</ele>
        <time>2019-04-14T09:20:39Z</time>
      </trkpt>
      <trkpt lat="44.44525" lon="1.3556">
        <ele>113</ele>
        <time>2019-04-14T09:20:40Z</time>
      </trkpt>
      <trkpt lat="44.44522" lon="1.35558">
        <ele>113</ele>
        <time>2019-04-14T09:20:41Z</time>
      </trkpt>
      <trkpt lat="44.44519" lon="1.35556">
        <ele>113</ele>
        <time>2019-04-14T09:20:42Z</time>
      </trkpt>
      <trkpt lat="44.44517" lon="1.35555">
        <ele>114</ele>
        <time>2019-04-14T09:20:43Z</time>
      </trkpt>
      <trkpt lat="44.44514" lon="1.35554">
        <ele>114</ele>
        <time>2019-04-14T09:20:44Z</time>
      </trkpt>
      <trkpt lat="44.44512" lon="1.35552">
        <ele>114</ele>
        <time>2019-04-14T09:20:45Z</time>
      </trkpt>
      <trkpt lat="44.44508" lon="1.35552">
        <ele>114</ele>
        <time>2019-04-14T09:20:46Z</time>
      </trkpt>
      <trkpt lat="44.44506" lon="1.35551">
        <ele>114</ele>
        <time>2019-04-14T09:20:47Z</time>
      </trkpt>
      <trkpt lat="44.44504" lon="1.3555">
        <ele>114</ele>
        <time>2019-04-14T09:20:48Z</time>
      </trkpt>
      <trkpt lat="44.44502" lon="1.35548">
        <ele>114</ele>
        <time>2019-04-14T09:20:49Z</time>
      </trkpt>
      <trkpt lat="44.44499" lon="1.35547">
        <ele>114</ele>
        <time>2019-04-14T09:20:50Z</time>
      </trkpt>
      <trkpt lat="44.44496" lon="1.35545">
        <ele>114</ele>
        <time>2019-04-14T09:20:51Z</time>
      </trkpt>
      <trkpt lat="44.44493" lon="1.35542">
        <ele>114</ele>
        <time>2019-04-14T09:20:52Z</time>
      </trkpt>
      <trkpt lat="44.44489" lon="1.35541">
        <ele>114</ele>
        <time>2019-04-14T09:20:53Z</time>
      </trkpt>
      <trkpt lat="44.44485" lon="1.3554">
        <ele>113</ele>
        <time>2019-04-14T09:20:54Z</time>
      </trkpt>
      <trkpt lat="44.44482" lon="1.35538">
        <ele>114</ele>
        <time>2019-04-14T09:20:55Z</time>
      </trkpt>
      <trkpt lat="44.4448" lon="1.35536">
        <ele>114</ele>
        <time>2019-04-14T09:20:56Z</time>
      </trkpt>
      <trkpt lat="44.44478" lon="1.35535">
        <ele>113</ele>
        <time>2019-04-14T09:20:57Z</time>
      </trkpt>
      <trkpt lat="44.44474" lon="1.35533">
        <ele>113</ele>
        <time>2019-04-14T09:20:58Z</time>
      </trkpt>
      <trkpt lat="44.44471" lon="1.3553">
        <ele>113</ele>
        <time>2019-04-14T09:20:59Z</time>
      </trkpt>
      <trkpt lat="44.44469" lon="1.3553">
        <ele>114</ele>
        <time>2019-04-14T09:21:00Z</time>
      </trkpt>
      <trkpt lat="44.44466" lon="1.3553">
        <ele>114</ele>
        <time>2019-04-14T09:21:01Z</time>
      </trkpt>
      <trkpt lat="44.44465" lon="1.35528">
        <ele>115</ele>
        <time>2019-04-14T09:21:02Z</time>
      </trkpt>
      <trkpt lat="44.44463" lon="1.3553">
        <ele>115</ele>
        <time>2019-04-14T09:21:03Z</time>
      </trkpt>
      <trkpt lat="44.44462" lon="1.35532">
        <ele>116</ele>
        <time>2019-04-14T09:21:04Z</time>
      </trkpt>
      <trkpt lat="44.4446" lon="1.35531">
        <ele>116</ele>
        <time>2019-04-14T09:21:05Z</time>
      </trkpt>
      <trkpt lat="44.44457" lon="1.35531">
        <ele>116</ele>
        <time>2019-04-14T09:21:06Z</time>
      </trkpt>
      <trkpt lat="44.44455" lon="1.35529">
        <ele>116</ele>
        <time>2019-04-14T09:21:07Z</time>
      </trkpt>
      <trkpt lat="44.44452" lon="1.35528">
        <ele>116</ele>
        <time>2019-04-14T09:21:08Z</time>
      </trkpt>
      <trkpt lat="44.44449" lon="1.35527">
        <ele>115</ele>
        <time>2019-04-14T09:21:09Z</time>
      </trkpt>
      <trkpt lat="44.44448" lon="1.35525">
        <ele>115</ele>
        <time>2019-04-14T09:21:10Z</time>
      </trkpt>
      <trkpt lat="44.44447" lon="1.35524">
        <ele>115</ele>
        <time>2019-04-14T09:21:11Z</time>
      </trkpt>
      <trkpt lat="44.44445" lon="1.35524">
        <ele>115</ele>
        <time>2019-04-14T09:21:12Z</time>
      </trkpt>
      <trkpt lat="44.44445" lon="1.35524">
        <ele>115</ele>
        <time>2019-04-14T09:21:13Z</time>
      </trkpt>
      <trkpt lat="44.44444" lon="1.35524">
        <ele>115</ele>
        <time>2019-04-14T09:21:14Z</time>
      </trkpt>
      <trkpt lat="44.44443" lon="1.35524">
        <ele>115</ele>
        <time>2019-04-14T09:21:15Z</time>
      </trkpt>
      <trkpt lat="44.44443" lon="1.35525">
        <ele>115</ele>
        <time>2019-04-14T09:21:16Z</time>
      </trkpt>
      <trkpt lat="44.44442" lon="1.35525">
        <ele>115</ele>
        <time>2019-04-14T09:21:17Z</time>
      </trkpt>
      <trkpt lat="44.44442" lon="1.35525">
        <ele>115</ele>
        <time>2019-04-14T09:21:18Z</time>
      </trkpt>
      <trkpt lat="44.44441" lon="1.35525">
        <ele>115</ele>
        <time>2019-04-14T09:21:19Z</time>
      </trkpt>
      <trkpt lat="44.44441" lon="1.35525">
        <ele>115</ele>
        <time>2019-04-14T09:21:20Z</time>
      </trkpt>
      <trkpt lat="44.44441" lon="1.35526">
        <ele>115</ele>
        <time>2019-04-14T09:21:21Z</time>
      </trkpt>
      <trkpt lat="44.44441" lon="1.35526">
        <ele>115</ele>
        <time>2019-04-14T09:21:22Z</time>
      </trkpt>
      <trkpt lat="44.44441" lon="1.35526">
        <ele>115</ele>
        <time>2019-04-14T09:21:23Z</time>
      </trkpt>
      <trkpt lat="44.44427" lon="1.35532">
        <ele>119</ele>
        <time>2019-04-14T09:21:36Z</time>
      </trkpt>
      <trkpt lat="44.44425" lon="1.35534">
        <ele>120</ele>
        <time>2019-04-14T09:21:37Z</time>
      </trkpt>
      <trkpt lat="44.44424" lon="1.35533">
        <ele>120</ele>
        <time>2019-04-14T09:21:38Z</time>
      </trkpt>
      <trkpt lat="44.44423" lon="1.35534">
        <ele>120</ele>
        <time>2019-04-14T09:21:39Z</time>
      </trkpt>
      <trkpt lat="44.44422" lon="1.35534">
        <ele>120</ele>
        <time>2019-04-14T09:21:40Z</time>
      </trkpt>
      <trkpt lat="44.44422" lon="1.35534">
        <ele>120</ele>
        <time>2019-04-14T09:21:41Z</time>
      </trkpt>
      <trkpt lat="44.44422" lon="1.35534">
        <ele>120</ele>
        <time>2019-04-14T09:21:42Z</time>
      </trkpt>
      <trkpt lat="44.44422" lon="1.35534">
        <ele>120</ele>
        <time>2019-04-14T09:21:43Z</time>
      </trkpt>
      <trkpt lat="44.44422" lon="1.35534">
        <ele>120</ele>
        <time>2019-04-14T09:21:44Z</time>
      </trkpt>
      <trkpt lat="44.44422" lon="1.35534">
        <ele>120</ele>
        <time>2019-04-14T09:21:45Z</time>
      </trkpt>
      <trkpt lat="44.44422" lon="1.35534">
        <ele>120</ele>
        <time>2019-04-14T09:21:46Z</time>
      </trkpt>
      <trkpt lat="44.44399" lon="1.35524">
        <ele>119</ele>
        <time>2019-04-14T09:22:06Z</time>
      </trkpt>
      <trkpt lat="44.44397" lon="1.35522">
        <ele>119</ele>
        <time>2019-04-14T09:22:07Z</time>
      </trkpt>
      <trkpt lat="44.44395" lon="1.35521">
        <ele>119</ele>
        <time>2019-04-14T09:22:08Z</time>
      </trkpt>
      <trkpt lat="44.44392" lon="1.3552">
        <ele>119</ele>
        <time>2019-04-14T09:22:09Z</time>
      </trkpt>
      <trkpt lat="44.44391" lon="1.35519">
        <ele>119</ele>
        <time>2019-04-14T09:22:10Z</time>
      </trkpt>
      <trkpt lat="44.44388" lon="1.35518">
        <ele>119</ele>
        <time>2019-04-14T09:22:11Z</time>
      </trkpt>
      <trkpt lat="44.44386" lon="1.35517">
        <ele>119</ele>
        <time>2019-04-14T09:22:12Z</time>
      </trkpt>
      <trkpt lat="44.44384" lon="1.35516">
        <ele>119</ele>
        <time>2019-04-14T09:22:13Z</time>
      </trkpt>
      <trkpt lat="44.44382" lon="1.35515">
        <ele>119</ele>
        <time>2019-04-14T09:22:14Z</time>
      </trkpt>
      <trkpt lat="44.44381" lon="1.35514">
        <ele>119</ele>
        <time>2019-04-14T09:22:15Z</time>
      </trkpt>
      <trkpt lat="44.44381" lon="1.3551">
        <ele>119</ele>
        <time>2019-04-14T09:22:16Z</time>
      </trkpt>
      <trkpt lat="44.44377" lon="1.35512">
        <ele>118</ele>
        <time>2019-04-14T09:22:17Z</time>
      </trkpt>
      <trkpt lat="44.44374" lon="1.35512">
        <ele>118</ele>
        <time>2019-04-14T09:22:18Z</time>
      </trkpt>
      <trkpt lat="44.44372" lon="1.35512">
        <ele>119</ele>
        <time>2019-04-14T09:22:19Z</time>
      </trkpt>
      <trkpt lat="44.4437" lon="1.35512">
        <ele>119</ele>
        <time>2019-04-14T09:22:20Z</time>
      </trkpt>
      <trkpt lat="44.44368" lon="1.35514">
        <ele>119</ele>
        <time>2019-04-14T09:22:21Z</time>
      </trkpt>
      <trkpt lat="44.44366" lon="1.35514">
        <ele>120</ele>
        <time>2019-04-14T09:22:22Z</time>
      </trkpt>
      <trkpt lat="44.44364" lon="1.35513">
        <ele>120</ele>
        <time>2019-04-14T09:22:23Z</time>
      </trkpt>
      <trkpt lat="44.44362" lon="1.35511">
        <ele>120</ele>
        <time>2019-04-14T09:22:24Z</time>
      </trkpt>
      <trkpt lat="44.4436" lon="1.35509">
        <ele>119</ele>
        <time>2019-04-14T09:22:25Z</time>
      </trkpt>
      <trkpt lat="44.44358" lon="1.35507">
        <ele>119</ele>
        <time>2019-04-14T09:22:26Z</time>
      </trkpt>
      <trkpt lat="44.44356" lon="1.35504">
        <ele>118</ele>
        <time>2019-04-14T09:22:27Z</time>
      </trkpt>
      <trkpt lat="44.44353" lon="1.35503">
        <ele>118</ele>
        <time>2019-04-14T09:22:28Z</time>
      </trkpt>
      <trkpt lat="44.4435" lon="1.35503">
        <ele>118</ele>
        <time>2019-04-14T09:22:29Z</time>
      </trkpt>
      <trkpt lat="44.44346" lon="1.35502">
        <ele>118</ele>
        <time>2019-04-14T09:22:30Z</time>
      </trkpt>
      <trkpt lat="44.44343" lon="1.35501">
        <ele>118</ele>
        <time>2019-04-14T09:22:31Z</time>
      </trkpt>
      <trkpt lat="44.44341" lon="1.35501">
        <ele>118</ele>
        <time>2019-04-14T09:22:32Z</time>
      </trkpt>
      <trkpt lat="44.44338" lon="1.355">
        <ele>118</ele>
        <time>2019-04-14T09:22:33Z</time>
      </trkpt>
      <trkpt lat="44.44335" lon="1.35499">
        <ele>118</ele>
        <time>2019-04-14T09:22:34Z</time>
      </trkpt>
      <trkpt lat="44.44333" lon="1.35499">
        <ele>119</ele>
        <time>2019-04-14T09:22:35Z</time>
      </trkpt>
      <trkpt lat="44.44331" lon="1.35499">
        <ele>119</ele>
        <time>2019-04-14T09:22:36Z</time>
      </trkpt>
      <trkpt lat="44.44329" lon="1.35497">
        <ele>118</ele>
        <time>2019-04-14T09:22:37Z</time>
      </trkpt>
      <trkpt lat="44.44326" lon="1.35497">
        <ele>118</ele>
        <time>2019-04-14T09:22:38Z</time>
      </trkpt>
      <trkpt lat="44.44323" lon="1.35496">
        <ele>118</ele>
        <time>2019-04-14T09:22:39Z</time>
      </trkpt>
      <trkpt lat="44.4432" lon="1.35495">
        <ele>118</ele>
        <time>2019-04-14T09:22:40Z</time>
      </trkpt>
      <trkpt lat="44.44317" lon="1.35493">
        <ele>118</ele>
        <time>2019-04-14T09:22:41Z</time>
      </trkpt>
      <trkpt lat="44.44315" lon="1.35492">
        <ele>118</ele>
        <time>2019-04-14T09:22:42Z</time>
      </trkpt>
      <trkpt lat="44.44312" lon="1.35489">
        <ele>118</ele>
        <time>2019-04-14T09:22:43Z</time>
      </trkpt>
      <trkpt lat="44.44309" lon="1.35486">
        <ele>118</ele>
        <time>2019-04-14T09:22:44Z</time>
      </trkpt>
      <trkpt lat="44.44306" lon="1.35486">
        <ele>118</ele>
        <time>2019-04-14T09:22:45Z</time>
      </trkpt>
      <trkpt lat="44.44304" lon="1.35486">
        <ele>118</ele>
        <time>2019-04-14T09:22:46Z</time>
      </trkpt>
      <trkpt lat="44.44301" lon="1.35485">
        <ele>117</ele>
        <time>2019-04-14T09:22:47Z</time>
      </trkpt>
      <trkpt lat="44.44298" lon="1.35484">
        <ele>117</ele>
        <time>2019-04-14T09:22:48Z</time>
      </trkpt>
      <trkpt lat="44.44295" lon="1.35484">
        <ele>118</ele>
        <time>2019-04-14T09:22:49Z</time>
      </trkpt>
      <trkpt lat="44.44293" lon="1.35484">
        <ele>118</ele>
        <time>2019-04-14T09:22:50Z</time>
      </trkpt>
      <trkpt lat="44.4429" lon="1.35485">
        <ele>118</ele>
        <time>2019-04-14T09:22:51Z</time>
      </trkpt>
      <trkpt lat="44.44287" lon="1.35485">
        <ele>119</ele>
        <time>2019-04-14T09:22:52Z</time>
      </trkpt>
      <trkpt lat="44.44285" lon="1.35486">
        <ele>119</ele>
        <time>2019-04-14T09:22:54Z</time>
      </trkpt>
      <trkpt lat="44.4428" lon="1.35484">
        <ele>119</ele>
        <time>2019-04-14T09:22:55Z</time>
      </trkpt>
      <trkpt lat="44.44277" lon="1.35483">
        <ele>119</ele>
        <time>2019-04-14T09:22:56Z</time>
      </trkpt>
      <trkpt lat="44.44274" lon="1.35482">
        <ele>119</ele>
        <time>2019-04-14T09:22:57Z</time>
      </trkpt>
      <trkpt lat="44.44271" lon="1.3548">
        <ele>119</ele>
        <time>2019-04-14T09:22:58Z</time>
      </trkpt>
      <trkpt lat="44.44269" lon="1.35478">
        <ele>119</ele>
        <time>2019-04-14T09:22:59Z</time>
      </trkpt>
      <trkpt lat="44.44266" lon="1.35475">
        <ele>118</ele>
        <time>2019-04-14T09:23:00Z</time>
      </trkpt>
      <trkpt lat="44.44264" lon="1.35474">
        <ele>118</ele>
        <time>2019-04-14T09:23:01Z</time>
      </trkpt>
      <trkpt lat="44.4426" lon="1.35471">
        <ele>118</ele>
        <time>2019-04-14T09:23:02Z</time>
      </trkpt>
      <trkpt lat="44.44256" lon="1.3547">
        <ele>118</ele>
        <time>2019-04-14T09:23:03Z</time>
      </trkpt>
      <trkpt lat="44.44253" lon="1.3547">
        <ele>118</ele>
        <time>2019-04-14T09:23:04Z</time>
      </trkpt>
      <trkpt lat="44.4425" lon="1.35469">
        <ele>118</ele>
        <time>2019-04-14T09:23:05Z</time>
      </trkpt>
      <trkpt lat="44.44247" lon="1.35467">
        <ele>118</ele>
        <time>2019-04-14T09:23:06Z</time>
      </trkpt>
      <trkpt lat="44.44244" lon="1.35467">
        <ele>118</ele>
        <time>2019-04-14T09:23:07Z</time>
      </trkpt>
      <trkpt lat="44.44242" lon="1.35466">
        <ele>118</ele>
        <time>2019-04-14T09:23:08Z</time>
      </trkpt>
      <trkpt lat="44.4424" lon="1.35466">
        <ele>118</ele>
        <time>2019-04-14T09:23:09Z</time>
      </trkpt>
      <trkpt lat="44.44238" lon="1.35466">
        <ele>119</ele>
        <time>2019-04-14T09:23:10Z</time>
      </trkpt>
      <trkpt lat="44.44236" lon="1.35468">
        <ele>119</ele>
        <time>2019-04-14T09:23:11Z</time>
      </trkpt>
      <trkpt lat="44.44233" lon="1.35469">
        <ele>119</ele>
        <time>2019-04-14T09:23:13Z</time>
      </trkpt>
      <trkpt lat="44.44228" lon="1.35466">
        <ele>119</ele>
        <time>2019-04-14T09:23:14Z</time>
      </trkpt>
      <trkpt lat="44.44225" lon="1.35465">
        <ele>119</ele>
        <time>2019-04-14T09:23:15Z</time>
      </trkpt>
      <trkpt lat="44.44222" lon="1.35465">
        <ele>120</ele>
        <time>2019-04-14T09:23:16Z</time>
      </trkpt>
      <trkpt lat="44.44219" lon="1.35465">
        <ele>120</ele>
        <time>2019-04-14T09:23:17Z</time>
      </trkpt>
      <trkpt lat="44.44217" lon="1.35464">
        <ele>120</ele>
        <time>2019-04-14T09:23:18Z</time>
      </trkpt>
      <trkpt lat="44.44214" lon="1.35464">
        <ele>120</ele>
        <time>2019-04-14T09:23:19Z</time>
      </trkpt>
      <trkpt lat="44.44211" lon="1.35462">
        <ele>120</ele>
        <time>2019-04-14T09:23:20Z</time>
      </trkpt>
      <trkpt lat="44.44209" lon="1.35461">
        <ele>120</ele>
        <time>2019-04-14T09:23:21Z</time>
      </trkpt>
      <trkpt lat="44.44206" lon="1.35459">
        <ele>120</ele>
        <time>2019-04-14T09:23:22Z</time>
      </trkpt>
      <trkpt lat="44.44203" lon="1.35458">
        <ele>120</ele>
        <time>2019-04-14T09:23:23Z</time>
      </trkpt>
      <trkpt lat="44.442" lon="1.35458">
        <ele>120</ele>
        <time>2019-04-14T09:23:24Z</time>
      </trkpt>
      <trkpt lat="44.44197" lon="1.35458">
        <ele>120</ele>
        <time>2019-04-14T09:23:25Z</time>
      </trkpt>
      <trkpt lat="44.44195" lon="1.35457">
        <ele>121</ele>
        <time>2019-04-14T09:23:26Z</time>
      </trkpt>
      <trkpt lat="44.44192" lon="1.35456">
        <ele>121</ele>
        <time>2019-04-14T09:23:27Z</time>
      </trkpt>
      <trkpt lat="44.4419" lon="1.35456">
        <ele>121</ele>
        <time>2019-04-14T09:23:28Z</time>
      </trkpt>
      <trkpt lat="44.44188" lon="1.35455">
        <ele>121</ele>
        <time>2019-04-14T09:23:29Z</time>
      </trkpt>
      <trkpt lat="44.44186" lon="1.35454">
        <ele>121</ele>
        <time>2019-04-14T09:23:31Z</time>
      </trkpt>
      <trkpt lat="44.44183" lon="1.35449">
        <ele>120</ele>
        <time>2019-04-14T09:23:32Z</time>
      </trkpt>
      <trkpt lat="44.4418" lon="1.35447">
        <ele>120</ele>
        <time>2019-04-14T09:23:33Z</time>
      </trkpt>
      <trkpt lat="44.44178" lon="1.35445">
        <ele>120</ele>
        <time>2019-04-14T09:23:34Z</time>
      </trkpt>
      <trkpt lat="44.44175" lon="1.35443">
        <ele>120</ele>
        <time>2019-04-14T09:23:35Z</time>
      </trkpt>
      <trkpt lat="44.44171" lon="1.35441">
        <ele>120</ele>
        <time>2019-04-14T09:23:36Z</time>
      </trkpt>
      <trkpt lat="44.44168" lon="1.35439">
        <ele>121</ele>
        <time>2019-04-14T09:23:37Z</time>
      </trkpt>
      <trkpt lat="44.44164" lon="1.35438">
        <ele>121</ele>
        <time>2019-04-14T09:23:38Z</time>
      </trkpt>
      <trkpt lat="44.44161" lon="1.35437">
        <ele>121</ele>
        <time>2019-04-14T09:23:39Z</time>
      </trkpt>
      <trkpt lat="44.44158" lon="1.35438">
        <ele>121</ele>
        <time>2019-04-14T09:23:40Z</time>
      </trkpt>
      <trkpt lat="44.44156" lon="1.35439">
        <ele>121</ele>
        <time>2019-04-14T09:23:41Z</time>
      </trkpt>
      <trkpt lat="44.44153" lon="1.35438">
        <ele>121</ele>
        <time>2019-04-14T09:23:42Z</time>
      </trkpt>
      <trkpt lat="44.4415" lon="1.35437">
        <ele>121</ele>
        <time>2019-04-14T09:23:43Z</time>
      </trkpt>
      <trkpt lat="44.44149" lon="1.35436">
        <ele>121</ele>
        <time>2019-04-14T09:23:44Z</time>
      </trkpt>
      <trkpt lat="44.44147" lon="1.35433">
        <ele>121</ele>
        <time>2019-04-14T09:23:45Z</time>
      </trkpt>
      <trkpt lat="44.44147" lon="1.35431">
        <ele>121</ele>
        <time>2019-04-14T09:23:46Z</time>
      </trkpt>
      <trkpt lat="44.44146" lon="1.35429">
        <ele>121</ele>
        <time>2019-04-14T09:23:48Z</time>
      </trkpt>
      <trkpt lat="44.44142" lon="1.35425">
        <ele>120</ele>
        <time>2019-04-14T09:23:49Z</time>
      </trkpt>
      <trkpt lat="44.4414" lon="1.35425">
        <ele>120</ele>
        <time>2019-04-14T09:23:50Z</time>
      </trkpt>
      <trkpt lat="44.44137" lon="1.35425">
        <ele>120</ele>
        <time>2019-04-14T09:23:51Z</time>
      </trkpt>
      <trkpt lat="44.44135" lon="1.35423">
        <ele>120</ele>
        <time>2019-04-14T09:23:52Z</time>
      </trkpt>
      <trkpt lat="44.44133" lon="1.3542">
        <ele>120</ele>
        <time>2019-04-14T09:23:53Z</time>
      </trkpt>
      <trkpt lat="44.44132" lon="1.35418">
        <ele>120</ele>
        <time>2019-04-14T09:23:54Z</time>
      </trkpt>
      <trkpt lat="44.4413" lon="1.35417">
        <ele>120</ele>
        <time>2019-04-14T09:23:55Z</time>
      </trkpt>
      <trkpt lat="44.44128" lon="1.35416">
        <ele>120</ele>
        <time>2019-04-14T09:23:56Z</time>
      </trkpt>
      <trkpt lat="44.44126" lon="1.35413">
        <ele>121</ele>
        <time>2019-04-14T09:23:57Z</time>
      </trkpt>
      <trkpt lat="44.44123" lon="1.3541">
        <ele>121</ele>
        <time>2019-04-14T09:23:58Z</time>
      </trkpt>
      <trkpt lat="44.4412" lon="1.35407">
        <ele>121</ele>
        <time>2019-04-14T09:23:59Z</time>
      </trkpt>
      <trkpt lat="44.44117" lon="1.35405">
        <ele>121</ele>
        <time>2019-04-14T09:24:00Z</time>
      </trkpt>
      <trkpt lat="44.44116" lon="1.35403">
        <ele>121</ele>
        <time>2019-04-14T09:24:01Z</time>
      </trkpt>
      <trkpt lat="44.44115" lon="1.35402">
        <ele>121</ele>
        <time>2019-04-14T09:24:02Z</time>
      </trkpt>
      <trkpt lat="44.44113" lon="1.354">
        <ele>121</ele>
        <time>2019-04-14T09:24:03Z</time>
      </trkpt>
      <trkpt lat="44.44111" lon="1.35399">
        <ele>121</ele>
        <time>2019-04-14T09:24:04Z</time>
      </trkpt>
      <trkpt lat="44.44109" lon="1.35396">
        <ele>121</ele>
        <time>2019-04-14T09:24:05Z</time>
      </trkpt>
      <trkpt lat="44.44107" lon="1.35393">
        <ele>121</ele>
        <time>2019-04-14T09:24:07Z</time>
      </trkpt>
      <trkpt lat="44.44105" lon="1.3539">
        <ele>121</ele>
        <time>2019-04-14T09:24:08Z</time>
      </trkpt>
      <trkpt lat="44.44104" lon="1.35387">
        <ele>121</ele>
        <time>2019-04-14T09:24:09Z</time>
      </trkpt>
      <trkpt lat="44.44099" lon="1.35381">
        <ele>121</ele>
        <time>2019-04-14T09:24:10Z</time>
      </trkpt>
      <trkpt lat="44.44096" lon="1.3538">
        <ele>121</ele>
        <time>2019-04-14T09:24:11Z</time>
      </trkpt>
      <trkpt lat="44.44094" lon="1.35377">
        <ele>121</ele>
        <time>2019-04-14T09:24:12Z</time>
      </trkpt>
      <trkpt lat="44.44091" lon="1.35375">
        <ele>121</ele>
        <time>2019-04-14T09:24:13Z</time>
      </trkpt>
      <trkpt lat="44.44089" lon="1.35372">
        <ele>121</ele>
        <time>2019-04-14T09:24:14Z</time>
      </trkpt>
      <trkpt lat="44.44087" lon="1.3537">
        <ele>121</ele>
        <time>2019-04-14T09:24:15Z</time>
      </trkpt>
      <trkpt lat="44.44085" lon="1.35367">
        <ele>121</ele>
        <time>2019-04-14T09:24:16Z</time>
      </trkpt>
      <trkpt lat="44.44083" lon="1.35365">
        <ele>121</ele>
        <time>2019-04-14T09:24:17Z</time>
      </trkpt>
      <trkpt lat="44.44079" lon="1.35361">
        <ele>121</ele>
        <time>2019-04-14T09:24:18Z</time>
      </trkpt>
      <trkpt lat="44.44075" lon="1.35358">
        <ele>122</ele>
        <time>2019-04-14T09:24:19Z</time>
      </trkpt>
      <trkpt lat="44.44074" lon="1.35355">
        <ele>122</ele>
        <time>2019-04-14T09:24:20Z</time>
      </trkpt>
      <trkpt lat="44.44072" lon="1.35353">
        <ele>122</ele>
        <time>2019-04-14T09:24:22Z</time>
      </trkpt>
      <trkpt lat="44.4407" lon="1.35351">
        <ele>122</ele>
        <time>2019-04-14T09:24:23Z</time>
      </trkpt>
      <trkpt lat="44.44067" lon="1.35348">
        <ele>122</ele>
        <time>2019-04-14T09:24:24Z</time>
      </trkpt>
      <trkpt lat="44.44064" lon="1.35347">
        <ele>122</ele>
        <time>2019-04-14T09:24:25Z</time>
      </trkpt>
      <trkpt lat="44.44062" lon="1.35345">
        <ele>122</ele>
        <time>2019-04-14T09:24:26Z</time>
      </trkpt>
      <trkpt lat="44.44057" lon="1.35341">
        <ele>123</ele>
        <time>2019-04-14T09:24:27Z</time>
      </trkpt>
      <trkpt lat="44.44055" lon="1.35339">
        <ele>123</ele>
        <time>2019-04-14T09:24:28Z</time>
      </trkpt>
      <trkpt lat="44.44052" lon="1.35336">
        <ele>123</ele>
        <time>2019-04-14T09:24:29Z</time>
      </trkpt>
      <trkpt lat="44.4405" lon="1.35333">
        <ele>124</ele>
        <time>2019-04-14T09:24:30Z</time>
      </trkpt>
      <trkpt lat="44.44048" lon="1.3533">
        <ele>124</ele>
        <time>2019-04-14T09:24:31Z</time>
      </trkpt>
      <trkpt lat="44.44046" lon="1.35327">
        <ele>124</ele>
        <time>2019-04-14T09:24:32Z</time>
      </trkpt>
      <trkpt lat="44.44045" lon="1.35324">
        <ele>123</ele>
        <time>2019-04-14T09:24:33Z</time>
      </trkpt>
      <trkpt lat="44.44044" lon="1.35319">
        <ele>123</ele>
        <time>2019-04-14T09:24:34Z</time>
      </trkpt>
      <trkpt lat="44.44043" lon="1.35316">
        <ele>123</ele>
        <time>2019-04-14T09:24:35Z</time>
      </trkpt>
      <trkpt lat="44.44041" lon="1.35314">
        <ele>123</ele>
        <time>2019-04-14T09:24:36Z</time>
      </trkpt>
      <trkpt lat="44.44038" lon="1.35311">
        <ele>123</ele>
        <time>2019-04-14T09:24:37Z</time>
      </trkpt>
      <trkpt lat="44.44035" lon="1.35309">
        <ele>123</ele>
        <time>2019-04-14T09:24:38Z</time>
      </trkpt>
      <trkpt lat="44.44034" lon="1.35308">
        <ele>123</ele>
        <time>2019-04-14T09:24:39Z</time>
      </trkpt>
      <trkpt lat="44.44033" lon="1.35305">
        <ele>123</ele>
        <time>2019-04-14T09:24:40Z</time>
      </trkpt>
      <trkpt lat="44.44032" lon="1.35303">
        <ele>123</ele>
        <time>2019-04-14T09:24:41Z</time>
      </trkpt>
      <trkpt lat="44.44031" lon="1.35301">
        <ele>123</ele>
        <time>2019-04-14T09:24:42Z</time>
      </trkpt>
      <trkpt lat="44.44029" lon="1.35298">
        <ele>123</ele>
        <time>2019-04-14T09:24:43Z</time>
      </trkpt>
      <trkpt lat="44.44028" lon="1.35296">
        <ele>123</ele>
        <time>2019-04-14T09:24:44Z</time>
      </trkpt>
      <trkpt lat="44.44027" lon="1.35292">
        <ele>123</ele>
        <time>2019-04-14T09:24:45Z</time>
      </trkpt>
      <trkpt lat="44.44026" lon="1.35288">
        <ele>123</ele>
        <time>2019-04-14T09:24:46Z</time>
      </trkpt>
      <trkpt lat="44.44024" lon="1.35284">
        <ele>123</ele>
        <time>2019-04-14T09:24:47Z</time>
      </trkpt>
      <trkpt lat="44.44022" lon="1.3528">
        <ele>123</ele>
        <time>2019-04-14T09:24:49Z</time>
      </trkpt>
      <trkpt lat="44.44022" lon="1.35277">
        <ele>123</ele>
        <time>2019-04-14T09:24:50Z</time>
      </trkpt>
      <trkpt lat="44.44019" lon="1.35273">
        <ele>123</ele>
        <time>2019-04-14T09:24:51Z</time>
      </trkpt>
      <trkpt lat="44.44017" lon="1.35271">
        <ele>123</ele>
        <time>2019-04-14T09:24:52Z</time>
      </trkpt>
      <trkpt lat="44.44015" lon="1.35268">
        <ele>123</ele>
        <time>2019-04-14T09:24:53Z</time>
      </trkpt>
      <trkpt lat="44.44013" lon="1.35266">
        <ele>122</ele>
        <time>2019-04-14T09:24:54Z</time>
      </trkpt>
      <trkpt lat="44.44011" lon="1.35264">
        <ele>122</ele>
        <time>2019-04-14T09:24:55Z</time>
      </trkpt>
      <trkpt lat="44.4401" lon="1.35262">
        <ele>122</ele>
        <time>2019-04-14T09:24:56Z</time>
      </trkpt>
      <trkpt lat="44.44007" lon="1.35261">
        <ele>122</ele>
        <time>2019-04-14T09:24:57Z</time>
      </trkpt>
      <trkpt lat="44.44006" lon="1.35261">
        <ele>122</ele>
        <time>2019-04-14T09:24:58Z</time>
      </trkpt>
      <trkpt lat="44.44003" lon="1.35259">
        <ele>122</ele>
        <time>2019-04-14T09:24:59Z</time>
      </trkpt>
      <trkpt lat="44.44001" lon="1.35257">
        <ele>122</ele>
        <time>2019-04-14T09:25:00Z</time>
      </trkpt>
      <trkpt lat="44.43997" lon="1.35254">
        <ele>122</ele>
        <time>2019-04-14T09:25:01Z</time>
      </trkpt>
      <trkpt lat="44.43993" lon="1.35253">
        <ele>122</ele>
        <time>2019-04-14T09:25:02Z</time>
      </trkpt>
      <trkpt lat="44.43991" lon="1.35252">
        <ele>122</ele>
        <time>2019-04-14T09:25:03Z</time>
      </trkpt>
      <trkpt lat="44.43987" lon="1.35251">
        <ele>123</ele>
        <time>2019-04-14T09:25:04Z</time>
      </trkpt>
      <trkpt lat="44.43984" lon="1.3525">
        <ele>123</ele>
        <time>2019-04-14T09:25:06Z</time>
      </trkpt>
      <trkpt lat="44.43982" lon="1.35251">
        <ele>123</ele>
        <time>2019-04-14T09:25:07Z</time>
      </trkpt>
      <trkpt lat="44.43979" lon="1.35251">
        <ele>123</ele>
        <time>2019-04-14T09:25:08Z</time>
      </trkpt>
      <trkpt lat="44.43974" lon="1.35252">
        <ele>123</ele>
        <time>2019-04-14T09:25:09Z</time>
      </trkpt>
      <trkpt lat="44.43972" lon="1.35252">
        <ele>124</ele>
        <time>2019-04-14T09:25:10Z</time>
      </trkpt>
      <trkpt lat="44.43969" lon="1.35253">
        <ele>124</ele>
        <time>2019-04-14T09:25:11Z</time>
      </trkpt>
      <trkpt lat="44.43967" lon="1.35253">
        <ele>124</ele>
        <time>2019-04-14T09:25:12Z</time>
      </trkpt>
      <trkpt lat="44.43965" lon="1.35252">
        <ele>125</ele>
        <time>2019-04-14T09:25:13Z</time>
      </trkpt>
      <trkpt lat="44.43963" lon="1.35251">
        <ele>125</ele>
        <time>2019-04-14T09:25:14Z</time>
      </trkpt>
      <trkpt lat="44.4396" lon="1.35251">
        <ele>125</ele>
        <time>2019-04-14T09:25:15Z</time>
      </trkpt>
      <trkpt lat="44.43957" lon="1.35251">
        <ele>125</ele>
        <time>2019-04-14T09:25:16Z</time>
      </trkpt>
      <trkpt lat="44.43955" lon="1.35251">
        <ele>126</ele>
        <time>2019-04-14T09:25:17Z</time>
      </trkpt>
      <trkpt lat="44.43953" lon="1.35251">
        <ele>126</ele>
        <time>2019-04-14T09:25:18Z</time>
      </trkpt>
      <trkpt lat="44.43951" lon="1.35252">
        <ele>126</ele>
        <time>2019-04-14T09:25:19Z</time>
      </trkpt>
      <trkpt lat="44.43949" lon="1.35252">
        <ele>127</ele>
        <time>2019-04-14T09:25:20Z</time>
      </trkpt>
      <trkpt lat="44.43947" lon="1.35251">
        <ele>127</ele>
        <time>2019-04-14T09:25:21Z</time>
      </trkpt>
      <trkpt lat="44.43944" lon="1.3525">
        <ele>127</ele>
        <time>2019-04-14T09:25:22Z</time>
      </trkpt>
      <trkpt lat="44.43941" lon="1.35249">
        <ele>128</ele>
        <time>2019-04-14T09:25:23Z</time>
      </trkpt>
      <trkpt lat="44.43939" lon="1.35247">
        <ele>127</ele>
        <time>2019-04-14T09:25:25Z</time>
      </trkpt>
      <trkpt lat="44.43937" lon="1.35244">
        <ele>127</ele>
        <time>2019-04-14T09:25:26Z</time>
      </trkpt>
      <trkpt lat="44.43935" lon="1.35242">
        <ele>127</ele>
        <time>2019-04-14T09:25:27Z</time>
      </trkpt>
      <trkpt lat="44.43932" lon="1.3524">
        <ele>127</ele>
        <time>2019-04-14T09:25:28Z</time>
      </trkpt>
      <trkpt lat="44.43929" lon="1.35239">
        <ele>127</ele>
        <time>2019-04-14T09:25:29Z</time>
      </trkpt>
      <trkpt lat="44.43926" lon="1.35239">
        <ele>128</ele>
        <time>2019-04-14T09:25:30Z</time>
      </trkpt>
      <trkpt lat="44.43924" lon="1.35239">
        <ele>128</ele>
        <time>2019-04-14T09:25:31Z</time>
      </trkpt>
      <trkpt lat="44.43919" lon="1.35239">
        <ele>129</ele>
        <time>2019-04-14T09:25:32Z</time>
      </trkpt>
      <trkpt lat="44.43917" lon="1.35239">
        <ele>129</ele>
        <time>2019-04-14T09:25:33Z</time>
      </trkpt>
      <trkpt lat="44.43914" lon="1.35238">
        <ele>129</ele>
        <time>2019-04-14T09:25:34Z</time>
      </trkpt>
      <trkpt lat="44.43911" lon="1.35238">
        <ele>129</ele>
        <time>2019-04-14T09:25:35Z</time>
      </trkpt>
      <trkpt lat="44.43909" lon="1.35236">
        <ele>128</ele>
        <time>2019-04-14T09:25:36Z</time>
      </trkpt>
      <trkpt lat="44.43906" lon="1.35234">
        <ele>128</ele>
        <time>2019-04-14T09:25:37Z</time>
      </trkpt>
      <trkpt lat="44.43902" lon="1.35232">
        <ele>128</ele>
        <time>2019-04-14T09:25:38Z</time>
      </trkpt>
      <trkpt lat="44.43899" lon="1.35229">
        <ele>128</ele>
        <time>2019-04-14T09:25:39Z</time>
      </trkpt>
      <trkpt lat="44.43895" lon="1.35228">
        <ele>128</ele>
        <time>2019-04-14T09:25:40Z</time>
      </trkpt>
      <trkpt lat="44.43892" lon="1.35227">
        <ele>128</ele>
        <time>2019-04-14T09:25:41Z</time>
      </trkpt>
      <trkpt lat="44.4389" lon="1.35226">
        <ele>128</ele>
        <time>2019-04-14T09:25:42Z</time>
      </trkpt>
      <trkpt lat="44.43886" lon="1.35225">
        <ele>128</ele>
        <time>2019-04-14T09:25:43Z</time>
      </trkpt>
      <trkpt lat="44.43883" lon="1.35225">
        <ele>128</ele>
        <time>2019-04-14T09:25:44Z</time>
      </trkpt>
      <trkpt lat="44.4388" lon="1.35225">
        <ele>128</ele>
        <time>2019-04-14T09:25:45Z</time>
      </trkpt>
      <trkpt lat="44.43878" lon="1.35224">
        <ele>128</ele>
        <time>2019-04-14T09:25:46Z</time>
      </trkpt>
      <trkpt lat="44.43875" lon="1.35224">
        <ele>128</ele>
        <time>2019-04-14T09:25:48Z</time>
      </trkpt>
      <trkpt lat="44.43872" lon="1.35224">
        <ele>128</ele>
        <time>2019-04-14T09:25:49Z</time>
      </trkpt>
      <trkpt lat="44.4387" lon="1.35222">
        <ele>128</ele>
        <time>2019-04-14T09:25:50Z</time>
      </trkpt>
      <trkpt lat="44.43868" lon="1.35222">
        <ele>128</ele>
        <time>2019-04-14T09:25:51Z</time>
      </trkpt>
      <trkpt lat="44.43866" lon="1.35221">
        <ele>129</ele>
        <time>2019-04-14T09:25:52Z</time>
      </trkpt>
      <trkpt lat="44.43863" lon="1.3522">
        <ele>129</ele>
        <time>2019-04-14T09:25:53Z</time>
      </trkpt>
      <trkpt lat="44.4386" lon="1.35219">
        <ele>129</ele>
        <time>2019-04-14T09:25:54Z</time>
      </trkpt>
      <trkpt lat="44.43859" lon="1.35219">
        <ele>129</ele>
        <time>2019-04-14T09:25:55Z</time>
      </trkpt>
      <trkpt lat="44.43859" lon="1.3522">
        <ele>129</ele>
        <time>2019-04-14T09:25:56Z</time>
      </trkpt>
      <trkpt lat="44.43857" lon="1.35219">
        <ele>129</ele>
        <time>2019-04-14T09:25:57Z</time>
      </trkpt>
      <trkpt lat="44.43854" lon="1.35218">
        <ele>130</ele>
        <time>2019-04-14T09:25:58Z</time>
      </trkpt>
      <trkpt lat="44.43852" lon="1.35217">
        <ele>130</ele>
        <time>2019-04-14T09:25:59Z</time>
      </trkpt>
      <trkpt lat="44.43849" lon="1.35216">
        <ele>130</ele>
        <time>2019-04-14T09:26:00Z</time>
      </trkpt>
      <trkpt lat="44.43846" lon="1.35214">
        <ele>130</ele>
        <time>2019-04-14T09:26:01Z</time>
      </trkpt>
      <trkpt lat="44.43843" lon="1.35212">
        <ele>130</ele>
        <time>2019-04-14T09:26:02Z</time>
      </trkpt>
      <trkpt lat="44.4384" lon="1.35209">
        <ele>130</ele>
        <time>2019-04-14T09:26:03Z</time>
      </trkpt>
      <trkpt lat="44.43837" lon="1.35208">
        <ele>130</ele>
        <time>2019-04-14T09:26:04Z</time>
      </trkpt>
      <trkpt lat="44.43834" lon="1.35209">
        <ele>130</ele>
        <time>2019-04-14T09:26:05Z</time>
      </trkpt>
      <trkpt lat="44.43831" lon="1.35209">
        <ele>130</ele>
        <time>2019-04-14T09:26:06Z</time>
      </trkpt>
      <trkpt lat="44.43828" lon="1.35209">
        <ele>130</ele>
        <time>2019-04-14T09:26:07Z</time>
      </trkpt>
      <trkpt lat="44.43826" lon="1.35209">
        <ele>130</ele>
        <time>2019-04-14T09:26:08Z</time>
      </trkpt>
      <trkpt lat="44.43823" lon="1.35209">
        <ele>130</ele>
        <time>2019-04-14T09:26:09Z</time>
      </trkpt>
      <trkpt lat="44.4382" lon="1.35208">
        <ele>130</ele>
        <time>2019-04-14T09:26:10Z</time>
      </trkpt>
      <trkpt lat="44.43817" lon="1.35206">
        <ele>130</ele>
        <time>2019-04-14T09:26:11Z</time>
      </trkpt>
      <trkpt lat="44.43814" lon="1.35205">
        <ele>130</ele>
        <time>2019-04-14T09:26:12Z</time>
      </trkpt>
      <trkpt lat="44.43811" lon="1.35204">
        <ele>130</ele>
        <time>2019-04-14T09:26:13Z</time>
      </trkpt>
      <trkpt lat="44.43809" lon="1.35205">
        <ele>130</ele>
        <time>2019-04-14T09:26:15Z</time>
      </trkpt>
      <trkpt lat="44.43806" lon="1.35204">
        <ele>131</ele>
        <time>2019-04-14T09:26:16Z</time>
      </trkpt>
      <trkpt lat="44.43804" lon="1.35203">
        <ele>131</ele>
        <time>2019-04-14T09:26:17Z</time>
      </trkpt>
      <trkpt lat="44.43802" lon="1.35201">
        <ele>131</ele>
        <time>2019-04-14T09:26:18Z</time>
      </trkpt>
      <trkpt lat="44.43799" lon="1.35201">
        <ele>131</ele>
        <time>2019-04-14T09:26:19Z</time>
      </trkpt>
      <trkpt lat="44.43796" lon="1.352">
        <ele>131</ele>
        <time>2019-04-14T09:26:20Z</time>
      </trkpt>
      <trkpt lat="44.43792" lon="1.35199">
        <ele>131</ele>
        <time>2019-04-14T09:26:21Z</time>
      </trkpt>
      <trkpt lat="44.43789" lon="1.35198">
        <ele>131</ele>
        <time>2019-04-14T09:26:22Z</time>
      </trkpt>
      <trkpt lat="44.43782" lon="1.35194">
        <ele>131</ele>
        <time>2019-04-14T09:26:23Z</time>
      </trkpt>
      <trkpt lat="44.43778" lon="1.35192">
        <ele>131</ele>
        <time>2019-04-14T09:26:24Z</time>
      </trkpt>
      <trkpt lat="44.43774" lon="1.35191">
        <ele>131</ele>
        <time>2019-04-14T09:26:25Z</time>
      </trkpt>
      <trkpt lat="44.4377" lon="1.35189">
        <ele>131</ele>
        <time>2019-04-14T09:26:26Z</time>
      </trkpt>
      <trkpt lat="44.43767" lon="1.35188">
        <ele>131</ele>
        <time>2019-04-14T09:26:27Z</time>
      </trkpt>
      <trkpt lat="44.43764" lon="1.35186">
        <ele>132</ele>
        <time>2019-04-14T09:26:28Z</time>
      </trkpt>
      <trkpt lat="44.4376" lon="1.35185">
        <ele>132</ele>
        <time>2019-04-14T09:26:29Z</time>
      </trkpt>
      <trkpt lat="44.43756" lon="1.35184">
        <ele>132</ele>
        <time>2019-04-14T09:26:31Z</time>
      </trkpt>
      <trkpt lat="44.43753" lon="1.35182">
        <ele>132</ele>
        <time>2019-04-14T09:26:32Z</time>
      </trkpt>
      <trkpt lat="44.43749" lon="1.35181">
        <ele>132</ele>
        <time>2019-04-14T09:26:33Z</time>
      </trkpt>
      <trkpt lat="44.43744" lon="1.3518">
        <ele>132</ele>
        <time>2019-04-14T09:26:34Z</time>
      </trkpt>
      <trkpt lat="44.4374" lon="1.35178">
        <ele>132</ele>
        <time>2019-04-14T09:26:35Z</time>
      </trkpt>
      <trkpt lat="44.43736" lon="1.35177">
        <ele>132</ele>
        <time>2019-04-14T09:26:36Z</time>
      </trkpt>
      <trkpt lat="44.43732" lon="1.35176">
        <ele>132</ele>
        <time>2019-04-14T09:26:37Z</time>
      </trkpt>
      <trkpt lat="44.43728" lon="1.35175">
        <ele>132</ele>
        <time>2019-04-14T09:26:38Z</time>
      </trkpt>
      <trkpt lat="44.43725" lon="1.35175">
        <ele>132</ele>
        <time>2019-04-14T09:26:39Z</time>
      </trkpt>
      <trkpt lat="44.43721" lon="1.35175">
        <ele>132</ele>
        <time>2019-04-14T09:26:40Z</time>
      </trkpt>
      <trkpt lat="44.43717" lon="1.35173">
        <ele>132</ele>
        <time>2019-04-14T09:26:41Z</time>
      </trkpt>
      <trkpt lat="44.43714" lon="1.35173">
        <ele>132</ele>
        <time>2019-04-14T09:26:42Z</time>
      </trkpt>
      <trkpt lat="44.4371" lon="1.35171">
        <ele>132</ele>
        <time>2019-04-14T09:26:43Z</time>
      </trkpt>
      <trkpt lat="44.43706" lon="1.3517">
        <ele>132</ele>
        <time>2019-04-14T09:26:44Z</time>
      </trkpt>
      <trkpt lat="44.43701" lon="1.35169">
        <ele>132</ele>
        <time>2019-04-14T09:26:45Z</time>
      </trkpt>
      <trkpt lat="44.43698" lon="1.35169">
        <ele>132</ele>
        <time>2019-04-14T09:26:46Z</time>
      </trkpt>
      <trkpt lat="44.43694" lon="1.35168">
        <ele>132</ele>
        <time>2019-04-14T09:26:47Z</time>
      </trkpt>
      <trkpt lat="44.43691" lon="1.35167">
        <ele>132</ele>
        <time>2019-04-14T09:26:48Z</time>
      </trkpt>
      <trkpt lat="44.43688" lon="1.35166">
        <ele>132</ele>
        <time>2019-04-14T09:26:49Z</time>
      </trkpt>
      <trkpt lat="44.43686" lon="1.35165">
        <ele>132</ele>
        <time>2019-04-14T09:26:50Z</time>
      </trkpt>
      <trkpt lat="44.43683" lon="1.35163">
        <ele>132</ele>
        <time>2019-04-14T09:26:51Z</time>
      </trkpt>
      <trkpt lat="44.43677" lon="1.35161">
        <ele>132</ele>
        <time>2019-04-14T09:26:52Z</time>
      </trkpt>
      <trkpt lat="44.43674" lon="1.35162">
        <ele>132</ele>
        <time>2019-04-14T09:26:53Z</time>
      </trkpt>
      <trkpt lat="44.43671" lon="1.35161">
        <ele>132</ele>
        <time>2019-04-14T09:26:54Z</time>
      </trkpt>
      <trkpt lat="44.43667" lon="1.35161">
        <ele>132</ele>
        <time>2019-04-14T09:26:55Z</time>
      </trkpt>
      <trkpt lat="44.43664" lon="1.3516">
        <ele>132</ele>
        <time>2019-04-14T09:26:56Z</time>
      </trkpt>
      <trkpt lat="44.43661" lon="1.3516">
        <ele>132</ele>
        <time>2019-04-14T09:26:57Z</time>
      </trkpt>
      <trkpt lat="44.43657" lon="1.3516">
        <ele>132</ele>
        <time>2019-04-14T09:26:58Z</time>
      </trkpt>
      <trkpt lat="44.43654" lon="1.3516">
        <ele>132</ele>
        <time>2019-04-14T09:26:59Z</time>
      </trkpt>
      <trkpt lat="44.4365" lon="1.3516">
        <ele>133</ele>
        <time>2019-04-14T09:27:00Z</time>
      </trkpt>
      <trkpt lat="44.43647" lon="1.35159">
        <ele>133</ele>
        <time>2019-04-14T09:27:01Z</time>
      </trkpt>
      <trkpt lat="44.43643" lon="1.3516">
        <ele>133</ele>
        <time>2019-04-14T09:27:02Z</time>
      </trkpt>
      <trkpt lat="44.43641" lon="1.35159">
        <ele>133</ele>
        <time>2019-04-14T09:27:03Z</time>
      </trkpt>
      <trkpt lat="44.43638" lon="1.35159">
        <ele>133</ele>
        <time>2019-04-14T09:27:05Z</time>
      </trkpt>
      <trkpt lat="44.43636" lon="1.35159">
        <ele>133</ele>
        <time>2019-04-14T09:27:06Z</time>
      </trkpt>
      <trkpt lat="44.43632" lon="1.35159">
        <ele>134</ele>
        <time>2019-04-14T09:27:07Z</time>
      </trkpt>
      <trkpt lat="44.43628" lon="1.35158">
        <ele>134</ele>
        <time>2019-04-14T09:27:08Z</time>
      </trkpt>
      <trkpt lat="44.43625" lon="1.35158">
        <ele>134</ele>
        <time>2019-04-14T09:27:09Z</time>
      </trkpt>
      <trkpt lat="44.43623" lon="1.35156">
        <ele>135</ele>
        <time>2019-04-14T09:27:10Z</time>
      </trkpt>
      <trkpt lat="44.43619" lon="1.35156">
        <ele>135</ele>
        <time>2019-04-14T09:27:11Z</time>
      </trkpt>
      <trkpt lat="44.43616" lon="1.35155">
        <ele>135</ele>
        <time>2019-04-14T09:27:12Z</time>
      </trkpt>
      <trkpt lat="44.43614" lon="1.35154">
        <ele>135</ele>
        <time>2019-04-14T09:27:13Z</time>
      </trkpt>
      <trkpt lat="44.43612" lon="1.35154">
        <ele>135</ele>
        <time>2019-04-14T09:27:14Z</time>
      </trkpt>
      <trkpt lat="44.43608" lon="1.35152">
        <ele>134</ele>
        <time>2019-04-14T09:27:15Z</time>
      </trkpt>
      <trkpt lat="44.43606" lon="1.35149">
        <ele>134</ele>
        <time>2019-04-14T09:27:16Z</time>
      </trkpt>
      <trkpt lat="44.43604" lon="1.35146">
        <ele>134</ele>
        <time>2019-04-14T09:27:17Z</time>
      </trkpt>
      <trkpt lat="44.436" lon="1.35142">
        <ele>133</ele>
        <time>2019-04-14T09:27:19Z</time>
      </trkpt>
      <trkpt lat="44.43596" lon="1.3514">
        <ele>133</ele>
        <time>2019-04-14T09:27:20Z</time>
      </trkpt>
      <trkpt lat="44.43593" lon="1.35137">
        <ele>133</ele>
        <time>2019-04-14T09:27:21Z</time>
      </trkpt>
      <trkpt lat="44.4359" lon="1.35134">
        <ele>133</ele>
        <time>2019-04-14T09:27:22Z</time>
      </trkpt>
      <trkpt lat="44.43587" lon="1.35132">
        <ele>133</ele>
        <time>2019-04-14T09:27:23Z</time>
      </trkpt>
      <trkpt lat="44.43584" lon="1.35129">
        <ele>133</ele>
        <time>2019-04-14T09:27:24Z</time>
      </trkpt>
      <trkpt lat="44.43581" lon="1.35127">
        <ele>133</ele>
        <time>2019-04-14T09:27:25Z</time>
      </trkpt>
      <trkpt lat="44.43579" lon="1.35125">
        <ele>133</ele>
        <time>2019-04-14T09:27:26Z</time>
      </trkpt>
      <trkpt lat="44.43576" lon="1.35123">
        <ele>133</ele>
        <time>2019-04-14T09:27:27Z</time>
      </trkpt>
      <trkpt lat="44.43575" lon="1.35119">
        <ele>133</ele>
        <time>2019-04-14T09:27:28Z</time>
      </trkpt>
      <trkpt lat="44.43573" lon="1.35117">
        <ele>133</ele>
        <time>2019-04-14T09:27:29Z</time>
      </trkpt>
      <trkpt lat="44.4357" lon="1.35115">
        <ele>133</ele>
        <time>2019-04-14T09:27:30Z</time>
      </trkpt>
      <trkpt lat="44.43568" lon="1.35113">
        <ele>134</ele>
        <time>2019-04-14T09:27:31Z</time>
      </trkpt>
      <trkpt lat="44.43566" lon="1.35112">
        <ele>134</ele>
        <time>2019-04-14T09:27:32Z</time>
      </trkpt>
      <trkpt lat="44.43561" lon="1.35108">
        <ele>134</ele>
        <time>2019-04-14T09:27:33Z</time>
      </trkpt>
      <trkpt lat="44.43558" lon="1.35105">
        <ele>134</ele>
        <time>2019-04-14T09:27:34Z</time>
      </trkpt>
      <trkpt lat="44.43555" lon="1.35103">
        <ele>134</ele>
        <time>2019-04-14T09:27:35Z</time>
      </trkpt>
      <trkpt lat="44.43552" lon="1.35101">
        <ele>134</ele>
        <time>2019-04-14T09:27:36Z</time>
      </trkpt>
      <trkpt lat="44.43549" lon="1.35099">
        <ele>134</ele>
        <time>2019-04-14T09:27:38Z</time>
      </trkpt>
      <trkpt lat="44.43546" lon="1.35096">
        <ele>134</ele>
        <time>2019-04-14T09:27:39Z</time>
      </trkpt>
      <trkpt lat="44.43543" lon="1.35092">
        <ele>134</ele>
        <time>2019-04-14T09:27:40Z</time>
      </trkpt>
      <trkpt lat="44.4354" lon="1.35089">
        <ele>134</ele>
        <time>2019-04-14T09:27:41Z</time>
      </trkpt>
      <trkpt lat="44.43536" lon="1.35086">
        <ele>134</ele>
        <time>2019-04-14T09:27:42Z</time>
      </trkpt>
      <trkpt lat="44.43533" lon="1.35084">
        <ele>134</ele>
        <time>2019-04-14T09:27:43Z</time>
      </trkpt>
      <trkpt lat="44.4353" lon="1.35085">
        <ele>134</ele>
        <time>2019-04-14T09:27:44Z</time>
      </trkpt>
      <trkpt lat="44.43529" lon="1.35084">
        <ele>134</ele>
        <time>2019-04-14T09:27:45Z</time>
      </trkpt>
      <trkpt lat="44.43527" lon="1.35082">
        <ele>134</ele>
        <time>2019-04-14T09:27:46Z</time>
      </trkpt>
      <trkpt lat="44.43522" lon="1.35078">
        <ele>134</ele>
        <time>2019-04-14T09:27:47Z</time>
      </trkpt>
      <trkpt lat="44.43519" lon="1.35075">
        <ele>134</ele>
        <time>2019-04-14T09:27:48Z</time>
      </trkpt>
      <trkpt lat="44.43515" lon="1.35071">
        <ele>134</ele>
        <time>2019-04-14T09:27:49Z</time>
      </trkpt>
      <trkpt lat="44.43512" lon="1.35067">
        <ele>134</ele>
        <time>2019-04-14T09:27:50Z</time>
      </trkpt>
      <trkpt lat="44.43509" lon="1.35064">
        <ele>134</ele>
        <time>2019-04-14T09:27:51Z</time>
      </trkpt>
      <trkpt lat="44.43507" lon="1.35061">
        <ele>134</ele>
        <time>2019-04-14T09:27:52Z</time>
      </trkpt>
      <trkpt lat="44.43504" lon="1.35058">
        <ele>134</ele>
        <time>2019-04-14T09:27:53Z</time>
      </trkpt>
      <trkpt lat="44.435" lon="1.35057">
        <ele>134</ele>
        <time>2019-04-14T09:27:54Z</time>
      </trkpt>
      <trkpt lat="44.43495" lon="1.35055">
        <ele>134</ele>
        <time>2019-04-14T09:27:55Z</time>
      </trkpt>
      <trkpt lat="44.43491" lon="1.35052">
        <ele>134</ele>
        <time>2019-04-14T09:27:56Z</time>
      </trkpt>
      <trkpt lat="44.43485" lon="1.35049">
        <ele>134</ele>
        <time>2019-04-14T09:27:57Z</time>
      </trkpt>
      <trkpt lat="44.4348" lon="1.35046">
        <ele>134</ele>
        <time>2019-04-14T09:27:59Z</time>
      </trkpt>
      <trkpt lat="44.43477" lon="1.35044">
        <ele>134</ele>
        <time>2019-04-14T09:28:00Z</time>
      </trkpt>
      <trkpt lat="44.43475" lon="1.35042">
        <ele>134</ele>
        <time>2019-04-14T09:28:01Z</time>
      </trkpt>
      <trkpt lat="44.43471" lon="1.3504">
        <ele>134</ele>
        <time>2019-04-14T09:28:02Z</time>
      </trkpt>
      <trkpt lat="44.43467" lon="1.35039">
        <ele>135</ele>
        <time>2019-04-14T09:28:03Z</time>
      </trkpt>
      <trkpt lat="44.43464" lon="1.35039">
        <ele>135</ele>
        <time>2019-04-14T09:28:04Z</time>
      </trkpt>
      <trkpt lat="44.4346" lon="1.35039">
        <ele>135</ele>
        <time>2019-04-14T09:28:05Z</time>
      </trkpt>
      <trkpt lat="44.43456" lon="1.35038">
        <ele>135</ele>
        <time>2019-04-14T09:28:06Z</time>
      </trkpt>
      <trkpt lat="44.43452" lon="1.35038">
        <ele>135</ele>
        <time>2019-04-14T09:28:07Z</time>
      </trkpt>
      <trkpt lat="44.43449" lon="1.35038">
        <ele>136</ele>
        <time>2019-04-14T09:28:08Z</time>
      </trkpt>
      <trkpt lat="44.43447" lon="1.35038">
        <ele>136</ele>
        <time>2019-04-14T09:28:09Z</time>
      </trkpt>
      <trkpt lat="44.43445" lon="1.35037">
        <ele>136</ele>
        <time>2019-04-14T09:28:10Z</time>
      </trkpt>
      <trkpt lat="44.43442" lon="1.35038">
        <ele>136</ele>
        <time>2019-04-14T09:28:11Z</time>
      </trkpt>
      <trkpt lat="44.43439" lon="1.35038">
        <ele>136</ele>
        <time>2019-04-14T09:28:12Z</time>
      </trkpt>
      <trkpt lat="44.43435" lon="1.35038">
        <ele>136</ele>
        <time>2019-04-14T09:28:13Z</time>
      </trkpt>
      <trkpt lat="44.43431" lon="1.35038">
        <ele>136</ele>
        <time>2019-04-14T09:28:14Z</time>
      </trkpt>
      <trkpt lat="44.43428" lon="1.3504">
        <ele>136</ele>
        <time>2019-04-14T09:28:15Z</time>
      </trkpt>
      <trkpt lat="44.43425" lon="1.3504">
        <ele>136</ele>
        <time>2019-04-14T09:28:16Z</time>
      </trkpt>
      <trkpt lat="44.43421" lon="1.35041">
        <ele>136</ele>
        <time>2019-04-14T09:28:17Z</time>
      </trkpt>
      <trkpt lat="44.43417" lon="1.35042">
        <ele>136</ele>
        <time>2019-04-14T09:28:18Z</time>
      </trkpt>
      <trkpt lat="44.43414" lon="1.35042">
        <ele>136</ele>
        <time>2019-04-14T09:28:19Z</time>
      </trkpt>
      <trkpt lat="44.4341" lon="1.35043">
        <ele>136</ele>
        <time>2019-04-14T09:28:20Z</time>
      </trkpt>
      <trkpt lat="44.43407" lon="1.35044">
        <ele>137</ele>
        <time>2019-04-14T09:28:21Z</time>
      </trkpt>
      <trkpt lat="44.43403" lon="1.35043">
        <ele>137</ele>
        <time>2019-04-14T09:28:22Z</time>
      </trkpt>
      <trkpt lat="44.434" lon="1.35044">
        <ele>137</ele>
        <time>2019-04-14T09:28:23Z</time>
      </trkpt>
      <trkpt lat="44.43397" lon="1.35045">
        <ele>137</ele>
        <time>2019-04-14T09:28:24Z</time>
      </trkpt>
      <trkpt lat="44.43393" lon="1.35047">
        <ele>137</ele>
        <time>2019-04-14T09:28:25Z</time>
      </trkpt>
      <trkpt lat="44.43389" lon="1.35047">
        <ele>137</ele>
        <time>2019-04-14T09:28:26Z</time>
      </trkpt>
      <trkpt lat="44.43385" lon="1.35048">
        <ele>137</ele>
        <time>2019-04-14T09:28:27Z</time>
      </trkpt>
      <trkpt lat="44.43377" lon="1.35049">
        <ele>137</ele>
        <time>2019-04-14T09:28:28Z</time>
      </trkpt>
      <trkpt lat="44.43373" lon="1.35049">
        <ele>137</ele>
        <time>2019-04-14T09:28:29Z</time>
      </trkpt>
      <trkpt lat="44.43368" lon="1.35049">
        <ele>136</ele>
        <time>2019-04-14T09:28:30Z</time>
      </trkpt>
      <trkpt lat="44.43365" lon="1.35051">
        <ele>136</ele>
        <time>2019-04-14T09:28:31Z</time>
      </trkpt>
      <trkpt lat="44.43361" lon="1.35051">
        <ele>136</ele>
        <time>2019-04-14T09:28:32Z</time>
      </trkpt>
      <trkpt lat="44.43358" lon="1.35053">
        <ele>137</ele>
        <time>2019-04-14T09:28:33Z</time>
      </trkpt>
      <trkpt lat="44.43354" lon="1.35054">
        <ele>137</ele>
        <time>2019-04-14T09:28:34Z</time>
      </trkpt>
      <trkpt lat="44.43351" lon="1.35055">
        <ele>137</ele>
        <time>2019-04-14T09:28:36Z</time>
      </trkpt>
      <trkpt lat="44.43348" lon="1.35057">
        <ele>137</ele>
        <time>2019-04-14T09:28:37Z</time>
      </trkpt>
      <trkpt lat="44.43346" lon="1.3506">
        <ele>137</ele>
        <time>2019-04-14T09:28:38Z</time>
      </trkpt>
      <trkpt lat="44.43346" lon="1.35064">
        <ele>137</ele>
        <time>2019-04-14T09:28:39Z</time>
      </trkpt>
      <trkpt lat="44.43344" lon="1.35066">
        <ele>137</ele>
        <time>2019-04-14T09:28:40Z</time>
      </trkpt>
      <trkpt lat="44.43342" lon="1.35067">
        <ele>137</ele>
        <time>2019-04-14T09:28:41Z</time>
      </trkpt>
      <trkpt lat="44.4334" lon="1.35068">
        <ele>137</ele>
        <time>2019-04-14T09:28:42Z</time>
      </trkpt>
      <trkpt lat="44.43337" lon="1.35069">
        <ele>137</ele>
        <time>2019-04-14T09:28:43Z</time>
      </trkpt>
      <trkpt lat="44.43335" lon="1.35072">
        <ele>137</ele>
        <time>2019-04-14T09:28:44Z</time>
      </trkpt>
      <trkpt lat="44.43333" lon="1.35075">
        <ele>138</ele>
        <time>2019-04-14T09:28:45Z</time>
      </trkpt>
      <trkpt lat="44.4333" lon="1.35078">
        <ele>138</ele>
        <time>2019-04-14T09:28:46Z</time>
      </trkpt>
      <trkpt lat="44.43328" lon="1.35078">
        <ele>138</ele>
        <time>2019-04-14T09:28:47Z</time>
      </trkpt>
      <trkpt lat="44.43325" lon="1.35078">
        <ele>137</ele>
        <time>2019-04-14T09:28:48Z</time>
      </trkpt>
      <trkpt lat="44.43322" lon="1.35078">
        <ele>137</ele>
        <time>2019-04-14T09:28:49Z</time>
      </trkpt>
      <trkpt lat="44.43319" lon="1.35076">
        <ele>137</ele>
        <time>2019-04-14T09:28:50Z</time>
      </trkpt>
      <trkpt lat="44.43315" lon="1.35074">
        <ele>137</ele>
        <time>2019-04-14T09:28:51Z</time>
      </trkpt>
      <trkpt lat="44.43312" lon="1.35074">
        <ele>137</ele>
        <time>2019-04-14T09:28:52Z</time>
      </trkpt>
      <trkpt lat="44.43307" lon="1.35075">
        <ele>137</ele>
        <time>2019-04-14T09:28:53Z</time>
      </trkpt>
      <trkpt lat="44.43303" lon="1.35076">
        <ele>137</ele>
        <time>2019-04-14T09:28:54Z</time>
      </trkpt>
      <trkpt lat="44.433" lon="1.35078">
        <ele>137</ele>
        <time>2019-04-14T09:28:55Z</time>
      </trkpt>
      <trkpt lat="44.43296" lon="1.35079">
        <ele>138</ele>
        <time>2019-04-14T09:28:56Z</time>
      </trkpt>
      <trkpt lat="44.43293" lon="1.3508">
        <ele>138</ele>
        <time>2019-04-14T09:28:57Z</time>
      </trkpt>
      <trkpt lat="44.4329" lon="1.35081">
        <ele>138</ele>
        <time>2019-04-14T09:28:58Z</time>
      </trkpt>
      <trkpt lat="44.43287" lon="1.35083">
        <ele>138</ele>
        <time>2019-04-14T09:28:59Z</time>
      </trkpt>
      <trkpt lat="44.43284" lon="1.35084">
        <ele>138</ele>
        <time>2019-04-14T09:29:00Z</time>
      </trkpt>
      <trkpt lat="44.43281" lon="1.35084">
        <ele>139</ele>
        <time>2019-04-14T09:29:01Z</time>
      </trkpt>
      <trkpt lat="44.43279" lon="1.35082">
        <ele>138</ele>
        <time>2019-04-14T09:29:02Z</time>
      </trkpt>
      <trkpt lat="44.43277" lon="1.35077">
        <ele>138</ele>
        <time>2019-04-14T09:29:04Z</time>
      </trkpt>
      <trkpt lat="44.43277" lon="1.35075">
        <ele>138</ele>
        <time>2019-04-14T09:29:05Z</time>
      </trkpt>
      <trkpt lat="44.43278" lon="1.35072">
        <ele>138</ele>
        <time>2019-04-14T09:29:06Z</time>
      </trkpt>
      <trkpt lat="44.4328" lon="1.3507">
        <ele>138</ele>
        <time>2019-04-14T09:29:07Z</time>
      </trkpt>
      <trkpt lat="44.43281" lon="1.35068">
        <ele>138</ele>
        <time>2019-04-14T09:29:08Z</time>
      </trkpt>
      <trkpt lat="44.43281" lon="1.35067">
        <ele>138</ele>
        <time>2019-04-14T09:29:09Z</time>
      </trkpt>
      <trkpt lat="44.43281" lon="1.35067">
        <ele>138</ele>
        <time>2019-04-14T09:29:10Z</time>
      </trkpt>
      <trkpt lat="44.43281" lon="1.35067">
        <ele>138</ele>
        <time>2019-04-14T09:29:11Z</time>
      </trkpt>
      <trkpt lat="44.43281" lon="1.35067">
        <ele>138</ele>
        <time>2019-04-14T09:29:12Z</time>
      </trkpt>
      <trkpt lat="44.43281" lon="1.35067">
        <ele>138</ele>
        <time>2019-04-14T09:29:13Z</time>
      </trkpt>
      <trkpt lat="44.43281" lon="1.35067">
        <ele>138</ele>
        <time>2019-04-14T09:29:14Z</time>
      </trkpt>
      <trkpt lat="44.43281" lon="1.35067">
        <ele>138</ele>
        <time>2019-04-14T09:29:15Z</time>
      </trkpt>
      <trkpt lat="44.4328" lon="1.35067">
        <ele>138</ele>
        <time>2019-04-14T09:29:16Z</time>
      </trkpt>
      <trkpt lat="44.43265" lon="1.35056">
        <ele>140</ele>
        <time>2019-04-14T09:30:01Z</time>
      </trkpt>
      <trkpt lat="44.43264" lon="1.35057">
        <ele>141</ele>
        <time>2019-04-14T09:30:02Z</time>
      </trkpt>
      <trkpt lat="44.43262" lon="1.35057">
        <ele>141</ele>
        <time>2019-04-14T09:30:03Z</time>
      </trkpt>
      <trkpt lat="44.4326" lon="1.35058">
        <ele>141</ele>
        <time>2019-04-14T09:30:04Z</time>
      </trkpt>
      <trkpt lat="44.43259" lon="1.35059">
        <ele>141</ele>
        <time>2019-04-14T09:30:05Z</time>
      </trkpt>
      <trkpt lat="44.43257" lon="1.35059">
        <ele>142</ele>
        <time>2019-04-14T09:30:06Z</time>
      </trkpt>
      <trkpt lat="44.43255" lon="1.3506">
        <ele>142</ele>
        <time>2019-04-14T09:30:07Z</time>
      </trkpt>
      <trkpt lat="44.43253" lon="1.3506">
        <ele>142</ele>
        <time>2019-04-14T09:30:08Z</time>
      </trkpt>
      <trkpt lat="44.43251" lon="1.35061">
        <ele>142</ele>
        <time>2019-04-14T09:30:09Z</time>
      </trkpt>
      <trkpt lat="44.43249" lon="1.35062">
        <ele>143</ele>
        <time>2019-04-14T09:30:10Z</time>
      </trkpt>
      <trkpt lat="44.43248" lon="1.35062">
        <ele>143</ele>
        <time>2019-04-14T09:30:11Z</time>
      </trkpt>
      <trkpt lat="44.43247" lon="1.35061">
        <ele>143</ele>
        <time>2019-04-14T09:30:12Z</time>
      </trkpt>
      <trkpt lat="44.43246" lon="1.35061">
        <ele>144</ele>
        <time>2019-04-14T09:30:13Z</time>
      </trkpt>
      <trkpt lat="44.43244" lon="1.35062">
        <ele>144</ele>
        <time>2019-04-14T09:30:14Z</time>
      </trkpt>
      <trkpt lat="44.43242" lon="1.35063">
        <ele>144</ele>
        <time>2019-04-14T09:30:15Z</time>
      </trkpt>
      <trkpt lat="44.4324" lon="1.35063">
        <ele>144</ele>
        <time>2019-04-14T09:30:16Z</time>
      </trkpt>
      <trkpt lat="44.43238" lon="1.35064">
        <ele>145</ele>
        <time>2019-04-14T09:30:17Z</time>
      </trkpt>
      <trkpt lat="44.43236" lon="1.35064">
        <ele>145</ele>
        <time>2019-04-14T09:30:18Z</time>
      </trkpt>
      <trkpt lat="44.43234" lon="1.35064">
        <ele>145</ele>
        <time>2019-04-14T09:30:19Z</time>
      </trkpt>
      <trkpt lat="44.43232" lon="1.35064">
        <ele>146</ele>
        <time>2019-04-14T09:30:20Z</time>
      </trkpt>
      <trkpt lat="44.4323" lon="1.35063">
        <ele>146</ele>
        <time>2019-04-14T09:30:21Z</time>
      </trkpt>
      <trkpt lat="44.43229" lon="1.35063">
        <ele>146</ele>
        <time>2019-04-14T09:30:22Z</time>
      </trkpt>
      <trkpt lat="44.43227" lon="1.35062">
        <ele>146</ele>
        <time>2019-04-14T09:30:23Z</time>
      </trkpt>
      <trkpt lat="44.43226" lon="1.35061">
        <ele>147</ele>
        <time>2019-04-14T09:30:24Z</time>
      </trkpt>
      <trkpt lat="44.43225" lon="1.35061">
        <ele>147</ele>
        <time>2019-04-14T09:30:25Z</time>
      </trkpt>
      <trkpt lat="44.43225" lon="1.3506">
        <ele>147</ele>
        <time>2019-04-14T09:30:26Z</time>
      </trkpt>
      <trkpt lat="44.43223" lon="1.35059">
        <ele>148</ele>
        <time>2019-04-14T09:30:27Z</time>
      </trkpt>
      <trkpt lat="44.43222" lon="1.35058">
        <ele>148</ele>
        <time>2019-04-14T09:30:28Z</time>
      </trkpt>
      <trkpt lat="44.43221" lon="1.35058">
        <ele>148</ele>
        <time>2019-04-14T09:30:29Z</time>
      </trkpt>
      <trkpt lat="44.4322" lon="1.35058">
        <ele>148</ele>
        <time>2019-04-14T09:30:30Z</time>
      </trkpt>
      <trkpt lat="44.43219" lon="1.35058">
        <ele>148</ele>
        <time>2019-04-14T09:30:31Z</time>
      </trkpt>
      <trkpt lat="44.43218" lon="1.35059">
        <ele>148</ele>
        <time>2019-04-14T09:30:32Z</time>
      </trkpt>
      <trkpt lat="44.43217" lon="1.35061">
        <ele>148</ele>
        <time>2019-04-14T09:30:33Z</time>
      </trkpt>
      <trkpt lat="44.43218" lon="1.35062">
        <ele>148</ele>
        <time>2019-04-14T09:30:34Z</time>
      </trkpt>
      <trkpt lat="44.43218" lon="1.35066">
        <ele>148</ele>
        <time>2019-04-14T09:30:35Z</time>
      </trkpt>
      <trkpt lat="44.43217" lon="1.35068">
        <ele>147</ele>
        <time>2019-04-14T09:30:36Z</time>
      </trkpt>
      <trkpt lat="44.43215" lon="1.35069">
        <ele>147</ele>
        <time>2019-04-14T09:30:37Z</time>
      </trkpt>
      <trkpt lat="44.43213" lon="1.3507">
        <ele>147</ele>
        <time>2019-04-14T09:30:38Z</time>
      </trkpt>
      <trkpt lat="44.4321" lon="1.35069">
        <ele>147</ele>
        <time>2019-04-14T09:30:39Z</time>
      </trkpt>
      <trkpt lat="44.43208" lon="1.3507">
        <ele>146</ele>
        <time>2019-04-14T09:30:41Z</time>
      </trkpt>
      <trkpt lat="44.43207" lon="1.35069">
        <ele>145</ele>
        <time>2019-04-14T09:30:42Z</time>
      </trkpt>
      <trkpt lat="44.43205" lon="1.35071">
        <ele>144</ele>
        <time>2019-04-14T09:30:43Z</time>
      </trkpt>
      <trkpt lat="44.43203" lon="1.35073">
        <ele>144</ele>
        <time>2019-04-14T09:30:44Z</time>
      </trkpt>
      <trkpt lat="44.43199" lon="1.35075">
        <ele>142</ele>
        <time>2019-04-14T09:30:45Z</time>
      </trkpt>
      <trkpt lat="44.43196" lon="1.35075">
        <ele>142</ele>
        <time>2019-04-14T09:30:46Z</time>
      </trkpt>
      <trkpt lat="44.43193" lon="1.35075">
        <ele>142</ele>
        <time>2019-04-14T09:30:47Z</time>
      </trkpt>
      <trkpt lat="44.43191" lon="1.35075">
        <ele>142</ele>
        <time>2019-04-14T09:30:48Z</time>
      </trkpt>
      <trkpt lat="44.43188" lon="1.35075">
        <ele>142</ele>
        <time>2019-04-14T09:30:49Z</time>
      </trkpt>
      <trkpt lat="44.43188" lon="1.35073">
        <ele>142</ele>
        <time>2019-04-14T09:30:50Z</time>
      </trkpt>
      <trkpt lat="44.43185" lon="1.35073">
        <ele>142</ele>
        <time>2019-04-14T09:30:51Z</time>
      </trkpt>
      <trkpt lat="44.43183" lon="1.35072">
        <ele>142</ele>
        <time>2019-04-14T09:30:52Z</time>
      </trkpt>
      <trkpt lat="44.43181" lon="1.35073">
        <ele>142</ele>
        <time>2019-04-14T09:30:53Z</time>
      </trkpt>
      <trkpt lat="44.4318" lon="1.35074">
        <ele>142</ele>
        <time>2019-04-14T09:30:54Z</time>
      </trkpt>
      <trkpt lat="44.4318" lon="1.35074">
        <ele>142</ele>
        <time>2019-04-14T09:30:55Z</time>
      </trkpt>
      <trkpt lat="44.4318" lon="1.35075">
        <ele>142</ele>
        <time>2019-04-14T09:30:56Z</time>
      </trkpt>
      <trkpt lat="44.4318" lon="1.35075">
        <ele>142</ele>
        <time>2019-04-14T09:30:57Z</time>
      </trkpt>
      <trkpt lat="44.43181" lon="1.35075">
        <ele>142</ele>
        <time>2019-04-14T09:30:58Z</time>
      </trkpt>
      <trkpt lat="44.43181" lon="1.35075">
        <ele>142</ele>
        <time>2019-04-14T09:30:59Z</time>
      </trkpt>
      <trkpt lat="44.43181" lon="1.35075">
        <ele>142</ele>
        <time>2019-04-14T09:31:00Z</time>
      </trkpt>
      <trkpt lat="44.43181" lon="1.35075">
        <ele>142</ele>
        <time>2019-04-14T09:31:01Z</time>
      </trkpt>
      <trkpt lat="44.43156" lon="1.35092">
        <ele>142</ele>
        <time>2019-04-14T09:32:14Z</time>
      </trkpt>
      <trkpt lat="44.43154" lon="1.35093">
        <ele>142</ele>
        <time>2019-04-14T09:32:15Z</time>
      </trkpt>
      <trkpt lat="44.43152" lon="1.35093">
        <ele>142</ele>
        <time>2019-04-14T09:32:16Z</time>
      </trkpt>
      <trkpt lat="44.4315" lon="1.35094">
        <ele>142</ele>
        <time>2019-04-14T09:32:17Z</time>
      </trkpt>
      <trkpt lat="44.43148" lon="1.35095">
        <ele>142</ele>
        <time>2019-04-14T09:32:18Z</time>
      </trkpt>
      <trkpt lat="44.43147" lon="1.35095">
        <ele>142</ele>
        <time>2019-04-14T09:32:19Z</time>
      </trkpt>
      <trkpt lat="44.43146" lon="1.35096">
        <ele>142</ele>
        <time>2019-04-14T09:32:20Z</time>
      </trkpt>
      <trkpt lat="44.43142" lon="1.35097">
        <ele>142</ele>
        <time>2019-04-14T09:32:21Z</time>
      </trkpt>
      <trkpt lat="44.4314" lon="1.35099">
        <ele>142</ele>
        <time>2019-04-14T09:32:22Z</time>
      </trkpt>
      <trkpt lat="44.43139" lon="1.35099">
        <ele>143</ele>
        <time>2019-04-14T09:32:23Z</time>
      </trkpt>
      <trkpt lat="44.43138" lon="1.35099">
        <ele>143</ele>
        <time>2019-04-14T09:32:24Z</time>
      </trkpt>
      <trkpt lat="44.43137" lon="1.351">
        <ele>143</ele>
        <time>2019-04-14T09:32:25Z</time>
      </trkpt>
      <trkpt lat="44.43135" lon="1.35101">
        <ele>143</ele>
        <time>2019-04-14T09:32:26Z</time>
      </trkpt>
      <trkpt lat="44.43134" lon="1.35101">
        <ele>144</ele>
        <time>2019-04-14T09:32:27Z</time>
      </trkpt>
      <trkpt lat="44.43132" lon="1.351">
        <ele>144</ele>
        <time>2019-04-14T09:32:28Z</time>
      </trkpt>
      <trkpt lat="44.43131" lon="1.35099">
        <ele>145</ele>
        <time>2019-04-14T09:32:29Z</time>
      </trkpt>
      <trkpt lat="44.43128" lon="1.351">
        <ele>145</ele>
        <time>2019-04-14T09:32:30Z</time>
      </trkpt>
      <trkpt lat="44.43126" lon="1.351">
        <ele>146</ele>
        <time>2019-04-14T09:32:32Z</time>
      </trkpt>
      <trkpt lat="44.43125" lon="1.35101">
        <ele>146</ele>
        <time>2019-04-14T09:32:33Z</time>
      </trkpt>
      <trkpt lat="44.43123" lon="1.35102">
        <ele>146</ele>
        <time>2019-04-14T09:32:34Z</time>
      </trkpt>
      <trkpt lat="44.43122" lon="1.35103">
        <ele>146</ele>
        <time>2019-04-14T09:32:35Z</time>
      </trkpt>
      <trkpt lat="44.4312" lon="1.35104">
        <ele>146</ele>
        <time>2019-04-14T09:32:36Z</time>
      </trkpt>
      <trkpt lat="44.43119" lon="1.35104">
        <ele>146</ele>
        <time>2019-04-14T09:32:37Z</time>
      </trkpt>
      <trkpt lat="44.43117" lon="1.35104">
        <ele>146</ele>
        <time>2019-04-14T09:32:38Z</time>
      </trkpt>
      <trkpt lat="44.43116" lon="1.35105">
        <ele>146</ele>
        <time>2019-04-14T09:32:39Z</time>
      </trkpt>
      <trkpt lat="44.43114" lon="1.35106">
        <ele>146</ele>
        <time>2019-04-14T09:32:40Z</time>
      </trkpt>
      <trkpt lat="44.43112" lon="1.35107">
        <ele>146</ele>
        <time>2019-04-14T09:32:41Z</time>
      </trkpt>
      <trkpt lat="44.43111" lon="1.35107">
        <ele>146</ele>
        <time>2019-04-14T09:32:42Z</time>
      </trkpt>
      <trkpt lat="44.43109" lon="1.35107">
        <ele>147</ele>
        <time>2019-04-14T09:32:43Z</time>
      </trkpt>
      <trkpt lat="44.43108" lon="1.35107">
        <ele>147</ele>
        <time>2019-04-14T09:32:44Z</time>
      </trkpt>
      <trkpt lat="44.43106" lon="1.35108">
        <ele>147</ele>
        <time>2019-04-14T09:32:45Z</time>
      </trkpt>
      <trkpt lat="44.43105" lon="1.35109">
        <ele>147</ele>
        <time>2019-04-14T09:32:46Z</time>
      </trkpt>
      <trkpt lat="44.43103" lon="1.3511">
        <ele>146</ele>
        <time>2019-04-14T09:32:47Z</time>
      </trkpt>
      <trkpt lat="44.43101" lon="1.35112">
        <ele>146</ele>
        <time>2019-04-14T09:32:48Z</time>
      </trkpt>
      <trkpt lat="44.43099" lon="1.35114">
        <ele>146</ele>
        <time>2019-04-14T09:32:49Z</time>
      </trkpt>
      <trkpt lat="44.43097" lon="1.35116">
        <ele>146</ele>
        <time>2019-04-14T09:32:50Z</time>
      </trkpt>
      <trkpt lat="44.43095" lon="1.35118">
        <ele>146</ele>
        <time>2019-04-14T09:32:51Z</time>
      </trkpt>
      <trkpt lat="44.43094" lon="1.35119">
        <ele>146</ele>
        <time>2019-04-14T09:32:52Z</time>
      </trkpt>
      <trkpt lat="44.43091" lon="1.35122">
        <ele>147</ele>
        <time>2019-04-14T09:32:53Z</time>
      </trkpt>
      <trkpt lat="44.43089" lon="1.35123">
        <ele>147</ele>
        <time>2019-04-14T09:32:54Z</time>
      </trkpt>
      <trkpt lat="44.43088" lon="1.35124">
        <ele>147</ele>
        <time>2019-04-14T09:32:55Z</time>
      </trkpt>
      <trkpt lat="44.43088" lon="1.35125">
        <ele>147</ele>
        <time>2019-04-14T09:32:56Z</time>
      </trkpt>
      <trkpt lat="44.43088" lon="1.35126">
        <ele>147</ele>
        <time>2019-04-14T09:32:57Z</time>
      </trkpt>
      <trkpt lat="44.43086" lon="1.35127">
        <ele>147</ele>
        <time>2019-04-14T09:32:58Z</time>
      </trkpt>
      <trkpt lat="44.43083" lon="1.3513">
        <ele>147</ele>
        <time>2019-04-14T09:32:59Z</time>
      </trkpt>
      <trkpt lat="44.4308" lon="1.35132">
        <ele>147</ele>
        <time>2019-04-14T09:33:00Z</time>
      </trkpt>
      <trkpt lat="44.43078" lon="1.35132">
        <ele>147</ele>
        <time>2019-04-14T09:33:01Z</time>
      </trkpt>
      <trkpt lat="44.43077" lon="1.35134">
        <ele>147</ele>
        <time>2019-04-14T09:33:02Z</time>
      </trkpt>
      <trkpt lat="44.43076" lon="1.35136">
        <ele>147</ele>
        <time>2019-04-14T09:33:03Z</time>
      </trkpt>
      <trkpt lat="44.43074" lon="1.35139">
        <ele>147</ele>
        <time>2019-04-14T09:33:04Z</time>
      </trkpt>
      <trkpt lat="44.43072" lon="1.35141">
        <ele>147</ele>
        <time>2019-04-14T09:33:05Z</time>
      </trkpt>
      <trkpt lat="44.43068" lon="1.35145">
        <ele>147</ele>
        <time>2019-04-14T09:33:06Z</time>
      </trkpt>
      <trkpt lat="44.43068" lon="1.35146">
        <ele>147</ele>
        <time>2019-04-14T09:33:07Z</time>
      </trkpt>
      <trkpt lat="44.43065" lon="1.35149">
        <ele>147</ele>
        <time>2019-04-14T09:33:09Z</time>
      </trkpt>
      <trkpt lat="44.43065" lon="1.3515">
        <ele>147</ele>
        <time>2019-04-14T09:33:10Z</time>
      </trkpt>
      <trkpt lat="44.43065" lon="1.3515">
        <ele>147</ele>
        <time>2019-04-14T09:33:11Z</time>
      </trkpt>
      <trkpt lat="44.43065" lon="1.3515">
        <ele>147</ele>
        <time>2019-04-14T09:33:12Z</time>
      </trkpt>
      <trkpt lat="44.43066" lon="1.3515">
        <ele>147</ele>
        <time>2019-04-14T09:33:14Z</time>
      </trkpt>
      <trkpt lat="44.43048" lon="1.35168">
        <ele>148</ele>
        <time>2019-04-14T09:33:32Z</time>
      </trkpt>
      <trkpt lat="44.43046" lon="1.35169">
        <ele>148</ele>
        <time>2019-04-14T09:33:34Z</time>
      </trkpt>
      <trkpt lat="44.43042" lon="1.35172">
        <ele>148</ele>
        <time>2019-04-14T09:33:35Z</time>
      </trkpt>
      <trkpt lat="44.4304" lon="1.35174">
        <ele>148</ele>
        <time>2019-04-14T09:33:36Z</time>
      </trkpt>
      <trkpt lat="44.4304" lon="1.35175">
        <ele>148</ele>
        <time>2019-04-14T09:33:37Z</time>
      </trkpt>
      <trkpt lat="44.43039" lon="1.35177">
        <ele>148</ele>
        <time>2019-04-14T09:33:38Z</time>
      </trkpt>
      <trkpt lat="44.43038" lon="1.35179">
        <ele>149</ele>
        <time>2019-04-14T09:33:39Z</time>
      </trkpt>
      <trkpt lat="44.43038" lon="1.3518">
        <ele>149</ele>
        <time>2019-04-14T09:33:40Z</time>
      </trkpt>
      <trkpt lat="44.43037" lon="1.35182">
        <ele>149</ele>
        <time>2019-04-14T09:33:41Z</time>
      </trkpt>
      <trkpt lat="44.43035" lon="1.35182">
        <ele>148</ele>
        <time>2019-04-14T09:33:42Z</time>
      </trkpt>
      <trkpt lat="44.43033" lon="1.3518">
        <ele>149</ele>
        <time>2019-04-14T09:33:43Z</time>
      </trkpt>
      <trkpt lat="44.43031" lon="1.35183">
        <ele>148</ele>
        <time>2019-04-14T09:33:44Z</time>
      </trkpt>
      <trkpt lat="44.4303" lon="1.35186">
        <ele>148</ele>
        <time>2019-04-14T09:33:45Z</time>
      </trkpt>
      <trkpt lat="44.43028" lon="1.35188">
        <ele>148</ele>
        <time>2019-04-14T09:33:47Z</time>
      </trkpt>
      <trkpt lat="44.43026" lon="1.35189">
        <ele>148</ele>
        <time>2019-04-14T09:33:48Z</time>
      </trkpt>
      <trkpt lat="44.43027" lon="1.35188">
        <ele>148</ele>
        <time>2019-04-14T09:33:49Z</time>
      </trkpt>
      <trkpt lat="44.43028" lon="1.3519">
        <ele>148</ele>
        <time>2019-04-14T09:33:50Z</time>
      </trkpt>
      <trkpt lat="44.43027" lon="1.35192">
        <ele>148</ele>
        <time>2019-04-14T09:33:51Z</time>
      </trkpt>
      <trkpt lat="44.43026" lon="1.35192">
        <ele>148</ele>
        <time>2019-04-14T09:33:53Z</time>
      </trkpt>
      <trkpt lat="44.43024" lon="1.35198">
        <ele>148</ele>
        <time>2019-04-14T09:33:54Z</time>
      </trkpt>
      <trkpt lat="44.43023" lon="1.352">
        <ele>148</ele>
        <time>2019-04-14T09:33:55Z</time>
      </trkpt>
      <trkpt lat="44.43021" lon="1.35203">
        <ele>148</ele>
        <time>2019-04-14T09:33:56Z</time>
      </trkpt>
      <trkpt lat="44.4302" lon="1.35204">
        <ele>148</ele>
        <time>2019-04-14T09:33:57Z</time>
      </trkpt>
      <trkpt lat="44.43019" lon="1.35206">
        <ele>148</ele>
        <time>2019-04-14T09:33:58Z</time>
      </trkpt>
      <trkpt lat="44.43019" lon="1.35205">
        <ele>148</ele>
        <time>2019-04-14T09:33:59Z</time>
      </trkpt>
      <trkpt lat="44.43017" lon="1.35207">
        <ele>148</ele>
        <time>2019-04-14T09:34:00Z</time>
      </trkpt>
      <trkpt lat="44.43015" lon="1.35208">
        <ele>148</ele>
        <time>2019-04-14T09:34:01Z</time>
      </trkpt>
      <trkpt lat="44.43014" lon="1.35209">
        <ele>149</ele>
        <time>2019-04-14T09:34:02Z</time>
      </trkpt>
      <trkpt lat="44.43013" lon="1.3521">
        <ele>149</ele>
        <time>2019-04-14T09:34:03Z</time>
      </trkpt>
      <trkpt lat="44.43011" lon="1.35211">
        <ele>149</ele>
        <time>2019-04-14T09:34:04Z</time>
      </trkpt>
      <trkpt lat="44.4301" lon="1.3521">
        <ele>149</ele>
        <time>2019-04-14T09:34:05Z</time>
      </trkpt>
      <trkpt lat="44.43008" lon="1.35211">
        <ele>150</ele>
        <time>2019-04-14T09:34:06Z</time>
      </trkpt>
      <trkpt lat="44.43007" lon="1.35212">
        <ele>150</ele>
        <time>2019-04-14T09:34:07Z</time>
      </trkpt>
      <trkpt lat="44.43005" lon="1.35215">
        <ele>150</ele>
        <time>2019-04-14T09:34:08Z</time>
      </trkpt>
      <trkpt lat="44.43003" lon="1.35218">
        <ele>150</ele>
        <time>2019-04-14T09:34:09Z</time>
      </trkpt>
      <trkpt lat="44.43001" lon="1.3522">
        <ele>151</ele>
        <time>2019-04-14T09:34:10Z</time>
      </trkpt>
      <trkpt lat="44.42999" lon="1.35222">
        <ele>151</ele>
        <time>2019-04-14T09:34:11Z</time>
      </trkpt>
      <trkpt lat="44.42996" lon="1.35225">
        <ele>151</ele>
        <time>2019-04-14T09:34:13Z</time>
      </trkpt>
      <trkpt lat="44.42995" lon="1.35225">
        <ele>151</ele>
        <time>2019-04-14T09:34:14Z</time>
      </trkpt>
      <trkpt lat="44.42994" lon="1.35226">
        <ele>151</ele>
        <time>2019-04-14T09:34:16Z</time>
      </trkpt>
      <trkpt lat="44.42993" lon="1.35228">
        <ele>151</ele>
        <time>2019-04-14T09:34:17Z</time>
      </trkpt>
      <trkpt lat="44.42992" lon="1.35229">
        <ele>151</ele>
        <time>2019-04-14T09:34:18Z</time>
      </trkpt>
      <trkpt lat="44.42989" lon="1.3523">
        <ele>151</ele>
        <time>2019-04-14T09:34:19Z</time>
      </trkpt>
      <trkpt lat="44.42988" lon="1.35231">
        <ele>151</ele>
        <time>2019-04-14T09:34:20Z</time>
      </trkpt>
      <trkpt lat="44.42987" lon="1.35233">
        <ele>151</ele>
        <time>2019-04-14T09:34:21Z</time>
      </trkpt>
      <trkpt lat="44.42985" lon="1.35235">
        <ele>151</ele>
        <time>2019-04-14T09:34:22Z</time>
      </trkpt>
      <trkpt lat="44.42983" lon="1.35237">
        <ele>151</ele>
        <time>2019-04-14T09:34:23Z</time>
      </trkpt>
      <trkpt lat="44.42984" lon="1.35238">
        <ele>151</ele>
        <time>2019-04-14T09:34:24Z</time>
      </trkpt>
      <trkpt lat="44.42984" lon="1.3524">
        <ele>151</ele>
        <time>2019-04-14T09:34:25Z</time>
      </trkpt>
      <trkpt lat="44.42982" lon="1.35242">
        <ele>151</ele>
        <time>2019-04-14T09:34:26Z</time>
      </trkpt>
      <trkpt lat="44.42979" lon="1.35246">
        <ele>151</ele>
        <time>2019-04-14T09:34:27Z</time>
      </trkpt>
      <trkpt lat="44.42978" lon="1.35246">
        <ele>152</ele>
        <time>2019-04-14T09:34:29Z</time>
      </trkpt>
      <trkpt lat="44.42976" lon="1.35247">
        <ele>151</ele>
        <time>2019-04-14T09:34:30Z</time>
      </trkpt>
      <trkpt lat="44.42975" lon="1.35247">
        <ele>152</ele>
        <time>2019-04-14T09:34:31Z</time>
      </trkpt>
      <trkpt lat="44.42974" lon="1.3525">
        <ele>152</ele>
        <time>2019-04-14T09:34:32Z</time>
      </trkpt>
      <trkpt lat="44.4297" lon="1.35251">
        <ele>152</ele>
        <time>2019-04-14T09:34:34Z</time>
      </trkpt>
      <trkpt lat="44.42968" lon="1.35253">
        <ele>152</ele>
        <time>2019-04-14T09:34:35Z</time>
      </trkpt>
      <trkpt lat="44.42966" lon="1.35254">
        <ele>153</ele>
        <time>2019-04-14T09:34:36Z</time>
      </trkpt>
      <trkpt lat="44.42963" lon="1.35255">
        <ele>153</ele>
        <time>2019-04-14T09:34:37Z</time>
      </trkpt>
      <trkpt lat="44.42943" lon="1.35291">
        <ele>154</ele>
        <time>2019-04-14T09:34:55Z</time>
      </trkpt>
      <trkpt lat="44.42938" lon="1.35295">
        <ele>154</ele>
        <time>2019-04-14T09:34:56Z</time>
      </trkpt>
      <trkpt lat="44.42936" lon="1.35298">
        <ele>154</ele>
        <time>2019-04-14T09:34:57Z</time>
      </trkpt>
      <trkpt lat="44.42934" lon="1.35299">
        <ele>154</ele>
        <time>2019-04-14T09:34:58Z</time>
      </trkpt>
      <trkpt lat="44.42933" lon="1.35301">
        <ele>154</ele>
        <time>2019-04-14T09:34:59Z</time>
      </trkpt>
      <trkpt lat="44.42932" lon="1.35303">
        <ele>154</ele>
        <time>2019-04-14T09:35:00Z</time>
      </trkpt>
      <trkpt lat="44.42932" lon="1.35305">
        <ele>154</ele>
        <time>2019-04-14T09:35:01Z</time>
      </trkpt>
      <trkpt lat="44.42931" lon="1.35305">
        <ele>154</ele>
        <time>2019-04-14T09:35:02Z</time>
      </trkpt>
      <trkpt lat="44.42929" lon="1.35307">
        <ele>154</ele>
        <time>2019-04-14T09:35:03Z</time>
      </trkpt>
      <trkpt lat="44.42927" lon="1.35309">
        <ele>154</ele>
        <time>2019-04-14T09:35:04Z</time>
      </trkpt>
      <trkpt lat="44.42923" lon="1.35313">
        <ele>154</ele>
        <time>2019-04-14T09:35:05Z</time>
      </trkpt>
      <trkpt lat="44.42921" lon="1.35315">
        <ele>154</ele>
        <time>2019-04-14T09:35:06Z</time>
      </trkpt>
      <trkpt lat="44.42919" lon="1.35316">
        <ele>154</ele>
        <time>2019-04-14T09:35:07Z</time>
      </trkpt>
      <trkpt lat="44.42918" lon="1.35317">
        <ele>155</ele>
        <time>2019-04-14T09:35:09Z</time>
      </trkpt>
      <trkpt lat="44.42916" lon="1.3532">
        <ele>154</ele>
        <time>2019-04-14T09:35:10Z</time>
      </trkpt>
      <trkpt lat="44.42914" lon="1.35321">
        <ele>155</ele>
        <time>2019-04-14T09:35:11Z</time>
      </trkpt>
      <trkpt lat="44.42912" lon="1.35326">
        <ele>154</ele>
        <time>2019-04-14T09:35:12Z</time>
      </trkpt>
      <trkpt lat="44.42911" lon="1.35328">
        <ele>154</ele>
        <time>2019-04-14T09:35:13Z</time>
      </trkpt>
      <trkpt lat="44.42909" lon="1.35329">
        <ele>154</ele>
        <time>2019-04-14T09:35:14Z</time>
      </trkpt>
      <trkpt lat="44.42906" lon="1.35331">
        <ele>154</ele>
        <time>2019-04-14T09:35:15Z</time>
      </trkpt>
      <trkpt lat="44.42903" lon="1.35332">
        <ele>154</ele>
        <time>2019-04-14T09:35:16Z</time>
      </trkpt>
      <trkpt lat="44.429" lon="1.35335">
        <ele>154</ele>
        <time>2019-04-14T09:35:17Z</time>
      </trkpt>
      <trkpt lat="44.42899" lon="1.35336">
        <ele>154</ele>
        <time>2019-04-14T09:35:18Z</time>
      </trkpt>
      <trkpt lat="44.42897" lon="1.35337">
        <ele>155</ele>
        <time>2019-04-14T09:35:19Z</time>
      </trkpt>
      <trkpt lat="44.42894" lon="1.35338">
        <ele>155</ele>
        <time>2019-04-14T09:35:20Z</time>
      </trkpt>
      <trkpt lat="44.42892" lon="1.35339">
        <ele>155</ele>
        <time>2019-04-14T09:35:21Z</time>
      </trkpt>
      <trkpt lat="44.4289" lon="1.35339">
        <ele>155</ele>
        <time>2019-04-14T09:35:22Z</time>
      </trkpt>
      <trkpt lat="44.42888" lon="1.35339">
        <ele>155</ele>
        <time>2019-04-14T09:35:23Z</time>
      </trkpt>
      <trkpt lat="44.42886" lon="1.35339">
        <ele>155</ele>
        <time>2019-04-14T09:35:24Z</time>
      </trkpt>
      <trkpt lat="44.42884" lon="1.35339">
        <ele>155</ele>
        <time>2019-04-14T09:35:25Z</time>
      </trkpt>
      <trkpt lat="44.42881" lon="1.35339">
        <ele>155</ele>
        <time>2019-04-14T09:35:26Z</time>
      </trkpt>
      <trkpt lat="44.42878" lon="1.35339">
        <ele>156</ele>
        <time>2019-04-14T09:35:27Z</time>
      </trkpt>
      <trkpt lat="44.42876" lon="1.35338">
        <ele>156</ele>
        <time>2019-04-14T09:35:28Z</time>
      </trkpt>
      <trkpt lat="44.42874" lon="1.35338">
        <ele>156</ele>
        <time>2019-04-14T09:35:29Z</time>
      </trkpt>
      <trkpt lat="44.42873" lon="1.35337">
        <ele>156</ele>
        <time>2019-04-14T09:35:31Z</time>
      </trkpt>
      <trkpt lat="44.42872" lon="1.35337">
        <ele>156</ele>
        <time>2019-04-14T09:35:32Z</time>
      </trkpt>
      <trkpt lat="44.4287" lon="1.35337">
        <ele>156</ele>
        <time>2019-04-14T09:35:33Z</time>
      </trkpt>
      <trkpt lat="44.42869" lon="1.35336">
        <ele>156</ele>
        <time>2019-04-14T09:35:34Z</time>
      </trkpt>
      <trkpt lat="44.42865" lon="1.35337">
        <ele>156</ele>
        <time>2019-04-14T09:35:35Z</time>
      </trkpt>
      <trkpt lat="44.42863" lon="1.35337">
        <ele>156</ele>
        <time>2019-04-14T09:35:36Z</time>
      </trkpt>
      <trkpt lat="44.42861" lon="1.35337">
        <ele>156</ele>
        <time>2019-04-14T09:35:37Z</time>
      </trkpt>
      <trkpt lat="44.4286" lon="1.35337">
        <ele>156</ele>
        <time>2019-04-14T09:35:38Z</time>
      </trkpt>
      <trkpt lat="44.42858" lon="1.35336">
        <ele>156</ele>
        <time>2019-04-14T09:35:39Z</time>
      </trkpt>
      <trkpt lat="44.42857" lon="1.35335">
        <ele>156</ele>
        <time>2019-04-14T09:35:40Z</time>
      </trkpt>
      <trkpt lat="44.42856" lon="1.35334">
        <ele>156</ele>
        <time>2019-04-14T09:35:41Z</time>
      </trkpt>
      <trkpt lat="44.42854" lon="1.35333">
        <ele>156</ele>
        <time>2019-04-14T09:35:42Z</time>
      </trkpt>
      <trkpt lat="44.42853" lon="1.35333">
        <ele>157</ele>
        <time>2019-04-14T09:35:43Z</time>
      </trkpt>
      <trkpt lat="44.42852" lon="1.35332">
        <ele>157</ele>
        <time>2019-04-14T09:35:44Z</time>
      </trkpt>
      <trkpt lat="44.42851" lon="1.35331">
        <ele>157</ele>
        <time>2019-04-14T09:35:45Z</time>
      </trkpt>
      <trkpt lat="44.4285" lon="1.3533">
        <ele>157</ele>
        <time>2019-04-14T09:35:46Z</time>
      </trkpt>
      <trkpt lat="44.42848" lon="1.35329">
        <ele>157</ele>
        <time>2019-04-14T09:35:47Z</time>
      </trkpt>
      <trkpt lat="44.42846" lon="1.35328">
        <ele>156</ele>
        <time>2019-04-14T09:35:48Z</time>
      </trkpt>
      <trkpt lat="44.42843" lon="1.35328">
        <ele>156</ele>
        <time>2019-04-14T09:35:49Z</time>
      </trkpt>
      <trkpt lat="44.42841" lon="1.35326">
        <ele>156</ele>
        <time>2019-04-14T09:35:50Z</time>
      </trkpt>
      <trkpt lat="44.42839" lon="1.35325">
        <ele>156</ele>
        <time>2019-04-14T09:35:51Z</time>
      </trkpt>
      <trkpt lat="44.42837" lon="1.35324">
        <ele>156</ele>
        <time>2019-04-14T09:35:52Z</time>
      </trkpt>
      <trkpt lat="44.42834" lon="1.35323">
        <ele>156</ele>
        <time>2019-04-14T09:35:53Z</time>
      </trkpt>
      <trkpt lat="44.42832" lon="1.35321">
        <ele>156</ele>
        <time>2019-04-14T09:35:54Z</time>
      </trkpt>
      <trkpt lat="44.4283" lon="1.35319">
        <ele>156</ele>
        <time>2019-04-14T09:35:55Z</time>
      </trkpt>
      <trkpt lat="44.42829" lon="1.35317">
        <ele>156</ele>
        <time>2019-04-14T09:35:56Z</time>
      </trkpt>
      <trkpt lat="44.42826" lon="1.35316">
        <ele>155</ele>
        <time>2019-04-14T09:35:57Z</time>
      </trkpt>
      <trkpt lat="44.42824" lon="1.35315">
        <ele>155</ele>
        <time>2019-04-14T09:35:58Z</time>
      </trkpt>
      <trkpt lat="44.42822" lon="1.35315">
        <ele>156</ele>
        <time>2019-04-14T09:36:00Z</time>
      </trkpt>
      <trkpt lat="44.42819" lon="1.35312">
        <ele>156</ele>
        <time>2019-04-14T09:36:01Z</time>
      </trkpt>
      <trkpt lat="44.42817" lon="1.35311">
        <ele>156</ele>
        <time>2019-04-14T09:36:02Z</time>
      </trkpt>
      <trkpt lat="44.42816" lon="1.35309">
        <ele>156</ele>
        <time>2019-04-14T09:36:03Z</time>
      </trkpt>
      <trkpt lat="44.42815" lon="1.35308">
        <ele>156</ele>
        <time>2019-04-14T09:36:04Z</time>
      </trkpt>
      <trkpt lat="44.42814" lon="1.35306">
        <ele>156</ele>
        <time>2019-04-14T09:36:05Z</time>
      </trkpt>
      <trkpt lat="44.42812" lon="1.35303">
        <ele>156</ele>
        <time>2019-04-14T09:36:06Z</time>
      </trkpt>
      <trkpt lat="44.4281" lon="1.35302">
        <ele>156</ele>
        <time>2019-04-14T09:36:07Z</time>
      </trkpt>
      <trkpt lat="44.42808" lon="1.35301">
        <ele>157</ele>
        <time>2019-04-14T09:36:08Z</time>
      </trkpt>
      <trkpt lat="44.42805" lon="1.35299">
        <ele>157</ele>
        <time>2019-04-14T09:36:09Z</time>
      </trkpt>
      <trkpt lat="44.42804" lon="1.35296">
        <ele>157</ele>
        <time>2019-04-14T09:36:10Z</time>
      </trkpt>
      <trkpt lat="44.42801" lon="1.35295">
        <ele>157</ele>
        <time>2019-04-14T09:36:11Z</time>
      </trkpt>
      <trkpt lat="44.42799" lon="1.35293">
        <ele>157</ele>
        <time>2019-04-14T09:36:12Z</time>
      </trkpt>
      <trkpt lat="44.42798" lon="1.35292">
        <ele>157</ele>
        <time>2019-04-14T09:36:13Z</time>
      </trkpt>
      <trkpt lat="44.42797" lon="1.35291">
        <ele>157</ele>
        <time>2019-04-14T09:36:14Z</time>
      </trkpt>
      <trkpt lat="44.42797" lon="1.3529">
        <ele>157</ele>
        <time>2019-04-14T09:36:15Z</time>
      </trkpt>
      <trkpt lat="44.42796" lon="1.35288">
        <ele>157</ele>
        <time>2019-04-14T09:36:16Z</time>
      </trkpt>
      <trkpt lat="44.42796" lon="1.35288">
        <ele>157</ele>
        <time>2019-04-14T09:36:17Z</time>
      </trkpt>
      <trkpt lat="44.42796" lon="1.35287">
        <ele>157</ele>
        <time>2019-04-14T09:36:18Z</time>
      </trkpt>
      <trkpt lat="44.42796" lon="1.35287">
        <ele>157</ele>
        <time>2019-04-14T09:36:19Z</time>
      </trkpt>
      <trkpt lat="44.42795" lon="1.35286">
        <ele>157</ele>
        <time>2019-04-14T09:36:20Z</time>
      </trkpt>
      <trkpt lat="44.42795" lon="1.35284">
        <ele>158</ele>
        <time>2019-04-14T09:36:21Z</time>
      </trkpt>
      <trkpt lat="44.42795" lon="1.35282">
        <ele>158</ele>
        <time>2019-04-14T09:36:22Z</time>
      </trkpt>
      <trkpt lat="44.42795" lon="1.35283">
        <ele>158</ele>
        <time>2019-04-14T09:36:23Z</time>
      </trkpt>
      <trkpt lat="44.42793" lon="1.35282">
        <ele>158</ele>
        <time>2019-04-14T09:36:24Z</time>
      </trkpt>
      <trkpt lat="44.42815" lon="1.35283">
        <ele>162</ele>
        <time>2019-04-14T09:36:48Z</time>
      </trkpt>
      <trkpt lat="44.42817" lon="1.35283">
        <ele>162</ele>
        <time>2019-04-14T09:36:49Z</time>
      </trkpt>
      <trkpt lat="44.42819" lon="1.35284">
        <ele>162</ele>
        <time>2019-04-14T09:36:50Z</time>
      </trkpt>
      <trkpt lat="44.4282" lon="1.35285">
        <ele>163</ele>
        <time>2019-04-14T09:36:51Z</time>
      </trkpt>
      <trkpt lat="44.42822" lon="1.35283">
        <ele>163</ele>
        <time>2019-04-14T09:36:52Z</time>
      </trkpt>
      <trkpt lat="44.42823" lon="1.35283">
        <ele>163</ele>
        <time>2019-04-14T09:36:53Z</time>
      </trkpt>
      <trkpt lat="44.42824" lon="1.35284">
        <ele>163</ele>
        <time>2019-04-14T09:36:54Z</time>
      </trkpt>
      <trkpt lat="44.42825" lon="1.35285">
        <ele>164</ele>
        <time>2019-04-14T09:36:56Z</time>
      </trkpt>
      <trkpt lat="44.42829" lon="1.35288">
        <ele>164</ele>
        <time>2019-04-14T09:36:57Z</time>
      </trkpt>
      <trkpt lat="44.4283" lon="1.35289">
        <ele>164</ele>
        <time>2019-04-14T09:36:58Z</time>
      </trkpt>
      <trkpt lat="44.42831" lon="1.3529">
        <ele>165</ele>
        <time>2019-04-14T09:36:59Z</time>
      </trkpt>
      <trkpt lat="44.42833" lon="1.35291">
        <ele>165</ele>
        <time>2019-04-14T09:37:01Z</time>
      </trkpt>
      <trkpt lat="44.42835" lon="1.35292">
        <ele>166</ele>
        <time>2019-04-14T09:37:02Z</time>
      </trkpt>
      <trkpt lat="44.42837" lon="1.35292">
        <ele>166</ele>
        <time>2019-04-14T09:37:03Z</time>
      </trkpt>
      <trkpt lat="44.42838" lon="1.35293">
        <ele>166</ele>
        <time>2019-04-14T09:37:04Z</time>
      </trkpt>
      <trkpt lat="44.42839" lon="1.35294">
        <ele>166</ele>
        <time>2019-04-14T09:37:05Z</time>
      </trkpt>
      <trkpt lat="44.4284" lon="1.35295">
        <ele>167</ele>
        <time>2019-04-14T09:37:06Z</time>
      </trkpt>
      <trkpt lat="44.42841" lon="1.35296">
        <ele>167</ele>
        <time>2019-04-14T09:37:07Z</time>
      </trkpt>
      <trkpt lat="44.42842" lon="1.35297">
        <ele>167</ele>
        <time>2019-04-14T09:37:08Z</time>
      </trkpt>
      <trkpt lat="44.42844" lon="1.35298">
        <ele>167</ele>
        <time>2019-04-14T09:37:09Z</time>
      </trkpt>
      <trkpt lat="44.42846" lon="1.35299">
        <ele>168</ele>
        <time>2019-04-14T09:37:10Z</time>
      </trkpt>
      <trkpt lat="44.42847" lon="1.35299">
        <ele>168</ele>
        <time>2019-04-14T09:37:11Z</time>
      </trkpt>
      <trkpt lat="44.42849" lon="1.353">
        <ele>168</ele>
        <time>2019-04-14T09:37:12Z</time>
      </trkpt>
      <trkpt lat="44.42851" lon="1.353">
        <ele>169</ele>
        <time>2019-04-14T09:37:13Z</time>
      </trkpt>
      <trkpt lat="44.42853" lon="1.353">
        <ele>169</ele>
        <time>2019-04-14T09:37:14Z</time>
      </trkpt>
      <trkpt lat="44.42855" lon="1.353">
        <ele>169</ele>
        <time>2019-04-14T09:37:15Z</time>
      </trkpt>
      <trkpt lat="44.42856" lon="1.353">
        <ele>169</ele>
        <time>2019-04-14T09:37:16Z</time>
      </trkpt>
      <trkpt lat="44.42857" lon="1.353">
        <ele>170</ele>
        <time>2019-04-14T09:37:17Z</time>
      </trkpt>
      <trkpt lat="44.42858" lon="1.35301">
        <ele>170</ele>
        <time>2019-04-14T09:37:18Z</time>
      </trkpt>
      <trkpt lat="44.42859" lon="1.353">
        <ele>170</ele>
        <time>2019-04-14T09:37:19Z</time>
      </trkpt>
      <trkpt lat="44.4286" lon="1.353">
        <ele>170</ele>
        <time>2019-04-14T09:37:20Z</time>
      </trkpt>
      <trkpt lat="44.42861" lon="1.353">
        <ele>170</ele>
        <time>2019-04-14T09:37:21Z</time>
      </trkpt>
      <trkpt lat="44.42862" lon="1.35299">
        <ele>170</ele>
        <time>2019-04-14T09:37:22Z</time>
      </trkpt>
      <trkpt lat="44.42862" lon="1.353">
        <ele>170</ele>
        <time>2019-04-14T09:37:23Z</time>
      </trkpt>
      <trkpt lat="44.42862" lon="1.353">
        <ele>170</ele>
        <time>2019-04-14T09:37:24Z</time>
      </trkpt>
      <trkpt lat="44.42862" lon="1.35301">
        <ele>170</ele>
        <time>2019-04-14T09:37:25Z</time>
      </trkpt>
      <trkpt lat="44.42863" lon="1.353">
        <ele>170</ele>
        <time>2019-04-14T09:37:26Z</time>
      </trkpt>
      <trkpt lat="44.42864" lon="1.353">
        <ele>170</ele>
        <time>2019-04-14T09:37:27Z</time>
      </trkpt>
      <trkpt lat="44.42864" lon="1.35299">
        <ele>170</ele>
        <time>2019-04-14T09:37:28Z</time>
      </trkpt>
      <trkpt lat="44.42864" lon="1.35299">
        <ele>170</ele>
        <time>2019-04-14T09:37:29Z</time>
      </trkpt>
      <trkpt lat="44.42865" lon="1.35299">
        <ele>170</ele>
        <time>2019-04-14T09:37:30Z</time>
      </trkpt>
      <trkpt lat="44.42865" lon="1.35299">
        <ele>170</ele>
        <time>2019-04-14T09:37:31Z</time>
      </trkpt>
      <trkpt lat="44.42865" lon="1.35299">
        <ele>170</ele>
        <time>2019-04-14T09:37:32Z</time>
      </trkpt>
      <trkpt lat="44.42864" lon="1.35299">
        <ele>170</ele>
        <time>2019-04-14T09:37:33Z</time>
      </trkpt>
      <trkpt lat="44.42864" lon="1.35299">
        <ele>167</ele>
        <time>2019-04-14T09:37:34Z</time>
      </trkpt>
      <trkpt lat="44.42864" lon="1.35299">
        <ele>170</ele>
        <time>2019-04-14T09:37:35Z</time>
      </trkpt>
      <trkpt lat="44.42854" lon="1.35287">
        <ele>172</ele>
        <time>2019-04-14T09:42:25Z</time>
      </trkpt>
      <trkpt lat="44.42853" lon="1.35286">
        <ele>172</ele>
        <time>2019-04-14T09:42:26Z</time>
      </trkpt>
      <trkpt lat="44.42852" lon="1.35285">
        <ele>172</ele>
        <time>2019-04-14T09:42:27Z</time>
      </trkpt>
      <trkpt lat="44.42851" lon="1.35284">
        <ele>172</ele>
        <time>2019-04-14T09:42:28Z</time>
      </trkpt>
      <trkpt lat="44.42851" lon="1.35284">
        <ele>173</ele>
        <time>2019-04-14T09:42:29Z</time>
      </trkpt>
      <trkpt lat="44.4285" lon="1.35283">
        <ele>173</ele>
        <time>2019-04-14T09:42:30Z</time>
      </trkpt>
      <trkpt lat="44.4285" lon="1.35282">
        <ele>173</ele>
        <time>2019-04-14T09:42:31Z</time>
      </trkpt>
      <trkpt lat="44.4285" lon="1.35281">
        <ele>173</ele>
        <time>2019-04-14T09:42:32Z</time>
      </trkpt>
      <trkpt lat="44.42849" lon="1.3528">
        <ele>173</ele>
        <time>2019-04-14T09:42:33Z</time>
      </trkpt>
      <trkpt lat="44.42848" lon="1.35279">
        <ele>173</ele>
        <time>2019-04-14T09:42:34Z</time>
      </trkpt>
      <trkpt lat="44.42848" lon="1.35278">
        <ele>174</ele>
        <time>2019-04-14T09:42:35Z</time>
      </trkpt>
      <trkpt lat="44.42847" lon="1.35278">
        <ele>174</ele>
        <time>2019-04-14T09:42:36Z</time>
      </trkpt>
      <trkpt lat="44.42847" lon="1.35277">
        <ele>174</ele>
        <time>2019-04-14T09:42:37Z</time>
      </trkpt>
      <trkpt lat="44.42846" lon="1.35274">
        <ele>174</ele>
        <time>2019-04-14T09:42:38Z</time>
      </trkpt>
      <trkpt lat="44.42845" lon="1.35273">
        <ele>174</ele>
        <time>2019-04-14T09:42:39Z</time>
      </trkpt>
      <trkpt lat="44.42845" lon="1.35273">
        <ele>175</ele>
        <time>2019-04-14T09:42:40Z</time>
      </trkpt>
      <trkpt lat="44.42844" lon="1.35272">
        <ele>175</ele>
        <time>2019-04-14T09:42:41Z</time>
      </trkpt>
      <trkpt lat="44.42843" lon="1.35271">
        <ele>175</ele>
        <time>2019-04-14T09:42:42Z</time>
      </trkpt>
      <trkpt lat="44.42842" lon="1.3527">
        <ele>175</ele>
        <time>2019-04-14T09:42:43Z</time>
      </trkpt>
      <trkpt lat="44.42841" lon="1.35268">
        <ele>175</ele>
        <time>2019-04-14T09:42:44Z</time>
      </trkpt>
      <trkpt lat="44.4284" lon="1.35267">
        <ele>175</ele>
        <time>2019-04-14T09:42:45Z</time>
      </trkpt>
      <trkpt lat="44.42839" lon="1.35265">
        <ele>175</ele>
        <time>2019-04-14T09:42:46Z</time>
      </trkpt>
      <trkpt lat="44.42839" lon="1.35265">
        <ele>176</ele>
        <time>2019-04-14T09:42:47Z</time>
      </trkpt>
      <trkpt lat="44.42838" lon="1.35264">
        <ele>176</ele>
        <time>2019-04-14T09:42:48Z</time>
      </trkpt>
      <trkpt lat="44.42838" lon="1.35263">
        <ele>176</ele>
        <time>2019-04-14T09:42:49Z</time>
      </trkpt>
      <trkpt lat="44.42837" lon="1.35262">
        <ele>176</ele>
        <time>2019-04-14T09:42:50Z</time>
      </trkpt>
      <trkpt lat="44.42836" lon="1.35261">
        <ele>176</ele>
        <time>2019-04-14T09:42:51Z</time>
      </trkpt>
      <trkpt lat="44.42835" lon="1.35261">
        <ele>176</ele>
        <time>2019-04-14T09:42:52Z</time>
      </trkpt>
      <trkpt lat="44.42834" lon="1.35259">
        <ele>176</ele>
        <time>2019-04-14T09:42:53Z</time>
      </trkpt>
      <trkpt lat="44.42833" lon="1.35259">
        <ele>177</ele>
        <time>2019-04-14T09:42:54Z</time>
      </trkpt>
      <trkpt lat="44.42832" lon="1.35257">
        <ele>177</ele>
        <time>2019-04-14T09:42:55Z</time>
      </trkpt>
      <trkpt lat="44.42831" lon="1.35257">
        <ele>177</ele>
        <time>2019-04-14T09:42:56Z</time>
      </trkpt>
      <trkpt lat="44.4283" lon="1.35255">
        <ele>177</ele>
        <time>2019-04-14T09:42:57Z</time>
      </trkpt>
      <trkpt lat="44.42829" lon="1.35254">
        <ele>177</ele>
        <time>2019-04-14T09:42:58Z</time>
      </trkpt>
      <trkpt lat="44.42829" lon="1.35254">
        <ele>177</ele>
        <time>2019-04-14T09:42:59Z</time>
      </trkpt>
      <trkpt lat="44.42828" lon="1.35253">
        <ele>178</ele>
        <time>2019-04-14T09:43:00Z</time>
      </trkpt>
      <trkpt lat="44.42827" lon="1.35252">
        <ele>178</ele>
        <time>2019-04-14T09:43:01Z</time>
      </trkpt>
      <trkpt lat="44.42826" lon="1.35251">
        <ele>178</ele>
        <time>2019-04-14T09:43:02Z</time>
      </trkpt>
      <trkpt lat="44.42826" lon="1.3525">
        <ele>178</ele>
        <time>2019-04-14T09:43:03Z</time>
      </trkpt>
      <trkpt lat="44.42825" lon="1.35249">
        <ele>178</ele>
        <time>2019-04-14T09:43:04Z</time>
      </trkpt>
      <trkpt lat="44.42824" lon="1.35248">
        <ele>178</ele>
        <time>2019-04-14T09:43:05Z</time>
      </trkpt>
      <trkpt lat="44.42824" lon="1.35247">
        <ele>178</ele>
        <time>2019-04-14T09:43:06Z</time>
      </trkpt>
      <trkpt lat="44.42824" lon="1.35246">
        <ele>179</ele>
        <time>2019-04-14T09:43:07Z</time>
      </trkpt>
      <trkpt lat="44.42824" lon="1.35245">
        <ele>179</ele>
        <time>2019-04-14T09:43:08Z</time>
      </trkpt>
      <trkpt lat="44.42823" lon="1.35244">
        <ele>179</ele>
        <time>2019-04-14T09:43:09Z</time>
      </trkpt>
      <trkpt lat="44.42823" lon="1.35243">
        <ele>179</ele>
        <time>2019-04-14T09:43:10Z</time>
      </trkpt>
      <trkpt lat="44.42823" lon="1.35243">
        <ele>179</ele>
        <time>2019-04-14T09:43:11Z</time>
      </trkpt>
      <trkpt lat="44.42822" lon="1.35242">
        <ele>180</ele>
        <time>2019-04-14T09:43:12Z</time>
      </trkpt>
      <trkpt lat="44.42821" lon="1.35241">
        <ele>180</ele>
        <time>2019-04-14T09:43:13Z</time>
      </trkpt>
      <trkpt lat="44.42821" lon="1.3524">
        <ele>180</ele>
        <time>2019-04-14T09:43:14Z</time>
      </trkpt>
      <trkpt lat="44.4282" lon="1.3524">
        <ele>180</ele>
        <time>2019-04-14T09:43:15Z</time>
      </trkpt>
      <trkpt lat="44.42819" lon="1.35239">
        <ele>180</ele>
        <time>2019-04-14T09:43:16Z</time>
      </trkpt>
      <trkpt lat="44.42819" lon="1.35238">
        <ele>181</ele>
        <time>2019-04-14T09:43:17Z</time>
      </trkpt>
      <trkpt lat="44.42818" lon="1.35237">
        <ele>181</ele>
        <time>2019-04-14T09:43:18Z</time>
      </trkpt>
      <trkpt lat="44.42816" lon="1.35236">
        <ele>181</ele>
        <time>2019-04-14T09:43:19Z</time>
      </trkpt>
      <trkpt lat="44.42815" lon="1.35235">
        <ele>181</ele>
        <time>2019-04-14T09:43:20Z</time>
      </trkpt>
      <trkpt lat="44.42815" lon="1.35234">
        <ele>182</ele>
        <time>2019-04-14T09:43:21Z</time>
      </trkpt>
      <trkpt lat="44.42814" lon="1.35233">
        <ele>182</ele>
        <time>2019-04-14T09:43:22Z</time>
      </trkpt>
      <trkpt lat="44.42814" lon="1.35232">
        <ele>182</ele>
        <time>2019-04-14T09:43:23Z</time>
      </trkpt>
      <trkpt lat="44.42813" lon="1.35231">
        <ele>182</ele>
        <time>2019-04-14T09:43:24Z</time>
      </trkpt>
      <trkpt lat="44.42812" lon="1.3523">
        <ele>182</ele>
        <time>2019-04-14T09:43:25Z</time>
      </trkpt>
      <trkpt lat="44.42812" lon="1.3523">
        <ele>182</ele>
        <time>2019-04-14T09:43:26Z</time>
      </trkpt>
      <trkpt lat="44.42811" lon="1.35229">
        <ele>183</ele>
        <time>2019-04-14T09:43:27Z</time>
      </trkpt>
      <trkpt lat="44.4281" lon="1.35228">
        <ele>183</ele>
        <time>2019-04-14T09:43:28Z</time>
      </trkpt>
      <trkpt lat="44.4281" lon="1.35227">
        <ele>183</ele>
        <time>2019-04-14T09:43:29Z</time>
      </trkpt>
      <trkpt lat="44.42809" lon="1.35226">
        <ele>183</ele>
        <time>2019-04-14T09:43:30Z</time>
      </trkpt>
      <trkpt lat="44.42785" lon="1.35191">
        <ele>191</ele>
        <time>2019-04-14T09:44:27Z</time>
      </trkpt>
      <trkpt lat="44.42784" lon="1.3519">
        <ele>191</ele>
        <time>2019-04-14T09:44:28Z</time>
      </trkpt>
      <trkpt lat="44.42783" lon="1.35189">
        <ele>192</ele>
        <time>2019-04-14T09:44:29Z</time>
      </trkpt>
      <trkpt lat="44.42782" lon="1.35189">
        <ele>192</ele>
        <time>2019-04-14T09:44:30Z</time>
      </trkpt>
      <trkpt lat="44.42781" lon="1.35187">
        <ele>192</ele>
        <time>2019-04-14T09:44:31Z</time>
      </trkpt>
      <trkpt lat="44.4278" lon="1.35187">
        <ele>192</ele>
        <time>2019-04-14T09:44:32Z</time>
      </trkpt>
      <trkpt lat="44.4278" lon="1.35186">
        <ele>193</ele>
        <time>2019-04-14T09:44:33Z</time>
      </trkpt>
      <trkpt lat="44.42779" lon="1.35185">
        <ele>193</ele>
        <time>2019-04-14T09:44:34Z</time>
      </trkpt>
      <trkpt lat="44.42778" lon="1.35184">
        <ele>193</ele>
        <time>2019-04-14T09:44:35Z</time>
      </trkpt>
      <trkpt lat="44.42777" lon="1.35183">
        <ele>193</ele>
        <time>2019-04-14T09:44:36Z</time>
      </trkpt>
      <trkpt lat="44.42777" lon="1.35182">
        <ele>194</ele>
        <time>2019-04-14T09:44:37Z</time>
      </trkpt>
      <trkpt lat="44.42776" lon="1.35181">
        <ele>194</ele>
        <time>2019-04-14T09:44:38Z</time>
      </trkpt>
      <trkpt lat="44.42775" lon="1.3518">
        <ele>194</ele>
        <time>2019-04-14T09:44:39Z</time>
      </trkpt>
      <trkpt lat="44.42774" lon="1.35179">
        <ele>194</ele>
        <time>2019-04-14T09:44:40Z</time>
      </trkpt>
      <trkpt lat="44.42773" lon="1.35178">
        <ele>195</ele>
        <time>2019-04-14T09:44:41Z</time>
      </trkpt>
      <trkpt lat="44.42772" lon="1.35177">
        <ele>195</ele>
        <time>2019-04-14T09:44:42Z</time>
      </trkpt>
      <trkpt lat="44.42771" lon="1.35176">
        <ele>196</ele>
        <time>2019-04-14T09:44:43Z</time>
      </trkpt>
      <trkpt lat="44.4277" lon="1.35175">
        <ele>196</ele>
        <time>2019-04-14T09:44:44Z</time>
      </trkpt>
      <trkpt lat="44.42769" lon="1.35174">
        <ele>196</ele>
        <time>2019-04-14T09:44:45Z</time>
      </trkpt>
      <trkpt lat="44.42768" lon="1.35173">
        <ele>196</ele>
        <time>2019-04-14T09:44:46Z</time>
      </trkpt>
      <trkpt lat="44.42767" lon="1.35171">
        <ele>197</ele>
        <time>2019-04-14T09:44:47Z</time>
      </trkpt>
      <trkpt lat="44.42766" lon="1.3517">
        <ele>197</ele>
        <time>2019-04-14T09:44:48Z</time>
      </trkpt>
      <trkpt lat="44.42765" lon="1.3517">
        <ele>197</ele>
        <time>2019-04-14T09:44:49Z</time>
      </trkpt>
      <trkpt lat="44.42764" lon="1.35169">
        <ele>197</ele>
        <time>2019-04-14T09:44:50Z</time>
      </trkpt>
      <trkpt lat="44.42763" lon="1.35168">
        <ele>197</ele>
        <time>2019-04-14T09:44:51Z</time>
      </trkpt>
      <trkpt lat="44.42762" lon="1.35167">
        <ele>198</ele>
        <time>2019-04-14T09:44:52Z</time>
      </trkpt>
      <trkpt lat="44.42761" lon="1.35166">
        <ele>198</ele>
        <time>2019-04-14T09:44:53Z</time>
      </trkpt>
      <trkpt lat="44.4276" lon="1.35165">
        <ele>198</ele>
        <time>2019-04-14T09:44:54Z</time>
      </trkpt>
      <trkpt lat="44.42758" lon="1.35165">
        <ele>198</ele>
        <time>2019-04-14T09:44:55Z</time>
      </trkpt>
      <trkpt lat="44.42757" lon="1.35164">
        <ele>198</ele>
        <time>2019-04-14T09:44:56Z</time>
      </trkpt>
      <trkpt lat="44.42756" lon="1.35164">
        <ele>199</ele>
        <time>2019-04-14T09:44:57Z</time>
      </trkpt>
      <trkpt lat="44.42755" lon="1.35163">
        <ele>199</ele>
        <time>2019-04-14T09:44:58Z</time>
      </trkpt>
      <trkpt lat="44.42755" lon="1.35162">
        <ele>199</ele>
        <time>2019-04-14T09:44:59Z</time>
      </trkpt>
      <trkpt lat="44.42754" lon="1.35162">
        <ele>199</ele>
        <time>2019-04-14T09:45:00Z</time>
      </trkpt>
      <trkpt lat="44.42753" lon="1.35161">
        <ele>199</ele>
        <time>2019-04-14T09:45:01Z</time>
      </trkpt>
      <trkpt lat="44.42752" lon="1.3516">
        <ele>200</ele>
        <time>2019-04-14T09:45:02Z</time>
      </trkpt>
      <trkpt lat="44.42751" lon="1.3516">
        <ele>200</ele>
        <time>2019-04-14T09:45:03Z</time>
      </trkpt>
      <trkpt lat="44.42751" lon="1.35159">
        <ele>200</ele>
        <time>2019-04-14T09:45:04Z</time>
      </trkpt>
      <trkpt lat="44.42749" lon="1.35158">
        <ele>200</ele>
        <time>2019-04-14T09:45:05Z</time>
      </trkpt>
      <trkpt lat="44.42748" lon="1.35157">
        <ele>200</ele>
        <time>2019-04-14T09:45:06Z</time>
      </trkpt>
      <trkpt lat="44.42747" lon="1.35156">
        <ele>201</ele>
        <time>2019-04-14T09:45:07Z</time>
      </trkpt>
      <trkpt lat="44.42746" lon="1.35156">
        <ele>201</ele>
        <time>2019-04-14T09:45:08Z</time>
      </trkpt>
      <trkpt lat="44.42745" lon="1.35155">
        <ele>201</ele>
        <time>2019-04-14T09:45:09Z</time>
      </trkpt>
      <trkpt lat="44.42744" lon="1.35154">
        <ele>201</ele>
        <time>2019-04-14T09:45:10Z</time>
      </trkpt>
      <trkpt lat="44.42742" lon="1.35154">
        <ele>201</ele>
        <time>2019-04-14T09:45:11Z</time>
      </trkpt>
      <trkpt lat="44.42741" lon="1.35153">
        <ele>201</ele>
        <time>2019-04-14T09:45:12Z</time>
      </trkpt>
      <trkpt lat="44.4274" lon="1.35153">
        <ele>202</ele>
        <time>2019-04-14T09:45:13Z</time>
      </trkpt>
      <trkpt lat="44.42739" lon="1.35152">
        <ele>202</ele>
        <time>2019-04-14T09:45:14Z</time>
      </trkpt>
      <trkpt lat="44.42738" lon="1.35151">
        <ele>202</ele>
        <time>2019-04-14T09:45:15Z</time>
      </trkpt>
      <trkpt lat="44.42737" lon="1.3515">
        <ele>202</ele>
        <time>2019-04-14T09:45:16Z</time>
      </trkpt>
      <trkpt lat="44.42736" lon="1.3515">
        <ele>202</ele>
        <time>2019-04-14T09:45:17Z</time>
      </trkpt>
      <trkpt lat="44.42735" lon="1.35149">
        <ele>203</ele>
        <time>2019-04-14T09:45:18Z</time>
      </trkpt>
      <trkpt lat="44.42735" lon="1.35148">
        <ele>203</ele>
        <time>2019-04-14T09:45:19Z</time>
      </trkpt>
      <trkpt lat="44.42734" lon="1.35148">
        <ele>203</ele>
        <time>2019-04-14T09:45:20Z</time>
      </trkpt>
      <trkpt lat="44.42733" lon="1.35147">
        <ele>203</ele>
        <time>2019-04-14T09:45:21Z</time>
      </trkpt>
      <trkpt lat="44.42733" lon="1.35146">
        <ele>204</ele>
        <time>2019-04-14T09:45:22Z</time>
      </trkpt>
      <trkpt lat="44.42732" lon="1.35145">
        <ele>204</ele>
        <time>2019-04-14T09:45:23Z</time>
      </trkpt>
      <trkpt lat="44.42731" lon="1.35144">
        <ele>204</ele>
        <time>2019-04-14T09:45:24Z</time>
      </trkpt>
      <trkpt lat="44.4273" lon="1.35144">
        <ele>204</ele>
        <time>2019-04-14T09:45:25Z</time>
      </trkpt>
      <trkpt lat="44.4273" lon="1.35143">
        <ele>204</ele>
        <time>2019-04-14T09:45:26Z</time>
      </trkpt>
      <trkpt lat="44.42729" lon="1.35143">
        <ele>205</ele>
        <time>2019-04-14T09:45:27Z</time>
      </trkpt>
      <trkpt lat="44.42728" lon="1.35142">
        <ele>205</ele>
        <time>2019-04-14T09:45:28Z</time>
      </trkpt>
      <trkpt lat="44.42727" lon="1.35142">
        <ele>205</ele>
        <time>2019-04-14T09:45:29Z</time>
      </trkpt>
      <trkpt lat="44.42726" lon="1.35142">
        <ele>205</ele>
        <time>2019-04-14T09:45:30Z</time>
      </trkpt>
      <trkpt lat="44.42725" lon="1.35141">
        <ele>205</ele>
        <time>2019-04-14T09:45:31Z</time>
      </trkpt>
      <trkpt lat="44.42724" lon="1.35141">
        <ele>206</ele>
        <time>2019-04-14T09:45:32Z</time>
      </trkpt>
      <trkpt lat="44.42723" lon="1.3514">
        <ele>206</ele>
        <time>2019-04-14T09:45:33Z</time>
      </trkpt>
      <trkpt lat="44.42723" lon="1.35139">
        <ele>206</ele>
        <time>2019-04-14T09:45:34Z</time>
      </trkpt>
      <trkpt lat="44.42722" lon="1.35138">
        <ele>206</ele>
        <time>2019-04-14T09:45:35Z</time>
      </trkpt>
      <trkpt lat="44.42721" lon="1.35138">
        <ele>207</ele>
        <time>2019-04-14T09:45:36Z</time>
      </trkpt>
      <trkpt lat="44.4272" lon="1.35137">
        <ele>207</ele>
        <time>2019-04-14T09:45:37Z</time>
      </trkpt>
      <trkpt lat="44.42719" lon="1.35137">
        <ele>207</ele>
        <time>2019-04-14T09:45:38Z</time>
      </trkpt>
      <trkpt lat="44.42718" lon="1.35136">
        <ele>207</ele>
        <time>2019-04-14T09:45:39Z</time>
      </trkpt>
      <trkpt lat="44.42718" lon="1.35136">
        <ele>207</ele>
        <time>2019-04-14T09:45:40Z</time>
      </trkpt>
      <trkpt lat="44.42718" lon="1.35135">
        <ele>208</ele>
        <time>2019-04-14T09:45:41Z</time>
      </trkpt>
      <trkpt lat="44.42718" lon="1.35135">
        <ele>208</ele>
        <time>2019-04-14T09:45:42Z</time>
      </trkpt>
      <trkpt lat="44.42717" lon="1.35135">
        <ele>208</ele>
        <time>2019-04-14T09:45:43Z</time>
      </trkpt>
      <trkpt lat="44.42716" lon="1.35134">
        <ele>208</ele>
        <time>2019-04-14T09:45:44Z</time>
      </trkpt>
      <trkpt lat="44.42716" lon="1.35133">
        <ele>208</ele>
        <time>2019-04-14T09:45:45Z</time>
      </trkpt>
      <trkpt lat="44.42715" lon="1.35133">
        <ele>209</ele>
        <time>2019-04-14T09:45:46Z</time>
      </trkpt>
      <trkpt lat="44.42715" lon="1.35133">
        <ele>209</ele>
        <time>2019-04-14T09:45:47Z</time>
      </trkpt>
      <trkpt lat="44.42734" lon="1.35126">
        <ele>214</ele>
        <time>2019-04-14T09:46:52Z</time>
      </trkpt>
      <trkpt lat="44.42736" lon="1.35125">
        <ele>214</ele>
        <time>2019-04-14T09:46:53Z</time>
      </trkpt>
      <trkpt lat="44.42737" lon="1.35125">
        <ele>215</ele>
        <time>2019-04-14T09:46:54Z</time>
      </trkpt>
      <trkpt lat="44.42739" lon="1.35125">
        <ele>215</ele>
        <time>2019-04-14T09:46:55Z</time>
      </trkpt>
      <trkpt lat="44.4274" lon="1.35125">
        <ele>215</ele>
        <time>2019-04-14T09:46:56Z</time>
      </trkpt>
      <trkpt lat="44.42741" lon="1.35124">
        <ele>215</ele>
        <time>2019-04-14T09:46:57Z</time>
      </trkpt>
      <trkpt lat="44.42742" lon="1.35124">
        <ele>216</ele>
        <time>2019-04-14T09:46:58Z</time>
      </trkpt>
      <trkpt lat="44.42743" lon="1.35124">
        <ele>216</ele>
        <time>2019-04-14T09:46:59Z</time>
      </trkpt>
      <trkpt lat="44.42744" lon="1.35124">
        <ele>216</ele>
        <time>2019-04-14T09:47:00Z</time>
      </trkpt>
      <trkpt lat="44.42746" lon="1.35124">
        <ele>216</ele>
        <time>2019-04-14T09:47:01Z</time>
      </trkpt>
      <trkpt lat="44.42747" lon="1.35123">
        <ele>217</ele>
        <time>2019-04-14T09:47:02Z</time>
      </trkpt>
      <trkpt lat="44.42748" lon="1.35123">
        <ele>217</ele>
        <time>2019-04-14T09:47:03Z</time>
      </trkpt>
      <trkpt lat="44.42749" lon="1.35123">
        <ele>217</ele>
        <time>2019-04-14T09:47:04Z</time>
      </trkpt>
      <trkpt lat="44.42751" lon="1.35123">
        <ele>217</ele>
        <time>2019-04-14T09:47:05Z</time>
      </trkpt>
      <trkpt lat="44.42752" lon="1.35123">
        <ele>217</ele>
        <time>2019-04-14T09:47:06Z</time>
      </trkpt>
      <trkpt lat="44.42754" lon="1.35123">
        <ele>218</ele>
        <time>2019-04-14T09:47:07Z</time>
      </trkpt>
      <trkpt lat="44.42756" lon="1.35123">
        <ele>218</ele>
        <time>2019-04-14T09:47:08Z</time>
      </trkpt>
      <trkpt lat="44.42757" lon="1.35123">
        <ele>218</ele>
        <time>2019-04-14T09:47:09Z</time>
      </trkpt>
      <trkpt lat="44.42758" lon="1.35123">
        <ele>218</ele>
        <time>2019-04-14T09:47:10Z</time>
      </trkpt>
      <trkpt lat="44.4276" lon="1.35123">
        <ele>218</ele>
        <time>2019-04-14T09:47:11Z</time>
      </trkpt>
      <trkpt lat="44.42762" lon="1.35122">
        <ele>219</ele>
        <time>2019-04-14T09:47:12Z</time>
      </trkpt>
      <trkpt lat="44.42763" lon="1.35122">
        <ele>219</ele>
        <time>2019-04-14T09:47:13Z</time>
      </trkpt>
      <trkpt lat="44.42765" lon="1.35121">
        <ele>219</ele>
        <time>2019-04-14T09:47:14Z</time>
      </trkpt>
      <trkpt lat="44.42765" lon="1.35121">
        <ele>219</ele>
        <time>2019-04-14T09:47:15Z</time>
      </trkpt>
      <trkpt lat="44.42766" lon="1.35121">
        <ele>219</ele>
        <time>2019-04-14T09:47:16Z</time>
      </trkpt>
      <trkpt lat="44.42768" lon="1.35121">
        <ele>220</ele>
        <time>2019-04-14T09:47:17Z</time>
      </trkpt>
      <trkpt lat="44.42769" lon="1.35121">
        <ele>220</ele>
        <time>2019-04-14T09:47:18Z</time>
      </trkpt>
      <trkpt lat="44.4277" lon="1.35121">
        <ele>220</ele>
        <time>2019-04-14T09:47:19Z</time>
      </trkpt>
      <trkpt lat="44.42771" lon="1.35121">
        <ele>220</ele>
        <time>2019-04-14T09:47:20Z</time>
      </trkpt>
      <trkpt lat="44.42773" lon="1.35121">
        <ele>221</ele>
        <time>2019-04-14T09:47:21Z</time>
      </trkpt>
      <trkpt lat="44.42774" lon="1.3512">
        <ele>221</ele>
        <time>2019-04-14T09:47:22Z</time>
      </trkpt>
      <trkpt lat="44.42776" lon="1.3512">
        <ele>221</ele>
        <time>2019-04-14T09:47:23Z</time>
      </trkpt>
      <trkpt lat="44.42777" lon="1.3512">
        <ele>221</ele>
        <time>2019-04-14T09:47:24Z</time>
      </trkpt>
      <trkpt lat="44.42778" lon="1.3512">
        <ele>222</ele>
        <time>2019-04-14T09:47:25Z</time>
      </trkpt>
      <trkpt lat="44.4278" lon="1.35119">
        <ele>222</ele>
        <time>2019-04-14T09:47:26Z</time>
      </trkpt>
      <trkpt lat="44.42781" lon="1.35119">
        <ele>222</ele>
        <time>2019-04-14T09:47:27Z</time>
      </trkpt>
      <trkpt lat="44.42782" lon="1.35118">
        <ele>222</ele>
        <time>2019-04-14T09:47:28Z</time>
      </trkpt>
      <trkpt lat="44.42784" lon="1.35118">
        <ele>223</ele>
        <time>2019-04-14T09:47:29Z</time>
      </trkpt>
      <trkpt lat="44.42785" lon="1.35118">
        <ele>223</ele>
        <time>2019-04-14T09:47:30Z</time>
      </trkpt>
      <trkpt lat="44.42786" lon="1.35118">
        <ele>223</ele>
        <time>2019-04-14T09:47:31Z</time>
      </trkpt>
      <trkpt lat="44.42787" lon="1.35118">
        <ele>223</ele>
        <time>2019-04-14T09:47:32Z</time>
      </trkpt>
      <trkpt lat="44.42788" lon="1.35118">
        <ele>224</ele>
        <time>2019-04-14T09:47:33Z</time>
      </trkpt>
      <trkpt lat="44.42789" lon="1.35118">
        <ele>224</ele>
        <time>2019-04-14T09:47:34Z</time>
      </trkpt>
      <trkpt lat="44.42789" lon="1.35118">
        <ele>224</ele>
        <time>2019-04-14T09:47:35Z</time>
      </trkpt>
      <trkpt lat="44.4279" lon="1.35118">
        <ele>224</ele>
        <time>2019-04-14T09:47:36Z</time>
      </trkpt>
      <trkpt lat="44.42791" lon="1.35118">
        <ele>225</ele>
        <time>2019-04-14T09:47:37Z</time>
      </trkpt>
      <trkpt lat="44.42792" lon="1.35117">
        <ele>225</ele>
        <time>2019-04-14T09:47:38Z</time>
      </trkpt>
      <trkpt lat="44.42793" lon="1.35117">
        <ele>225</ele>
        <time>2019-04-14T09:47:39Z</time>
      </trkpt>
      <trkpt lat="44.42794" lon="1.35117">
        <ele>226</ele>
        <time>2019-04-14T09:47:40Z</time>
      </trkpt>
      <trkpt lat="44.42796" lon="1.35117">
        <ele>226</ele>
        <time>2019-04-14T09:47:41Z</time>
      </trkpt>
      <trkpt lat="44.42798" lon="1.35117">
        <ele>226</ele>
        <time>2019-04-14T09:47:42Z</time>
      </trkpt>
      <trkpt lat="44.42799" lon="1.35117">
        <ele>226</ele>
        <time>2019-04-14T09:47:43Z</time>
      </trkpt>
      <trkpt lat="44.428" lon="1.35117">
        <ele>227</ele>
        <time>2019-04-14T09:47:44Z</time>
      </trkpt>
      <trkpt lat="44.42801" lon="1.35117">
        <ele>227</ele>
        <time>2019-04-14T09:47:45Z</time>
      </trkpt>
      <trkpt lat="44.42803" lon="1.35117">
        <ele>227</ele>
        <time>2019-04-14T09:47:46Z</time>
      </trkpt>
      <trkpt lat="44.42804" lon="1.35117">
        <ele>227</ele>
        <time>2019-04-14T09:47:47Z</time>
      </trkpt>
      <trkpt lat="44.42805" lon="1.35117">
        <ele>228</ele>
        <time>2019-04-14T09:47:48Z</time>
      </trkpt>
      <trkpt lat="44.42806" lon="1.35117">
        <ele>228</ele>
        <time>2019-04-14T09:47:49Z</time>
      </trkpt>
      <trkpt lat="44.42807" lon="1.35117">
        <ele>228</ele>
        <time>2019-04-14T09:47:50Z</time>
      </trkpt>
      <trkpt lat="44.42808" lon="1.35117">
        <ele>228</ele>
        <time>2019-04-14T09:47:51Z</time>
      </trkpt>
      <trkpt lat="44.42808" lon="1.35118">
        <ele>229</ele>
        <time>2019-04-14T09:47:52Z</time>
      </trkpt>
      <trkpt lat="44.42809" lon="1.35117">
        <ele>229</ele>
        <time>2019-04-14T09:47:53Z</time>
      </trkpt>
      <trkpt lat="44.42811" lon="1.35118">
        <ele>229</ele>
        <time>2019-04-14T09:47:54Z</time>
      </trkpt>
      <trkpt lat="44.42812" lon="1.35118">
        <ele>229</ele>
        <time>2019-04-14T09:47:55Z</time>
      </trkpt>
      <trkpt lat="44.42814" lon="1.35118">
        <ele>229</ele>
        <time>2019-04-14T09:47:56Z</time>
      </trkpt>
      <trkpt lat="44.42814" lon="1.35117">
        <ele>229</ele>
        <time>2019-04-14T09:47:57Z</time>
      </trkpt>
      <trkpt lat="44.42816" lon="1.35116">
        <ele>230</ele>
        <time>2019-04-14T09:47:58Z</time>
      </trkpt>
      <trkpt lat="44.42817" lon="1.35115">
        <ele>230</ele>
        <time>2019-04-14T09:47:59Z</time>
      </trkpt>
      <trkpt lat="44.42818" lon="1.35114">
        <ele>230</ele>
        <time>2019-04-14T09:48:00Z</time>
      </trkpt>
      <trkpt lat="44.42818" lon="1.35112">
        <ele>230</ele>
        <time>2019-04-14T09:48:01Z</time>
      </trkpt>
      <trkpt lat="44.42818" lon="1.35111">
        <ele>230</ele>
        <time>2019-04-14T09:48:02Z</time>
      </trkpt>
      <trkpt lat="44.42818" lon="1.3511">
        <ele>231</ele>
        <time>2019-04-14T09:48:03Z</time>
      </trkpt>
      <trkpt lat="44.42818" lon="1.35109">
        <ele>231</ele>
        <time>2019-04-14T09:48:04Z</time>
      </trkpt>
      <trkpt lat="44.42817" lon="1.35109">
        <ele>231</ele>
        <time>2019-04-14T09:48:05Z</time>
      </trkpt>
      <trkpt lat="44.42816" lon="1.35108">
        <ele>231</ele>
        <time>2019-04-14T09:48:06Z</time>
      </trkpt>
      <trkpt lat="44.42816" lon="1.35107">
        <ele>231</ele>
        <time>2019-04-14T09:48:07Z</time>
      </trkpt>
      <trkpt lat="44.42815" lon="1.35106">
        <ele>231</ele>
        <time>2019-04-14T09:48:08Z</time>
      </trkpt>
      <trkpt lat="44.42814" lon="1.35105">
        <ele>232</ele>
        <time>2019-04-14T09:48:09Z</time>
      </trkpt>
      <trkpt lat="44.42814" lon="1.35105">
        <ele>232</ele>
        <time>2019-04-14T09:48:10Z</time>
      </trkpt>
      <trkpt lat="44.42814" lon="1.35104">
        <ele>232</ele>
        <time>2019-04-14T09:48:11Z</time>
      </trkpt>
      <trkpt lat="44.42814" lon="1.35102">
        <ele>232</ele>
        <time>2019-04-14T09:48:12Z</time>
      </trkpt>
      <trkpt lat="44.42814" lon="1.35101">
        <ele>232</ele>
        <time>2019-04-14T09:48:13Z</time>
      </trkpt>
      <trkpt lat="44.42814" lon="1.351">
        <ele>232</ele>
        <time>2019-04-14T09:48:14Z</time>
      </trkpt>
      <trkpt lat="44.42814" lon="1.35098">
        <ele>232</ele>
        <time>2019-04-14T09:48:15Z</time>
      </trkpt>
      <trkpt lat="44.42815" lon="1.35097">
        <ele>232</ele>
        <time>2019-04-14T09:48:16Z</time>
      </trkpt>
      <trkpt lat="44.42815" lon="1.35096">
        <ele>232</ele>
        <time>2019-04-14T09:48:17Z</time>
      </trkpt>
      <trkpt lat="44.42815" lon="1.35095">
        <ele>232</ele>
        <time>2019-04-14T09:48:18Z</time>
      </trkpt>
      <trkpt lat="44.42816" lon="1.35093">
        <ele>233</ele>
        <time>2019-04-14T09:48:19Z</time>
      </trkpt>
      <trkpt lat="44.42816" lon="1.35092">
        <ele>233</ele>
        <time>2019-04-14T09:48:20Z</time>
      </trkpt>
      <trkpt lat="44.42817" lon="1.3509">
        <ele>233</ele>
        <time>2019-04-14T09:48:21Z</time>
      </trkpt>
      <trkpt lat="44.42818" lon="1.35089">
        <ele>233</ele>
        <time>2019-04-14T09:48:22Z</time>
      </trkpt>
      <trkpt lat="44.42819" lon="1.35088">
        <ele>233</ele>
        <time>2019-04-14T09:48:23Z</time>
      </trkpt>
      <trkpt lat="44.42819" lon="1.35087">
        <ele>233</ele>
        <time>2019-04-14T09:48:24Z</time>
      </trkpt>
      <trkpt lat="44.4282" lon="1.35086">
        <ele>233</ele>
        <time>2019-04-14T09:48:25Z</time>
      </trkpt>
      <trkpt lat="44.4282" lon="1.35086">
        <ele>233</ele>
        <time>2019-04-14T09:48:26Z</time>
      </trkpt>
      <trkpt lat="44.42821" lon="1.35086">
        <ele>233</ele>
        <time>2019-04-14T09:48:27Z</time>
      </trkpt>
      <trkpt lat="44.42821" lon="1.35087">
        <ele>233</ele>
        <time>2019-04-14T09:48:28Z</time>
      </trkpt>
      <trkpt lat="44.42821" lon="1.35087">
        <ele>233</ele>
        <time>2019-04-14T09:48:29Z</time>
      </trkpt>
      <trkpt lat="44.42821" lon="1.35086">
        <ele>233</ele>
        <time>2019-04-14T09:48:30Z</time>
      </trkpt>
      <trkpt lat="44.42821" lon="1.35086">
        <ele>233</ele>
        <time>2019-04-14T09:48:31Z</time>
      </trkpt>
      <trkpt lat="44.42821" lon="1.35086">
        <ele>233</ele>
        <time>2019-04-14T09:48:32Z</time>
      </trkpt>
      <trkpt lat="44.4282" lon="1.35086">
        <ele>233</ele>
        <time>2019-04-14T09:48:33Z</time>
      </trkpt>
      <trkpt lat="44.42819" lon="1.35079">
        <ele>234</ele>
        <time>2019-04-14T09:53:17Z</time>
      </trkpt>
      <trkpt lat="44.42818" lon="1.35079">
        <ele>234</ele>
        <time>2019-04-14T09:53:18Z</time>
      </trkpt>
      <trkpt lat="44.42817" lon="1.35078">
        <ele>234</ele>
        <time>2019-04-14T09:53:19Z</time>
      </trkpt>
      <trkpt lat="44.42816" lon="1.35078">
        <ele>234</ele>
        <time>2019-04-14T09:53:20Z</time>
      </trkpt>
      <trkpt lat="44.42814" lon="1.35078">
        <ele>234</ele>
        <time>2019-04-14T09:53:21Z</time>
      </trkpt>
      <trkpt lat="44.42813" lon="1.35077">
        <ele>234</ele>
        <time>2019-04-14T09:53:22Z</time>
      </trkpt>
      <trkpt lat="44.42811" lon="1.35076">
        <ele>234</ele>
        <time>2019-04-14T09:53:23Z</time>
      </trkpt>
      <trkpt lat="44.4281" lon="1.35074">
        <ele>234</ele>
        <time>2019-04-14T09:53:24Z</time>
      </trkpt>
      <trkpt lat="44.42808" lon="1.35074">
        <ele>234</ele>
        <time>2019-04-14T09:53:25Z</time>
      </trkpt>
      <trkpt lat="44.42806" lon="1.35073">
        <ele>234</ele>
        <time>2019-04-14T09:53:26Z</time>
      </trkpt>
      <trkpt lat="44.42805" lon="1.35072">
        <ele>235</ele>
        <time>2019-04-14T09:53:27Z</time>
      </trkpt>
      <trkpt lat="44.42803" lon="1.35071">
        <ele>235</ele>
        <time>2019-04-14T09:53:28Z</time>
      </trkpt>
      <trkpt lat="44.42801" lon="1.35069">
        <ele>235</ele>
        <time>2019-04-14T09:53:29Z</time>
      </trkpt>
      <trkpt lat="44.42799" lon="1.35069">
        <ele>235</ele>
        <time>2019-04-14T09:53:30Z</time>
      </trkpt>
      <trkpt lat="44.42798" lon="1.35069">
        <ele>235</ele>
        <time>2019-04-14T09:53:31Z</time>
      </trkpt>
      <trkpt lat="44.42796" lon="1.35068">
        <ele>235</ele>
        <time>2019-04-14T09:53:32Z</time>
      </trkpt>
      <trkpt lat="44.42794" lon="1.35068">
        <ele>235</ele>
        <time>2019-04-14T09:53:33Z</time>
      </trkpt>
      <trkpt lat="44.42793" lon="1.35067">
        <ele>236</ele>
        <time>2019-04-14T09:53:34Z</time>
      </trkpt>
      <trkpt lat="44.42791" lon="1.35067">
        <ele>236</ele>
        <time>2019-04-14T09:53:35Z</time>
      </trkpt>
      <trkpt lat="44.42789" lon="1.35067">
        <ele>236</ele>
        <time>2019-04-14T09:53:36Z</time>
      </trkpt>
      <trkpt lat="44.42787" lon="1.35067">
        <ele>236</ele>
        <time>2019-04-14T09:53:37Z</time>
      </trkpt>
      <trkpt lat="44.42785" lon="1.35066">
        <ele>236</ele>
        <time>2019-04-14T09:53:38Z</time>
      </trkpt>
      <trkpt lat="44.42783" lon="1.35066">
        <ele>236</ele>
        <time>2019-04-14T09:53:39Z</time>
      </trkpt>
      <trkpt lat="44.42782" lon="1.35065">
        <ele>236</ele>
        <time>2019-04-14T09:53:40Z</time>
      </trkpt>
      <trkpt lat="44.42781" lon="1.35065">
        <ele>236</ele>
        <time>2019-04-14T09:53:41Z</time>
      </trkpt>
      <trkpt lat="44.42779" lon="1.35064">
        <ele>237</ele>
        <time>2019-04-14T09:53:42Z</time>
      </trkpt>
      <trkpt lat="44.42778" lon="1.35064">
        <ele>237</ele>
        <time>2019-04-14T09:53:43Z</time>
      </trkpt>
      <trkpt lat="44.42777" lon="1.35063">
        <ele>237</ele>
        <time>2019-04-14T09:53:44Z</time>
      </trkpt>
      <trkpt lat="44.42776" lon="1.35062">
        <ele>237</ele>
        <time>2019-04-14T09:53:45Z</time>
      </trkpt>
      <trkpt lat="44.42775" lon="1.35061">
        <ele>237</ele>
        <time>2019-04-14T09:53:46Z</time>
      </trkpt>
      <trkpt lat="44.42773" lon="1.35061">
        <ele>237</ele>
        <time>2019-04-14T09:53:47Z</time>
      </trkpt>
      <trkpt lat="44.42772" lon="1.3506">
        <ele>238</ele>
        <time>2019-04-14T09:53:48Z</time>
      </trkpt>
      <trkpt lat="44.4277" lon="1.35059">
        <ele>238</ele>
        <time>2019-04-14T09:53:49Z</time>
      </trkpt>
      <trkpt lat="44.42769" lon="1.35058">
        <ele>238</ele>
        <time>2019-04-14T09:53:50Z</time>
      </trkpt>
      <trkpt lat="44.42768" lon="1.35058">
        <ele>238</ele>
        <time>2019-04-14T09:53:51Z</time>
      </trkpt>
      <trkpt lat="44.42766" lon="1.35057">
        <ele>238</ele>
        <time>2019-04-14T09:53:52Z</time>
      </trkpt>
      <trkpt lat="44.42765" lon="1.35056">
        <ele>238</ele>
        <time>2019-04-14T09:53:53Z</time>
      </trkpt>
      <trkpt lat="44.42764" lon="1.35056">
        <ele>239</ele>
        <time>2019-04-14T09:53:54Z</time>
      </trkpt>
      <trkpt lat="44.42763" lon="1.35055">
        <ele>239</ele>
        <time>2019-04-14T09:53:55Z</time>
      </trkpt>
      <trkpt lat="44.42761" lon="1.35054">
        <ele>239</ele>
        <time>2019-04-14T09:53:56Z</time>
      </trkpt>
      <trkpt lat="44.4276" lon="1.35053">
        <ele>239</ele>
        <time>2019-04-14T09:53:57Z</time>
      </trkpt>
      <trkpt lat="44.42758" lon="1.35052">
        <ele>239</ele>
        <time>2019-04-14T09:53:58Z</time>
      </trkpt>
      <trkpt lat="44.42757" lon="1.35051">
        <ele>239</ele>
        <time>2019-04-14T09:53:59Z</time>
      </trkpt>
      <trkpt lat="44.42756" lon="1.3505">
        <ele>240</ele>
        <time>2019-04-14T09:54:00Z</time>
      </trkpt>
      <trkpt lat="44.42754" lon="1.3505">
        <ele>240</ele>
        <time>2019-04-14T09:54:01Z</time>
      </trkpt>
      <trkpt lat="44.42753" lon="1.35049">
        <ele>240</ele>
        <time>2019-04-14T09:54:02Z</time>
      </trkpt>
      <trkpt lat="44.42752" lon="1.35048">
        <ele>240</ele>
        <time>2019-04-14T09:54:03Z</time>
      </trkpt>
      <trkpt lat="44.4275" lon="1.35048">
        <ele>241</ele>
        <time>2019-04-14T09:54:04Z</time>
      </trkpt>
      <trkpt lat="44.42749" lon="1.35047">
        <ele>241</ele>
        <time>2019-04-14T09:54:05Z</time>
      </trkpt>
      <trkpt lat="44.42748" lon="1.35047">
        <ele>241</ele>
        <time>2019-04-14T09:54:06Z</time>
      </trkpt>
      <trkpt lat="44.42747" lon="1.35046">
        <ele>241</ele>
        <time>2019-04-14T09:54:07Z</time>
      </trkpt>
      <trkpt lat="44.42745" lon="1.35045">
        <ele>241</ele>
        <time>2019-04-14T09:54:08Z</time>
      </trkpt>
      <trkpt lat="44.42744" lon="1.35045">
        <ele>242</ele>
        <time>2019-04-14T09:54:09Z</time>
      </trkpt>
      <trkpt lat="44.42742" lon="1.35044">
        <ele>242</ele>
        <time>2019-04-14T09:54:10Z</time>
      </trkpt>
      <trkpt lat="44.42741" lon="1.35044">
        <ele>242</ele>
        <time>2019-04-14T09:54:11Z</time>
      </trkpt>
      <trkpt lat="44.4274" lon="1.35043">
        <ele>242</ele>
        <time>2019-04-14T09:54:12Z</time>
      </trkpt>
      <trkpt lat="44.42739" lon="1.35043">
        <ele>243</ele>
        <time>2019-04-14T09:54:13Z</time>
      </trkpt>
      <trkpt lat="44.42738" lon="1.35042">
        <ele>243</ele>
        <time>2019-04-14T09:54:14Z</time>
      </trkpt>
      <trkpt lat="44.42736" lon="1.35042">
        <ele>243</ele>
        <time>2019-04-14T09:54:15Z</time>
      </trkpt>
      <trkpt lat="44.42735" lon="1.35042">
        <ele>243</ele>
        <time>2019-04-14T09:54:16Z</time>
      </trkpt>
      <trkpt lat="44.42734" lon="1.35041">
        <ele>243</ele>
        <time>2019-04-14T09:54:17Z</time>
      </trkpt>
      <trkpt lat="44.42732" lon="1.35041">
        <ele>243</ele>
        <time>2019-04-14T09:54:18Z</time>
      </trkpt>
      <trkpt lat="44.42731" lon="1.3504">
        <ele>244</ele>
        <time>2019-04-14T09:54:19Z</time>
      </trkpt>
      <trkpt lat="44.4273" lon="1.3504">
        <ele>244</ele>
        <time>2019-04-14T09:54:20Z</time>
      </trkpt>
      <trkpt lat="44.42729" lon="1.3504">
        <ele>244</ele>
        <time>2019-04-14T09:54:21Z</time>
      </trkpt>
      <trkpt lat="44.42728" lon="1.35039">
        <ele>244</ele>
        <time>2019-04-14T09:54:22Z</time>
      </trkpt>
      <trkpt lat="44.42727" lon="1.35038">
        <ele>244</ele>
        <time>2019-04-14T09:54:23Z</time>
      </trkpt>
      <trkpt lat="44.42727" lon="1.35038">
        <ele>245</ele>
        <time>2019-04-14T09:54:24Z</time>
      </trkpt>
      <trkpt lat="44.42726" lon="1.35038">
        <ele>245</ele>
        <time>2019-04-14T09:54:25Z</time>
      </trkpt>
      <trkpt lat="44.42724" lon="1.35037">
        <ele>245</ele>
        <time>2019-04-14T09:54:26Z</time>
      </trkpt>
      <trkpt lat="44.42723" lon="1.35037">
        <ele>245</ele>
        <time>2019-04-14T09:54:27Z</time>
      </trkpt>
      <trkpt lat="44.42722" lon="1.35037">
        <ele>245</ele>
        <time>2019-04-14T09:54:28Z</time>
      </trkpt>
      <trkpt lat="44.4272" lon="1.35037">
        <ele>245</ele>
        <time>2019-04-14T09:54:29Z</time>
      </trkpt>
      <trkpt lat="44.42719" lon="1.35036">
        <ele>246</ele>
        <time>2019-04-14T09:54:30Z</time>
      </trkpt>
      <trkpt lat="44.42717" lon="1.35036">
        <ele>246</ele>
        <time>2019-04-14T09:54:31Z</time>
      </trkpt>
      <trkpt lat="44.42716" lon="1.35035">
        <ele>246</ele>
        <time>2019-04-14T09:54:32Z</time>
      </trkpt>
      <trkpt lat="44.42714" lon="1.35034">
        <ele>246</ele>
        <time>2019-04-14T09:54:33Z</time>
      </trkpt>
      <trkpt lat="44.42713" lon="1.35034">
        <ele>246</ele>
        <time>2019-04-14T09:54:34Z</time>
      </trkpt>
      <trkpt lat="44.42712" lon="1.35033">
        <ele>246</ele>
        <time>2019-04-14T09:54:35Z</time>
      </trkpt>
      <trkpt lat="44.42711" lon="1.35033">
        <ele>247</ele>
        <time>2019-04-14T09:54:36Z</time>
      </trkpt>
      <trkpt lat="44.42709" lon="1.35033">
        <ele>247</ele>
        <time>2019-04-14T09:54:37Z</time>
      </trkpt>
      <trkpt lat="44.42707" lon="1.35032">
        <ele>247</ele>
        <time>2019-04-14T09:54:38Z</time>
      </trkpt>
      <trkpt lat="44.42706" lon="1.35032">
        <ele>247</ele>
        <time>2019-04-14T09:54:39Z</time>
      </trkpt>
      <trkpt lat="44.42705" lon="1.35032">
        <ele>247</ele>
        <time>2019-04-14T09:54:40Z</time>
      </trkpt>
      <trkpt lat="44.42704" lon="1.35031">
        <ele>248</ele>
        <time>2019-04-14T09:54:41Z</time>
      </trkpt>
      <trkpt lat="44.42702" lon="1.3503">
        <ele>248</ele>
        <time>2019-04-14T09:54:42Z</time>
      </trkpt>
      <trkpt lat="44.427" lon="1.3503">
        <ele>248</ele>
        <time>2019-04-14T09:54:43Z</time>
      </trkpt>
      <trkpt lat="44.42699" lon="1.3503">
        <ele>249</ele>
        <time>2019-04-14T09:54:44Z</time>
      </trkpt>
      <trkpt lat="44.42698" lon="1.35031">
        <ele>249</ele>
        <time>2019-04-14T09:54:45Z</time>
      </trkpt>
      <trkpt lat="44.42697" lon="1.3503">
        <ele>249</ele>
        <time>2019-04-14T09:54:46Z</time>
      </trkpt>
      <trkpt lat="44.42695" lon="1.3503">
        <ele>249</ele>
        <time>2019-04-14T09:54:47Z</time>
      </trkpt>
      <trkpt lat="44.42694" lon="1.3503">
        <ele>249</ele>
        <time>2019-04-14T09:54:48Z</time>
      </trkpt>
      <trkpt lat="44.42692" lon="1.3503">
        <ele>249</ele>
        <time>2019-04-14T09:54:49Z</time>
      </trkpt>
      <trkpt lat="44.42691" lon="1.3503">
        <ele>249</ele>
        <time>2019-04-14T09:54:50Z</time>
      </trkpt>
      <trkpt lat="44.42689" lon="1.3503">
        <ele>250</ele>
        <time>2019-04-14T09:54:51Z</time>
      </trkpt>
      <trkpt lat="44.42688" lon="1.3503">
        <ele>250</ele>
        <time>2019-04-14T09:54:52Z</time>
      </trkpt>
      <trkpt lat="44.42686" lon="1.3503">
        <ele>250</ele>
        <time>2019-04-14T09:54:53Z</time>
      </trkpt>
      <trkpt lat="44.42685" lon="1.3503">
        <ele>250</ele>
        <time>2019-04-14T09:54:54Z</time>
      </trkpt>
      <trkpt lat="44.42683" lon="1.3503">
        <ele>250</ele>
        <time>2019-04-14T09:54:55Z</time>
      </trkpt>
      <trkpt lat="44.42682" lon="1.3503">
        <ele>251</ele>
        <time>2019-04-14T09:54:56Z</time>
      </trkpt>
      <trkpt lat="44.4268" lon="1.3503">
        <ele>251</ele>
        <time>2019-04-14T09:54:57Z</time>
      </trkpt>
      <trkpt lat="44.42679" lon="1.3503">
        <ele>251</ele>
        <time>2019-04-14T09:54:58Z</time>
      </trkpt>
      <trkpt lat="44.42678" lon="1.3503">
        <ele>251</ele>
        <time>2019-04-14T09:54:59Z</time>
      </trkpt>
      <trkpt lat="44.42677" lon="1.35029">
        <ele>251</ele>
        <time>2019-04-14T09:55:00Z</time>
      </trkpt>
      <trkpt lat="44.42675" lon="1.35029">
        <ele>251</ele>
        <time>2019-04-14T09:55:01Z</time>
      </trkpt>
      <trkpt lat="44.42674" lon="1.35029">
        <ele>252</ele>
        <time>2019-04-14T09:55:02Z</time>
      </trkpt>
      <trkpt lat="44.42673" lon="1.35029">
        <ele>252</ele>
        <time>2019-04-14T09:55:03Z</time>
      </trkpt>
      <trkpt lat="44.42671" lon="1.35029">
        <ele>252</ele>
        <time>2019-04-14T09:55:04Z</time>
      </trkpt>
      <trkpt lat="44.4267" lon="1.35029">
        <ele>252</ele>
        <time>2019-04-14T09:55:05Z</time>
      </trkpt>
      <trkpt lat="44.42669" lon="1.35028">
        <ele>252</ele>
        <time>2019-04-14T09:55:06Z</time>
      </trkpt>
      <trkpt lat="44.42667" lon="1.35028">
        <ele>252</ele>
        <time>2019-04-14T09:55:07Z</time>
      </trkpt>
      <trkpt lat="44.42666" lon="1.35028">
        <ele>253</ele>
        <time>2019-04-14T09:55:08Z</time>
      </trkpt>
      <trkpt lat="44.42665" lon="1.35028">
        <ele>253</ele>
        <time>2019-04-14T09:55:09Z</time>
      </trkpt>
      <trkpt lat="44.42664" lon="1.35027">
        <ele>253</ele>
        <time>2019-04-14T09:55:10Z</time>
      </trkpt>
      <trkpt lat="44.42663" lon="1.35028">
        <ele>253</ele>
        <time>2019-04-14T09:55:11Z</time>
      </trkpt>
      <trkpt lat="44.42661" lon="1.35028">
        <ele>253</ele>
        <time>2019-04-14T09:55:12Z</time>
      </trkpt>
      <trkpt lat="44.4266" lon="1.35028">
        <ele>253</ele>
        <time>2019-04-14T09:55:13Z</time>
      </trkpt>
      <trkpt lat="44.42659" lon="1.35028">
        <ele>253</ele>
        <time>2019-04-14T09:55:14Z</time>
      </trkpt>
      <trkpt lat="44.42658" lon="1.35028">
        <ele>254</ele>
        <time>2019-04-14T09:55:15Z</time>
      </trkpt>
      <trkpt lat="44.42657" lon="1.35029">
        <ele>254</ele>
        <time>2019-04-14T09:55:16Z</time>
      </trkpt>
      <trkpt lat="44.42656" lon="1.35028">
        <ele>254</ele>
        <time>2019-04-14T09:55:17Z</time>
      </trkpt>
      <trkpt lat="44.42654" lon="1.35028">
        <ele>254</ele>
        <time>2019-04-14T09:55:18Z</time>
      </trkpt>
      <trkpt lat="44.42653" lon="1.35028">
        <ele>254</ele>
        <time>2019-04-14T09:55:19Z</time>
      </trkpt>
      <trkpt lat="44.42651" lon="1.35028">
        <ele>254</ele>
        <time>2019-04-14T09:55:20Z</time>
      </trkpt>
      <trkpt lat="44.4265" lon="1.35028">
        <ele>255</ele>
        <time>2019-04-14T09:55:21Z</time>
      </trkpt>
      <trkpt lat="44.42648" lon="1.35028">
        <ele>255</ele>
        <time>2019-04-14T09:55:22Z</time>
      </trkpt>
      <trkpt lat="44.42647" lon="1.35028">
        <ele>255</ele>
        <time>2019-04-14T09:55:23Z</time>
      </trkpt>
      <trkpt lat="44.42646" lon="1.35028">
        <ele>255</ele>
        <time>2019-04-14T09:55:24Z</time>
      </trkpt>
      <trkpt lat="44.42645" lon="1.35028">
        <ele>255</ele>
        <time>2019-04-14T09:55:25Z</time>
      </trkpt>
      <trkpt lat="44.42643" lon="1.35028">
        <ele>255</ele>
        <time>2019-04-14T09:55:26Z</time>
      </trkpt>
      <trkpt lat="44.42642" lon="1.35028">
        <ele>255</ele>
        <time>2019-04-14T09:55:27Z</time>
      </trkpt>
      <trkpt lat="44.42641" lon="1.35028">
        <ele>256</ele>
        <time>2019-04-14T09:55:28Z</time>
      </trkpt>
      <trkpt lat="44.42639" lon="1.35028">
        <ele>256</ele>
        <time>2019-04-14T09:55:29Z</time>
      </trkpt>
      <trkpt lat="44.42638" lon="1.35028">
        <ele>256</ele>
        <time>2019-04-14T09:55:30Z</time>
      </trkpt>
      <trkpt lat="44.42636" lon="1.35028">
        <ele>256</ele>
        <time>2019-04-14T09:55:31Z</time>
      </trkpt>
      <trkpt lat="44.42635" lon="1.35028">
        <ele>256</ele>
        <time>2019-04-14T09:55:32Z</time>
      </trkpt>
      <trkpt lat="44.42633" lon="1.35028">
        <ele>257</ele>
        <time>2019-04-14T09:55:33Z</time>
      </trkpt>
      <trkpt lat="44.42632" lon="1.35028">
        <ele>257</ele>
        <time>2019-04-14T09:55:34Z</time>
      </trkpt>
      <trkpt lat="44.42631" lon="1.35028">
        <ele>257</ele>
        <time>2019-04-14T09:55:35Z</time>
      </trkpt>
      <trkpt lat="44.42629" lon="1.35027">
        <ele>257</ele>
        <time>2019-04-14T09:55:36Z</time>
      </trkpt>
      <trkpt lat="44.42628" lon="1.35027">
        <ele>257</ele>
        <time>2019-04-14T09:55:37Z</time>
      </trkpt>
      <trkpt lat="44.42626" lon="1.35027">
        <ele>257</ele>
        <time>2019-04-14T09:55:38Z</time>
      </trkpt>
      <trkpt lat="44.42625" lon="1.35027">
        <ele>258</ele>
        <time>2019-04-14T09:55:39Z</time>
      </trkpt>
      <trkpt lat="44.42623" lon="1.35027">
        <ele>258</ele>
        <time>2019-04-14T09:55:40Z</time>
      </trkpt>
      <trkpt lat="44.42621" lon="1.35027">
        <ele>258</ele>
        <time>2019-04-14T09:55:41Z</time>
      </trkpt>
      <trkpt lat="44.4262" lon="1.35027">
        <ele>258</ele>
        <time>2019-04-14T09:55:42Z</time>
      </trkpt>
      <trkpt lat="44.42618" lon="1.35027">
        <ele>258</ele>
        <time>2019-04-14T09:55:43Z</time>
      </trkpt>
      <trkpt lat="44.42617" lon="1.35027">
        <ele>259</ele>
        <time>2019-04-14T09:55:44Z</time>
      </trkpt>
      <trkpt lat="44.42616" lon="1.35027">
        <ele>259</ele>
        <time>2019-04-14T09:55:45Z</time>
      </trkpt>
      <trkpt lat="44.42614" lon="1.35027">
        <ele>259</ele>
        <time>2019-04-14T09:55:46Z</time>
      </trkpt>
      <trkpt lat="44.42613" lon="1.35026">
        <ele>259</ele>
        <time>2019-04-14T09:55:47Z</time>
      </trkpt>
      <trkpt lat="44.42612" lon="1.35026">
        <ele>259</ele>
        <time>2019-04-14T09:55:48Z</time>
      </trkpt>
      <trkpt lat="44.4261" lon="1.35026">
        <ele>259</ele>
        <time>2019-04-14T09:55:49Z</time>
      </trkpt>
      <trkpt lat="44.42608" lon="1.35027">
        <ele>259</ele>
        <time>2019-04-14T09:55:50Z</time>
      </trkpt>
      <trkpt lat="44.42607" lon="1.35027">
        <ele>260</ele>
        <time>2019-04-14T09:55:51Z</time>
      </trkpt>
      <trkpt lat="44.42605" lon="1.35028">
        <ele>260</ele>
        <time>2019-04-14T09:55:52Z</time>
      </trkpt>
      <trkpt lat="44.42603" lon="1.35028">
        <ele>260</ele>
        <time>2019-04-14T09:55:53Z</time>
      </trkpt>
      <trkpt lat="44.42602" lon="1.35028">
        <ele>260</ele>
        <time>2019-04-14T09:55:54Z</time>
      </trkpt>
      <trkpt lat="44.426" lon="1.35027">
        <ele>260</ele>
        <time>2019-04-14T09:55:55Z</time>
      </trkpt>
      <trkpt lat="44.42599" lon="1.35027">
        <ele>260</ele>
        <time>2019-04-14T09:55:56Z</time>
      </trkpt>
      <trkpt lat="44.42598" lon="1.35027">
        <ele>260</ele>
        <time>2019-04-14T09:55:57Z</time>
      </trkpt>
      <trkpt lat="44.42596" lon="1.35027">
        <ele>261</ele>
        <time>2019-04-14T09:55:58Z</time>
      </trkpt>
      <trkpt lat="44.42595" lon="1.35028">
        <ele>261</ele>
        <time>2019-04-14T09:55:59Z</time>
      </trkpt>
      <trkpt lat="44.42594" lon="1.35028">
        <ele>261</ele>
        <time>2019-04-14T09:56:00Z</time>
      </trkpt>
      <trkpt lat="44.42592" lon="1.35028">
        <ele>261</ele>
        <time>2019-04-14T09:56:01Z</time>
      </trkpt>
      <trkpt lat="44.42592" lon="1.35028">
        <ele>261</ele>
        <time>2019-04-14T09:56:02Z</time>
      </trkpt>
      <trkpt lat="44.42591" lon="1.35029">
        <ele>261</ele>
        <time>2019-04-14T09:56:03Z</time>
      </trkpt>
      <trkpt lat="44.42589" lon="1.35029">
        <ele>261</ele>
        <time>2019-04-14T09:56:04Z</time>
      </trkpt>
      <trkpt lat="44.42588" lon="1.3503">
        <ele>261</ele>
        <time>2019-04-14T09:56:05Z</time>
      </trkpt>
      <trkpt lat="44.42587" lon="1.35031">
        <ele>262</ele>
        <time>2019-04-14T09:56:06Z</time>
      </trkpt>
      <trkpt lat="44.42586" lon="1.35031">
        <ele>262</ele>
        <time>2019-04-14T09:56:07Z</time>
      </trkpt>
      <trkpt lat="44.42585" lon="1.35031">
        <ele>262</ele>
        <time>2019-04-14T09:56:08Z</time>
      </trkpt>
      <trkpt lat="44.42584" lon="1.35031">
        <ele>262</ele>
        <time>2019-04-14T09:56:09Z</time>
      </trkpt>
      <trkpt lat="44.42582" lon="1.35031">
        <ele>262</ele>
        <time>2019-04-14T09:56:10Z</time>
      </trkpt>
      <trkpt lat="44.42581" lon="1.35032">
        <ele>262</ele>
        <time>2019-04-14T09:56:11Z</time>
      </trkpt>
      <trkpt lat="44.4258" lon="1.35032">
        <ele>262</ele>
        <time>2019-04-14T09:56:12Z</time>
      </trkpt>
      <trkpt lat="44.42578" lon="1.35031">
        <ele>263</ele>
        <time>2019-04-14T09:56:13Z</time>
      </trkpt>
      <trkpt lat="44.42577" lon="1.3503">
        <ele>263</ele>
        <time>2019-04-14T09:56:14Z</time>
      </trkpt>
      <trkpt lat="44.42575" lon="1.3503">
        <ele>263</ele>
        <time>2019-04-14T09:56:15Z</time>
      </trkpt>
      <trkpt lat="44.42573" lon="1.35029">
        <ele>263</ele>
        <time>2019-04-14T09:56:16Z</time>
      </trkpt>
      <trkpt lat="44.42572" lon="1.35027">
        <ele>263</ele>
        <time>2019-04-14T09:56:17Z</time>
      </trkpt>
      <trkpt lat="44.42571" lon="1.35026">
        <ele>264</ele>
        <time>2019-04-14T09:56:18Z</time>
      </trkpt>
      <trkpt lat="44.42571" lon="1.35024">
        <ele>264</ele>
        <time>2019-04-14T09:56:19Z</time>
      </trkpt>
      <trkpt lat="44.4257" lon="1.35022">
        <ele>264</ele>
        <time>2019-04-14T09:56:20Z</time>
      </trkpt>
      <trkpt lat="44.4257" lon="1.3502">
        <ele>264</ele>
        <time>2019-04-14T09:56:21Z</time>
      </trkpt>
      <trkpt lat="44.4257" lon="1.35018">
        <ele>264</ele>
        <time>2019-04-14T09:56:22Z</time>
      </trkpt>
      <trkpt lat="44.42569" lon="1.35016">
        <ele>264</ele>
        <time>2019-04-14T09:56:23Z</time>
      </trkpt>
      <trkpt lat="44.42569" lon="1.35013">
        <ele>264</ele>
        <time>2019-04-14T09:56:24Z</time>
      </trkpt>
      <trkpt lat="44.42568" lon="1.35011">
        <ele>264</ele>
        <time>2019-04-14T09:56:25Z</time>
      </trkpt>
      <trkpt lat="44.42568" lon="1.35009">
        <ele>265</ele>
        <time>2019-04-14T09:56:26Z</time>
      </trkpt>
      <trkpt lat="44.42567" lon="1.35006">
        <ele>265</ele>
        <time>2019-04-14T09:56:27Z</time>
      </trkpt>
      <trkpt lat="44.42567" lon="1.35004">
        <ele>265</ele>
        <time>2019-04-14T09:56:28Z</time>
      </trkpt>
      <trkpt lat="44.42567" lon="1.35001">
        <ele>265</ele>
        <time>2019-04-14T09:56:29Z</time>
      </trkpt>
      <trkpt lat="44.42567" lon="1.34999">
        <ele>265</ele>
        <time>2019-04-14T09:56:30Z</time>
      </trkpt>
      <trkpt lat="44.42566" lon="1.34997">
        <ele>265</ele>
        <time>2019-04-14T09:56:31Z</time>
      </trkpt>
      <trkpt lat="44.42566" lon="1.34995">
        <ele>265</ele>
        <time>2019-04-14T09:56:32Z</time>
      </trkpt>
      <trkpt lat="44.42565" lon="1.34992">
        <ele>265</ele>
        <time>2019-04-14T09:56:33Z</time>
      </trkpt>
      <trkpt lat="44.42565" lon="1.3499">
        <ele>265</ele>
        <time>2019-04-14T09:56:34Z</time>
      </trkpt>
      <trkpt lat="44.42564" lon="1.34988">
        <ele>265</ele>
        <time>2019-04-14T09:56:35Z</time>
      </trkpt>
      <trkpt lat="44.42565" lon="1.34985">
        <ele>265</ele>
        <time>2019-04-14T09:56:36Z</time>
      </trkpt>
      <trkpt lat="44.42565" lon="1.34983">
        <ele>265</ele>
        <time>2019-04-14T09:56:37Z</time>
      </trkpt>
      <trkpt lat="44.42564" lon="1.3498">
        <ele>265</ele>
        <time>2019-04-14T09:56:38Z</time>
      </trkpt>
      <trkpt lat="44.42563" lon="1.34978">
        <ele>266</ele>
        <time>2019-04-14T09:56:39Z</time>
      </trkpt>
      <trkpt lat="44.42563" lon="1.34976">
        <ele>266</ele>
        <time>2019-04-14T09:56:40Z</time>
      </trkpt>
      <trkpt lat="44.42562" lon="1.34974">
        <ele>266</ele>
        <time>2019-04-14T09:56:41Z</time>
      </trkpt>
      <trkpt lat="44.42561" lon="1.34971">
        <ele>266</ele>
        <time>2019-04-14T09:56:42Z</time>
      </trkpt>
      <trkpt lat="44.4256" lon="1.34969">
        <ele>266</ele>
        <time>2019-04-14T09:56:43Z</time>
      </trkpt>
      <trkpt lat="44.4256" lon="1.34966">
        <ele>266</ele>
        <time>2019-04-14T09:56:44Z</time>
      </trkpt>
      <trkpt lat="44.4256" lon="1.34963">
        <ele>266</ele>
        <time>2019-04-14T09:56:45Z</time>
      </trkpt>
      <trkpt lat="44.4256" lon="1.3496">
        <ele>266</ele>
        <time>2019-04-14T09:56:46Z</time>
      </trkpt>
      <trkpt lat="44.42559" lon="1.34958">
        <ele>266</ele>
        <time>2019-04-14T09:56:47Z</time>
      </trkpt>
      <trkpt lat="44.42558" lon="1.34955">
        <ele>266</ele>
        <time>2019-04-14T09:56:48Z</time>
      </trkpt>
      <trkpt lat="44.42558" lon="1.34952">
        <ele>266</ele>
        <time>2019-04-14T09:56:49Z</time>
      </trkpt>
      <trkpt lat="44.42557" lon="1.34949">
        <ele>265</ele>
        <time>2019-04-14T09:56:50Z</time>
      </trkpt>
      <trkpt lat="44.42556" lon="1.34946">
        <ele>265</ele>
        <time>2019-04-14T09:56:51Z</time>
      </trkpt>
      <trkpt lat="44.42555" lon="1.34943">
        <ele>265</ele>
        <time>2019-04-14T09:56:52Z</time>
      </trkpt>
      <trkpt lat="44.42555" lon="1.3494">
        <ele>265</ele>
        <time>2019-04-14T09:56:53Z</time>
      </trkpt>
      <trkpt lat="44.42554" lon="1.34937">
        <ele>265</ele>
        <time>2019-04-14T09:56:54Z</time>
      </trkpt>
      <trkpt lat="44.42553" lon="1.34933">
        <ele>265</ele>
        <time>2019-04-14T09:56:55Z</time>
      </trkpt>
      <trkpt lat="44.42552" lon="1.34929">
        <ele>265</ele>
        <time>2019-04-14T09:56:56Z</time>
      </trkpt>
      <trkpt lat="44.42551" lon="1.34926">
        <ele>265</ele>
        <time>2019-04-14T09:56:57Z</time>
      </trkpt>
      <trkpt lat="44.4255" lon="1.34922">
        <ele>265</ele>
        <time>2019-04-14T09:56:58Z</time>
      </trkpt>
      <trkpt lat="44.42549" lon="1.34918">
        <ele>265</ele>
        <time>2019-04-14T09:56:59Z</time>
      </trkpt>
      <trkpt lat="44.42547" lon="1.34913">
        <ele>265</ele>
        <time>2019-04-14T09:57:00Z</time>
      </trkpt>
      <trkpt lat="44.42546" lon="1.34909">
        <ele>264</ele>
        <time>2019-04-14T09:57:01Z</time>
      </trkpt>
      <trkpt lat="44.42545" lon="1.34904">
        <ele>264</ele>
        <time>2019-04-14T09:57:02Z</time>
      </trkpt>
      <trkpt lat="44.42544" lon="1.349">
        <ele>264</ele>
        <time>2019-04-14T09:57:03Z</time>
      </trkpt>
      <trkpt lat="44.42542" lon="1.34896">
        <ele>264</ele>
        <time>2019-04-14T09:57:04Z</time>
      </trkpt>
      <trkpt lat="44.4254" lon="1.34893">
        <ele>264</ele>
        <time>2019-04-14T09:57:05Z</time>
      </trkpt>
      <trkpt lat="44.42539" lon="1.34891">
        <ele>264</ele>
        <time>2019-04-14T09:57:06Z</time>
      </trkpt>
      <trkpt lat="44.42537" lon="1.3489">
        <ele>264</ele>
        <time>2019-04-14T09:57:07Z</time>
      </trkpt>
      <trkpt lat="44.42535" lon="1.34888">
        <ele>264</ele>
        <time>2019-04-14T09:57:08Z</time>
      </trkpt>
      <trkpt lat="44.42533" lon="1.34887">
        <ele>265</ele>
        <time>2019-04-14T09:57:09Z</time>
      </trkpt>
      <trkpt lat="44.42531" lon="1.34887">
        <ele>265</ele>
        <time>2019-04-14T09:57:10Z</time>
      </trkpt>
      <trkpt lat="44.4253" lon="1.34887">
        <ele>265</ele>
        <time>2019-04-14T09:57:11Z</time>
      </trkpt>
      <trkpt lat="44.42528" lon="1.34888">
        <ele>265</ele>
        <time>2019-04-14T09:57:12Z</time>
      </trkpt>
      <trkpt lat="44.42526" lon="1.34889">
        <ele>265</ele>
        <time>2019-04-14T09:57:13Z</time>
      </trkpt>
      <trkpt lat="44.42524" lon="1.3489">
        <ele>266</ele>
        <time>2019-04-14T09:57:14Z</time>
      </trkpt>
      <trkpt lat="44.42522" lon="1.3489">
        <ele>266</ele>
        <time>2019-04-14T09:57:15Z</time>
      </trkpt>
      <trkpt lat="44.4252" lon="1.34891">
        <ele>266</ele>
        <time>2019-04-14T09:57:16Z</time>
      </trkpt>
      <trkpt lat="44.42518" lon="1.34891">
        <ele>266</ele>
        <time>2019-04-14T09:57:17Z</time>
      </trkpt>
      <trkpt lat="44.42516" lon="1.34892">
        <ele>267</ele>
        <time>2019-04-14T09:57:18Z</time>
      </trkpt>
      <trkpt lat="44.42514" lon="1.34892">
        <ele>267</ele>
        <time>2019-04-14T09:57:19Z</time>
      </trkpt>
      <trkpt lat="44.42513" lon="1.34892">
        <ele>267</ele>
        <time>2019-04-14T09:57:20Z</time>
      </trkpt>
      <trkpt lat="44.42511" lon="1.34893">
        <ele>268</ele>
        <time>2019-04-14T09:57:21Z</time>
      </trkpt>
      <trkpt lat="44.4251" lon="1.34893">
        <ele>268</ele>
        <time>2019-04-14T09:57:22Z</time>
      </trkpt>
      <trkpt lat="44.42508" lon="1.34894">
        <ele>268</ele>
        <time>2019-04-14T09:57:23Z</time>
      </trkpt>
      <trkpt lat="44.42506" lon="1.34894">
        <ele>268</ele>
        <time>2019-04-14T09:57:24Z</time>
      </trkpt>
      <trkpt lat="44.42504" lon="1.34895">
        <ele>268</ele>
        <time>2019-04-14T09:57:25Z</time>
      </trkpt>
      <trkpt lat="44.42502" lon="1.34895">
        <ele>269</ele>
        <time>2019-04-14T09:57:26Z</time>
      </trkpt>
      <trkpt lat="44.425" lon="1.34896">
        <ele>269</ele>
        <time>2019-04-14T09:57:27Z</time>
      </trkpt>
      <trkpt lat="44.42498" lon="1.34896">
        <ele>269</ele>
        <time>2019-04-14T09:57:28Z</time>
      </trkpt>
      <trkpt lat="44.42497" lon="1.34895">
        <ele>269</ele>
        <time>2019-04-14T09:57:29Z</time>
      </trkpt>
      <trkpt lat="44.42495" lon="1.34894">
        <ele>269</ele>
        <time>2019-04-14T09:57:30Z</time>
      </trkpt>
      <trkpt lat="44.42494" lon="1.34893">
        <ele>269</ele>
        <time>2019-04-14T09:57:31Z</time>
      </trkpt>
      <trkpt lat="44.42493" lon="1.34891">
        <ele>270</ele>
        <time>2019-04-14T09:57:32Z</time>
      </trkpt>
      <trkpt lat="44.42493" lon="1.34889">
        <ele>270</ele>
        <time>2019-04-14T09:57:33Z</time>
      </trkpt>
      <trkpt lat="44.42492" lon="1.34887">
        <ele>270</ele>
        <time>2019-04-14T09:57:34Z</time>
      </trkpt>
      <trkpt lat="44.42491" lon="1.34885">
        <ele>270</ele>
        <time>2019-04-14T09:57:35Z</time>
      </trkpt>
      <trkpt lat="44.42491" lon="1.34882">
        <ele>270</ele>
        <time>2019-04-14T09:57:36Z</time>
      </trkpt>
      <trkpt lat="44.4249" lon="1.3488">
        <ele>270</ele>
        <time>2019-04-14T09:57:37Z</time>
      </trkpt>
      <trkpt lat="44.42489" lon="1.34878">
        <ele>270</ele>
        <time>2019-04-14T09:57:38Z</time>
      </trkpt>
      <trkpt lat="44.42489" lon="1.34876">
        <ele>270</ele>
        <time>2019-04-14T09:57:39Z</time>
      </trkpt>
      <trkpt lat="44.42488" lon="1.34873">
        <ele>271</ele>
        <time>2019-04-14T09:57:40Z</time>
      </trkpt>
      <trkpt lat="44.42487" lon="1.34871">
        <ele>271</ele>
        <time>2019-04-14T09:57:41Z</time>
      </trkpt>
      <trkpt lat="44.42486" lon="1.34869">
        <ele>271</ele>
        <time>2019-04-14T09:57:42Z</time>
      </trkpt>
      <trkpt lat="44.42486" lon="1.34867">
        <ele>271</ele>
        <time>2019-04-14T09:57:43Z</time>
      </trkpt>
      <trkpt lat="44.42485" lon="1.34865">
        <ele>271</ele>
        <time>2019-04-14T09:57:44Z</time>
      </trkpt>
      <trkpt lat="44.42484" lon="1.34863">
        <ele>272</ele>
        <time>2019-04-14T09:57:45Z</time>
      </trkpt>
      <trkpt lat="44.42484" lon="1.34861">
        <ele>272</ele>
        <time>2019-04-14T09:57:46Z</time>
      </trkpt>
      <trkpt lat="44.42483" lon="1.34859">
        <ele>272</ele>
        <time>2019-04-14T09:57:47Z</time>
      </trkpt>
      <trkpt lat="44.42482" lon="1.34856">
        <ele>272</ele>
        <time>2019-04-14T09:57:48Z</time>
      </trkpt>
      <trkpt lat="44.42481" lon="1.34854">
        <ele>272</ele>
        <time>2019-04-14T09:57:49Z</time>
      </trkpt>
      <trkpt lat="44.4248" lon="1.34852">
        <ele>273</ele>
        <time>2019-04-14T09:57:50Z</time>
      </trkpt>
      <trkpt lat="44.42479" lon="1.3485">
        <ele>273</ele>
        <time>2019-04-14T09:57:51Z</time>
      </trkpt>
      <trkpt lat="44.42479" lon="1.34848">
        <ele>273</ele>
        <time>2019-04-14T09:57:52Z</time>
      </trkpt>
      <trkpt lat="44.42478" lon="1.34846">
        <ele>273</ele>
        <time>2019-04-14T09:57:53Z</time>
      </trkpt>
      <trkpt lat="44.42477" lon="1.34844">
        <ele>274</ele>
        <time>2019-04-14T09:57:54Z</time>
      </trkpt>
      <trkpt lat="44.42476" lon="1.34842">
        <ele>274</ele>
        <time>2019-04-14T09:57:55Z</time>
      </trkpt>
      <trkpt lat="44.42476" lon="1.3484">
        <ele>274</ele>
        <time>2019-04-14T09:57:56Z</time>
      </trkpt>
      <trkpt lat="44.42476" lon="1.34838">
        <ele>274</ele>
        <time>2019-04-14T09:57:57Z</time>
      </trkpt>
      <trkpt lat="44.42475" lon="1.34836">
        <ele>275</ele>
        <time>2019-04-14T09:57:58Z</time>
      </trkpt>
      <trkpt lat="44.42474" lon="1.34835">
        <ele>275</ele>
        <time>2019-04-14T09:57:59Z</time>
      </trkpt>
      <trkpt lat="44.42473" lon="1.34833">
        <ele>275</ele>
        <time>2019-04-14T09:58:00Z</time>
      </trkpt>
      <trkpt lat="44.42472" lon="1.34832">
        <ele>275</ele>
        <time>2019-04-14T09:58:01Z</time>
      </trkpt>
      <trkpt lat="44.42471" lon="1.3483">
        <ele>275</ele>
        <time>2019-04-14T09:58:02Z</time>
      </trkpt>
      <trkpt lat="44.4247" lon="1.34829">
        <ele>275</ele>
        <time>2019-04-14T09:58:03Z</time>
      </trkpt>
      <trkpt lat="44.42469" lon="1.34829">
        <ele>276</ele>
        <time>2019-04-14T09:58:04Z</time>
      </trkpt>
      <trkpt lat="44.42467" lon="1.34828">
        <ele>276</ele>
        <time>2019-04-14T09:58:05Z</time>
      </trkpt>
      <trkpt lat="44.42466" lon="1.34828">
        <ele>276</ele>
        <time>2019-04-14T09:58:06Z</time>
      </trkpt>
      <trkpt lat="44.42465" lon="1.34828">
        <ele>276</ele>
        <time>2019-04-14T09:58:07Z</time>
      </trkpt>
      <trkpt lat="44.42464" lon="1.34828">
        <ele>276</ele>
        <time>2019-04-14T09:58:08Z</time>
      </trkpt>
      <trkpt lat="44.42462" lon="1.34828">
        <ele>276</ele>
        <time>2019-04-14T09:58:09Z</time>
      </trkpt>
      <trkpt lat="44.42461" lon="1.34829">
        <ele>276</ele>
        <time>2019-04-14T09:58:10Z</time>
      </trkpt>
      <trkpt lat="44.42461" lon="1.3483">
        <ele>276</ele>
        <time>2019-04-14T09:58:11Z</time>
      </trkpt>
      <trkpt lat="44.4246" lon="1.34832">
        <ele>276</ele>
        <time>2019-04-14T09:58:12Z</time>
      </trkpt>
      <trkpt lat="44.42459" lon="1.34833">
        <ele>276</ele>
        <time>2019-04-14T09:58:13Z</time>
      </trkpt>
      <trkpt lat="44.42457" lon="1.34834">
        <ele>276</ele>
        <time>2019-04-14T09:58:14Z</time>
      </trkpt>
      <trkpt lat="44.42456" lon="1.34835">
        <ele>276</ele>
        <time>2019-04-14T09:58:15Z</time>
      </trkpt>
      <trkpt lat="44.42454" lon="1.34837">
        <ele>276</ele>
        <time>2019-04-14T09:58:16Z</time>
      </trkpt>
      <trkpt lat="44.42453" lon="1.34838">
        <ele>276</ele>
        <time>2019-04-14T09:58:17Z</time>
      </trkpt>
      <trkpt lat="44.42452" lon="1.3484">
        <ele>276</ele>
        <time>2019-04-14T09:58:18Z</time>
      </trkpt>
      <trkpt lat="44.42452" lon="1.34842">
        <ele>276</ele>
        <time>2019-04-14T09:58:19Z</time>
      </trkpt>
      <trkpt lat="44.42451" lon="1.34844">
        <ele>276</ele>
        <time>2019-04-14T09:58:20Z</time>
      </trkpt>
      <trkpt lat="44.4245" lon="1.34845">
        <ele>276</ele>
        <time>2019-04-14T09:58:21Z</time>
      </trkpt>
      <trkpt lat="44.42448" lon="1.34847">
        <ele>276</ele>
        <time>2019-04-14T09:58:22Z</time>
      </trkpt>
      <trkpt lat="44.42447" lon="1.34849">
        <ele>276</ele>
        <time>2019-04-14T09:58:23Z</time>
      </trkpt>
      <trkpt lat="44.42446" lon="1.3485">
        <ele>276</ele>
        <time>2019-04-14T09:58:24Z</time>
      </trkpt>
      <trkpt lat="44.42445" lon="1.34853">
        <ele>276</ele>
        <time>2019-04-14T09:58:25Z</time>
      </trkpt>
      <trkpt lat="44.42444" lon="1.34855">
        <ele>276</ele>
        <time>2019-04-14T09:58:26Z</time>
      </trkpt>
      <trkpt lat="44.42443" lon="1.34857">
        <ele>276</ele>
        <time>2019-04-14T09:58:27Z</time>
      </trkpt>
      <trkpt lat="44.42441" lon="1.34859">
        <ele>276</ele>
        <time>2019-04-14T09:58:28Z</time>
      </trkpt>
      <trkpt lat="44.42441" lon="1.34862">
        <ele>276</ele>
        <time>2019-04-14T09:58:29Z</time>
      </trkpt>
      <trkpt lat="44.42439" lon="1.34864">
        <ele>277</ele>
        <time>2019-04-14T09:58:30Z</time>
      </trkpt>
      <trkpt lat="44.42438" lon="1.34866">
        <ele>276</ele>
        <time>2019-04-14T09:58:31Z</time>
      </trkpt>
      <trkpt lat="44.42437" lon="1.34869">
        <ele>277</ele>
        <time>2019-04-14T09:58:32Z</time>
      </trkpt>
      <trkpt lat="44.42436" lon="1.34871">
        <ele>276</ele>
        <time>2019-04-14T09:58:33Z</time>
      </trkpt>
      <trkpt lat="44.42435" lon="1.34873">
        <ele>277</ele>
        <time>2019-04-14T09:58:34Z</time>
      </trkpt>
      <trkpt lat="44.42433" lon="1.34875">
        <ele>277</ele>
        <time>2019-04-14T09:58:35Z</time>
      </trkpt>
      <trkpt lat="44.42432" lon="1.34877">
        <ele>277</ele>
        <time>2019-04-14T09:58:36Z</time>
      </trkpt>
      <trkpt lat="44.4243" lon="1.3488">
        <ele>277</ele>
        <time>2019-04-14T09:58:37Z</time>
      </trkpt>
      <trkpt lat="44.42429" lon="1.34882">
        <ele>277</ele>
        <time>2019-04-14T09:58:38Z</time>
      </trkpt>
      <trkpt lat="44.42427" lon="1.34885">
        <ele>277</ele>
        <time>2019-04-14T09:58:39Z</time>
      </trkpt>
      <trkpt lat="44.42426" lon="1.34888">
        <ele>277</ele>
        <time>2019-04-14T09:58:40Z</time>
      </trkpt>
      <trkpt lat="44.42424" lon="1.34891">
        <ele>277</ele>
        <time>2019-04-14T09:58:41Z</time>
      </trkpt>
      <trkpt lat="44.42423" lon="1.34894">
        <ele>277</ele>
        <time>2019-04-14T09:58:42Z</time>
      </trkpt>
      <trkpt lat="44.42422" lon="1.34897">
        <ele>277</ele>
        <time>2019-04-14T09:58:43Z</time>
      </trkpt>
      <trkpt lat="44.4242" lon="1.349">
        <ele>277</ele>
        <time>2019-04-14T09:58:44Z</time>
      </trkpt>
      <trkpt lat="44.42418" lon="1.34903">
        <ele>276</ele>
        <time>2019-04-14T09:58:45Z</time>
      </trkpt>
      <trkpt lat="44.42416" lon="1.34906">
        <ele>276</ele>
        <time>2019-04-14T09:58:46Z</time>
      </trkpt>
      <trkpt lat="44.42414" lon="1.34908">
        <ele>276</ele>
        <time>2019-04-14T09:58:47Z</time>
      </trkpt>
      <trkpt lat="44.42412" lon="1.34909">
        <ele>276</ele>
        <time>2019-04-14T09:58:48Z</time>
      </trkpt>
      <trkpt lat="44.4241" lon="1.34909">
        <ele>276</ele>
        <time>2019-04-14T09:58:49Z</time>
      </trkpt>
      <trkpt lat="44.42408" lon="1.34908">
        <ele>276</ele>
        <time>2019-04-14T09:58:50Z</time>
      </trkpt>
      <trkpt lat="44.42406" lon="1.34907">
        <ele>277</ele>
        <time>2019-04-14T09:58:51Z</time>
      </trkpt>
      <trkpt lat="44.42405" lon="1.34905">
        <ele>276</ele>
        <time>2019-04-14T09:58:52Z</time>
      </trkpt>
      <trkpt lat="44.42403" lon="1.34903">
        <ele>277</ele>
        <time>2019-04-14T09:58:53Z</time>
      </trkpt>
      <trkpt lat="44.42402" lon="1.34901">
        <ele>277</ele>
        <time>2019-04-14T09:58:54Z</time>
      </trkpt>
      <trkpt lat="44.42401" lon="1.34899">
        <ele>277</ele>
        <time>2019-04-14T09:58:55Z</time>
      </trkpt>
      <trkpt lat="44.424" lon="1.34896">
        <ele>276</ele>
        <time>2019-04-14T09:58:56Z</time>
      </trkpt>
      <trkpt lat="44.42398" lon="1.34893">
        <ele>276</ele>
        <time>2019-04-14T09:58:57Z</time>
      </trkpt>
      <trkpt lat="44.42397" lon="1.34888">
        <ele>276</ele>
        <time>2019-04-14T09:58:58Z</time>
      </trkpt>
      <trkpt lat="44.42397" lon="1.34884">
        <ele>276</ele>
        <time>2019-04-14T09:58:59Z</time>
      </trkpt>
      <trkpt lat="44.42396" lon="1.34879">
        <ele>276</ele>
        <time>2019-04-14T09:59:00Z</time>
      </trkpt>
      <trkpt lat="44.42395" lon="1.34878">
        <ele>276</ele>
        <time>2019-04-14T09:59:01Z</time>
      </trkpt>
      <trkpt lat="44.42393" lon="1.34875">
        <ele>275</ele>
        <time>2019-04-14T09:59:02Z</time>
      </trkpt>
      <trkpt lat="44.42389" lon="1.34872">
        <ele>275</ele>
        <time>2019-04-14T09:59:03Z</time>
      </trkpt>
      <trkpt lat="44.42387" lon="1.34868">
        <ele>275</ele>
        <time>2019-04-14T09:59:04Z</time>
      </trkpt>
      <trkpt lat="44.42385" lon="1.34864">
        <ele>274</ele>
        <time>2019-04-14T09:59:05Z</time>
      </trkpt>
      <trkpt lat="44.42385" lon="1.3486">
        <ele>274</ele>
        <time>2019-04-14T09:59:06Z</time>
      </trkpt>
      <trkpt lat="44.42386" lon="1.34856">
        <ele>274</ele>
        <time>2019-04-14T09:59:07Z</time>
      </trkpt>
      <trkpt lat="44.42388" lon="1.34853">
        <ele>273</ele>
        <time>2019-04-14T09:59:08Z</time>
      </trkpt>
      <trkpt lat="44.4239" lon="1.3485">
        <ele>273</ele>
        <time>2019-04-14T09:59:09Z</time>
      </trkpt>
      <trkpt lat="44.42392" lon="1.34848">
        <ele>273</ele>
        <time>2019-04-14T09:59:10Z</time>
      </trkpt>
      <trkpt lat="44.42393" lon="1.34845">
        <ele>273</ele>
        <time>2019-04-14T09:59:11Z</time>
      </trkpt>
      <trkpt lat="44.42394" lon="1.34843">
        <ele>273</ele>
        <time>2019-04-14T09:59:12Z</time>
      </trkpt>
      <trkpt lat="44.42395" lon="1.34843">
        <ele>273</ele>
        <time>2019-04-14T09:59:13Z</time>
      </trkpt>
      <trkpt lat="44.42396" lon="1.34842">
        <ele>274</ele>
        <time>2019-04-14T09:59:14Z</time>
      </trkpt>
      <trkpt lat="44.42398" lon="1.3484">
        <ele>274</ele>
        <time>2019-04-14T09:59:15Z</time>
      </trkpt>
      <trkpt lat="44.42401" lon="1.34838">
        <ele>274</ele>
        <time>2019-04-14T09:59:16Z</time>
      </trkpt>
      <trkpt lat="44.42402" lon="1.34836">
        <ele>274</ele>
        <time>2019-04-14T09:59:17Z</time>
      </trkpt>
      <trkpt lat="44.42404" lon="1.34834">
        <ele>274</ele>
        <time>2019-04-14T09:59:18Z</time>
      </trkpt>
      <trkpt lat="44.42406" lon="1.34831">
        <ele>274</ele>
        <time>2019-04-14T09:59:19Z</time>
      </trkpt>
      <trkpt lat="44.42408" lon="1.3483">
        <ele>274</ele>
        <time>2019-04-14T09:59:20Z</time>
      </trkpt>
      <trkpt lat="44.4241" lon="1.34828">
        <ele>274</ele>
        <time>2019-04-14T09:59:21Z</time>
      </trkpt>
      <trkpt lat="44.42411" lon="1.34826">
        <ele>274</ele>
        <time>2019-04-14T09:59:22Z</time>
      </trkpt>
      <trkpt lat="44.42411" lon="1.34824">
        <ele>274</ele>
        <time>2019-04-14T09:59:23Z</time>
      </trkpt>
      <trkpt lat="44.4241" lon="1.34822">
        <ele>274</ele>
        <time>2019-04-14T09:59:24Z</time>
      </trkpt>
      <trkpt lat="44.42409" lon="1.34821">
        <ele>274</ele>
        <time>2019-04-14T09:59:25Z</time>
      </trkpt>
      <trkpt lat="44.42407" lon="1.34819">
        <ele>273</ele>
        <time>2019-04-14T09:59:26Z</time>
      </trkpt>
      <trkpt lat="44.42407" lon="1.34816">
        <ele>273</ele>
        <time>2019-04-14T09:59:27Z</time>
      </trkpt>
      <trkpt lat="44.42407" lon="1.34814">
        <ele>273</ele>
        <time>2019-04-14T09:59:28Z</time>
      </trkpt>
      <trkpt lat="44.42408" lon="1.34811">
        <ele>273</ele>
        <time>2019-04-14T09:59:29Z</time>
      </trkpt>
      <trkpt lat="44.42409" lon="1.34809">
        <ele>273</ele>
        <time>2019-04-14T09:59:30Z</time>
      </trkpt>
      <trkpt lat="44.42411" lon="1.34806">
        <ele>273</ele>
        <time>2019-04-14T09:59:31Z</time>
      </trkpt>
      <trkpt lat="44.42412" lon="1.34804">
        <ele>274</ele>
        <time>2019-04-14T09:59:32Z</time>
      </trkpt>
      <trkpt lat="44.42413" lon="1.34801">
        <ele>273</ele>
        <time>2019-04-14T09:59:33Z</time>
      </trkpt>
      <trkpt lat="44.42414" lon="1.34799">
        <ele>273</ele>
        <time>2019-04-14T09:59:34Z</time>
      </trkpt>
      <trkpt lat="44.42416" lon="1.34796">
        <ele>273</ele>
        <time>2019-04-14T09:59:35Z</time>
      </trkpt>
      <trkpt lat="44.42417" lon="1.34794">
        <ele>273</ele>
        <time>2019-04-14T09:59:36Z</time>
      </trkpt>
      <trkpt lat="44.42419" lon="1.34793">
        <ele>273</ele>
        <time>2019-04-14T09:59:37Z</time>
      </trkpt>
      <trkpt lat="44.4242" lon="1.34792">
        <ele>274</ele>
        <time>2019-04-14T09:59:38Z</time>
      </trkpt>
      <trkpt lat="44.42421" lon="1.3479">
        <ele>274</ele>
        <time>2019-04-14T09:59:39Z</time>
      </trkpt>
      <trkpt lat="44.42422" lon="1.34787">
        <ele>274</ele>
        <time>2019-04-14T09:59:40Z</time>
      </trkpt>
      <trkpt lat="44.42423" lon="1.34786">
        <ele>274</ele>
        <time>2019-04-14T09:59:41Z</time>
      </trkpt>
      <trkpt lat="44.42424" lon="1.34784">
        <ele>274</ele>
        <time>2019-04-14T09:59:42Z</time>
      </trkpt>
      <trkpt lat="44.42425" lon="1.34782">
        <ele>274</ele>
        <time>2019-04-14T09:59:43Z</time>
      </trkpt>
      <trkpt lat="44.42427" lon="1.34781">
        <ele>274</ele>
        <time>2019-04-14T09:59:44Z</time>
      </trkpt>
      <trkpt lat="44.42428" lon="1.3478">
        <ele>274</ele>
        <time>2019-04-14T09:59:45Z</time>
      </trkpt>
      <trkpt lat="44.42429" lon="1.34779">
        <ele>274</ele>
        <time>2019-04-14T09:59:46Z</time>
      </trkpt>
      <trkpt lat="44.4243" lon="1.34778">
        <ele>274</ele>
        <time>2019-04-14T09:59:47Z</time>
      </trkpt>
      <trkpt lat="44.4243" lon="1.34778">
        <ele>275</ele>
        <time>2019-04-14T09:59:48Z</time>
      </trkpt>
      <trkpt lat="44.4243" lon="1.34778">
        <ele>275</ele>
        <time>2019-04-14T09:59:49Z</time>
      </trkpt>
      <trkpt lat="44.42431" lon="1.34778">
        <ele>275</ele>
        <time>2019-04-14T09:59:50Z</time>
      </trkpt>
      <trkpt lat="44.42431" lon="1.34779">
        <ele>275</ele>
        <time>2019-04-14T09:59:51Z</time>
      </trkpt>
      <trkpt lat="44.42432" lon="1.34779">
        <ele>275</ele>
        <time>2019-04-14T09:59:52Z</time>
      </trkpt>
      <trkpt lat="44.42433" lon="1.3478">
        <ele>275</ele>
        <time>2019-04-14T09:59:53Z</time>
      </trkpt>
      <trkpt lat="44.42435" lon="1.34779">
        <ele>275</ele>
        <time>2019-04-14T09:59:54Z</time>
      </trkpt>
      <trkpt lat="44.42436" lon="1.34778">
        <ele>275</ele>
        <time>2019-04-14T09:59:55Z</time>
      </trkpt>
      <trkpt lat="44.4244" lon="1.3477">
        <ele>275</ele>
        <time>2019-04-14T10:00:00Z</time>
      </trkpt>
      <trkpt lat="44.4244" lon="1.34769">
        <ele>275</ele>
        <time>2019-04-14T10:00:01Z</time>
      </trkpt>
      <trkpt lat="44.4244" lon="1.34769">
        <ele>275</ele>
        <time>2019-04-14T10:00:02Z</time>
      </trkpt>
      <trkpt lat="44.4244" lon="1.34769">
        <ele>275</ele>
        <time>2019-04-14T10:00:03Z</time>
      </trkpt>
      <trkpt lat="44.42441" lon="1.34769">
        <ele>275</ele>
        <time>2019-04-14T10:00:04Z</time>
      </trkpt>
      <trkpt lat="44.42441" lon="1.34769">
        <ele>275</ele>
        <time>2019-04-14T10:00:05Z</time>
      </trkpt>
      <trkpt lat="44.42441" lon="1.34769">
        <ele>275</ele>
        <time>2019-04-14T10:00:06Z</time>
      </trkpt>
      <trkpt lat="44.42441" lon="1.34769">
        <ele>275</ele>
        <time>2019-04-14T10:00:07Z</time>
      </trkpt>
      <trkpt lat="44.42441" lon="1.34769">
        <ele>275</ele>
        <time>2019-04-14T10:00:08Z</time>
      </trkpt>
      <trkpt lat="44.4243" lon="1.34741">
        <ele>272</ele>
        <time>2019-04-14T10:01:17Z</time>
      </trkpt>
      <trkpt lat="44.42429" lon="1.34739">
        <ele>272</ele>
        <time>2019-04-14T10:01:18Z</time>
      </trkpt>
      <trkpt lat="44.42429" lon="1.34737">
        <ele>271</ele>
        <time>2019-04-14T10:01:19Z</time>
      </trkpt>
      <trkpt lat="44.42429" lon="1.34734">
        <ele>271</ele>
        <time>2019-04-14T10:01:20Z</time>
      </trkpt>
      <trkpt lat="44.42429" lon="1.34731">
        <ele>271</ele>
        <time>2019-04-14T10:01:21Z</time>
      </trkpt>
      <trkpt lat="44.4243" lon="1.34729">
        <ele>271</ele>
        <time>2019-04-14T10:01:22Z</time>
      </trkpt>
      <trkpt lat="44.42431" lon="1.34727">
        <ele>271</ele>
        <time>2019-04-14T10:01:23Z</time>
      </trkpt>
      <trkpt lat="44.42431" lon="1.34726">
        <ele>270</ele>
        <time>2019-04-14T10:01:24Z</time>
      </trkpt>
      <trkpt lat="44.42432" lon="1.34724">
        <ele>270</ele>
        <time>2019-04-14T10:01:25Z</time>
      </trkpt>
      <trkpt lat="44.42433" lon="1.34721">
        <ele>270</ele>
        <time>2019-04-14T10:01:26Z</time>
      </trkpt>
      <trkpt lat="44.42432" lon="1.34718">
        <ele>270</ele>
        <time>2019-04-14T10:01:27Z</time>
      </trkpt>
      <trkpt lat="44.42432" lon="1.34716">
        <ele>269</ele>
        <time>2019-04-14T10:01:28Z</time>
      </trkpt>
      <trkpt lat="44.42432" lon="1.34713">
        <ele>269</ele>
        <time>2019-04-14T10:01:29Z</time>
      </trkpt>
      <trkpt lat="44.42433" lon="1.3471">
        <ele>269</ele>
        <time>2019-04-14T10:01:30Z</time>
      </trkpt>
      <trkpt lat="44.42434" lon="1.34709">
        <ele>269</ele>
        <time>2019-04-14T10:01:31Z</time>
      </trkpt>
      <trkpt lat="44.42435" lon="1.34707">
        <ele>269</ele>
        <time>2019-04-14T10:01:32Z</time>
      </trkpt>
      <trkpt lat="44.42437" lon="1.34706">
        <ele>269</ele>
        <time>2019-04-14T10:01:33Z</time>
      </trkpt>
      <trkpt lat="44.42438" lon="1.34704">
        <ele>269</ele>
        <time>2019-04-14T10:01:34Z</time>
      </trkpt>
      <trkpt lat="44.4244" lon="1.34702">
        <ele>269</ele>
        <time>2019-04-14T10:01:35Z</time>
      </trkpt>
      <trkpt lat="44.42441" lon="1.347">
        <ele>269</ele>
        <time>2019-04-14T10:01:36Z</time>
      </trkpt>
      <trkpt lat="44.42443" lon="1.34699">
        <ele>269</ele>
        <time>2019-04-14T10:01:37Z</time>
      </trkpt>
      <trkpt lat="44.42445" lon="1.34698">
        <ele>269</ele>
        <time>2019-04-14T10:01:38Z</time>
      </trkpt>
      <trkpt lat="44.42448" lon="1.34697">
        <ele>270</ele>
        <time>2019-04-14T10:01:39Z</time>
      </trkpt>
      <trkpt lat="44.42449" lon="1.34696">
        <ele>270</ele>
        <time>2019-04-14T10:01:40Z</time>
      </trkpt>
      <trkpt lat="44.42451" lon="1.34695">
        <ele>270</ele>
        <time>2019-04-14T10:01:41Z</time>
      </trkpt>
      <trkpt lat="44.42453" lon="1.34693">
        <ele>270</ele>
        <time>2019-04-14T10:01:42Z</time>
      </trkpt>
      <trkpt lat="44.42454" lon="1.34691">
        <ele>270</ele>
        <time>2019-04-14T10:01:43Z</time>
      </trkpt>
      <trkpt lat="44.42456" lon="1.34689">
        <ele>270</ele>
        <time>2019-04-14T10:01:44Z</time>
      </trkpt>
      <trkpt lat="44.42457" lon="1.34688">
        <ele>270</ele>
        <time>2019-04-14T10:01:45Z</time>
      </trkpt>
      <trkpt lat="44.42459" lon="1.34687">
        <ele>270</ele>
        <time>2019-04-14T10:01:46Z</time>
      </trkpt>
      <trkpt lat="44.4246" lon="1.34687">
        <ele>270</ele>
        <time>2019-04-14T10:01:47Z</time>
      </trkpt>
      <trkpt lat="44.42461" lon="1.34686">
        <ele>271</ele>
        <time>2019-04-14T10:01:48Z</time>
      </trkpt>
      <trkpt lat="44.42463" lon="1.34685">
        <ele>271</ele>
        <time>2019-04-14T10:01:49Z</time>
      </trkpt>
      <trkpt lat="44.42465" lon="1.34684">
        <ele>271</ele>
        <time>2019-04-14T10:01:50Z</time>
      </trkpt>
      <trkpt lat="44.42466" lon="1.34682">
        <ele>271</ele>
        <time>2019-04-14T10:01:51Z</time>
      </trkpt>
      <trkpt lat="44.42467" lon="1.3468">
        <ele>271</ele>
        <time>2019-04-14T10:01:52Z</time>
      </trkpt>
      <trkpt lat="44.42469" lon="1.34678">
        <ele>271</ele>
        <time>2019-04-14T10:01:53Z</time>
      </trkpt>
      <trkpt lat="44.4247" lon="1.34677">
        <ele>271</ele>
        <time>2019-04-14T10:01:54Z</time>
      </trkpt>
      <trkpt lat="44.42471" lon="1.34674">
        <ele>271</ele>
        <time>2019-04-14T10:01:55Z</time>
      </trkpt>
      <trkpt lat="44.42471" lon="1.34671">
        <ele>271</ele>
        <time>2019-04-14T10:01:56Z</time>
      </trkpt>
      <trkpt lat="44.42472" lon="1.34669">
        <ele>270</ele>
        <time>2019-04-14T10:01:57Z</time>
      </trkpt>
      <trkpt lat="44.42471" lon="1.34668">
        <ele>270</ele>
        <time>2019-04-14T10:01:58Z</time>
      </trkpt>
      <trkpt lat="44.42471" lon="1.34667">
        <ele>270</ele>
        <time>2019-04-14T10:01:59Z</time>
      </trkpt>
      <trkpt lat="44.42472" lon="1.34667">
        <ele>270</ele>
        <time>2019-04-14T10:02:00Z</time>
      </trkpt>
      <trkpt lat="44.42472" lon="1.34666">
        <ele>270</ele>
        <time>2019-04-14T10:02:01Z</time>
      </trkpt>
      <trkpt lat="44.42472" lon="1.34666">
        <ele>270</ele>
        <time>2019-04-14T10:02:02Z</time>
      </trkpt>
      <trkpt lat="44.42472" lon="1.34666">
        <ele>270</ele>
        <time>2019-04-14T10:02:03Z</time>
      </trkpt>
      <trkpt lat="44.42472" lon="1.34666">
        <ele>270</ele>
        <time>2019-04-14T10:02:04Z</time>
      </trkpt>
      <trkpt lat="44.42472" lon="1.34666">
        <ele>270</ele>
        <time>2019-04-14T10:02:05Z</time>
      </trkpt>
      <trkpt lat="44.4248" lon="1.34642">
        <ele>268</ele>
        <time>2019-04-14T10:02:33Z</time>
      </trkpt>
      <trkpt lat="44.42481" lon="1.34638">
        <ele>268</ele>
        <time>2019-04-14T10:02:34Z</time>
      </trkpt>
      <trkpt lat="44.42483" lon="1.34635">
        <ele>268</ele>
        <time>2019-04-14T10:02:35Z</time>
      </trkpt>
      <trkpt lat="44.42486" lon="1.3463">
        <ele>267</ele>
        <time>2019-04-14T10:02:36Z</time>
      </trkpt>
      <trkpt lat="44.42487" lon="1.34626">
        <ele>267</ele>
        <time>2019-04-14T10:02:37Z</time>
      </trkpt>
      <trkpt lat="44.42489" lon="1.34621">
        <ele>266</ele>
        <time>2019-04-14T10:02:38Z</time>
      </trkpt>
      <trkpt lat="44.4249" lon="1.34616">
        <ele>266</ele>
        <time>2019-04-14T10:02:39Z</time>
      </trkpt>
      <trkpt lat="44.42492" lon="1.34612">
        <ele>266</ele>
        <time>2019-04-14T10:02:40Z</time>
      </trkpt>
      <trkpt lat="44.42492" lon="1.34608">
        <ele>265</ele>
        <time>2019-04-14T10:02:41Z</time>
      </trkpt>
      <trkpt lat="44.42492" lon="1.34606">
        <ele>264</ele>
        <time>2019-04-14T10:02:42Z</time>
      </trkpt>
      <trkpt lat="44.42493" lon="1.34604">
        <ele>264</ele>
        <time>2019-04-14T10:02:43Z</time>
      </trkpt>
      <trkpt lat="44.42494" lon="1.34602">
        <ele>264</ele>
        <time>2019-04-14T10:02:44Z</time>
      </trkpt>
      <trkpt lat="44.42494" lon="1.346">
        <ele>264</ele>
        <time>2019-04-14T10:02:45Z</time>
      </trkpt>
      <trkpt lat="44.42493" lon="1.34598">
        <ele>263</ele>
        <time>2019-04-14T10:02:46Z</time>
      </trkpt>
      <trkpt lat="44.42492" lon="1.34596">
        <ele>263</ele>
        <time>2019-04-14T10:02:47Z</time>
      </trkpt>
      <trkpt lat="44.42492" lon="1.34593">
        <ele>262</ele>
        <time>2019-04-14T10:02:48Z</time>
      </trkpt>
      <trkpt lat="44.42491" lon="1.3459">
        <ele>262</ele>
        <time>2019-04-14T10:02:49Z</time>
      </trkpt>
      <trkpt lat="44.42492" lon="1.34587">
        <ele>262</ele>
        <time>2019-04-14T10:02:50Z</time>
      </trkpt>
      <trkpt lat="44.42493" lon="1.34584">
        <ele>261</ele>
        <time>2019-04-14T10:02:51Z</time>
      </trkpt>
      <trkpt lat="44.42496" lon="1.34581">
        <ele>261</ele>
        <time>2019-04-14T10:02:52Z</time>
      </trkpt>
      <trkpt lat="44.42498" lon="1.34579">
        <ele>261</ele>
        <time>2019-04-14T10:02:53Z</time>
      </trkpt>
      <trkpt lat="44.425" lon="1.34577">
        <ele>260</ele>
        <time>2019-04-14T10:02:54Z</time>
      </trkpt>
      <trkpt lat="44.42501" lon="1.34574">
        <ele>260</ele>
        <time>2019-04-14T10:02:55Z</time>
      </trkpt>
      <trkpt lat="44.42501" lon="1.34571">
        <ele>260</ele>
        <time>2019-04-14T10:02:56Z</time>
      </trkpt>
      <trkpt lat="44.425" lon="1.34568">
        <ele>259</ele>
        <time>2019-04-14T10:02:57Z</time>
      </trkpt>
      <trkpt lat="44.425" lon="1.34565">
        <ele>258</ele>
        <time>2019-04-14T10:02:58Z</time>
      </trkpt>
      <trkpt lat="44.42501" lon="1.34563">
        <ele>258</ele>
        <time>2019-04-14T10:02:59Z</time>
      </trkpt>
      <trkpt lat="44.42502" lon="1.34561">
        <ele>258</ele>
        <time>2019-04-14T10:03:00Z</time>
      </trkpt>
      <trkpt lat="44.42504" lon="1.34558">
        <ele>258</ele>
        <time>2019-04-14T10:03:01Z</time>
      </trkpt>
      <trkpt lat="44.42505" lon="1.34554">
        <ele>257</ele>
        <time>2019-04-14T10:03:02Z</time>
      </trkpt>
      <trkpt lat="44.42506" lon="1.34549">
        <ele>257</ele>
        <time>2019-04-14T10:03:03Z</time>
      </trkpt>
      <trkpt lat="44.42509" lon="1.34546">
        <ele>256</ele>
        <time>2019-04-14T10:03:04Z</time>
      </trkpt>
      <trkpt lat="44.42511" lon="1.34543">
        <ele>255</ele>
        <time>2019-04-14T10:03:05Z</time>
      </trkpt>
      <trkpt lat="44.42515" lon="1.34539">
        <ele>255</ele>
        <time>2019-04-14T10:03:06Z</time>
      </trkpt>
      <trkpt lat="44.42518" lon="1.34536">
        <ele>254</ele>
        <time>2019-04-14T10:03:07Z</time>
      </trkpt>
      <trkpt lat="44.4252" lon="1.34534">
        <ele>254</ele>
        <time>2019-04-14T10:03:08Z</time>
      </trkpt>
      <trkpt lat="44.42521" lon="1.34533">
        <ele>254</ele>
        <time>2019-04-14T10:03:09Z</time>
      </trkpt>
      <trkpt lat="44.42522" lon="1.34532">
        <ele>254</ele>
        <time>2019-04-14T10:03:10Z</time>
      </trkpt>
      <trkpt lat="44.42523" lon="1.34532">
        <ele>254</ele>
        <time>2019-04-14T10:03:11Z</time>
      </trkpt>
      <trkpt lat="44.42524" lon="1.34532">
        <ele>254</ele>
        <time>2019-04-14T10:03:12Z</time>
      </trkpt>
      <trkpt lat="44.42525" lon="1.34532">
        <ele>255</ele>
        <time>2019-04-14T10:03:13Z</time>
      </trkpt>
      <trkpt lat="44.42526" lon="1.34531">
        <ele>255</ele>
        <time>2019-04-14T10:03:14Z</time>
      </trkpt>
      <trkpt lat="44.42528" lon="1.3453">
        <ele>255</ele>
        <time>2019-04-14T10:03:15Z</time>
      </trkpt>
      <trkpt lat="44.4253" lon="1.3453">
        <ele>255</ele>
        <time>2019-04-14T10:03:16Z</time>
      </trkpt>
      <trkpt lat="44.42532" lon="1.3453">
        <ele>255</ele>
        <time>2019-04-14T10:03:17Z</time>
      </trkpt>
      <trkpt lat="44.42534" lon="1.34531">
        <ele>255</ele>
        <time>2019-04-14T10:03:18Z</time>
      </trkpt>
      <trkpt lat="44.42536" lon="1.34532">
        <ele>255</ele>
        <time>2019-04-14T10:03:19Z</time>
      </trkpt>
      <trkpt lat="44.42538" lon="1.34533">
        <ele>255</ele>
        <time>2019-04-14T10:03:20Z</time>
      </trkpt>
      <trkpt lat="44.42541" lon="1.34532">
        <ele>255</ele>
        <time>2019-04-14T10:03:21Z</time>
      </trkpt>
      <trkpt lat="44.42544" lon="1.34532">
        <ele>255</ele>
        <time>2019-04-14T10:03:22Z</time>
      </trkpt>
      <trkpt lat="44.42547" lon="1.34532">
        <ele>255</ele>
        <time>2019-04-14T10:03:23Z</time>
      </trkpt>
      <trkpt lat="44.42549" lon="1.34532">
        <ele>255</ele>
        <time>2019-04-14T10:03:24Z</time>
      </trkpt>
      <trkpt lat="44.42552" lon="1.34533">
        <ele>255</ele>
        <time>2019-04-14T10:03:25Z</time>
      </trkpt>
      <trkpt lat="44.42554" lon="1.34535">
        <ele>255</ele>
        <time>2019-04-14T10:03:26Z</time>
      </trkpt>
      <trkpt lat="44.42556" lon="1.34537">
        <ele>255</ele>
        <time>2019-04-14T10:03:27Z</time>
      </trkpt>
      <trkpt lat="44.42559" lon="1.34537">
        <ele>255</ele>
        <time>2019-04-14T10:03:28Z</time>
      </trkpt>
      <trkpt lat="44.42561" lon="1.34539">
        <ele>255</ele>
        <time>2019-04-14T10:03:29Z</time>
      </trkpt>
      <trkpt lat="44.42564" lon="1.34541">
        <ele>256</ele>
        <time>2019-04-14T10:03:30Z</time>
      </trkpt>
      <trkpt lat="44.42566" lon="1.34543">
        <ele>256</ele>
        <time>2019-04-14T10:03:31Z</time>
      </trkpt>
      <trkpt lat="44.42567" lon="1.34545">
        <ele>256</ele>
        <time>2019-04-14T10:03:32Z</time>
      </trkpt>
      <trkpt lat="44.42568" lon="1.34546">
        <ele>256</ele>
        <time>2019-04-14T10:03:33Z</time>
      </trkpt>
      <trkpt lat="44.42568" lon="1.34545">
        <ele>256</ele>
        <time>2019-04-14T10:03:34Z</time>
      </trkpt>
      <trkpt lat="44.42568" lon="1.34545">
        <ele>256</ele>
        <time>2019-04-14T10:03:35Z</time>
      </trkpt>
      <trkpt lat="44.42568" lon="1.34545">
        <ele>256</ele>
        <time>2019-04-14T10:03:36Z</time>
      </trkpt>
      <trkpt lat="44.42568" lon="1.34545">
        <ele>256</ele>
        <time>2019-04-14T10:03:37Z</time>
      </trkpt>
      <trkpt lat="44.42569" lon="1.34545">
        <ele>256</ele>
        <time>2019-04-14T10:03:38Z</time>
      </trkpt>
      <trkpt lat="44.4257" lon="1.34545">
        <ele>256</ele>
        <time>2019-04-14T10:03:39Z</time>
      </trkpt>
      <trkpt lat="44.4257" lon="1.34545">
        <ele>256</ele>
        <time>2019-04-14T10:03:40Z</time>
      </trkpt>
      <trkpt lat="44.42593" lon="1.34539">
        <ele>251</ele>
        <time>2019-04-14T10:06:06Z</time>
      </trkpt>
      <trkpt lat="44.42594" lon="1.34539">
        <ele>251</ele>
        <time>2019-04-14T10:06:07Z</time>
      </trkpt>
      <trkpt lat="44.42594" lon="1.34538">
        <ele>251</ele>
        <time>2019-04-14T10:06:08Z</time>
      </trkpt>
      <trkpt lat="44.42595" lon="1.34537">
        <ele>251</ele>
        <time>2019-04-14T10:06:09Z</time>
      </trkpt>
      <trkpt lat="44.42596" lon="1.34537">
        <ele>251</ele>
        <time>2019-04-14T10:06:10Z</time>
      </trkpt>
      <trkpt lat="44.42597" lon="1.34536">
        <ele>251</ele>
        <time>2019-04-14T10:06:11Z</time>
      </trkpt>
      <trkpt lat="44.42598" lon="1.34535">
        <ele>251</ele>
        <time>2019-04-14T10:06:12Z</time>
      </trkpt>
      <trkpt lat="44.426" lon="1.34533">
        <ele>250</ele>
        <time>2019-04-14T10:06:13Z</time>
      </trkpt>
      <trkpt lat="44.42602" lon="1.34533">
        <ele>250</ele>
        <time>2019-04-14T10:06:14Z</time>
      </trkpt>
      <trkpt lat="44.42604" lon="1.34535">
        <ele>249</ele>
        <time>2019-04-14T10:06:15Z</time>
      </trkpt>
      <trkpt lat="44.42606" lon="1.34536">
        <ele>249</ele>
        <time>2019-04-14T10:06:16Z</time>
      </trkpt>
      <trkpt lat="44.42607" lon="1.34539">
        <ele>249</ele>
        <time>2019-04-14T10:06:17Z</time>
      </trkpt>
      <trkpt lat="44.42608" lon="1.34542">
        <ele>249</ele>
        <time>2019-04-14T10:06:18Z</time>
      </trkpt>
      <trkpt lat="44.42609" lon="1.34546">
        <ele>250</ele>
        <time>2019-04-14T10:06:19Z</time>
      </trkpt>
      <trkpt lat="44.4261" lon="1.3455">
        <ele>250</ele>
        <time>2019-04-14T10:06:20Z</time>
      </trkpt>
      <trkpt lat="44.4261" lon="1.34552">
        <ele>250</ele>
        <time>2019-04-14T10:06:21Z</time>
      </trkpt>
      <trkpt lat="44.4261" lon="1.34555">
        <ele>251</ele>
        <time>2019-04-14T10:06:22Z</time>
      </trkpt>
      <trkpt lat="44.42611" lon="1.34556">
        <ele>251</ele>
        <time>2019-04-14T10:06:23Z</time>
      </trkpt>
      <trkpt lat="44.42611" lon="1.34557">
        <ele>251</ele>
        <time>2019-04-14T10:06:24Z</time>
      </trkpt>
      <trkpt lat="44.42611" lon="1.34557">
        <ele>251</ele>
        <time>2019-04-14T10:06:25Z</time>
      </trkpt>
      <trkpt lat="44.42611" lon="1.34557">
        <ele>251</ele>
        <time>2019-04-14T10:06:26Z</time>
      </trkpt>
      <trkpt lat="44.42611" lon="1.34557">
        <ele>251</ele>
        <time>2019-04-14T10:06:27Z</time>
      </trkpt>
      <trkpt lat="44.42611" lon="1.34558">
        <ele>251</ele>
        <time>2019-04-14T10:06:28Z</time>
      </trkpt>
      <trkpt lat="44.42611" lon="1.34558">
        <ele>251</ele>
        <time>2019-04-14T10:06:29Z</time>
      </trkpt>
      <trkpt lat="44.42612" lon="1.34557">
        <ele>251</ele>
        <time>2019-04-14T10:06:30Z</time>
      </trkpt>
      <trkpt lat="44.42612" lon="1.34557">
        <ele>251</ele>
        <time>2019-04-14T10:06:31Z</time>
      </trkpt>
      <trkpt lat="44.42643" lon="1.34549">
        <ele>244</ele>
        <time>2019-04-14T10:08:12Z</time>
      </trkpt>
      <trkpt lat="44.42645" lon="1.34549">
        <ele>243</ele>
        <time>2019-04-14T10:08:13Z</time>
      </trkpt>
      <trkpt lat="44.42647" lon="1.34549">
        <ele>242</ele>
        <time>2019-04-14T10:08:14Z</time>
      </trkpt>
      <trkpt lat="44.42649" lon="1.34548">
        <ele>242</ele>
        <time>2019-04-14T10:08:15Z</time>
      </trkpt>
      <trkpt lat="44.4265" lon="1.34549">
        <ele>241</ele>
        <time>2019-04-14T10:08:16Z</time>
      </trkpt>
      <trkpt lat="44.42652" lon="1.34551">
        <ele>241</ele>
        <time>2019-04-14T10:08:17Z</time>
      </trkpt>
      <trkpt lat="44.42655" lon="1.34552">
        <ele>241</ele>
        <time>2019-04-14T10:08:18Z</time>
      </trkpt>
      <trkpt lat="44.42657" lon="1.34555">
        <ele>241</ele>
        <time>2019-04-14T10:08:19Z</time>
      </trkpt>
      <trkpt lat="44.42659" lon="1.34559">
        <ele>240</ele>
        <time>2019-04-14T10:08:20Z</time>
      </trkpt>
      <trkpt lat="44.42662" lon="1.34563">
        <ele>240</ele>
        <time>2019-04-14T10:08:21Z</time>
      </trkpt>
      <trkpt lat="44.42663" lon="1.34567">
        <ele>240</ele>
        <time>2019-04-14T10:08:22Z</time>
      </trkpt>
      <trkpt lat="44.42664" lon="1.34571">
        <ele>240</ele>
        <time>2019-04-14T10:08:23Z</time>
      </trkpt>
      <trkpt lat="44.42663" lon="1.34574">
        <ele>240</ele>
        <time>2019-04-14T10:08:24Z</time>
      </trkpt>
      <trkpt lat="44.42664" lon="1.34576">
        <ele>241</ele>
        <time>2019-04-14T10:08:25Z</time>
      </trkpt>
      <trkpt lat="44.42665" lon="1.34578">
        <ele>241</ele>
        <time>2019-04-14T10:08:26Z</time>
      </trkpt>
      <trkpt lat="44.42666" lon="1.34581">
        <ele>241</ele>
        <time>2019-04-14T10:08:27Z</time>
      </trkpt>
      <trkpt lat="44.42667" lon="1.34583">
        <ele>241</ele>
        <time>2019-04-14T10:08:28Z</time>
      </trkpt>
      <trkpt lat="44.42668" lon="1.34586">
        <ele>241</ele>
        <time>2019-04-14T10:08:29Z</time>
      </trkpt>
      <trkpt lat="44.4267" lon="1.34588">
        <ele>241</ele>
        <time>2019-04-14T10:08:30Z</time>
      </trkpt>
      <trkpt lat="44.42672" lon="1.34591">
        <ele>241</ele>
        <time>2019-04-14T10:08:31Z</time>
      </trkpt>
      <trkpt lat="44.42674" lon="1.34593">
        <ele>241</ele>
        <time>2019-04-14T10:08:32Z</time>
      </trkpt>
      <trkpt lat="44.42676" lon="1.34596">
        <ele>241</ele>
        <time>2019-04-14T10:08:33Z</time>
      </trkpt>
      <trkpt lat="44.42678" lon="1.34599">
        <ele>241</ele>
        <time>2019-04-14T10:08:34Z</time>
      </trkpt>
      <trkpt lat="44.4268" lon="1.34602">
        <ele>241</ele>
        <time>2019-04-14T10:08:35Z</time>
      </trkpt>
      <trkpt lat="44.42683" lon="1.34605">
        <ele>241</ele>
        <time>2019-04-14T10:08:36Z</time>
      </trkpt>
      <trkpt lat="44.42686" lon="1.34608">
        <ele>241</ele>
        <time>2019-04-14T10:08:37Z</time>
      </trkpt>
      <trkpt lat="44.42689" lon="1.34611">
        <ele>241</ele>
        <time>2019-04-14T10:08:38Z</time>
      </trkpt>
      <trkpt lat="44.42693" lon="1.34615">
        <ele>240</ele>
        <time>2019-04-14T10:08:39Z</time>
      </trkpt>
      <trkpt lat="44.42696" lon="1.34618">
        <ele>240</ele>
        <time>2019-04-14T10:08:40Z</time>
      </trkpt>
      <trkpt lat="44.42699" lon="1.34621">
        <ele>241</ele>
        <time>2019-04-14T10:08:41Z</time>
      </trkpt>
      <trkpt lat="44.42701" lon="1.34624">
        <ele>241</ele>
        <time>2019-04-14T10:08:42Z</time>
      </trkpt>
      <trkpt lat="44.42703" lon="1.34627">
        <ele>241</ele>
        <time>2019-04-14T10:08:43Z</time>
      </trkpt>
      <trkpt lat="44.42705" lon="1.3463">
        <ele>241</ele>
        <time>2019-04-14T10:08:44Z</time>
      </trkpt>
      <trkpt lat="44.42707" lon="1.34633">
        <ele>241</ele>
        <time>2019-04-14T10:08:45Z</time>
      </trkpt>
      <trkpt lat="44.4271" lon="1.34636">
        <ele>241</ele>
        <time>2019-04-14T10:08:46Z</time>
      </trkpt>
      <trkpt lat="44.42713" lon="1.3464">
        <ele>240</ele>
        <time>2019-04-14T10:08:47Z</time>
      </trkpt>
      <trkpt lat="44.42716" lon="1.34643">
        <ele>240</ele>
        <time>2019-04-14T10:08:48Z</time>
      </trkpt>
      <trkpt lat="44.42719" lon="1.34647">
        <ele>240</ele>
        <time>2019-04-14T10:08:49Z</time>
      </trkpt>
      <trkpt lat="44.4272" lon="1.3465">
        <ele>240</ele>
        <time>2019-04-14T10:08:50Z</time>
      </trkpt>
      <trkpt lat="44.42722" lon="1.34651">
        <ele>240</ele>
        <time>2019-04-14T10:08:51Z</time>
      </trkpt>
      <trkpt lat="44.42725" lon="1.34652">
        <ele>240</ele>
        <time>2019-04-14T10:08:52Z</time>
      </trkpt>
      <trkpt lat="44.42728" lon="1.34654">
        <ele>240</ele>
        <time>2019-04-14T10:08:53Z</time>
      </trkpt>
      <trkpt lat="44.42731" lon="1.34654">
        <ele>239</ele>
        <time>2019-04-14T10:08:54Z</time>
      </trkpt>
      <trkpt lat="44.42735" lon="1.34655">
        <ele>239</ele>
        <time>2019-04-14T10:08:55Z</time>
      </trkpt>
      <trkpt lat="44.42739" lon="1.34657">
        <ele>238</ele>
        <time>2019-04-14T10:08:56Z</time>
      </trkpt>
      <trkpt lat="44.42742" lon="1.34659">
        <ele>238</ele>
        <time>2019-04-14T10:08:57Z</time>
      </trkpt>
      <trkpt lat="44.42744" lon="1.34662">
        <ele>237</ele>
        <time>2019-04-14T10:08:58Z</time>
      </trkpt>
      <trkpt lat="44.42744" lon="1.34665">
        <ele>237</ele>
        <time>2019-04-14T10:08:59Z</time>
      </trkpt>
      <trkpt lat="44.42744" lon="1.34667">
        <ele>237</ele>
        <time>2019-04-14T10:09:00Z</time>
      </trkpt>
      <trkpt lat="44.42745" lon="1.34669">
        <ele>238</ele>
        <time>2019-04-14T10:09:01Z</time>
      </trkpt>
      <trkpt lat="44.42745" lon="1.34671">
        <ele>238</ele>
        <time>2019-04-14T10:09:02Z</time>
      </trkpt>
      <trkpt lat="44.42745" lon="1.34672">
        <ele>238</ele>
        <time>2019-04-14T10:09:03Z</time>
      </trkpt>
      <trkpt lat="44.42746" lon="1.34673">
        <ele>238</ele>
        <time>2019-04-14T10:09:04Z</time>
      </trkpt>
      <trkpt lat="44.42746" lon="1.34673">
        <ele>238</ele>
        <time>2019-04-14T10:09:05Z</time>
      </trkpt>
      <trkpt lat="44.42746" lon="1.34673">
        <ele>238</ele>
        <time>2019-04-14T10:09:06Z</time>
      </trkpt>
      <trkpt lat="44.42746" lon="1.34673">
        <ele>238</ele>
        <time>2019-04-14T10:09:07Z</time>
      </trkpt>
      <trkpt lat="44.42746" lon="1.34673">
        <ele>238</ele>
        <time>2019-04-14T10:09:08Z</time>
      </trkpt>
      <trkpt lat="44.42746" lon="1.34673">
        <ele>238</ele>
        <time>2019-04-14T10:09:09Z</time>
      </trkpt>
      <trkpt lat="44.42746" lon="1.34673">
        <ele>237</ele>
        <time>2019-04-14T10:09:10Z</time>
      </trkpt>
      <trkpt lat="44.42761" lon="1.34701">
        <ele>235</ele>
        <time>2019-04-14T10:10:11Z</time>
      </trkpt>
      <trkpt lat="44.42759" lon="1.34703">
        <ele>236</ele>
        <time>2019-04-14T10:10:12Z</time>
      </trkpt>
      <trkpt lat="44.42759" lon="1.34705">
        <ele>236</ele>
        <time>2019-04-14T10:10:13Z</time>
      </trkpt>
      <trkpt lat="44.42759" lon="1.34707">
        <ele>236</ele>
        <time>2019-04-14T10:10:14Z</time>
      </trkpt>
      <trkpt lat="44.42758" lon="1.3471">
        <ele>236</ele>
        <time>2019-04-14T10:10:15Z</time>
      </trkpt>
      <trkpt lat="44.42757" lon="1.34713">
        <ele>236</ele>
        <time>2019-04-14T10:10:16Z</time>
      </trkpt>
      <trkpt lat="44.42755" lon="1.34714">
        <ele>236</ele>
        <time>2019-04-14T10:10:17Z</time>
      </trkpt>
      <trkpt lat="44.42754" lon="1.34715">
        <ele>236</ele>
        <time>2019-04-14T10:10:18Z</time>
      </trkpt>
      <trkpt lat="44.42753" lon="1.34715">
        <ele>236</ele>
        <time>2019-04-14T10:10:19Z</time>
      </trkpt>
      <trkpt lat="44.42751" lon="1.34715">
        <ele>236</ele>
        <time>2019-04-14T10:10:20Z</time>
      </trkpt>
      <trkpt lat="44.4275" lon="1.34713">
        <ele>237</ele>
        <time>2019-04-14T10:10:21Z</time>
      </trkpt>
      <trkpt lat="44.42749" lon="1.34711">
        <ele>237</ele>
        <time>2019-04-14T10:10:22Z</time>
      </trkpt>
      <trkpt lat="44.42748" lon="1.34709">
        <ele>237</ele>
        <time>2019-04-14T10:10:23Z</time>
      </trkpt>
      <trkpt lat="44.42747" lon="1.34708">
        <ele>238</ele>
        <time>2019-04-14T10:10:24Z</time>
      </trkpt>
      <trkpt lat="44.42745" lon="1.34707">
        <ele>238</ele>
        <time>2019-04-14T10:10:25Z</time>
      </trkpt>
      <trkpt lat="44.42744" lon="1.34707">
        <ele>238</ele>
        <time>2019-04-14T10:10:26Z</time>
      </trkpt>
      <trkpt lat="44.42743" lon="1.34707">
        <ele>239</ele>
        <time>2019-04-14T10:10:27Z</time>
      </trkpt>
      <trkpt lat="44.42742" lon="1.34706">
        <ele>239</ele>
        <time>2019-04-14T10:10:28Z</time>
      </trkpt>
      <trkpt lat="44.42741" lon="1.34706">
        <ele>240</ele>
        <time>2019-04-14T10:10:29Z</time>
      </trkpt>
      <trkpt lat="44.4274" lon="1.34706">
        <ele>240</ele>
        <time>2019-04-14T10:10:30Z</time>
      </trkpt>
      <trkpt lat="44.42739" lon="1.34705">
        <ele>240</ele>
        <time>2019-04-14T10:10:31Z</time>
      </trkpt>
      <trkpt lat="44.42737" lon="1.34705">
        <ele>241</ele>
        <time>2019-04-14T10:10:32Z</time>
      </trkpt>
      <trkpt lat="44.42736" lon="1.34704">
        <ele>241</ele>
        <time>2019-04-14T10:10:33Z</time>
      </trkpt>
      <trkpt lat="44.42734" lon="1.34703">
        <ele>241</ele>
        <time>2019-04-14T10:10:34Z</time>
      </trkpt>
      <trkpt lat="44.42733" lon="1.34702">
        <ele>242</ele>
        <time>2019-04-14T10:10:35Z</time>
      </trkpt>
      <trkpt lat="44.42731" lon="1.34702">
        <ele>242</ele>
        <time>2019-04-14T10:10:36Z</time>
      </trkpt>
      <trkpt lat="44.4273" lon="1.34703">
        <ele>242</ele>
        <time>2019-04-14T10:10:37Z</time>
      </trkpt>
      <trkpt lat="44.42728" lon="1.34703">
        <ele>242</ele>
        <time>2019-04-14T10:10:38Z</time>
      </trkpt>
      <trkpt lat="44.42726" lon="1.34703">
        <ele>243</ele>
        <time>2019-04-14T10:10:39Z</time>
      </trkpt>
      <trkpt lat="44.42724" lon="1.34704">
        <ele>243</ele>
        <time>2019-04-14T10:10:40Z</time>
      </trkpt>
      <trkpt lat="44.42722" lon="1.34706">
        <ele>243</ele>
        <time>2019-04-14T10:10:41Z</time>
      </trkpt>
      <trkpt lat="44.42721" lon="1.34707">
        <ele>243</ele>
        <time>2019-04-14T10:10:42Z</time>
      </trkpt>
      <trkpt lat="44.4272" lon="1.34709">
        <ele>243</ele>
        <time>2019-04-14T10:10:43Z</time>
      </trkpt>
      <trkpt lat="44.42717" lon="1.3471">
        <ele>243</ele>
        <time>2019-04-14T10:10:44Z</time>
      </trkpt>
      <trkpt lat="44.42716" lon="1.3471">
        <ele>244</ele>
        <time>2019-04-14T10:10:45Z</time>
      </trkpt>
      <trkpt lat="44.42715" lon="1.3471">
        <ele>244</ele>
        <time>2019-04-14T10:10:46Z</time>
      </trkpt>
      <trkpt lat="44.42714" lon="1.34709">
        <ele>244</ele>
        <time>2019-04-14T10:10:47Z</time>
      </trkpt>
      <trkpt lat="44.42713" lon="1.34709">
        <ele>244</ele>
        <time>2019-04-14T10:10:48Z</time>
      </trkpt>
      <trkpt lat="44.42711" lon="1.34709">
        <ele>244</ele>
        <time>2019-04-14T10:10:49Z</time>
      </trkpt>
      <trkpt lat="44.4271" lon="1.34709">
        <ele>245</ele>
        <time>2019-04-14T10:10:50Z</time>
      </trkpt>
      <trkpt lat="44.42709" lon="1.34709">
        <ele>245</ele>
        <time>2019-04-14T10:10:51Z</time>
      </trkpt>
      <trkpt lat="44.42707" lon="1.34709">
        <ele>245</ele>
        <time>2019-04-14T10:10:52Z</time>
      </trkpt>
      <trkpt lat="44.42705" lon="1.34708">
        <ele>246</ele>
        <time>2019-04-14T10:10:53Z</time>
      </trkpt>
      <trkpt lat="44.42703" lon="1.34709">
        <ele>246</ele>
        <time>2019-04-14T10:10:54Z</time>
      </trkpt>
      <trkpt lat="44.42701" lon="1.3471">
        <ele>246</ele>
        <time>2019-04-14T10:10:55Z</time>
      </trkpt>
      <trkpt lat="44.427" lon="1.34711">
        <ele>246</ele>
        <time>2019-04-14T10:10:56Z</time>
      </trkpt>
      <trkpt lat="44.42699" lon="1.34712">
        <ele>246</ele>
        <time>2019-04-14T10:10:57Z</time>
      </trkpt>
      <trkpt lat="44.42698" lon="1.34712">
        <ele>246</ele>
        <time>2019-04-14T10:10:58Z</time>
      </trkpt>
      <trkpt lat="44.42697" lon="1.34713">
        <ele>246</ele>
        <time>2019-04-14T10:10:59Z</time>
      </trkpt>
      <trkpt lat="44.42695" lon="1.34713">
        <ele>246</ele>
        <time>2019-04-14T10:11:00Z</time>
      </trkpt>
      <trkpt lat="44.42694" lon="1.34713">
        <ele>247</ele>
        <time>2019-04-14T10:11:01Z</time>
      </trkpt>
      <trkpt lat="44.42692" lon="1.34715">
        <ele>247</ele>
        <time>2019-04-14T10:11:02Z</time>
      </trkpt>
      <trkpt lat="44.4269" lon="1.34716">
        <ele>247</ele>
        <time>2019-04-14T10:11:03Z</time>
      </trkpt>
      <trkpt lat="44.42689" lon="1.34717">
        <ele>247</ele>
        <time>2019-04-14T10:11:04Z</time>
      </trkpt>
      <trkpt lat="44.42688" lon="1.34718">
        <ele>247</ele>
        <time>2019-04-14T10:11:05Z</time>
      </trkpt>
      <trkpt lat="44.42687" lon="1.34718">
        <ele>248</ele>
        <time>2019-04-14T10:11:06Z</time>
      </trkpt>
      <trkpt lat="44.42685" lon="1.34718">
        <ele>248</ele>
        <time>2019-04-14T10:11:07Z</time>
      </trkpt>
      <trkpt lat="44.42685" lon="1.34719">
        <ele>248</ele>
        <time>2019-04-14T10:11:08Z</time>
      </trkpt>
      <trkpt lat="44.42684" lon="1.34721">
        <ele>248</ele>
        <time>2019-04-14T10:11:09Z</time>
      </trkpt>
      <trkpt lat="44.42683" lon="1.34723">
        <ele>248</ele>
        <time>2019-04-14T10:11:10Z</time>
      </trkpt>
      <trkpt lat="44.42682" lon="1.34724">
        <ele>249</ele>
        <time>2019-04-14T10:11:11Z</time>
      </trkpt>
      <trkpt lat="44.42681" lon="1.34724">
        <ele>249</ele>
        <time>2019-04-14T10:11:12Z</time>
      </trkpt>
      <trkpt lat="44.42679" lon="1.34724">
        <ele>249</ele>
        <time>2019-04-14T10:11:13Z</time>
      </trkpt>
      <trkpt lat="44.42678" lon="1.34725">
        <ele>249</ele>
        <time>2019-04-14T10:11:14Z</time>
      </trkpt>
      <trkpt lat="44.42677" lon="1.34725">
        <ele>249</ele>
        <time>2019-04-14T10:11:15Z</time>
      </trkpt>
      <trkpt lat="44.42675" lon="1.34726">
        <ele>250</ele>
        <time>2019-04-14T10:11:16Z</time>
      </trkpt>
      <trkpt lat="44.42674" lon="1.34726">
        <ele>250</ele>
        <time>2019-04-14T10:11:17Z</time>
      </trkpt>
      <trkpt lat="44.42673" lon="1.34727">
        <ele>250</ele>
        <time>2019-04-14T10:11:18Z</time>
      </trkpt>
      <trkpt lat="44.42672" lon="1.34729">
        <ele>250</ele>
        <time>2019-04-14T10:11:19Z</time>
      </trkpt>
      <trkpt lat="44.4267" lon="1.34729">
        <ele>250</ele>
        <time>2019-04-14T10:11:20Z</time>
      </trkpt>
      <trkpt lat="44.42669" lon="1.3473">
        <ele>250</ele>
        <time>2019-04-14T10:11:21Z</time>
      </trkpt>
      <trkpt lat="44.42668" lon="1.34731">
        <ele>250</ele>
        <time>2019-04-14T10:11:22Z</time>
      </trkpt>
      <trkpt lat="44.42667" lon="1.34733">
        <ele>250</ele>
        <time>2019-04-14T10:11:23Z</time>
      </trkpt>
      <trkpt lat="44.42665" lon="1.34734">
        <ele>250</ele>
        <time>2019-04-14T10:11:24Z</time>
      </trkpt>
      <trkpt lat="44.42665" lon="1.34736">
        <ele>250</ele>
        <time>2019-04-14T10:11:25Z</time>
      </trkpt>
      <trkpt lat="44.42663" lon="1.34737">
        <ele>250</ele>
        <time>2019-04-14T10:11:26Z</time>
      </trkpt>
      <trkpt lat="44.42663" lon="1.34738">
        <ele>250</ele>
        <time>2019-04-14T10:11:27Z</time>
      </trkpt>
      <trkpt lat="44.42661" lon="1.34739">
        <ele>250</ele>
        <time>2019-04-14T10:11:28Z</time>
      </trkpt>
      <trkpt lat="44.42659" lon="1.3474">
        <ele>250</ele>
        <time>2019-04-14T10:11:29Z</time>
      </trkpt>
      <trkpt lat="44.42659" lon="1.34742">
        <ele>250</ele>
        <time>2019-04-14T10:11:30Z</time>
      </trkpt>
      <trkpt lat="44.42658" lon="1.34743">
        <ele>250</ele>
        <time>2019-04-14T10:11:31Z</time>
      </trkpt>
      <trkpt lat="44.42657" lon="1.34744">
        <ele>250</ele>
        <time>2019-04-14T10:11:32Z</time>
      </trkpt>
      <trkpt lat="44.42656" lon="1.34745">
        <ele>250</ele>
        <time>2019-04-14T10:11:33Z</time>
      </trkpt>
      <trkpt lat="44.42655" lon="1.34746">
        <ele>250</ele>
        <time>2019-04-14T10:11:34Z</time>
      </trkpt>
      <trkpt lat="44.42654" lon="1.34747">
        <ele>250</ele>
        <time>2019-04-14T10:11:35Z</time>
      </trkpt>
      <trkpt lat="44.42652" lon="1.34748">
        <ele>251</ele>
        <time>2019-04-14T10:11:36Z</time>
      </trkpt>
      <trkpt lat="44.4265" lon="1.3475">
        <ele>251</ele>
        <time>2019-04-14T10:11:37Z</time>
      </trkpt>
      <trkpt lat="44.42649" lon="1.34751">
        <ele>251</ele>
        <time>2019-04-14T10:11:38Z</time>
      </trkpt>
      <trkpt lat="44.42647" lon="1.34752">
        <ele>251</ele>
        <time>2019-04-14T10:11:39Z</time>
      </trkpt>
      <trkpt lat="44.42645" lon="1.34753">
        <ele>251</ele>
        <time>2019-04-14T10:11:40Z</time>
      </trkpt>
      <trkpt lat="44.42644" lon="1.34755">
        <ele>251</ele>
        <time>2019-04-14T10:11:41Z</time>
      </trkpt>
      <trkpt lat="44.42642" lon="1.34757">
        <ele>251</ele>
        <time>2019-04-14T10:11:42Z</time>
      </trkpt>
      <trkpt lat="44.4264" lon="1.34759">
        <ele>251</ele>
        <time>2019-04-14T10:11:43Z</time>
      </trkpt>
      <trkpt lat="44.42638" lon="1.34761">
        <ele>251</ele>
        <time>2019-04-14T10:11:44Z</time>
      </trkpt>
      <trkpt lat="44.42636" lon="1.34762">
        <ele>251</ele>
        <time>2019-04-14T10:11:45Z</time>
      </trkpt>
      <trkpt lat="44.42635" lon="1.34765">
        <ele>251</ele>
        <time>2019-04-14T10:11:46Z</time>
      </trkpt>
      <trkpt lat="44.42632" lon="1.34767">
        <ele>252</ele>
        <time>2019-04-14T10:11:47Z</time>
      </trkpt>
      <trkpt lat="44.4263" lon="1.34769">
        <ele>252</ele>
        <time>2019-04-14T10:11:48Z</time>
      </trkpt>
      <trkpt lat="44.42629" lon="1.3477">
        <ele>252</ele>
        <time>2019-04-14T10:11:49Z</time>
      </trkpt>
      <trkpt lat="44.42626" lon="1.34772">
        <ele>252</ele>
        <time>2019-04-14T10:11:50Z</time>
      </trkpt>
      <trkpt lat="44.42624" lon="1.34773">
        <ele>252</ele>
        <time>2019-04-14T10:11:51Z</time>
      </trkpt>
      <trkpt lat="44.42623" lon="1.34775">
        <ele>252</ele>
        <time>2019-04-14T10:11:52Z</time>
      </trkpt>
      <trkpt lat="44.42621" lon="1.34777">
        <ele>252</ele>
        <time>2019-04-14T10:11:53Z</time>
      </trkpt>
      <trkpt lat="44.42622" lon="1.34777">
        <ele>252</ele>
        <time>2019-04-14T10:11:54Z</time>
      </trkpt>
      <trkpt lat="44.4262" lon="1.34778">
        <ele>252</ele>
        <time>2019-04-14T10:11:55Z</time>
      </trkpt>
      <trkpt lat="44.42619" lon="1.3478">
        <ele>253</ele>
        <time>2019-04-14T10:11:56Z</time>
      </trkpt>
      <trkpt lat="44.42617" lon="1.34782">
        <ele>253</ele>
        <time>2019-04-14T10:11:57Z</time>
      </trkpt>
      <trkpt lat="44.42615" lon="1.34784">
        <ele>253</ele>
        <time>2019-04-14T10:11:58Z</time>
      </trkpt>
      <trkpt lat="44.42614" lon="1.34786">
        <ele>253</ele>
        <time>2019-04-14T10:11:59Z</time>
      </trkpt>
      <trkpt lat="44.42612" lon="1.34788">
        <ele>253</ele>
        <time>2019-04-14T10:12:00Z</time>
      </trkpt>
      <trkpt lat="44.4261" lon="1.34789">
        <ele>254</ele>
        <time>2019-04-14T10:12:01Z</time>
      </trkpt>
      <trkpt lat="44.42608" lon="1.3479">
        <ele>254</ele>
        <time>2019-04-14T10:12:02Z</time>
      </trkpt>
      <trkpt lat="44.42608" lon="1.34791">
        <ele>254</ele>
        <time>2019-04-14T10:12:03Z</time>
      </trkpt>
      <trkpt lat="44.42608" lon="1.34793">
        <ele>254</ele>
        <time>2019-04-14T10:12:04Z</time>
      </trkpt>
      <trkpt lat="44.42608" lon="1.34795">
        <ele>254</ele>
        <time>2019-04-14T10:12:05Z</time>
      </trkpt>
      <trkpt lat="44.42607" lon="1.34798">
        <ele>253</ele>
        <time>2019-04-14T10:12:06Z</time>
      </trkpt>
      <trkpt lat="44.42606" lon="1.34801">
        <ele>253</ele>
        <time>2019-04-14T10:12:07Z</time>
      </trkpt>
      <trkpt lat="44.42606" lon="1.34805">
        <ele>253</ele>
        <time>2019-04-14T10:12:08Z</time>
      </trkpt>
      <trkpt lat="44.42605" lon="1.34807">
        <ele>253</ele>
        <time>2019-04-14T10:12:09Z</time>
      </trkpt>
      <trkpt lat="44.42605" lon="1.3481">
        <ele>253</ele>
        <time>2019-04-14T10:12:10Z</time>
      </trkpt>
      <trkpt lat="44.42604" lon="1.34812">
        <ele>253</ele>
        <time>2019-04-14T10:12:11Z</time>
      </trkpt>
      <trkpt lat="44.42603" lon="1.34815">
        <ele>253</ele>
        <time>2019-04-14T10:12:12Z</time>
      </trkpt>
      <trkpt lat="44.42603" lon="1.34818">
        <ele>253</ele>
        <time>2019-04-14T10:12:13Z</time>
      </trkpt>
      <trkpt lat="44.42603" lon="1.34821">
        <ele>253</ele>
        <time>2019-04-14T10:12:14Z</time>
      </trkpt>
      <trkpt lat="44.42602" lon="1.34825">
        <ele>252</ele>
        <time>2019-04-14T10:12:15Z</time>
      </trkpt>
      <trkpt lat="44.42605" lon="1.34829">
        <ele>252</ele>
        <time>2019-04-14T10:12:16Z</time>
      </trkpt>
      <trkpt lat="44.42607" lon="1.34835">
        <ele>251</ele>
        <time>2019-04-14T10:12:17Z</time>
      </trkpt>
      <trkpt lat="44.4261" lon="1.3484">
        <ele>251</ele>
        <time>2019-04-14T10:12:18Z</time>
      </trkpt>
      <trkpt lat="44.42612" lon="1.34845">
        <ele>251</ele>
        <time>2019-04-14T10:12:19Z</time>
      </trkpt>
      <trkpt lat="44.42612" lon="1.34851">
        <ele>251</ele>
        <time>2019-04-14T10:12:20Z</time>
      </trkpt>
      <trkpt lat="44.42614" lon="1.34855">
        <ele>251</ele>
        <time>2019-04-14T10:12:21Z</time>
      </trkpt>
      <trkpt lat="44.42616" lon="1.34857">
        <ele>251</ele>
        <time>2019-04-14T10:12:22Z</time>
      </trkpt>
      <trkpt lat="44.42617" lon="1.34858">
        <ele>250</ele>
        <time>2019-04-14T10:12:23Z</time>
      </trkpt>
      <trkpt lat="44.42619" lon="1.3486">
        <ele>250</ele>
        <time>2019-04-14T10:12:24Z</time>
      </trkpt>
      <trkpt lat="44.42621" lon="1.34861">
        <ele>250</ele>
        <time>2019-04-14T10:12:25Z</time>
      </trkpt>
      <trkpt lat="44.42623" lon="1.34862">
        <ele>250</ele>
        <time>2019-04-14T10:12:26Z</time>
      </trkpt>
      <trkpt lat="44.42625" lon="1.34864">
        <ele>250</ele>
        <time>2019-04-14T10:12:27Z</time>
      </trkpt>
      <trkpt lat="44.42627" lon="1.34867">
        <ele>250</ele>
        <time>2019-04-14T10:12:28Z</time>
      </trkpt>
      <trkpt lat="44.42629" lon="1.34869">
        <ele>250</ele>
        <time>2019-04-14T10:12:29Z</time>
      </trkpt>
      <trkpt lat="44.4263" lon="1.34873">
        <ele>250</ele>
        <time>2019-04-14T10:12:30Z</time>
      </trkpt>
      <trkpt lat="44.42632" lon="1.34875">
        <ele>250</ele>
        <time>2019-04-14T10:12:31Z</time>
      </trkpt>
      <trkpt lat="44.42634" lon="1.34878">
        <ele>251</ele>
        <time>2019-04-14T10:12:32Z</time>
      </trkpt>
      <trkpt lat="44.42636" lon="1.34881">
        <ele>251</ele>
        <time>2019-04-14T10:12:33Z</time>
      </trkpt>
      <trkpt lat="44.42638" lon="1.34884">
        <ele>251</ele>
        <time>2019-04-14T10:12:34Z</time>
      </trkpt>
      <trkpt lat="44.42639" lon="1.34885">
        <ele>251</ele>
        <time>2019-04-14T10:12:35Z</time>
      </trkpt>
      <trkpt lat="44.42642" lon="1.34887">
        <ele>251</ele>
        <time>2019-04-14T10:12:36Z</time>
      </trkpt>
      <trkpt lat="44.42644" lon="1.34889">
        <ele>250</ele>
        <time>2019-04-14T10:12:37Z</time>
      </trkpt>
      <trkpt lat="44.42646" lon="1.34891">
        <ele>251</ele>
        <time>2019-04-14T10:12:38Z</time>
      </trkpt>
      <trkpt lat="44.42648" lon="1.34892">
        <ele>250</ele>
        <time>2019-04-14T10:12:39Z</time>
      </trkpt>
      <trkpt lat="44.4265" lon="1.34895">
        <ele>250</ele>
        <time>2019-04-14T10:12:40Z</time>
      </trkpt>
      <trkpt lat="44.42653" lon="1.34897">
        <ele>250</ele>
        <time>2019-04-14T10:12:41Z</time>
      </trkpt>
      <trkpt lat="44.42655" lon="1.34899">
        <ele>249</ele>
        <time>2019-04-14T10:12:42Z</time>
      </trkpt>
      <trkpt lat="44.42657" lon="1.34902">
        <ele>249</ele>
        <time>2019-04-14T10:12:43Z</time>
      </trkpt>
      <trkpt lat="44.42659" lon="1.34905">
        <ele>249</ele>
        <time>2019-04-14T10:12:44Z</time>
      </trkpt>
      <trkpt lat="44.4266" lon="1.34908">
        <ele>249</ele>
        <time>2019-04-14T10:12:45Z</time>
      </trkpt>
      <trkpt lat="44.4266" lon="1.34911">
        <ele>249</ele>
        <time>2019-04-14T10:12:46Z</time>
      </trkpt>
      <trkpt lat="44.4266" lon="1.34914">
        <ele>249</ele>
        <time>2019-04-14T10:12:47Z</time>
      </trkpt>
      <trkpt lat="44.4266" lon="1.34917">
        <ele>249</ele>
        <time>2019-04-14T10:12:48Z</time>
      </trkpt>
      <trkpt lat="44.42661" lon="1.3492">
        <ele>249</ele>
        <time>2019-04-14T10:12:49Z</time>
      </trkpt>
      <trkpt lat="44.42662" lon="1.34922">
        <ele>249</ele>
        <time>2019-04-14T10:12:50Z</time>
      </trkpt>
      <trkpt lat="44.42664" lon="1.34923">
        <ele>249</ele>
        <time>2019-04-14T10:12:51Z</time>
      </trkpt>
      <trkpt lat="44.42667" lon="1.34924">
        <ele>249</ele>
        <time>2019-04-14T10:12:52Z</time>
      </trkpt>
      <trkpt lat="44.42669" lon="1.34927">
        <ele>249</ele>
        <time>2019-04-14T10:12:53Z</time>
      </trkpt>
      <trkpt lat="44.42671" lon="1.3493">
        <ele>248</ele>
        <time>2019-04-14T10:12:54Z</time>
      </trkpt>
      <trkpt lat="44.42673" lon="1.34934">
        <ele>248</ele>
        <time>2019-04-14T10:12:55Z</time>
      </trkpt>
      <trkpt lat="44.42675" lon="1.34937">
        <ele>248</ele>
        <time>2019-04-14T10:12:56Z</time>
      </trkpt>
      <trkpt lat="44.42677" lon="1.3494">
        <ele>248</ele>
        <time>2019-04-14T10:12:57Z</time>
      </trkpt>
      <trkpt lat="44.42678" lon="1.34941">
        <ele>247</ele>
        <time>2019-04-14T10:12:58Z</time>
      </trkpt>
      <trkpt lat="44.4268" lon="1.34941">
        <ele>247</ele>
        <time>2019-04-14T10:12:59Z</time>
      </trkpt>
      <trkpt lat="44.42682" lon="1.34939">
        <ele>247</ele>
        <time>2019-04-14T10:13:00Z</time>
      </trkpt>
      <trkpt lat="44.42683" lon="1.34937">
        <ele>246</ele>
        <time>2019-04-14T10:13:01Z</time>
      </trkpt>
      <trkpt lat="44.42685" lon="1.34936">
        <ele>246</ele>
        <time>2019-04-14T10:13:02Z</time>
      </trkpt>
      <trkpt lat="44.42687" lon="1.34937">
        <ele>246</ele>
        <time>2019-04-14T10:13:03Z</time>
      </trkpt>
      <trkpt lat="44.4269" lon="1.34938">
        <ele>245</ele>
        <time>2019-04-14T10:13:04Z</time>
      </trkpt>
      <trkpt lat="44.42693" lon="1.34939">
        <ele>245</ele>
        <time>2019-04-14T10:13:05Z</time>
      </trkpt>
      <trkpt lat="44.42695" lon="1.34941">
        <ele>244</ele>
        <time>2019-04-14T10:13:06Z</time>
      </trkpt>
      <trkpt lat="44.42696" lon="1.34942">
        <ele>244</ele>
        <time>2019-04-14T10:13:07Z</time>
      </trkpt>
      <trkpt lat="44.42697" lon="1.34943">
        <ele>244</ele>
        <time>2019-04-14T10:13:08Z</time>
      </trkpt>
      <trkpt lat="44.42699" lon="1.34943">
        <ele>244</ele>
        <time>2019-04-14T10:13:09Z</time>
      </trkpt>
      <trkpt lat="44.42702" lon="1.34944">
        <ele>244</ele>
        <time>2019-04-14T10:13:10Z</time>
      </trkpt>
      <trkpt lat="44.42704" lon="1.34945">
        <ele>243</ele>
        <time>2019-04-14T10:13:11Z</time>
      </trkpt>
      <trkpt lat="44.42706" lon="1.34947">
        <ele>243</ele>
        <time>2019-04-14T10:13:12Z</time>
      </trkpt>
      <trkpt lat="44.42709" lon="1.34949">
        <ele>243</ele>
        <time>2019-04-14T10:13:13Z</time>
      </trkpt>
      <trkpt lat="44.4271" lon="1.34951">
        <ele>242</ele>
        <time>2019-04-14T10:13:14Z</time>
      </trkpt>
      <trkpt lat="44.42712" lon="1.34953">
        <ele>242</ele>
        <time>2019-04-14T10:13:15Z</time>
      </trkpt>
      <trkpt lat="44.42714" lon="1.34955">
        <ele>241</ele>
        <time>2019-04-14T10:13:16Z</time>
      </trkpt>
      <trkpt lat="44.42715" lon="1.34957">
        <ele>241</ele>
        <time>2019-04-14T10:13:17Z</time>
      </trkpt>
      <trkpt lat="44.42716" lon="1.34959">
        <ele>241</ele>
        <time>2019-04-14T10:13:18Z</time>
      </trkpt>
      <trkpt lat="44.42717" lon="1.34961">
        <ele>241</ele>
        <time>2019-04-14T10:13:19Z</time>
      </trkpt>
      <trkpt lat="44.42718" lon="1.34963">
        <ele>241</ele>
        <time>2019-04-14T10:13:20Z</time>
      </trkpt>
      <trkpt lat="44.42719" lon="1.34966">
        <ele>241</ele>
        <time>2019-04-14T10:13:21Z</time>
      </trkpt>
      <trkpt lat="44.4272" lon="1.34968">
        <ele>241</ele>
        <time>2019-04-14T10:13:22Z</time>
      </trkpt>
      <trkpt lat="44.42722" lon="1.34971">
        <ele>241</ele>
        <time>2019-04-14T10:13:23Z</time>
      </trkpt>
      <trkpt lat="44.42722" lon="1.34974">
        <ele>241</ele>
        <time>2019-04-14T10:13:24Z</time>
      </trkpt>
      <trkpt lat="44.42722" lon="1.34976">
        <ele>241</ele>
        <time>2019-04-14T10:13:25Z</time>
      </trkpt>
      <trkpt lat="44.42721" lon="1.34978">
        <ele>241</ele>
        <time>2019-04-14T10:13:26Z</time>
      </trkpt>
      <trkpt lat="44.42721" lon="1.3498">
        <ele>241</ele>
        <time>2019-04-14T10:13:27Z</time>
      </trkpt>
      <trkpt lat="44.42722" lon="1.34981">
        <ele>241</ele>
        <time>2019-04-14T10:13:28Z</time>
      </trkpt>
      <trkpt lat="44.42722" lon="1.34983">
        <ele>241</ele>
        <time>2019-04-14T10:13:29Z</time>
      </trkpt>
      <trkpt lat="44.42721" lon="1.34985">
        <ele>241</ele>
        <time>2019-04-14T10:13:30Z</time>
      </trkpt>
      <trkpt lat="44.42723" lon="1.34988">
        <ele>241</ele>
        <time>2019-04-14T10:13:31Z</time>
      </trkpt>
      <trkpt lat="44.42725" lon="1.34991">
        <ele>241</ele>
        <time>2019-04-14T10:13:32Z</time>
      </trkpt>
      <trkpt lat="44.42727" lon="1.34995">
        <ele>240</ele>
        <time>2019-04-14T10:13:33Z</time>
      </trkpt>
      <trkpt lat="44.42727" lon="1.34999">
        <ele>240</ele>
        <time>2019-04-14T10:13:34Z</time>
      </trkpt>
      <trkpt lat="44.42729" lon="1.35002">
        <ele>240</ele>
        <time>2019-04-14T10:13:35Z</time>
      </trkpt>
      <trkpt lat="44.42731" lon="1.35005">
        <ele>240</ele>
        <time>2019-04-14T10:13:36Z</time>
      </trkpt>
      <trkpt lat="44.42732" lon="1.35009">
        <ele>239</ele>
        <time>2019-04-14T10:13:37Z</time>
      </trkpt>
      <trkpt lat="44.42734" lon="1.35012">
        <ele>239</ele>
        <time>2019-04-14T10:13:38Z</time>
      </trkpt>
      <trkpt lat="44.42736" lon="1.35013">
        <ele>239</ele>
        <time>2019-04-14T10:13:39Z</time>
      </trkpt>
      <trkpt lat="44.42738" lon="1.35013">
        <ele>239</ele>
        <time>2019-04-14T10:13:40Z</time>
      </trkpt>
      <trkpt lat="44.4274" lon="1.35014">
        <ele>238</ele>
        <time>2019-04-14T10:13:41Z</time>
      </trkpt>
      <trkpt lat="44.42742" lon="1.35014">
        <ele>238</ele>
        <time>2019-04-14T10:13:42Z</time>
      </trkpt>
      <trkpt lat="44.42745" lon="1.35015">
        <ele>237</ele>
        <time>2019-04-14T10:13:43Z</time>
      </trkpt>
      <trkpt lat="44.42747" lon="1.35015">
        <ele>237</ele>
        <time>2019-04-14T10:13:44Z</time>
      </trkpt>
      <trkpt lat="44.4275" lon="1.35018">
        <ele>237</ele>
        <time>2019-04-14T10:13:45Z</time>
      </trkpt>
      <trkpt lat="44.42753" lon="1.35018">
        <ele>236</ele>
        <time>2019-04-14T10:13:46Z</time>
      </trkpt>
      <trkpt lat="44.42756" lon="1.35017">
        <ele>236</ele>
        <time>2019-04-14T10:13:47Z</time>
      </trkpt>
      <trkpt lat="44.42757" lon="1.35016">
        <ele>235</ele>
        <time>2019-04-14T10:13:48Z</time>
      </trkpt>
      <trkpt lat="44.42759" lon="1.35015">
        <ele>235</ele>
        <time>2019-04-14T10:13:49Z</time>
      </trkpt>
      <trkpt lat="44.4276" lon="1.35015">
        <ele>234</ele>
        <time>2019-04-14T10:13:50Z</time>
      </trkpt>
      <trkpt lat="44.4276" lon="1.35015">
        <ele>234</ele>
        <time>2019-04-14T10:13:51Z</time>
      </trkpt>
      <trkpt lat="44.42761" lon="1.35015">
        <ele>234</ele>
        <time>2019-04-14T10:13:52Z</time>
      </trkpt>
      <trkpt lat="44.42762" lon="1.35015">
        <ele>234</ele>
        <time>2019-04-14T10:13:53Z</time>
      </trkpt>
      <trkpt lat="44.42763" lon="1.35014">
        <ele>233</ele>
        <time>2019-04-14T10:13:54Z</time>
      </trkpt>
      <trkpt lat="44.42764" lon="1.35013">
        <ele>233</ele>
        <time>2019-04-14T10:13:55Z</time>
      </trkpt>
      <trkpt lat="44.42764" lon="1.35011">
        <ele>233</ele>
        <time>2019-04-14T10:13:56Z</time>
      </trkpt>
      <trkpt lat="44.42764" lon="1.35007">
        <ele>233</ele>
        <time>2019-04-14T10:13:57Z</time>
      </trkpt>
      <trkpt lat="44.42764" lon="1.35004">
        <ele>233</ele>
        <time>2019-04-14T10:13:58Z</time>
      </trkpt>
      <trkpt lat="44.42765" lon="1.35002">
        <ele>233</ele>
        <time>2019-04-14T10:13:59Z</time>
      </trkpt>
      <trkpt lat="44.42765" lon="1.34999">
        <ele>233</ele>
        <time>2019-04-14T10:14:00Z</time>
      </trkpt>
      <trkpt lat="44.42764" lon="1.34998">
        <ele>233</ele>
        <time>2019-04-14T10:14:01Z</time>
      </trkpt>
      <trkpt lat="44.42764" lon="1.34998">
        <ele>233</ele>
        <time>2019-04-14T10:14:02Z</time>
      </trkpt>
      <trkpt lat="44.42764" lon="1.34998">
        <ele>233</ele>
        <time>2019-04-14T10:14:03Z</time>
      </trkpt>
      <trkpt lat="44.42765" lon="1.34999">
        <ele>233</ele>
        <time>2019-04-14T10:14:04Z</time>
      </trkpt>
      <trkpt lat="44.42765" lon="1.34998">
        <ele>233</ele>
        <time>2019-04-14T10:14:05Z</time>
      </trkpt>
      <trkpt lat="44.42765" lon="1.34998">
        <ele>233</ele>
        <time>2019-04-14T10:14:06Z</time>
      </trkpt>
      <trkpt lat="44.42765" lon="1.34997">
        <ele>233</ele>
        <time>2019-04-14T10:14:07Z</time>
      </trkpt>
      <trkpt lat="44.42766" lon="1.34996">
        <ele>233</ele>
        <time>2019-04-14T10:14:08Z</time>
      </trkpt>
      <trkpt lat="44.42782" lon="1.35003">
        <ele>230</ele>
        <time>2019-04-14T10:15:36Z</time>
      </trkpt>
      <trkpt lat="44.42783" lon="1.35005">
        <ele>230</ele>
        <time>2019-04-14T10:15:37Z</time>
      </trkpt>
      <trkpt lat="44.42782" lon="1.35006">
        <ele>230</ele>
        <time>2019-04-14T10:15:38Z</time>
      </trkpt>
      <trkpt lat="44.42782" lon="1.35008">
        <ele>230</ele>
        <time>2019-04-14T10:15:39Z</time>
      </trkpt>
      <trkpt lat="44.42783" lon="1.3501">
        <ele>231</ele>
        <time>2019-04-14T10:15:40Z</time>
      </trkpt>
      <trkpt lat="44.42784" lon="1.35012">
        <ele>231</ele>
        <time>2019-04-14T10:15:41Z</time>
      </trkpt>
      <trkpt lat="44.42784" lon="1.35016">
        <ele>231</ele>
        <time>2019-04-14T10:15:42Z</time>
      </trkpt>
      <trkpt lat="44.42786" lon="1.35017">
        <ele>231</ele>
        <time>2019-04-14T10:15:43Z</time>
      </trkpt>
      <trkpt lat="44.42787" lon="1.35018">
        <ele>231</ele>
        <time>2019-04-14T10:15:44Z</time>
      </trkpt>
      <trkpt lat="44.42789" lon="1.3502">
        <ele>231</ele>
        <time>2019-04-14T10:15:45Z</time>
      </trkpt>
      <trkpt lat="44.42791" lon="1.35021">
        <ele>230</ele>
        <time>2019-04-14T10:15:46Z</time>
      </trkpt>
      <trkpt lat="44.42794" lon="1.35022">
        <ele>230</ele>
        <time>2019-04-14T10:15:47Z</time>
      </trkpt>
      <trkpt lat="44.42796" lon="1.35024">
        <ele>229</ele>
        <time>2019-04-14T10:15:48Z</time>
      </trkpt>
      <trkpt lat="44.42796" lon="1.35027">
        <ele>229</ele>
        <time>2019-04-14T10:15:49Z</time>
      </trkpt>
      <trkpt lat="44.42797" lon="1.3503">
        <ele>229</ele>
        <time>2019-04-14T10:15:50Z</time>
      </trkpt>
      <trkpt lat="44.42798" lon="1.35033">
        <ele>229</ele>
        <time>2019-04-14T10:15:51Z</time>
      </trkpt>
      <trkpt lat="44.42799" lon="1.35036">
        <ele>229</ele>
        <time>2019-04-14T10:15:52Z</time>
      </trkpt>
      <trkpt lat="44.42801" lon="1.35039">
        <ele>229</ele>
        <time>2019-04-14T10:15:53Z</time>
      </trkpt>
      <trkpt lat="44.42803" lon="1.35042">
        <ele>229</ele>
        <time>2019-04-14T10:15:54Z</time>
      </trkpt>
      <trkpt lat="44.42805" lon="1.35045">
        <ele>229</ele>
        <time>2019-04-14T10:15:55Z</time>
      </trkpt>
      <trkpt lat="44.42806" lon="1.35046">
        <ele>229</ele>
        <time>2019-04-14T10:15:56Z</time>
      </trkpt>
      <trkpt lat="44.42807" lon="1.35047">
        <ele>229</ele>
        <time>2019-04-14T10:15:57Z</time>
      </trkpt>
      <trkpt lat="44.42809" lon="1.35049">
        <ele>229</ele>
        <time>2019-04-14T10:15:58Z</time>
      </trkpt>
      <trkpt lat="44.4281" lon="1.35051">
        <ele>229</ele>
        <time>2019-04-14T10:15:59Z</time>
      </trkpt>
      <trkpt lat="44.42811" lon="1.35053">
        <ele>229</ele>
        <time>2019-04-14T10:16:00Z</time>
      </trkpt>
      <trkpt lat="44.42813" lon="1.35054">
        <ele>229</ele>
        <time>2019-04-14T10:16:01Z</time>
      </trkpt>
      <trkpt lat="44.42814" lon="1.35055">
        <ele>229</ele>
        <time>2019-04-14T10:16:02Z</time>
      </trkpt>
      <trkpt lat="44.42816" lon="1.35056">
        <ele>229</ele>
        <time>2019-04-14T10:16:03Z</time>
      </trkpt>
      <trkpt lat="44.42817" lon="1.35056">
        <ele>229</ele>
        <time>2019-04-14T10:16:04Z</time>
      </trkpt>
      <trkpt lat="44.42819" lon="1.35055">
        <ele>228</ele>
        <time>2019-04-14T10:16:05Z</time>
      </trkpt>
      <trkpt lat="44.42822" lon="1.35057">
        <ele>228</ele>
        <time>2019-04-14T10:16:06Z</time>
      </trkpt>
      <trkpt lat="44.42822" lon="1.35058">
        <ele>228</ele>
        <time>2019-04-14T10:16:07Z</time>
      </trkpt>
      <trkpt lat="44.42825" lon="1.35057">
        <ele>227</ele>
        <time>2019-04-14T10:16:08Z</time>
      </trkpt>
      <trkpt lat="44.42828" lon="1.35055">
        <ele>226</ele>
        <time>2019-04-14T10:16:09Z</time>
      </trkpt>
      <trkpt lat="44.42831" lon="1.35055">
        <ele>226</ele>
        <time>2019-04-14T10:16:10Z</time>
      </trkpt>
      <trkpt lat="44.42834" lon="1.35056">
        <ele>225</ele>
        <time>2019-04-14T10:16:11Z</time>
      </trkpt>
      <trkpt lat="44.42838" lon="1.35057">
        <ele>225</ele>
        <time>2019-04-14T10:16:12Z</time>
      </trkpt>
      <trkpt lat="44.42842" lon="1.35059">
        <ele>224</ele>
        <time>2019-04-14T10:16:13Z</time>
      </trkpt>
      <trkpt lat="44.42846" lon="1.35061">
        <ele>224</ele>
        <time>2019-04-14T10:16:14Z</time>
      </trkpt>
      <trkpt lat="44.42849" lon="1.35064">
        <ele>224</ele>
        <time>2019-04-14T10:16:15Z</time>
      </trkpt>
      <trkpt lat="44.42853" lon="1.35064">
        <ele>224</ele>
        <time>2019-04-14T10:16:16Z</time>
      </trkpt>
      <trkpt lat="44.42857" lon="1.35064">
        <ele>223</ele>
        <time>2019-04-14T10:16:17Z</time>
      </trkpt>
      <trkpt lat="44.4286" lon="1.35063">
        <ele>223</ele>
        <time>2019-04-14T10:16:18Z</time>
      </trkpt>
      <trkpt lat="44.42863" lon="1.35061">
        <ele>222</ele>
        <time>2019-04-14T10:16:19Z</time>
      </trkpt>
      <trkpt lat="44.42865" lon="1.3506">
        <ele>222</ele>
        <time>2019-04-14T10:16:20Z</time>
      </trkpt>
      <trkpt lat="44.42868" lon="1.35059">
        <ele>221</ele>
        <time>2019-04-14T10:16:21Z</time>
      </trkpt>
      <trkpt lat="44.42871" lon="1.35059">
        <ele>221</ele>
        <time>2019-04-14T10:16:22Z</time>
      </trkpt>
      <trkpt lat="44.42874" lon="1.35058">
        <ele>221</ele>
        <time>2019-04-14T10:16:23Z</time>
      </trkpt>
      <trkpt lat="44.42877" lon="1.35056">
        <ele>220</ele>
        <time>2019-04-14T10:16:24Z</time>
      </trkpt>
      <trkpt lat="44.42882" lon="1.35055">
        <ele>219</ele>
        <time>2019-04-14T10:16:25Z</time>
      </trkpt>
      <trkpt lat="44.42885" lon="1.35057">
        <ele>219</ele>
        <time>2019-04-14T10:16:26Z</time>
      </trkpt>
      <trkpt lat="44.4289" lon="1.35057">
        <ele>218</ele>
        <time>2019-04-14T10:16:27Z</time>
      </trkpt>
      <trkpt lat="44.42893" lon="1.35055">
        <ele>217</ele>
        <time>2019-04-14T10:16:28Z</time>
      </trkpt>
      <trkpt lat="44.42895" lon="1.35049">
        <ele>217</ele>
        <time>2019-04-14T10:16:29Z</time>
      </trkpt>
      <trkpt lat="44.42894" lon="1.35045">
        <ele>216</ele>
        <time>2019-04-14T10:16:30Z</time>
      </trkpt>
      <trkpt lat="44.42896" lon="1.35042">
        <ele>215</ele>
        <time>2019-04-14T10:16:31Z</time>
      </trkpt>
      <trkpt lat="44.42898" lon="1.35041">
        <ele>215</ele>
        <time>2019-04-14T10:16:32Z</time>
      </trkpt>
      <trkpt lat="44.42901" lon="1.35041">
        <ele>214</ele>
        <time>2019-04-14T10:16:33Z</time>
      </trkpt>
      <trkpt lat="44.42903" lon="1.35041">
        <ele>214</ele>
        <time>2019-04-14T10:16:34Z</time>
      </trkpt>
      <trkpt lat="44.42905" lon="1.35042">
        <ele>214</ele>
        <time>2019-04-14T10:16:35Z</time>
      </trkpt>
      <trkpt lat="44.42907" lon="1.35042">
        <ele>213</ele>
        <time>2019-04-14T10:16:36Z</time>
      </trkpt>
      <trkpt lat="44.42911" lon="1.35043">
        <ele>213</ele>
        <time>2019-04-14T10:16:37Z</time>
      </trkpt>
      <trkpt lat="44.42915" lon="1.35042">
        <ele>213</ele>
        <time>2019-04-14T10:16:38Z</time>
      </trkpt>
      <trkpt lat="44.42918" lon="1.3504">
        <ele>212</ele>
        <time>2019-04-14T10:16:39Z</time>
      </trkpt>
      <trkpt lat="44.42922" lon="1.35037">
        <ele>211</ele>
        <time>2019-04-14T10:16:40Z</time>
      </trkpt>
      <trkpt lat="44.42925" lon="1.35034">
        <ele>210</ele>
        <time>2019-04-14T10:16:41Z</time>
      </trkpt>
      <trkpt lat="44.42929" lon="1.35033">
        <ele>209</ele>
        <time>2019-04-14T10:16:42Z</time>
      </trkpt>
      <trkpt lat="44.42931" lon="1.35035">
        <ele>209</ele>
        <time>2019-04-14T10:16:43Z</time>
      </trkpt>
      <trkpt lat="44.42934" lon="1.35037">
        <ele>209</ele>
        <time>2019-04-14T10:16:44Z</time>
      </trkpt>
      <trkpt lat="44.42937" lon="1.35037">
        <ele>208</ele>
        <time>2019-04-14T10:16:45Z</time>
      </trkpt>
      <trkpt lat="44.42939" lon="1.35038">
        <ele>208</ele>
        <time>2019-04-14T10:16:46Z</time>
      </trkpt>
      <trkpt lat="44.42941" lon="1.35038">
        <ele>208</ele>
        <time>2019-04-14T10:16:47Z</time>
      </trkpt>
      <trkpt lat="44.42942" lon="1.35036">
        <ele>207</ele>
        <time>2019-04-14T10:16:48Z</time>
      </trkpt>
      <trkpt lat="44.42943" lon="1.35033">
        <ele>207</ele>
        <time>2019-04-14T10:16:49Z</time>
      </trkpt>
      <trkpt lat="44.42943" lon="1.3503">
        <ele>207</ele>
        <time>2019-04-14T10:16:50Z</time>
      </trkpt>
      <trkpt lat="44.42946" lon="1.3503">
        <ele>206</ele>
        <time>2019-04-14T10:16:51Z</time>
      </trkpt>
      <trkpt lat="44.4295" lon="1.3503">
        <ele>206</ele>
        <time>2019-04-14T10:16:52Z</time>
      </trkpt>
      <trkpt lat="44.42954" lon="1.3503">
        <ele>205</ele>
        <time>2019-04-14T10:16:53Z</time>
      </trkpt>
      <trkpt lat="44.42958" lon="1.3503">
        <ele>205</ele>
        <time>2019-04-14T10:16:54Z</time>
      </trkpt>
      <trkpt lat="44.42961" lon="1.35028">
        <ele>204</ele>
        <time>2019-04-14T10:16:55Z</time>
      </trkpt>
      <trkpt lat="44.42965" lon="1.35027">
        <ele>203</ele>
        <time>2019-04-14T10:16:56Z</time>
      </trkpt>
      <trkpt lat="44.4297" lon="1.35027">
        <ele>203</ele>
        <time>2019-04-14T10:16:57Z</time>
      </trkpt>
      <trkpt lat="44.42973" lon="1.35025">
        <ele>202</ele>
        <time>2019-04-14T10:16:58Z</time>
      </trkpt>
      <trkpt lat="44.42977" lon="1.35024">
        <ele>201</ele>
        <time>2019-04-14T10:16:59Z</time>
      </trkpt>
      <trkpt lat="44.42981" lon="1.35023">
        <ele>201</ele>
        <time>2019-04-14T10:17:00Z</time>
      </trkpt>
      <trkpt lat="44.42984" lon="1.35024">
        <ele>200</ele>
        <time>2019-04-14T10:17:01Z</time>
      </trkpt>
      <trkpt lat="44.42988" lon="1.35023">
        <ele>200</ele>
        <time>2019-04-14T10:17:02Z</time>
      </trkpt>
      <trkpt lat="44.42993" lon="1.3502">
        <ele>199</ele>
        <time>2019-04-14T10:17:03Z</time>
      </trkpt>
      <trkpt lat="44.42998" lon="1.35018">
        <ele>198</ele>
        <time>2019-04-14T10:17:04Z</time>
      </trkpt>
      <trkpt lat="44.43003" lon="1.35016">
        <ele>197</ele>
        <time>2019-04-14T10:17:05Z</time>
      </trkpt>
      <trkpt lat="44.43006" lon="1.35014">
        <ele>196</ele>
        <time>2019-04-14T10:17:06Z</time>
      </trkpt>
      <trkpt lat="44.4301" lon="1.35013">
        <ele>196</ele>
        <time>2019-04-14T10:17:07Z</time>
      </trkpt>
      <trkpt lat="44.43015" lon="1.3501">
        <ele>195</ele>
        <time>2019-04-14T10:17:08Z</time>
      </trkpt>
      <trkpt lat="44.43019" lon="1.35006">
        <ele>194</ele>
        <time>2019-04-14T10:17:09Z</time>
      </trkpt>
      <trkpt lat="44.43022" lon="1.35002">
        <ele>193</ele>
        <time>2019-04-14T10:17:10Z</time>
      </trkpt>
      <trkpt lat="44.43026" lon="1.34999">
        <ele>192</ele>
        <time>2019-04-14T10:17:11Z</time>
      </trkpt>
      <trkpt lat="44.43029" lon="1.34997">
        <ele>192</ele>
        <time>2019-04-14T10:17:12Z</time>
      </trkpt>
      <trkpt lat="44.43032" lon="1.34995">
        <ele>191</ele>
        <time>2019-04-14T10:17:13Z</time>
      </trkpt>
      <trkpt lat="44.43033" lon="1.34992">
        <ele>190</ele>
        <time>2019-04-14T10:17:14Z</time>
      </trkpt>
      <trkpt lat="44.43035" lon="1.34989">
        <ele>189</ele>
        <time>2019-04-14T10:17:15Z</time>
      </trkpt>
      <trkpt lat="44.43038" lon="1.34986">
        <ele>188</ele>
        <time>2019-04-14T10:17:16Z</time>
      </trkpt>
      <trkpt lat="44.4304" lon="1.34984">
        <ele>188</ele>
        <time>2019-04-14T10:17:17Z</time>
      </trkpt>
      <trkpt lat="44.43043" lon="1.34984">
        <ele>187</ele>
        <time>2019-04-14T10:17:18Z</time>
      </trkpt>
      <trkpt lat="44.43045" lon="1.34985">
        <ele>187</ele>
        <time>2019-04-14T10:17:19Z</time>
      </trkpt>
      <trkpt lat="44.43048" lon="1.34985">
        <ele>187</ele>
        <time>2019-04-14T10:17:20Z</time>
      </trkpt>
      <trkpt lat="44.43051" lon="1.34986">
        <ele>187</ele>
        <time>2019-04-14T10:17:21Z</time>
      </trkpt>
      <trkpt lat="44.43053" lon="1.34988">
        <ele>187</ele>
        <time>2019-04-14T10:17:22Z</time>
      </trkpt>
      <trkpt lat="44.43055" lon="1.3499">
        <ele>186</ele>
        <time>2019-04-14T10:17:23Z</time>
      </trkpt>
      <trkpt lat="44.43056" lon="1.34992">
        <ele>187</ele>
        <time>2019-04-14T10:17:24Z</time>
      </trkpt>
      <trkpt lat="44.43058" lon="1.34993">
        <ele>187</ele>
        <time>2019-04-14T10:17:25Z</time>
      </trkpt>
      <trkpt lat="44.4306" lon="1.34992">
        <ele>186</ele>
        <time>2019-04-14T10:17:26Z</time>
      </trkpt>
      <trkpt lat="44.43063" lon="1.34991">
        <ele>186</ele>
        <time>2019-04-14T10:17:27Z</time>
      </trkpt>
      <trkpt lat="44.43065" lon="1.3499">
        <ele>185</ele>
        <time>2019-04-14T10:17:28Z</time>
      </trkpt>
      <trkpt lat="44.43068" lon="1.34986">
        <ele>185</ele>
        <time>2019-04-14T10:17:29Z</time>
      </trkpt>
      <trkpt lat="44.4307" lon="1.34983">
        <ele>184</ele>
        <time>2019-04-14T10:17:30Z</time>
      </trkpt>
      <trkpt lat="44.43072" lon="1.34979">
        <ele>183</ele>
        <time>2019-04-14T10:17:31Z</time>
      </trkpt>
      <trkpt lat="44.43074" lon="1.34977">
        <ele>182</ele>
        <time>2019-04-14T10:17:32Z</time>
      </trkpt>
      <trkpt lat="44.43076" lon="1.34976">
        <ele>180</ele>
        <time>2019-04-14T10:17:33Z</time>
      </trkpt>
      <trkpt lat="44.43079" lon="1.34976">
        <ele>180</ele>
        <time>2019-04-14T10:17:34Z</time>
      </trkpt>
      <trkpt lat="44.43082" lon="1.34977">
        <ele>179</ele>
        <time>2019-04-14T10:17:35Z</time>
      </trkpt>
      <trkpt lat="44.43085" lon="1.34978">
        <ele>178</ele>
        <time>2019-04-14T10:17:36Z</time>
      </trkpt>
      <trkpt lat="44.43088" lon="1.34979">
        <ele>178</ele>
        <time>2019-04-14T10:17:37Z</time>
      </trkpt>
      <trkpt lat="44.43092" lon="1.34981">
        <ele>177</ele>
        <time>2019-04-14T10:17:38Z</time>
      </trkpt>
      <trkpt lat="44.43095" lon="1.34983">
        <ele>176</ele>
        <time>2019-04-14T10:17:39Z</time>
      </trkpt>
      <trkpt lat="44.43099" lon="1.34985">
        <ele>175</ele>
        <time>2019-04-14T10:17:40Z</time>
      </trkpt>
      <trkpt lat="44.43102" lon="1.34988">
        <ele>175</ele>
        <time>2019-04-14T10:17:41Z</time>
      </trkpt>
      <trkpt lat="44.43105" lon="1.34989">
        <ele>174</ele>
        <time>2019-04-14T10:17:42Z</time>
      </trkpt>
      <trkpt lat="44.43108" lon="1.34989">
        <ele>173</ele>
        <time>2019-04-14T10:17:43Z</time>
      </trkpt>
      <trkpt lat="44.43111" lon="1.3499">
        <ele>172</ele>
        <time>2019-04-14T10:17:44Z</time>
      </trkpt>
      <trkpt lat="44.43115" lon="1.34993">
        <ele>171</ele>
        <time>2019-04-14T10:17:45Z</time>
      </trkpt>
      <trkpt lat="44.43118" lon="1.34996">
        <ele>170</ele>
        <time>2019-04-14T10:17:46Z</time>
      </trkpt>
      <trkpt lat="44.43121" lon="1.34998">
        <ele>170</ele>
        <time>2019-04-14T10:17:47Z</time>
      </trkpt>
      <trkpt lat="44.43123" lon="1.35">
        <ele>169</ele>
        <time>2019-04-14T10:17:48Z</time>
      </trkpt>
      <trkpt lat="44.43123" lon="1.35">
        <ele>169</ele>
        <time>2019-04-14T10:17:49Z</time>
      </trkpt>
      <trkpt lat="44.43123" lon="1.35">
        <ele>169</ele>
        <time>2019-04-14T10:17:50Z</time>
      </trkpt>
      <trkpt lat="44.43124" lon="1.35">
        <ele>169</ele>
        <time>2019-04-14T10:17:51Z</time>
      </trkpt>
      <trkpt lat="44.43124" lon="1.35001">
        <ele>169</ele>
        <time>2019-04-14T10:17:52Z</time>
      </trkpt>
      <trkpt lat="44.43124" lon="1.35001">
        <ele>169</ele>
        <time>2019-04-14T10:17:53Z</time>
      </trkpt>
      <trkpt lat="44.43124" lon="1.35001">
        <ele>169</ele>
        <time>2019-04-14T10:17:54Z</time>
      </trkpt>
      <trkpt lat="44.43124" lon="1.35001">
        <ele>169</ele>
        <time>2019-04-14T10:17:55Z</time>
      </trkpt>
      <trkpt lat="44.43124" lon="1.35001">
        <ele>169</ele>
        <time>2019-04-14T10:17:56Z</time>
      </trkpt>
      <trkpt lat="44.43141" lon="1.34998">
        <ele>163</ele>
        <time>2019-04-14T10:22:41Z</time>
      </trkpt>
      <trkpt lat="44.43142" lon="1.35">
        <ele>163</ele>
        <time>2019-04-14T10:22:42Z</time>
      </trkpt>
      <trkpt lat="44.43144" lon="1.35001">
        <ele>163</ele>
        <time>2019-04-14T10:22:43Z</time>
      </trkpt>
      <trkpt lat="44.43145" lon="1.35001">
        <ele>162</ele>
        <time>2019-04-14T10:22:44Z</time>
      </trkpt>
      <trkpt lat="44.43146" lon="1.35">
        <ele>162</ele>
        <time>2019-04-14T10:22:45Z</time>
      </trkpt>
      <trkpt lat="44.43147" lon="1.34998">
        <ele>161</ele>
        <time>2019-04-14T10:22:46Z</time>
      </trkpt>
      <trkpt lat="44.43148" lon="1.34996">
        <ele>160</ele>
        <time>2019-04-14T10:22:47Z</time>
      </trkpt>
      <trkpt lat="44.43149" lon="1.34994">
        <ele>160</ele>
        <time>2019-04-14T10:22:48Z</time>
      </trkpt>
      <trkpt lat="44.43149" lon="1.34991">
        <ele>159</ele>
        <time>2019-04-14T10:22:49Z</time>
      </trkpt>
      <trkpt lat="44.43148" lon="1.34989">
        <ele>159</ele>
        <time>2019-04-14T10:22:50Z</time>
      </trkpt>
      <trkpt lat="44.43147" lon="1.34987">
        <ele>159</ele>
        <time>2019-04-14T10:22:51Z</time>
      </trkpt>
      <trkpt lat="44.43146" lon="1.34986">
        <ele>159</ele>
        <time>2019-04-14T10:22:52Z</time>
      </trkpt>
      <trkpt lat="44.43147" lon="1.34984">
        <ele>159</ele>
        <time>2019-04-14T10:22:53Z</time>
      </trkpt>
      <trkpt lat="44.43147" lon="1.34982">
        <ele>158</ele>
        <time>2019-04-14T10:22:54Z</time>
      </trkpt>
      <trkpt lat="44.43149" lon="1.34981">
        <ele>158</ele>
        <time>2019-04-14T10:22:55Z</time>
      </trkpt>
      <trkpt lat="44.43152" lon="1.3498">
        <ele>157</ele>
        <time>2019-04-14T10:22:56Z</time>
      </trkpt>
      <trkpt lat="44.43154" lon="1.34978">
        <ele>156</ele>
        <time>2019-04-14T10:22:57Z</time>
      </trkpt>
      <trkpt lat="44.43155" lon="1.34977">
        <ele>155</ele>
        <time>2019-04-14T10:22:58Z</time>
      </trkpt>
      <trkpt lat="44.43156" lon="1.34977">
        <ele>154</ele>
        <time>2019-04-14T10:22:59Z</time>
      </trkpt>
      <trkpt lat="44.43157" lon="1.34979">
        <ele>154</ele>
        <time>2019-04-14T10:23:00Z</time>
      </trkpt>
      <trkpt lat="44.43159" lon="1.3498">
        <ele>154</ele>
        <time>2019-04-14T10:23:01Z</time>
      </trkpt>
      <trkpt lat="44.43162" lon="1.34983">
        <ele>153</ele>
        <time>2019-04-14T10:23:02Z</time>
      </trkpt>
      <trkpt lat="44.43163" lon="1.34986">
        <ele>153</ele>
        <time>2019-04-14T10:23:03Z</time>
      </trkpt>
      <trkpt lat="44.43166" lon="1.34986">
        <ele>152</ele>
        <time>2019-04-14T10:23:04Z</time>
      </trkpt>
      <trkpt lat="44.43167" lon="1.34984">
        <ele>152</ele>
        <time>2019-04-14T10:23:05Z</time>
      </trkpt>
      <trkpt lat="44.43168" lon="1.34981">
        <ele>151</ele>
        <time>2019-04-14T10:23:06Z</time>
      </trkpt>
      <trkpt lat="44.43169" lon="1.34977">
        <ele>150</ele>
        <time>2019-04-14T10:23:07Z</time>
      </trkpt>
      <trkpt lat="44.43171" lon="1.34974">
        <ele>149</ele>
        <time>2019-04-14T10:23:08Z</time>
      </trkpt>
      <trkpt lat="44.43172" lon="1.34973">
        <ele>148</ele>
        <time>2019-04-14T10:23:09Z</time>
      </trkpt>
      <trkpt lat="44.43174" lon="1.34973">
        <ele>147</ele>
        <time>2019-04-14T10:23:10Z</time>
      </trkpt>
      <trkpt lat="44.43175" lon="1.34974">
        <ele>146</ele>
        <time>2019-04-14T10:23:11Z</time>
      </trkpt>
      <trkpt lat="44.43176" lon="1.34976">
        <ele>146</ele>
        <time>2019-04-14T10:23:12Z</time>
      </trkpt>
      <trkpt lat="44.43178" lon="1.34978">
        <ele>146</ele>
        <time>2019-04-14T10:23:13Z</time>
      </trkpt>
      <trkpt lat="44.43181" lon="1.34979">
        <ele>145</ele>
        <time>2019-04-14T10:23:14Z</time>
      </trkpt>
      <trkpt lat="44.43183" lon="1.34981">
        <ele>144</ele>
        <time>2019-04-14T10:23:15Z</time>
      </trkpt>
      <trkpt lat="44.43185" lon="1.34983">
        <ele>144</ele>
        <time>2019-04-14T10:23:16Z</time>
      </trkpt>
      <trkpt lat="44.43187" lon="1.34985">
        <ele>143</ele>
        <time>2019-04-14T10:23:17Z</time>
      </trkpt>
      <trkpt lat="44.43188" lon="1.34987">
        <ele>143</ele>
        <time>2019-04-14T10:23:18Z</time>
      </trkpt>
      <trkpt lat="44.43191" lon="1.34989">
        <ele>142</ele>
        <time>2019-04-14T10:23:19Z</time>
      </trkpt>
      <trkpt lat="44.43195" lon="1.34993">
        <ele>142</ele>
        <time>2019-04-14T10:23:20Z</time>
      </trkpt>
      <trkpt lat="44.432" lon="1.34996">
        <ele>142</ele>
        <time>2019-04-14T10:23:21Z</time>
      </trkpt>
      <trkpt lat="44.43203" lon="1.34999">
        <ele>141</ele>
        <time>2019-04-14T10:23:22Z</time>
      </trkpt>
      <trkpt lat="44.43207" lon="1.35001">
        <ele>140</ele>
        <time>2019-04-14T10:23:23Z</time>
      </trkpt>
      <trkpt lat="44.4321" lon="1.35">
        <ele>139</ele>
        <time>2019-04-14T10:23:24Z</time>
      </trkpt>
      <trkpt lat="44.43212" lon="1.34997">
        <ele>138</ele>
        <time>2019-04-14T10:23:25Z</time>
      </trkpt>
      <trkpt lat="44.43215" lon="1.34997">
        <ele>138</ele>
        <time>2019-04-14T10:23:26Z</time>
      </trkpt>
      <trkpt lat="44.43217" lon="1.34996">
        <ele>137</ele>
        <time>2019-04-14T10:23:27Z</time>
      </trkpt>
      <trkpt lat="44.43219" lon="1.34997">
        <ele>137</ele>
        <time>2019-04-14T10:23:28Z</time>
      </trkpt>
      <trkpt lat="44.43221" lon="1.35">
        <ele>137</ele>
        <time>2019-04-14T10:23:29Z</time>
      </trkpt>
      <trkpt lat="44.43224" lon="1.35001">
        <ele>136</ele>
        <time>2019-04-14T10:23:30Z</time>
      </trkpt>
      <trkpt lat="44.43226" lon="1.35002">
        <ele>136</ele>
        <time>2019-04-14T10:23:31Z</time>
      </trkpt>
      <trkpt lat="44.43229" lon="1.35005">
        <ele>136</ele>
        <time>2019-04-14T10:23:32Z</time>
      </trkpt>
      <trkpt lat="44.43232" lon="1.35007">
        <ele>136</ele>
        <time>2019-04-14T10:23:33Z</time>
      </trkpt>
      <trkpt lat="44.43235" lon="1.35011">
        <ele>136</ele>
        <time>2019-04-14T10:23:34Z</time>
      </trkpt>
      <trkpt lat="44.43238" lon="1.35014">
        <ele>136</ele>
        <time>2019-04-14T10:23:35Z</time>
      </trkpt>
      <trkpt lat="44.4324" lon="1.35016">
        <ele>136</ele>
        <time>2019-04-14T10:23:36Z</time>
      </trkpt>
      <trkpt lat="44.43241" lon="1.35016">
        <ele>136</ele>
        <time>2019-04-14T10:23:37Z</time>
      </trkpt>
      <trkpt lat="44.43243" lon="1.35015">
        <ele>135</ele>
        <time>2019-04-14T10:23:38Z</time>
      </trkpt>
      <trkpt lat="44.43244" lon="1.35013">
        <ele>135</ele>
        <time>2019-04-14T10:23:39Z</time>
      </trkpt>
      <trkpt lat="44.43244" lon="1.35011">
        <ele>134</ele>
        <time>2019-04-14T10:23:40Z</time>
      </trkpt>
      <trkpt lat="44.43244" lon="1.3501">
        <ele>134</ele>
        <time>2019-04-14T10:23:41Z</time>
      </trkpt>
      <trkpt lat="44.43243" lon="1.35009">
        <ele>134</ele>
        <time>2019-04-14T10:23:42Z</time>
      </trkpt>
      <trkpt lat="44.43242" lon="1.35008">
        <ele>134</ele>
        <time>2019-04-14T10:23:43Z</time>
      </trkpt>
      <trkpt lat="44.43241" lon="1.35006">
        <ele>134</ele>
        <time>2019-04-14T10:23:44Z</time>
      </trkpt>
      <trkpt lat="44.4324" lon="1.35005">
        <ele>134</ele>
        <time>2019-04-14T10:23:45Z</time>
      </trkpt>
      <trkpt lat="44.43239" lon="1.35004">
        <ele>134</ele>
        <time>2019-04-14T10:23:46Z</time>
      </trkpt>
      <trkpt lat="44.43237" lon="1.35002">
        <ele>134</ele>
        <time>2019-04-14T10:23:47Z</time>
      </trkpt>
      <trkpt lat="44.43235" lon="1.35001">
        <ele>134</ele>
        <time>2019-04-14T10:23:48Z</time>
      </trkpt>
      <trkpt lat="44.43235" lon="1.35">
        <ele>130</ele>
        <time>2019-04-14T10:23:49Z</time>
      </trkpt>
      <trkpt lat="44.43235" lon="1.35">
        <ele>135</ele>
        <time>2019-04-14T10:23:50Z</time>
      </trkpt>
      <trkpt lat="44.43235" lon="1.35">
        <ele>134</ele>
        <time>2019-04-14T10:23:51Z</time>
      </trkpt>
      <trkpt lat="44.43235" lon="1.35">
        <ele>134</ele>
        <time>2019-04-14T10:23:52Z</time>
      </trkpt>
      <trkpt lat="44.43234" lon="1.34999">
        <ele>134</ele>
        <time>2019-04-14T10:23:53Z</time>
      </trkpt>
      <trkpt lat="44.43234" lon="1.34998">
        <ele>134</ele>
        <time>2019-04-14T10:23:54Z</time>
      </trkpt>
      <trkpt lat="44.43232" lon="1.34998">
        <ele>135</ele>
        <time>2019-04-14T10:23:55Z</time>
      </trkpt>
      <trkpt lat="44.43232" lon="1.34997">
        <ele>135</ele>
        <time>2019-04-14T10:23:56Z</time>
      </trkpt>
      <trkpt lat="44.43231" lon="1.34997">
        <ele>135</ele>
        <time>2019-04-14T10:23:57Z</time>
      </trkpt>
      <trkpt lat="44.43232" lon="1.34997">
        <ele>135</ele>
        <time>2019-04-14T10:23:58Z</time>
      </trkpt>
      <trkpt lat="44.43233" lon="1.34998">
        <ele>135</ele>
        <time>2019-04-14T10:23:59Z</time>
      </trkpt>
      <trkpt lat="44.43233" lon="1.34998">
        <ele>135</ele>
        <time>2019-04-14T10:24:00Z</time>
      </trkpt>
      <trkpt lat="44.43233" lon="1.34998">
        <ele>135</ele>
        <time>2019-04-14T10:24:01Z</time>
      </trkpt>
      <trkpt lat="44.43233" lon="1.34998">
        <ele>135</ele>
        <time>2019-04-14T10:24:02Z</time>
      </trkpt>
      <trkpt lat="44.43234" lon="1.34999">
        <ele>135</ele>
        <time>2019-04-14T10:24:03Z</time>
      </trkpt>
      <trkpt lat="44.43225" lon="1.34979">
        <ele>136</ele>
        <time>2019-04-14T10:24:53Z</time>
      </trkpt>
      <trkpt lat="44.43223" lon="1.34977">
        <ele>136</ele>
        <time>2019-04-14T10:24:54Z</time>
      </trkpt>
      <trkpt lat="44.43223" lon="1.34976">
        <ele>136</ele>
        <time>2019-04-14T10:24:55Z</time>
      </trkpt>
      <trkpt lat="44.43222" lon="1.34975">
        <ele>136</ele>
        <time>2019-04-14T10:24:56Z</time>
      </trkpt>
      <trkpt lat="44.43224" lon="1.34977">
        <ele>136</ele>
        <time>2019-04-14T10:24:57Z</time>
      </trkpt>
      <trkpt lat="44.43223" lon="1.34976">
        <ele>136</ele>
        <time>2019-04-14T10:24:58Z</time>
      </trkpt>
      <trkpt lat="44.43222" lon="1.34974">
        <ele>136</ele>
        <time>2019-04-14T10:24:59Z</time>
      </trkpt>
      <trkpt lat="44.4322" lon="1.34972">
        <ele>136</ele>
        <time>2019-04-14T10:25:00Z</time>
      </trkpt>
      <trkpt lat="44.43217" lon="1.34968">
        <ele>136</ele>
        <time>2019-04-14T10:25:01Z</time>
      </trkpt>
      <trkpt lat="44.43215" lon="1.34965">
        <ele>136</ele>
        <time>2019-04-14T10:25:02Z</time>
      </trkpt>
      <trkpt lat="44.43212" lon="1.34963">
        <ele>136</ele>
        <time>2019-04-14T10:25:03Z</time>
      </trkpt>
      <trkpt lat="44.43209" lon="1.34959">
        <ele>137</ele>
        <time>2019-04-14T10:25:04Z</time>
      </trkpt>
      <trkpt lat="44.43207" lon="1.34955">
        <ele>137</ele>
        <time>2019-04-14T10:25:05Z</time>
      </trkpt>
      <trkpt lat="44.43204" lon="1.34951">
        <ele>136</ele>
        <time>2019-04-14T10:25:06Z</time>
      </trkpt>
      <trkpt lat="44.432" lon="1.34948">
        <ele>136</ele>
        <time>2019-04-14T10:25:07Z</time>
      </trkpt>
      <trkpt lat="44.43198" lon="1.34945">
        <ele>136</ele>
        <time>2019-04-14T10:25:08Z</time>
      </trkpt>
      <trkpt lat="44.43197" lon="1.3494">
        <ele>136</ele>
        <time>2019-04-14T10:25:09Z</time>
      </trkpt>
      <trkpt lat="44.43196" lon="1.34937">
        <ele>136</ele>
        <time>2019-04-14T10:25:10Z</time>
      </trkpt>
      <trkpt lat="44.43195" lon="1.34933">
        <ele>136</ele>
        <time>2019-04-14T10:25:11Z</time>
      </trkpt>
      <trkpt lat="44.43193" lon="1.3493">
        <ele>136</ele>
        <time>2019-04-14T10:25:12Z</time>
      </trkpt>
      <trkpt lat="44.43189" lon="1.34927">
        <ele>136</ele>
        <time>2019-04-14T10:25:13Z</time>
      </trkpt>
      <trkpt lat="44.43187" lon="1.34923">
        <ele>136</ele>
        <time>2019-04-14T10:25:14Z</time>
      </trkpt>
      <trkpt lat="44.43186" lon="1.34919">
        <ele>136</ele>
        <time>2019-04-14T10:25:15Z</time>
      </trkpt>
      <trkpt lat="44.43183" lon="1.34915">
        <ele>136</ele>
        <time>2019-04-14T10:25:16Z</time>
      </trkpt>
      <trkpt lat="44.43181" lon="1.34911">
        <ele>136</ele>
        <time>2019-04-14T10:25:17Z</time>
      </trkpt>
      <trkpt lat="44.43179" lon="1.34907">
        <ele>136</ele>
        <time>2019-04-14T10:25:18Z</time>
      </trkpt>
      <trkpt lat="44.43178" lon="1.34904">
        <ele>136</ele>
        <time>2019-04-14T10:25:19Z</time>
      </trkpt>
      <trkpt lat="44.43175" lon="1.34899">
        <ele>136</ele>
        <time>2019-04-14T10:25:20Z</time>
      </trkpt>
      <trkpt lat="44.43172" lon="1.34894">
        <ele>136</ele>
        <time>2019-04-14T10:25:21Z</time>
      </trkpt>
      <trkpt lat="44.43171" lon="1.3489">
        <ele>137</ele>
        <time>2019-04-14T10:25:22Z</time>
      </trkpt>
      <trkpt lat="44.4317" lon="1.34887">
        <ele>137</ele>
        <time>2019-04-14T10:25:23Z</time>
      </trkpt>
      <trkpt lat="44.43168" lon="1.34883">
        <ele>137</ele>
        <time>2019-04-14T10:25:24Z</time>
      </trkpt>
      <trkpt lat="44.43166" lon="1.34879">
        <ele>137</ele>
        <time>2019-04-14T10:25:25Z</time>
      </trkpt>
      <trkpt lat="44.43163" lon="1.34875">
        <ele>137</ele>
        <time>2019-04-14T10:25:26Z</time>
      </trkpt>
      <trkpt lat="44.43161" lon="1.34872">
        <ele>137</ele>
        <time>2019-04-14T10:25:27Z</time>
      </trkpt>
      <trkpt lat="44.4316" lon="1.3487">
        <ele>137</ele>
        <time>2019-04-14T10:25:28Z</time>
      </trkpt>
      <trkpt lat="44.43159" lon="1.34867">
        <ele>137</ele>
        <time>2019-04-14T10:25:29Z</time>
      </trkpt>
      <trkpt lat="44.4316" lon="1.34865">
        <ele>137</ele>
        <time>2019-04-14T10:25:30Z</time>
      </trkpt>
      <trkpt lat="44.4316" lon="1.34864">
        <ele>137</ele>
        <time>2019-04-14T10:25:31Z</time>
      </trkpt>
      <trkpt lat="44.43158" lon="1.34862">
        <ele>137</ele>
        <time>2019-04-14T10:25:32Z</time>
      </trkpt>
      <trkpt lat="44.43157" lon="1.3486">
        <ele>137</ele>
        <time>2019-04-14T10:25:33Z</time>
      </trkpt>
      <trkpt lat="44.43155" lon="1.34858">
        <ele>137</ele>
        <time>2019-04-14T10:25:34Z</time>
      </trkpt>
      <trkpt lat="44.43153" lon="1.34856">
        <ele>137</ele>
        <time>2019-04-14T10:25:35Z</time>
      </trkpt>
      <trkpt lat="44.43151" lon="1.34854">
        <ele>137</ele>
        <time>2019-04-14T10:25:36Z</time>
      </trkpt>
      <trkpt lat="44.43147" lon="1.34852">
        <ele>137</ele>
        <time>2019-04-14T10:25:37Z</time>
      </trkpt>
      <trkpt lat="44.43144" lon="1.3485">
        <ele>137</ele>
        <time>2019-04-14T10:25:38Z</time>
      </trkpt>
      <trkpt lat="44.4314" lon="1.34847">
        <ele>138</ele>
        <time>2019-04-14T10:25:39Z</time>
      </trkpt>
      <trkpt lat="44.43134" lon="1.34843">
        <ele>138</ele>
        <time>2019-04-14T10:25:40Z</time>
      </trkpt>
      <trkpt lat="44.43132" lon="1.34841">
        <ele>138</ele>
        <time>2019-04-14T10:25:41Z</time>
      </trkpt>
      <trkpt lat="44.43127" lon="1.34839">
        <ele>138</ele>
        <time>2019-04-14T10:25:42Z</time>
      </trkpt>
      <trkpt lat="44.43124" lon="1.34836">
        <ele>138</ele>
        <time>2019-04-14T10:25:43Z</time>
      </trkpt>
      <trkpt lat="44.43122" lon="1.34833">
        <ele>138</ele>
        <time>2019-04-14T10:25:44Z</time>
      </trkpt>
      <trkpt lat="44.4312" lon="1.34831">
        <ele>138</ele>
        <time>2019-04-14T10:25:45Z</time>
      </trkpt>
      <trkpt lat="44.43118" lon="1.34828">
        <ele>138</ele>
        <time>2019-04-14T10:25:46Z</time>
      </trkpt>
      <trkpt lat="44.43118" lon="1.34824">
        <ele>138</ele>
        <time>2019-04-14T10:25:47Z</time>
      </trkpt>
      <trkpt lat="44.43119" lon="1.34821">
        <ele>138</ele>
        <time>2019-04-14T10:25:48Z</time>
      </trkpt>
      <trkpt lat="44.43118" lon="1.34818">
        <ele>138</ele>
        <time>2019-04-14T10:25:49Z</time>
      </trkpt>
      <trkpt lat="44.43119" lon="1.34816">
        <ele>138</ele>
        <time>2019-04-14T10:25:50Z</time>
      </trkpt>
      <trkpt lat="44.4312" lon="1.34813">
        <ele>138</ele>
        <time>2019-04-14T10:25:51Z</time>
      </trkpt>
      <trkpt lat="44.4312" lon="1.3481">
        <ele>138</ele>
        <time>2019-04-14T10:25:52Z</time>
      </trkpt>
      <trkpt lat="44.43119" lon="1.34807">
        <ele>138</ele>
        <time>2019-04-14T10:25:53Z</time>
      </trkpt>
      <trkpt lat="44.43119" lon="1.34803">
        <ele>138</ele>
        <time>2019-04-14T10:25:54Z</time>
      </trkpt>
      <trkpt lat="44.4312" lon="1.34798">
        <ele>138</ele>
        <time>2019-04-14T10:25:55Z</time>
      </trkpt>
      <trkpt lat="44.4312" lon="1.34795">
        <ele>138</ele>
        <time>2019-04-14T10:25:56Z</time>
      </trkpt>
      <trkpt lat="44.4312" lon="1.34792">
        <ele>138</ele>
        <time>2019-04-14T10:25:57Z</time>
      </trkpt>
      <trkpt lat="44.43118" lon="1.3479">
        <ele>138</ele>
        <time>2019-04-14T10:25:58Z</time>
      </trkpt>
      <trkpt lat="44.43116" lon="1.34787">
        <ele>138</ele>
        <time>2019-04-14T10:25:59Z</time>
      </trkpt>
      <trkpt lat="44.43112" lon="1.34782">
        <ele>139</ele>
        <time>2019-04-14T10:26:00Z</time>
      </trkpt>
      <trkpt lat="44.43111" lon="1.34777">
        <ele>139</ele>
        <time>2019-04-14T10:26:01Z</time>
      </trkpt>
      <trkpt lat="44.43108" lon="1.34773">
        <ele>139</ele>
        <time>2019-04-14T10:26:02Z</time>
      </trkpt>
      <trkpt lat="44.43107" lon="1.34768">
        <ele>139</ele>
        <time>2019-04-14T10:26:03Z</time>
      </trkpt>
      <trkpt lat="44.43107" lon="1.34765">
        <ele>139</ele>
        <time>2019-04-14T10:26:04Z</time>
      </trkpt>
      <trkpt lat="44.43108" lon="1.34762">
        <ele>139</ele>
        <time>2019-04-14T10:26:05Z</time>
      </trkpt>
      <trkpt lat="44.43106" lon="1.34757">
        <ele>139</ele>
        <time>2019-04-14T10:26:06Z</time>
      </trkpt>
      <trkpt lat="44.43104" lon="1.34753">
        <ele>139</ele>
        <time>2019-04-14T10:26:07Z</time>
      </trkpt>
      <trkpt lat="44.43105" lon="1.3475">
        <ele>139</ele>
        <time>2019-04-14T10:26:08Z</time>
      </trkpt>
      <trkpt lat="44.43099" lon="1.34747">
        <ele>139</ele>
        <time>2019-04-14T10:26:09Z</time>
      </trkpt>
      <trkpt lat="44.43097" lon="1.34744">
        <ele>140</ele>
        <time>2019-04-14T10:26:10Z</time>
      </trkpt>
      <trkpt lat="44.43096" lon="1.34741">
        <ele>140</ele>
        <time>2019-04-14T10:26:11Z</time>
      </trkpt>
      <trkpt lat="44.43099" lon="1.34737">
        <ele>140</ele>
        <time>2019-04-14T10:26:12Z</time>
      </trkpt>
      <trkpt lat="44.43101" lon="1.34735">
        <ele>140</ele>
        <time>2019-04-14T10:26:13Z</time>
      </trkpt>
      <trkpt lat="44.43099" lon="1.34731">
        <ele>140</ele>
        <time>2019-04-14T10:26:14Z</time>
      </trkpt>
      <trkpt lat="44.43095" lon="1.34727">
        <ele>140</ele>
        <time>2019-04-14T10:26:15Z</time>
      </trkpt>
      <trkpt lat="44.43089" lon="1.34722">
        <ele>140</ele>
        <time>2019-04-14T10:26:16Z</time>
      </trkpt>
      <trkpt lat="44.43089" lon="1.3472">
        <ele>140</ele>
        <time>2019-04-14T10:26:17Z</time>
      </trkpt>
      <trkpt lat="44.43088" lon="1.34717">
        <ele>140</ele>
        <time>2019-04-14T10:26:18Z</time>
      </trkpt>
      <trkpt lat="44.43085" lon="1.34715">
        <ele>140</ele>
        <time>2019-04-14T10:26:19Z</time>
      </trkpt>
      <trkpt lat="44.43085" lon="1.34712">
        <ele>140</ele>
        <time>2019-04-14T10:26:20Z</time>
      </trkpt>
      <trkpt lat="44.43083" lon="1.34709">
        <ele>140</ele>
        <time>2019-04-14T10:26:21Z</time>
      </trkpt>
      <trkpt lat="44.43079" lon="1.34706">
        <ele>140</ele>
        <time>2019-04-14T10:26:22Z</time>
      </trkpt>
      <trkpt lat="44.43073" lon="1.347">
        <ele>140</ele>
        <time>2019-04-14T10:26:23Z</time>
      </trkpt>
      <trkpt lat="44.43071" lon="1.34697">
        <ele>140</ele>
        <time>2019-04-14T10:26:24Z</time>
      </trkpt>
      <trkpt lat="44.43071" lon="1.34693">
        <ele>140</ele>
        <time>2019-04-14T10:26:25Z</time>
      </trkpt>
      <trkpt lat="44.43069" lon="1.34691">
        <ele>140</ele>
        <time>2019-04-14T10:26:26Z</time>
      </trkpt>
      <trkpt lat="44.43067" lon="1.34687">
        <ele>140</ele>
        <time>2019-04-14T10:26:27Z</time>
      </trkpt>
      <trkpt lat="44.43063" lon="1.34684">
        <ele>140</ele>
        <time>2019-04-14T10:26:28Z</time>
      </trkpt>
      <trkpt lat="44.4306" lon="1.34681">
        <ele>140</ele>
        <time>2019-04-14T10:26:29Z</time>
      </trkpt>
      <trkpt lat="44.4306" lon="1.34679">
        <ele>140</ele>
        <time>2019-04-14T10:26:30Z</time>
      </trkpt>
      <trkpt lat="44.43061" lon="1.34676">
        <ele>140</ele>
        <time>2019-04-14T10:26:31Z</time>
      </trkpt>
      <trkpt lat="44.43055" lon="1.34673">
        <ele>141</ele>
        <time>2019-04-14T10:26:32Z</time>
      </trkpt>
      <trkpt lat="44.43053" lon="1.3467">
        <ele>141</ele>
        <time>2019-04-14T10:26:33Z</time>
      </trkpt>
      <trkpt lat="44.43054" lon="1.34667">
        <ele>141</ele>
        <time>2019-04-14T10:26:34Z</time>
      </trkpt>
      <trkpt lat="44.43054" lon="1.34665">
        <ele>141</ele>
        <time>2019-04-14T10:26:35Z</time>
      </trkpt>
      <trkpt lat="44.43051" lon="1.34661">
        <ele>141</ele>
        <time>2019-04-14T10:26:36Z</time>
      </trkpt>
      <trkpt lat="44.4305" lon="1.34658">
        <ele>141</ele>
        <time>2019-04-14T10:26:37Z</time>
      </trkpt>
      <trkpt lat="44.43048" lon="1.34657">
        <ele>141</ele>
        <time>2019-04-14T10:26:38Z</time>
      </trkpt>
      <trkpt lat="44.43045" lon="1.34654">
        <ele>141</ele>
        <time>2019-04-14T10:26:39Z</time>
      </trkpt>
      <trkpt lat="44.43046" lon="1.34652">
        <ele>141</ele>
        <time>2019-04-14T10:26:40Z</time>
      </trkpt>
      <trkpt lat="44.43045" lon="1.34649">
        <ele>141</ele>
        <time>2019-04-14T10:26:41Z</time>
      </trkpt>
      <trkpt lat="44.43042" lon="1.34646">
        <ele>141</ele>
        <time>2019-04-14T10:26:42Z</time>
      </trkpt>
      <trkpt lat="44.43038" lon="1.34643">
        <ele>141</ele>
        <time>2019-04-14T10:26:43Z</time>
      </trkpt>
      <trkpt lat="44.43036" lon="1.3464">
        <ele>141</ele>
        <time>2019-04-14T10:26:44Z</time>
      </trkpt>
      <trkpt lat="44.43032" lon="1.34637">
        <ele>141</ele>
        <time>2019-04-14T10:26:45Z</time>
      </trkpt>
      <trkpt lat="44.43034" lon="1.34634">
        <ele>141</ele>
        <time>2019-04-14T10:26:46Z</time>
      </trkpt>
      <trkpt lat="44.43028" lon="1.34632">
        <ele>141</ele>
        <time>2019-04-14T10:26:47Z</time>
      </trkpt>
      <trkpt lat="44.43024" lon="1.34628">
        <ele>141</ele>
        <time>2019-04-14T10:26:48Z</time>
      </trkpt>
      <trkpt lat="44.43023" lon="1.34626">
        <ele>142</ele>
        <time>2019-04-14T10:26:49Z</time>
      </trkpt>
      <trkpt lat="44.43021" lon="1.34622">
        <ele>142</ele>
        <time>2019-04-14T10:26:50Z</time>
      </trkpt>
      <trkpt lat="44.43017" lon="1.3462">
        <ele>142</ele>
        <time>2019-04-14T10:26:51Z</time>
      </trkpt>
      <trkpt lat="44.43017" lon="1.34616">
        <ele>142</ele>
        <time>2019-04-14T10:26:52Z</time>
      </trkpt>
      <trkpt lat="44.43013" lon="1.34614">
        <ele>142</ele>
        <time>2019-04-14T10:26:53Z</time>
      </trkpt>
      <trkpt lat="44.43009" lon="1.34611">
        <ele>142</ele>
        <time>2019-04-14T10:26:54Z</time>
      </trkpt>
      <trkpt lat="44.43007" lon="1.34607">
        <ele>142</ele>
        <time>2019-04-14T10:26:55Z</time>
      </trkpt>
      <trkpt lat="44.43006" lon="1.34604">
        <ele>142</ele>
        <time>2019-04-14T10:26:56Z</time>
      </trkpt>
      <trkpt lat="44.43007" lon="1.34601">
        <ele>142</ele>
        <time>2019-04-14T10:26:57Z</time>
      </trkpt>
      <trkpt lat="44.43007" lon="1.34599">
        <ele>142</ele>
        <time>2019-04-14T10:26:58Z</time>
      </trkpt>
      <trkpt lat="44.43006" lon="1.34597">
        <ele>142</ele>
        <time>2019-04-14T10:26:59Z</time>
      </trkpt>
      <trkpt lat="44.43006" lon="1.34593">
        <ele>142</ele>
        <time>2019-04-14T10:27:00Z</time>
      </trkpt>
      <trkpt lat="44.43005" lon="1.34589">
        <ele>142</ele>
        <time>2019-04-14T10:27:01Z</time>
      </trkpt>
      <trkpt lat="44.43005" lon="1.34587">
        <ele>143</ele>
        <time>2019-04-14T10:27:02Z</time>
      </trkpt>
      <trkpt lat="44.43006" lon="1.34584">
        <ele>143</ele>
        <time>2019-04-14T10:27:03Z</time>
      </trkpt>
      <trkpt lat="44.43005" lon="1.34581">
        <ele>143</ele>
        <time>2019-04-14T10:27:04Z</time>
      </trkpt>
      <trkpt lat="44.43003" lon="1.34579">
        <ele>143</ele>
        <time>2019-04-14T10:27:05Z</time>
      </trkpt>
      <trkpt lat="44.43001" lon="1.34575">
        <ele>143</ele>
        <time>2019-04-14T10:27:06Z</time>
      </trkpt>
      <trkpt lat="44.43" lon="1.34572">
        <ele>143</ele>
        <time>2019-04-14T10:27:07Z</time>
      </trkpt>
      <trkpt lat="44.42998" lon="1.34569">
        <ele>143</ele>
        <time>2019-04-14T10:27:08Z</time>
      </trkpt>
      <trkpt lat="44.42997" lon="1.34565">
        <ele>143</ele>
        <time>2019-04-14T10:27:09Z</time>
      </trkpt>
      <trkpt lat="44.42996" lon="1.34563">
        <ele>143</ele>
        <time>2019-04-14T10:27:10Z</time>
      </trkpt>
      <trkpt lat="44.42994" lon="1.3456">
        <ele>143</ele>
        <time>2019-04-14T10:27:11Z</time>
      </trkpt>
      <trkpt lat="44.42992" lon="1.34557">
        <ele>143</ele>
        <time>2019-04-14T10:27:12Z</time>
      </trkpt>
      <trkpt lat="44.4299" lon="1.34554">
        <ele>143</ele>
        <time>2019-04-14T10:27:13Z</time>
      </trkpt>
      <trkpt lat="44.4299" lon="1.34552">
        <ele>143</ele>
        <time>2019-04-14T10:27:14Z</time>
      </trkpt>
      <trkpt lat="44.42991" lon="1.34549">
        <ele>144</ele>
        <time>2019-04-14T10:27:15Z</time>
      </trkpt>
      <trkpt lat="44.4299" lon="1.34545">
        <ele>144</ele>
        <time>2019-04-14T10:27:16Z</time>
      </trkpt>
      <trkpt lat="44.42988" lon="1.34542">
        <ele>144</ele>
        <time>2019-04-14T10:27:17Z</time>
      </trkpt>
      <trkpt lat="44.42984" lon="1.34538">
        <ele>144</ele>
        <time>2019-04-14T10:27:18Z</time>
      </trkpt>
      <trkpt lat="44.42984" lon="1.34534">
        <ele>144</ele>
        <time>2019-04-14T10:27:19Z</time>
      </trkpt>
      <trkpt lat="44.42983" lon="1.34532">
        <ele>144</ele>
        <time>2019-04-14T10:27:20Z</time>
      </trkpt>
      <trkpt lat="44.42982" lon="1.34527">
        <ele>144</ele>
        <time>2019-04-14T10:27:21Z</time>
      </trkpt>
      <trkpt lat="44.42982" lon="1.34522">
        <ele>144</ele>
        <time>2019-04-14T10:27:22Z</time>
      </trkpt>
      <trkpt lat="44.42982" lon="1.3452">
        <ele>144</ele>
        <time>2019-04-14T10:27:23Z</time>
      </trkpt>
      <trkpt lat="44.42977" lon="1.34516">
        <ele>144</ele>
        <time>2019-04-14T10:27:24Z</time>
      </trkpt>
      <trkpt lat="44.42975" lon="1.34513">
        <ele>144</ele>
        <time>2019-04-14T10:27:25Z</time>
      </trkpt>
      <trkpt lat="44.42974" lon="1.3451">
        <ele>144</ele>
        <time>2019-04-14T10:27:26Z</time>
      </trkpt>
      <trkpt lat="44.42975" lon="1.34507">
        <ele>144</ele>
        <time>2019-04-14T10:27:27Z</time>
      </trkpt>
      <trkpt lat="44.42974" lon="1.34504">
        <ele>144</ele>
        <time>2019-04-14T10:27:28Z</time>
      </trkpt>
      <trkpt lat="44.42972" lon="1.34501">
        <ele>144</ele>
        <time>2019-04-14T10:27:29Z</time>
      </trkpt>
      <trkpt lat="44.4297" lon="1.34499">
        <ele>144</ele>
        <time>2019-04-14T10:27:30Z</time>
      </trkpt>
      <trkpt lat="44.42971" lon="1.34496">
        <ele>144</ele>
        <time>2019-04-14T10:27:31Z</time>
      </trkpt>
      <trkpt lat="44.4297" lon="1.34494">
        <ele>144</ele>
        <time>2019-04-14T10:27:32Z</time>
      </trkpt>
      <trkpt lat="44.42968" lon="1.34491">
        <ele>144</ele>
        <time>2019-04-14T10:27:33Z</time>
      </trkpt>
      <trkpt lat="44.42967" lon="1.34488">
        <ele>144</ele>
        <time>2019-04-14T10:27:34Z</time>
      </trkpt>
      <trkpt lat="44.42965" lon="1.34486">
        <ele>145</ele>
        <time>2019-04-14T10:27:35Z</time>
      </trkpt>
      <trkpt lat="44.42964" lon="1.34484">
        <ele>145</ele>
        <time>2019-04-14T10:27:36Z</time>
      </trkpt>
      <trkpt lat="44.42962" lon="1.34481">
        <ele>145</ele>
        <time>2019-04-14T10:27:37Z</time>
      </trkpt>
      <trkpt lat="44.42959" lon="1.34478">
        <ele>145</ele>
        <time>2019-04-14T10:27:38Z</time>
      </trkpt>
      <trkpt lat="44.42959" lon="1.34476">
        <ele>145</ele>
        <time>2019-04-14T10:27:39Z</time>
      </trkpt>
      <trkpt lat="44.42956" lon="1.34474">
        <ele>145</ele>
        <time>2019-04-14T10:27:40Z</time>
      </trkpt>
      <trkpt lat="44.42955" lon="1.34472">
        <ele>145</ele>
        <time>2019-04-14T10:27:41Z</time>
      </trkpt>
      <trkpt lat="44.42954" lon="1.3447">
        <ele>145</ele>
        <time>2019-04-14T10:27:42Z</time>
      </trkpt>
      <trkpt lat="44.42953" lon="1.34468">
        <ele>145</ele>
        <time>2019-04-14T10:27:43Z</time>
      </trkpt>
      <trkpt lat="44.42953" lon="1.34466">
        <ele>146</ele>
        <time>2019-04-14T10:27:44Z</time>
      </trkpt>
      <trkpt lat="44.42951" lon="1.34464">
        <ele>146</ele>
        <time>2019-04-14T10:27:45Z</time>
      </trkpt>
      <trkpt lat="44.42948" lon="1.3446">
        <ele>146</ele>
        <time>2019-04-14T10:27:46Z</time>
      </trkpt>
      <trkpt lat="44.42947" lon="1.34457">
        <ele>146</ele>
        <time>2019-04-14T10:27:47Z</time>
      </trkpt>
      <trkpt lat="44.42945" lon="1.34452">
        <ele>146</ele>
        <time>2019-04-14T10:27:48Z</time>
      </trkpt>
      <trkpt lat="44.42943" lon="1.3445">
        <ele>146</ele>
        <time>2019-04-14T10:27:49Z</time>
      </trkpt>
      <trkpt lat="44.42939" lon="1.34446">
        <ele>146</ele>
        <time>2019-04-14T10:27:50Z</time>
      </trkpt>
      <trkpt lat="44.42936" lon="1.34443">
        <ele>146</ele>
        <time>2019-04-14T10:27:51Z</time>
      </trkpt>
      <trkpt lat="44.42934" lon="1.3444">
        <ele>146</ele>
        <time>2019-04-14T10:27:52Z</time>
      </trkpt>
      <trkpt lat="44.42932" lon="1.34439">
        <ele>146</ele>
        <time>2019-04-14T10:27:53Z</time>
      </trkpt>
      <trkpt lat="44.42932" lon="1.34438">
        <ele>147</ele>
        <time>2019-04-14T10:27:54Z</time>
      </trkpt>
      <trkpt lat="44.42929" lon="1.34435">
        <ele>147</ele>
        <time>2019-04-14T10:27:55Z</time>
      </trkpt>
      <trkpt lat="44.42928" lon="1.34433">
        <ele>147</ele>
        <time>2019-04-14T10:27:56Z</time>
      </trkpt>
      <trkpt lat="44.42925" lon="1.34431">
        <ele>147</ele>
        <time>2019-04-14T10:27:57Z</time>
      </trkpt>
      <trkpt lat="44.42923" lon="1.34428">
        <ele>146</ele>
        <time>2019-04-14T10:27:58Z</time>
      </trkpt>
      <trkpt lat="44.42919" lon="1.34426">
        <ele>146</ele>
        <time>2019-04-14T10:27:59Z</time>
      </trkpt>
      <trkpt lat="44.42914" lon="1.34422">
        <ele>146</ele>
        <time>2019-04-14T10:28:00Z</time>
      </trkpt>
      <trkpt lat="44.42911" lon="1.34419">
        <ele>146</ele>
        <time>2019-04-14T10:28:01Z</time>
      </trkpt>
      <trkpt lat="44.42906" lon="1.34419">
        <ele>146</ele>
        <time>2019-04-14T10:28:02Z</time>
      </trkpt>
      <trkpt lat="44.42902" lon="1.34418">
        <ele>146</ele>
        <time>2019-04-14T10:28:03Z</time>
      </trkpt>
      <trkpt lat="44.42902" lon="1.34415">
        <ele>146</ele>
        <time>2019-04-14T10:28:04Z</time>
      </trkpt>
      <trkpt lat="44.42901" lon="1.34413">
        <ele>147</ele>
        <time>2019-04-14T10:28:05Z</time>
      </trkpt>
      <trkpt lat="44.42901" lon="1.34411">
        <ele>147</ele>
        <time>2019-04-14T10:28:06Z</time>
      </trkpt>
      <trkpt lat="44.42899" lon="1.3441">
        <ele>147</ele>
        <time>2019-04-14T10:28:07Z</time>
      </trkpt>
      <trkpt lat="44.42898" lon="1.34407">
        <ele>147</ele>
        <time>2019-04-14T10:28:08Z</time>
      </trkpt>
      <trkpt lat="44.42897" lon="1.34404">
        <ele>147</ele>
        <time>2019-04-14T10:28:09Z</time>
      </trkpt>
      <trkpt lat="44.42894" lon="1.344">
        <ele>147</ele>
        <time>2019-04-14T10:28:10Z</time>
      </trkpt>
      <trkpt lat="44.42893" lon="1.34396">
        <ele>147</ele>
        <time>2019-04-14T10:28:11Z</time>
      </trkpt>
      <trkpt lat="44.4289" lon="1.34393">
        <ele>147</ele>
        <time>2019-04-14T10:28:12Z</time>
      </trkpt>
      <trkpt lat="44.42887" lon="1.34391">
        <ele>147</ele>
        <time>2019-04-14T10:28:13Z</time>
      </trkpt>
      <trkpt lat="44.42885" lon="1.34388">
        <ele>147</ele>
        <time>2019-04-14T10:28:14Z</time>
      </trkpt>
      <trkpt lat="44.42884" lon="1.34386">
        <ele>147</ele>
        <time>2019-04-14T10:28:15Z</time>
      </trkpt>
      <trkpt lat="44.42882" lon="1.34384">
        <ele>147</ele>
        <time>2019-04-14T10:28:16Z</time>
      </trkpt>
      <trkpt lat="44.42881" lon="1.3438">
        <ele>147</ele>
        <time>2019-04-14T10:28:17Z</time>
      </trkpt>
      <trkpt lat="44.42879" lon="1.34379">
        <ele>147</ele>
        <time>2019-04-14T10:28:18Z</time>
      </trkpt>
      <trkpt lat="44.42876" lon="1.34376">
        <ele>147</ele>
        <time>2019-04-14T10:28:19Z</time>
      </trkpt>
      <trkpt lat="44.42875" lon="1.34375">
        <ele>147</ele>
        <time>2019-04-14T10:28:20Z</time>
      </trkpt>
      <trkpt lat="44.42871" lon="1.34374">
        <ele>148</ele>
        <time>2019-04-14T10:28:21Z</time>
      </trkpt>
      <trkpt lat="44.42869" lon="1.3437">
        <ele>148</ele>
        <time>2019-04-14T10:28:22Z</time>
      </trkpt>
      <trkpt lat="44.42865" lon="1.34367">
        <ele>148</ele>
        <time>2019-04-14T10:28:23Z</time>
      </trkpt>
      <trkpt lat="44.42861" lon="1.34364">
        <ele>148</ele>
        <time>2019-04-14T10:28:24Z</time>
      </trkpt>
      <trkpt lat="44.42859" lon="1.34361">
        <ele>148</ele>
        <time>2019-04-14T10:28:25Z</time>
      </trkpt>
      <trkpt lat="44.42857" lon="1.34358">
        <ele>148</ele>
        <time>2019-04-14T10:28:26Z</time>
      </trkpt>
      <trkpt lat="44.42856" lon="1.34357">
        <ele>148</ele>
        <time>2019-04-14T10:28:27Z</time>
      </trkpt>
      <trkpt lat="44.42854" lon="1.34354">
        <ele>148</ele>
        <time>2019-04-14T10:28:28Z</time>
      </trkpt>
      <trkpt lat="44.42852" lon="1.34352">
        <ele>148</ele>
        <time>2019-04-14T10:28:29Z</time>
      </trkpt>
      <trkpt lat="44.42853" lon="1.34349">
        <ele>148</ele>
        <time>2019-04-14T10:28:30Z</time>
      </trkpt>
      <trkpt lat="44.42853" lon="1.34348">
        <ele>148</ele>
        <time>2019-04-14T10:28:31Z</time>
      </trkpt>
      <trkpt lat="44.4285" lon="1.34346">
        <ele>149</ele>
        <time>2019-04-14T10:28:32Z</time>
      </trkpt>
      <trkpt lat="44.42846" lon="1.34343">
        <ele>149</ele>
        <time>2019-04-14T10:28:33Z</time>
      </trkpt>
      <trkpt lat="44.42846" lon="1.34339">
        <ele>149</ele>
        <time>2019-04-14T10:28:34Z</time>
      </trkpt>
      <trkpt lat="44.42843" lon="1.34336">
        <ele>149</ele>
        <time>2019-04-14T10:28:35Z</time>
      </trkpt>
      <trkpt lat="44.4284" lon="1.34333">
        <ele>149</ele>
        <time>2019-04-14T10:28:36Z</time>
      </trkpt>
      <trkpt lat="44.42837" lon="1.3433">
        <ele>149</ele>
        <time>2019-04-14T10:28:37Z</time>
      </trkpt>
      <trkpt lat="44.42835" lon="1.34329">
        <ele>149</ele>
        <time>2019-04-14T10:28:38Z</time>
      </trkpt>
      <trkpt lat="44.42836" lon="1.34328">
        <ele>149</ele>
        <time>2019-04-14T10:28:39Z</time>
      </trkpt>
      <trkpt lat="44.42836" lon="1.34327">
        <ele>150</ele>
        <time>2019-04-14T10:28:40Z</time>
      </trkpt>
      <trkpt lat="44.42834" lon="1.34326">
        <ele>150</ele>
        <time>2019-04-14T10:28:41Z</time>
      </trkpt>
      <trkpt lat="44.42834" lon="1.34325">
        <ele>150</ele>
        <time>2019-04-14T10:28:42Z</time>
      </trkpt>
      <trkpt lat="44.42831" lon="1.34324">
        <ele>150</ele>
        <time>2019-04-14T10:28:43Z</time>
      </trkpt>
      <trkpt lat="44.4283" lon="1.34322">
        <ele>151</ele>
        <time>2019-04-14T10:28:44Z</time>
      </trkpt>
      <trkpt lat="44.42828" lon="1.3432">
        <ele>151</ele>
        <time>2019-04-14T10:28:45Z</time>
      </trkpt>
      <trkpt lat="44.42825" lon="1.34318">
        <ele>151</ele>
        <time>2019-04-14T10:28:46Z</time>
      </trkpt>
      <trkpt lat="44.42823" lon="1.34314">
        <ele>150</ele>
        <time>2019-04-14T10:28:47Z</time>
      </trkpt>
      <trkpt lat="44.4282" lon="1.3431">
        <ele>151</ele>
        <time>2019-04-14T10:28:48Z</time>
      </trkpt>
      <trkpt lat="44.42818" lon="1.34308">
        <ele>151</ele>
        <time>2019-04-14T10:28:49Z</time>
      </trkpt>
      <trkpt lat="44.42816" lon="1.34307">
        <ele>151</ele>
        <time>2019-04-14T10:28:50Z</time>
      </trkpt>
      <trkpt lat="44.42815" lon="1.34306">
        <ele>151</ele>
        <time>2019-04-14T10:28:51Z</time>
      </trkpt>
      <trkpt lat="44.42812" lon="1.34304">
        <ele>151</ele>
        <time>2019-04-14T10:28:52Z</time>
      </trkpt>
      <trkpt lat="44.4281" lon="1.34301">
        <ele>151</ele>
        <time>2019-04-14T10:28:53Z</time>
      </trkpt>
      <trkpt lat="44.42807" lon="1.34298">
        <ele>151</ele>
        <time>2019-04-14T10:28:54Z</time>
      </trkpt>
      <trkpt lat="44.42807" lon="1.34296">
        <ele>151</ele>
        <time>2019-04-14T10:28:55Z</time>
      </trkpt>
      <trkpt lat="44.42806" lon="1.34294">
        <ele>151</ele>
        <time>2019-04-14T10:28:56Z</time>
      </trkpt>
      <trkpt lat="44.42805" lon="1.34292">
        <ele>151</ele>
        <time>2019-04-14T10:28:57Z</time>
      </trkpt>
      <trkpt lat="44.42804" lon="1.3429">
        <ele>151</ele>
        <time>2019-04-14T10:28:58Z</time>
      </trkpt>
      <trkpt lat="44.42801" lon="1.34288">
        <ele>151</ele>
        <time>2019-04-14T10:28:59Z</time>
      </trkpt>
      <trkpt lat="44.42797" lon="1.34285">
        <ele>151</ele>
        <time>2019-04-14T10:29:00Z</time>
      </trkpt>
      <trkpt lat="44.42795" lon="1.34283">
        <ele>151</ele>
        <time>2019-04-14T10:29:01Z</time>
      </trkpt>
      <trkpt lat="44.42793" lon="1.34281">
        <ele>152</ele>
        <time>2019-04-14T10:29:02Z</time>
      </trkpt>
      <trkpt lat="44.4279" lon="1.3428">
        <ele>152</ele>
        <time>2019-04-14T10:29:03Z</time>
      </trkpt>
      <trkpt lat="44.42786" lon="1.34278">
        <ele>152</ele>
        <time>2019-04-14T10:29:04Z</time>
      </trkpt>
      <trkpt lat="44.42784" lon="1.34275">
        <ele>152</ele>
        <time>2019-04-14T10:29:05Z</time>
      </trkpt>
      <trkpt lat="44.42779" lon="1.34273">
        <ele>152</ele>
        <time>2019-04-14T10:29:06Z</time>
      </trkpt>
      <trkpt lat="44.42777" lon="1.34271">
        <ele>152</ele>
        <time>2019-04-14T10:29:07Z</time>
      </trkpt>
      <trkpt lat="44.42775" lon="1.34269">
        <ele>152</ele>
        <time>2019-04-14T10:29:08Z</time>
      </trkpt>
      <trkpt lat="44.42775" lon="1.34268">
        <ele>152</ele>
        <time>2019-04-14T10:29:09Z</time>
      </trkpt>
      <trkpt lat="44.42774" lon="1.34267">
        <ele>151</ele>
        <time>2019-04-14T10:29:10Z</time>
      </trkpt>
      <trkpt lat="44.42771" lon="1.34265">
        <ele>151</ele>
        <time>2019-04-14T10:29:11Z</time>
      </trkpt>
      <trkpt lat="44.42769" lon="1.34264">
        <ele>151</ele>
        <time>2019-04-14T10:29:12Z</time>
      </trkpt>
      <trkpt lat="44.42765" lon="1.34263">
        <ele>152</ele>
        <time>2019-04-14T10:29:13Z</time>
      </trkpt>
      <trkpt lat="44.4276" lon="1.34261">
        <ele>152</ele>
        <time>2019-04-14T10:29:14Z</time>
      </trkpt>
      <trkpt lat="44.42759" lon="1.34261">
        <ele>152</ele>
        <time>2019-04-14T10:29:15Z</time>
      </trkpt>
      <trkpt lat="44.42756" lon="1.34259">
        <ele>152</ele>
        <time>2019-04-14T10:29:16Z</time>
      </trkpt>
      <trkpt lat="44.42752" lon="1.34258">
        <ele>152</ele>
        <time>2019-04-14T10:29:17Z</time>
      </trkpt>
      <trkpt lat="44.42751" lon="1.34256">
        <ele>152</ele>
        <time>2019-04-14T10:29:18Z</time>
      </trkpt>
      <trkpt lat="44.42748" lon="1.34255">
        <ele>152</ele>
        <time>2019-04-14T10:29:19Z</time>
      </trkpt>
      <trkpt lat="44.42745" lon="1.34254">
        <ele>152</ele>
        <time>2019-04-14T10:29:20Z</time>
      </trkpt>
      <trkpt lat="44.42744" lon="1.34252">
        <ele>152</ele>
        <time>2019-04-14T10:29:21Z</time>
      </trkpt>
      <trkpt lat="44.42741" lon="1.34251">
        <ele>152</ele>
        <time>2019-04-14T10:29:22Z</time>
      </trkpt>
      <trkpt lat="44.42739" lon="1.34249">
        <ele>152</ele>
        <time>2019-04-14T10:29:23Z</time>
      </trkpt>
      <trkpt lat="44.42737" lon="1.34249">
        <ele>152</ele>
        <time>2019-04-14T10:29:24Z</time>
      </trkpt>
      <trkpt lat="44.42736" lon="1.34248">
        <ele>153</ele>
        <time>2019-04-14T10:29:25Z</time>
      </trkpt>
      <trkpt lat="44.42735" lon="1.34247">
        <ele>153</ele>
        <time>2019-04-14T10:29:26Z</time>
      </trkpt>
      <trkpt lat="44.42732" lon="1.34247">
        <ele>153</ele>
        <time>2019-04-14T10:29:27Z</time>
      </trkpt>
      <trkpt lat="44.42732" lon="1.34247">
        <ele>152</ele>
        <time>2019-04-14T10:29:28Z</time>
      </trkpt>
      <trkpt lat="44.42729" lon="1.34246">
        <ele>152</ele>
        <time>2019-04-14T10:29:29Z</time>
      </trkpt>
      <trkpt lat="44.42727" lon="1.34246">
        <ele>153</ele>
        <time>2019-04-14T10:29:30Z</time>
      </trkpt>
      <trkpt lat="44.42726" lon="1.34246">
        <ele>153</ele>
        <time>2019-04-14T10:29:31Z</time>
      </trkpt>
      <trkpt lat="44.42724" lon="1.34245">
        <ele>153</ele>
        <time>2019-04-14T10:29:32Z</time>
      </trkpt>
      <trkpt lat="44.42722" lon="1.34244">
        <ele>153</ele>
        <time>2019-04-14T10:29:33Z</time>
      </trkpt>
      <trkpt lat="44.4272" lon="1.34243">
        <ele>153</ele>
        <time>2019-04-14T10:29:34Z</time>
      </trkpt>
      <trkpt lat="44.42716" lon="1.34243">
        <ele>153</ele>
        <time>2019-04-14T10:29:35Z</time>
      </trkpt>
      <trkpt lat="44.42714" lon="1.34243">
        <ele>153</ele>
        <time>2019-04-14T10:29:36Z</time>
      </trkpt>
      <trkpt lat="44.42713" lon="1.34242">
        <ele>153</ele>
        <time>2019-04-14T10:29:37Z</time>
      </trkpt>
      <trkpt lat="44.42711" lon="1.34241">
        <ele>153</ele>
        <time>2019-04-14T10:29:38Z</time>
      </trkpt>
      <trkpt lat="44.42708" lon="1.34239">
        <ele>153</ele>
        <time>2019-04-14T10:29:39Z</time>
      </trkpt>
      <trkpt lat="44.42707" lon="1.34238">
        <ele>152</ele>
        <time>2019-04-14T10:29:40Z</time>
      </trkpt>
      <trkpt lat="44.42705" lon="1.34237">
        <ele>152</ele>
        <time>2019-04-14T10:29:41Z</time>
      </trkpt>
      <trkpt lat="44.42702" lon="1.34237">
        <ele>152</ele>
        <time>2019-04-14T10:29:42Z</time>
      </trkpt>
      <trkpt lat="44.427" lon="1.34237">
        <ele>153</ele>
        <time>2019-04-14T10:29:43Z</time>
      </trkpt>
      <trkpt lat="44.42696" lon="1.34235">
        <ele>153</ele>
        <time>2019-04-14T10:29:44Z</time>
      </trkpt>
      <trkpt lat="44.42694" lon="1.34235">
        <ele>153</ele>
        <time>2019-04-14T10:29:45Z</time>
      </trkpt>
      <trkpt lat="44.42692" lon="1.34234">
        <ele>153</ele>
        <time>2019-04-14T10:29:46Z</time>
      </trkpt>
      <trkpt lat="44.4269" lon="1.34233">
        <ele>153</ele>
        <time>2019-04-14T10:29:47Z</time>
      </trkpt>
      <trkpt lat="44.42686" lon="1.34231">
        <ele>153</ele>
        <time>2019-04-14T10:29:48Z</time>
      </trkpt>
      <trkpt lat="44.42683" lon="1.34231">
        <ele>153</ele>
        <time>2019-04-14T10:29:49Z</time>
      </trkpt>
      <trkpt lat="44.42681" lon="1.3423">
        <ele>153</ele>
        <time>2019-04-14T10:29:50Z</time>
      </trkpt>
      <trkpt lat="44.4268" lon="1.34229">
        <ele>154</ele>
        <time>2019-04-14T10:29:51Z</time>
      </trkpt>
      <trkpt lat="44.42677" lon="1.34228">
        <ele>154</ele>
        <time>2019-04-14T10:29:52Z</time>
      </trkpt>
      <trkpt lat="44.42676" lon="1.34228">
        <ele>154</ele>
        <time>2019-04-14T10:29:53Z</time>
      </trkpt>
      <trkpt lat="44.42675" lon="1.34227">
        <ele>154</ele>
        <time>2019-04-14T10:29:54Z</time>
      </trkpt>
      <trkpt lat="44.42674" lon="1.34226">
        <ele>154</ele>
        <time>2019-04-14T10:29:55Z</time>
      </trkpt>
      <trkpt lat="44.42672" lon="1.34226">
        <ele>154</ele>
        <time>2019-04-14T10:29:56Z</time>
      </trkpt>
      <trkpt lat="44.42671" lon="1.34226">
        <ele>154</ele>
        <time>2019-04-14T10:29:57Z</time>
      </trkpt>
      <trkpt lat="44.42666" lon="1.34225">
        <ele>154</ele>
        <time>2019-04-14T10:29:58Z</time>
      </trkpt>
      <trkpt lat="44.42666" lon="1.34228">
        <ele>154</ele>
        <time>2019-04-14T10:29:59Z</time>
      </trkpt>
      <trkpt lat="44.42662" lon="1.3423">
        <ele>154</ele>
        <time>2019-04-14T10:30:00Z</time>
      </trkpt>
      <trkpt lat="44.42643" lon="1.34224">
        <ele>155</ele>
        <time>2019-04-14T10:30:06Z</time>
      </trkpt>
      <trkpt lat="44.42642" lon="1.34223">
        <ele>155</ele>
        <time>2019-04-14T10:30:07Z</time>
      </trkpt>
      <trkpt lat="44.4264" lon="1.34223">
        <ele>155</ele>
        <time>2019-04-14T10:30:08Z</time>
      </trkpt>
      <trkpt lat="44.42638" lon="1.34223">
        <ele>155</ele>
        <time>2019-04-14T10:30:09Z</time>
      </trkpt>
      <trkpt lat="44.42638" lon="1.34223">
        <ele>155</ele>
        <time>2019-04-14T10:30:10Z</time>
      </trkpt>
      <trkpt lat="44.42635" lon="1.34222">
        <ele>155</ele>
        <time>2019-04-14T10:30:11Z</time>
      </trkpt>
      <trkpt lat="44.42635" lon="1.34223">
        <ele>155</ele>
        <time>2019-04-14T10:30:12Z</time>
      </trkpt>
      <trkpt lat="44.42633" lon="1.34223">
        <ele>155</ele>
        <time>2019-04-14T10:30:13Z</time>
      </trkpt>
      <trkpt lat="44.42632" lon="1.34223">
        <ele>155</ele>
        <time>2019-04-14T10:30:14Z</time>
      </trkpt>
      <trkpt lat="44.4263" lon="1.34223">
        <ele>155</ele>
        <time>2019-04-14T10:30:15Z</time>
      </trkpt>
      <trkpt lat="44.42629" lon="1.34222">
        <ele>155</ele>
        <time>2019-04-14T10:30:16Z</time>
      </trkpt>
      <trkpt lat="44.42627" lon="1.34222">
        <ele>155</ele>
        <time>2019-04-14T10:30:17Z</time>
      </trkpt>
      <trkpt lat="44.42625" lon="1.34221">
        <ele>155</ele>
        <time>2019-04-14T10:30:18Z</time>
      </trkpt>
      <trkpt lat="44.42624" lon="1.34221">
        <ele>155</ele>
        <time>2019-04-14T10:30:19Z</time>
      </trkpt>
      <trkpt lat="44.42624" lon="1.34221">
        <ele>155</ele>
        <time>2019-04-14T10:30:20Z</time>
      </trkpt>
      <trkpt lat="44.42584" lon="1.34213">
        <ele>158</ele>
        <time>2019-04-14T10:30:49Z</time>
      </trkpt>
      <trkpt lat="44.42581" lon="1.34213">
        <ele>158</ele>
        <time>2019-04-14T10:30:50Z</time>
      </trkpt>
      <trkpt lat="44.42578" lon="1.34212">
        <ele>158</ele>
        <time>2019-04-14T10:30:51Z</time>
      </trkpt>
      <trkpt lat="44.42576" lon="1.34212">
        <ele>158</ele>
        <time>2019-04-14T10:30:52Z</time>
      </trkpt>
      <trkpt lat="44.42574" lon="1.34212">
        <ele>159</ele>
        <time>2019-04-14T10:30:53Z</time>
      </trkpt>
      <trkpt lat="44.42572" lon="1.34212">
        <ele>158</ele>
        <time>2019-04-14T10:30:54Z</time>
      </trkpt>
      <trkpt lat="44.42569" lon="1.34211">
        <ele>159</ele>
        <time>2019-04-14T10:30:55Z</time>
      </trkpt>
      <trkpt lat="44.42567" lon="1.34211">
        <ele>159</ele>
        <time>2019-04-14T10:30:56Z</time>
      </trkpt>
      <trkpt lat="44.42564" lon="1.34211">
        <ele>159</ele>
        <time>2019-04-14T10:30:57Z</time>
      </trkpt>
      <trkpt lat="44.42562" lon="1.34211">
        <ele>159</ele>
        <time>2019-04-14T10:30:58Z</time>
      </trkpt>
      <trkpt lat="44.42559" lon="1.34212">
        <ele>159</ele>
        <time>2019-04-14T10:30:59Z</time>
      </trkpt>
      <trkpt lat="44.42556" lon="1.34212">
        <ele>159</ele>
        <time>2019-04-14T10:31:00Z</time>
      </trkpt>
      <trkpt lat="44.42553" lon="1.34212">
        <ele>159</ele>
        <time>2019-04-14T10:31:01Z</time>
      </trkpt>
      <trkpt lat="44.42551" lon="1.34212">
        <ele>159</ele>
        <time>2019-04-14T10:31:02Z</time>
      </trkpt>
      <trkpt lat="44.42549" lon="1.34213">
        <ele>159</ele>
        <time>2019-04-14T10:31:03Z</time>
      </trkpt>
      <trkpt lat="44.42547" lon="1.34212">
        <ele>159</ele>
        <time>2019-04-14T10:31:04Z</time>
      </trkpt>
      <trkpt lat="44.42545" lon="1.34212">
        <ele>159</ele>
        <time>2019-04-14T10:31:05Z</time>
      </trkpt>
      <trkpt lat="44.42544" lon="1.34213">
        <ele>159</ele>
        <time>2019-04-14T10:31:06Z</time>
      </trkpt>
      <trkpt lat="44.42542" lon="1.34214">
        <ele>159</ele>
        <time>2019-04-14T10:31:07Z</time>
      </trkpt>
      <trkpt lat="44.4254" lon="1.34214">
        <ele>159</ele>
        <time>2019-04-14T10:31:08Z</time>
      </trkpt>
      <trkpt lat="44.42537" lon="1.34214">
        <ele>159</ele>
        <time>2019-04-14T10:31:09Z</time>
      </trkpt>
      <trkpt lat="44.42535" lon="1.34215">
        <ele>159</ele>
        <time>2019-04-14T10:31:10Z</time>
      </trkpt>
      <trkpt lat="44.42533" lon="1.34217">
        <ele>159</ele>
        <time>2019-04-14T10:31:11Z</time>
      </trkpt>
      <trkpt lat="44.42531" lon="1.34217">
        <ele>159</ele>
        <time>2019-04-14T10:31:12Z</time>
      </trkpt>
      <trkpt lat="44.42529" lon="1.34218">
        <ele>159</ele>
        <time>2019-04-14T10:31:13Z</time>
      </trkpt>
      <trkpt lat="44.42528" lon="1.34217">
        <ele>159</ele>
        <time>2019-04-14T10:31:14Z</time>
      </trkpt>
      <trkpt lat="44.42527" lon="1.34218">
        <ele>159</ele>
        <time>2019-04-14T10:31:15Z</time>
      </trkpt>
      <trkpt lat="44.42524" lon="1.34219">
        <ele>159</ele>
        <time>2019-04-14T10:31:16Z</time>
      </trkpt>
      <trkpt lat="44.42522" lon="1.34221">
        <ele>159</ele>
        <time>2019-04-14T10:31:17Z</time>
      </trkpt>
      <trkpt lat="44.42519" lon="1.34223">
        <ele>159</ele>
        <time>2019-04-14T10:31:18Z</time>
      </trkpt>
      <trkpt lat="44.42517" lon="1.34225">
        <ele>159</ele>
        <time>2019-04-14T10:31:19Z</time>
      </trkpt>
      <trkpt lat="44.42516" lon="1.34227">
        <ele>159</ele>
        <time>2019-04-14T10:31:20Z</time>
      </trkpt>
      <trkpt lat="44.42514" lon="1.34229">
        <ele>159</ele>
        <time>2019-04-14T10:31:21Z</time>
      </trkpt>
      <trkpt lat="44.42512" lon="1.3423">
        <ele>159</ele>
        <time>2019-04-14T10:31:22Z</time>
      </trkpt>
      <trkpt lat="44.4251" lon="1.34231">
        <ele>159</ele>
        <time>2019-04-14T10:31:23Z</time>
      </trkpt>
      <trkpt lat="44.42508" lon="1.34232">
        <ele>159</ele>
        <time>2019-04-14T10:31:24Z</time>
      </trkpt>
      <trkpt lat="44.42507" lon="1.34235">
        <ele>158</ele>
        <time>2019-04-14T10:31:25Z</time>
      </trkpt>
      <trkpt lat="44.42504" lon="1.34235">
        <ele>158</ele>
        <time>2019-04-14T10:31:26Z</time>
      </trkpt>
      <trkpt lat="44.42502" lon="1.34235">
        <ele>158</ele>
        <time>2019-04-14T10:31:27Z</time>
      </trkpt>
      <trkpt lat="44.42499" lon="1.34236">
        <ele>158</ele>
        <time>2019-04-14T10:31:28Z</time>
      </trkpt>
      <trkpt lat="44.42497" lon="1.34238">
        <ele>158</ele>
        <time>2019-04-14T10:31:29Z</time>
      </trkpt>
      <trkpt lat="44.42496" lon="1.34241">
        <ele>158</ele>
        <time>2019-04-14T10:31:30Z</time>
      </trkpt>
      <trkpt lat="44.42493" lon="1.34243">
        <ele>158</ele>
        <time>2019-04-14T10:31:31Z</time>
      </trkpt>
      <trkpt lat="44.42492" lon="1.34246">
        <ele>158</ele>
        <time>2019-04-14T10:31:32Z</time>
      </trkpt>
      <trkpt lat="44.4249" lon="1.34248">
        <ele>158</ele>
        <time>2019-04-14T10:31:33Z</time>
      </trkpt>
      <trkpt lat="44.4249" lon="1.3425">
        <ele>158</ele>
        <time>2019-04-14T10:31:34Z</time>
      </trkpt>
      <trkpt lat="44.42487" lon="1.34252">
        <ele>158</ele>
        <time>2019-04-14T10:31:35Z</time>
      </trkpt>
      <trkpt lat="44.42485" lon="1.34254">
        <ele>158</ele>
        <time>2019-04-14T10:31:36Z</time>
      </trkpt>
      <trkpt lat="44.42482" lon="1.34256">
        <ele>158</ele>
        <time>2019-04-14T10:31:37Z</time>
      </trkpt>
      <trkpt lat="44.42481" lon="1.34259">
        <ele>158</ele>
        <time>2019-04-14T10:31:38Z</time>
      </trkpt>
      <trkpt lat="44.42478" lon="1.34261">
        <ele>159</ele>
        <time>2019-04-14T10:31:39Z</time>
      </trkpt>
      <trkpt lat="44.42477" lon="1.34263">
        <ele>159</ele>
        <time>2019-04-14T10:31:40Z</time>
      </trkpt>
      <trkpt lat="44.42476" lon="1.34265">
        <ele>158</ele>
        <time>2019-04-14T10:31:41Z</time>
      </trkpt>
      <trkpt lat="44.42476" lon="1.34267">
        <ele>158</ele>
        <time>2019-04-14T10:31:42Z</time>
      </trkpt>
      <trkpt lat="44.42472" lon="1.34268">
        <ele>158</ele>
        <time>2019-04-14T10:31:43Z</time>
      </trkpt>
      <trkpt lat="44.42469" lon="1.3427">
        <ele>158</ele>
        <time>2019-04-14T10:31:44Z</time>
      </trkpt>
      <trkpt lat="44.42467" lon="1.34271">
        <ele>158</ele>
        <time>2019-04-14T10:31:45Z</time>
      </trkpt>
      <trkpt lat="44.42466" lon="1.34274">
        <ele>158</ele>
        <time>2019-04-14T10:31:46Z</time>
      </trkpt>
      <trkpt lat="44.42465" lon="1.34276">
        <ele>158</ele>
        <time>2019-04-14T10:31:47Z</time>
      </trkpt>
      <trkpt lat="44.42464" lon="1.34278">
        <ele>158</ele>
        <time>2019-04-14T10:31:48Z</time>
      </trkpt>
      <trkpt lat="44.42464" lon="1.34279">
        <ele>158</ele>
        <time>2019-04-14T10:31:49Z</time>
      </trkpt>
      <trkpt lat="44.42462" lon="1.3428">
        <ele>159</ele>
        <time>2019-04-14T10:31:50Z</time>
      </trkpt>
      <trkpt lat="44.42462" lon="1.34283">
        <ele>159</ele>
        <time>2019-04-14T10:31:51Z</time>
      </trkpt>
      <trkpt lat="44.42461" lon="1.34284">
        <ele>159</ele>
        <time>2019-04-14T10:31:52Z</time>
      </trkpt>
      <trkpt lat="44.4246" lon="1.34286">
        <ele>160</ele>
        <time>2019-04-14T10:31:53Z</time>
      </trkpt>
      <trkpt lat="44.4246" lon="1.34285">
        <ele>159</ele>
        <time>2019-04-14T10:31:54Z</time>
      </trkpt>
      <trkpt lat="44.4246" lon="1.34286">
        <ele>159</ele>
        <time>2019-04-14T10:31:55Z</time>
      </trkpt>
      <trkpt lat="44.4246" lon="1.34286">
        <ele>159</ele>
        <time>2019-04-14T10:31:56Z</time>
      </trkpt>
      <trkpt lat="44.42459" lon="1.34286">
        <ele>160</ele>
        <time>2019-04-14T10:31:57Z</time>
      </trkpt>
      <trkpt lat="44.42458" lon="1.34287">
        <ele>160</ele>
        <time>2019-04-14T10:31:58Z</time>
      </trkpt>
      <trkpt lat="44.42456" lon="1.34288">
        <ele>160</ele>
        <time>2019-04-14T10:31:59Z</time>
      </trkpt>
      <trkpt lat="44.42438" lon="1.343">
        <ele>161</ele>
        <time>2019-04-14T10:32:09Z</time>
      </trkpt>
      <trkpt lat="44.42436" lon="1.34302">
        <ele>161</ele>
        <time>2019-04-14T10:32:10Z</time>
      </trkpt>
      <trkpt lat="44.42435" lon="1.34304">
        <ele>161</ele>
        <time>2019-04-14T10:32:11Z</time>
      </trkpt>
      <trkpt lat="44.42432" lon="1.34304">
        <ele>161</ele>
        <time>2019-04-14T10:32:12Z</time>
      </trkpt>
      <trkpt lat="44.4243" lon="1.34306">
        <ele>161</ele>
        <time>2019-04-14T10:32:13Z</time>
      </trkpt>
      <trkpt lat="44.42429" lon="1.34309">
        <ele>161</ele>
        <time>2019-04-14T10:32:14Z</time>
      </trkpt>
      <trkpt lat="44.42427" lon="1.34311">
        <ele>161</ele>
        <time>2019-04-14T10:32:15Z</time>
      </trkpt>
      <trkpt lat="44.42423" lon="1.34311">
        <ele>161</ele>
        <time>2019-04-14T10:32:16Z</time>
      </trkpt>
      <trkpt lat="44.4242" lon="1.34311">
        <ele>160</ele>
        <time>2019-04-14T10:32:17Z</time>
      </trkpt>
      <trkpt lat="44.42416" lon="1.34312">
        <ele>160</ele>
        <time>2019-04-14T10:32:18Z</time>
      </trkpt>
      <trkpt lat="44.42413" lon="1.34313">
        <ele>160</ele>
        <time>2019-04-14T10:32:19Z</time>
      </trkpt>
      <trkpt lat="44.42411" lon="1.34316">
        <ele>160</ele>
        <time>2019-04-14T10:32:20Z</time>
      </trkpt>
      <trkpt lat="44.4241" lon="1.34319">
        <ele>160</ele>
        <time>2019-04-14T10:32:21Z</time>
      </trkpt>
      <trkpt lat="44.42408" lon="1.34322">
        <ele>161</ele>
        <time>2019-04-14T10:32:22Z</time>
      </trkpt>
      <trkpt lat="44.42405" lon="1.34324">
        <ele>161</ele>
        <time>2019-04-14T10:32:23Z</time>
      </trkpt>
      <trkpt lat="44.42404" lon="1.34326">
        <ele>161</ele>
        <time>2019-04-14T10:32:24Z</time>
      </trkpt>
      <trkpt lat="44.42402" lon="1.34328">
        <ele>161</ele>
        <time>2019-04-14T10:32:25Z</time>
      </trkpt>
      <trkpt lat="44.424" lon="1.34329">
        <ele>161</ele>
        <time>2019-04-14T10:32:26Z</time>
      </trkpt>
      <trkpt lat="44.42398" lon="1.3433">
        <ele>161</ele>
        <time>2019-04-14T10:32:27Z</time>
      </trkpt>
      <trkpt lat="44.42396" lon="1.34331">
        <ele>161</ele>
        <time>2019-04-14T10:32:28Z</time>
      </trkpt>
      <trkpt lat="44.42394" lon="1.34332">
        <ele>161</ele>
        <time>2019-04-14T10:32:29Z</time>
      </trkpt>
      <trkpt lat="44.42391" lon="1.34333">
        <ele>161</ele>
        <time>2019-04-14T10:32:30Z</time>
      </trkpt>
      <trkpt lat="44.42389" lon="1.34335">
        <ele>161</ele>
        <time>2019-04-14T10:32:31Z</time>
      </trkpt>
      <trkpt lat="44.42388" lon="1.34337">
        <ele>161</ele>
        <time>2019-04-14T10:32:32Z</time>
      </trkpt>
      <trkpt lat="44.42386" lon="1.34339">
        <ele>162</ele>
        <time>2019-04-14T10:32:33Z</time>
      </trkpt>
      <trkpt lat="44.42384" lon="1.34339">
        <ele>162</ele>
        <time>2019-04-14T10:32:34Z</time>
      </trkpt>
      <trkpt lat="44.42382" lon="1.34338">
        <ele>162</ele>
        <time>2019-04-14T10:32:35Z</time>
      </trkpt>
      <trkpt lat="44.42381" lon="1.34336">
        <ele>161</ele>
        <time>2019-04-14T10:32:36Z</time>
      </trkpt>
      <trkpt lat="44.42378" lon="1.34335">
        <ele>161</ele>
        <time>2019-04-14T10:32:37Z</time>
      </trkpt>
      <trkpt lat="44.42376" lon="1.34331">
        <ele>161</ele>
        <time>2019-04-14T10:32:38Z</time>
      </trkpt>
      <trkpt lat="44.42376" lon="1.34328">
        <ele>160</ele>
        <time>2019-04-14T10:32:39Z</time>
      </trkpt>
      <trkpt lat="44.42375" lon="1.34325">
        <ele>160</ele>
        <time>2019-04-14T10:32:40Z</time>
      </trkpt>
      <trkpt lat="44.42373" lon="1.34322">
        <ele>160</ele>
        <time>2019-04-14T10:32:41Z</time>
      </trkpt>
      <trkpt lat="44.42373" lon="1.34319">
        <ele>160</ele>
        <time>2019-04-14T10:32:42Z</time>
      </trkpt>
      <trkpt lat="44.42373" lon="1.34317">
        <ele>160</ele>
        <time>2019-04-14T10:32:43Z</time>
      </trkpt>
      <trkpt lat="44.42373" lon="1.34315">
        <ele>160</ele>
        <time>2019-04-14T10:32:44Z</time>
      </trkpt>
      <trkpt lat="44.42373" lon="1.34314">
        <ele>160</ele>
        <time>2019-04-14T10:32:45Z</time>
      </trkpt>
      <trkpt lat="44.42372" lon="1.34313">
        <ele>160</ele>
        <time>2019-04-14T10:32:46Z</time>
      </trkpt>
      <trkpt lat="44.42373" lon="1.34312">
        <ele>160</ele>
        <time>2019-04-14T10:32:47Z</time>
      </trkpt>
      <trkpt lat="44.42373" lon="1.34311">
        <ele>160</ele>
        <time>2019-04-14T10:32:48Z</time>
      </trkpt>
      <trkpt lat="44.42373" lon="1.3431">
        <ele>160</ele>
        <time>2019-04-14T10:32:49Z</time>
      </trkpt>
      <trkpt lat="44.42374" lon="1.34309">
        <ele>160</ele>
        <time>2019-04-14T10:32:50Z</time>
      </trkpt>
      <trkpt lat="44.42375" lon="1.34308">
        <ele>160</ele>
        <time>2019-04-14T10:32:51Z</time>
      </trkpt>
      <trkpt lat="44.42376" lon="1.34307">
        <ele>160</ele>
        <time>2019-04-14T10:32:52Z</time>
      </trkpt>
      <trkpt lat="44.42377" lon="1.34305">
        <ele>160</ele>
        <time>2019-04-14T10:32:53Z</time>
      </trkpt>
      <trkpt lat="44.42378" lon="1.34303">
        <ele>160</ele>
        <time>2019-04-14T10:32:54Z</time>
      </trkpt>
      <trkpt lat="44.42379" lon="1.34302">
        <ele>160</ele>
        <time>2019-04-14T10:32:55Z</time>
      </trkpt>
      <trkpt lat="44.42379" lon="1.34301">
        <ele>160</ele>
        <time>2019-04-14T10:32:56Z</time>
      </trkpt>
      <trkpt lat="44.42381" lon="1.34299">
        <ele>160</ele>
        <time>2019-04-14T10:32:57Z</time>
      </trkpt>
      <trkpt lat="44.42383" lon="1.34297">
        <ele>160</ele>
        <time>2019-04-14T10:32:58Z</time>
      </trkpt>
      <trkpt lat="44.42384" lon="1.34296">
        <ele>160</ele>
        <time>2019-04-14T10:32:59Z</time>
      </trkpt>
      <trkpt lat="44.42386" lon="1.34296">
        <ele>160</ele>
        <time>2019-04-14T10:33:00Z</time>
      </trkpt>
      <trkpt lat="44.42387" lon="1.34295">
        <ele>160</ele>
        <time>2019-04-14T10:33:01Z</time>
      </trkpt>
      <trkpt lat="44.42389" lon="1.34292">
        <ele>160</ele>
        <time>2019-04-14T10:33:02Z</time>
      </trkpt>
      <trkpt lat="44.4239" lon="1.34291">
        <ele>160</ele>
        <time>2019-04-14T10:33:03Z</time>
      </trkpt>
      <trkpt lat="44.42391" lon="1.34289">
        <ele>160</ele>
        <time>2019-04-14T10:33:04Z</time>
      </trkpt>
      <trkpt lat="44.42393" lon="1.34288">
        <ele>160</ele>
        <time>2019-04-14T10:33:05Z</time>
      </trkpt>
      <trkpt lat="44.42396" lon="1.34285">
        <ele>160</ele>
        <time>2019-04-14T10:33:06Z</time>
      </trkpt>
      <trkpt lat="44.42398" lon="1.34283">
        <ele>159</ele>
        <time>2019-04-14T10:33:07Z</time>
      </trkpt>
      <trkpt lat="44.42401" lon="1.34281">
        <ele>159</ele>
        <time>2019-04-14T10:33:08Z</time>
      </trkpt>
      <trkpt lat="44.42404" lon="1.34278">
        <ele>159</ele>
        <time>2019-04-14T10:33:09Z</time>
      </trkpt>
      <trkpt lat="44.42406" lon="1.34275">
        <ele>159</ele>
        <time>2019-04-14T10:33:10Z</time>
      </trkpt>
      <trkpt lat="44.42408" lon="1.34272">
        <ele>159</ele>
        <time>2019-04-14T10:33:11Z</time>
      </trkpt>
      <trkpt lat="44.42411" lon="1.34269">
        <ele>159</ele>
        <time>2019-04-14T10:33:12Z</time>
      </trkpt>
      <trkpt lat="44.42415" lon="1.34266">
        <ele>159</ele>
        <time>2019-04-14T10:33:13Z</time>
      </trkpt>
      <trkpt lat="44.42419" lon="1.34263">
        <ele>159</ele>
        <time>2019-04-14T10:33:14Z</time>
      </trkpt>
      <trkpt lat="44.42421" lon="1.3426">
        <ele>159</ele>
        <time>2019-04-14T10:33:15Z</time>
      </trkpt>
      <trkpt lat="44.42423" lon="1.34256">
        <ele>159</ele>
        <time>2019-04-14T10:33:16Z</time>
      </trkpt>
      <trkpt lat="44.42426" lon="1.34252">
        <ele>159</ele>
        <time>2019-04-14T10:33:17Z</time>
      </trkpt>
      <trkpt lat="44.42428" lon="1.34249">
        <ele>158</ele>
        <time>2019-04-14T10:33:18Z</time>
      </trkpt>
      <trkpt lat="44.42431" lon="1.34245">
        <ele>158</ele>
        <time>2019-04-14T10:33:19Z</time>
      </trkpt>
      <trkpt lat="44.42435" lon="1.34241">
        <ele>158</ele>
        <time>2019-04-14T10:33:20Z</time>
      </trkpt>
      <trkpt lat="44.42437" lon="1.34237">
        <ele>158</ele>
        <time>2019-04-14T10:33:21Z</time>
      </trkpt>
      <trkpt lat="44.42439" lon="1.34232">
        <ele>158</ele>
        <time>2019-04-14T10:33:22Z</time>
      </trkpt>
      <trkpt lat="44.42442" lon="1.34227">
        <ele>158</ele>
        <time>2019-04-14T10:33:23Z</time>
      </trkpt>
      <trkpt lat="44.42445" lon="1.34222">
        <ele>158</ele>
        <time>2019-04-14T10:33:24Z</time>
      </trkpt>
      <trkpt lat="44.42447" lon="1.34217">
        <ele>158</ele>
        <time>2019-04-14T10:33:25Z</time>
      </trkpt>
      <trkpt lat="44.4245" lon="1.34212">
        <ele>158</ele>
        <time>2019-04-14T10:33:26Z</time>
      </trkpt>
      <trkpt lat="44.42454" lon="1.34208">
        <ele>157</ele>
        <time>2019-04-14T10:33:27Z</time>
      </trkpt>
      <trkpt lat="44.42457" lon="1.34204">
        <ele>157</ele>
        <time>2019-04-14T10:33:28Z</time>
      </trkpt>
      <trkpt lat="44.4246" lon="1.342">
        <ele>157</ele>
        <time>2019-04-14T10:33:29Z</time>
      </trkpt>
      <trkpt lat="44.42463" lon="1.34196">
        <ele>157</ele>
        <time>2019-04-14T10:33:30Z</time>
      </trkpt>
      <trkpt lat="44.42466" lon="1.34192">
        <ele>157</ele>
        <time>2019-04-14T10:33:31Z</time>
      </trkpt>
      <trkpt lat="44.42469" lon="1.34188">
        <ele>157</ele>
        <time>2019-04-14T10:33:32Z</time>
      </trkpt>
      <trkpt lat="44.42471" lon="1.34184">
        <ele>157</ele>
        <time>2019-04-14T10:33:33Z</time>
      </trkpt>
      <trkpt lat="44.42473" lon="1.3418">
        <ele>157</ele>
        <time>2019-04-14T10:33:34Z</time>
      </trkpt>
      <trkpt lat="44.42474" lon="1.34176">
        <ele>157</ele>
        <time>2019-04-14T10:33:35Z</time>
      </trkpt>
      <trkpt lat="44.42476" lon="1.34172">
        <ele>157</ele>
        <time>2019-04-14T10:33:36Z</time>
      </trkpt>
      <trkpt lat="44.42478" lon="1.34168">
        <ele>157</ele>
        <time>2019-04-14T10:33:37Z</time>
      </trkpt>
      <trkpt lat="44.42481" lon="1.34164">
        <ele>157</ele>
        <time>2019-04-14T10:33:38Z</time>
      </trkpt>
      <trkpt lat="44.42484" lon="1.34162">
        <ele>157</ele>
        <time>2019-04-14T10:33:39Z</time>
      </trkpt>
      <trkpt lat="44.42489" lon="1.3416">
        <ele>157</ele>
        <time>2019-04-14T10:33:40Z</time>
      </trkpt>
      <trkpt lat="44.42493" lon="1.34157">
        <ele>157</ele>
        <time>2019-04-14T10:33:41Z</time>
      </trkpt>
      <trkpt lat="44.42497" lon="1.34155">
        <ele>157</ele>
        <time>2019-04-14T10:33:42Z</time>
      </trkpt>
      <trkpt lat="44.42499" lon="1.34152">
        <ele>158</ele>
        <time>2019-04-14T10:33:43Z</time>
      </trkpt>
      <trkpt lat="44.42501" lon="1.34149">
        <ele>158</ele>
        <time>2019-04-14T10:33:44Z</time>
      </trkpt>
      <trkpt lat="44.42503" lon="1.34148">
        <ele>158</ele>
        <time>2019-04-14T10:33:45Z</time>
      </trkpt>
      <trkpt lat="44.42506" lon="1.34148">
        <ele>158</ele>
        <time>2019-04-14T10:33:46Z</time>
      </trkpt>
      <trkpt lat="44.4251" lon="1.34149">
        <ele>157</ele>
        <time>2019-04-14T10:33:47Z</time>
      </trkpt>
      <trkpt lat="44.42513" lon="1.3415">
        <ele>157</ele>
        <time>2019-04-14T10:33:48Z</time>
      </trkpt>
      <trkpt lat="44.42517" lon="1.3415">
        <ele>157</ele>
        <time>2019-04-14T10:33:49Z</time>
      </trkpt>
      <trkpt lat="44.42521" lon="1.34151">
        <ele>157</ele>
        <time>2019-04-14T10:33:50Z</time>
      </trkpt>
      <trkpt lat="44.42524" lon="1.34152">
        <ele>157</ele>
        <time>2019-04-14T10:33:51Z</time>
      </trkpt>
      <trkpt lat="44.42529" lon="1.34151">
        <ele>157</ele>
        <time>2019-04-14T10:33:52Z</time>
      </trkpt>
      <trkpt lat="44.42534" lon="1.34152">
        <ele>157</ele>
        <time>2019-04-14T10:33:53Z</time>
      </trkpt>
      <trkpt lat="44.42537" lon="1.34152">
        <ele>157</ele>
        <time>2019-04-14T10:33:54Z</time>
      </trkpt>
      <trkpt lat="44.42541" lon="1.34152">
        <ele>157</ele>
        <time>2019-04-14T10:33:55Z</time>
      </trkpt>
      <trkpt lat="44.42545" lon="1.34152">
        <ele>157</ele>
        <time>2019-04-14T10:33:56Z</time>
      </trkpt>
      <trkpt lat="44.42549" lon="1.34153">
        <ele>157</ele>
        <time>2019-04-14T10:33:57Z</time>
      </trkpt>
      <trkpt lat="44.42553" lon="1.34154">
        <ele>156</ele>
        <time>2019-04-14T10:33:58Z</time>
      </trkpt>
      <trkpt lat="44.42557" lon="1.34153">
        <ele>156</ele>
        <time>2019-04-14T10:33:59Z</time>
      </trkpt>
      <trkpt lat="44.42562" lon="1.34152">
        <ele>156</ele>
        <time>2019-04-14T10:34:00Z</time>
      </trkpt>
      <trkpt lat="44.42567" lon="1.34152">
        <ele>156</ele>
        <time>2019-04-14T10:34:01Z</time>
      </trkpt>
      <trkpt lat="44.42571" lon="1.34153">
        <ele>156</ele>
        <time>2019-04-14T10:34:03Z</time>
      </trkpt>
      <trkpt lat="44.42581" lon="1.34153">
        <ele>156</ele>
        <time>2019-04-14T10:34:04Z</time>
      </trkpt>
      <trkpt lat="44.42586" lon="1.34152">
        <ele>156</ele>
        <time>2019-04-14T10:34:05Z</time>
      </trkpt>
      <trkpt lat="44.4259" lon="1.34151">
        <ele>156</ele>
        <time>2019-04-14T10:34:06Z</time>
      </trkpt>
      <trkpt lat="44.42596" lon="1.3415">
        <ele>156</ele>
        <time>2019-04-14T10:34:07Z</time>
      </trkpt>
      <trkpt lat="44.426" lon="1.34149">
        <ele>155</ele>
        <time>2019-04-14T10:34:08Z</time>
      </trkpt>
      <trkpt lat="44.42605" lon="1.3415">
        <ele>155</ele>
        <time>2019-04-14T10:34:09Z</time>
      </trkpt>
      <trkpt lat="44.4261" lon="1.34151">
        <ele>155</ele>
        <time>2019-04-14T10:34:10Z</time>
      </trkpt>
      <trkpt lat="44.42615" lon="1.34151">
        <ele>155</ele>
        <time>2019-04-14T10:34:11Z</time>
      </trkpt>
      <trkpt lat="44.42618" lon="1.3415">
        <ele>155</ele>
        <time>2019-04-14T10:34:12Z</time>
      </trkpt>
      <trkpt lat="44.42622" lon="1.34149">
        <ele>155</ele>
        <time>2019-04-14T10:34:13Z</time>
      </trkpt>
      <trkpt lat="44.42626" lon="1.34149">
        <ele>154</ele>
        <time>2019-04-14T10:34:14Z</time>
      </trkpt>
      <trkpt lat="44.4263" lon="1.3415">
        <ele>154</ele>
        <time>2019-04-14T10:34:15Z</time>
      </trkpt>
      <trkpt lat="44.42634" lon="1.34149">
        <ele>154</ele>
        <time>2019-04-14T10:34:16Z</time>
      </trkpt>
      <trkpt lat="44.42638" lon="1.34149">
        <ele>154</ele>
        <time>2019-04-14T10:34:17Z</time>
      </trkpt>
      <trkpt lat="44.42642" lon="1.34149">
        <ele>154</ele>
        <time>2019-04-14T10:34:18Z</time>
      </trkpt>
      <trkpt lat="44.42646" lon="1.34149">
        <ele>154</ele>
        <time>2019-04-14T10:34:19Z</time>
      </trkpt>
      <trkpt lat="44.42649" lon="1.34147">
        <ele>154</ele>
        <time>2019-04-14T10:34:20Z</time>
      </trkpt>
      <trkpt lat="44.42652" lon="1.34146">
        <ele>154</ele>
        <time>2019-04-14T10:34:21Z</time>
      </trkpt>
      <trkpt lat="44.42655" lon="1.34144">
        <ele>154</ele>
        <time>2019-04-14T10:34:22Z</time>
      </trkpt>
      <trkpt lat="44.42657" lon="1.34143">
        <ele>154</ele>
        <time>2019-04-14T10:34:23Z</time>
      </trkpt>
      <trkpt lat="44.42659" lon="1.34142">
        <ele>154</ele>
        <time>2019-04-14T10:34:24Z</time>
      </trkpt>
      <trkpt lat="44.42661" lon="1.34141">
        <ele>154</ele>
        <time>2019-04-14T10:34:25Z</time>
      </trkpt>
      <trkpt lat="44.42664" lon="1.34139">
        <ele>154</ele>
        <time>2019-04-14T10:34:26Z</time>
      </trkpt>
      <trkpt lat="44.42666" lon="1.34139">
        <ele>154</ele>
        <time>2019-04-14T10:34:27Z</time>
      </trkpt>
      <trkpt lat="44.42667" lon="1.34139">
        <ele>154</ele>
        <time>2019-04-14T10:34:28Z</time>
      </trkpt>
      <trkpt lat="44.42669" lon="1.34138">
        <ele>155</ele>
        <time>2019-04-14T10:34:29Z</time>
      </trkpt>
      <trkpt lat="44.42671" lon="1.34139">
        <ele>155</ele>
        <time>2019-04-14T10:34:30Z</time>
      </trkpt>
      <trkpt lat="44.42672" lon="1.34139">
        <ele>155</ele>
        <time>2019-04-14T10:34:31Z</time>
      </trkpt>
      <trkpt lat="44.42674" lon="1.34138">
        <ele>155</ele>
        <time>2019-04-14T10:34:33Z</time>
      </trkpt>
      <trkpt lat="44.42678" lon="1.34138">
        <ele>155</ele>
        <time>2019-04-14T10:34:34Z</time>
      </trkpt>
      <trkpt lat="44.42679" lon="1.34138">
        <ele>156</ele>
        <time>2019-04-14T10:34:35Z</time>
      </trkpt>
      <trkpt lat="44.42682" lon="1.34138">
        <ele>156</ele>
        <time>2019-04-14T10:34:36Z</time>
      </trkpt>
      <trkpt lat="44.42683" lon="1.34138">
        <ele>156</ele>
        <time>2019-04-14T10:34:37Z</time>
      </trkpt>
      <trkpt lat="44.42685" lon="1.34138">
        <ele>157</ele>
        <time>2019-04-14T10:34:38Z</time>
      </trkpt>
      <trkpt lat="44.42687" lon="1.34138">
        <ele>157</ele>
        <time>2019-04-14T10:34:39Z</time>
      </trkpt>
      <trkpt lat="44.42688" lon="1.34138">
        <ele>157</ele>
        <time>2019-04-14T10:34:40Z</time>
      </trkpt>
      <trkpt lat="44.4269" lon="1.34138">
        <ele>157</ele>
        <time>2019-04-14T10:34:41Z</time>
      </trkpt>
      <trkpt lat="44.42692" lon="1.34138">
        <ele>157</ele>
        <time>2019-04-14T10:34:42Z</time>
      </trkpt>
      <trkpt lat="44.42693" lon="1.34138">
        <ele>158</ele>
        <time>2019-04-14T10:34:43Z</time>
      </trkpt>
      <trkpt lat="44.42694" lon="1.34138">
        <ele>158</ele>
        <time>2019-04-14T10:34:44Z</time>
      </trkpt>
      <trkpt lat="44.42696" lon="1.34138">
        <ele>158</ele>
        <time>2019-04-14T10:34:45Z</time>
      </trkpt>
      <trkpt lat="44.42697" lon="1.34138">
        <ele>159</ele>
        <time>2019-04-14T10:34:46Z</time>
      </trkpt>
      <trkpt lat="44.42699" lon="1.34138">
        <ele>159</ele>
        <time>2019-04-14T10:34:47Z</time>
      </trkpt>
      <trkpt lat="44.427" lon="1.34138">
        <ele>159</ele>
        <time>2019-04-14T10:34:48Z</time>
      </trkpt>
      <trkpt lat="44.42701" lon="1.34137">
        <ele>159</ele>
        <time>2019-04-14T10:34:49Z</time>
      </trkpt>
      <trkpt lat="44.42702" lon="1.34138">
        <ele>160</ele>
        <time>2019-04-14T10:34:50Z</time>
      </trkpt>
      <trkpt lat="44.42703" lon="1.34138">
        <ele>160</ele>
        <time>2019-04-14T10:34:51Z</time>
      </trkpt>
      <trkpt lat="44.42705" lon="1.34138">
        <ele>160</ele>
        <time>2019-04-14T10:34:52Z</time>
      </trkpt>
      <trkpt lat="44.42706" lon="1.34138">
        <ele>160</ele>
        <time>2019-04-14T10:34:53Z</time>
      </trkpt>
      <trkpt lat="44.42708" lon="1.34138">
        <ele>160</ele>
        <time>2019-04-14T10:34:54Z</time>
      </trkpt>
      <trkpt lat="44.4271" lon="1.34138">
        <ele>161</ele>
        <time>2019-04-14T10:34:55Z</time>
      </trkpt>
      <trkpt lat="44.42712" lon="1.34138">
        <ele>161</ele>
        <time>2019-04-14T10:34:56Z</time>
      </trkpt>
      <trkpt lat="44.42714" lon="1.34138">
        <ele>161</ele>
        <time>2019-04-14T10:34:57Z</time>
      </trkpt>
      <trkpt lat="44.42715" lon="1.34138">
        <ele>161</ele>
        <time>2019-04-14T10:34:58Z</time>
      </trkpt>
      <trkpt lat="44.42716" lon="1.34138">
        <ele>162</ele>
        <time>2019-04-14T10:34:59Z</time>
      </trkpt>
      <trkpt lat="44.42718" lon="1.34138">
        <ele>162</ele>
        <time>2019-04-14T10:35:01Z</time>
      </trkpt>
      <trkpt lat="44.42722" lon="1.34137">
        <ele>162</ele>
        <time>2019-04-14T10:35:02Z</time>
      </trkpt>
      <trkpt lat="44.42725" lon="1.34138">
        <ele>163</ele>
        <time>2019-04-14T10:35:03Z</time>
      </trkpt>
      <trkpt lat="44.42727" lon="1.34138">
        <ele>163</ele>
        <time>2019-04-14T10:35:04Z</time>
      </trkpt>
      <trkpt lat="44.42728" lon="1.34138">
        <ele>163</ele>
        <time>2019-04-14T10:35:05Z</time>
      </trkpt>
      <trkpt lat="44.4273" lon="1.34138">
        <ele>163</ele>
        <time>2019-04-14T10:35:06Z</time>
      </trkpt>
      <trkpt lat="44.42732" lon="1.34138">
        <ele>163</ele>
        <time>2019-04-14T10:35:07Z</time>
      </trkpt>
      <trkpt lat="44.42733" lon="1.34138">
        <ele>164</ele>
        <time>2019-04-14T10:35:08Z</time>
      </trkpt>
      <trkpt lat="44.42735" lon="1.34138">
        <ele>164</ele>
        <time>2019-04-14T10:35:09Z</time>
      </trkpt>
      <trkpt lat="44.42736" lon="1.34139">
        <ele>164</ele>
        <time>2019-04-14T10:35:10Z</time>
      </trkpt>
      <trkpt lat="44.42737" lon="1.34139">
        <ele>164</ele>
        <time>2019-04-14T10:35:11Z</time>
      </trkpt>
      <trkpt lat="44.42738" lon="1.34139">
        <ele>165</ele>
        <time>2019-04-14T10:35:12Z</time>
      </trkpt>
      <trkpt lat="44.4274" lon="1.34139">
        <ele>165</ele>
        <time>2019-04-14T10:35:13Z</time>
      </trkpt>
      <trkpt lat="44.42741" lon="1.34139">
        <ele>165</ele>
        <time>2019-04-14T10:35:14Z</time>
      </trkpt>
      <trkpt lat="44.42743" lon="1.34139">
        <ele>165</ele>
        <time>2019-04-14T10:35:15Z</time>
      </trkpt>
      <trkpt lat="44.42744" lon="1.34139">
        <ele>166</ele>
        <time>2019-04-14T10:35:16Z</time>
      </trkpt>
      <trkpt lat="44.42745" lon="1.34139">
        <ele>166</ele>
        <time>2019-04-14T10:35:17Z</time>
      </trkpt>
      <trkpt lat="44.42746" lon="1.34139">
        <ele>166</ele>
        <time>2019-04-14T10:35:18Z</time>
      </trkpt>
      <trkpt lat="44.42747" lon="1.34139">
        <ele>166</ele>
        <time>2019-04-14T10:35:19Z</time>
      </trkpt>
      <trkpt lat="44.42749" lon="1.34139">
        <ele>166</ele>
        <time>2019-04-14T10:35:20Z</time>
      </trkpt>
      <trkpt lat="44.4275" lon="1.3414">
        <ele>167</ele>
        <time>2019-04-14T10:35:21Z</time>
      </trkpt>
      <trkpt lat="44.42752" lon="1.3414">
        <ele>167</ele>
        <time>2019-04-14T10:35:22Z</time>
      </trkpt>
      <trkpt lat="44.42753" lon="1.3414">
        <ele>167</ele>
        <time>2019-04-14T10:35:23Z</time>
      </trkpt>
      <trkpt lat="44.42755" lon="1.3414">
        <ele>167</ele>
        <time>2019-04-14T10:35:24Z</time>
      </trkpt>
      <trkpt lat="44.42755" lon="1.34141">
        <ele>168</ele>
        <time>2019-04-14T10:35:25Z</time>
      </trkpt>
      <trkpt lat="44.42757" lon="1.34141">
        <ele>168</ele>
        <time>2019-04-14T10:35:26Z</time>
      </trkpt>
      <trkpt lat="44.42758" lon="1.34141">
        <ele>168</ele>
        <time>2019-04-14T10:35:27Z</time>
      </trkpt>
      <trkpt lat="44.42759" lon="1.34141">
        <ele>168</ele>
        <time>2019-04-14T10:35:28Z</time>
      </trkpt>
      <trkpt lat="44.42759" lon="1.34141">
        <ele>169</ele>
        <time>2019-04-14T10:35:29Z</time>
      </trkpt>
      <trkpt lat="44.4276" lon="1.34141">
        <ele>169</ele>
        <time>2019-04-14T10:35:30Z</time>
      </trkpt>
      <trkpt lat="44.42761" lon="1.34141">
        <ele>169</ele>
        <time>2019-04-14T10:35:31Z</time>
      </trkpt>
      <trkpt lat="44.42762" lon="1.3414">
        <ele>169</ele>
        <time>2019-04-14T10:35:33Z</time>
      </trkpt>
      <trkpt lat="44.42764" lon="1.3414">
        <ele>169</ele>
        <time>2019-04-14T10:35:34Z</time>
      </trkpt>
      <trkpt lat="44.42765" lon="1.3414">
        <ele>170</ele>
        <time>2019-04-14T10:35:35Z</time>
      </trkpt>
      <trkpt lat="44.42768" lon="1.3414">
        <ele>170</ele>
        <time>2019-04-14T10:35:36Z</time>
      </trkpt>
      <trkpt lat="44.42769" lon="1.3414">
        <ele>170</ele>
        <time>2019-04-14T10:35:37Z</time>
      </trkpt>
      <trkpt lat="44.4277" lon="1.3414">
        <ele>170</ele>
        <time>2019-04-14T10:35:38Z</time>
      </trkpt>
      <trkpt lat="44.42771" lon="1.34141">
        <ele>171</ele>
        <time>2019-04-14T10:35:39Z</time>
      </trkpt>
      <trkpt lat="44.42773" lon="1.34141">
        <ele>171</ele>
        <time>2019-04-14T10:35:40Z</time>
      </trkpt>
      <trkpt lat="44.42774" lon="1.34141">
        <ele>171</ele>
        <time>2019-04-14T10:35:41Z</time>
      </trkpt>
      <trkpt lat="44.42775" lon="1.34142">
        <ele>171</ele>
        <time>2019-04-14T10:35:42Z</time>
      </trkpt>
      <trkpt lat="44.42776" lon="1.34142">
        <ele>172</ele>
        <time>2019-04-14T10:35:43Z</time>
      </trkpt>
      <trkpt lat="44.42778" lon="1.34142">
        <ele>172</ele>
        <time>2019-04-14T10:35:44Z</time>
      </trkpt>
      <trkpt lat="44.42778" lon="1.34142">
        <ele>172</ele>
        <time>2019-04-14T10:35:45Z</time>
      </trkpt>
      <trkpt lat="44.42779" lon="1.34143">
        <ele>172</ele>
        <time>2019-04-14T10:35:46Z</time>
      </trkpt>
      <trkpt lat="44.4278" lon="1.34144">
        <ele>172</ele>
        <time>2019-04-14T10:35:47Z</time>
      </trkpt>
      <trkpt lat="44.42781" lon="1.34144">
        <ele>172</ele>
        <time>2019-04-14T10:35:48Z</time>
      </trkpt>
      <trkpt lat="44.42783" lon="1.34145">
        <ele>173</ele>
        <time>2019-04-14T10:35:49Z</time>
      </trkpt>
      <trkpt lat="44.42784" lon="1.34146">
        <ele>173</ele>
        <time>2019-04-14T10:35:50Z</time>
      </trkpt>
      <trkpt lat="44.42785" lon="1.34146">
        <ele>173</ele>
        <time>2019-04-14T10:35:51Z</time>
      </trkpt>
      <trkpt lat="44.42786" lon="1.34147">
        <ele>173</ele>
        <time>2019-04-14T10:35:52Z</time>
      </trkpt>
      <trkpt lat="44.42787" lon="1.34148">
        <ele>173</ele>
        <time>2019-04-14T10:35:53Z</time>
      </trkpt>
      <trkpt lat="44.42789" lon="1.34148">
        <ele>174</ele>
        <time>2019-04-14T10:35:54Z</time>
      </trkpt>
      <trkpt lat="44.4279" lon="1.34149">
        <ele>174</ele>
        <time>2019-04-14T10:35:55Z</time>
      </trkpt>
      <trkpt lat="44.42791" lon="1.3415">
        <ele>174</ele>
        <time>2019-04-14T10:35:56Z</time>
      </trkpt>
      <trkpt lat="44.42792" lon="1.34151">
        <ele>174</ele>
        <time>2019-04-14T10:35:57Z</time>
      </trkpt>
      <trkpt lat="44.42794" lon="1.34151">
        <ele>174</ele>
        <time>2019-04-14T10:35:58Z</time>
      </trkpt>
      <trkpt lat="44.42795" lon="1.34152">
        <ele>175</ele>
        <time>2019-04-14T10:35:59Z</time>
      </trkpt>
      <trkpt lat="44.42796" lon="1.34153">
        <ele>175</ele>
        <time>2019-04-14T10:36:00Z</time>
      </trkpt>
      <trkpt lat="44.42797" lon="1.34154">
        <ele>175</ele>
        <time>2019-04-14T10:36:01Z</time>
      </trkpt>
      <trkpt lat="44.42798" lon="1.34155">
        <ele>175</ele>
        <time>2019-04-14T10:36:03Z</time>
      </trkpt>
      <trkpt lat="44.42799" lon="1.34155">
        <ele>175</ele>
        <time>2019-04-14T10:36:04Z</time>
      </trkpt>
      <trkpt lat="44.428" lon="1.34156">
        <ele>176</ele>
        <time>2019-04-14T10:36:05Z</time>
      </trkpt>
      <trkpt lat="44.42801" lon="1.34157">
        <ele>176</ele>
        <time>2019-04-14T10:36:06Z</time>
      </trkpt>
      <trkpt lat="44.42803" lon="1.34157">
        <ele>176</ele>
        <time>2019-04-14T10:36:07Z</time>
      </trkpt>
      <trkpt lat="44.42804" lon="1.34158">
        <ele>176</ele>
        <time>2019-04-14T10:36:08Z</time>
      </trkpt>
      <trkpt lat="44.42805" lon="1.34158">
        <ele>176</ele>
        <time>2019-04-14T10:36:09Z</time>
      </trkpt>
      <trkpt lat="44.42806" lon="1.34159">
        <ele>177</ele>
        <time>2019-04-14T10:36:10Z</time>
      </trkpt>
      <trkpt lat="44.42807" lon="1.3416">
        <ele>177</ele>
        <time>2019-04-14T10:36:11Z</time>
      </trkpt>
      <trkpt lat="44.42808" lon="1.34161">
        <ele>177</ele>
        <time>2019-04-14T10:36:12Z</time>
      </trkpt>
      <trkpt lat="44.4281" lon="1.34161">
        <ele>177</ele>
        <time>2019-04-14T10:36:13Z</time>
      </trkpt>
      <trkpt lat="44.42811" lon="1.34161">
        <ele>178</ele>
        <time>2019-04-14T10:36:14Z</time>
      </trkpt>
      <trkpt lat="44.42812" lon="1.34162">
        <ele>178</ele>
        <time>2019-04-14T10:36:15Z</time>
      </trkpt>
      <trkpt lat="44.42813" lon="1.34162">
        <ele>178</ele>
        <time>2019-04-14T10:36:16Z</time>
      </trkpt>
      <trkpt lat="44.42814" lon="1.34163">
        <ele>178</ele>
        <time>2019-04-14T10:36:17Z</time>
      </trkpt>
      <trkpt lat="44.42815" lon="1.34163">
        <ele>178</ele>
        <time>2019-04-14T10:36:18Z</time>
      </trkpt>
      <trkpt lat="44.42816" lon="1.34164">
        <ele>179</ele>
        <time>2019-04-14T10:36:19Z</time>
      </trkpt>
      <trkpt lat="44.42817" lon="1.34164">
        <ele>179</ele>
        <time>2019-04-14T10:36:20Z</time>
      </trkpt>
      <trkpt lat="44.42818" lon="1.34165">
        <ele>179</ele>
        <time>2019-04-14T10:36:21Z</time>
      </trkpt>
      <trkpt lat="44.4282" lon="1.34166">
        <ele>180</ele>
        <time>2019-04-14T10:36:22Z</time>
      </trkpt>
      <trkpt lat="44.42821" lon="1.34167">
        <ele>180</ele>
        <time>2019-04-14T10:36:23Z</time>
      </trkpt>
      <trkpt lat="44.42822" lon="1.34168">
        <ele>180</ele>
        <time>2019-04-14T10:36:24Z</time>
      </trkpt>
      <trkpt lat="44.42823" lon="1.34169">
        <ele>180</ele>
        <time>2019-04-14T10:36:25Z</time>
      </trkpt>
      <trkpt lat="44.42824" lon="1.3417">
        <ele>180</ele>
        <time>2019-04-14T10:36:26Z</time>
      </trkpt>
      <trkpt lat="44.42825" lon="1.34171">
        <ele>181</ele>
        <time>2019-04-14T10:36:27Z</time>
      </trkpt>
      <trkpt lat="44.42826" lon="1.34171">
        <ele>181</ele>
        <time>2019-04-14T10:36:28Z</time>
      </trkpt>
      <trkpt lat="44.42827" lon="1.34172">
        <ele>181</ele>
        <time>2019-04-14T10:36:29Z</time>
      </trkpt>
      <trkpt lat="44.42828" lon="1.34173">
        <ele>181</ele>
        <time>2019-04-14T10:36:30Z</time>
      </trkpt>
      <trkpt lat="44.42829" lon="1.34173">
        <ele>182</ele>
        <time>2019-04-14T10:36:31Z</time>
      </trkpt>
      <trkpt lat="44.4283" lon="1.34174">
        <ele>182</ele>
        <time>2019-04-14T10:36:32Z</time>
      </trkpt>
      <trkpt lat="44.42831" lon="1.34174">
        <ele>182</ele>
        <time>2019-04-14T10:36:33Z</time>
      </trkpt>
      <trkpt lat="44.42831" lon="1.34174">
        <ele>182</ele>
        <time>2019-04-14T10:36:34Z</time>
      </trkpt>
      <trkpt lat="44.42831" lon="1.34174">
        <ele>182</ele>
        <time>2019-04-14T10:36:35Z</time>
      </trkpt>
      <trkpt lat="44.42831" lon="1.34174">
        <ele>182</ele>
        <time>2019-04-14T10:36:36Z</time>
      </trkpt>
      <trkpt lat="44.42831" lon="1.34174">
        <ele>182</ele>
        <time>2019-04-14T10:36:37Z</time>
      </trkpt>
      <trkpt lat="44.42832" lon="1.34174">
        <ele>182</ele>
        <time>2019-04-14T10:36:38Z</time>
      </trkpt>
      <trkpt lat="44.42832" lon="1.34174">
        <ele>182</ele>
        <time>2019-04-14T10:36:39Z</time>
      </trkpt>
      <trkpt lat="44.42832" lon="1.34174">
        <ele>182</ele>
        <time>2019-04-14T10:36:40Z</time>
      </trkpt>
      <trkpt lat="44.42851" lon="1.34184">
        <ele>186</ele>
        <time>2019-04-14T10:37:05Z</time>
      </trkpt>
      <trkpt lat="44.42852" lon="1.34185">
        <ele>187</ele>
        <time>2019-04-14T10:37:06Z</time>
      </trkpt>
      <trkpt lat="44.42853" lon="1.34185">
        <ele>187</ele>
        <time>2019-04-14T10:37:07Z</time>
      </trkpt>
      <trkpt lat="44.42854" lon="1.34185">
        <ele>187</ele>
        <time>2019-04-14T10:37:09Z</time>
      </trkpt>
      <trkpt lat="44.42854" lon="1.34185">
        <ele>187</ele>
        <time>2019-04-14T10:37:10Z</time>
      </trkpt>
      <trkpt lat="44.42855" lon="1.34185">
        <ele>187</ele>
        <time>2019-04-14T10:37:11Z</time>
      </trkpt>
      <trkpt lat="44.42856" lon="1.34186">
        <ele>187</ele>
        <time>2019-04-14T10:37:12Z</time>
      </trkpt>
      <trkpt lat="44.42856" lon="1.34186">
        <ele>188</ele>
        <time>2019-04-14T10:37:13Z</time>
      </trkpt>
      <trkpt lat="44.42857" lon="1.34186">
        <ele>188</ele>
        <time>2019-04-14T10:37:14Z</time>
      </trkpt>
      <trkpt lat="44.42858" lon="1.34187">
        <ele>188</ele>
        <time>2019-04-14T10:37:15Z</time>
      </trkpt>
      <trkpt lat="44.42858" lon="1.34187">
        <ele>188</ele>
        <time>2019-04-14T10:37:16Z</time>
      </trkpt>
      <trkpt lat="44.42859" lon="1.34187">
        <ele>188</ele>
        <time>2019-04-14T10:37:17Z</time>
      </trkpt>
      <trkpt lat="44.4286" lon="1.34187">
        <ele>188</ele>
        <time>2019-04-14T10:37:18Z</time>
      </trkpt>
      <trkpt lat="44.42862" lon="1.34188">
        <ele>189</ele>
        <time>2019-04-14T10:37:19Z</time>
      </trkpt>
      <trkpt lat="44.42863" lon="1.34187">
        <ele>189</ele>
        <time>2019-04-14T10:37:20Z</time>
      </trkpt>
      <trkpt lat="44.42864" lon="1.34188">
        <ele>189</ele>
        <time>2019-04-14T10:37:21Z</time>
      </trkpt>
      <trkpt lat="44.42865" lon="1.34188">
        <ele>189</ele>
        <time>2019-04-14T10:37:22Z</time>
      </trkpt>
      <trkpt lat="44.42865" lon="1.34188">
        <ele>189</ele>
        <time>2019-04-14T10:37:23Z</time>
      </trkpt>
      <trkpt lat="44.42866" lon="1.34188">
        <ele>189</ele>
        <time>2019-04-14T10:37:24Z</time>
      </trkpt>
      <trkpt lat="44.42867" lon="1.34188">
        <ele>189</ele>
        <time>2019-04-14T10:37:25Z</time>
      </trkpt>
      <trkpt lat="44.42868" lon="1.34188">
        <ele>190</ele>
        <time>2019-04-14T10:37:26Z</time>
      </trkpt>
      <trkpt lat="44.42868" lon="1.34188">
        <ele>190</ele>
        <time>2019-04-14T10:37:27Z</time>
      </trkpt>
      <trkpt lat="44.42869" lon="1.34188">
        <ele>190</ele>
        <time>2019-04-14T10:37:28Z</time>
      </trkpt>
      <trkpt lat="44.4287" lon="1.34189">
        <ele>190</ele>
        <time>2019-04-14T10:37:29Z</time>
      </trkpt>
      <trkpt lat="44.42871" lon="1.34189">
        <ele>190</ele>
        <time>2019-04-14T10:37:30Z</time>
      </trkpt>
      <trkpt lat="44.42871" lon="1.34189">
        <ele>190</ele>
        <time>2019-04-14T10:37:31Z</time>
      </trkpt>
      <trkpt lat="44.42871" lon="1.34189">
        <ele>190</ele>
        <time>2019-04-14T10:37:33Z</time>
      </trkpt>
      <trkpt lat="44.42871" lon="1.34189">
        <ele>190</ele>
        <time>2019-04-14T10:37:34Z</time>
      </trkpt>
      <trkpt lat="44.42871" lon="1.34189">
        <ele>190</ele>
        <time>2019-04-14T10:37:35Z</time>
      </trkpt>
      <trkpt lat="44.42872" lon="1.34189">
        <ele>190</ele>
        <time>2019-04-14T10:37:36Z</time>
      </trkpt>
      <trkpt lat="44.42872" lon="1.34189">
        <ele>190</ele>
        <time>2019-04-14T10:37:37Z</time>
      </trkpt>
      <trkpt lat="44.42872" lon="1.34189">
        <ele>190</ele>
        <time>2019-04-14T10:37:38Z</time>
      </trkpt>
      <trkpt lat="44.42886" lon="1.34189">
        <ele>192</ele>
        <time>2019-04-14T10:37:56Z</time>
      </trkpt>
      <trkpt lat="44.42887" lon="1.3419">
        <ele>193</ele>
        <time>2019-04-14T10:37:58Z</time>
      </trkpt>
      <trkpt lat="44.42887" lon="1.34189">
        <ele>193</ele>
        <time>2019-04-14T10:37:59Z</time>
      </trkpt>
      <trkpt lat="44.42888" lon="1.34189">
        <ele>193</ele>
        <time>2019-04-14T10:38:00Z</time>
      </trkpt>
      <trkpt lat="44.4289" lon="1.34188">
        <ele>193</ele>
        <time>2019-04-14T10:38:01Z</time>
      </trkpt>
      <trkpt lat="44.42891" lon="1.34187">
        <ele>194</ele>
        <time>2019-04-14T10:38:02Z</time>
      </trkpt>
      <trkpt lat="44.42892" lon="1.34186">
        <ele>194</ele>
        <time>2019-04-14T10:38:03Z</time>
      </trkpt>
      <trkpt lat="44.42893" lon="1.34186">
        <ele>194</ele>
        <time>2019-04-14T10:38:04Z</time>
      </trkpt>
      <trkpt lat="44.42894" lon="1.34185">
        <ele>194</ele>
        <time>2019-04-14T10:38:05Z</time>
      </trkpt>
      <trkpt lat="44.42895" lon="1.34185">
        <ele>194</ele>
        <time>2019-04-14T10:38:06Z</time>
      </trkpt>
      <trkpt lat="44.42897" lon="1.34184">
        <ele>194</ele>
        <time>2019-04-14T10:38:07Z</time>
      </trkpt>
      <trkpt lat="44.42898" lon="1.34183">
        <ele>195</ele>
        <time>2019-04-14T10:38:08Z</time>
      </trkpt>
      <trkpt lat="44.42899" lon="1.34182">
        <ele>195</ele>
        <time>2019-04-14T10:38:09Z</time>
      </trkpt>
      <trkpt lat="44.429" lon="1.34182">
        <ele>195</ele>
        <time>2019-04-14T10:38:10Z</time>
      </trkpt>
      <trkpt lat="44.429" lon="1.34181">
        <ele>195</ele>
        <time>2019-04-14T10:38:11Z</time>
      </trkpt>
      <trkpt lat="44.42901" lon="1.3418">
        <ele>195</ele>
        <time>2019-04-14T10:38:12Z</time>
      </trkpt>
      <trkpt lat="44.42902" lon="1.3418">
        <ele>195</ele>
        <time>2019-04-14T10:38:13Z</time>
      </trkpt>
      <trkpt lat="44.42904" lon="1.34177">
        <ele>196</ele>
        <time>2019-04-14T10:38:14Z</time>
      </trkpt>
      <trkpt lat="44.42905" lon="1.34176">
        <ele>196</ele>
        <time>2019-04-14T10:38:15Z</time>
      </trkpt>
      <trkpt lat="44.42906" lon="1.34174">
        <ele>196</ele>
        <time>2019-04-14T10:38:16Z</time>
      </trkpt>
      <trkpt lat="44.42906" lon="1.34173">
        <ele>196</ele>
        <time>2019-04-14T10:38:17Z</time>
      </trkpt>
      <trkpt lat="44.42907" lon="1.34172">
        <ele>196</ele>
        <time>2019-04-14T10:38:18Z</time>
      </trkpt>
      <trkpt lat="44.42908" lon="1.3417">
        <ele>196</ele>
        <time>2019-04-14T10:38:19Z</time>
      </trkpt>
      <trkpt lat="44.42909" lon="1.34169">
        <ele>197</ele>
        <time>2019-04-14T10:38:20Z</time>
      </trkpt>
      <trkpt lat="44.42909" lon="1.34167">
        <ele>197</ele>
        <time>2019-04-14T10:38:21Z</time>
      </trkpt>
      <trkpt lat="44.4291" lon="1.34165">
        <ele>197</ele>
        <time>2019-04-14T10:38:22Z</time>
      </trkpt>
      <trkpt lat="44.4291" lon="1.34164">
        <ele>197</ele>
        <time>2019-04-14T10:38:23Z</time>
      </trkpt>
      <trkpt lat="44.4291" lon="1.34162">
        <ele>197</ele>
        <time>2019-04-14T10:38:24Z</time>
      </trkpt>
      <trkpt lat="44.4291" lon="1.34161">
        <ele>197</ele>
        <time>2019-04-14T10:38:25Z</time>
      </trkpt>
      <trkpt lat="44.4291" lon="1.3416">
        <ele>198</ele>
        <time>2019-04-14T10:38:26Z</time>
      </trkpt>
      <trkpt lat="44.42911" lon="1.34158">
        <ele>198</ele>
        <time>2019-04-14T10:38:27Z</time>
      </trkpt>
      <trkpt lat="44.42911" lon="1.34157">
        <ele>198</ele>
        <time>2019-04-14T10:38:28Z</time>
      </trkpt>
      <trkpt lat="44.42912" lon="1.34156">
        <ele>198</ele>
        <time>2019-04-14T10:38:29Z</time>
      </trkpt>
      <trkpt lat="44.42913" lon="1.34154">
        <ele>198</ele>
        <time>2019-04-14T10:38:31Z</time>
      </trkpt>
      <trkpt lat="44.42914" lon="1.34153">
        <ele>199</ele>
        <time>2019-04-14T10:38:32Z</time>
      </trkpt>
      <trkpt lat="44.42914" lon="1.34151">
        <ele>199</ele>
        <time>2019-04-14T10:38:33Z</time>
      </trkpt>
      <trkpt lat="44.42914" lon="1.3415">
        <ele>199</ele>
        <time>2019-04-14T10:38:34Z</time>
      </trkpt>
      <trkpt lat="44.42915" lon="1.34149">
        <ele>199</ele>
        <time>2019-04-14T10:38:35Z</time>
      </trkpt>
      <trkpt lat="44.42915" lon="1.34147">
        <ele>199</ele>
        <time>2019-04-14T10:38:36Z</time>
      </trkpt>
      <trkpt lat="44.42916" lon="1.34146">
        <ele>200</ele>
        <time>2019-04-14T10:38:37Z</time>
      </trkpt>
      <trkpt lat="44.42917" lon="1.34145">
        <ele>200</ele>
        <time>2019-04-14T10:38:38Z</time>
      </trkpt>
      <trkpt lat="44.42918" lon="1.34143">
        <ele>200</ele>
        <time>2019-04-14T10:38:39Z</time>
      </trkpt>
      <trkpt lat="44.42918" lon="1.34142">
        <ele>200</ele>
        <time>2019-04-14T10:38:40Z</time>
      </trkpt>
      <trkpt lat="44.42919" lon="1.34141">
        <ele>200</ele>
        <time>2019-04-14T10:38:41Z</time>
      </trkpt>
      <trkpt lat="44.42921" lon="1.34139">
        <ele>201</ele>
        <time>2019-04-14T10:38:42Z</time>
      </trkpt>
      <trkpt lat="44.42922" lon="1.34138">
        <ele>201</ele>
        <time>2019-04-14T10:38:43Z</time>
      </trkpt>
      <trkpt lat="44.42923" lon="1.34136">
        <ele>201</ele>
        <time>2019-04-14T10:38:44Z</time>
      </trkpt>
      <trkpt lat="44.42924" lon="1.34134">
        <ele>202</ele>
        <time>2019-04-14T10:38:46Z</time>
      </trkpt>
      <trkpt lat="44.42926" lon="1.34133">
        <ele>202</ele>
        <time>2019-04-14T10:38:47Z</time>
      </trkpt>
      <trkpt lat="44.42927" lon="1.34132">
        <ele>202</ele>
        <time>2019-04-14T10:38:48Z</time>
      </trkpt>
      <trkpt lat="44.42928" lon="1.3413">
        <ele>202</ele>
        <time>2019-04-14T10:38:49Z</time>
      </trkpt>
      <trkpt lat="44.42928" lon="1.34129">
        <ele>203</ele>
        <time>2019-04-14T10:38:50Z</time>
      </trkpt>
      <trkpt lat="44.42928" lon="1.34127">
        <ele>203</ele>
        <time>2019-04-14T10:38:51Z</time>
      </trkpt>
      <trkpt lat="44.42928" lon="1.34125">
        <ele>203</ele>
        <time>2019-04-14T10:38:52Z</time>
      </trkpt>
      <trkpt lat="44.42929" lon="1.34122">
        <ele>203</ele>
        <time>2019-04-14T10:38:53Z</time>
      </trkpt>
      <trkpt lat="44.42929" lon="1.3412">
        <ele>204</ele>
        <time>2019-04-14T10:38:54Z</time>
      </trkpt>
      <trkpt lat="44.4293" lon="1.34119">
        <ele>204</ele>
        <time>2019-04-14T10:38:56Z</time>
      </trkpt>
      <trkpt lat="44.42931" lon="1.34117">
        <ele>204</ele>
        <time>2019-04-14T10:38:57Z</time>
      </trkpt>
      <trkpt lat="44.42933" lon="1.34115">
        <ele>204</ele>
        <time>2019-04-14T10:38:58Z</time>
      </trkpt>
      <trkpt lat="44.42933" lon="1.34114">
        <ele>205</ele>
        <time>2019-04-14T10:38:59Z</time>
      </trkpt>
      <trkpt lat="44.42933" lon="1.34112">
        <ele>205</ele>
        <time>2019-04-14T10:39:00Z</time>
      </trkpt>
      <trkpt lat="44.42934" lon="1.34111">
        <ele>205</ele>
        <time>2019-04-14T10:39:01Z</time>
      </trkpt>
      <trkpt lat="44.42935" lon="1.3411">
        <ele>205</ele>
        <time>2019-04-14T10:39:02Z</time>
      </trkpt>
      <trkpt lat="44.42936" lon="1.34108">
        <ele>206</ele>
        <time>2019-04-14T10:39:03Z</time>
      </trkpt>
      <trkpt lat="44.42937" lon="1.34107">
        <ele>206</ele>
        <time>2019-04-14T10:39:04Z</time>
      </trkpt>
      <trkpt lat="44.42935" lon="1.34105">
        <ele>206</ele>
        <time>2019-04-14T10:39:05Z</time>
      </trkpt>
      <trkpt lat="44.42936" lon="1.34104">
        <ele>206</ele>
        <time>2019-04-14T10:39:06Z</time>
      </trkpt>
      <trkpt lat="44.42937" lon="1.34102">
        <ele>207</ele>
        <time>2019-04-14T10:39:08Z</time>
      </trkpt>
      <trkpt lat="44.42938" lon="1.34101">
        <ele>207</ele>
        <time>2019-04-14T10:39:09Z</time>
      </trkpt>
      <trkpt lat="44.42938" lon="1.34099">
        <ele>207</ele>
        <time>2019-04-14T10:39:10Z</time>
      </trkpt>
      <trkpt lat="44.42939" lon="1.34097">
        <ele>207</ele>
        <time>2019-04-14T10:39:11Z</time>
      </trkpt>
      <trkpt lat="44.42939" lon="1.34096">
        <ele>207</ele>
        <time>2019-04-14T10:39:12Z</time>
      </trkpt>
      <trkpt lat="44.4294" lon="1.34094">
        <ele>208</ele>
        <time>2019-04-14T10:39:13Z</time>
      </trkpt>
      <trkpt lat="44.4294" lon="1.34093">
        <ele>208</ele>
        <time>2019-04-14T10:39:14Z</time>
      </trkpt>
      <trkpt lat="44.42942" lon="1.34092">
        <ele>208</ele>
        <time>2019-04-14T10:39:15Z</time>
      </trkpt>
      <trkpt lat="44.42943" lon="1.34091">
        <ele>208</ele>
        <time>2019-04-14T10:39:16Z</time>
      </trkpt>
      <trkpt lat="44.42943" lon="1.3409">
        <ele>208</ele>
        <time>2019-04-14T10:39:17Z</time>
      </trkpt>
      <trkpt lat="44.42944" lon="1.34089">
        <ele>209</ele>
        <time>2019-04-14T10:39:18Z</time>
      </trkpt>
      <trkpt lat="44.42944" lon="1.34088">
        <ele>209</ele>
        <time>2019-04-14T10:39:19Z</time>
      </trkpt>
      <trkpt lat="44.42945" lon="1.34086">
        <ele>209</ele>
        <time>2019-04-14T10:39:20Z</time>
      </trkpt>
      <trkpt lat="44.42947" lon="1.34085">
        <ele>209</ele>
        <time>2019-04-14T10:39:21Z</time>
      </trkpt>
      <trkpt lat="44.42948" lon="1.34083">
        <ele>209</ele>
        <time>2019-04-14T10:39:22Z</time>
      </trkpt>
      <trkpt lat="44.42949" lon="1.34081">
        <ele>210</ele>
        <time>2019-04-14T10:39:23Z</time>
      </trkpt>
      <trkpt lat="44.4295" lon="1.3408">
        <ele>210</ele>
        <time>2019-04-14T10:39:24Z</time>
      </trkpt>
      <trkpt lat="44.42952" lon="1.34079">
        <ele>210</ele>
        <time>2019-04-14T10:39:25Z</time>
      </trkpt>
      <trkpt lat="44.42952" lon="1.34077">
        <ele>211</ele>
        <time>2019-04-14T10:39:27Z</time>
      </trkpt>
      <trkpt lat="44.42954" lon="1.34074">
        <ele>211</ele>
        <time>2019-04-14T10:39:29Z</time>
      </trkpt>
      <trkpt lat="44.42954" lon="1.34073">
        <ele>211</ele>
        <time>2019-04-14T10:39:30Z</time>
      </trkpt>
      <trkpt lat="44.42956" lon="1.34072">
        <ele>211</ele>
        <time>2019-04-14T10:39:31Z</time>
      </trkpt>
      <trkpt lat="44.42957" lon="1.34071">
        <ele>211</ele>
        <time>2019-04-14T10:39:32Z</time>
      </trkpt>
      <trkpt lat="44.42959" lon="1.3407">
        <ele>212</ele>
        <time>2019-04-14T10:39:33Z</time>
      </trkpt>
      <trkpt lat="44.42961" lon="1.34069">
        <ele>212</ele>
        <time>2019-04-14T10:39:34Z</time>
      </trkpt>
      <trkpt lat="44.42962" lon="1.34068">
        <ele>212</ele>
        <time>2019-04-14T10:39:35Z</time>
      </trkpt>
      <trkpt lat="44.42963" lon="1.34067">
        <ele>212</ele>
        <time>2019-04-14T10:39:36Z</time>
      </trkpt>
      <trkpt lat="44.42963" lon="1.34065">
        <ele>212</ele>
        <time>2019-04-14T10:39:37Z</time>
      </trkpt>
      <trkpt lat="44.42965" lon="1.34062">
        <ele>213</ele>
        <time>2019-04-14T10:39:38Z</time>
      </trkpt>
      <trkpt lat="44.42966" lon="1.34061">
        <ele>213</ele>
        <time>2019-04-14T10:39:39Z</time>
      </trkpt>
      <trkpt lat="44.42967" lon="1.3406">
        <ele>213</ele>
        <time>2019-04-14T10:39:40Z</time>
      </trkpt>
      <trkpt lat="44.42967" lon="1.34059">
        <ele>213</ele>
        <time>2019-04-14T10:39:41Z</time>
      </trkpt>
      <trkpt lat="44.42968" lon="1.34057">
        <ele>213</ele>
        <time>2019-04-14T10:39:42Z</time>
      </trkpt>
      <trkpt lat="44.42969" lon="1.34056">
        <ele>214</ele>
        <time>2019-04-14T10:39:43Z</time>
      </trkpt>
      <trkpt lat="44.42969" lon="1.34055">
        <ele>214</ele>
        <time>2019-04-14T10:39:44Z</time>
      </trkpt>
      <trkpt lat="44.4297" lon="1.34053">
        <ele>214</ele>
        <time>2019-04-14T10:39:45Z</time>
      </trkpt>
      <trkpt lat="44.42971" lon="1.34052">
        <ele>215</ele>
        <time>2019-04-14T10:39:46Z</time>
      </trkpt>
      <trkpt lat="44.42972" lon="1.3405">
        <ele>215</ele>
        <time>2019-04-14T10:39:47Z</time>
      </trkpt>
      <trkpt lat="44.42973" lon="1.34049">
        <ele>215</ele>
        <time>2019-04-14T10:39:49Z</time>
      </trkpt>
      <trkpt lat="44.42973" lon="1.34049">
        <ele>215</ele>
        <time>2019-04-14T10:39:50Z</time>
      </trkpt>
      <trkpt lat="44.42973" lon="1.34047">
        <ele>215</ele>
        <time>2019-04-14T10:39:51Z</time>
      </trkpt>
      <trkpt lat="44.42974" lon="1.34046">
        <ele>216</ele>
        <time>2019-04-14T10:39:52Z</time>
      </trkpt>
      <trkpt lat="44.42975" lon="1.34045">
        <ele>216</ele>
        <time>2019-04-14T10:39:53Z</time>
      </trkpt>
      <trkpt lat="44.42976" lon="1.34044">
        <ele>216</ele>
        <time>2019-04-14T10:39:54Z</time>
      </trkpt>
      <trkpt lat="44.42976" lon="1.34043">
        <ele>216</ele>
        <time>2019-04-14T10:39:55Z</time>
      </trkpt>
      <trkpt lat="44.42977" lon="1.34042">
        <ele>216</ele>
        <time>2019-04-14T10:39:56Z</time>
      </trkpt>
      <trkpt lat="44.42978" lon="1.34041">
        <ele>217</ele>
        <time>2019-04-14T10:39:57Z</time>
      </trkpt>
      <trkpt lat="44.42979" lon="1.3404">
        <ele>217</ele>
        <time>2019-04-14T10:39:58Z</time>
      </trkpt>
      <trkpt lat="44.4298" lon="1.34038">
        <ele>217</ele>
        <time>2019-04-14T10:39:59Z</time>
      </trkpt>
      <trkpt lat="44.42982" lon="1.34038">
        <ele>217</ele>
        <time>2019-04-14T10:40:00Z</time>
      </trkpt>
      <trkpt lat="44.42983" lon="1.34036">
        <ele>218</ele>
        <time>2019-04-14T10:40:01Z</time>
      </trkpt>
      <trkpt lat="44.42983" lon="1.34036">
        <ele>218</ele>
        <time>2019-04-14T10:40:02Z</time>
      </trkpt>
      <trkpt lat="44.42984" lon="1.34034">
        <ele>218</ele>
        <time>2019-04-14T10:40:03Z</time>
      </trkpt>
      <trkpt lat="44.42984" lon="1.34033">
        <ele>218</ele>
        <time>2019-04-14T10:40:04Z</time>
      </trkpt>
      <trkpt lat="44.42985" lon="1.34031">
        <ele>219</ele>
        <time>2019-04-14T10:40:05Z</time>
      </trkpt>
      <trkpt lat="44.42985" lon="1.3403">
        <ele>219</ele>
        <time>2019-04-14T10:40:07Z</time>
      </trkpt>
      <trkpt lat="44.42986" lon="1.34028">
        <ele>219</ele>
        <time>2019-04-14T10:40:08Z</time>
      </trkpt>
      <trkpt lat="44.42987" lon="1.34027">
        <ele>219</ele>
        <time>2019-04-14T10:40:09Z</time>
      </trkpt>
      <trkpt lat="44.42988" lon="1.34025">
        <ele>220</ele>
        <time>2019-04-14T10:40:10Z</time>
      </trkpt>
      <trkpt lat="44.42989" lon="1.34024">
        <ele>220</ele>
        <time>2019-04-14T10:40:11Z</time>
      </trkpt>
      <trkpt lat="44.4299" lon="1.3402">
        <ele>220</ele>
        <time>2019-04-14T10:40:12Z</time>
      </trkpt>
      <trkpt lat="44.42991" lon="1.34018">
        <ele>220</ele>
        <time>2019-04-14T10:40:13Z</time>
      </trkpt>
      <trkpt lat="44.42991" lon="1.34016">
        <ele>221</ele>
        <time>2019-04-14T10:40:14Z</time>
      </trkpt>
      <trkpt lat="44.42991" lon="1.34015">
        <ele>221</ele>
        <time>2019-04-14T10:40:15Z</time>
      </trkpt>
      <trkpt lat="44.42991" lon="1.34013">
        <ele>221</ele>
        <time>2019-04-14T10:40:16Z</time>
      </trkpt>
      <trkpt lat="44.42992" lon="1.34012">
        <ele>221</ele>
        <time>2019-04-14T10:40:17Z</time>
      </trkpt>
      <trkpt lat="44.42993" lon="1.34011">
        <ele>221</ele>
        <time>2019-04-14T10:40:18Z</time>
      </trkpt>
      <trkpt lat="44.42993" lon="1.34009">
        <ele>222</ele>
        <time>2019-04-14T10:40:19Z</time>
      </trkpt>
      <trkpt lat="44.42994" lon="1.34008">
        <ele>222</ele>
        <time>2019-04-14T10:40:20Z</time>
      </trkpt>
      <trkpt lat="44.42994" lon="1.34007">
        <ele>222</ele>
        <time>2019-04-14T10:40:21Z</time>
      </trkpt>
      <trkpt lat="44.42995" lon="1.34006">
        <ele>222</ele>
        <time>2019-04-14T10:40:22Z</time>
      </trkpt>
      <trkpt lat="44.42995" lon="1.34004">
        <ele>222</ele>
        <time>2019-04-14T10:40:23Z</time>
      </trkpt>
      <trkpt lat="44.42995" lon="1.34003">
        <ele>222</ele>
        <time>2019-04-14T10:40:24Z</time>
      </trkpt>
      <trkpt lat="44.42996" lon="1.34001">
        <ele>222</ele>
        <time>2019-04-14T10:40:25Z</time>
      </trkpt>
      <trkpt lat="44.42996" lon="1.34">
        <ele>223</ele>
        <time>2019-04-14T10:40:26Z</time>
      </trkpt>
      <trkpt lat="44.42997" lon="1.33999">
        <ele>223</ele>
        <time>2019-04-14T10:40:27Z</time>
      </trkpt>
      <trkpt lat="44.42998" lon="1.33998">
        <ele>223</ele>
        <time>2019-04-14T10:40:29Z</time>
      </trkpt>
      <trkpt lat="44.42998" lon="1.33997">
        <ele>223</ele>
        <time>2019-04-14T10:40:30Z</time>
      </trkpt>
      <trkpt lat="44.42999" lon="1.33996">
        <ele>223</ele>
        <time>2019-04-14T10:40:31Z</time>
      </trkpt>
      <trkpt lat="44.43" lon="1.33994">
        <ele>224</ele>
        <time>2019-04-14T10:40:32Z</time>
      </trkpt>
      <trkpt lat="44.43001" lon="1.33993">
        <ele>224</ele>
        <time>2019-04-14T10:40:33Z</time>
      </trkpt>
      <trkpt lat="44.43001" lon="1.33991">
        <ele>224</ele>
        <time>2019-04-14T10:40:34Z</time>
      </trkpt>
      <trkpt lat="44.43002" lon="1.3399">
        <ele>224</ele>
        <time>2019-04-14T10:40:35Z</time>
      </trkpt>
      <trkpt lat="44.43002" lon="1.33987">
        <ele>224</ele>
        <time>2019-04-14T10:40:36Z</time>
      </trkpt>
      <trkpt lat="44.43003" lon="1.33986">
        <ele>224</ele>
        <time>2019-04-14T10:40:37Z</time>
      </trkpt>
      <trkpt lat="44.43004" lon="1.33984">
        <ele>225</ele>
        <time>2019-04-14T10:40:38Z</time>
      </trkpt>
      <trkpt lat="44.43004" lon="1.33982">
        <ele>225</ele>
        <time>2019-04-14T10:40:39Z</time>
      </trkpt>
      <trkpt lat="44.43005" lon="1.33981">
        <ele>225</ele>
        <time>2019-04-14T10:40:40Z</time>
      </trkpt>
      <trkpt lat="44.43006" lon="1.3398">
        <ele>225</ele>
        <time>2019-04-14T10:40:41Z</time>
      </trkpt>
      <trkpt lat="44.43007" lon="1.33978">
        <ele>225</ele>
        <time>2019-04-14T10:40:42Z</time>
      </trkpt>
      <trkpt lat="44.43008" lon="1.33977">
        <ele>226</ele>
        <time>2019-04-14T10:40:43Z</time>
      </trkpt>
      <trkpt lat="44.43009" lon="1.33975">
        <ele>226</ele>
        <time>2019-04-14T10:40:44Z</time>
      </trkpt>
      <trkpt lat="44.4301" lon="1.33974">
        <ele>226</ele>
        <time>2019-04-14T10:40:45Z</time>
      </trkpt>
      <trkpt lat="44.4301" lon="1.33973">
        <ele>226</ele>
        <time>2019-04-14T10:40:46Z</time>
      </trkpt>
      <trkpt lat="44.43011" lon="1.33973">
        <ele>226</ele>
        <time>2019-04-14T10:40:47Z</time>
      </trkpt>
      <trkpt lat="44.43011" lon="1.33971">
        <ele>226</ele>
        <time>2019-04-14T10:40:48Z</time>
      </trkpt>
      <trkpt lat="44.43012" lon="1.3397">
        <ele>227</ele>
        <time>2019-04-14T10:40:49Z</time>
      </trkpt>
      <trkpt lat="44.43012" lon="1.33968">
        <ele>227</ele>
        <time>2019-04-14T10:40:50Z</time>
      </trkpt>
      <trkpt lat="44.43012" lon="1.33967">
        <ele>227</ele>
        <time>2019-04-14T10:40:51Z</time>
      </trkpt>
      <trkpt lat="44.43012" lon="1.33965">
        <ele>227</ele>
        <time>2019-04-14T10:40:52Z</time>
      </trkpt>
      <trkpt lat="44.43012" lon="1.33963">
        <ele>227</ele>
        <time>2019-04-14T10:40:53Z</time>
      </trkpt>
      <trkpt lat="44.43013" lon="1.33961">
        <ele>227</ele>
        <time>2019-04-14T10:40:54Z</time>
      </trkpt>
      <trkpt lat="44.43015" lon="1.3396">
        <ele>228</ele>
        <time>2019-04-14T10:40:55Z</time>
      </trkpt>
      <trkpt lat="44.43015" lon="1.33959">
        <ele>228</ele>
        <time>2019-04-14T10:40:56Z</time>
      </trkpt>
      <trkpt lat="44.43016" lon="1.33957">
        <ele>228</ele>
        <time>2019-04-14T10:40:58Z</time>
      </trkpt>
      <trkpt lat="44.43015" lon="1.33955">
        <ele>228</ele>
        <time>2019-04-14T10:40:59Z</time>
      </trkpt>
      <trkpt lat="44.43015" lon="1.33954">
        <ele>229</ele>
        <time>2019-04-14T10:41:00Z</time>
      </trkpt>
      <trkpt lat="44.43014" lon="1.33954">
        <ele>229</ele>
        <time>2019-04-14T10:41:01Z</time>
      </trkpt>
      <trkpt lat="44.43014" lon="1.33954">
        <ele>230</ele>
        <time>2019-04-14T10:41:02Z</time>
      </trkpt>
      <trkpt lat="44.43014" lon="1.33955">
        <ele>230</ele>
        <time>2019-04-14T10:41:03Z</time>
      </trkpt>
      <trkpt lat="44.43014" lon="1.33955">
        <ele>230</ele>
        <time>2019-04-14T10:41:04Z</time>
      </trkpt>
      <trkpt lat="44.43014" lon="1.33955">
        <ele>230</ele>
        <time>2019-04-14T10:41:05Z</time>
      </trkpt>
      <trkpt lat="44.43013" lon="1.33955">
        <ele>231</ele>
        <time>2019-04-14T10:41:06Z</time>
      </trkpt>
      <trkpt lat="44.43012" lon="1.33956">
        <ele>231</ele>
        <time>2019-04-14T10:41:07Z</time>
      </trkpt>
      <trkpt lat="44.43001" lon="1.33966">
        <ele>235</ele>
        <time>2019-04-14T10:41:25Z</time>
      </trkpt>
      <trkpt lat="44.43" lon="1.33967">
        <ele>235</ele>
        <time>2019-04-14T10:41:26Z</time>
      </trkpt>
      <trkpt lat="44.42999" lon="1.33968">
        <ele>236</ele>
        <time>2019-04-14T10:41:27Z</time>
      </trkpt>
      <trkpt lat="44.42998" lon="1.33968">
        <ele>236</ele>
        <time>2019-04-14T10:41:28Z</time>
      </trkpt>
      <trkpt lat="44.42997" lon="1.33969">
        <ele>236</ele>
        <time>2019-04-14T10:41:29Z</time>
      </trkpt>
      <trkpt lat="44.42996" lon="1.3397">
        <ele>236</ele>
        <time>2019-04-14T10:41:30Z</time>
      </trkpt>
      <trkpt lat="44.42995" lon="1.33971">
        <ele>236</ele>
        <time>2019-04-14T10:41:31Z</time>
      </trkpt>
      <trkpt lat="44.42991" lon="1.3397">
        <ele>236</ele>
        <time>2019-04-14T10:41:32Z</time>
      </trkpt>
      <trkpt lat="44.42989" lon="1.33971">
        <ele>237</ele>
        <time>2019-04-14T10:41:33Z</time>
      </trkpt>
      <trkpt lat="44.42987" lon="1.33971">
        <ele>237</ele>
        <time>2019-04-14T10:41:34Z</time>
      </trkpt>
      <trkpt lat="44.42986" lon="1.33972">
        <ele>237</ele>
        <time>2019-04-14T10:41:36Z</time>
      </trkpt>
      <trkpt lat="44.42985" lon="1.33973">
        <ele>237</ele>
        <time>2019-04-14T10:41:37Z</time>
      </trkpt>
      <trkpt lat="44.42983" lon="1.33973">
        <ele>237</ele>
        <time>2019-04-14T10:41:38Z</time>
      </trkpt>
      <trkpt lat="44.42982" lon="1.33973">
        <ele>237</ele>
        <time>2019-04-14T10:41:39Z</time>
      </trkpt>
      <trkpt lat="44.42981" lon="1.33974">
        <ele>237</ele>
        <time>2019-04-14T10:41:40Z</time>
      </trkpt>
      <trkpt lat="44.4298" lon="1.33975">
        <ele>237</ele>
        <time>2019-04-14T10:41:41Z</time>
      </trkpt>
      <trkpt lat="44.42978" lon="1.33976">
        <ele>237</ele>
        <time>2019-04-14T10:41:42Z</time>
      </trkpt>
      <trkpt lat="44.42977" lon="1.33976">
        <ele>238</ele>
        <time>2019-04-14T10:41:43Z</time>
      </trkpt>
      <trkpt lat="44.42976" lon="1.33976">
        <ele>238</ele>
        <time>2019-04-14T10:41:44Z</time>
      </trkpt>
      <trkpt lat="44.42975" lon="1.33977">
        <ele>238</ele>
        <time>2019-04-14T10:41:45Z</time>
      </trkpt>
      <trkpt lat="44.42974" lon="1.33977">
        <ele>239</ele>
        <time>2019-04-14T10:41:46Z</time>
      </trkpt>
      <trkpt lat="44.42973" lon="1.33977">
        <ele>239</ele>
        <time>2019-04-14T10:41:47Z</time>
      </trkpt>
      <trkpt lat="44.42972" lon="1.33978">
        <ele>239</ele>
        <time>2019-04-14T10:41:48Z</time>
      </trkpt>
      <trkpt lat="44.4297" lon="1.33979">
        <ele>240</ele>
        <time>2019-04-14T10:41:49Z</time>
      </trkpt>
      <trkpt lat="44.42969" lon="1.33979">
        <ele>240</ele>
        <time>2019-04-14T10:41:50Z</time>
      </trkpt>
      <trkpt lat="44.42969" lon="1.33979">
        <ele>240</ele>
        <time>2019-04-14T10:41:51Z</time>
      </trkpt>
      <trkpt lat="44.42968" lon="1.33979">
        <ele>241</ele>
        <time>2019-04-14T10:41:52Z</time>
      </trkpt>
      <trkpt lat="44.42967" lon="1.33978">
        <ele>241</ele>
        <time>2019-04-14T10:41:53Z</time>
      </trkpt>
      <trkpt lat="44.42966" lon="1.33978">
        <ele>241</ele>
        <time>2019-04-14T10:41:55Z</time>
      </trkpt>
      <trkpt lat="44.42965" lon="1.33977">
        <ele>242</ele>
        <time>2019-04-14T10:41:56Z</time>
      </trkpt>
      <trkpt lat="44.42964" lon="1.33977">
        <ele>242</ele>
        <time>2019-04-14T10:41:57Z</time>
      </trkpt>
      <trkpt lat="44.42963" lon="1.33977">
        <ele>242</ele>
        <time>2019-04-14T10:41:58Z</time>
      </trkpt>
      <trkpt lat="44.42962" lon="1.33977">
        <ele>242</ele>
        <time>2019-04-14T10:41:59Z</time>
      </trkpt>
      <trkpt lat="44.42961" lon="1.33978">
        <ele>243</ele>
        <time>2019-04-14T10:42:00Z</time>
      </trkpt>
      <trkpt lat="44.42959" lon="1.33979">
        <ele>243</ele>
        <time>2019-04-14T10:42:01Z</time>
      </trkpt>
      <trkpt lat="44.42958" lon="1.33979">
        <ele>243</ele>
        <time>2019-04-14T10:42:02Z</time>
      </trkpt>
      <trkpt lat="44.42956" lon="1.3398">
        <ele>243</ele>
        <time>2019-04-14T10:42:03Z</time>
      </trkpt>
      <trkpt lat="44.42955" lon="1.33981">
        <ele>243</ele>
        <time>2019-04-14T10:42:04Z</time>
      </trkpt>
      <trkpt lat="44.42953" lon="1.33982">
        <ele>243</ele>
        <time>2019-04-14T10:42:05Z</time>
      </trkpt>
      <trkpt lat="44.42952" lon="1.33983">
        <ele>243</ele>
        <time>2019-04-14T10:42:06Z</time>
      </trkpt>
      <trkpt lat="44.42951" lon="1.33984">
        <ele>244</ele>
        <time>2019-04-14T10:42:07Z</time>
      </trkpt>
      <trkpt lat="44.4295" lon="1.33984">
        <ele>244</ele>
        <time>2019-04-14T10:42:08Z</time>
      </trkpt>
      <trkpt lat="44.42949" lon="1.33985">
        <ele>244</ele>
        <time>2019-04-14T10:42:09Z</time>
      </trkpt>
      <trkpt lat="44.42948" lon="1.33985">
        <ele>244</ele>
        <time>2019-04-14T10:42:10Z</time>
      </trkpt>
      <trkpt lat="44.42947" lon="1.33986">
        <ele>244</ele>
        <time>2019-04-14T10:42:11Z</time>
      </trkpt>
      <trkpt lat="44.42946" lon="1.33985">
        <ele>245</ele>
        <time>2019-04-14T10:42:13Z</time>
      </trkpt>
      <trkpt lat="44.42944" lon="1.33985">
        <ele>245</ele>
        <time>2019-04-14T10:42:14Z</time>
      </trkpt>
      <trkpt lat="44.42943" lon="1.33984">
        <ele>246</ele>
        <time>2019-04-14T10:42:15Z</time>
      </trkpt>
      <trkpt lat="44.42943" lon="1.33984">
        <ele>246</ele>
        <time>2019-04-14T10:42:16Z</time>
      </trkpt>
      <trkpt lat="44.42941" lon="1.33983">
        <ele>246</ele>
        <time>2019-04-14T10:42:17Z</time>
      </trkpt>
      <trkpt lat="44.4294" lon="1.33983">
        <ele>246</ele>
        <time>2019-04-14T10:42:18Z</time>
      </trkpt>
      <trkpt lat="44.42939" lon="1.33982">
        <ele>246</ele>
        <time>2019-04-14T10:42:19Z</time>
      </trkpt>
      <trkpt lat="44.42938" lon="1.33981">
        <ele>247</ele>
        <time>2019-04-14T10:42:21Z</time>
      </trkpt>
      <trkpt lat="44.42937" lon="1.33981">
        <ele>247</ele>
        <time>2019-04-14T10:42:22Z</time>
      </trkpt>
      <trkpt lat="44.42937" lon="1.33981">
        <ele>247</ele>
        <time>2019-04-14T10:42:23Z</time>
      </trkpt>
      <trkpt lat="44.42936" lon="1.33982">
        <ele>247</ele>
        <time>2019-04-14T10:42:24Z</time>
      </trkpt>
      <trkpt lat="44.42935" lon="1.33983">
        <ele>247</ele>
        <time>2019-04-14T10:42:25Z</time>
      </trkpt>
      <trkpt lat="44.42935" lon="1.33984">
        <ele>247</ele>
        <time>2019-04-14T10:42:26Z</time>
      </trkpt>
      <trkpt lat="44.42934" lon="1.33985">
        <ele>247</ele>
        <time>2019-04-14T10:42:27Z</time>
      </trkpt>
      <trkpt lat="44.42932" lon="1.33984">
        <ele>247</ele>
        <time>2019-04-14T10:42:28Z</time>
      </trkpt>
      <trkpt lat="44.42927" lon="1.33985">
        <ele>248</ele>
        <time>2019-04-14T10:42:33Z</time>
      </trkpt>
      <trkpt lat="44.42926" lon="1.33985">
        <ele>248</ele>
        <time>2019-04-14T10:42:34Z</time>
      </trkpt>
      <trkpt lat="44.42925" lon="1.33985">
        <ele>249</ele>
        <time>2019-04-14T10:42:35Z</time>
      </trkpt>
      <trkpt lat="44.42924" lon="1.33985">
        <ele>249</ele>
        <time>2019-04-14T10:42:36Z</time>
      </trkpt>
      <trkpt lat="44.42923" lon="1.33985">
        <ele>249</ele>
        <time>2019-04-14T10:42:37Z</time>
      </trkpt>
      <trkpt lat="44.42921" lon="1.33985">
        <ele>249</ele>
        <time>2019-04-14T10:42:38Z</time>
      </trkpt>
      <trkpt lat="44.42919" lon="1.33984">
        <ele>249</ele>
        <time>2019-04-14T10:42:39Z</time>
      </trkpt>
      <trkpt lat="44.42918" lon="1.33983">
        <ele>249</ele>
        <time>2019-04-14T10:42:40Z</time>
      </trkpt>
      <trkpt lat="44.42917" lon="1.33983">
        <ele>249</ele>
        <time>2019-04-14T10:42:41Z</time>
      </trkpt>
      <trkpt lat="44.42916" lon="1.33982">
        <ele>249</ele>
        <time>2019-04-14T10:42:42Z</time>
      </trkpt>
      <trkpt lat="44.42915" lon="1.33981">
        <ele>249</ele>
        <time>2019-04-14T10:42:44Z</time>
      </trkpt>
      <trkpt lat="44.42914" lon="1.3398">
        <ele>250</ele>
        <time>2019-04-14T10:42:45Z</time>
      </trkpt>
      <trkpt lat="44.42913" lon="1.33979">
        <ele>250</ele>
        <time>2019-04-14T10:42:46Z</time>
      </trkpt>
      <trkpt lat="44.42911" lon="1.33976">
        <ele>250</ele>
        <time>2019-04-14T10:42:47Z</time>
      </trkpt>
      <trkpt lat="44.4291" lon="1.33975">
        <ele>250</ele>
        <time>2019-04-14T10:42:48Z</time>
      </trkpt>
      <trkpt lat="44.42909" lon="1.33974">
        <ele>250</ele>
        <time>2019-04-14T10:42:49Z</time>
      </trkpt>
      <trkpt lat="44.42909" lon="1.33972">
        <ele>250</ele>
        <time>2019-04-14T10:42:50Z</time>
      </trkpt>
      <trkpt lat="44.42909" lon="1.33971">
        <ele>250</ele>
        <time>2019-04-14T10:42:51Z</time>
      </trkpt>
      <trkpt lat="44.42908" lon="1.3397">
        <ele>250</ele>
        <time>2019-04-14T10:42:52Z</time>
      </trkpt>
      <trkpt lat="44.42908" lon="1.33969">
        <ele>250</ele>
        <time>2019-04-14T10:42:53Z</time>
      </trkpt>
      <trkpt lat="44.42908" lon="1.33968">
        <ele>251</ele>
        <time>2019-04-14T10:42:54Z</time>
      </trkpt>
      <trkpt lat="44.42907" lon="1.33966">
        <ele>251</ele>
        <time>2019-04-14T10:42:55Z</time>
      </trkpt>
      <trkpt lat="44.42907" lon="1.33965">
        <ele>251</ele>
        <time>2019-04-14T10:42:56Z</time>
      </trkpt>
      <trkpt lat="44.42906" lon="1.33963">
        <ele>251</ele>
        <time>2019-04-14T10:42:57Z</time>
      </trkpt>
      <trkpt lat="44.42906" lon="1.33962">
        <ele>251</ele>
        <time>2019-04-14T10:42:58Z</time>
      </trkpt>
      <trkpt lat="44.42906" lon="1.3396">
        <ele>251</ele>
        <time>2019-04-14T10:42:59Z</time>
      </trkpt>
      <trkpt lat="44.42906" lon="1.33959">
        <ele>251</ele>
        <time>2019-04-14T10:43:00Z</time>
      </trkpt>
      <trkpt lat="44.42906" lon="1.33957">
        <ele>251</ele>
        <time>2019-04-14T10:43:01Z</time>
      </trkpt>
      <trkpt lat="44.42906" lon="1.33956">
        <ele>251</ele>
        <time>2019-04-14T10:43:02Z</time>
      </trkpt>
      <trkpt lat="44.42906" lon="1.33955">
        <ele>251</ele>
        <time>2019-04-14T10:43:03Z</time>
      </trkpt>
      <trkpt lat="44.42905" lon="1.33954">
        <ele>251</ele>
        <time>2019-04-14T10:43:04Z</time>
      </trkpt>
      <trkpt lat="44.42905" lon="1.33953">
        <ele>251</ele>
        <time>2019-04-14T10:43:05Z</time>
      </trkpt>
      <trkpt lat="44.42904" lon="1.33953">
        <ele>251</ele>
        <time>2019-04-14T10:43:06Z</time>
      </trkpt>
      <trkpt lat="44.42905" lon="1.33953">
        <ele>251</ele>
        <time>2019-04-14T10:43:08Z</time>
      </trkpt>
      <trkpt lat="44.42904" lon="1.33953">
        <ele>251</ele>
        <time>2019-04-14T10:43:09Z</time>
      </trkpt>
      <trkpt lat="44.42904" lon="1.33953">
        <ele>251</ele>
        <time>2019-04-14T10:43:10Z</time>
      </trkpt>
      <trkpt lat="44.42904" lon="1.33953">
        <ele>251</ele>
        <time>2019-04-14T10:43:11Z</time>
      </trkpt>
      <trkpt lat="44.42894" lon="1.33935">
        <ele>248</ele>
        <time>2019-04-14T10:48:35Z</time>
      </trkpt>
      <trkpt lat="44.42892" lon="1.33933">
        <ele>247</ele>
        <time>2019-04-14T10:48:36Z</time>
      </trkpt>
      <trkpt lat="44.4289" lon="1.3393">
        <ele>247</ele>
        <time>2019-04-14T10:48:37Z</time>
      </trkpt>
      <trkpt lat="44.42888" lon="1.33927">
        <ele>247</ele>
        <time>2019-04-14T10:48:38Z</time>
      </trkpt>
      <trkpt lat="44.42886" lon="1.33925">
        <ele>247</ele>
        <time>2019-04-14T10:48:39Z</time>
      </trkpt>
      <trkpt lat="44.42885" lon="1.33922">
        <ele>247</ele>
        <time>2019-04-14T10:48:40Z</time>
      </trkpt>
      <trkpt lat="44.42883" lon="1.33919">
        <ele>247</ele>
        <time>2019-04-14T10:48:41Z</time>
      </trkpt>
      <trkpt lat="44.42882" lon="1.33916">
        <ele>247</ele>
        <time>2019-04-14T10:48:42Z</time>
      </trkpt>
      <trkpt lat="44.4288" lon="1.33914">
        <ele>247</ele>
        <time>2019-04-14T10:48:43Z</time>
      </trkpt>
      <trkpt lat="44.42879" lon="1.3391">
        <ele>247</ele>
        <time>2019-04-14T10:48:44Z</time>
      </trkpt>
      <trkpt lat="44.42878" lon="1.33908">
        <ele>248</ele>
        <time>2019-04-14T10:48:45Z</time>
      </trkpt>
      <trkpt lat="44.42877" lon="1.33906">
        <ele>248</ele>
        <time>2019-04-14T10:48:46Z</time>
      </trkpt>
      <trkpt lat="44.42877" lon="1.33903">
        <ele>248</ele>
        <time>2019-04-14T10:48:47Z</time>
      </trkpt>
      <trkpt lat="44.42876" lon="1.33901">
        <ele>248</ele>
        <time>2019-04-14T10:48:48Z</time>
      </trkpt>
      <trkpt lat="44.42875" lon="1.33899">
        <ele>248</ele>
        <time>2019-04-14T10:48:49Z</time>
      </trkpt>
      <trkpt lat="44.42875" lon="1.33897">
        <ele>248</ele>
        <time>2019-04-14T10:48:50Z</time>
      </trkpt>
      <trkpt lat="44.42873" lon="1.33894">
        <ele>249</ele>
        <time>2019-04-14T10:48:51Z</time>
      </trkpt>
      <trkpt lat="44.42872" lon="1.33892">
        <ele>249</ele>
        <time>2019-04-14T10:48:52Z</time>
      </trkpt>
      <trkpt lat="44.42871" lon="1.3389">
        <ele>249</ele>
        <time>2019-04-14T10:48:53Z</time>
      </trkpt>
      <trkpt lat="44.4287" lon="1.33887">
        <ele>249</ele>
        <time>2019-04-14T10:48:54Z</time>
      </trkpt>
      <trkpt lat="44.42868" lon="1.33885">
        <ele>249</ele>
        <time>2019-04-14T10:48:55Z</time>
      </trkpt>
      <trkpt lat="44.42866" lon="1.33882">
        <ele>249</ele>
        <time>2019-04-14T10:48:56Z</time>
      </trkpt>
      <trkpt lat="44.42865" lon="1.33879">
        <ele>250</ele>
        <time>2019-04-14T10:48:57Z</time>
      </trkpt>
      <trkpt lat="44.42863" lon="1.33877">
        <ele>250</ele>
        <time>2019-04-14T10:48:58Z</time>
      </trkpt>
      <trkpt lat="44.42862" lon="1.33874">
        <ele>250</ele>
        <time>2019-04-14T10:48:59Z</time>
      </trkpt>
      <trkpt lat="44.42861" lon="1.33872">
        <ele>250</ele>
        <time>2019-04-14T10:49:00Z</time>
      </trkpt>
      <trkpt lat="44.4286" lon="1.33869">
        <ele>250</ele>
        <time>2019-04-14T10:49:01Z</time>
      </trkpt>
      <trkpt lat="44.4286" lon="1.33867">
        <ele>251</ele>
        <time>2019-04-14T10:49:02Z</time>
      </trkpt>
      <trkpt lat="44.42859" lon="1.33864">
        <ele>251</ele>
        <time>2019-04-14T10:49:03Z</time>
      </trkpt>
      <trkpt lat="44.42859" lon="1.33862">
        <ele>251</ele>
        <time>2019-04-14T10:49:04Z</time>
      </trkpt>
      <trkpt lat="44.42859" lon="1.33861">
        <ele>252</ele>
        <time>2019-04-14T10:49:05Z</time>
      </trkpt>
      <trkpt lat="44.42858" lon="1.33858">
        <ele>252</ele>
        <time>2019-04-14T10:49:06Z</time>
      </trkpt>
      <trkpt lat="44.42858" lon="1.33857">
        <ele>252</ele>
        <time>2019-04-14T10:49:07Z</time>
      </trkpt>
      <trkpt lat="44.42857" lon="1.33855">
        <ele>252</ele>
        <time>2019-04-14T10:49:08Z</time>
      </trkpt>
      <trkpt lat="44.42856" lon="1.33855">
        <ele>252</ele>
        <time>2019-04-14T10:49:09Z</time>
      </trkpt>
      <trkpt lat="44.42854" lon="1.33853">
        <ele>252</ele>
        <time>2019-04-14T10:49:10Z</time>
      </trkpt>
      <trkpt lat="44.42852" lon="1.33853">
        <ele>252</ele>
        <time>2019-04-14T10:49:11Z</time>
      </trkpt>
      <trkpt lat="44.4285" lon="1.33853">
        <ele>252</ele>
        <time>2019-04-14T10:49:12Z</time>
      </trkpt>
      <trkpt lat="44.42848" lon="1.33852">
        <ele>251</ele>
        <time>2019-04-14T10:49:13Z</time>
      </trkpt>
      <trkpt lat="44.42846" lon="1.33851">
        <ele>251</ele>
        <time>2019-04-14T10:49:14Z</time>
      </trkpt>
      <trkpt lat="44.42844" lon="1.3385">
        <ele>251</ele>
        <time>2019-04-14T10:49:15Z</time>
      </trkpt>
      <trkpt lat="44.42843" lon="1.3385">
        <ele>251</ele>
        <time>2019-04-14T10:49:16Z</time>
      </trkpt>
      <trkpt lat="44.42842" lon="1.3385">
        <ele>250</ele>
        <time>2019-04-14T10:49:17Z</time>
      </trkpt>
      <trkpt lat="44.42839" lon="1.33849">
        <ele>250</ele>
        <time>2019-04-14T10:49:18Z</time>
      </trkpt>
      <trkpt lat="44.42837" lon="1.33848">
        <ele>250</ele>
        <time>2019-04-14T10:49:19Z</time>
      </trkpt>
      <trkpt lat="44.42835" lon="1.33847">
        <ele>250</ele>
        <time>2019-04-14T10:49:20Z</time>
      </trkpt>
      <trkpt lat="44.42834" lon="1.33846">
        <ele>250</ele>
        <time>2019-04-14T10:49:21Z</time>
      </trkpt>
      <trkpt lat="44.42832" lon="1.33845">
        <ele>249</ele>
        <time>2019-04-14T10:49:22Z</time>
      </trkpt>
      <trkpt lat="44.42831" lon="1.33843">
        <ele>249</ele>
        <time>2019-04-14T10:49:23Z</time>
      </trkpt>
      <trkpt lat="44.42829" lon="1.33842">
        <ele>249</ele>
        <time>2019-04-14T10:49:24Z</time>
      </trkpt>
      <trkpt lat="44.42828" lon="1.33841">
        <ele>249</ele>
        <time>2019-04-14T10:49:25Z</time>
      </trkpt>
      <trkpt lat="44.42827" lon="1.33839">
        <ele>249</ele>
        <time>2019-04-14T10:49:26Z</time>
      </trkpt>
      <trkpt lat="44.42826" lon="1.33837">
        <ele>249</ele>
        <time>2019-04-14T10:49:27Z</time>
      </trkpt>
      <trkpt lat="44.42825" lon="1.33835">
        <ele>249</ele>
        <time>2019-04-14T10:49:28Z</time>
      </trkpt>
      <trkpt lat="44.42824" lon="1.33833">
        <ele>249</ele>
        <time>2019-04-14T10:49:29Z</time>
      </trkpt>
      <trkpt lat="44.42822" lon="1.3383">
        <ele>249</ele>
        <time>2019-04-14T10:49:30Z</time>
      </trkpt>
      <trkpt lat="44.42821" lon="1.33828">
        <ele>249</ele>
        <time>2019-04-14T10:49:31Z</time>
      </trkpt>
      <trkpt lat="44.42821" lon="1.33826">
        <ele>250</ele>
        <time>2019-04-14T10:49:32Z</time>
      </trkpt>
      <trkpt lat="44.42821" lon="1.33825">
        <ele>250</ele>
        <time>2019-04-14T10:49:33Z</time>
      </trkpt>
      <trkpt lat="44.42822" lon="1.33825">
        <ele>250</ele>
        <time>2019-04-14T10:49:34Z</time>
      </trkpt>
      <trkpt lat="44.42821" lon="1.33825">
        <ele>250</ele>
        <time>2019-04-14T10:49:35Z</time>
      </trkpt>
      <trkpt lat="44.42821" lon="1.33824">
        <ele>250</ele>
        <time>2019-04-14T10:49:36Z</time>
      </trkpt>
      <trkpt lat="44.42822" lon="1.33823">
        <ele>251</ele>
        <time>2019-04-14T10:49:37Z</time>
      </trkpt>
      <trkpt lat="44.42821" lon="1.33822">
        <ele>251</ele>
        <time>2019-04-14T10:49:38Z</time>
      </trkpt>
      <trkpt lat="44.42821" lon="1.33823">
        <ele>251</ele>
        <time>2019-04-14T10:49:39Z</time>
      </trkpt>
      <trkpt lat="44.42821" lon="1.33822">
        <ele>251</ele>
        <time>2019-04-14T10:49:40Z</time>
      </trkpt>
      <trkpt lat="44.4282" lon="1.33821">
        <ele>251</ele>
        <time>2019-04-14T10:49:41Z</time>
      </trkpt>
      <trkpt lat="44.42819" lon="1.33819">
        <ele>251</ele>
        <time>2019-04-14T10:49:42Z</time>
      </trkpt>
      <trkpt lat="44.4282" lon="1.33817">
        <ele>252</ele>
        <time>2019-04-14T10:49:43Z</time>
      </trkpt>
      <trkpt lat="44.4282" lon="1.33815">
        <ele>252</ele>
        <time>2019-04-14T10:49:44Z</time>
      </trkpt>
      <trkpt lat="44.42823" lon="1.3381">
        <ele>254</ele>
        <time>2019-04-14T10:49:49Z</time>
      </trkpt>
      <trkpt lat="44.42823" lon="1.33809">
        <ele>254</ele>
        <time>2019-04-14T10:49:50Z</time>
      </trkpt>
      <trkpt lat="44.42823" lon="1.33808">
        <ele>254</ele>
        <time>2019-04-14T10:49:51Z</time>
      </trkpt>
      <trkpt lat="44.42823" lon="1.33807">
        <ele>255</ele>
        <time>2019-04-14T10:49:52Z</time>
      </trkpt>
      <trkpt lat="44.42822" lon="1.33806">
        <ele>255</ele>
        <time>2019-04-14T10:49:53Z</time>
      </trkpt>
      <trkpt lat="44.42822" lon="1.33805">
        <ele>255</ele>
        <time>2019-04-14T10:49:54Z</time>
      </trkpt>
      <trkpt lat="44.42822" lon="1.33804">
        <ele>255</ele>
        <time>2019-04-14T10:49:55Z</time>
      </trkpt>
      <trkpt lat="44.42821" lon="1.33803">
        <ele>255</ele>
        <time>2019-04-14T10:49:56Z</time>
      </trkpt>
      <trkpt lat="44.42821" lon="1.33803">
        <ele>255</ele>
        <time>2019-04-14T10:49:57Z</time>
      </trkpt>
      <trkpt lat="44.42821" lon="1.33802">
        <ele>255</ele>
        <time>2019-04-14T10:49:58Z</time>
      </trkpt>
      <trkpt lat="44.4282" lon="1.33801">
        <ele>255</ele>
        <time>2019-04-14T10:49:59Z</time>
      </trkpt>
      <trkpt lat="44.42819" lon="1.338">
        <ele>255</ele>
        <time>2019-04-14T10:50:00Z</time>
      </trkpt>
      <trkpt lat="44.42817" lon="1.338">
        <ele>255</ele>
        <time>2019-04-14T10:50:01Z</time>
      </trkpt>
      <trkpt lat="44.42814" lon="1.338">
        <ele>255</ele>
        <time>2019-04-14T10:50:02Z</time>
      </trkpt>
      <trkpt lat="44.42802" lon="1.33805">
        <ele>252</ele>
        <time>2019-04-14T10:50:07Z</time>
      </trkpt>
      <trkpt lat="44.42798" lon="1.33804">
        <ele>251</ele>
        <time>2019-04-14T10:50:08Z</time>
      </trkpt>
      <trkpt lat="44.42795" lon="1.33802">
        <ele>251</ele>
        <time>2019-04-14T10:50:09Z</time>
      </trkpt>
      <trkpt lat="44.42794" lon="1.338">
        <ele>251</ele>
        <time>2019-04-14T10:50:10Z</time>
      </trkpt>
      <trkpt lat="44.42793" lon="1.33797">
        <ele>251</ele>
        <time>2019-04-14T10:50:11Z</time>
      </trkpt>
      <trkpt lat="44.42792" lon="1.33795">
        <ele>252</ele>
        <time>2019-04-14T10:50:12Z</time>
      </trkpt>
      <trkpt lat="44.42791" lon="1.33793">
        <ele>252</ele>
        <time>2019-04-14T10:50:13Z</time>
      </trkpt>
      <trkpt lat="44.42789" lon="1.33792">
        <ele>252</ele>
        <time>2019-04-14T10:50:14Z</time>
      </trkpt>
      <trkpt lat="44.42787" lon="1.33791">
        <ele>252</ele>
        <time>2019-04-14T10:50:15Z</time>
      </trkpt>
      <trkpt lat="44.42785" lon="1.33792">
        <ele>252</ele>
        <time>2019-04-14T10:50:16Z</time>
      </trkpt>
      <trkpt lat="44.42781" lon="1.33793">
        <ele>251</ele>
        <time>2019-04-14T10:50:17Z</time>
      </trkpt>
      <trkpt lat="44.42778" lon="1.33794">
        <ele>250</ele>
        <time>2019-04-14T10:50:18Z</time>
      </trkpt>
      <trkpt lat="44.42775" lon="1.33795">
        <ele>250</ele>
        <time>2019-04-14T10:50:19Z</time>
      </trkpt>
      <trkpt lat="44.42773" lon="1.33796">
        <ele>249</ele>
        <time>2019-04-14T10:50:20Z</time>
      </trkpt>
      <trkpt lat="44.4277" lon="1.33797">
        <ele>248</ele>
        <time>2019-04-14T10:50:21Z</time>
      </trkpt>
      <trkpt lat="44.42767" lon="1.33796">
        <ele>248</ele>
        <time>2019-04-14T10:50:22Z</time>
      </trkpt>
      <trkpt lat="44.42764" lon="1.33793">
        <ele>248</ele>
        <time>2019-04-14T10:50:23Z</time>
      </trkpt>
      <trkpt lat="44.42762" lon="1.3379">
        <ele>248</ele>
        <time>2019-04-14T10:50:24Z</time>
      </trkpt>
      <trkpt lat="44.4276" lon="1.33787">
        <ele>248</ele>
        <time>2019-04-14T10:50:25Z</time>
      </trkpt>
      <trkpt lat="44.42759" lon="1.33784">
        <ele>248</ele>
        <time>2019-04-14T10:50:26Z</time>
      </trkpt>
      <trkpt lat="44.42758" lon="1.33781">
        <ele>249</ele>
        <time>2019-04-14T10:50:27Z</time>
      </trkpt>
      <trkpt lat="44.42757" lon="1.33778">
        <ele>249</ele>
        <time>2019-04-14T10:50:28Z</time>
      </trkpt>
      <trkpt lat="44.42757" lon="1.33775">
        <ele>249</ele>
        <time>2019-04-14T10:50:29Z</time>
      </trkpt>
      <trkpt lat="44.42756" lon="1.33772">
        <ele>249</ele>
        <time>2019-04-14T10:50:30Z</time>
      </trkpt>
      <trkpt lat="44.42756" lon="1.33769">
        <ele>249</ele>
        <time>2019-04-14T10:50:31Z</time>
      </trkpt>
      <trkpt lat="44.42755" lon="1.33766">
        <ele>250</ele>
        <time>2019-04-14T10:50:32Z</time>
      </trkpt>
      <trkpt lat="44.42754" lon="1.33763">
        <ele>250</ele>
        <time>2019-04-14T10:50:33Z</time>
      </trkpt>
      <trkpt lat="44.42753" lon="1.3376">
        <ele>250</ele>
        <time>2019-04-14T10:50:34Z</time>
      </trkpt>
      <trkpt lat="44.42752" lon="1.33757">
        <ele>250</ele>
        <time>2019-04-14T10:50:35Z</time>
      </trkpt>
      <trkpt lat="44.4275" lon="1.33755">
        <ele>250</ele>
        <time>2019-04-14T10:50:36Z</time>
      </trkpt>
      <trkpt lat="44.42749" lon="1.33752">
        <ele>250</ele>
        <time>2019-04-14T10:50:37Z</time>
      </trkpt>
      <trkpt lat="44.42747" lon="1.3375">
        <ele>250</ele>
        <time>2019-04-14T10:50:38Z</time>
      </trkpt>
      <trkpt lat="44.42744" lon="1.33747">
        <ele>250</ele>
        <time>2019-04-14T10:50:39Z</time>
      </trkpt>
      <trkpt lat="44.4274" lon="1.33745">
        <ele>249</ele>
        <time>2019-04-14T10:50:40Z</time>
      </trkpt>
      <trkpt lat="44.42737" lon="1.33741">
        <ele>249</ele>
        <time>2019-04-14T10:50:41Z</time>
      </trkpt>
      <trkpt lat="44.42733" lon="1.33735">
        <ele>248</ele>
        <time>2019-04-14T10:50:42Z</time>
      </trkpt>
      <trkpt lat="44.42729" lon="1.33729">
        <ele>247</ele>
        <time>2019-04-14T10:50:43Z</time>
      </trkpt>
      <trkpt lat="44.42725" lon="1.33722">
        <ele>247</ele>
        <time>2019-04-14T10:50:44Z</time>
      </trkpt>
      <trkpt lat="44.42721" lon="1.33716">
        <ele>247</ele>
        <time>2019-04-14T10:50:45Z</time>
      </trkpt>
      <trkpt lat="44.42717" lon="1.33711">
        <ele>247</ele>
        <time>2019-04-14T10:50:46Z</time>
      </trkpt>
      <trkpt lat="44.42714" lon="1.33707">
        <ele>247</ele>
        <time>2019-04-14T10:50:47Z</time>
      </trkpt>
      <trkpt lat="44.42712" lon="1.33703">
        <ele>247</ele>
        <time>2019-04-14T10:50:48Z</time>
      </trkpt>
      <trkpt lat="44.42711" lon="1.337">
        <ele>248</ele>
        <time>2019-04-14T10:50:49Z</time>
      </trkpt>
      <trkpt lat="44.4271" lon="1.33697">
        <ele>248</ele>
        <time>2019-04-14T10:50:50Z</time>
      </trkpt>
      <trkpt lat="44.4271" lon="1.33694">
        <ele>248</ele>
        <time>2019-04-14T10:50:51Z</time>
      </trkpt>
      <trkpt lat="44.4271" lon="1.33692">
        <ele>249</ele>
        <time>2019-04-14T10:50:52Z</time>
      </trkpt>
      <trkpt lat="44.4271" lon="1.3369">
        <ele>249</ele>
        <time>2019-04-14T10:50:53Z</time>
      </trkpt>
      <trkpt lat="44.4271" lon="1.33687">
        <ele>249</ele>
        <time>2019-04-14T10:50:54Z</time>
      </trkpt>
      <trkpt lat="44.42708" lon="1.33685">
        <ele>250</ele>
        <time>2019-04-14T10:50:55Z</time>
      </trkpt>
      <trkpt lat="44.42707" lon="1.33682">
        <ele>250</ele>
        <time>2019-04-14T10:50:56Z</time>
      </trkpt>
      <trkpt lat="44.42706" lon="1.3368">
        <ele>250</ele>
        <time>2019-04-14T10:50:57Z</time>
      </trkpt>
      <trkpt lat="44.42705" lon="1.33677">
        <ele>250</ele>
        <time>2019-04-14T10:50:58Z</time>
      </trkpt>
      <trkpt lat="44.42703" lon="1.33674">
        <ele>250</ele>
        <time>2019-04-14T10:50:59Z</time>
      </trkpt>
      <trkpt lat="44.42702" lon="1.33671">
        <ele>250</ele>
        <time>2019-04-14T10:51:00Z</time>
      </trkpt>
      <trkpt lat="44.42702" lon="1.33668">
        <ele>250</ele>
        <time>2019-04-14T10:51:01Z</time>
      </trkpt>
      <trkpt lat="44.42702" lon="1.33666">
        <ele>251</ele>
        <time>2019-04-14T10:51:02Z</time>
      </trkpt>
      <trkpt lat="44.42702" lon="1.33663">
        <ele>251</ele>
        <time>2019-04-14T10:51:03Z</time>
      </trkpt>
      <trkpt lat="44.42703" lon="1.33662">
        <ele>251</ele>
        <time>2019-04-14T10:51:04Z</time>
      </trkpt>
      <trkpt lat="44.42704" lon="1.3366">
        <ele>251</ele>
        <time>2019-04-14T10:51:05Z</time>
      </trkpt>
      <trkpt lat="44.42705" lon="1.33659">
        <ele>252</ele>
        <time>2019-04-14T10:51:06Z</time>
      </trkpt>
      <trkpt lat="44.42706" lon="1.33658">
        <ele>252</ele>
        <time>2019-04-14T10:51:07Z</time>
      </trkpt>
      <trkpt lat="44.42706" lon="1.33657">
        <ele>253</ele>
        <time>2019-04-14T10:51:08Z</time>
      </trkpt>
      <trkpt lat="44.42707" lon="1.33656">
        <ele>253</ele>
        <time>2019-04-14T10:51:09Z</time>
      </trkpt>
      <trkpt lat="44.42709" lon="1.33656">
        <ele>253</ele>
        <time>2019-04-14T10:51:10Z</time>
      </trkpt>
      <trkpt lat="44.4271" lon="1.33656">
        <ele>253</ele>
        <time>2019-04-14T10:51:11Z</time>
      </trkpt>
      <trkpt lat="44.42711" lon="1.33656">
        <ele>254</ele>
        <time>2019-04-14T10:51:12Z</time>
      </trkpt>
      <trkpt lat="44.42712" lon="1.33656">
        <ele>254</ele>
        <time>2019-04-14T10:51:13Z</time>
      </trkpt>
      <trkpt lat="44.42714" lon="1.33656">
        <ele>254</ele>
        <time>2019-04-14T10:51:14Z</time>
      </trkpt>
      <trkpt lat="44.42714" lon="1.33655">
        <ele>255</ele>
        <time>2019-04-14T10:51:15Z</time>
      </trkpt>
      <trkpt lat="44.42715" lon="1.33654">
        <ele>255</ele>
        <time>2019-04-14T10:51:16Z</time>
      </trkpt>
      <trkpt lat="44.42716" lon="1.33654">
        <ele>255</ele>
        <time>2019-04-14T10:51:17Z</time>
      </trkpt>
      <trkpt lat="44.42717" lon="1.33654">
        <ele>256</ele>
        <time>2019-04-14T10:51:18Z</time>
      </trkpt>
      <trkpt lat="44.42719" lon="1.33653">
        <ele>256</ele>
        <time>2019-04-14T10:51:19Z</time>
      </trkpt>
      <trkpt lat="44.4272" lon="1.33652">
        <ele>256</ele>
        <time>2019-04-14T10:51:20Z</time>
      </trkpt>
      <trkpt lat="44.42721" lon="1.3365">
        <ele>256</ele>
        <time>2019-04-14T10:51:21Z</time>
      </trkpt>
      <trkpt lat="44.42722" lon="1.33649">
        <ele>257</ele>
        <time>2019-04-14T10:51:22Z</time>
      </trkpt>
      <trkpt lat="44.42723" lon="1.33648">
        <ele>257</ele>
        <time>2019-04-14T10:51:23Z</time>
      </trkpt>
      <trkpt lat="44.42723" lon="1.33646">
        <ele>257</ele>
        <time>2019-04-14T10:51:24Z</time>
      </trkpt>
      <trkpt lat="44.42723" lon="1.33644">
        <ele>257</ele>
        <time>2019-04-14T10:51:25Z</time>
      </trkpt>
      <trkpt lat="44.42723" lon="1.33642">
        <ele>258</ele>
        <time>2019-04-14T10:51:26Z</time>
      </trkpt>
      <trkpt lat="44.42722" lon="1.3364">
        <ele>258</ele>
        <time>2019-04-14T10:51:27Z</time>
      </trkpt>
      <trkpt lat="44.42722" lon="1.33638">
        <ele>258</ele>
        <time>2019-04-14T10:51:28Z</time>
      </trkpt>
      <trkpt lat="44.42722" lon="1.33636">
        <ele>258</ele>
        <time>2019-04-14T10:51:29Z</time>
      </trkpt>
      <trkpt lat="44.42722" lon="1.33635">
        <ele>258</ele>
        <time>2019-04-14T10:51:30Z</time>
      </trkpt>
      <trkpt lat="44.42721" lon="1.33632">
        <ele>258</ele>
        <time>2019-04-14T10:51:31Z</time>
      </trkpt>
      <trkpt lat="44.42721" lon="1.33631">
        <ele>258</ele>
        <time>2019-04-14T10:51:32Z</time>
      </trkpt>
      <trkpt lat="44.4272" lon="1.33629">
        <ele>258</ele>
        <time>2019-04-14T10:51:33Z</time>
      </trkpt>
      <trkpt lat="44.42719" lon="1.33627">
        <ele>258</ele>
        <time>2019-04-14T10:51:34Z</time>
      </trkpt>
      <trkpt lat="44.42718" lon="1.33625">
        <ele>258</ele>
        <time>2019-04-14T10:51:35Z</time>
      </trkpt>
      <trkpt lat="44.42716" lon="1.33622">
        <ele>258</ele>
        <time>2019-04-14T10:51:36Z</time>
      </trkpt>
      <trkpt lat="44.42714" lon="1.33619">
        <ele>258</ele>
        <time>2019-04-14T10:51:37Z</time>
      </trkpt>
      <trkpt lat="44.42712" lon="1.33616">
        <ele>258</ele>
        <time>2019-04-14T10:51:38Z</time>
      </trkpt>
      <trkpt lat="44.4271" lon="1.33613">
        <ele>258</ele>
        <time>2019-04-14T10:51:39Z</time>
      </trkpt>
      <trkpt lat="44.42709" lon="1.3361">
        <ele>258</ele>
        <time>2019-04-14T10:51:40Z</time>
      </trkpt>
      <trkpt lat="44.42707" lon="1.33606">
        <ele>258</ele>
        <time>2019-04-14T10:51:41Z</time>
      </trkpt>
      <trkpt lat="44.42706" lon="1.33603">
        <ele>258</ele>
        <time>2019-04-14T10:51:42Z</time>
      </trkpt>
      <trkpt lat="44.42706" lon="1.33599">
        <ele>258</ele>
        <time>2019-04-14T10:51:43Z</time>
      </trkpt>
      <trkpt lat="44.42705" lon="1.33596">
        <ele>258</ele>
        <time>2019-04-14T10:51:44Z</time>
      </trkpt>
      <trkpt lat="44.42703" lon="1.33593">
        <ele>259</ele>
        <time>2019-04-14T10:51:45Z</time>
      </trkpt>
      <trkpt lat="44.42702" lon="1.33589">
        <ele>259</ele>
        <time>2019-04-14T10:51:46Z</time>
      </trkpt>
      <trkpt lat="44.42701" lon="1.33586">
        <ele>259</ele>
        <time>2019-04-14T10:51:47Z</time>
      </trkpt>
      <trkpt lat="44.42699" lon="1.33584">
        <ele>259</ele>
        <time>2019-04-14T10:51:48Z</time>
      </trkpt>
      <trkpt lat="44.42698" lon="1.33581">
        <ele>259</ele>
        <time>2019-04-14T10:51:49Z</time>
      </trkpt>
      <trkpt lat="44.42697" lon="1.33578">
        <ele>259</ele>
        <time>2019-04-14T10:51:50Z</time>
      </trkpt>
      <trkpt lat="44.42696" lon="1.33576">
        <ele>259</ele>
        <time>2019-04-14T10:51:51Z</time>
      </trkpt>
      <trkpt lat="44.42694" lon="1.33574">
        <ele>259</ele>
        <time>2019-04-14T10:51:52Z</time>
      </trkpt>
      <trkpt lat="44.42692" lon="1.33571">
        <ele>259</ele>
        <time>2019-04-14T10:51:53Z</time>
      </trkpt>
      <trkpt lat="44.42691" lon="1.33567">
        <ele>259</ele>
        <time>2019-04-14T10:51:54Z</time>
      </trkpt>
      <trkpt lat="44.42693" lon="1.33565">
        <ele>259</ele>
        <time>2019-04-14T10:51:55Z</time>
      </trkpt>
      <trkpt lat="44.42694" lon="1.33563">
        <ele>259</ele>
        <time>2019-04-14T10:51:56Z</time>
      </trkpt>
      <trkpt lat="44.42694" lon="1.3356">
        <ele>259</ele>
        <time>2019-04-14T10:51:57Z</time>
      </trkpt>
      <trkpt lat="44.42695" lon="1.33558">
        <ele>260</ele>
        <time>2019-04-14T10:51:58Z</time>
      </trkpt>
      <trkpt lat="44.42696" lon="1.33556">
        <ele>260</ele>
        <time>2019-04-14T10:51:59Z</time>
      </trkpt>
      <trkpt lat="44.42696" lon="1.33554">
        <ele>260</ele>
        <time>2019-04-14T10:52:00Z</time>
      </trkpt>
      <trkpt lat="44.42697" lon="1.33552">
        <ele>261</ele>
        <time>2019-04-14T10:52:01Z</time>
      </trkpt>
      <trkpt lat="44.42698" lon="1.33549">
        <ele>261</ele>
        <time>2019-04-14T10:52:02Z</time>
      </trkpt>
      <trkpt lat="44.42698" lon="1.33547">
        <ele>261</ele>
        <time>2019-04-14T10:52:03Z</time>
      </trkpt>
      <trkpt lat="44.42699" lon="1.33545">
        <ele>261</ele>
        <time>2019-04-14T10:52:04Z</time>
      </trkpt>
      <trkpt lat="44.427" lon="1.33544">
        <ele>262</ele>
        <time>2019-04-14T10:52:05Z</time>
      </trkpt>
      <trkpt lat="44.42701" lon="1.33543">
        <ele>262</ele>
        <time>2019-04-14T10:52:06Z</time>
      </trkpt>
      <trkpt lat="44.42702" lon="1.33541">
        <ele>262</ele>
        <time>2019-04-14T10:52:07Z</time>
      </trkpt>
      <trkpt lat="44.42702" lon="1.33539">
        <ele>263</ele>
        <time>2019-04-14T10:52:08Z</time>
      </trkpt>
      <trkpt lat="44.42702" lon="1.33537">
        <ele>263</ele>
        <time>2019-04-14T10:52:09Z</time>
      </trkpt>
      <trkpt lat="44.42703" lon="1.33535">
        <ele>263</ele>
        <time>2019-04-14T10:52:10Z</time>
      </trkpt>
      <trkpt lat="44.42704" lon="1.33533">
        <ele>263</ele>
        <time>2019-04-14T10:52:11Z</time>
      </trkpt>
      <trkpt lat="44.42705" lon="1.33531">
        <ele>264</ele>
        <time>2019-04-14T10:52:12Z</time>
      </trkpt>
      <trkpt lat="44.42706" lon="1.3353">
        <ele>264</ele>
        <time>2019-04-14T10:52:13Z</time>
      </trkpt>
      <trkpt lat="44.42706" lon="1.33529">
        <ele>264</ele>
        <time>2019-04-14T10:52:14Z</time>
      </trkpt>
      <trkpt lat="44.42708" lon="1.33529">
        <ele>264</ele>
        <time>2019-04-14T10:52:15Z</time>
      </trkpt>
      <trkpt lat="44.42709" lon="1.33528">
        <ele>265</ele>
        <time>2019-04-14T10:52:16Z</time>
      </trkpt>
      <trkpt lat="44.4271" lon="1.33527">
        <ele>265</ele>
        <time>2019-04-14T10:52:17Z</time>
      </trkpt>
      <trkpt lat="44.42711" lon="1.33526">
        <ele>265</ele>
        <time>2019-04-14T10:52:18Z</time>
      </trkpt>
      <trkpt lat="44.42712" lon="1.33524">
        <ele>265</ele>
        <time>2019-04-14T10:52:19Z</time>
      </trkpt>
      <trkpt lat="44.42714" lon="1.33523">
        <ele>265</ele>
        <time>2019-04-14T10:52:20Z</time>
      </trkpt>
      <trkpt lat="44.42715" lon="1.33522">
        <ele>265</ele>
        <time>2019-04-14T10:52:21Z</time>
      </trkpt>
      <trkpt lat="44.42716" lon="1.3352">
        <ele>266</ele>
        <time>2019-04-14T10:52:22Z</time>
      </trkpt>
      <trkpt lat="44.42717" lon="1.33518">
        <ele>266</ele>
        <time>2019-04-14T10:52:23Z</time>
      </trkpt>
      <trkpt lat="44.42717" lon="1.33517">
        <ele>266</ele>
        <time>2019-04-14T10:52:24Z</time>
      </trkpt>
      <trkpt lat="44.42717" lon="1.33515">
        <ele>266</ele>
        <time>2019-04-14T10:52:25Z</time>
      </trkpt>
      <trkpt lat="44.42718" lon="1.33513">
        <ele>267</ele>
        <time>2019-04-14T10:52:26Z</time>
      </trkpt>
      <trkpt lat="44.42718" lon="1.33512">
        <ele>267</ele>
        <time>2019-04-14T10:52:27Z</time>
      </trkpt>
      <trkpt lat="44.42719" lon="1.3351">
        <ele>267</ele>
        <time>2019-04-14T10:52:28Z</time>
      </trkpt>
      <trkpt lat="44.42719" lon="1.33508">
        <ele>267</ele>
        <time>2019-04-14T10:52:29Z</time>
      </trkpt>
      <trkpt lat="44.42719" lon="1.33506">
        <ele>267</ele>
        <time>2019-04-14T10:52:30Z</time>
      </trkpt>
      <trkpt lat="44.4272" lon="1.33504">
        <ele>267</ele>
        <time>2019-04-14T10:52:31Z</time>
      </trkpt>
      <trkpt lat="44.42721" lon="1.33501">
        <ele>267</ele>
        <time>2019-04-14T10:52:32Z</time>
      </trkpt>
      <trkpt lat="44.42721" lon="1.33499">
        <ele>267</ele>
        <time>2019-04-14T10:52:33Z</time>
      </trkpt>
      <trkpt lat="44.42722" lon="1.33497">
        <ele>267</ele>
        <time>2019-04-14T10:52:34Z</time>
      </trkpt>
      <trkpt lat="44.42723" lon="1.33495">
        <ele>268</ele>
        <time>2019-04-14T10:52:35Z</time>
      </trkpt>
      <trkpt lat="44.42723" lon="1.33494">
        <ele>268</ele>
        <time>2019-04-14T10:52:36Z</time>
      </trkpt>
      <trkpt lat="44.42724" lon="1.33492">
        <ele>268</ele>
        <time>2019-04-14T10:52:37Z</time>
      </trkpt>
      <trkpt lat="44.42725" lon="1.3349">
        <ele>268</ele>
        <time>2019-04-14T10:52:38Z</time>
      </trkpt>
      <trkpt lat="44.42726" lon="1.33488">
        <ele>268</ele>
        <time>2019-04-14T10:52:39Z</time>
      </trkpt>
      <trkpt lat="44.42726" lon="1.33486">
        <ele>268</ele>
        <time>2019-04-14T10:52:40Z</time>
      </trkpt>
      <trkpt lat="44.42727" lon="1.33484">
        <ele>268</ele>
        <time>2019-04-14T10:52:41Z</time>
      </trkpt>
      <trkpt lat="44.42728" lon="1.33482">
        <ele>269</ele>
        <time>2019-04-14T10:52:42Z</time>
      </trkpt>
      <trkpt lat="44.42728" lon="1.3348">
        <ele>269</ele>
        <time>2019-04-14T10:52:43Z</time>
      </trkpt>
      <trkpt lat="44.42729" lon="1.33478">
        <ele>269</ele>
        <time>2019-04-14T10:52:44Z</time>
      </trkpt>
      <trkpt lat="44.4273" lon="1.33477">
        <ele>269</ele>
        <time>2019-04-14T10:52:45Z</time>
      </trkpt>
      <trkpt lat="44.42731" lon="1.33475">
        <ele>269</ele>
        <time>2019-04-14T10:52:46Z</time>
      </trkpt>
      <trkpt lat="44.42732" lon="1.33474">
        <ele>269</ele>
        <time>2019-04-14T10:52:47Z</time>
      </trkpt>
      <trkpt lat="44.42734" lon="1.33472">
        <ele>269</ele>
        <time>2019-04-14T10:52:48Z</time>
      </trkpt>
      <trkpt lat="44.42735" lon="1.3347">
        <ele>269</ele>
        <time>2019-04-14T10:52:49Z</time>
      </trkpt>
      <trkpt lat="44.42736" lon="1.33469">
        <ele>270</ele>
        <time>2019-04-14T10:52:50Z</time>
      </trkpt>
      <trkpt lat="44.42737" lon="1.33467">
        <ele>270</ele>
        <time>2019-04-14T10:52:51Z</time>
      </trkpt>
      <trkpt lat="44.42739" lon="1.33465">
        <ele>270</ele>
        <time>2019-04-14T10:52:52Z</time>
      </trkpt>
      <trkpt lat="44.4274" lon="1.33464">
        <ele>270</ele>
        <time>2019-04-14T10:52:53Z</time>
      </trkpt>
      <trkpt lat="44.42742" lon="1.33462">
        <ele>270</ele>
        <time>2019-04-14T10:52:54Z</time>
      </trkpt>
      <trkpt lat="44.42743" lon="1.3346">
        <ele>270</ele>
        <time>2019-04-14T10:52:55Z</time>
      </trkpt>
      <trkpt lat="44.42743" lon="1.33458">
        <ele>270</ele>
        <time>2019-04-14T10:52:56Z</time>
      </trkpt>
      <trkpt lat="44.42744" lon="1.33456">
        <ele>270</ele>
        <time>2019-04-14T10:52:57Z</time>
      </trkpt>
      <trkpt lat="44.42745" lon="1.33454">
        <ele>271</ele>
        <time>2019-04-14T10:52:58Z</time>
      </trkpt>
      <trkpt lat="44.42746" lon="1.33452">
        <ele>271</ele>
        <time>2019-04-14T10:52:59Z</time>
      </trkpt>
      <trkpt lat="44.42748" lon="1.3345">
        <ele>271</ele>
        <time>2019-04-14T10:53:00Z</time>
      </trkpt>
      <trkpt lat="44.4275" lon="1.33449">
        <ele>271</ele>
        <time>2019-04-14T10:53:01Z</time>
      </trkpt>
      <trkpt lat="44.42752" lon="1.33448">
        <ele>271</ele>
        <time>2019-04-14T10:53:02Z</time>
      </trkpt>
      <trkpt lat="44.42753" lon="1.33447">
        <ele>271</ele>
        <time>2019-04-14T10:53:03Z</time>
      </trkpt>
      <trkpt lat="44.42754" lon="1.33445">
        <ele>271</ele>
        <time>2019-04-14T10:53:04Z</time>
      </trkpt>
      <trkpt lat="44.42754" lon="1.33443">
        <ele>271</ele>
        <time>2019-04-14T10:53:05Z</time>
      </trkpt>
      <trkpt lat="44.42754" lon="1.33441">
        <ele>271</ele>
        <time>2019-04-14T10:53:06Z</time>
      </trkpt>
      <trkpt lat="44.42755" lon="1.33439">
        <ele>271</ele>
        <time>2019-04-14T10:53:07Z</time>
      </trkpt>
      <trkpt lat="44.42755" lon="1.33436">
        <ele>271</ele>
        <time>2019-04-14T10:53:08Z</time>
      </trkpt>
      <trkpt lat="44.42756" lon="1.33434">
        <ele>271</ele>
        <time>2019-04-14T10:53:09Z</time>
      </trkpt>
      <trkpt lat="44.42757" lon="1.33433">
        <ele>272</ele>
        <time>2019-04-14T10:53:10Z</time>
      </trkpt>
      <trkpt lat="44.42757" lon="1.33431">
        <ele>272</ele>
        <time>2019-04-14T10:53:11Z</time>
      </trkpt>
      <trkpt lat="44.42758" lon="1.3343">
        <ele>272</ele>
        <time>2019-04-14T10:53:12Z</time>
      </trkpt>
      <trkpt lat="44.42758" lon="1.33429">
        <ele>272</ele>
        <time>2019-04-14T10:53:13Z</time>
      </trkpt>
      <trkpt lat="44.42758" lon="1.33429">
        <ele>272</ele>
        <time>2019-04-14T10:53:14Z</time>
      </trkpt>
      <trkpt lat="44.42758" lon="1.33429">
        <ele>272</ele>
        <time>2019-04-14T10:53:15Z</time>
      </trkpt>
      <trkpt lat="44.42758" lon="1.33428">
        <ele>272</ele>
        <time>2019-04-14T10:53:16Z</time>
      </trkpt>
      <trkpt lat="44.42758" lon="1.33428">
        <ele>271</ele>
        <time>2019-04-14T10:53:17Z</time>
      </trkpt>
      <trkpt lat="44.42758" lon="1.33428">
        <ele>272</ele>
        <time>2019-04-14T10:53:18Z</time>
      </trkpt>
      <trkpt lat="44.42758" lon="1.33428">
        <ele>271</ele>
        <time>2019-04-14T10:53:19Z</time>
      </trkpt>
      <trkpt lat="44.42758" lon="1.33427">
        <ele>272</ele>
        <time>2019-04-14T10:53:20Z</time>
      </trkpt>
      <trkpt lat="44.42746" lon="1.33416">
        <ele>270</ele>
        <time>2019-04-14T10:57:39Z</time>
      </trkpt>
      <trkpt lat="44.42743" lon="1.33413">
        <ele>270</ele>
        <time>2019-04-14T10:57:40Z</time>
      </trkpt>
      <trkpt lat="44.4274" lon="1.3341">
        <ele>269</ele>
        <time>2019-04-14T10:57:41Z</time>
      </trkpt>
      <trkpt lat="44.42737" lon="1.33409">
        <ele>269</ele>
        <time>2019-04-14T10:57:42Z</time>
      </trkpt>
      <trkpt lat="44.42734" lon="1.3341">
        <ele>269</ele>
        <time>2019-04-14T10:57:43Z</time>
      </trkpt>
      <trkpt lat="44.42731" lon="1.33409">
        <ele>269</ele>
        <time>2019-04-14T10:57:44Z</time>
      </trkpt>
      <trkpt lat="44.42728" lon="1.33407">
        <ele>268</ele>
        <time>2019-04-14T10:57:45Z</time>
      </trkpt>
      <trkpt lat="44.42727" lon="1.33406">
        <ele>268</ele>
        <time>2019-04-14T10:57:46Z</time>
      </trkpt>
      <trkpt lat="44.42726" lon="1.33405">
        <ele>268</ele>
        <time>2019-04-14T10:57:47Z</time>
      </trkpt>
      <trkpt lat="44.42725" lon="1.33404">
        <ele>268</ele>
        <time>2019-04-14T10:57:48Z</time>
      </trkpt>
      <trkpt lat="44.42722" lon="1.33403">
        <ele>267</ele>
        <time>2019-04-14T10:57:49Z</time>
      </trkpt>
      <trkpt lat="44.4272" lon="1.33402">
        <ele>267</ele>
        <time>2019-04-14T10:57:50Z</time>
      </trkpt>
      <trkpt lat="44.42716" lon="1.33402">
        <ele>267</ele>
        <time>2019-04-14T10:57:51Z</time>
      </trkpt>
      <trkpt lat="44.42713" lon="1.334">
        <ele>267</ele>
        <time>2019-04-14T10:57:52Z</time>
      </trkpt>
      <trkpt lat="44.42709" lon="1.33401">
        <ele>266</ele>
        <time>2019-04-14T10:57:53Z</time>
      </trkpt>
      <trkpt lat="44.42706" lon="1.33401">
        <ele>266</ele>
        <time>2019-04-14T10:57:54Z</time>
      </trkpt>
      <trkpt lat="44.42705" lon="1.33399">
        <ele>265</ele>
        <time>2019-04-14T10:57:55Z</time>
      </trkpt>
      <trkpt lat="44.42703" lon="1.33397">
        <ele>265</ele>
        <time>2019-04-14T10:57:56Z</time>
      </trkpt>
      <trkpt lat="44.42701" lon="1.33398">
        <ele>265</ele>
        <time>2019-04-14T10:57:57Z</time>
      </trkpt>
      <trkpt lat="44.42699" lon="1.33399">
        <ele>265</ele>
        <time>2019-04-14T10:57:58Z</time>
      </trkpt>
      <trkpt lat="44.42697" lon="1.33402">
        <ele>264</ele>
        <time>2019-04-14T10:57:59Z</time>
      </trkpt>
      <trkpt lat="44.42693" lon="1.33404">
        <ele>264</ele>
        <time>2019-04-14T10:58:00Z</time>
      </trkpt>
      <trkpt lat="44.42689" lon="1.33407">
        <ele>263</ele>
        <time>2019-04-14T10:58:01Z</time>
      </trkpt>
      <trkpt lat="44.42687" lon="1.33408">
        <ele>263</ele>
        <time>2019-04-14T10:58:02Z</time>
      </trkpt>
      <trkpt lat="44.42684" lon="1.33409">
        <ele>262</ele>
        <time>2019-04-14T10:58:03Z</time>
      </trkpt>
      <trkpt lat="44.4268" lon="1.3341">
        <ele>261</ele>
        <time>2019-04-14T10:58:04Z</time>
      </trkpt>
      <trkpt lat="44.42678" lon="1.33413">
        <ele>261</ele>
        <time>2019-04-14T10:58:05Z</time>
      </trkpt>
      <trkpt lat="44.42675" lon="1.33417">
        <ele>260</ele>
        <time>2019-04-14T10:58:06Z</time>
      </trkpt>
      <trkpt lat="44.42674" lon="1.33421">
        <ele>260</ele>
        <time>2019-04-14T10:58:07Z</time>
      </trkpt>
      <trkpt lat="44.42669" lon="1.33423">
        <ele>259</ele>
        <time>2019-04-14T10:58:08Z</time>
      </trkpt>
      <trkpt lat="44.42665" lon="1.33423">
        <ele>258</ele>
        <time>2019-04-14T10:58:09Z</time>
      </trkpt>
      <trkpt lat="44.42661" lon="1.33426">
        <ele>257</ele>
        <time>2019-04-14T10:58:10Z</time>
      </trkpt>
      <trkpt lat="44.42658" lon="1.33428">
        <ele>255</ele>
        <time>2019-04-14T10:58:11Z</time>
      </trkpt>
      <trkpt lat="44.42654" lon="1.33428">
        <ele>254</ele>
        <time>2019-04-14T10:58:12Z</time>
      </trkpt>
      <trkpt lat="44.42649" lon="1.33429">
        <ele>253</ele>
        <time>2019-04-14T10:58:13Z</time>
      </trkpt>
      <trkpt lat="44.42644" lon="1.33429">
        <ele>252</ele>
        <time>2019-04-14T10:58:14Z</time>
      </trkpt>
      <trkpt lat="44.42641" lon="1.33428">
        <ele>252</ele>
        <time>2019-04-14T10:58:15Z</time>
      </trkpt>
      <trkpt lat="44.42639" lon="1.33426">
        <ele>252</ele>
        <time>2019-04-14T10:58:16Z</time>
      </trkpt>
      <trkpt lat="44.42636" lon="1.33427">
        <ele>252</ele>
        <time>2019-04-14T10:58:17Z</time>
      </trkpt>
      <trkpt lat="44.42633" lon="1.33429">
        <ele>252</ele>
        <time>2019-04-14T10:58:18Z</time>
      </trkpt>
      <trkpt lat="44.42631" lon="1.33432">
        <ele>252</ele>
        <time>2019-04-14T10:58:19Z</time>
      </trkpt>
      <trkpt lat="44.42629" lon="1.33434">
        <ele>251</ele>
        <time>2019-04-14T10:58:20Z</time>
      </trkpt>
      <trkpt lat="44.42627" lon="1.33436">
        <ele>251</ele>
        <time>2019-04-14T10:58:21Z</time>
      </trkpt>
      <trkpt lat="44.42626" lon="1.33437">
        <ele>250</ele>
        <time>2019-04-14T10:58:22Z</time>
      </trkpt>
      <trkpt lat="44.42624" lon="1.33438">
        <ele>251</ele>
        <time>2019-04-14T10:58:23Z</time>
      </trkpt>
      <trkpt lat="44.42624" lon="1.3344">
        <ele>251</ele>
        <time>2019-04-14T10:58:24Z</time>
      </trkpt>
      <trkpt lat="44.42622" lon="1.33443">
        <ele>251</ele>
        <time>2019-04-14T10:58:25Z</time>
      </trkpt>
      <trkpt lat="44.4262" lon="1.33445">
        <ele>252</ele>
        <time>2019-04-14T10:58:26Z</time>
      </trkpt>
      <trkpt lat="44.42617" lon="1.33447">
        <ele>252</ele>
        <time>2019-04-14T10:58:27Z</time>
      </trkpt>
      <trkpt lat="44.42614" lon="1.33448">
        <ele>252</ele>
        <time>2019-04-14T10:58:28Z</time>
      </trkpt>
      <trkpt lat="44.42612" lon="1.33449">
        <ele>252</ele>
        <time>2019-04-14T10:58:29Z</time>
      </trkpt>
      <trkpt lat="44.4261" lon="1.33451">
        <ele>253</ele>
        <time>2019-04-14T10:58:30Z</time>
      </trkpt>
      <trkpt lat="44.42608" lon="1.33452">
        <ele>253</ele>
        <time>2019-04-14T10:58:31Z</time>
      </trkpt>
      <trkpt lat="44.42606" lon="1.33453">
        <ele>253</ele>
        <time>2019-04-14T10:58:32Z</time>
      </trkpt>
      <trkpt lat="44.42602" lon="1.33454">
        <ele>254</ele>
        <time>2019-04-14T10:58:33Z</time>
      </trkpt>
      <trkpt lat="44.42599" lon="1.33454">
        <ele>254</ele>
        <time>2019-04-14T10:58:34Z</time>
      </trkpt>
      <trkpt lat="44.42597" lon="1.33454">
        <ele>254</ele>
        <time>2019-04-14T10:58:35Z</time>
      </trkpt>
      <trkpt lat="44.42596" lon="1.33454">
        <ele>255</ele>
        <time>2019-04-14T10:58:36Z</time>
      </trkpt>
      <trkpt lat="44.42594" lon="1.33453">
        <ele>255</ele>
        <time>2019-04-14T10:58:37Z</time>
      </trkpt>
      <trkpt lat="44.42592" lon="1.33452">
        <ele>256</ele>
        <time>2019-04-14T10:58:38Z</time>
      </trkpt>
      <trkpt lat="44.4259" lon="1.33453">
        <ele>256</ele>
        <time>2019-04-14T10:58:39Z</time>
      </trkpt>
      <trkpt lat="44.42588" lon="1.33454">
        <ele>256</ele>
        <time>2019-04-14T10:58:40Z</time>
      </trkpt>
      <trkpt lat="44.42586" lon="1.33455">
        <ele>257</ele>
        <time>2019-04-14T10:58:41Z</time>
      </trkpt>
      <trkpt lat="44.42584" lon="1.33456">
        <ele>257</ele>
        <time>2019-04-14T10:58:42Z</time>
      </trkpt>
      <trkpt lat="44.42581" lon="1.33457">
        <ele>257</ele>
        <time>2019-04-14T10:58:43Z</time>
      </trkpt>
      <trkpt lat="44.42579" lon="1.33459">
        <ele>257</ele>
        <time>2019-04-14T10:58:44Z</time>
      </trkpt>
      <trkpt lat="44.42578" lon="1.33461">
        <ele>257</ele>
        <time>2019-04-14T10:58:45Z</time>
      </trkpt>
      <trkpt lat="44.42577" lon="1.33463">
        <ele>257</ele>
        <time>2019-04-14T10:58:46Z</time>
      </trkpt>
      <trkpt lat="44.42575" lon="1.33465">
        <ele>258</ele>
        <time>2019-04-14T10:58:47Z</time>
      </trkpt>
      <trkpt lat="44.42573" lon="1.33466">
        <ele>258</ele>
        <time>2019-04-14T10:58:48Z</time>
      </trkpt>
      <trkpt lat="44.42571" lon="1.33468">
        <ele>258</ele>
        <time>2019-04-14T10:58:49Z</time>
      </trkpt>
      <trkpt lat="44.4257" lon="1.3347">
        <ele>258</ele>
        <time>2019-04-14T10:58:50Z</time>
      </trkpt>
      <trkpt lat="44.42568" lon="1.33473">
        <ele>258</ele>
        <time>2019-04-14T10:58:51Z</time>
      </trkpt>
      <trkpt lat="44.42566" lon="1.33476">
        <ele>258</ele>
        <time>2019-04-14T10:58:52Z</time>
      </trkpt>
      <trkpt lat="44.42564" lon="1.33479">
        <ele>258</ele>
        <time>2019-04-14T10:58:53Z</time>
      </trkpt>
      <trkpt lat="44.42563" lon="1.33482">
        <ele>258</ele>
        <time>2019-04-14T10:58:54Z</time>
      </trkpt>
      <trkpt lat="44.42561" lon="1.33484">
        <ele>258</ele>
        <time>2019-04-14T10:58:55Z</time>
      </trkpt>
      <trkpt lat="44.42559" lon="1.33485">
        <ele>258</ele>
        <time>2019-04-14T10:58:56Z</time>
      </trkpt>
      <trkpt lat="44.42557" lon="1.33484">
        <ele>259</ele>
        <time>2019-04-14T10:58:57Z</time>
      </trkpt>
      <trkpt lat="44.42556" lon="1.33482">
        <ele>259</ele>
        <time>2019-04-14T10:58:58Z</time>
      </trkpt>
      <trkpt lat="44.42555" lon="1.33481">
        <ele>260</ele>
        <time>2019-04-14T10:58:59Z</time>
      </trkpt>
      <trkpt lat="44.42553" lon="1.3348">
        <ele>260</ele>
        <time>2019-04-14T10:59:00Z</time>
      </trkpt>
      <trkpt lat="44.42551" lon="1.33479">
        <ele>261</ele>
        <time>2019-04-14T10:59:01Z</time>
      </trkpt>
      <trkpt lat="44.4255" lon="1.3348">
        <ele>261</ele>
        <time>2019-04-14T10:59:02Z</time>
      </trkpt>
      <trkpt lat="44.42549" lon="1.33481">
        <ele>261</ele>
        <time>2019-04-14T10:59:03Z</time>
      </trkpt>
      <trkpt lat="44.42548" lon="1.33481">
        <ele>262</ele>
        <time>2019-04-14T10:59:04Z</time>
      </trkpt>
      <trkpt lat="44.42546" lon="1.33481">
        <ele>262</ele>
        <time>2019-04-14T10:59:05Z</time>
      </trkpt>
      <trkpt lat="44.42544" lon="1.3348">
        <ele>262</ele>
        <time>2019-04-14T10:59:06Z</time>
      </trkpt>
      <trkpt lat="44.42542" lon="1.33479">
        <ele>262</ele>
        <time>2019-04-14T10:59:07Z</time>
      </trkpt>
      <trkpt lat="44.42541" lon="1.33478">
        <ele>262</ele>
        <time>2019-04-14T10:59:08Z</time>
      </trkpt>
      <trkpt lat="44.42539" lon="1.33477">
        <ele>263</ele>
        <time>2019-04-14T10:59:09Z</time>
      </trkpt>
      <trkpt lat="44.42537" lon="1.33476">
        <ele>263</ele>
        <time>2019-04-14T10:59:10Z</time>
      </trkpt>
      <trkpt lat="44.42535" lon="1.33474">
        <ele>263</ele>
        <time>2019-04-14T10:59:11Z</time>
      </trkpt>
      <trkpt lat="44.42535" lon="1.33472">
        <ele>263</ele>
        <time>2019-04-14T10:59:12Z</time>
      </trkpt>
      <trkpt lat="44.42535" lon="1.3347">
        <ele>264</ele>
        <time>2019-04-14T10:59:13Z</time>
      </trkpt>
      <trkpt lat="44.42535" lon="1.33468">
        <ele>264</ele>
        <time>2019-04-14T10:59:14Z</time>
      </trkpt>
      <trkpt lat="44.42536" lon="1.33466">
        <ele>264</ele>
        <time>2019-04-14T10:59:15Z</time>
      </trkpt>
      <trkpt lat="44.42536" lon="1.33464">
        <ele>264</ele>
        <time>2019-04-14T10:59:16Z</time>
      </trkpt>
      <trkpt lat="44.42537" lon="1.33462">
        <ele>264</ele>
        <time>2019-04-14T10:59:17Z</time>
      </trkpt>
      <trkpt lat="44.42536" lon="1.33461">
        <ele>264</ele>
        <time>2019-04-14T10:59:18Z</time>
      </trkpt>
      <trkpt lat="44.42534" lon="1.33459">
        <ele>264</ele>
        <time>2019-04-14T10:59:19Z</time>
      </trkpt>
      <trkpt lat="44.42532" lon="1.33458">
        <ele>264</ele>
        <time>2019-04-14T10:59:20Z</time>
      </trkpt>
      <trkpt lat="44.42531" lon="1.33457">
        <ele>264</ele>
        <time>2019-04-14T10:59:21Z</time>
      </trkpt>
      <trkpt lat="44.4253" lon="1.33457">
        <ele>265</ele>
        <time>2019-04-14T10:59:22Z</time>
      </trkpt>
      <trkpt lat="44.42529" lon="1.33456">
        <ele>265</ele>
        <time>2019-04-14T10:59:23Z</time>
      </trkpt>
      <trkpt lat="44.42528" lon="1.33455">
        <ele>265</ele>
        <time>2019-04-14T10:59:24Z</time>
      </trkpt>
      <trkpt lat="44.42526" lon="1.33454">
        <ele>265</ele>
        <time>2019-04-14T10:59:25Z</time>
      </trkpt>
      <trkpt lat="44.42524" lon="1.33453">
        <ele>265</ele>
        <time>2019-04-14T10:59:26Z</time>
      </trkpt>
      <trkpt lat="44.42522" lon="1.33451">
        <ele>265</ele>
        <time>2019-04-14T10:59:27Z</time>
      </trkpt>
      <trkpt lat="44.4252" lon="1.3345">
        <ele>265</ele>
        <time>2019-04-14T10:59:28Z</time>
      </trkpt>
      <trkpt lat="44.42518" lon="1.33448">
        <ele>265</ele>
        <time>2019-04-14T10:59:29Z</time>
      </trkpt>
      <trkpt lat="44.42516" lon="1.33447">
        <ele>266</ele>
        <time>2019-04-14T10:59:30Z</time>
      </trkpt>
      <trkpt lat="44.42514" lon="1.33445">
        <ele>266</ele>
        <time>2019-04-14T10:59:31Z</time>
      </trkpt>
      <trkpt lat="44.42512" lon="1.33444">
        <ele>266</ele>
        <time>2019-04-14T10:59:32Z</time>
      </trkpt>
      <trkpt lat="44.4251" lon="1.33442">
        <ele>266</ele>
        <time>2019-04-14T10:59:33Z</time>
      </trkpt>
      <trkpt lat="44.42508" lon="1.3344">
        <ele>266</ele>
        <time>2019-04-14T10:59:34Z</time>
      </trkpt>
      <trkpt lat="44.42506" lon="1.33438">
        <ele>266</ele>
        <time>2019-04-14T10:59:35Z</time>
      </trkpt>
      <trkpt lat="44.42504" lon="1.33436">
        <ele>266</ele>
        <time>2019-04-14T10:59:36Z</time>
      </trkpt>
      <trkpt lat="44.42502" lon="1.33434">
        <ele>266</ele>
        <time>2019-04-14T10:59:37Z</time>
      </trkpt>
      <trkpt lat="44.425" lon="1.33433">
        <ele>266</ele>
        <time>2019-04-14T10:59:38Z</time>
      </trkpt>
      <trkpt lat="44.42498" lon="1.33431">
        <ele>266</ele>
        <time>2019-04-14T10:59:39Z</time>
      </trkpt>
      <trkpt lat="44.42497" lon="1.33429">
        <ele>266</ele>
        <time>2019-04-14T10:59:40Z</time>
      </trkpt>
      <trkpt lat="44.42495" lon="1.33428">
        <ele>266</ele>
        <time>2019-04-14T10:59:41Z</time>
      </trkpt>
      <trkpt lat="44.42492" lon="1.33426">
        <ele>266</ele>
        <time>2019-04-14T10:59:42Z</time>
      </trkpt>
      <trkpt lat="44.4249" lon="1.33424">
        <ele>266</ele>
        <time>2019-04-14T10:59:43Z</time>
      </trkpt>
      <trkpt lat="44.42488" lon="1.33422">
        <ele>266</ele>
        <time>2019-04-14T10:59:44Z</time>
      </trkpt>
      <trkpt lat="44.42486" lon="1.33421">
        <ele>266</ele>
        <time>2019-04-14T10:59:45Z</time>
      </trkpt>
      <trkpt lat="44.42483" lon="1.33419">
        <ele>266</ele>
        <time>2019-04-14T10:59:46Z</time>
      </trkpt>
      <trkpt lat="44.42481" lon="1.33417">
        <ele>266</ele>
        <time>2019-04-14T10:59:47Z</time>
      </trkpt>
      <trkpt lat="44.42479" lon="1.33416">
        <ele>267</ele>
        <time>2019-04-14T10:59:48Z</time>
      </trkpt>
      <trkpt lat="44.42477" lon="1.33414">
        <ele>267</ele>
        <time>2019-04-14T10:59:49Z</time>
      </trkpt>
      <trkpt lat="44.42475" lon="1.33413">
        <ele>267</ele>
        <time>2019-04-14T10:59:50Z</time>
      </trkpt>
      <trkpt lat="44.42473" lon="1.33411">
        <ele>267</ele>
        <time>2019-04-14T10:59:51Z</time>
      </trkpt>
      <trkpt lat="44.4247" lon="1.33409">
        <ele>267</ele>
        <time>2019-04-14T10:59:52Z</time>
      </trkpt>
      <trkpt lat="44.42468" lon="1.33408">
        <ele>267</ele>
        <time>2019-04-14T10:59:53Z</time>
      </trkpt>
      <trkpt lat="44.42466" lon="1.33406">
        <ele>267</ele>
        <time>2019-04-14T10:59:54Z</time>
      </trkpt>
      <trkpt lat="44.42464" lon="1.33405">
        <ele>268</ele>
        <time>2019-04-14T10:59:55Z</time>
      </trkpt>
      <trkpt lat="44.42462" lon="1.33403">
        <ele>268</ele>
        <time>2019-04-14T10:59:56Z</time>
      </trkpt>
      <trkpt lat="44.4246" lon="1.33401">
        <ele>268</ele>
        <time>2019-04-14T10:59:57Z</time>
      </trkpt>
      <trkpt lat="44.42458" lon="1.334">
        <ele>268</ele>
        <time>2019-04-14T10:59:58Z</time>
      </trkpt>
      <trkpt lat="44.42457" lon="1.33399">
        <ele>268</ele>
        <time>2019-04-14T10:59:59Z</time>
      </trkpt>
      <trkpt lat="44.42454" lon="1.33397">
        <ele>269</ele>
        <time>2019-04-14T11:00:00Z</time>
      </trkpt>
      <trkpt lat="44.42452" lon="1.33395">
        <ele>269</ele>
        <time>2019-04-14T11:00:01Z</time>
      </trkpt>
      <trkpt lat="44.4245" lon="1.33394">
        <ele>269</ele>
        <time>2019-04-14T11:00:02Z</time>
      </trkpt>
      <trkpt lat="44.42448" lon="1.33393">
        <ele>269</ele>
        <time>2019-04-14T11:00:03Z</time>
      </trkpt>
      <trkpt lat="44.42446" lon="1.33391">
        <ele>269</ele>
        <time>2019-04-14T11:00:04Z</time>
      </trkpt>
      <trkpt lat="44.42444" lon="1.3339">
        <ele>270</ele>
        <time>2019-04-14T11:00:05Z</time>
      </trkpt>
      <trkpt lat="44.42442" lon="1.33389">
        <ele>270</ele>
        <time>2019-04-14T11:00:06Z</time>
      </trkpt>
      <trkpt lat="44.4244" lon="1.33387">
        <ele>270</ele>
        <time>2019-04-14T11:00:07Z</time>
      </trkpt>
      <trkpt lat="44.42438" lon="1.33386">
        <ele>271</ele>
        <time>2019-04-14T11:00:08Z</time>
      </trkpt>
      <trkpt lat="44.42437" lon="1.33385">
        <ele>271</ele>
        <time>2019-04-14T11:00:09Z</time>
      </trkpt>
      <trkpt lat="44.42435" lon="1.33384">
        <ele>271</ele>
        <time>2019-04-14T11:00:10Z</time>
      </trkpt>
      <trkpt lat="44.42433" lon="1.33383">
        <ele>271</ele>
        <time>2019-04-14T11:00:11Z</time>
      </trkpt>
      <trkpt lat="44.42432" lon="1.33382">
        <ele>271</ele>
        <time>2019-04-14T11:00:12Z</time>
      </trkpt>
      <trkpt lat="44.4243" lon="1.3338">
        <ele>272</ele>
        <time>2019-04-14T11:00:13Z</time>
      </trkpt>
      <trkpt lat="44.42428" lon="1.33378">
        <ele>272</ele>
        <time>2019-04-14T11:00:14Z</time>
      </trkpt>
      <trkpt lat="44.42426" lon="1.33377">
        <ele>272</ele>
        <time>2019-04-14T11:00:15Z</time>
      </trkpt>
      <trkpt lat="44.42424" lon="1.33375">
        <ele>272</ele>
        <time>2019-04-14T11:00:16Z</time>
      </trkpt>
      <trkpt lat="44.42422" lon="1.33374">
        <ele>272</ele>
        <time>2019-04-14T11:00:17Z</time>
      </trkpt>
      <trkpt lat="44.4242" lon="1.33372">
        <ele>272</ele>
        <time>2019-04-14T11:00:18Z</time>
      </trkpt>
      <trkpt lat="44.42418" lon="1.33371">
        <ele>272</ele>
        <time>2019-04-14T11:00:19Z</time>
      </trkpt>
      <trkpt lat="44.42417" lon="1.3337">
        <ele>273</ele>
        <time>2019-04-14T11:00:20Z</time>
      </trkpt>
      <trkpt lat="44.42416" lon="1.33368">
        <ele>273</ele>
        <time>2019-04-14T11:00:21Z</time>
      </trkpt>
      <trkpt lat="44.42415" lon="1.33365">
        <ele>273</ele>
        <time>2019-04-14T11:00:22Z</time>
      </trkpt>
      <trkpt lat="44.42415" lon="1.33362">
        <ele>273</ele>
        <time>2019-04-14T11:00:23Z</time>
      </trkpt>
      <trkpt lat="44.42414" lon="1.3336">
        <ele>273</ele>
        <time>2019-04-14T11:00:24Z</time>
      </trkpt>
      <trkpt lat="44.42413" lon="1.33357">
        <ele>273</ele>
        <time>2019-04-14T11:00:25Z</time>
      </trkpt>
      <trkpt lat="44.42413" lon="1.33354">
        <ele>273</ele>
        <time>2019-04-14T11:00:26Z</time>
      </trkpt>
      <trkpt lat="44.42413" lon="1.33351">
        <ele>274</ele>
        <time>2019-04-14T11:00:27Z</time>
      </trkpt>
      <trkpt lat="44.42413" lon="1.33348">
        <ele>274</ele>
        <time>2019-04-14T11:00:28Z</time>
      </trkpt>
      <trkpt lat="44.42412" lon="1.33345">
        <ele>274</ele>
        <time>2019-04-14T11:00:29Z</time>
      </trkpt>
      <trkpt lat="44.42411" lon="1.33342">
        <ele>274</ele>
        <time>2019-04-14T11:00:30Z</time>
      </trkpt>
      <trkpt lat="44.4241" lon="1.3334">
        <ele>274</ele>
        <time>2019-04-14T11:00:31Z</time>
      </trkpt>
      <trkpt lat="44.42409" lon="1.33337">
        <ele>275</ele>
        <time>2019-04-14T11:00:32Z</time>
      </trkpt>
      <trkpt lat="44.42409" lon="1.33334">
        <ele>275</ele>
        <time>2019-04-14T11:00:33Z</time>
      </trkpt>
      <trkpt lat="44.42408" lon="1.33331">
        <ele>275</ele>
        <time>2019-04-14T11:00:34Z</time>
      </trkpt>
      <trkpt lat="44.42408" lon="1.33327">
        <ele>275</ele>
        <time>2019-04-14T11:00:35Z</time>
      </trkpt>
      <trkpt lat="44.42407" lon="1.33324">
        <ele>275</ele>
        <time>2019-04-14T11:00:36Z</time>
      </trkpt>
      <trkpt lat="44.42407" lon="1.33322">
        <ele>275</ele>
        <time>2019-04-14T11:00:37Z</time>
      </trkpt>
      <trkpt lat="44.42407" lon="1.33319">
        <ele>276</ele>
        <time>2019-04-14T11:00:38Z</time>
      </trkpt>
      <trkpt lat="44.42406" lon="1.33315">
        <ele>276</ele>
        <time>2019-04-14T11:00:39Z</time>
      </trkpt>
      <trkpt lat="44.42406" lon="1.33312">
        <ele>276</ele>
        <time>2019-04-14T11:00:40Z</time>
      </trkpt>
      <trkpt lat="44.42405" lon="1.33309">
        <ele>276</ele>
        <time>2019-04-14T11:00:41Z</time>
      </trkpt>
      <trkpt lat="44.42405" lon="1.33306">
        <ele>276</ele>
        <time>2019-04-14T11:00:42Z</time>
      </trkpt>
      <trkpt lat="44.42404" lon="1.33303">
        <ele>276</ele>
        <time>2019-04-14T11:00:43Z</time>
      </trkpt>
      <trkpt lat="44.42404" lon="1.333">
        <ele>277</ele>
        <time>2019-04-14T11:00:44Z</time>
      </trkpt>
      <trkpt lat="44.42403" lon="1.33298">
        <ele>277</ele>
        <time>2019-04-14T11:00:45Z</time>
      </trkpt>
      <trkpt lat="44.42402" lon="1.33295">
        <ele>277</ele>
        <time>2019-04-14T11:00:46Z</time>
      </trkpt>
      <trkpt lat="44.42401" lon="1.33292">
        <ele>277</ele>
        <time>2019-04-14T11:00:47Z</time>
      </trkpt>
      <trkpt lat="44.424" lon="1.33289">
        <ele>277</ele>
        <time>2019-04-14T11:00:48Z</time>
      </trkpt>
      <trkpt lat="44.42399" lon="1.33286">
        <ele>278</ele>
        <time>2019-04-14T11:00:49Z</time>
      </trkpt>
      <trkpt lat="44.42398" lon="1.33283">
        <ele>278</ele>
        <time>2019-04-14T11:00:50Z</time>
      </trkpt>
      <trkpt lat="44.42396" lon="1.3328">
        <ele>278</ele>
        <time>2019-04-14T11:00:51Z</time>
      </trkpt>
      <trkpt lat="44.42395" lon="1.33278">
        <ele>278</ele>
        <time>2019-04-14T11:00:52Z</time>
      </trkpt>
      <trkpt lat="44.42393" lon="1.33276">
        <ele>278</ele>
        <time>2019-04-14T11:00:53Z</time>
      </trkpt>
      <trkpt lat="44.42391" lon="1.33273">
        <ele>278</ele>
        <time>2019-04-14T11:00:54Z</time>
      </trkpt>
      <trkpt lat="44.42389" lon="1.3327">
        <ele>278</ele>
        <time>2019-04-14T11:00:55Z</time>
      </trkpt>
      <trkpt lat="44.42388" lon="1.33267">
        <ele>278</ele>
        <time>2019-04-14T11:00:56Z</time>
      </trkpt>
      <trkpt lat="44.42387" lon="1.33264">
        <ele>278</ele>
        <time>2019-04-14T11:00:57Z</time>
      </trkpt>
      <trkpt lat="44.42387" lon="1.33261">
        <ele>278</ele>
        <time>2019-04-14T11:00:58Z</time>
      </trkpt>
      <trkpt lat="44.42387" lon="1.33258">
        <ele>279</ele>
        <time>2019-04-14T11:00:59Z</time>
      </trkpt>
      <trkpt lat="44.42388" lon="1.33255">
        <ele>279</ele>
        <time>2019-04-14T11:01:00Z</time>
      </trkpt>
      <trkpt lat="44.42389" lon="1.33253">
        <ele>279</ele>
        <time>2019-04-14T11:01:01Z</time>
      </trkpt>
      <trkpt lat="44.4239" lon="1.3325">
        <ele>279</ele>
        <time>2019-04-14T11:01:02Z</time>
      </trkpt>
      <trkpt lat="44.4239" lon="1.33248">
        <ele>280</ele>
        <time>2019-04-14T11:01:03Z</time>
      </trkpt>
      <trkpt lat="44.42391" lon="1.33245">
        <ele>280</ele>
        <time>2019-04-14T11:01:04Z</time>
      </trkpt>
      <trkpt lat="44.42393" lon="1.33244">
        <ele>280</ele>
        <time>2019-04-14T11:01:05Z</time>
      </trkpt>
      <trkpt lat="44.42394" lon="1.33242">
        <ele>280</ele>
        <time>2019-04-14T11:01:06Z</time>
      </trkpt>
      <trkpt lat="44.42395" lon="1.3324">
        <ele>280</ele>
        <time>2019-04-14T11:01:07Z</time>
      </trkpt>
      <trkpt lat="44.42395" lon="1.33237">
        <ele>280</ele>
        <time>2019-04-14T11:01:08Z</time>
      </trkpt>
      <trkpt lat="44.42396" lon="1.33234">
        <ele>280</ele>
        <time>2019-04-14T11:01:09Z</time>
      </trkpt>
      <trkpt lat="44.42397" lon="1.33231">
        <ele>281</ele>
        <time>2019-04-14T11:01:10Z</time>
      </trkpt>
      <trkpt lat="44.42399" lon="1.33229">
        <ele>281</ele>
        <time>2019-04-14T11:01:11Z</time>
      </trkpt>
      <trkpt lat="44.424" lon="1.33227">
        <ele>281</ele>
        <time>2019-04-14T11:01:12Z</time>
      </trkpt>
      <trkpt lat="44.42401" lon="1.33224">
        <ele>281</ele>
        <time>2019-04-14T11:01:13Z</time>
      </trkpt>
      <trkpt lat="44.42402" lon="1.33222">
        <ele>281</ele>
        <time>2019-04-14T11:01:14Z</time>
      </trkpt>
      <trkpt lat="44.42404" lon="1.33219">
        <ele>281</ele>
        <time>2019-04-14T11:01:15Z</time>
      </trkpt>
      <trkpt lat="44.42404" lon="1.33216">
        <ele>282</ele>
        <time>2019-04-14T11:01:16Z</time>
      </trkpt>
      <trkpt lat="44.42405" lon="1.33214">
        <ele>282</ele>
        <time>2019-04-14T11:01:17Z</time>
      </trkpt>
      <trkpt lat="44.42406" lon="1.33211">
        <ele>282</ele>
        <time>2019-04-14T11:01:18Z</time>
      </trkpt>
      <trkpt lat="44.42407" lon="1.33208">
        <ele>282</ele>
        <time>2019-04-14T11:01:19Z</time>
      </trkpt>
      <trkpt lat="44.42408" lon="1.33205">
        <ele>282</ele>
        <time>2019-04-14T11:01:20Z</time>
      </trkpt>
      <trkpt lat="44.42408" lon="1.33202">
        <ele>282</ele>
        <time>2019-04-14T11:01:21Z</time>
      </trkpt>
      <trkpt lat="44.42409" lon="1.33199">
        <ele>282</ele>
        <time>2019-04-14T11:01:22Z</time>
      </trkpt>
      <trkpt lat="44.4241" lon="1.33196">
        <ele>283</ele>
        <time>2019-04-14T11:01:23Z</time>
      </trkpt>
      <trkpt lat="44.42411" lon="1.33193">
        <ele>283</ele>
        <time>2019-04-14T11:01:24Z</time>
      </trkpt>
      <trkpt lat="44.42412" lon="1.3319">
        <ele>283</ele>
        <time>2019-04-14T11:01:25Z</time>
      </trkpt>
      <trkpt lat="44.42413" lon="1.33186">
        <ele>283</ele>
        <time>2019-04-14T11:01:26Z</time>
      </trkpt>
      <trkpt lat="44.42414" lon="1.33183">
        <ele>283</ele>
        <time>2019-04-14T11:01:27Z</time>
      </trkpt>
      <trkpt lat="44.42415" lon="1.3318">
        <ele>283</ele>
        <time>2019-04-14T11:01:28Z</time>
      </trkpt>
      <trkpt lat="44.42416" lon="1.33177">
        <ele>283</ele>
        <time>2019-04-14T11:01:29Z</time>
      </trkpt>
      <trkpt lat="44.42417" lon="1.33173">
        <ele>283</ele>
        <time>2019-04-14T11:01:30Z</time>
      </trkpt>
      <trkpt lat="44.42418" lon="1.33171">
        <ele>283</ele>
        <time>2019-04-14T11:01:31Z</time>
      </trkpt>
      <trkpt lat="44.42419" lon="1.33168">
        <ele>283</ele>
        <time>2019-04-14T11:01:32Z</time>
      </trkpt>
      <trkpt lat="44.4242" lon="1.33165">
        <ele>283</ele>
        <time>2019-04-14T11:01:33Z</time>
      </trkpt>
      <trkpt lat="44.42421" lon="1.33162">
        <ele>283</ele>
        <time>2019-04-14T11:01:34Z</time>
      </trkpt>
      <trkpt lat="44.42422" lon="1.33159">
        <ele>283</ele>
        <time>2019-04-14T11:01:35Z</time>
      </trkpt>
      <trkpt lat="44.42423" lon="1.33156">
        <ele>283</ele>
        <time>2019-04-14T11:01:36Z</time>
      </trkpt>
      <trkpt lat="44.42425" lon="1.33152">
        <ele>283</ele>
        <time>2019-04-14T11:01:37Z</time>
      </trkpt>
      <trkpt lat="44.42426" lon="1.33149">
        <ele>283</ele>
        <time>2019-04-14T11:01:38Z</time>
      </trkpt>
      <trkpt lat="44.42427" lon="1.33145">
        <ele>283</ele>
        <time>2019-04-14T11:01:39Z</time>
      </trkpt>
      <trkpt lat="44.42428" lon="1.33141">
        <ele>283</ele>
        <time>2019-04-14T11:01:40Z</time>
      </trkpt>
      <trkpt lat="44.4243" lon="1.33137">
        <ele>283</ele>
        <time>2019-04-14T11:01:41Z</time>
      </trkpt>
      <trkpt lat="44.42431" lon="1.33133">
        <ele>283</ele>
        <time>2019-04-14T11:01:42Z</time>
      </trkpt>
      <trkpt lat="44.42433" lon="1.33129">
        <ele>283</ele>
        <time>2019-04-14T11:01:43Z</time>
      </trkpt>
      <trkpt lat="44.42435" lon="1.33124">
        <ele>283</ele>
        <time>2019-04-14T11:01:44Z</time>
      </trkpt>
      <trkpt lat="44.42436" lon="1.3312">
        <ele>283</ele>
        <time>2019-04-14T11:01:45Z</time>
      </trkpt>
      <trkpt lat="44.42438" lon="1.33116">
        <ele>283</ele>
        <time>2019-04-14T11:01:46Z</time>
      </trkpt>
      <trkpt lat="44.4244" lon="1.33112">
        <ele>282</ele>
        <time>2019-04-14T11:01:47Z</time>
      </trkpt>
      <trkpt lat="44.42442" lon="1.33107">
        <ele>282</ele>
        <time>2019-04-14T11:01:48Z</time>
      </trkpt>
      <trkpt lat="44.42444" lon="1.33103">
        <ele>282</ele>
        <time>2019-04-14T11:01:49Z</time>
      </trkpt>
      <trkpt lat="44.42446" lon="1.33098">
        <ele>282</ele>
        <time>2019-04-14T11:01:50Z</time>
      </trkpt>
      <trkpt lat="44.42447" lon="1.33093">
        <ele>282</ele>
        <time>2019-04-14T11:01:51Z</time>
      </trkpt>
      <trkpt lat="44.42449" lon="1.33089">
        <ele>282</ele>
        <time>2019-04-14T11:01:52Z</time>
      </trkpt>
      <trkpt lat="44.42453" lon="1.33085">
        <ele>282</ele>
        <time>2019-04-14T11:01:53Z</time>
      </trkpt>
      <trkpt lat="44.42455" lon="1.33081">
        <ele>281</ele>
        <time>2019-04-14T11:01:54Z</time>
      </trkpt>
      <trkpt lat="44.42457" lon="1.33075">
        <ele>281</ele>
        <time>2019-04-14T11:01:55Z</time>
      </trkpt>
      <trkpt lat="44.42459" lon="1.33071">
        <ele>281</ele>
        <time>2019-04-14T11:01:56Z</time>
      </trkpt>
      <trkpt lat="44.42461" lon="1.33066">
        <ele>281</ele>
        <time>2019-04-14T11:01:57Z</time>
      </trkpt>
      <trkpt lat="44.42463" lon="1.33061">
        <ele>281</ele>
        <time>2019-04-14T11:01:58Z</time>
      </trkpt>
      <trkpt lat="44.42466" lon="1.33057">
        <ele>281</ele>
        <time>2019-04-14T11:01:59Z</time>
      </trkpt>
      <trkpt lat="44.42467" lon="1.33051">
        <ele>281</ele>
        <time>2019-04-14T11:02:00Z</time>
      </trkpt>
      <trkpt lat="44.42469" lon="1.33045">
        <ele>281</ele>
        <time>2019-04-14T11:02:01Z</time>
      </trkpt>
      <trkpt lat="44.42471" lon="1.33039">
        <ele>281</ele>
        <time>2019-04-14T11:02:02Z</time>
      </trkpt>
      <trkpt lat="44.42474" lon="1.33034">
        <ele>280</ele>
        <time>2019-04-14T11:02:03Z</time>
      </trkpt>
      <trkpt lat="44.42477" lon="1.33029">
        <ele>280</ele>
        <time>2019-04-14T11:02:04Z</time>
      </trkpt>
      <trkpt lat="44.4248" lon="1.33023">
        <ele>280</ele>
        <time>2019-04-14T11:02:05Z</time>
      </trkpt>
      <trkpt lat="44.42483" lon="1.33017">
        <ele>280</ele>
        <time>2019-04-14T11:02:06Z</time>
      </trkpt>
      <trkpt lat="44.42485" lon="1.33011">
        <ele>280</ele>
        <time>2019-04-14T11:02:07Z</time>
      </trkpt>
      <trkpt lat="44.42487" lon="1.33005">
        <ele>280</ele>
        <time>2019-04-14T11:02:08Z</time>
      </trkpt>
      <trkpt lat="44.42489" lon="1.32999">
        <ele>280</ele>
        <time>2019-04-14T11:02:09Z</time>
      </trkpt>
      <trkpt lat="44.4249" lon="1.32994">
        <ele>280</ele>
        <time>2019-04-14T11:02:10Z</time>
      </trkpt>
      <trkpt lat="44.4249" lon="1.32988">
        <ele>280</ele>
        <time>2019-04-14T11:02:11Z</time>
      </trkpt>
      <trkpt lat="44.42489" lon="1.32984">
        <ele>280</ele>
        <time>2019-04-14T11:02:12Z</time>
      </trkpt>
      <trkpt lat="44.42487" lon="1.32979">
        <ele>280</ele>
        <time>2019-04-14T11:02:13Z</time>
      </trkpt>
      <trkpt lat="44.42485" lon="1.32975">
        <ele>280</ele>
        <time>2019-04-14T11:02:14Z</time>
      </trkpt>
      <trkpt lat="44.42483" lon="1.32971">
        <ele>280</ele>
        <time>2019-04-14T11:02:15Z</time>
      </trkpt>
      <trkpt lat="44.42481" lon="1.32967">
        <ele>280</ele>
        <time>2019-04-14T11:02:16Z</time>
      </trkpt>
      <trkpt lat="44.42479" lon="1.32961">
        <ele>280</ele>
        <time>2019-04-14T11:02:17Z</time>
      </trkpt>
      <trkpt lat="44.42476" lon="1.32955">
        <ele>279</ele>
        <time>2019-04-14T11:02:18Z</time>
      </trkpt>
      <trkpt lat="44.42472" lon="1.32949">
        <ele>279</ele>
        <time>2019-04-14T11:02:19Z</time>
      </trkpt>
      <trkpt lat="44.42468" lon="1.32942">
        <ele>278</ele>
        <time>2019-04-14T11:02:20Z</time>
      </trkpt>
      <trkpt lat="44.42465" lon="1.32935">
        <ele>278</ele>
        <time>2019-04-14T11:02:21Z</time>
      </trkpt>
      <trkpt lat="44.42461" lon="1.32928">
        <ele>278</ele>
        <time>2019-04-14T11:02:22Z</time>
      </trkpt>
      <trkpt lat="44.42457" lon="1.32921">
        <ele>277</ele>
        <time>2019-04-14T11:02:23Z</time>
      </trkpt>
      <trkpt lat="44.42454" lon="1.32913">
        <ele>277</ele>
        <time>2019-04-14T11:02:24Z</time>
      </trkpt>
      <trkpt lat="44.4245" lon="1.32905">
        <ele>276</ele>
        <time>2019-04-14T11:02:25Z</time>
      </trkpt>
      <trkpt lat="44.42446" lon="1.32897">
        <ele>276</ele>
        <time>2019-04-14T11:02:26Z</time>
      </trkpt>
      <trkpt lat="44.42442" lon="1.32887">
        <ele>275</ele>
        <time>2019-04-14T11:02:27Z</time>
      </trkpt>
      <trkpt lat="44.42439" lon="1.32878">
        <ele>275</ele>
        <time>2019-04-14T11:02:28Z</time>
      </trkpt>
      <trkpt lat="44.42435" lon="1.32868">
        <ele>274</ele>
        <time>2019-04-14T11:02:29Z</time>
      </trkpt>
      <trkpt lat="44.42432" lon="1.32858">
        <ele>274</ele>
        <time>2019-04-14T11:02:30Z</time>
      </trkpt>
      <trkpt lat="44.42428" lon="1.32849">
        <ele>274</ele>
        <time>2019-04-14T11:02:31Z</time>
      </trkpt>
      <trkpt lat="44.42423" lon="1.32842">
        <ele>274</ele>
        <time>2019-04-14T11:02:32Z</time>
      </trkpt>
      <trkpt lat="44.42418" lon="1.32837">
        <ele>274</ele>
        <time>2019-04-14T11:02:33Z</time>
      </trkpt>
      <trkpt lat="44.42413" lon="1.32833">
        <ele>274</ele>
        <time>2019-04-14T11:02:34Z</time>
      </trkpt>
      <trkpt lat="44.42408" lon="1.3283">
        <ele>275</ele>
        <time>2019-04-14T11:02:35Z</time>
      </trkpt>
      <trkpt lat="44.42402" lon="1.32828">
        <ele>275</ele>
        <time>2019-04-14T11:02:36Z</time>
      </trkpt>
      <trkpt lat="44.42397" lon="1.32826">
        <ele>275</ele>
        <time>2019-04-14T11:02:37Z</time>
      </trkpt>
      <trkpt lat="44.42392" lon="1.32825">
        <ele>275</ele>
        <time>2019-04-14T11:02:38Z</time>
      </trkpt>
      <trkpt lat="44.42387" lon="1.32823">
        <ele>276</ele>
        <time>2019-04-14T11:02:39Z</time>
      </trkpt>
      <trkpt lat="44.42383" lon="1.32822">
        <ele>276</ele>
        <time>2019-04-14T11:02:40Z</time>
      </trkpt>
      <trkpt lat="44.42379" lon="1.3282">
        <ele>276</ele>
        <time>2019-04-14T11:02:41Z</time>
      </trkpt>
      <trkpt lat="44.42375" lon="1.32819">
        <ele>276</ele>
        <time>2019-04-14T11:02:42Z</time>
      </trkpt>
      <trkpt lat="44.42372" lon="1.32818">
        <ele>277</ele>
        <time>2019-04-14T11:02:43Z</time>
      </trkpt>
      <trkpt lat="44.42369" lon="1.32816">
        <ele>277</ele>
        <time>2019-04-14T11:02:44Z</time>
      </trkpt>
      <trkpt lat="44.42366" lon="1.32815">
        <ele>277</ele>
        <time>2019-04-14T11:02:45Z</time>
      </trkpt>
      <trkpt lat="44.42364" lon="1.32814">
        <ele>278</ele>
        <time>2019-04-14T11:02:46Z</time>
      </trkpt>
      <trkpt lat="44.42361" lon="1.32812">
        <ele>278</ele>
        <time>2019-04-14T11:02:47Z</time>
      </trkpt>
      <trkpt lat="44.42358" lon="1.3281">
        <ele>278</ele>
        <time>2019-04-14T11:02:48Z</time>
      </trkpt>
      <trkpt lat="44.42355" lon="1.32809">
        <ele>279</ele>
        <time>2019-04-14T11:02:49Z</time>
      </trkpt>
      <trkpt lat="44.42352" lon="1.32807">
        <ele>279</ele>
        <time>2019-04-14T11:02:50Z</time>
      </trkpt>
      <trkpt lat="44.4235" lon="1.32805">
        <ele>279</ele>
        <time>2019-04-14T11:02:51Z</time>
      </trkpt>
      <trkpt lat="44.42347" lon="1.32803">
        <ele>279</ele>
        <time>2019-04-14T11:02:52Z</time>
      </trkpt>
      <trkpt lat="44.42345" lon="1.328">
        <ele>279</ele>
        <time>2019-04-14T11:02:53Z</time>
      </trkpt>
      <trkpt lat="44.42342" lon="1.32798">
        <ele>280</ele>
        <time>2019-04-14T11:02:54Z</time>
      </trkpt>
      <trkpt lat="44.42339" lon="1.32796">
        <ele>280</ele>
        <time>2019-04-14T11:02:55Z</time>
      </trkpt>
      <trkpt lat="44.42337" lon="1.32794">
        <ele>280</ele>
        <time>2019-04-14T11:02:56Z</time>
      </trkpt>
      <trkpt lat="44.42334" lon="1.32792">
        <ele>280</ele>
        <time>2019-04-14T11:02:57Z</time>
      </trkpt>
      <trkpt lat="44.42332" lon="1.3279">
        <ele>280</ele>
        <time>2019-04-14T11:02:58Z</time>
      </trkpt>
      <trkpt lat="44.42329" lon="1.32787">
        <ele>280</ele>
        <time>2019-04-14T11:02:59Z</time>
      </trkpt>
      <trkpt lat="44.42327" lon="1.32784">
        <ele>280</ele>
        <time>2019-04-14T11:03:00Z</time>
      </trkpt>
      <trkpt lat="44.42324" lon="1.32781">
        <ele>280</ele>
        <time>2019-04-14T11:03:01Z</time>
      </trkpt>
      <trkpt lat="44.42321" lon="1.32778">
        <ele>280</ele>
        <time>2019-04-14T11:03:02Z</time>
      </trkpt>
      <trkpt lat="44.42318" lon="1.32775">
        <ele>280</ele>
        <time>2019-04-14T11:03:03Z</time>
      </trkpt>
      <trkpt lat="44.42314" lon="1.32771">
        <ele>280</ele>
        <time>2019-04-14T11:03:04Z</time>
      </trkpt>
      <trkpt lat="44.42311" lon="1.32768">
        <ele>280</ele>
        <time>2019-04-14T11:03:05Z</time>
      </trkpt>
      <trkpt lat="44.42308" lon="1.32764">
        <ele>280</ele>
        <time>2019-04-14T11:03:06Z</time>
      </trkpt>
      <trkpt lat="44.42304" lon="1.3276">
        <ele>279</ele>
        <time>2019-04-14T11:03:07Z</time>
      </trkpt>
      <trkpt lat="44.423" lon="1.32755">
        <ele>279</ele>
        <time>2019-04-14T11:03:08Z</time>
      </trkpt>
      <trkpt lat="44.42296" lon="1.3275">
        <ele>279</ele>
        <time>2019-04-14T11:03:09Z</time>
      </trkpt>
      <trkpt lat="44.42293" lon="1.32744">
        <ele>279</ele>
        <time>2019-04-14T11:03:10Z</time>
      </trkpt>
      <trkpt lat="44.4229" lon="1.32737">
        <ele>279</ele>
        <time>2019-04-14T11:03:11Z</time>
      </trkpt>
      <trkpt lat="44.42287" lon="1.3273">
        <ele>278</ele>
        <time>2019-04-14T11:03:12Z</time>
      </trkpt>
      <trkpt lat="44.42285" lon="1.32722">
        <ele>278</ele>
        <time>2019-04-14T11:03:13Z</time>
      </trkpt>
      <trkpt lat="44.42283" lon="1.32713">
        <ele>278</ele>
        <time>2019-04-14T11:03:14Z</time>
      </trkpt>
      <trkpt lat="44.42282" lon="1.32704">
        <ele>278</ele>
        <time>2019-04-14T11:03:15Z</time>
      </trkpt>
      <trkpt lat="44.42282" lon="1.32695">
        <ele>277</ele>
        <time>2019-04-14T11:03:16Z</time>
      </trkpt>
      <trkpt lat="44.42281" lon="1.32685">
        <ele>277</ele>
        <time>2019-04-14T11:03:17Z</time>
      </trkpt>
      <trkpt lat="44.42281" lon="1.32676">
        <ele>277</ele>
        <time>2019-04-14T11:03:18Z</time>
      </trkpt>
      <trkpt lat="44.42281" lon="1.32666">
        <ele>276</ele>
        <time>2019-04-14T11:03:19Z</time>
      </trkpt>
      <trkpt lat="44.4228" lon="1.32657">
        <ele>276</ele>
        <time>2019-04-14T11:03:20Z</time>
      </trkpt>
      <trkpt lat="44.4228" lon="1.32647">
        <ele>276</ele>
        <time>2019-04-14T11:03:21Z</time>
      </trkpt>
      <trkpt lat="44.42278" lon="1.32639">
        <ele>276</ele>
        <time>2019-04-14T11:03:22Z</time>
      </trkpt>
      <trkpt lat="44.42275" lon="1.32631">
        <ele>276</ele>
        <time>2019-04-14T11:03:23Z</time>
      </trkpt>
      <trkpt lat="44.42271" lon="1.32625">
        <ele>276</ele>
        <time>2019-04-14T11:03:24Z</time>
      </trkpt>
      <trkpt lat="44.42267" lon="1.32619">
        <ele>275</ele>
        <time>2019-04-14T11:03:25Z</time>
      </trkpt>
      <trkpt lat="44.42263" lon="1.32614">
        <ele>275</ele>
        <time>2019-04-14T11:03:26Z</time>
      </trkpt>
      <trkpt lat="44.42259" lon="1.3261">
        <ele>275</ele>
        <time>2019-04-14T11:03:27Z</time>
      </trkpt>
      <trkpt lat="44.42255" lon="1.32605">
        <ele>275</ele>
        <time>2019-04-14T11:03:28Z</time>
      </trkpt>
      <trkpt lat="44.42251" lon="1.32601">
        <ele>275</ele>
        <time>2019-04-14T11:03:29Z</time>
      </trkpt>
      <trkpt lat="44.42247" lon="1.32596">
        <ele>275</ele>
        <time>2019-04-14T11:03:30Z</time>
      </trkpt>
      <trkpt lat="44.42243" lon="1.32592">
        <ele>275</ele>
        <time>2019-04-14T11:03:31Z</time>
      </trkpt>
      <trkpt lat="44.4224" lon="1.32588">
        <ele>275</ele>
        <time>2019-04-14T11:03:32Z</time>
      </trkpt>
      <trkpt lat="44.42236" lon="1.32583">
        <ele>275</ele>
        <time>2019-04-14T11:03:33Z</time>
      </trkpt>
      <trkpt lat="44.42233" lon="1.3258">
        <ele>276</ele>
        <time>2019-04-14T11:03:34Z</time>
      </trkpt>
      <trkpt lat="44.42229" lon="1.32576">
        <ele>276</ele>
        <time>2019-04-14T11:03:35Z</time>
      </trkpt>
      <trkpt lat="44.42226" lon="1.32572">
        <ele>276</ele>
        <time>2019-04-14T11:03:36Z</time>
      </trkpt>
      <trkpt lat="44.42223" lon="1.32568">
        <ele>276</ele>
        <time>2019-04-14T11:03:37Z</time>
      </trkpt>
      <trkpt lat="44.4222" lon="1.32565">
        <ele>277</ele>
        <time>2019-04-14T11:03:38Z</time>
      </trkpt>
      <trkpt lat="44.42217" lon="1.32561">
        <ele>277</ele>
        <time>2019-04-14T11:03:39Z</time>
      </trkpt>
      <trkpt lat="44.42215" lon="1.32558">
        <ele>277</ele>
        <time>2019-04-14T11:03:40Z</time>
      </trkpt>
      <trkpt lat="44.42212" lon="1.32554">
        <ele>277</ele>
        <time>2019-04-14T11:03:41Z</time>
      </trkpt>
      <trkpt lat="44.4221" lon="1.32551">
        <ele>277</ele>
        <time>2019-04-14T11:03:42Z</time>
      </trkpt>
      <trkpt lat="44.4221" lon="1.32547">
        <ele>278</ele>
        <time>2019-04-14T11:03:43Z</time>
      </trkpt>
      <trkpt lat="44.42209" lon="1.32544">
        <ele>278</ele>
        <time>2019-04-14T11:03:44Z</time>
      </trkpt>
      <trkpt lat="44.42209" lon="1.3254">
        <ele>278</ele>
        <time>2019-04-14T11:03:45Z</time>
      </trkpt>
      <trkpt lat="44.42208" lon="1.32536">
        <ele>278</ele>
        <time>2019-04-14T11:03:46Z</time>
      </trkpt>
      <trkpt lat="44.42206" lon="1.32532">
        <ele>278</ele>
        <time>2019-04-14T11:03:47Z</time>
      </trkpt>
      <trkpt lat="44.42206" lon="1.32528">
        <ele>279</ele>
        <time>2019-04-14T11:03:48Z</time>
      </trkpt>
      <trkpt lat="44.42204" lon="1.32524">
        <ele>279</ele>
        <time>2019-04-14T11:03:49Z</time>
      </trkpt>
      <trkpt lat="44.42203" lon="1.3252">
        <ele>279</ele>
        <time>2019-04-14T11:03:50Z</time>
      </trkpt>
      <trkpt lat="44.42202" lon="1.32516">
        <ele>279</ele>
        <time>2019-04-14T11:03:51Z</time>
      </trkpt>
      <trkpt lat="44.42201" lon="1.32512">
        <ele>279</ele>
        <time>2019-04-14T11:03:52Z</time>
      </trkpt>
      <trkpt lat="44.42199" lon="1.32507">
        <ele>279</ele>
        <time>2019-04-14T11:03:53Z</time>
      </trkpt>
      <trkpt lat="44.42198" lon="1.32503">
        <ele>279</ele>
        <time>2019-04-14T11:03:54Z</time>
      </trkpt>
      <trkpt lat="44.42196" lon="1.325">
        <ele>279</ele>
        <time>2019-04-14T11:03:55Z</time>
      </trkpt>
      <trkpt lat="44.42194" lon="1.32496">
        <ele>278</ele>
        <time>2019-04-14T11:03:56Z</time>
      </trkpt>
      <trkpt lat="44.4219" lon="1.32491">
        <ele>278</ele>
        <time>2019-04-14T11:03:57Z</time>
      </trkpt>
      <trkpt lat="44.42187" lon="1.32485">
        <ele>278</ele>
        <time>2019-04-14T11:03:58Z</time>
      </trkpt>
      <trkpt lat="44.42184" lon="1.3248">
        <ele>277</ele>
        <time>2019-04-14T11:03:59Z</time>
      </trkpt>
      <trkpt lat="44.4218" lon="1.32474">
        <ele>277</ele>
        <time>2019-04-14T11:04:00Z</time>
      </trkpt>
      <trkpt lat="44.42177" lon="1.32469">
        <ele>277</ele>
        <time>2019-04-14T11:04:01Z</time>
      </trkpt>
      <trkpt lat="44.42173" lon="1.32464">
        <ele>276</ele>
        <time>2019-04-14T11:04:02Z</time>
      </trkpt>
      <trkpt lat="44.42169" lon="1.3246">
        <ele>275</ele>
        <time>2019-04-14T11:04:03Z</time>
      </trkpt>
      <trkpt lat="44.42166" lon="1.32455">
        <ele>275</ele>
        <time>2019-04-14T11:04:04Z</time>
      </trkpt>
      <trkpt lat="44.42163" lon="1.3245">
        <ele>274</ele>
        <time>2019-04-14T11:04:05Z</time>
      </trkpt>
      <trkpt lat="44.4216" lon="1.32446">
        <ele>274</ele>
        <time>2019-04-14T11:04:06Z</time>
      </trkpt>
      <trkpt lat="44.42156" lon="1.32441">
        <ele>274</ele>
        <time>2019-04-14T11:04:07Z</time>
      </trkpt>
      <trkpt lat="44.42153" lon="1.32436">
        <ele>273</ele>
        <time>2019-04-14T11:04:08Z</time>
      </trkpt>
      <trkpt lat="44.4215" lon="1.3243">
        <ele>273</ele>
        <time>2019-04-14T11:04:09Z</time>
      </trkpt>
      <trkpt lat="44.42146" lon="1.32425">
        <ele>272</ele>
        <time>2019-04-14T11:04:10Z</time>
      </trkpt>
      <trkpt lat="44.42142" lon="1.3242">
        <ele>272</ele>
        <time>2019-04-14T11:04:11Z</time>
      </trkpt>
      <trkpt lat="44.42139" lon="1.32417">
        <ele>271</ele>
        <time>2019-04-14T11:04:12Z</time>
      </trkpt>
      <trkpt lat="44.42138" lon="1.32415">
        <ele>270</ele>
        <time>2019-04-14T11:04:13Z</time>
      </trkpt>
      <trkpt lat="44.42136" lon="1.32412">
        <ele>270</ele>
        <time>2019-04-14T11:04:14Z</time>
      </trkpt>
      <trkpt lat="44.42136" lon="1.3241">
        <ele>269</ele>
        <time>2019-04-14T11:04:15Z</time>
      </trkpt>
      <trkpt lat="44.42136" lon="1.32407">
        <ele>269</ele>
        <time>2019-04-14T11:04:16Z</time>
      </trkpt>
      <trkpt lat="44.42137" lon="1.32405">
        <ele>269</ele>
        <time>2019-04-14T11:04:17Z</time>
      </trkpt>
      <trkpt lat="44.42139" lon="1.32403">
        <ele>269</ele>
        <time>2019-04-14T11:04:18Z</time>
      </trkpt>
      <trkpt lat="44.4214" lon="1.32401">
        <ele>270</ele>
        <time>2019-04-14T11:04:19Z</time>
      </trkpt>
      <trkpt lat="44.42142" lon="1.32399">
        <ele>270</ele>
        <time>2019-04-14T11:04:20Z</time>
      </trkpt>
      <trkpt lat="44.42143" lon="1.32398">
        <ele>270</ele>
        <time>2019-04-14T11:04:21Z</time>
      </trkpt>
      <trkpt lat="44.42145" lon="1.32396">
        <ele>270</ele>
        <time>2019-04-14T11:04:22Z</time>
      </trkpt>
      <trkpt lat="44.42146" lon="1.32395">
        <ele>270</ele>
        <time>2019-04-14T11:04:23Z</time>
      </trkpt>
      <trkpt lat="44.42148" lon="1.32393">
        <ele>270</ele>
        <time>2019-04-14T11:04:24Z</time>
      </trkpt>
      <trkpt lat="44.4215" lon="1.32391">
        <ele>271</ele>
        <time>2019-04-14T11:04:25Z</time>
      </trkpt>
      <trkpt lat="44.42152" lon="1.3239">
        <ele>271</ele>
        <time>2019-04-14T11:04:26Z</time>
      </trkpt>
      <trkpt lat="44.42153" lon="1.32388">
        <ele>271</ele>
        <time>2019-04-14T11:04:27Z</time>
      </trkpt>
      <trkpt lat="44.42155" lon="1.32387">
        <ele>271</ele>
        <time>2019-04-14T11:04:28Z</time>
      </trkpt>
      <trkpt lat="44.42156" lon="1.32385">
        <ele>272</ele>
        <time>2019-04-14T11:04:29Z</time>
      </trkpt>
      <trkpt lat="44.42158" lon="1.32383">
        <ele>272</ele>
        <time>2019-04-14T11:04:30Z</time>
      </trkpt>
      <trkpt lat="44.42159" lon="1.32382">
        <ele>272</ele>
        <time>2019-04-14T11:04:31Z</time>
      </trkpt>
      <trkpt lat="44.4216" lon="1.32381">
        <ele>273</ele>
        <time>2019-04-14T11:04:32Z</time>
      </trkpt>
      <trkpt lat="44.42161" lon="1.32379">
        <ele>273</ele>
        <time>2019-04-14T11:04:33Z</time>
      </trkpt>
      <trkpt lat="44.42162" lon="1.32378">
        <ele>273</ele>
        <time>2019-04-14T11:04:34Z</time>
      </trkpt>
      <trkpt lat="44.42164" lon="1.32376">
        <ele>273</ele>
        <time>2019-04-14T11:04:35Z</time>
      </trkpt>
      <trkpt lat="44.42165" lon="1.32374">
        <ele>273</ele>
        <time>2019-04-14T11:04:36Z</time>
      </trkpt>
      <trkpt lat="44.42167" lon="1.32372">
        <ele>274</ele>
        <time>2019-04-14T11:04:37Z</time>
      </trkpt>
      <trkpt lat="44.42168" lon="1.3237">
        <ele>274</ele>
        <time>2019-04-14T11:04:38Z</time>
      </trkpt>
      <trkpt lat="44.4217" lon="1.32368">
        <ele>274</ele>
        <time>2019-04-14T11:04:39Z</time>
      </trkpt>
      <trkpt lat="44.42171" lon="1.32366">
        <ele>274</ele>
        <time>2019-04-14T11:04:40Z</time>
      </trkpt>
      <trkpt lat="44.42173" lon="1.32364">
        <ele>274</ele>
        <time>2019-04-14T11:04:41Z</time>
      </trkpt>
      <trkpt lat="44.42175" lon="1.32362">
        <ele>275</ele>
        <time>2019-04-14T11:04:42Z</time>
      </trkpt>
      <trkpt lat="44.42177" lon="1.3236">
        <ele>275</ele>
        <time>2019-04-14T11:04:43Z</time>
      </trkpt>
      <trkpt lat="44.42179" lon="1.32358">
        <ele>275</ele>
        <time>2019-04-14T11:04:44Z</time>
      </trkpt>
      <trkpt lat="44.42181" lon="1.32356">
        <ele>275</ele>
        <time>2019-04-14T11:04:45Z</time>
      </trkpt>
      <trkpt lat="44.42182" lon="1.32354">
        <ele>275</ele>
        <time>2019-04-14T11:04:46Z</time>
      </trkpt>
      <trkpt lat="44.42184" lon="1.32352">
        <ele>275</ele>
        <time>2019-04-14T11:04:47Z</time>
      </trkpt>
      <trkpt lat="44.42185" lon="1.3235">
        <ele>275</ele>
        <time>2019-04-14T11:04:48Z</time>
      </trkpt>
      <trkpt lat="44.42187" lon="1.32348">
        <ele>275</ele>
        <time>2019-04-14T11:04:49Z</time>
      </trkpt>
      <trkpt lat="44.42189" lon="1.32345">
        <ele>275</ele>
        <time>2019-04-14T11:04:50Z</time>
      </trkpt>
      <trkpt lat="44.4219" lon="1.32343">
        <ele>275</ele>
        <time>2019-04-14T11:04:51Z</time>
      </trkpt>
      <trkpt lat="44.42192" lon="1.32342">
        <ele>275</ele>
        <time>2019-04-14T11:04:52Z</time>
      </trkpt>
      <trkpt lat="44.42194" lon="1.3234">
        <ele>275</ele>
        <time>2019-04-14T11:04:53Z</time>
      </trkpt>
      <trkpt lat="44.42196" lon="1.32338">
        <ele>276</ele>
        <time>2019-04-14T11:04:54Z</time>
      </trkpt>
      <trkpt lat="44.42197" lon="1.32335">
        <ele>276</ele>
        <time>2019-04-14T11:04:55Z</time>
      </trkpt>
      <trkpt lat="44.42198" lon="1.32333">
        <ele>276</ele>
        <time>2019-04-14T11:04:56Z</time>
      </trkpt>
      <trkpt lat="44.422" lon="1.32331">
        <ele>276</ele>
        <time>2019-04-14T11:04:57Z</time>
      </trkpt>
      <trkpt lat="44.42201" lon="1.3233">
        <ele>276</ele>
        <time>2019-04-14T11:04:58Z</time>
      </trkpt>
      <trkpt lat="44.42203" lon="1.32328">
        <ele>276</ele>
        <time>2019-04-14T11:04:59Z</time>
      </trkpt>
      <trkpt lat="44.42204" lon="1.32326">
        <ele>276</ele>
        <time>2019-04-14T11:05:00Z</time>
      </trkpt>
      <trkpt lat="44.42206" lon="1.32325">
        <ele>276</ele>
        <time>2019-04-14T11:05:01Z</time>
      </trkpt>
      <trkpt lat="44.42207" lon="1.32323">
        <ele>277</ele>
        <time>2019-04-14T11:05:02Z</time>
      </trkpt>
      <trkpt lat="44.42209" lon="1.32322">
        <ele>277</ele>
        <time>2019-04-14T11:05:03Z</time>
      </trkpt>
      <trkpt lat="44.4221" lon="1.32321">
        <ele>277</ele>
        <time>2019-04-14T11:05:04Z</time>
      </trkpt>
      <trkpt lat="44.4221" lon="1.32319">
        <ele>277</ele>
        <time>2019-04-14T11:05:05Z</time>
      </trkpt>
      <trkpt lat="44.42211" lon="1.32318">
        <ele>277</ele>
        <time>2019-04-14T11:05:06Z</time>
      </trkpt>
      <trkpt lat="44.42212" lon="1.32317">
        <ele>277</ele>
        <time>2019-04-14T11:05:07Z</time>
      </trkpt>
      <trkpt lat="44.42213" lon="1.32316">
        <ele>277</ele>
        <time>2019-04-14T11:05:08Z</time>
      </trkpt>
      <trkpt lat="44.42214" lon="1.32315">
        <ele>277</ele>
        <time>2019-04-14T11:05:09Z</time>
      </trkpt>
      <trkpt lat="44.42215" lon="1.32313">
        <ele>277</ele>
        <time>2019-04-14T11:05:10Z</time>
      </trkpt>
      <trkpt lat="44.42215" lon="1.32313">
        <ele>277</ele>
        <time>2019-04-14T11:05:11Z</time>
      </trkpt>
      <trkpt lat="44.42216" lon="1.32312">
        <ele>277</ele>
        <time>2019-04-14T11:05:12Z</time>
      </trkpt>
      <trkpt lat="44.42217" lon="1.32311">
        <ele>277</ele>
        <time>2019-04-14T11:05:13Z</time>
      </trkpt>
      <trkpt lat="44.42218" lon="1.3231">
        <ele>277</ele>
        <time>2019-04-14T11:05:14Z</time>
      </trkpt>
      <trkpt lat="44.42219" lon="1.32308">
        <ele>277</ele>
        <time>2019-04-14T11:05:15Z</time>
      </trkpt>
      <trkpt lat="44.42221" lon="1.32307">
        <ele>277</ele>
        <time>2019-04-14T11:05:16Z</time>
      </trkpt>
      <trkpt lat="44.42223" lon="1.32305">
        <ele>277</ele>
        <time>2019-04-14T11:05:17Z</time>
      </trkpt>
      <trkpt lat="44.42224" lon="1.32303">
        <ele>278</ele>
        <time>2019-04-14T11:05:18Z</time>
      </trkpt>
      <trkpt lat="44.42226" lon="1.32301">
        <ele>278</ele>
        <time>2019-04-14T11:05:19Z</time>
      </trkpt>
      <trkpt lat="44.42228" lon="1.32299">
        <ele>278</ele>
        <time>2019-04-14T11:05:20Z</time>
      </trkpt>
      <trkpt lat="44.4223" lon="1.32297">
        <ele>278</ele>
        <time>2019-04-14T11:05:21Z</time>
      </trkpt>
      <trkpt lat="44.42232" lon="1.32295">
        <ele>278</ele>
        <time>2019-04-14T11:05:22Z</time>
      </trkpt>
      <trkpt lat="44.42234" lon="1.32293">
        <ele>278</ele>
        <time>2019-04-14T11:05:23Z</time>
      </trkpt>
      <trkpt lat="44.42236" lon="1.32291">
        <ele>278</ele>
        <time>2019-04-14T11:05:24Z</time>
      </trkpt>
      <trkpt lat="44.42238" lon="1.32289">
        <ele>278</ele>
        <time>2019-04-14T11:05:25Z</time>
      </trkpt>
      <trkpt lat="44.4224" lon="1.32287">
        <ele>278</ele>
        <time>2019-04-14T11:05:26Z</time>
      </trkpt>
      <trkpt lat="44.42242" lon="1.32286">
        <ele>278</ele>
        <time>2019-04-14T11:05:27Z</time>
      </trkpt>
      <trkpt lat="44.42244" lon="1.32284">
        <ele>278</ele>
        <time>2019-04-14T11:05:28Z</time>
      </trkpt>
      <trkpt lat="44.42247" lon="1.32281">
        <ele>279</ele>
        <time>2019-04-14T11:05:29Z</time>
      </trkpt>
      <trkpt lat="44.42249" lon="1.32279">
        <ele>279</ele>
        <time>2019-04-14T11:05:30Z</time>
      </trkpt>
      <trkpt lat="44.42252" lon="1.32277">
        <ele>279</ele>
        <time>2019-04-14T11:05:31Z</time>
      </trkpt>
      <trkpt lat="44.42254" lon="1.32275">
        <ele>279</ele>
        <time>2019-04-14T11:05:32Z</time>
      </trkpt>
      <trkpt lat="44.42256" lon="1.32273">
        <ele>279</ele>
        <time>2019-04-14T11:05:33Z</time>
      </trkpt>
      <trkpt lat="44.42258" lon="1.3227">
        <ele>279</ele>
        <time>2019-04-14T11:05:34Z</time>
      </trkpt>
      <trkpt lat="44.42261" lon="1.32268">
        <ele>279</ele>
        <time>2019-04-14T11:05:35Z</time>
      </trkpt>
      <trkpt lat="44.42263" lon="1.32266">
        <ele>280</ele>
        <time>2019-04-14T11:05:36Z</time>
      </trkpt>
      <trkpt lat="44.42266" lon="1.32263">
        <ele>280</ele>
        <time>2019-04-14T11:05:37Z</time>
      </trkpt>
      <trkpt lat="44.42268" lon="1.32261">
        <ele>280</ele>
        <time>2019-04-14T11:05:38Z</time>
      </trkpt>
      <trkpt lat="44.42271" lon="1.32258">
        <ele>280</ele>
        <time>2019-04-14T11:05:39Z</time>
      </trkpt>
      <trkpt lat="44.42273" lon="1.32256">
        <ele>280</ele>
        <time>2019-04-14T11:05:40Z</time>
      </trkpt>
      <trkpt lat="44.42276" lon="1.32253">
        <ele>280</ele>
        <time>2019-04-14T11:05:41Z</time>
      </trkpt>
      <trkpt lat="44.42279" lon="1.3225">
        <ele>280</ele>
        <time>2019-04-14T11:05:42Z</time>
      </trkpt>
      <trkpt lat="44.42282" lon="1.32248">
        <ele>281</ele>
        <time>2019-04-14T11:05:43Z</time>
      </trkpt>
      <trkpt lat="44.42284" lon="1.32245">
        <ele>281</ele>
        <time>2019-04-14T11:05:44Z</time>
      </trkpt>
      <trkpt lat="44.42287" lon="1.32243">
        <ele>281</ele>
        <time>2019-04-14T11:05:45Z</time>
      </trkpt>
      <trkpt lat="44.42289" lon="1.32241">
        <ele>281</ele>
        <time>2019-04-14T11:05:46Z</time>
      </trkpt>
      <trkpt lat="44.42292" lon="1.32239">
        <ele>281</ele>
        <time>2019-04-14T11:05:47Z</time>
      </trkpt>
      <trkpt lat="44.42294" lon="1.32237">
        <ele>282</ele>
        <time>2019-04-14T11:05:48Z</time>
      </trkpt>
      <trkpt lat="44.42297" lon="1.32234">
        <ele>282</ele>
        <time>2019-04-14T11:05:49Z</time>
      </trkpt>
      <trkpt lat="44.42299" lon="1.32231">
        <ele>282</ele>
        <time>2019-04-14T11:05:50Z</time>
      </trkpt>
      <trkpt lat="44.42301" lon="1.32229">
        <ele>282</ele>
        <time>2019-04-14T11:05:51Z</time>
      </trkpt>
      <trkpt lat="44.42304" lon="1.32227">
        <ele>282</ele>
        <time>2019-04-14T11:05:52Z</time>
      </trkpt>
      <trkpt lat="44.42306" lon="1.32225">
        <ele>283</ele>
        <time>2019-04-14T11:05:53Z</time>
      </trkpt>
      <trkpt lat="44.42309" lon="1.32222">
        <ele>283</ele>
        <time>2019-04-14T11:05:54Z</time>
      </trkpt>
      <trkpt lat="44.42311" lon="1.3222">
        <ele>283</ele>
        <time>2019-04-14T11:05:55Z</time>
      </trkpt>
      <trkpt lat="44.42314" lon="1.32218">
        <ele>283</ele>
        <time>2019-04-14T11:05:56Z</time>
      </trkpt>
      <trkpt lat="44.42316" lon="1.32216">
        <ele>283</ele>
        <time>2019-04-14T11:05:57Z</time>
      </trkpt>
      <trkpt lat="44.42319" lon="1.32214">
        <ele>284</ele>
        <time>2019-04-14T11:05:58Z</time>
      </trkpt>
      <trkpt lat="44.42321" lon="1.32212">
        <ele>284</ele>
        <time>2019-04-14T11:05:59Z</time>
      </trkpt>
      <trkpt lat="44.42323" lon="1.32209">
        <ele>284</ele>
        <time>2019-04-14T11:06:00Z</time>
      </trkpt>
      <trkpt lat="44.42325" lon="1.32207">
        <ele>284</ele>
        <time>2019-04-14T11:06:01Z</time>
      </trkpt>
      <trkpt lat="44.42327" lon="1.32204">
        <ele>285</ele>
        <time>2019-04-14T11:06:02Z</time>
      </trkpt>
      <trkpt lat="44.42329" lon="1.32202">
        <ele>285</ele>
        <time>2019-04-14T11:06:03Z</time>
      </trkpt>
      <trkpt lat="44.42332" lon="1.32199">
        <ele>285</ele>
        <time>2019-04-14T11:06:04Z</time>
      </trkpt>
      <trkpt lat="44.42334" lon="1.32197">
        <ele>285</ele>
        <time>2019-04-14T11:06:05Z</time>
      </trkpt>
      <trkpt lat="44.42336" lon="1.32195">
        <ele>285</ele>
        <time>2019-04-14T11:06:06Z</time>
      </trkpt>
      <trkpt lat="44.42338" lon="1.32192">
        <ele>285</ele>
        <time>2019-04-14T11:06:07Z</time>
      </trkpt>
      <trkpt lat="44.4234" lon="1.3219">
        <ele>285</ele>
        <time>2019-04-14T11:06:08Z</time>
      </trkpt>
      <trkpt lat="44.42343" lon="1.32188">
        <ele>285</ele>
        <time>2019-04-14T11:06:09Z</time>
      </trkpt>
      <trkpt lat="44.42345" lon="1.32185">
        <ele>286</ele>
        <time>2019-04-14T11:06:10Z</time>
      </trkpt>
      <trkpt lat="44.42347" lon="1.32183">
        <ele>286</ele>
        <time>2019-04-14T11:06:11Z</time>
      </trkpt>
      <trkpt lat="44.42349" lon="1.32181">
        <ele>286</ele>
        <time>2019-04-14T11:06:12Z</time>
      </trkpt>
      <trkpt lat="44.42351" lon="1.32178">
        <ele>286</ele>
        <time>2019-04-14T11:06:13Z</time>
      </trkpt>
      <trkpt lat="44.42353" lon="1.32176">
        <ele>286</ele>
        <time>2019-04-14T11:06:14Z</time>
      </trkpt>
      <trkpt lat="44.42355" lon="1.32173">
        <ele>286</ele>
        <time>2019-04-14T11:06:15Z</time>
      </trkpt>
      <trkpt lat="44.42358" lon="1.32171">
        <ele>286</ele>
        <time>2019-04-14T11:06:16Z</time>
      </trkpt>
      <trkpt lat="44.4236" lon="1.32169">
        <ele>286</ele>
        <time>2019-04-14T11:06:17Z</time>
      </trkpt>
      <trkpt lat="44.42361" lon="1.32166">
        <ele>286</ele>
        <time>2019-04-14T11:06:18Z</time>
      </trkpt>
      <trkpt lat="44.42364" lon="1.32164">
        <ele>286</ele>
        <time>2019-04-14T11:06:19Z</time>
      </trkpt>
      <trkpt lat="44.42366" lon="1.32161">
        <ele>287</ele>
        <time>2019-04-14T11:06:20Z</time>
      </trkpt>
      <trkpt lat="44.42368" lon="1.32159">
        <ele>287</ele>
        <time>2019-04-14T11:06:21Z</time>
      </trkpt>
      <trkpt lat="44.42371" lon="1.32156">
        <ele>287</ele>
        <time>2019-04-14T11:06:22Z</time>
      </trkpt>
      <trkpt lat="44.42373" lon="1.32153">
        <ele>287</ele>
        <time>2019-04-14T11:06:23Z</time>
      </trkpt>
      <trkpt lat="44.42375" lon="1.3215">
        <ele>286</ele>
        <time>2019-04-14T11:06:24Z</time>
      </trkpt>
      <trkpt lat="44.42378" lon="1.32147">
        <ele>286</ele>
        <time>2019-04-14T11:06:25Z</time>
      </trkpt>
      <trkpt lat="44.4238" lon="1.32144">
        <ele>286</ele>
        <time>2019-04-14T11:06:26Z</time>
      </trkpt>
      <trkpt lat="44.42383" lon="1.32141">
        <ele>286</ele>
        <time>2019-04-14T11:06:27Z</time>
      </trkpt>
      <trkpt lat="44.42386" lon="1.32138">
        <ele>286</ele>
        <time>2019-04-14T11:06:28Z</time>
      </trkpt>
      <trkpt lat="44.42388" lon="1.32135">
        <ele>286</ele>
        <time>2019-04-14T11:06:29Z</time>
      </trkpt>
      <trkpt lat="44.42391" lon="1.32132">
        <ele>286</ele>
        <time>2019-04-14T11:06:30Z</time>
      </trkpt>
      <trkpt lat="44.42394" lon="1.32129">
        <ele>286</ele>
        <time>2019-04-14T11:06:31Z</time>
      </trkpt>
      <trkpt lat="44.42396" lon="1.32125">
        <ele>286</ele>
        <time>2019-04-14T11:06:32Z</time>
      </trkpt>
      <trkpt lat="44.42399" lon="1.32122">
        <ele>286</ele>
        <time>2019-04-14T11:06:33Z</time>
      </trkpt>
      <trkpt lat="44.42402" lon="1.32119">
        <ele>286</ele>
        <time>2019-04-14T11:06:34Z</time>
      </trkpt>
      <trkpt lat="44.42405" lon="1.32115">
        <ele>286</ele>
        <time>2019-04-14T11:06:35Z</time>
      </trkpt>
      <trkpt lat="44.42409" lon="1.32113">
        <ele>286</ele>
        <time>2019-04-14T11:06:36Z</time>
      </trkpt>
      <trkpt lat="44.42411" lon="1.3211">
        <ele>286</ele>
        <time>2019-04-14T11:06:37Z</time>
      </trkpt>
      <trkpt lat="44.42414" lon="1.32107">
        <ele>287</ele>
        <time>2019-04-14T11:06:38Z</time>
      </trkpt>
      <trkpt lat="44.42416" lon="1.32105">
        <ele>287</ele>
        <time>2019-04-14T11:06:39Z</time>
      </trkpt>
      <trkpt lat="44.42419" lon="1.32102">
        <ele>287</ele>
        <time>2019-04-14T11:06:40Z</time>
      </trkpt>
      <trkpt lat="44.42421" lon="1.32099">
        <ele>287</ele>
        <time>2019-04-14T11:06:41Z</time>
      </trkpt>
      <trkpt lat="44.42424" lon="1.32095">
        <ele>287</ele>
        <time>2019-04-14T11:06:42Z</time>
      </trkpt>
      <trkpt lat="44.42426" lon="1.32091">
        <ele>287</ele>
        <time>2019-04-14T11:06:43Z</time>
      </trkpt>
      <trkpt lat="44.42429" lon="1.32088">
        <ele>287</ele>
        <time>2019-04-14T11:06:44Z</time>
      </trkpt>
      <trkpt lat="44.42431" lon="1.32085">
        <ele>287</ele>
        <time>2019-04-14T11:06:45Z</time>
      </trkpt>
      <trkpt lat="44.42433" lon="1.32081">
        <ele>287</ele>
        <time>2019-04-14T11:06:46Z</time>
      </trkpt>
      <trkpt lat="44.42436" lon="1.32077">
        <ele>287</ele>
        <time>2019-04-14T11:06:47Z</time>
      </trkpt>
      <trkpt lat="44.42439" lon="1.32073">
        <ele>287</ele>
        <time>2019-04-14T11:06:48Z</time>
      </trkpt>
      <trkpt lat="44.42442" lon="1.32069">
        <ele>287</ele>
        <time>2019-04-14T11:06:49Z</time>
      </trkpt>
      <trkpt lat="44.42445" lon="1.32066">
        <ele>287</ele>
        <time>2019-04-14T11:06:50Z</time>
      </trkpt>
      <trkpt lat="44.42448" lon="1.32063">
        <ele>287</ele>
        <time>2019-04-14T11:06:51Z</time>
      </trkpt>
      <trkpt lat="44.42451" lon="1.32059">
        <ele>287</ele>
        <time>2019-04-14T11:06:52Z</time>
      </trkpt>
      <trkpt lat="44.42453" lon="1.32056">
        <ele>287</ele>
        <time>2019-04-14T11:06:53Z</time>
      </trkpt>
      <trkpt lat="44.42456" lon="1.32053">
        <ele>287</ele>
        <time>2019-04-14T11:06:54Z</time>
      </trkpt>
      <trkpt lat="44.42459" lon="1.3205">
        <ele>287</ele>
        <time>2019-04-14T11:06:55Z</time>
      </trkpt>
      <trkpt lat="44.42461" lon="1.32048">
        <ele>287</ele>
        <time>2019-04-14T11:06:56Z</time>
      </trkpt>
      <trkpt lat="44.42464" lon="1.32045">
        <ele>287</ele>
        <time>2019-04-14T11:06:57Z</time>
      </trkpt>
      <trkpt lat="44.42467" lon="1.32042">
        <ele>287</ele>
        <time>2019-04-14T11:06:58Z</time>
      </trkpt>
      <trkpt lat="44.4247" lon="1.32039">
        <ele>287</ele>
        <time>2019-04-14T11:06:59Z</time>
      </trkpt>
      <trkpt lat="44.42473" lon="1.32036">
        <ele>287</ele>
        <time>2019-04-14T11:07:00Z</time>
      </trkpt>
      <trkpt lat="44.42476" lon="1.32034">
        <ele>287</ele>
        <time>2019-04-14T11:07:01Z</time>
      </trkpt>
      <trkpt lat="44.42479" lon="1.32032">
        <ele>287</ele>
        <time>2019-04-14T11:07:02Z</time>
      </trkpt>
      <trkpt lat="44.42482" lon="1.32029">
        <ele>287</ele>
        <time>2019-04-14T11:07:03Z</time>
      </trkpt>
      <trkpt lat="44.42485" lon="1.32026">
        <ele>287</ele>
        <time>2019-04-14T11:07:04Z</time>
      </trkpt>
      <trkpt lat="44.42488" lon="1.32024">
        <ele>287</ele>
        <time>2019-04-14T11:07:05Z</time>
      </trkpt>
      <trkpt lat="44.42491" lon="1.32021">
        <ele>287</ele>
        <time>2019-04-14T11:07:06Z</time>
      </trkpt>
      <trkpt lat="44.42495" lon="1.32019">
        <ele>287</ele>
        <time>2019-04-14T11:07:07Z</time>
      </trkpt>
      <trkpt lat="44.42498" lon="1.32017">
        <ele>287</ele>
        <time>2019-04-14T11:07:08Z</time>
      </trkpt>
      <trkpt lat="44.42502" lon="1.32014">
        <ele>287</ele>
        <time>2019-04-14T11:07:09Z</time>
      </trkpt>
      <trkpt lat="44.42505" lon="1.32011">
        <ele>287</ele>
        <time>2019-04-14T11:07:10Z</time>
      </trkpt>
      <trkpt lat="44.42509" lon="1.32009">
        <ele>287</ele>
        <time>2019-04-14T11:07:11Z</time>
      </trkpt>
      <trkpt lat="44.42513" lon="1.32007">
        <ele>287</ele>
        <time>2019-04-14T11:07:12Z</time>
      </trkpt>
      <trkpt lat="44.42516" lon="1.32004">
        <ele>287</ele>
        <time>2019-04-14T11:07:13Z</time>
      </trkpt>
      <trkpt lat="44.4252" lon="1.32003">
        <ele>287</ele>
        <time>2019-04-14T11:07:14Z</time>
      </trkpt>
      <trkpt lat="44.42525" lon="1.32001">
        <ele>287</ele>
        <time>2019-04-14T11:07:15Z</time>
      </trkpt>
      <trkpt lat="44.42529" lon="1.31999">
        <ele>287</ele>
        <time>2019-04-14T11:07:16Z</time>
      </trkpt>
      <trkpt lat="44.42532" lon="1.31996">
        <ele>287</ele>
        <time>2019-04-14T11:07:17Z</time>
      </trkpt>
      <trkpt lat="44.42536" lon="1.31994">
        <ele>286</ele>
        <time>2019-04-14T11:07:18Z</time>
      </trkpt>
      <trkpt lat="44.4254" lon="1.31992">
        <ele>286</ele>
        <time>2019-04-14T11:07:19Z</time>
      </trkpt>
      <trkpt lat="44.42543" lon="1.3199">
        <ele>286</ele>
        <time>2019-04-14T11:07:20Z</time>
      </trkpt>
      <trkpt lat="44.42547" lon="1.31987">
        <ele>287</ele>
        <time>2019-04-14T11:07:21Z</time>
      </trkpt>
      <trkpt lat="44.4255" lon="1.31985">
        <ele>287</ele>
        <time>2019-04-14T11:07:22Z</time>
      </trkpt>
      <trkpt lat="44.42553" lon="1.31981">
        <ele>286</ele>
        <time>2019-04-14T11:07:23Z</time>
      </trkpt>
      <trkpt lat="44.42557" lon="1.31978">
        <ele>286</ele>
        <time>2019-04-14T11:07:24Z</time>
      </trkpt>
      <trkpt lat="44.42561" lon="1.31975">
        <ele>286</ele>
        <time>2019-04-14T11:07:25Z</time>
      </trkpt>
      <trkpt lat="44.42564" lon="1.31971">
        <ele>286</ele>
        <time>2019-04-14T11:07:26Z</time>
      </trkpt>
      <trkpt lat="44.42568" lon="1.31968">
        <ele>285</ele>
        <time>2019-04-14T11:07:27Z</time>
      </trkpt>
      <trkpt lat="44.42571" lon="1.31964">
        <ele>285</ele>
        <time>2019-04-14T11:07:28Z</time>
      </trkpt>
      <trkpt lat="44.42575" lon="1.3196">
        <ele>285</ele>
        <time>2019-04-14T11:07:29Z</time>
      </trkpt>
      <trkpt lat="44.42579" lon="1.31955">
        <ele>285</ele>
        <time>2019-04-14T11:07:30Z</time>
      </trkpt>
      <trkpt lat="44.42583" lon="1.31951">
        <ele>284</ele>
        <time>2019-04-14T11:07:31Z</time>
      </trkpt>
      <trkpt lat="44.42587" lon="1.31945">
        <ele>284</ele>
        <time>2019-04-14T11:07:32Z</time>
      </trkpt>
      <trkpt lat="44.42591" lon="1.31939">
        <ele>284</ele>
        <time>2019-04-14T11:07:33Z</time>
      </trkpt>
      <trkpt lat="44.42595" lon="1.31934">
        <ele>283</ele>
        <time>2019-04-14T11:07:34Z</time>
      </trkpt>
      <trkpt lat="44.426" lon="1.31928">
        <ele>283</ele>
        <time>2019-04-14T11:07:35Z</time>
      </trkpt>
      <trkpt lat="44.42604" lon="1.31921">
        <ele>282</ele>
        <time>2019-04-14T11:07:36Z</time>
      </trkpt>
      <trkpt lat="44.42609" lon="1.31915">
        <ele>282</ele>
        <time>2019-04-14T11:07:37Z</time>
      </trkpt>
      <trkpt lat="44.42614" lon="1.31909">
        <ele>282</ele>
        <time>2019-04-14T11:07:38Z</time>
      </trkpt>
      <trkpt lat="44.42618" lon="1.31902">
        <ele>281</ele>
        <time>2019-04-14T11:07:39Z</time>
      </trkpt>
      <trkpt lat="44.42622" lon="1.31896">
        <ele>281</ele>
        <time>2019-04-14T11:07:40Z</time>
      </trkpt>
      <trkpt lat="44.42627" lon="1.3189">
        <ele>281</ele>
        <time>2019-04-14T11:07:41Z</time>
      </trkpt>
      <trkpt lat="44.42631" lon="1.31885">
        <ele>281</ele>
        <time>2019-04-14T11:07:42Z</time>
      </trkpt>
      <trkpt lat="44.42636" lon="1.31879">
        <ele>281</ele>
        <time>2019-04-14T11:07:43Z</time>
      </trkpt>
      <trkpt lat="44.4264" lon="1.31874">
        <ele>280</ele>
        <time>2019-04-14T11:07:44Z</time>
      </trkpt>
      <trkpt lat="44.42645" lon="1.3187">
        <ele>280</ele>
        <time>2019-04-14T11:07:45Z</time>
      </trkpt>
      <trkpt lat="44.4265" lon="1.31865">
        <ele>279</ele>
        <time>2019-04-14T11:07:46Z</time>
      </trkpt>
      <trkpt lat="44.42656" lon="1.3186">
        <ele>279</ele>
        <time>2019-04-14T11:07:47Z</time>
      </trkpt>
      <trkpt lat="44.42661" lon="1.31855">
        <ele>278</ele>
        <time>2019-04-14T11:07:48Z</time>
      </trkpt>
      <trkpt lat="44.42667" lon="1.3185">
        <ele>278</ele>
        <time>2019-04-14T11:07:49Z</time>
      </trkpt>
      <trkpt lat="44.42673" lon="1.31845">
        <ele>277</ele>
        <time>2019-04-14T11:07:50Z</time>
      </trkpt>
      <trkpt lat="44.4268" lon="1.31839">
        <ele>277</ele>
        <time>2019-04-14T11:07:51Z</time>
      </trkpt>
      <trkpt lat="44.42687" lon="1.31834">
        <ele>276</ele>
        <time>2019-04-14T11:07:52Z</time>
      </trkpt>
      <trkpt lat="44.42693" lon="1.31829">
        <ele>275</ele>
        <time>2019-04-14T11:07:53Z</time>
      </trkpt>
      <trkpt lat="44.427" lon="1.31822">
        <ele>275</ele>
        <time>2019-04-14T11:07:54Z</time>
      </trkpt>
      <trkpt lat="44.42706" lon="1.31815">
        <ele>274</ele>
        <time>2019-04-14T11:07:55Z</time>
      </trkpt>
      <trkpt lat="44.42713" lon="1.31807">
        <ele>273</ele>
        <time>2019-04-14T11:07:56Z</time>
      </trkpt>
      <trkpt lat="44.42719" lon="1.31799">
        <ele>272</ele>
        <time>2019-04-14T11:07:57Z</time>
      </trkpt>
      <trkpt lat="44.42726" lon="1.31793">
        <ele>272</ele>
        <time>2019-04-14T11:07:58Z</time>
      </trkpt>
      <trkpt lat="44.4273" lon="1.31788">
        <ele>271</ele>
        <time>2019-04-14T11:07:59Z</time>
      </trkpt>
      <trkpt lat="44.42734" lon="1.31784">
        <ele>270</ele>
        <time>2019-04-14T11:08:00Z</time>
      </trkpt>
      <trkpt lat="44.42737" lon="1.31782">
        <ele>270</ele>
        <time>2019-04-14T11:08:01Z</time>
      </trkpt>
      <trkpt lat="44.42739" lon="1.31782">
        <ele>269</ele>
        <time>2019-04-14T11:08:02Z</time>
      </trkpt>
      <trkpt lat="44.42741" lon="1.31783">
        <ele>269</ele>
        <time>2019-04-14T11:08:03Z</time>
      </trkpt>
      <trkpt lat="44.42742" lon="1.31785">
        <ele>269</ele>
        <time>2019-04-14T11:08:04Z</time>
      </trkpt>
      <trkpt lat="44.42741" lon="1.31788">
        <ele>269</ele>
        <time>2019-04-14T11:08:05Z</time>
      </trkpt>
      <trkpt lat="44.4274" lon="1.31791">
        <ele>269</ele>
        <time>2019-04-14T11:08:06Z</time>
      </trkpt>
      <trkpt lat="44.42739" lon="1.31794">
        <ele>269</ele>
        <time>2019-04-14T11:08:07Z</time>
      </trkpt>
      <trkpt lat="44.42737" lon="1.31798">
        <ele>269</ele>
        <time>2019-04-14T11:08:08Z</time>
      </trkpt>
      <trkpt lat="44.42736" lon="1.31802">
        <ele>269</ele>
        <time>2019-04-14T11:08:09Z</time>
      </trkpt>
      <trkpt lat="44.42735" lon="1.31807">
        <ele>269</ele>
        <time>2019-04-14T11:08:10Z</time>
      </trkpt>
      <trkpt lat="44.42733" lon="1.31811">
        <ele>269</ele>
        <time>2019-04-14T11:08:11Z</time>
      </trkpt>
      <trkpt lat="44.42732" lon="1.31816">
        <ele>269</ele>
        <time>2019-04-14T11:08:12Z</time>
      </trkpt>
      <trkpt lat="44.42731" lon="1.3182">
        <ele>269</ele>
        <time>2019-04-14T11:08:13Z</time>
      </trkpt>
      <trkpt lat="44.4273" lon="1.31825">
        <ele>269</ele>
        <time>2019-04-14T11:08:14Z</time>
      </trkpt>
      <trkpt lat="44.42729" lon="1.31829">
        <ele>269</ele>
        <time>2019-04-14T11:08:15Z</time>
      </trkpt>
      <trkpt lat="44.42727" lon="1.31834">
        <ele>270</ele>
        <time>2019-04-14T11:08:16Z</time>
      </trkpt>
      <trkpt lat="44.42727" lon="1.31838">
        <ele>270</ele>
        <time>2019-04-14T11:08:17Z</time>
      </trkpt>
      <trkpt lat="44.42726" lon="1.31843">
        <ele>270</ele>
        <time>2019-04-14T11:08:18Z</time>
      </trkpt>
      <trkpt lat="44.42725" lon="1.31847">
        <ele>270</ele>
        <time>2019-04-14T11:08:19Z</time>
      </trkpt>
      <trkpt lat="44.42724" lon="1.31852">
        <ele>270</ele>
        <time>2019-04-14T11:08:20Z</time>
      </trkpt>
      <trkpt lat="44.42724" lon="1.31857">
        <ele>270</ele>
        <time>2019-04-14T11:08:21Z</time>
      </trkpt>
      <trkpt lat="44.42723" lon="1.31861">
        <ele>270</ele>
        <time>2019-04-14T11:08:22Z</time>
      </trkpt>
      <trkpt lat="44.42723" lon="1.31866">
        <ele>270</ele>
        <time>2019-04-14T11:08:23Z</time>
      </trkpt>
      <trkpt lat="44.42723" lon="1.31871">
        <ele>270</ele>
        <time>2019-04-14T11:08:24Z</time>
      </trkpt>
      <trkpt lat="44.42723" lon="1.31875">
        <ele>271</ele>
        <time>2019-04-14T11:08:25Z</time>
      </trkpt>
      <trkpt lat="44.42724" lon="1.3188">
        <ele>271</ele>
        <time>2019-04-14T11:08:26Z</time>
      </trkpt>
      <trkpt lat="44.42724" lon="1.31884">
        <ele>271</ele>
        <time>2019-04-14T11:08:27Z</time>
      </trkpt>
      <trkpt lat="44.42724" lon="1.31889">
        <ele>271</ele>
        <time>2019-04-14T11:08:28Z</time>
      </trkpt>
      <trkpt lat="44.42724" lon="1.31894">
        <ele>271</ele>
        <time>2019-04-14T11:08:29Z</time>
      </trkpt>
      <trkpt lat="44.42724" lon="1.31898">
        <ele>271</ele>
        <time>2019-04-14T11:08:30Z</time>
      </trkpt>
      <trkpt lat="44.42724" lon="1.31903">
        <ele>271</ele>
        <time>2019-04-14T11:08:31Z</time>
      </trkpt>
      <trkpt lat="44.42724" lon="1.31908">
        <ele>272</ele>
        <time>2019-04-14T11:08:32Z</time>
      </trkpt>
      <trkpt lat="44.42725" lon="1.31912">
        <ele>272</ele>
        <time>2019-04-14T11:08:33Z</time>
      </trkpt>
      <trkpt lat="44.42725" lon="1.31917">
        <ele>272</ele>
        <time>2019-04-14T11:08:34Z</time>
      </trkpt>
      <trkpt lat="44.42725" lon="1.31921">
        <ele>272</ele>
        <time>2019-04-14T11:08:35Z</time>
      </trkpt>
      <trkpt lat="44.42725" lon="1.31925">
        <ele>272</ele>
        <time>2019-04-14T11:08:36Z</time>
      </trkpt>
      <trkpt lat="44.42726" lon="1.3193">
        <ele>273</ele>
        <time>2019-04-14T11:08:37Z</time>
      </trkpt>
      <trkpt lat="44.42726" lon="1.31934">
        <ele>273</ele>
        <time>2019-04-14T11:08:38Z</time>
      </trkpt>
      <trkpt lat="44.42726" lon="1.31938">
        <ele>273</ele>
        <time>2019-04-14T11:08:39Z</time>
      </trkpt>
      <trkpt lat="44.42726" lon="1.31942">
        <ele>273</ele>
        <time>2019-04-14T11:08:40Z</time>
      </trkpt>
      <trkpt lat="44.42727" lon="1.31947">
        <ele>274</ele>
        <time>2019-04-14T11:08:41Z</time>
      </trkpt>
      <trkpt lat="44.42727" lon="1.31951">
        <ele>274</ele>
        <time>2019-04-14T11:08:42Z</time>
      </trkpt>
      <trkpt lat="44.42727" lon="1.31956">
        <ele>274</ele>
        <time>2019-04-14T11:08:43Z</time>
      </trkpt>
      <trkpt lat="44.42727" lon="1.3196">
        <ele>274</ele>
        <time>2019-04-14T11:08:44Z</time>
      </trkpt>
      <trkpt lat="44.42727" lon="1.31965">
        <ele>275</ele>
        <time>2019-04-14T11:08:45Z</time>
      </trkpt>
      <trkpt lat="44.42727" lon="1.31969">
        <ele>275</ele>
        <time>2019-04-14T11:08:46Z</time>
      </trkpt>
      <trkpt lat="44.42727" lon="1.31974">
        <ele>275</ele>
        <time>2019-04-14T11:08:47Z</time>
      </trkpt>
      <trkpt lat="44.42728" lon="1.31978">
        <ele>275</ele>
        <time>2019-04-14T11:08:48Z</time>
      </trkpt>
      <trkpt lat="44.42728" lon="1.31983">
        <ele>275</ele>
        <time>2019-04-14T11:08:49Z</time>
      </trkpt>
      <trkpt lat="44.42728" lon="1.31987">
        <ele>276</ele>
        <time>2019-04-14T11:08:50Z</time>
      </trkpt>
      <trkpt lat="44.42728" lon="1.31992">
        <ele>276</ele>
        <time>2019-04-14T11:08:51Z</time>
      </trkpt>
      <trkpt lat="44.42727" lon="1.31996">
        <ele>276</ele>
        <time>2019-04-14T11:08:52Z</time>
      </trkpt>
      <trkpt lat="44.42727" lon="1.32">
        <ele>276</ele>
        <time>2019-04-14T11:08:53Z</time>
      </trkpt>
      <trkpt lat="44.42727" lon="1.32005">
        <ele>276</ele>
        <time>2019-04-14T11:08:54Z</time>
      </trkpt>
      <trkpt lat="44.42726" lon="1.32009">
        <ele>277</ele>
        <time>2019-04-14T11:08:55Z</time>
      </trkpt>
      <trkpt lat="44.42725" lon="1.32014">
        <ele>277</ele>
        <time>2019-04-14T11:08:56Z</time>
      </trkpt>
      <trkpt lat="44.42725" lon="1.32018">
        <ele>277</ele>
        <time>2019-04-14T11:08:57Z</time>
      </trkpt>
      <trkpt lat="44.42725" lon="1.32022">
        <ele>277</ele>
        <time>2019-04-14T11:08:58Z</time>
      </trkpt>
      <trkpt lat="44.42725" lon="1.32026">
        <ele>278</ele>
        <time>2019-04-14T11:08:59Z</time>
      </trkpt>
      <trkpt lat="44.42725" lon="1.32029">
        <ele>278</ele>
        <time>2019-04-14T11:09:00Z</time>
      </trkpt>
      <trkpt lat="44.42726" lon="1.32033">
        <ele>278</ele>
        <time>2019-04-14T11:09:01Z</time>
      </trkpt>
      <trkpt lat="44.42728" lon="1.32036">
        <ele>278</ele>
        <time>2019-04-14T11:09:02Z</time>
      </trkpt>
      <trkpt lat="44.42731" lon="1.32038">
        <ele>277</ele>
        <time>2019-04-14T11:09:03Z</time>
      </trkpt>
      <trkpt lat="44.42733" lon="1.32041">
        <ele>277</ele>
        <time>2019-04-14T11:09:04Z</time>
      </trkpt>
      <trkpt lat="44.42735" lon="1.32043">
        <ele>277</ele>
        <time>2019-04-14T11:09:05Z</time>
      </trkpt>
      <trkpt lat="44.42737" lon="1.32046">
        <ele>277</ele>
        <time>2019-04-14T11:09:06Z</time>
      </trkpt>
      <trkpt lat="44.4274" lon="1.32048">
        <ele>276</ele>
        <time>2019-04-14T11:09:07Z</time>
      </trkpt>
      <trkpt lat="44.42744" lon="1.3205">
        <ele>276</ele>
        <time>2019-04-14T11:09:08Z</time>
      </trkpt>
      <trkpt lat="44.42746" lon="1.32052">
        <ele>276</ele>
        <time>2019-04-14T11:09:09Z</time>
      </trkpt>
      <trkpt lat="44.42748" lon="1.32054">
        <ele>275</ele>
        <time>2019-04-14T11:09:10Z</time>
      </trkpt>
      <trkpt lat="44.42748" lon="1.32058">
        <ele>275</ele>
        <time>2019-04-14T11:09:11Z</time>
      </trkpt>
      <trkpt lat="44.42748" lon="1.32062">
        <ele>275</ele>
        <time>2019-04-14T11:09:12Z</time>
      </trkpt>
      <trkpt lat="44.42747" lon="1.32068">
        <ele>275</ele>
        <time>2019-04-14T11:09:13Z</time>
      </trkpt>
      <trkpt lat="44.42748" lon="1.32075">
        <ele>274</ele>
        <time>2019-04-14T11:09:14Z</time>
      </trkpt>
      <trkpt lat="44.42748" lon="1.32081">
        <ele>274</ele>
        <time>2019-04-14T11:09:15Z</time>
      </trkpt>
      <trkpt lat="44.42746" lon="1.32086">
        <ele>273</ele>
        <time>2019-04-14T11:09:16Z</time>
      </trkpt>
      <trkpt lat="44.42743" lon="1.3209">
        <ele>273</ele>
        <time>2019-04-14T11:09:17Z</time>
      </trkpt>
      <trkpt lat="44.42739" lon="1.32093">
        <ele>273</ele>
        <time>2019-04-14T11:09:18Z</time>
      </trkpt>
      <trkpt lat="44.42735" lon="1.32097">
        <ele>273</ele>
        <time>2019-04-14T11:09:19Z</time>
      </trkpt>
      <trkpt lat="44.42732" lon="1.32102">
        <ele>272</ele>
        <time>2019-04-14T11:09:20Z</time>
      </trkpt>
      <trkpt lat="44.42729" lon="1.32108">
        <ele>272</ele>
        <time>2019-04-14T11:09:21Z</time>
      </trkpt>
      <trkpt lat="44.42727" lon="1.32114">
        <ele>271</ele>
        <time>2019-04-14T11:09:22Z</time>
      </trkpt>
      <trkpt lat="44.42723" lon="1.32121">
        <ele>271</ele>
        <time>2019-04-14T11:09:23Z</time>
      </trkpt>
      <trkpt lat="44.42721" lon="1.32126">
        <ele>270</ele>
        <time>2019-04-14T11:09:24Z</time>
      </trkpt>
      <trkpt lat="44.42717" lon="1.3213">
        <ele>270</ele>
        <time>2019-04-14T11:09:25Z</time>
      </trkpt>
      <trkpt lat="44.42714" lon="1.32135">
        <ele>269</ele>
        <time>2019-04-14T11:09:26Z</time>
      </trkpt>
      <trkpt lat="44.42712" lon="1.32142">
        <ele>269</ele>
        <time>2019-04-14T11:09:27Z</time>
      </trkpt>
      <trkpt lat="44.4271" lon="1.32149">
        <ele>268</ele>
        <time>2019-04-14T11:09:28Z</time>
      </trkpt>
      <trkpt lat="44.42708" lon="1.32155">
        <ele>268</ele>
        <time>2019-04-14T11:09:29Z</time>
      </trkpt>
      <trkpt lat="44.42708" lon="1.32162">
        <ele>268</ele>
        <time>2019-04-14T11:09:30Z</time>
      </trkpt>
      <trkpt lat="44.42708" lon="1.32169">
        <ele>267</ele>
        <time>2019-04-14T11:09:31Z</time>
      </trkpt>
      <trkpt lat="44.42708" lon="1.32176">
        <ele>267</ele>
        <time>2019-04-14T11:09:32Z</time>
      </trkpt>
      <trkpt lat="44.42707" lon="1.32184">
        <ele>267</ele>
        <time>2019-04-14T11:09:33Z</time>
      </trkpt>
      <trkpt lat="44.42707" lon="1.32191">
        <ele>267</ele>
        <time>2019-04-14T11:09:34Z</time>
      </trkpt>
      <trkpt lat="44.42706" lon="1.32198">
        <ele>266</ele>
        <time>2019-04-14T11:09:35Z</time>
      </trkpt>
      <trkpt lat="44.42705" lon="1.32206">
        <ele>266</ele>
        <time>2019-04-14T11:09:36Z</time>
      </trkpt>
      <trkpt lat="44.42703" lon="1.32213">
        <ele>265</ele>
        <time>2019-04-14T11:09:37Z</time>
      </trkpt>
      <trkpt lat="44.42702" lon="1.32219">
        <ele>265</ele>
        <time>2019-04-14T11:09:38Z</time>
      </trkpt>
      <trkpt lat="44.42701" lon="1.32225">
        <ele>265</ele>
        <time>2019-04-14T11:09:39Z</time>
      </trkpt>
      <trkpt lat="44.42701" lon="1.32229">
        <ele>265</ele>
        <time>2019-04-14T11:09:40Z</time>
      </trkpt>
      <trkpt lat="44.42702" lon="1.32232">
        <ele>265</ele>
        <time>2019-04-14T11:09:41Z</time>
      </trkpt>
      <trkpt lat="44.42702" lon="1.32232">
        <ele>265</ele>
        <time>2019-04-14T11:09:42Z</time>
      </trkpt>
      <trkpt lat="44.42703" lon="1.32232">
        <ele>265</ele>
        <time>2019-04-14T11:09:43Z</time>
      </trkpt>
      <trkpt lat="44.42703" lon="1.32232">
        <ele>264</ele>
        <time>2019-04-14T11:09:44Z</time>
      </trkpt>
      <trkpt lat="44.42703" lon="1.32232">
        <ele>264</ele>
        <time>2019-04-14T11:09:45Z</time>
      </trkpt>
      <trkpt lat="44.42703" lon="1.32232">
        <ele>264</ele>
        <time>2019-04-14T11:09:46Z</time>
      </trkpt>
      <trkpt lat="44.42703" lon="1.32232">
        <ele>264</ele>
        <time>2019-04-14T11:09:47Z</time>
      </trkpt>
      <trkpt lat="44.42704" lon="1.32232">
        <ele>264</ele>
        <time>2019-04-14T11:09:48Z</time>
      </trkpt>
      <trkpt lat="44.42705" lon="1.32233">
        <ele>264</ele>
        <time>2019-04-14T11:09:49Z</time>
      </trkpt>
      <trkpt lat="44.42721" lon="1.32252">
        <ele>264</ele>
        <time>2019-04-14T11:10:26Z</time>
      </trkpt>
      <trkpt lat="44.42722" lon="1.32253">
        <ele>264</ele>
        <time>2019-04-14T11:10:27Z</time>
      </trkpt>
      <trkpt lat="44.42724" lon="1.32255">
        <ele>264</ele>
        <time>2019-04-14T11:10:28Z</time>
      </trkpt>
      <trkpt lat="44.42725" lon="1.32257">
        <ele>264</ele>
        <time>2019-04-14T11:10:29Z</time>
      </trkpt>
      <trkpt lat="44.42726" lon="1.3226">
        <ele>264</ele>
        <time>2019-04-14T11:10:30Z</time>
      </trkpt>
      <trkpt lat="44.42726" lon="1.32262">
        <ele>265</ele>
        <time>2019-04-14T11:10:31Z</time>
      </trkpt>
      <trkpt lat="44.42727" lon="1.32265">
        <ele>265</ele>
        <time>2019-04-14T11:10:32Z</time>
      </trkpt>
      <trkpt lat="44.42727" lon="1.32267">
        <ele>265</ele>
        <time>2019-04-14T11:10:33Z</time>
      </trkpt>
      <trkpt lat="44.42728" lon="1.32269">
        <ele>265</ele>
        <time>2019-04-14T11:10:34Z</time>
      </trkpt>
      <trkpt lat="44.42728" lon="1.32271">
        <ele>266</ele>
        <time>2019-04-14T11:10:35Z</time>
      </trkpt>
      <trkpt lat="44.42729" lon="1.32274">
        <ele>266</ele>
        <time>2019-04-14T11:10:36Z</time>
      </trkpt>
      <trkpt lat="44.4273" lon="1.32276">
        <ele>266</ele>
        <time>2019-04-14T11:10:37Z</time>
      </trkpt>
      <trkpt lat="44.42729" lon="1.32278">
        <ele>266</ele>
        <time>2019-04-14T11:10:38Z</time>
      </trkpt>
      <trkpt lat="44.42729" lon="1.3228">
        <ele>267</ele>
        <time>2019-04-14T11:10:39Z</time>
      </trkpt>
      <trkpt lat="44.42729" lon="1.32283">
        <ele>267</ele>
        <time>2019-04-14T11:10:40Z</time>
      </trkpt>
      <trkpt lat="44.42729" lon="1.32285">
        <ele>267</ele>
        <time>2019-04-14T11:10:41Z</time>
      </trkpt>
      <trkpt lat="44.42728" lon="1.32287">
        <ele>267</ele>
        <time>2019-04-14T11:10:42Z</time>
      </trkpt>
      <trkpt lat="44.42728" lon="1.32289">
        <ele>268</ele>
        <time>2019-04-14T11:10:43Z</time>
      </trkpt>
      <trkpt lat="44.42728" lon="1.32291">
        <ele>268</ele>
        <time>2019-04-14T11:10:44Z</time>
      </trkpt>
      <trkpt lat="44.42727" lon="1.32293">
        <ele>268</ele>
        <time>2019-04-14T11:10:45Z</time>
      </trkpt>
      <trkpt lat="44.42728" lon="1.32295">
        <ele>268</ele>
        <time>2019-04-14T11:10:46Z</time>
      </trkpt>
      <trkpt lat="44.42728" lon="1.32298">
        <ele>268</ele>
        <time>2019-04-14T11:10:47Z</time>
      </trkpt>
      <trkpt lat="44.42728" lon="1.323">
        <ele>268</ele>
        <time>2019-04-14T11:10:48Z</time>
      </trkpt>
      <trkpt lat="44.42727" lon="1.32302">
        <ele>268</ele>
        <time>2019-04-14T11:10:49Z</time>
      </trkpt>
      <trkpt lat="44.42726" lon="1.32303">
        <ele>269</ele>
        <time>2019-04-14T11:10:50Z</time>
      </trkpt>
      <trkpt lat="44.42726" lon="1.32304">
        <ele>269</ele>
        <time>2019-04-14T11:10:51Z</time>
      </trkpt>
      <trkpt lat="44.42725" lon="1.32306">
        <ele>269</ele>
        <time>2019-04-14T11:10:52Z</time>
      </trkpt>
      <trkpt lat="44.42725" lon="1.32308">
        <ele>269</ele>
        <time>2019-04-14T11:10:53Z</time>
      </trkpt>
      <trkpt lat="44.42725" lon="1.3231">
        <ele>270</ele>
        <time>2019-04-14T11:10:54Z</time>
      </trkpt>
      <trkpt lat="44.42724" lon="1.32312">
        <ele>270</ele>
        <time>2019-04-14T11:10:55Z</time>
      </trkpt>
      <trkpt lat="44.42724" lon="1.32316">
        <ele>270</ele>
        <time>2019-04-14T11:10:56Z</time>
      </trkpt>
      <trkpt lat="44.42724" lon="1.32318">
        <ele>270</ele>
        <time>2019-04-14T11:10:57Z</time>
      </trkpt>
      <trkpt lat="44.42723" lon="1.32321">
        <ele>270</ele>
        <time>2019-04-14T11:10:58Z</time>
      </trkpt>
      <trkpt lat="44.42723" lon="1.32323">
        <ele>270</ele>
        <time>2019-04-14T11:10:59Z</time>
      </trkpt>
      <trkpt lat="44.42722" lon="1.32325">
        <ele>270</ele>
        <time>2019-04-14T11:11:00Z</time>
      </trkpt>
      <trkpt lat="44.42721" lon="1.32326">
        <ele>270</ele>
        <time>2019-04-14T11:11:01Z</time>
      </trkpt>
      <trkpt lat="44.42721" lon="1.32327">
        <ele>271</ele>
        <time>2019-04-14T11:11:02Z</time>
      </trkpt>
      <trkpt lat="44.42719" lon="1.32328">
        <ele>271</ele>
        <time>2019-04-14T11:11:03Z</time>
      </trkpt>
      <trkpt lat="44.42718" lon="1.32329">
        <ele>271</ele>
        <time>2019-04-14T11:11:04Z</time>
      </trkpt>
      <trkpt lat="44.42718" lon="1.3233">
        <ele>272</ele>
        <time>2019-04-14T11:11:05Z</time>
      </trkpt>
      <trkpt lat="44.42717" lon="1.32332">
        <ele>272</ele>
        <time>2019-04-14T11:11:06Z</time>
      </trkpt>
      <trkpt lat="44.42716" lon="1.32333">
        <ele>272</ele>
        <time>2019-04-14T11:11:07Z</time>
      </trkpt>
      <trkpt lat="44.42716" lon="1.32335">
        <ele>272</ele>
        <time>2019-04-14T11:11:08Z</time>
      </trkpt>
      <trkpt lat="44.42715" lon="1.32337">
        <ele>272</ele>
        <time>2019-04-14T11:11:09Z</time>
      </trkpt>
      <trkpt lat="44.42715" lon="1.32339">
        <ele>273</ele>
        <time>2019-04-14T11:11:10Z</time>
      </trkpt>
      <trkpt lat="44.42714" lon="1.32341">
        <ele>273</ele>
        <time>2019-04-14T11:11:11Z</time>
      </trkpt>
      <trkpt lat="44.42714" lon="1.32343">
        <ele>273</ele>
        <time>2019-04-14T11:11:12Z</time>
      </trkpt>
      <trkpt lat="44.42713" lon="1.32345">
        <ele>273</ele>
        <time>2019-04-14T11:11:13Z</time>
      </trkpt>
      <trkpt lat="44.42712" lon="1.32347">
        <ele>273</ele>
        <time>2019-04-14T11:11:14Z</time>
      </trkpt>
      <trkpt lat="44.42712" lon="1.32348">
        <ele>273</ele>
        <time>2019-04-14T11:11:15Z</time>
      </trkpt>
      <trkpt lat="44.42711" lon="1.3235">
        <ele>273</ele>
        <time>2019-04-14T11:11:16Z</time>
      </trkpt>
      <trkpt lat="44.42711" lon="1.32352">
        <ele>274</ele>
        <time>2019-04-14T11:11:17Z</time>
      </trkpt>
      <trkpt lat="44.4271" lon="1.32354">
        <ele>274</ele>
        <time>2019-04-14T11:11:18Z</time>
      </trkpt>
      <trkpt lat="44.42711" lon="1.32356">
        <ele>274</ele>
        <time>2019-04-14T11:11:19Z</time>
      </trkpt>
      <trkpt lat="44.42711" lon="1.32359">
        <ele>274</ele>
        <time>2019-04-14T11:11:20Z</time>
      </trkpt>
      <trkpt lat="44.42711" lon="1.32361">
        <ele>274</ele>
        <time>2019-04-14T11:11:21Z</time>
      </trkpt>
      <trkpt lat="44.42712" lon="1.32364">
        <ele>274</ele>
        <time>2019-04-14T11:11:22Z</time>
      </trkpt>
      <trkpt lat="44.42712" lon="1.32366">
        <ele>274</ele>
        <time>2019-04-14T11:11:23Z</time>
      </trkpt>
      <trkpt lat="44.42713" lon="1.32368">
        <ele>273</ele>
        <time>2019-04-14T11:11:24Z</time>
      </trkpt>
      <trkpt lat="44.42715" lon="1.32371">
        <ele>273</ele>
        <time>2019-04-14T11:11:25Z</time>
      </trkpt>
      <trkpt lat="44.42717" lon="1.32374">
        <ele>273</ele>
        <time>2019-04-14T11:11:26Z</time>
      </trkpt>
      <trkpt lat="44.42719" lon="1.32377">
        <ele>272</ele>
        <time>2019-04-14T11:11:27Z</time>
      </trkpt>
      <trkpt lat="44.42721" lon="1.32379">
        <ele>272</ele>
        <time>2019-04-14T11:11:28Z</time>
      </trkpt>
      <trkpt lat="44.42723" lon="1.32381">
        <ele>271</ele>
        <time>2019-04-14T11:11:29Z</time>
      </trkpt>
      <trkpt lat="44.42724" lon="1.32382">
        <ele>271</ele>
        <time>2019-04-14T11:11:30Z</time>
      </trkpt>
      <trkpt lat="44.42726" lon="1.32384">
        <ele>271</ele>
        <time>2019-04-14T11:11:31Z</time>
      </trkpt>
      <trkpt lat="44.42728" lon="1.32385">
        <ele>270</ele>
        <time>2019-04-14T11:11:32Z</time>
      </trkpt>
      <trkpt lat="44.4273" lon="1.32387">
        <ele>270</ele>
        <time>2019-04-14T11:11:33Z</time>
      </trkpt>
      <trkpt lat="44.42732" lon="1.32387">
        <ele>269</ele>
        <time>2019-04-14T11:11:34Z</time>
      </trkpt>
      <trkpt lat="44.42733" lon="1.32387">
        <ele>269</ele>
        <time>2019-04-14T11:11:35Z</time>
      </trkpt>
      <trkpt lat="44.42734" lon="1.32388">
        <ele>269</ele>
        <time>2019-04-14T11:11:36Z</time>
      </trkpt>
      <trkpt lat="44.42735" lon="1.32388">
        <ele>269</ele>
        <time>2019-04-14T11:11:37Z</time>
      </trkpt>
      <trkpt lat="44.42737" lon="1.32389">
        <ele>268</ele>
        <time>2019-04-14T11:11:38Z</time>
      </trkpt>
      <trkpt lat="44.42738" lon="1.3239">
        <ele>268</ele>
        <time>2019-04-14T11:11:39Z</time>
      </trkpt>
      <trkpt lat="44.4274" lon="1.32391">
        <ele>268</ele>
        <time>2019-04-14T11:11:40Z</time>
      </trkpt>
      <trkpt lat="44.42741" lon="1.32392">
        <ele>268</ele>
        <time>2019-04-14T11:11:41Z</time>
      </trkpt>
      <trkpt lat="44.42742" lon="1.32393">
        <ele>268</ele>
        <time>2019-04-14T11:11:42Z</time>
      </trkpt>
      <trkpt lat="44.42743" lon="1.32395">
        <ele>268</ele>
        <time>2019-04-14T11:11:43Z</time>
      </trkpt>
      <trkpt lat="44.42744" lon="1.32396">
        <ele>269</ele>
        <time>2019-04-14T11:11:44Z</time>
      </trkpt>
      <trkpt lat="44.42745" lon="1.32397">
        <ele>269</ele>
        <time>2019-04-14T11:11:45Z</time>
      </trkpt>
      <trkpt lat="44.42745" lon="1.32397">
        <ele>269</ele>
        <time>2019-04-14T11:11:46Z</time>
      </trkpt>
      <trkpt lat="44.42745" lon="1.32398">
        <ele>269</ele>
        <time>2019-04-14T11:11:47Z</time>
      </trkpt>
      <trkpt lat="44.42746" lon="1.32399">
        <ele>270</ele>
        <time>2019-04-14T11:11:48Z</time>
      </trkpt>
      <trkpt lat="44.42748" lon="1.324">
        <ele>270</ele>
        <time>2019-04-14T11:11:49Z</time>
      </trkpt>
      <trkpt lat="44.42749" lon="1.32401">
        <ele>270</ele>
        <time>2019-04-14T11:11:50Z</time>
      </trkpt>
      <trkpt lat="44.4275" lon="1.32401">
        <ele>270</ele>
        <time>2019-04-14T11:11:51Z</time>
      </trkpt>
      <trkpt lat="44.42752" lon="1.32402">
        <ele>270</ele>
        <time>2019-04-14T11:11:52Z</time>
      </trkpt>
      <trkpt lat="44.42754" lon="1.32401">
        <ele>270</ele>
        <time>2019-04-14T11:11:53Z</time>
      </trkpt>
      <trkpt lat="44.42757" lon="1.32401">
        <ele>270</ele>
        <time>2019-04-14T11:11:54Z</time>
      </trkpt>
      <trkpt lat="44.42759" lon="1.32401">
        <ele>269</ele>
        <time>2019-04-14T11:11:55Z</time>
      </trkpt>
      <trkpt lat="44.42761" lon="1.32399">
        <ele>269</ele>
        <time>2019-04-14T11:11:56Z</time>
      </trkpt>
      <trkpt lat="44.42764" lon="1.32398">
        <ele>269</ele>
        <time>2019-04-14T11:11:57Z</time>
      </trkpt>
      <trkpt lat="44.42766" lon="1.32396">
        <ele>268</ele>
        <time>2019-04-14T11:11:58Z</time>
      </trkpt>
      <trkpt lat="44.42768" lon="1.32394">
        <ele>268</ele>
        <time>2019-04-14T11:11:59Z</time>
      </trkpt>
      <trkpt lat="44.4277" lon="1.32391">
        <ele>267</ele>
        <time>2019-04-14T11:12:00Z</time>
      </trkpt>
      <trkpt lat="44.42772" lon="1.32388">
        <ele>267</ele>
        <time>2019-04-14T11:12:01Z</time>
      </trkpt>
      <trkpt lat="44.42774" lon="1.32386">
        <ele>266</ele>
        <time>2019-04-14T11:12:02Z</time>
      </trkpt>
      <trkpt lat="44.42775" lon="1.32384">
        <ele>266</ele>
        <time>2019-04-14T11:12:03Z</time>
      </trkpt>
      <trkpt lat="44.42778" lon="1.32383">
        <ele>265</ele>
        <time>2019-04-14T11:12:04Z</time>
      </trkpt>
      <trkpt lat="44.42779" lon="1.32383">
        <ele>265</ele>
        <time>2019-04-14T11:12:05Z</time>
      </trkpt>
      <trkpt lat="44.4278" lon="1.32383">
        <ele>265</ele>
        <time>2019-04-14T11:12:06Z</time>
      </trkpt>
      <trkpt lat="44.42781" lon="1.32383">
        <ele>266</ele>
        <time>2019-04-14T11:12:07Z</time>
      </trkpt>
      <trkpt lat="44.42783" lon="1.32382">
        <ele>266</ele>
        <time>2019-04-14T11:12:08Z</time>
      </trkpt>
      <trkpt lat="44.42784" lon="1.32381">
        <ele>266</ele>
        <time>2019-04-14T11:12:09Z</time>
      </trkpt>
      <trkpt lat="44.42785" lon="1.32381">
        <ele>266</ele>
        <time>2019-04-14T11:12:10Z</time>
      </trkpt>
      <trkpt lat="44.42785" lon="1.32379">
        <ele>266</ele>
        <time>2019-04-14T11:12:11Z</time>
      </trkpt>
      <trkpt lat="44.42786" lon="1.32379">
        <ele>266</ele>
        <time>2019-04-14T11:12:12Z</time>
      </trkpt>
      <trkpt lat="44.42787" lon="1.32379">
        <ele>266</ele>
        <time>2019-04-14T11:12:13Z</time>
      </trkpt>
      <trkpt lat="44.42789" lon="1.32379">
        <ele>266</ele>
        <time>2019-04-14T11:12:14Z</time>
      </trkpt>
      <trkpt lat="44.42791" lon="1.32379">
        <ele>267</ele>
        <time>2019-04-14T11:12:15Z</time>
      </trkpt>
      <trkpt lat="44.42792" lon="1.32379">
        <ele>267</ele>
        <time>2019-04-14T11:12:16Z</time>
      </trkpt>
      <trkpt lat="44.42794" lon="1.32379">
        <ele>267</ele>
        <time>2019-04-14T11:12:17Z</time>
      </trkpt>
      <trkpt lat="44.42796" lon="1.32379">
        <ele>267</ele>
        <time>2019-04-14T11:12:18Z</time>
      </trkpt>
      <trkpt lat="44.42797" lon="1.32379">
        <ele>267</ele>
        <time>2019-04-14T11:12:19Z</time>
      </trkpt>
      <trkpt lat="44.42799" lon="1.32378">
        <ele>268</ele>
        <time>2019-04-14T11:12:20Z</time>
      </trkpt>
      <trkpt lat="44.428" lon="1.32377">
        <ele>268</ele>
        <time>2019-04-14T11:12:21Z</time>
      </trkpt>
      <trkpt lat="44.42802" lon="1.32376">
        <ele>267</ele>
        <time>2019-04-14T11:12:22Z</time>
      </trkpt>
      <trkpt lat="44.42804" lon="1.32374">
        <ele>267</ele>
        <time>2019-04-14T11:12:23Z</time>
      </trkpt>
      <trkpt lat="44.42806" lon="1.32373">
        <ele>267</ele>
        <time>2019-04-14T11:12:24Z</time>
      </trkpt>
      <trkpt lat="44.42809" lon="1.32372">
        <ele>267</ele>
        <time>2019-04-14T11:12:25Z</time>
      </trkpt>
      <trkpt lat="44.42811" lon="1.32372">
        <ele>267</ele>
        <time>2019-04-14T11:12:26Z</time>
      </trkpt>
      <trkpt lat="44.42813" lon="1.32371">
        <ele>267</ele>
        <time>2019-04-14T11:12:27Z</time>
      </trkpt>
      <trkpt lat="44.42815" lon="1.3237">
        <ele>267</ele>
        <time>2019-04-14T11:12:28Z</time>
      </trkpt>
      <trkpt lat="44.42817" lon="1.32369">
        <ele>267</ele>
        <time>2019-04-14T11:12:29Z</time>
      </trkpt>
      <trkpt lat="44.42819" lon="1.32368">
        <ele>267</ele>
        <time>2019-04-14T11:12:30Z</time>
      </trkpt>
      <trkpt lat="44.42821" lon="1.32368">
        <ele>267</ele>
        <time>2019-04-14T11:12:31Z</time>
      </trkpt>
      <trkpt lat="44.42823" lon="1.32368">
        <ele>267</ele>
        <time>2019-04-14T11:12:32Z</time>
      </trkpt>
      <trkpt lat="44.42825" lon="1.32368">
        <ele>267</ele>
        <time>2019-04-14T11:12:33Z</time>
      </trkpt>
      <trkpt lat="44.42827" lon="1.32368">
        <ele>268</ele>
        <time>2019-04-14T11:12:34Z</time>
      </trkpt>
      <trkpt lat="44.42828" lon="1.32368">
        <ele>268</ele>
        <time>2019-04-14T11:12:35Z</time>
      </trkpt>
      <trkpt lat="44.4283" lon="1.32368">
        <ele>268</ele>
        <time>2019-04-14T11:12:36Z</time>
      </trkpt>
      <trkpt lat="44.42832" lon="1.32368">
        <ele>268</ele>
        <time>2019-04-14T11:12:37Z</time>
      </trkpt>
      <trkpt lat="44.42833" lon="1.32368">
        <ele>268</ele>
        <time>2019-04-14T11:12:38Z</time>
      </trkpt>
      <trkpt lat="44.42834" lon="1.32366">
        <ele>268</ele>
        <time>2019-04-14T11:12:39Z</time>
      </trkpt>
      <trkpt lat="44.42835" lon="1.32365">
        <ele>268</ele>
        <time>2019-04-14T11:12:40Z</time>
      </trkpt>
      <trkpt lat="44.42835" lon="1.32364">
        <ele>268</ele>
        <time>2019-04-14T11:12:41Z</time>
      </trkpt>
      <trkpt lat="44.42838" lon="1.32362">
        <ele>268</ele>
        <time>2019-04-14T11:12:42Z</time>
      </trkpt>
      <trkpt lat="44.42841" lon="1.32361">
        <ele>267</ele>
        <time>2019-04-14T11:12:43Z</time>
      </trkpt>
      <trkpt lat="44.42844" lon="1.3236">
        <ele>267</ele>
        <time>2019-04-14T11:12:44Z</time>
      </trkpt>
      <trkpt lat="44.42848" lon="1.32359">
        <ele>267</ele>
        <time>2019-04-14T11:12:45Z</time>
      </trkpt>
      <trkpt lat="44.42851" lon="1.32358">
        <ele>267</ele>
        <time>2019-04-14T11:12:46Z</time>
      </trkpt>
      <trkpt lat="44.42854" lon="1.32355">
        <ele>267</ele>
        <time>2019-04-14T11:12:47Z</time>
      </trkpt>
      <trkpt lat="44.42855" lon="1.32352">
        <ele>267</ele>
        <time>2019-04-14T11:12:48Z</time>
      </trkpt>
      <trkpt lat="44.42859" lon="1.32351">
        <ele>266</ele>
        <time>2019-04-14T11:12:49Z</time>
      </trkpt>
      <trkpt lat="44.42863" lon="1.32348">
        <ele>266</ele>
        <time>2019-04-14T11:12:50Z</time>
      </trkpt>
      <trkpt lat="44.42867" lon="1.32344">
        <ele>265</ele>
        <time>2019-04-14T11:12:51Z</time>
      </trkpt>
      <trkpt lat="44.42872" lon="1.32341">
        <ele>265</ele>
        <time>2019-04-14T11:12:52Z</time>
      </trkpt>
      <trkpt lat="44.42876" lon="1.32339">
        <ele>264</ele>
        <time>2019-04-14T11:12:53Z</time>
      </trkpt>
      <trkpt lat="44.42881" lon="1.32338">
        <ele>264</ele>
        <time>2019-04-14T11:12:54Z</time>
      </trkpt>
      <trkpt lat="44.42884" lon="1.32339">
        <ele>264</ele>
        <time>2019-04-14T11:12:55Z</time>
      </trkpt>
      <trkpt lat="44.42886" lon="1.3234">
        <ele>264</ele>
        <time>2019-04-14T11:12:56Z</time>
      </trkpt>
      <trkpt lat="44.42887" lon="1.32341">
        <ele>265</ele>
        <time>2019-04-14T11:12:57Z</time>
      </trkpt>
      <trkpt lat="44.42888" lon="1.32341">
        <ele>265</ele>
        <time>2019-04-14T11:12:58Z</time>
      </trkpt>
      <trkpt lat="44.4289" lon="1.32342">
        <ele>265</ele>
        <time>2019-04-14T11:12:59Z</time>
      </trkpt>
      <trkpt lat="44.42891" lon="1.32343">
        <ele>266</ele>
        <time>2019-04-14T11:13:00Z</time>
      </trkpt>
      <trkpt lat="44.42892" lon="1.32342">
        <ele>266</ele>
        <time>2019-04-14T11:13:01Z</time>
      </trkpt>
      <trkpt lat="44.42893" lon="1.32342">
        <ele>266</ele>
        <time>2019-04-14T11:13:02Z</time>
      </trkpt>
      <trkpt lat="44.42895" lon="1.32343">
        <ele>266</ele>
        <time>2019-04-14T11:13:03Z</time>
      </trkpt>
      <trkpt lat="44.42897" lon="1.32344">
        <ele>267</ele>
        <time>2019-04-14T11:13:04Z</time>
      </trkpt>
      <trkpt lat="44.42898" lon="1.32345">
        <ele>267</ele>
        <time>2019-04-14T11:13:05Z</time>
      </trkpt>
      <trkpt lat="44.42899" lon="1.32346">
        <ele>267</ele>
        <time>2019-04-14T11:13:06Z</time>
      </trkpt>
      <trkpt lat="44.429" lon="1.32346">
        <ele>268</ele>
        <time>2019-04-14T11:13:07Z</time>
      </trkpt>
      <trkpt lat="44.42901" lon="1.32347">
        <ele>268</ele>
        <time>2019-04-14T11:13:08Z</time>
      </trkpt>
      <trkpt lat="44.42902" lon="1.32348">
        <ele>268</ele>
        <time>2019-04-14T11:13:09Z</time>
      </trkpt>
      <trkpt lat="44.42903" lon="1.32348">
        <ele>268</ele>
        <time>2019-04-14T11:13:10Z</time>
      </trkpt>
      <trkpt lat="44.42905" lon="1.32348">
        <ele>268</ele>
        <time>2019-04-14T11:13:11Z</time>
      </trkpt>
      <trkpt lat="44.42906" lon="1.32349">
        <ele>268</ele>
        <time>2019-04-14T11:13:12Z</time>
      </trkpt>
      <trkpt lat="44.42908" lon="1.32349">
        <ele>268</ele>
        <time>2019-04-14T11:13:13Z</time>
      </trkpt>
      <trkpt lat="44.4291" lon="1.3235">
        <ele>268</ele>
        <time>2019-04-14T11:13:14Z</time>
      </trkpt>
      <trkpt lat="44.42911" lon="1.32351">
        <ele>268</ele>
        <time>2019-04-14T11:13:15Z</time>
      </trkpt>
      <trkpt lat="44.42911" lon="1.32351">
        <ele>268</ele>
        <time>2019-04-14T11:13:16Z</time>
      </trkpt>
      <trkpt lat="44.42912" lon="1.32351">
        <ele>268</ele>
        <time>2019-04-14T11:13:17Z</time>
      </trkpt>
      <trkpt lat="44.42912" lon="1.32352">
        <ele>268</ele>
        <time>2019-04-14T11:13:18Z</time>
      </trkpt>
      <trkpt lat="44.42913" lon="1.32352">
        <ele>268</ele>
        <time>2019-04-14T11:13:19Z</time>
      </trkpt>
      <trkpt lat="44.42913" lon="1.32352">
        <ele>267</ele>
        <time>2019-04-14T11:13:20Z</time>
      </trkpt>
      <trkpt lat="44.42913" lon="1.32352">
        <ele>268</ele>
        <time>2019-04-14T11:13:21Z</time>
      </trkpt>
      <trkpt lat="44.42943" lon="1.32359">
        <ele>264</ele>
        <time>2019-04-14T11:14:38Z</time>
      </trkpt>
      <trkpt lat="44.42945" lon="1.32361">
        <ele>264</ele>
        <time>2019-04-14T11:14:39Z</time>
      </trkpt>
      <trkpt lat="44.42947" lon="1.32364">
        <ele>264</ele>
        <time>2019-04-14T11:14:40Z</time>
      </trkpt>
      <trkpt lat="44.42948" lon="1.32367">
        <ele>264</ele>
        <time>2019-04-14T11:14:41Z</time>
      </trkpt>
      <trkpt lat="44.4295" lon="1.32369">
        <ele>264</ele>
        <time>2019-04-14T11:14:42Z</time>
      </trkpt>
      <trkpt lat="44.42952" lon="1.32371">
        <ele>264</ele>
        <time>2019-04-14T11:14:43Z</time>
      </trkpt>
      <trkpt lat="44.42954" lon="1.32372">
        <ele>264</ele>
        <time>2019-04-14T11:14:44Z</time>
      </trkpt>
      <trkpt lat="44.42955" lon="1.32374">
        <ele>263</ele>
        <time>2019-04-14T11:14:45Z</time>
      </trkpt>
      <trkpt lat="44.42957" lon="1.32376">
        <ele>263</ele>
        <time>2019-04-14T11:14:46Z</time>
      </trkpt>
      <trkpt lat="44.42957" lon="1.32377">
        <ele>263</ele>
        <time>2019-04-14T11:14:47Z</time>
      </trkpt>
      <trkpt lat="44.42957" lon="1.32378">
        <ele>263</ele>
        <time>2019-04-14T11:14:48Z</time>
      </trkpt>
      <trkpt lat="44.42958" lon="1.32379">
        <ele>263</ele>
        <time>2019-04-14T11:14:49Z</time>
      </trkpt>
      <trkpt lat="44.4296" lon="1.32381">
        <ele>263</ele>
        <time>2019-04-14T11:14:50Z</time>
      </trkpt>
      <trkpt lat="44.4296" lon="1.32382">
        <ele>263</ele>
        <time>2019-04-14T11:14:51Z</time>
      </trkpt>
      <trkpt lat="44.4296" lon="1.32383">
        <ele>263</ele>
        <time>2019-04-14T11:14:52Z</time>
      </trkpt>
      <trkpt lat="44.4296" lon="1.32384">
        <ele>263</ele>
        <time>2019-04-14T11:14:53Z</time>
      </trkpt>
      <trkpt lat="44.4296" lon="1.32385">
        <ele>263</ele>
        <time>2019-04-14T11:14:54Z</time>
      </trkpt>
      <trkpt lat="44.42961" lon="1.32386">
        <ele>263</ele>
        <time>2019-04-14T11:14:55Z</time>
      </trkpt>
      <trkpt lat="44.4296" lon="1.32386">
        <ele>264</ele>
        <time>2019-04-14T11:14:56Z</time>
      </trkpt>
      <trkpt lat="44.4296" lon="1.32387">
        <ele>264</ele>
        <time>2019-04-14T11:14:57Z</time>
      </trkpt>
      <trkpt lat="44.42959" lon="1.32388">
        <ele>264</ele>
        <time>2019-04-14T11:14:58Z</time>
      </trkpt>
      <trkpt lat="44.42959" lon="1.3239">
        <ele>264</ele>
        <time>2019-04-14T11:14:59Z</time>
      </trkpt>
      <trkpt lat="44.4296" lon="1.32391">
        <ele>264</ele>
        <time>2019-04-14T11:15:00Z</time>
      </trkpt>
      <trkpt lat="44.4296" lon="1.32392">
        <ele>264</ele>
        <time>2019-04-14T11:15:01Z</time>
      </trkpt>
      <trkpt lat="44.4296" lon="1.32394">
        <ele>264</ele>
        <time>2019-04-14T11:15:02Z</time>
      </trkpt>
      <trkpt lat="44.4296" lon="1.32396">
        <ele>264</ele>
        <time>2019-04-14T11:15:03Z</time>
      </trkpt>
      <trkpt lat="44.4296" lon="1.32398">
        <ele>264</ele>
        <time>2019-04-14T11:15:04Z</time>
      </trkpt>
      <trkpt lat="44.4296" lon="1.324">
        <ele>264</ele>
        <time>2019-04-14T11:15:05Z</time>
      </trkpt>
      <trkpt lat="44.42961" lon="1.32402">
        <ele>264</ele>
        <time>2019-04-14T11:15:06Z</time>
      </trkpt>
      <trkpt lat="44.42963" lon="1.32406">
        <ele>264</ele>
        <time>2019-04-14T11:15:07Z</time>
      </trkpt>
      <trkpt lat="44.42964" lon="1.32409">
        <ele>264</ele>
        <time>2019-04-14T11:15:08Z</time>
      </trkpt>
      <trkpt lat="44.42965" lon="1.32412">
        <ele>264</ele>
        <time>2019-04-14T11:15:09Z</time>
      </trkpt>
      <trkpt lat="44.42966" lon="1.32415">
        <ele>264</ele>
        <time>2019-04-14T11:15:10Z</time>
      </trkpt>
      <trkpt lat="44.42967" lon="1.32418">
        <ele>264</ele>
        <time>2019-04-14T11:15:11Z</time>
      </trkpt>
      <trkpt lat="44.42967" lon="1.32421">
        <ele>265</ele>
        <time>2019-04-14T11:15:12Z</time>
      </trkpt>
      <trkpt lat="44.42967" lon="1.32424">
        <ele>265</ele>
        <time>2019-04-14T11:15:13Z</time>
      </trkpt>
      <trkpt lat="44.42968" lon="1.32427">
        <ele>265</ele>
        <time>2019-04-14T11:15:14Z</time>
      </trkpt>
      <trkpt lat="44.42969" lon="1.3243">
        <ele>265</ele>
        <time>2019-04-14T11:15:15Z</time>
      </trkpt>
      <trkpt lat="44.4297" lon="1.32433">
        <ele>265</ele>
        <time>2019-04-14T11:15:16Z</time>
      </trkpt>
      <trkpt lat="44.4297" lon="1.32436">
        <ele>265</ele>
        <time>2019-04-14T11:15:17Z</time>
      </trkpt>
      <trkpt lat="44.42971" lon="1.32439">
        <ele>265</ele>
        <time>2019-04-14T11:15:18Z</time>
      </trkpt>
      <trkpt lat="44.42971" lon="1.32442">
        <ele>265</ele>
        <time>2019-04-14T11:15:19Z</time>
      </trkpt>
      <trkpt lat="44.42971" lon="1.32445">
        <ele>265</ele>
        <time>2019-04-14T11:15:20Z</time>
      </trkpt>
      <trkpt lat="44.42971" lon="1.32448">
        <ele>265</ele>
        <time>2019-04-14T11:15:21Z</time>
      </trkpt>
      <trkpt lat="44.4297" lon="1.3245">
        <ele>265</ele>
        <time>2019-04-14T11:15:22Z</time>
      </trkpt>
      <trkpt lat="44.42971" lon="1.32453">
        <ele>265</ele>
        <time>2019-04-14T11:15:23Z</time>
      </trkpt>
      <trkpt lat="44.42972" lon="1.32456">
        <ele>265</ele>
        <time>2019-04-14T11:15:24Z</time>
      </trkpt>
      <trkpt lat="44.42973" lon="1.32459">
        <ele>265</ele>
        <time>2019-04-14T11:15:25Z</time>
      </trkpt>
      <trkpt lat="44.42973" lon="1.32463">
        <ele>265</ele>
        <time>2019-04-14T11:15:26Z</time>
      </trkpt>
      <trkpt lat="44.42973" lon="1.32465">
        <ele>265</ele>
        <time>2019-04-14T11:15:27Z</time>
      </trkpt>
      <trkpt lat="44.42972" lon="1.32468">
        <ele>266</ele>
        <time>2019-04-14T11:15:28Z</time>
      </trkpt>
      <trkpt lat="44.42971" lon="1.3247">
        <ele>266</ele>
        <time>2019-04-14T11:15:29Z</time>
      </trkpt>
      <trkpt lat="44.42971" lon="1.32472">
        <ele>266</ele>
        <time>2019-04-14T11:15:30Z</time>
      </trkpt>
      <trkpt lat="44.4297" lon="1.32473">
        <ele>267</ele>
        <time>2019-04-14T11:15:31Z</time>
      </trkpt>
      <trkpt lat="44.4297" lon="1.32475">
        <ele>267</ele>
        <time>2019-04-14T11:15:32Z</time>
      </trkpt>
      <trkpt lat="44.4297" lon="1.32477">
        <ele>267</ele>
        <time>2019-04-14T11:15:33Z</time>
      </trkpt>
      <trkpt lat="44.42969" lon="1.32478">
        <ele>267</ele>
        <time>2019-04-14T11:15:34Z</time>
      </trkpt>
      <trkpt lat="44.42968" lon="1.3248">
        <ele>268</ele>
        <time>2019-04-14T11:15:35Z</time>
      </trkpt>
      <trkpt lat="44.42968" lon="1.32482">
        <ele>268</ele>
        <time>2019-04-14T11:15:36Z</time>
      </trkpt>
      <trkpt lat="44.42968" lon="1.32483">
        <ele>268</ele>
        <time>2019-04-14T11:15:37Z</time>
      </trkpt>
      <trkpt lat="44.42967" lon="1.32485">
        <ele>268</ele>
        <time>2019-04-14T11:15:38Z</time>
      </trkpt>
      <trkpt lat="44.42967" lon="1.32486">
        <ele>268</ele>
        <time>2019-04-14T11:15:39Z</time>
      </trkpt>
      <trkpt lat="44.42967" lon="1.32488">
        <ele>268</ele>
        <time>2019-04-14T11:15:40Z</time>
      </trkpt>
      <trkpt lat="44.42966" lon="1.32489">
        <ele>269</ele>
        <time>2019-04-14T11:15:41Z</time>
      </trkpt>
      <trkpt lat="44.42966" lon="1.32491">
        <ele>269</ele>
        <time>2019-04-14T11:15:42Z</time>
      </trkpt>
      <trkpt lat="44.42966" lon="1.32493">
        <ele>269</ele>
        <time>2019-04-14T11:15:43Z</time>
      </trkpt>
      <trkpt lat="44.42966" lon="1.32495">
        <ele>269</ele>
        <time>2019-04-14T11:15:44Z</time>
      </trkpt>
      <trkpt lat="44.42967" lon="1.32497">
        <ele>269</ele>
        <time>2019-04-14T11:15:45Z</time>
      </trkpt>
      <trkpt lat="44.42966" lon="1.32499">
        <ele>269</ele>
        <time>2019-04-14T11:15:46Z</time>
      </trkpt>
      <trkpt lat="44.42967" lon="1.32501">
        <ele>269</ele>
        <time>2019-04-14T11:15:47Z</time>
      </trkpt>
      <trkpt lat="44.42967" lon="1.32503">
        <ele>269</ele>
        <time>2019-04-14T11:15:48Z</time>
      </trkpt>
      <trkpt lat="44.42967" lon="1.32505">
        <ele>269</ele>
        <time>2019-04-14T11:15:49Z</time>
      </trkpt>
      <trkpt lat="44.42967" lon="1.32507">
        <ele>269</ele>
        <time>2019-04-14T11:15:50Z</time>
      </trkpt>
      <trkpt lat="44.42966" lon="1.32509">
        <ele>270</ele>
        <time>2019-04-14T11:15:51Z</time>
      </trkpt>
      <trkpt lat="44.42966" lon="1.32511">
        <ele>270</ele>
        <time>2019-04-14T11:15:52Z</time>
      </trkpt>
      <trkpt lat="44.42966" lon="1.32512">
        <ele>270</ele>
        <time>2019-04-14T11:15:53Z</time>
      </trkpt>
      <trkpt lat="44.42965" lon="1.32514">
        <ele>270</ele>
        <time>2019-04-14T11:15:54Z</time>
      </trkpt>
      <trkpt lat="44.42966" lon="1.32516">
        <ele>270</ele>
        <time>2019-04-14T11:15:55Z</time>
      </trkpt>
      <trkpt lat="44.42966" lon="1.32518">
        <ele>270</ele>
        <time>2019-04-14T11:15:56Z</time>
      </trkpt>
      <trkpt lat="44.42967" lon="1.3252">
        <ele>270</ele>
        <time>2019-04-14T11:15:57Z</time>
      </trkpt>
      <trkpt lat="44.42968" lon="1.32522">
        <ele>270</ele>
        <time>2019-04-14T11:15:58Z</time>
      </trkpt>
      <trkpt lat="44.4297" lon="1.32524">
        <ele>270</ele>
        <time>2019-04-14T11:15:59Z</time>
      </trkpt>
      <trkpt lat="44.42972" lon="1.32527">
        <ele>270</ele>
        <time>2019-04-14T11:16:00Z</time>
      </trkpt>
      <trkpt lat="44.42974" lon="1.32529">
        <ele>269</ele>
        <time>2019-04-14T11:16:01Z</time>
      </trkpt>
      <trkpt lat="44.42977" lon="1.32531">
        <ele>269</ele>
        <time>2019-04-14T11:16:02Z</time>
      </trkpt>
      <trkpt lat="44.4298" lon="1.32534">
        <ele>269</ele>
        <time>2019-04-14T11:16:03Z</time>
      </trkpt>
      <trkpt lat="44.42983" lon="1.32536">
        <ele>268</ele>
        <time>2019-04-14T11:16:04Z</time>
      </trkpt>
      <trkpt lat="44.42985" lon="1.32537">
        <ele>268</ele>
        <time>2019-04-14T11:16:05Z</time>
      </trkpt>
      <trkpt lat="44.42989" lon="1.32539">
        <ele>267</ele>
        <time>2019-04-14T11:16:06Z</time>
      </trkpt>
      <trkpt lat="44.42992" lon="1.32539">
        <ele>267</ele>
        <time>2019-04-14T11:16:07Z</time>
      </trkpt>
      <trkpt lat="44.42996" lon="1.3254">
        <ele>266</ele>
        <time>2019-04-14T11:16:08Z</time>
      </trkpt>
      <trkpt lat="44.42999" lon="1.32539">
        <ele>265</ele>
        <time>2019-04-14T11:16:09Z</time>
      </trkpt>
      <trkpt lat="44.43004" lon="1.32539">
        <ele>265</ele>
        <time>2019-04-14T11:16:10Z</time>
      </trkpt>
      <trkpt lat="44.43008" lon="1.32538">
        <ele>265</ele>
        <time>2019-04-14T11:16:11Z</time>
      </trkpt>
      <trkpt lat="44.43012" lon="1.32538">
        <ele>264</ele>
        <time>2019-04-14T11:16:12Z</time>
      </trkpt>
      <trkpt lat="44.43016" lon="1.32538">
        <ele>264</ele>
        <time>2019-04-14T11:16:13Z</time>
      </trkpt>
      <trkpt lat="44.43021" lon="1.32537">
        <ele>263</ele>
        <time>2019-04-14T11:16:14Z</time>
      </trkpt>
      <trkpt lat="44.43025" lon="1.32537">
        <ele>263</ele>
        <time>2019-04-14T11:16:15Z</time>
      </trkpt>
      <trkpt lat="44.4303" lon="1.32537">
        <ele>263</ele>
        <time>2019-04-14T11:16:16Z</time>
      </trkpt>
      <trkpt lat="44.43034" lon="1.32536">
        <ele>263</ele>
        <time>2019-04-14T11:16:17Z</time>
      </trkpt>
      <trkpt lat="44.43037" lon="1.32535">
        <ele>262</ele>
        <time>2019-04-14T11:16:18Z</time>
      </trkpt>
      <trkpt lat="44.4304" lon="1.32533">
        <ele>262</ele>
        <time>2019-04-14T11:16:19Z</time>
      </trkpt>
      <trkpt lat="44.43043" lon="1.32531">
        <ele>261</ele>
        <time>2019-04-14T11:16:20Z</time>
      </trkpt>
      <trkpt lat="44.43045" lon="1.32528">
        <ele>261</ele>
        <time>2019-04-14T11:16:21Z</time>
      </trkpt>
      <trkpt lat="44.43048" lon="1.32526">
        <ele>260</ele>
        <time>2019-04-14T11:16:22Z</time>
      </trkpt>
      <trkpt lat="44.4305" lon="1.32523">
        <ele>260</ele>
        <time>2019-04-14T11:16:23Z</time>
      </trkpt>
      <trkpt lat="44.43052" lon="1.3252">
        <ele>259</ele>
        <time>2019-04-14T11:16:24Z</time>
      </trkpt>
      <trkpt lat="44.43055" lon="1.32518">
        <ele>259</ele>
        <time>2019-04-14T11:16:25Z</time>
      </trkpt>
      <trkpt lat="44.43057" lon="1.32516">
        <ele>258</ele>
        <time>2019-04-14T11:16:26Z</time>
      </trkpt>
      <trkpt lat="44.43059" lon="1.32515">
        <ele>258</ele>
        <time>2019-04-14T11:16:27Z</time>
      </trkpt>
      <trkpt lat="44.43062" lon="1.32514">
        <ele>259</ele>
        <time>2019-04-14T11:16:28Z</time>
      </trkpt>
      <trkpt lat="44.43063" lon="1.32513">
        <ele>259</ele>
        <time>2019-04-14T11:16:29Z</time>
      </trkpt>
      <trkpt lat="44.43065" lon="1.32513">
        <ele>258</ele>
        <time>2019-04-14T11:16:30Z</time>
      </trkpt>
      <trkpt lat="44.43067" lon="1.32514">
        <ele>258</ele>
        <time>2019-04-14T11:16:31Z</time>
      </trkpt>
      <trkpt lat="44.4307" lon="1.32516">
        <ele>258</ele>
        <time>2019-04-14T11:16:32Z</time>
      </trkpt>
      <trkpt lat="44.43071" lon="1.32518">
        <ele>258</ele>
        <time>2019-04-14T11:16:33Z</time>
      </trkpt>
      <trkpt lat="44.43073" lon="1.3252">
        <ele>258</ele>
        <time>2019-04-14T11:16:34Z</time>
      </trkpt>
      <trkpt lat="44.43074" lon="1.32523">
        <ele>258</ele>
        <time>2019-04-14T11:16:35Z</time>
      </trkpt>
      <trkpt lat="44.43075" lon="1.32526">
        <ele>259</ele>
        <time>2019-04-14T11:16:36Z</time>
      </trkpt>
      <trkpt lat="44.43075" lon="1.32529">
        <ele>259</ele>
        <time>2019-04-14T11:16:37Z</time>
      </trkpt>
      <trkpt lat="44.43075" lon="1.32532">
        <ele>259</ele>
        <time>2019-04-14T11:16:38Z</time>
      </trkpt>
      <trkpt lat="44.43076" lon="1.32535">
        <ele>259</ele>
        <time>2019-04-14T11:16:39Z</time>
      </trkpt>
      <trkpt lat="44.43077" lon="1.32538">
        <ele>259</ele>
        <time>2019-04-14T11:16:40Z</time>
      </trkpt>
      <trkpt lat="44.43078" lon="1.32541">
        <ele>259</ele>
        <time>2019-04-14T11:16:41Z</time>
      </trkpt>
      <trkpt lat="44.43078" lon="1.32544">
        <ele>260</ele>
        <time>2019-04-14T11:16:42Z</time>
      </trkpt>
      <trkpt lat="44.43078" lon="1.32546">
        <ele>260</ele>
        <time>2019-04-14T11:16:43Z</time>
      </trkpt>
      <trkpt lat="44.43078" lon="1.32549">
        <ele>260</ele>
        <time>2019-04-14T11:16:44Z</time>
      </trkpt>
      <trkpt lat="44.43078" lon="1.32552">
        <ele>260</ele>
        <time>2019-04-14T11:16:45Z</time>
      </trkpt>
      <trkpt lat="44.43078" lon="1.32555">
        <ele>260</ele>
        <time>2019-04-14T11:16:46Z</time>
      </trkpt>
      <trkpt lat="44.43079" lon="1.32558">
        <ele>261</ele>
        <time>2019-04-14T11:16:47Z</time>
      </trkpt>
      <trkpt lat="44.43078" lon="1.32561">
        <ele>261</ele>
        <time>2019-04-14T11:16:48Z</time>
      </trkpt>
      <trkpt lat="44.43078" lon="1.32564">
        <ele>261</ele>
        <time>2019-04-14T11:16:49Z</time>
      </trkpt>
      <trkpt lat="44.43078" lon="1.32567">
        <ele>261</ele>
        <time>2019-04-14T11:16:50Z</time>
      </trkpt>
      <trkpt lat="44.43078" lon="1.3257">
        <ele>261</ele>
        <time>2019-04-14T11:16:51Z</time>
      </trkpt>
      <trkpt lat="44.43078" lon="1.32573">
        <ele>262</ele>
        <time>2019-04-14T11:16:52Z</time>
      </trkpt>
      <trkpt lat="44.43078" lon="1.32575">
        <ele>262</ele>
        <time>2019-04-14T11:16:53Z</time>
      </trkpt>
      <trkpt lat="44.43078" lon="1.32578">
        <ele>262</ele>
        <time>2019-04-14T11:16:54Z</time>
      </trkpt>
      <trkpt lat="44.43077" lon="1.3258">
        <ele>262</ele>
        <time>2019-04-14T11:16:55Z</time>
      </trkpt>
      <trkpt lat="44.43077" lon="1.32583">
        <ele>262</ele>
        <time>2019-04-14T11:16:56Z</time>
      </trkpt>
      <trkpt lat="44.43078" lon="1.32585">
        <ele>262</ele>
        <time>2019-04-14T11:16:57Z</time>
      </trkpt>
      <trkpt lat="44.43079" lon="1.32588">
        <ele>262</ele>
        <time>2019-04-14T11:16:58Z</time>
      </trkpt>
      <trkpt lat="44.4308" lon="1.32591">
        <ele>262</ele>
        <time>2019-04-14T11:16:59Z</time>
      </trkpt>
      <trkpt lat="44.43081" lon="1.32595">
        <ele>262</ele>
        <time>2019-04-14T11:17:00Z</time>
      </trkpt>
      <trkpt lat="44.43082" lon="1.32598">
        <ele>262</ele>
        <time>2019-04-14T11:17:01Z</time>
      </trkpt>
      <trkpt lat="44.43082" lon="1.32601">
        <ele>262</ele>
        <time>2019-04-14T11:17:02Z</time>
      </trkpt>
      <trkpt lat="44.43083" lon="1.32605">
        <ele>262</ele>
        <time>2019-04-14T11:17:03Z</time>
      </trkpt>
      <trkpt lat="44.43084" lon="1.32608">
        <ele>262</ele>
        <time>2019-04-14T11:17:04Z</time>
      </trkpt>
      <trkpt lat="44.43084" lon="1.32612">
        <ele>262</ele>
        <time>2019-04-14T11:17:05Z</time>
      </trkpt>
      <trkpt lat="44.43083" lon="1.32615">
        <ele>262</ele>
        <time>2019-04-14T11:17:06Z</time>
      </trkpt>
      <trkpt lat="44.43084" lon="1.32619">
        <ele>262</ele>
        <time>2019-04-14T11:17:07Z</time>
      </trkpt>
      <trkpt lat="44.43085" lon="1.32622">
        <ele>262</ele>
        <time>2019-04-14T11:17:08Z</time>
      </trkpt>
      <trkpt lat="44.43086" lon="1.32625">
        <ele>262</ele>
        <time>2019-04-14T11:17:09Z</time>
      </trkpt>
      <trkpt lat="44.43087" lon="1.32628">
        <ele>262</ele>
        <time>2019-04-14T11:17:10Z</time>
      </trkpt>
      <trkpt lat="44.43088" lon="1.32632">
        <ele>262</ele>
        <time>2019-04-14T11:17:11Z</time>
      </trkpt>
      <trkpt lat="44.43089" lon="1.32635">
        <ele>262</ele>
        <time>2019-04-14T11:17:12Z</time>
      </trkpt>
      <trkpt lat="44.43089" lon="1.32639">
        <ele>262</ele>
        <time>2019-04-14T11:17:13Z</time>
      </trkpt>
      <trkpt lat="44.43089" lon="1.32642">
        <ele>262</ele>
        <time>2019-04-14T11:17:14Z</time>
      </trkpt>
      <trkpt lat="44.43088" lon="1.32645">
        <ele>262</ele>
        <time>2019-04-14T11:17:15Z</time>
      </trkpt>
      <trkpt lat="44.43089" lon="1.32648">
        <ele>262</ele>
        <time>2019-04-14T11:17:16Z</time>
      </trkpt>
      <trkpt lat="44.43091" lon="1.3265">
        <ele>262</ele>
        <time>2019-04-14T11:17:17Z</time>
      </trkpt>
      <trkpt lat="44.43094" lon="1.32652">
        <ele>262</ele>
        <time>2019-04-14T11:17:18Z</time>
      </trkpt>
      <trkpt lat="44.43097" lon="1.32654">
        <ele>261</ele>
        <time>2019-04-14T11:17:19Z</time>
      </trkpt>
      <trkpt lat="44.43099" lon="1.32658">
        <ele>261</ele>
        <time>2019-04-14T11:17:20Z</time>
      </trkpt>
      <trkpt lat="44.43102" lon="1.32662">
        <ele>260</ele>
        <time>2019-04-14T11:17:21Z</time>
      </trkpt>
      <trkpt lat="44.43104" lon="1.32667">
        <ele>260</ele>
        <time>2019-04-14T11:17:22Z</time>
      </trkpt>
      <trkpt lat="44.43107" lon="1.32672">
        <ele>259</ele>
        <time>2019-04-14T11:17:23Z</time>
      </trkpt>
      <trkpt lat="44.4311" lon="1.32676">
        <ele>259</ele>
        <time>2019-04-14T11:17:24Z</time>
      </trkpt>
      <trkpt lat="44.43113" lon="1.32679">
        <ele>257</ele>
        <time>2019-04-14T11:17:25Z</time>
      </trkpt>
      <trkpt lat="44.43117" lon="1.32683">
        <ele>257</ele>
        <time>2019-04-14T11:17:26Z</time>
      </trkpt>
      <trkpt lat="44.43122" lon="1.32685">
        <ele>256</ele>
        <time>2019-04-14T11:17:27Z</time>
      </trkpt>
      <trkpt lat="44.43127" lon="1.32687">
        <ele>255</ele>
        <time>2019-04-14T11:17:28Z</time>
      </trkpt>
      <trkpt lat="44.43133" lon="1.32688">
        <ele>255</ele>
        <time>2019-04-14T11:17:29Z</time>
      </trkpt>
      <trkpt lat="44.43138" lon="1.3269">
        <ele>255</ele>
        <time>2019-04-14T11:17:30Z</time>
      </trkpt>
      <trkpt lat="44.43142" lon="1.3269">
        <ele>255</ele>
        <time>2019-04-14T11:17:31Z</time>
      </trkpt>
      <trkpt lat="44.43145" lon="1.32691">
        <ele>255</ele>
        <time>2019-04-14T11:17:32Z</time>
      </trkpt>
      <trkpt lat="44.43148" lon="1.32692">
        <ele>256</ele>
        <time>2019-04-14T11:17:33Z</time>
      </trkpt>
      <trkpt lat="44.43151" lon="1.32693">
        <ele>256</ele>
        <time>2019-04-14T11:17:34Z</time>
      </trkpt>
      <trkpt lat="44.43153" lon="1.32694">
        <ele>257</ele>
        <time>2019-04-14T11:17:35Z</time>
      </trkpt>
      <trkpt lat="44.43155" lon="1.32694">
        <ele>257</ele>
        <time>2019-04-14T11:17:36Z</time>
      </trkpt>
      <trkpt lat="44.43157" lon="1.32694">
        <ele>258</ele>
        <time>2019-04-14T11:17:37Z</time>
      </trkpt>
      <trkpt lat="44.43159" lon="1.32693">
        <ele>258</ele>
        <time>2019-04-14T11:17:38Z</time>
      </trkpt>
      <trkpt lat="44.43161" lon="1.32693">
        <ele>259</ele>
        <time>2019-04-14T11:17:39Z</time>
      </trkpt>
      <trkpt lat="44.43163" lon="1.32692">
        <ele>259</ele>
        <time>2019-04-14T11:17:40Z</time>
      </trkpt>
      <trkpt lat="44.43165" lon="1.32691">
        <ele>259</ele>
        <time>2019-04-14T11:17:41Z</time>
      </trkpt>
      <trkpt lat="44.43166" lon="1.32689">
        <ele>259</ele>
        <time>2019-04-14T11:17:42Z</time>
      </trkpt>
      <trkpt lat="44.43167" lon="1.32687">
        <ele>259</ele>
        <time>2019-04-14T11:17:43Z</time>
      </trkpt>
      <trkpt lat="44.43168" lon="1.32684">
        <ele>259</ele>
        <time>2019-04-14T11:17:44Z</time>
      </trkpt>
      <trkpt lat="44.43169" lon="1.32682">
        <ele>259</ele>
        <time>2019-04-14T11:17:45Z</time>
      </trkpt>
      <trkpt lat="44.4317" lon="1.32679">
        <ele>259</ele>
        <time>2019-04-14T11:17:46Z</time>
      </trkpt>
      <trkpt lat="44.43172" lon="1.32677">
        <ele>259</ele>
        <time>2019-04-14T11:17:47Z</time>
      </trkpt>
      <trkpt lat="44.43173" lon="1.32675">
        <ele>259</ele>
        <time>2019-04-14T11:17:48Z</time>
      </trkpt>
      <trkpt lat="44.43175" lon="1.32672">
        <ele>260</ele>
        <time>2019-04-14T11:17:49Z</time>
      </trkpt>
      <trkpt lat="44.43176" lon="1.32669">
        <ele>259</ele>
        <time>2019-04-14T11:17:50Z</time>
      </trkpt>
      <trkpt lat="44.43177" lon="1.32666">
        <ele>259</ele>
        <time>2019-04-14T11:17:51Z</time>
      </trkpt>
      <trkpt lat="44.43179" lon="1.32663">
        <ele>259</ele>
        <time>2019-04-14T11:17:52Z</time>
      </trkpt>
      <trkpt lat="44.4318" lon="1.3266">
        <ele>259</ele>
        <time>2019-04-14T11:17:53Z</time>
      </trkpt>
      <trkpt lat="44.43182" lon="1.32657">
        <ele>259</ele>
        <time>2019-04-14T11:17:54Z</time>
      </trkpt>
      <trkpt lat="44.43184" lon="1.32656">
        <ele>259</ele>
        <time>2019-04-14T11:17:55Z</time>
      </trkpt>
      <trkpt lat="44.43186" lon="1.32654">
        <ele>259</ele>
        <time>2019-04-14T11:17:56Z</time>
      </trkpt>
      <trkpt lat="44.43188" lon="1.32651">
        <ele>259</ele>
        <time>2019-04-14T11:17:57Z</time>
      </trkpt>
      <trkpt lat="44.43189" lon="1.32648">
        <ele>258</ele>
        <time>2019-04-14T11:17:58Z</time>
      </trkpt>
      <trkpt lat="44.43191" lon="1.32643">
        <ele>258</ele>
        <time>2019-04-14T11:17:59Z</time>
      </trkpt>
      <trkpt lat="44.43194" lon="1.3264">
        <ele>258</ele>
        <time>2019-04-14T11:18:00Z</time>
      </trkpt>
      <trkpt lat="44.43196" lon="1.32637">
        <ele>258</ele>
        <time>2019-04-14T11:18:01Z</time>
      </trkpt>
      <trkpt lat="44.43198" lon="1.32634">
        <ele>258</ele>
        <time>2019-04-14T11:18:02Z</time>
      </trkpt>
      <trkpt lat="44.432" lon="1.32632">
        <ele>258</ele>
        <time>2019-04-14T11:18:03Z</time>
      </trkpt>
      <trkpt lat="44.43202" lon="1.32629">
        <ele>258</ele>
        <time>2019-04-14T11:18:04Z</time>
      </trkpt>
      <trkpt lat="44.43205" lon="1.32627">
        <ele>258</ele>
        <time>2019-04-14T11:18:05Z</time>
      </trkpt>
      <trkpt lat="44.43208" lon="1.32627">
        <ele>258</ele>
        <time>2019-04-14T11:18:06Z</time>
      </trkpt>
      <trkpt lat="44.4321" lon="1.32628">
        <ele>258</ele>
        <time>2019-04-14T11:18:07Z</time>
      </trkpt>
      <trkpt lat="44.43211" lon="1.3263">
        <ele>259</ele>
        <time>2019-04-14T11:18:08Z</time>
      </trkpt>
      <trkpt lat="44.43212" lon="1.32632">
        <ele>259</ele>
        <time>2019-04-14T11:18:09Z</time>
      </trkpt>
      <trkpt lat="44.43212" lon="1.32635">
        <ele>259</ele>
        <time>2019-04-14T11:18:10Z</time>
      </trkpt>
      <trkpt lat="44.43213" lon="1.32637">
        <ele>259</ele>
        <time>2019-04-14T11:18:11Z</time>
      </trkpt>
      <trkpt lat="44.43213" lon="1.3264">
        <ele>260</ele>
        <time>2019-04-14T11:18:12Z</time>
      </trkpt>
      <trkpt lat="44.43213" lon="1.32642">
        <ele>260</ele>
        <time>2019-04-14T11:18:13Z</time>
      </trkpt>
      <trkpt lat="44.43213" lon="1.32645">
        <ele>260</ele>
        <time>2019-04-14T11:18:14Z</time>
      </trkpt>
      <trkpt lat="44.43213" lon="1.32648">
        <ele>260</ele>
        <time>2019-04-14T11:18:15Z</time>
      </trkpt>
      <trkpt lat="44.43213" lon="1.3265">
        <ele>260</ele>
        <time>2019-04-14T11:18:16Z</time>
      </trkpt>
      <trkpt lat="44.43213" lon="1.32653">
        <ele>260</ele>
        <time>2019-04-14T11:18:17Z</time>
      </trkpt>
      <trkpt lat="44.43213" lon="1.32656">
        <ele>261</ele>
        <time>2019-04-14T11:18:18Z</time>
      </trkpt>
      <trkpt lat="44.43213" lon="1.3266">
        <ele>261</ele>
        <time>2019-04-14T11:18:19Z</time>
      </trkpt>
      <trkpt lat="44.43212" lon="1.32662">
        <ele>261</ele>
        <time>2019-04-14T11:18:20Z</time>
      </trkpt>
      <trkpt lat="44.43212" lon="1.32665">
        <ele>261</ele>
        <time>2019-04-14T11:18:21Z</time>
      </trkpt>
      <trkpt lat="44.43212" lon="1.32668">
        <ele>261</ele>
        <time>2019-04-14T11:18:22Z</time>
      </trkpt>
      <trkpt lat="44.43212" lon="1.32671">
        <ele>261</ele>
        <time>2019-04-14T11:18:23Z</time>
      </trkpt>
      <trkpt lat="44.43212" lon="1.32675">
        <ele>261</ele>
        <time>2019-04-14T11:18:24Z</time>
      </trkpt>
      <trkpt lat="44.43212" lon="1.32679">
        <ele>261</ele>
        <time>2019-04-14T11:18:25Z</time>
      </trkpt>
      <trkpt lat="44.43212" lon="1.32683">
        <ele>261</ele>
        <time>2019-04-14T11:18:26Z</time>
      </trkpt>
      <trkpt lat="44.43212" lon="1.32686">
        <ele>261</ele>
        <time>2019-04-14T11:18:27Z</time>
      </trkpt>
      <trkpt lat="44.43213" lon="1.3269">
        <ele>261</ele>
        <time>2019-04-14T11:18:28Z</time>
      </trkpt>
      <trkpt lat="44.43215" lon="1.32693">
        <ele>261</ele>
        <time>2019-04-14T11:18:29Z</time>
      </trkpt>
      <trkpt lat="44.43218" lon="1.32695">
        <ele>261</ele>
        <time>2019-04-14T11:18:30Z</time>
      </trkpt>
      <trkpt lat="44.4322" lon="1.32699">
        <ele>261</ele>
        <time>2019-04-14T11:18:31Z</time>
      </trkpt>
      <trkpt lat="44.43223" lon="1.32702">
        <ele>261</ele>
        <time>2019-04-14T11:18:32Z</time>
      </trkpt>
      <trkpt lat="44.43227" lon="1.32706">
        <ele>260</ele>
        <time>2019-04-14T11:18:33Z</time>
      </trkpt>
      <trkpt lat="44.43229" lon="1.32709">
        <ele>260</ele>
        <time>2019-04-14T11:18:34Z</time>
      </trkpt>
      <trkpt lat="44.43233" lon="1.32712">
        <ele>259</ele>
        <time>2019-04-14T11:18:35Z</time>
      </trkpt>
      <trkpt lat="44.43237" lon="1.32715">
        <ele>259</ele>
        <time>2019-04-14T11:18:36Z</time>
      </trkpt>
      <trkpt lat="44.4324" lon="1.32714">
        <ele>259</ele>
        <time>2019-04-14T11:18:37Z</time>
      </trkpt>
      <trkpt lat="44.43244" lon="1.32715">
        <ele>258</ele>
        <time>2019-04-14T11:18:38Z</time>
      </trkpt>
      <trkpt lat="44.43249" lon="1.32715">
        <ele>258</ele>
        <time>2019-04-14T11:18:39Z</time>
      </trkpt>
      <trkpt lat="44.43253" lon="1.32716">
        <ele>258</ele>
        <time>2019-04-14T11:18:40Z</time>
      </trkpt>
      <trkpt lat="44.43258" lon="1.32715">
        <ele>257</ele>
        <time>2019-04-14T11:18:41Z</time>
      </trkpt>
      <trkpt lat="44.43263" lon="1.32714">
        <ele>256</ele>
        <time>2019-04-14T11:18:42Z</time>
      </trkpt>
      <trkpt lat="44.43269" lon="1.32714">
        <ele>256</ele>
        <time>2019-04-14T11:18:43Z</time>
      </trkpt>
      <trkpt lat="44.43273" lon="1.32716">
        <ele>255</ele>
        <time>2019-04-14T11:18:44Z</time>
      </trkpt>
      <trkpt lat="44.43276" lon="1.32719">
        <ele>255</ele>
        <time>2019-04-14T11:18:45Z</time>
      </trkpt>
      <trkpt lat="44.43279" lon="1.32721">
        <ele>255</ele>
        <time>2019-04-14T11:18:46Z</time>
      </trkpt>
      <trkpt lat="44.43282" lon="1.32724">
        <ele>255</ele>
        <time>2019-04-14T11:18:47Z</time>
      </trkpt>
      <trkpt lat="44.43283" lon="1.32726">
        <ele>255</ele>
        <time>2019-04-14T11:18:48Z</time>
      </trkpt>
      <trkpt lat="44.43284" lon="1.32728">
        <ele>255</ele>
        <time>2019-04-14T11:18:49Z</time>
      </trkpt>
      <trkpt lat="44.43283" lon="1.3273">
        <ele>255</ele>
        <time>2019-04-14T11:18:50Z</time>
      </trkpt>
      <trkpt lat="44.43283" lon="1.3273">
        <ele>255</ele>
        <time>2019-04-14T11:18:51Z</time>
      </trkpt>
      <trkpt lat="44.43282" lon="1.3273">
        <ele>255</ele>
        <time>2019-04-14T11:18:52Z</time>
      </trkpt>
      <trkpt lat="44.43282" lon="1.32728">
        <ele>255</ele>
        <time>2019-04-14T11:18:53Z</time>
      </trkpt>
      <trkpt lat="44.43282" lon="1.32727">
        <ele>255</ele>
        <time>2019-04-14T11:18:54Z</time>
      </trkpt>
      <trkpt lat="44.43282" lon="1.32726">
        <ele>255</ele>
        <time>2019-04-14T11:18:55Z</time>
      </trkpt>
      <trkpt lat="44.43282" lon="1.32724">
        <ele>254</ele>
        <time>2019-04-14T11:18:56Z</time>
      </trkpt>
      <trkpt lat="44.43282" lon="1.32723">
        <ele>254</ele>
        <time>2019-04-14T11:18:57Z</time>
      </trkpt>
      <trkpt lat="44.43282" lon="1.32723">
        <ele>254</ele>
        <time>2019-04-14T11:18:58Z</time>
      </trkpt>
      <trkpt lat="44.43282" lon="1.32723">
        <ele>254</ele>
        <time>2019-04-14T11:18:59Z</time>
      </trkpt>
      <trkpt lat="44.43282" lon="1.32723">
        <ele>254</ele>
        <time>2019-04-14T11:19:00Z</time>
      </trkpt>
      <trkpt lat="44.43282" lon="1.32723">
        <ele>254</ele>
        <time>2019-04-14T11:19:01Z</time>
      </trkpt>
      <trkpt lat="44.43282" lon="1.32723">
        <ele>254</ele>
        <time>2019-04-14T11:19:02Z</time>
      </trkpt>
      <trkpt lat="44.43282" lon="1.32723">
        <ele>254</ele>
        <time>2019-04-14T11:19:03Z</time>
      </trkpt>
      <trkpt lat="44.43282" lon="1.32723">
        <ele>254</ele>
        <time>2019-04-14T11:19:04Z</time>
      </trkpt>
      <trkpt lat="44.43282" lon="1.32723">
        <ele>254</ele>
        <time>2019-04-14T11:19:05Z</time>
      </trkpt>
      <trkpt lat="44.43314" lon="1.3271">
        <ele>252</ele>
        <time>2019-04-14T11:19:25Z</time>
      </trkpt>
      <trkpt lat="44.43318" lon="1.32707">
        <ele>252</ele>
        <time>2019-04-14T11:19:26Z</time>
      </trkpt>
      <trkpt lat="44.43322" lon="1.32704">
        <ele>253</ele>
        <time>2019-04-14T11:19:27Z</time>
      </trkpt>
      <trkpt lat="44.43326" lon="1.32702">
        <ele>253</ele>
        <time>2019-04-14T11:19:28Z</time>
      </trkpt>
      <trkpt lat="44.43329" lon="1.327">
        <ele>253</ele>
        <time>2019-04-14T11:19:29Z</time>
      </trkpt>
      <trkpt lat="44.43332" lon="1.32699">
        <ele>254</ele>
        <time>2019-04-14T11:19:30Z</time>
      </trkpt>
      <trkpt lat="44.43335" lon="1.32697">
        <ele>254</ele>
        <time>2019-04-14T11:19:31Z</time>
      </trkpt>
      <trkpt lat="44.43338" lon="1.32696">
        <ele>254</ele>
        <time>2019-04-14T11:19:32Z</time>
      </trkpt>
      <trkpt lat="44.4334" lon="1.32695">
        <ele>254</ele>
        <time>2019-04-14T11:19:33Z</time>
      </trkpt>
      <trkpt lat="44.43343" lon="1.32693">
        <ele>254</ele>
        <time>2019-04-14T11:19:34Z</time>
      </trkpt>
      <trkpt lat="44.43345" lon="1.32692">
        <ele>254</ele>
        <time>2019-04-14T11:19:35Z</time>
      </trkpt>
      <trkpt lat="44.43346" lon="1.32691">
        <ele>255</ele>
        <time>2019-04-14T11:19:36Z</time>
      </trkpt>
      <trkpt lat="44.43347" lon="1.3269">
        <ele>255</ele>
        <time>2019-04-14T11:19:37Z</time>
      </trkpt>
      <trkpt lat="44.43349" lon="1.32688">
        <ele>255</ele>
        <time>2019-04-14T11:19:38Z</time>
      </trkpt>
      <trkpt lat="44.43351" lon="1.32687">
        <ele>255</ele>
        <time>2019-04-14T11:19:39Z</time>
      </trkpt>
      <trkpt lat="44.43353" lon="1.32686">
        <ele>255</ele>
        <time>2019-04-14T11:19:40Z</time>
      </trkpt>
      <trkpt lat="44.43355" lon="1.32685">
        <ele>255</ele>
        <time>2019-04-14T11:19:41Z</time>
      </trkpt>
      <trkpt lat="44.43356" lon="1.32683">
        <ele>256</ele>
        <time>2019-04-14T11:19:42Z</time>
      </trkpt>
      <trkpt lat="44.43358" lon="1.32682">
        <ele>256</ele>
        <time>2019-04-14T11:19:43Z</time>
      </trkpt>
      <trkpt lat="44.4336" lon="1.3268">
        <ele>256</ele>
        <time>2019-04-14T11:19:44Z</time>
      </trkpt>
      <trkpt lat="44.43361" lon="1.32679">
        <ele>256</ele>
        <time>2019-04-14T11:19:45Z</time>
      </trkpt>
      <trkpt lat="44.43363" lon="1.32678">
        <ele>256</ele>
        <time>2019-04-14T11:19:46Z</time>
      </trkpt>
      <trkpt lat="44.43365" lon="1.32677">
        <ele>256</ele>
        <time>2019-04-14T11:19:47Z</time>
      </trkpt>
      <trkpt lat="44.43367" lon="1.32676">
        <ele>257</ele>
        <time>2019-04-14T11:19:48Z</time>
      </trkpt>
      <trkpt lat="44.43369" lon="1.32674">
        <ele>257</ele>
        <time>2019-04-14T11:19:49Z</time>
      </trkpt>
      <trkpt lat="44.4337" lon="1.32673">
        <ele>257</ele>
        <time>2019-04-14T11:19:50Z</time>
      </trkpt>
      <trkpt lat="44.43371" lon="1.32671">
        <ele>257</ele>
        <time>2019-04-14T11:19:51Z</time>
      </trkpt>
      <trkpt lat="44.43372" lon="1.32669">
        <ele>257</ele>
        <time>2019-04-14T11:19:52Z</time>
      </trkpt>
      <trkpt lat="44.43374" lon="1.32669">
        <ele>257</ele>
        <time>2019-04-14T11:19:53Z</time>
      </trkpt>
      <trkpt lat="44.43375" lon="1.32669">
        <ele>257</ele>
        <time>2019-04-14T11:19:54Z</time>
      </trkpt>
      <trkpt lat="44.43377" lon="1.32668">
        <ele>257</ele>
        <time>2019-04-14T11:19:55Z</time>
      </trkpt>
      <trkpt lat="44.43379" lon="1.32668">
        <ele>257</ele>
        <time>2019-04-14T11:19:56Z</time>
      </trkpt>
      <trkpt lat="44.4338" lon="1.32667">
        <ele>257</ele>
        <time>2019-04-14T11:19:57Z</time>
      </trkpt>
      <trkpt lat="44.43382" lon="1.32666">
        <ele>258</ele>
        <time>2019-04-14T11:19:58Z</time>
      </trkpt>
      <trkpt lat="44.43383" lon="1.32665">
        <ele>258</ele>
        <time>2019-04-14T11:19:59Z</time>
      </trkpt>
      <trkpt lat="44.43385" lon="1.32664">
        <ele>258</ele>
        <time>2019-04-14T11:20:00Z</time>
      </trkpt>
      <trkpt lat="44.43387" lon="1.32663">
        <ele>258</ele>
        <time>2019-04-14T11:20:01Z</time>
      </trkpt>
      <trkpt lat="44.43388" lon="1.32662">
        <ele>258</ele>
        <time>2019-04-14T11:20:02Z</time>
      </trkpt>
      <trkpt lat="44.4339" lon="1.32661">
        <ele>258</ele>
        <time>2019-04-14T11:20:03Z</time>
      </trkpt>
      <trkpt lat="44.43392" lon="1.3266">
        <ele>258</ele>
        <time>2019-04-14T11:20:04Z</time>
      </trkpt>
      <trkpt lat="44.43393" lon="1.32659">
        <ele>258</ele>
        <time>2019-04-14T11:20:05Z</time>
      </trkpt>
      <trkpt lat="44.43395" lon="1.32659">
        <ele>259</ele>
        <time>2019-04-14T11:20:06Z</time>
      </trkpt>
      <trkpt lat="44.43396" lon="1.32659">
        <ele>259</ele>
        <time>2019-04-14T11:20:07Z</time>
      </trkpt>
      <trkpt lat="44.43398" lon="1.32658">
        <ele>259</ele>
        <time>2019-04-14T11:20:08Z</time>
      </trkpt>
      <trkpt lat="44.43399" lon="1.32658">
        <ele>259</ele>
        <time>2019-04-14T11:20:09Z</time>
      </trkpt>
      <trkpt lat="44.43401" lon="1.32658">
        <ele>259</ele>
        <time>2019-04-14T11:20:10Z</time>
      </trkpt>
      <trkpt lat="44.43403" lon="1.32658">
        <ele>259</ele>
        <time>2019-04-14T11:20:11Z</time>
      </trkpt>
      <trkpt lat="44.43404" lon="1.32657">
        <ele>260</ele>
        <time>2019-04-14T11:20:12Z</time>
      </trkpt>
      <trkpt lat="44.43407" lon="1.32657">
        <ele>260</ele>
        <time>2019-04-14T11:20:13Z</time>
      </trkpt>
      <trkpt lat="44.43409" lon="1.32657">
        <ele>260</ele>
        <time>2019-04-14T11:20:14Z</time>
      </trkpt>
      <trkpt lat="44.4341" lon="1.32657">
        <ele>260</ele>
        <time>2019-04-14T11:20:15Z</time>
      </trkpt>
      <trkpt lat="44.43412" lon="1.32657">
        <ele>260</ele>
        <time>2019-04-14T11:20:16Z</time>
      </trkpt>
      <trkpt lat="44.43414" lon="1.32656">
        <ele>260</ele>
        <time>2019-04-14T11:20:17Z</time>
      </trkpt>
      <trkpt lat="44.43415" lon="1.32656">
        <ele>261</ele>
        <time>2019-04-14T11:20:18Z</time>
      </trkpt>
      <trkpt lat="44.43417" lon="1.32655">
        <ele>261</ele>
        <time>2019-04-14T11:20:19Z</time>
      </trkpt>
      <trkpt lat="44.43418" lon="1.32655">
        <ele>261</ele>
        <time>2019-04-14T11:20:20Z</time>
      </trkpt>
      <trkpt lat="44.43419" lon="1.32654">
        <ele>261</ele>
        <time>2019-04-14T11:20:21Z</time>
      </trkpt>
      <trkpt lat="44.43421" lon="1.32653">
        <ele>261</ele>
        <time>2019-04-14T11:20:22Z</time>
      </trkpt>
      <trkpt lat="44.43422" lon="1.32652">
        <ele>261</ele>
        <time>2019-04-14T11:20:23Z</time>
      </trkpt>
      <trkpt lat="44.43424" lon="1.32652">
        <ele>261</ele>
        <time>2019-04-14T11:20:24Z</time>
      </trkpt>
      <trkpt lat="44.43426" lon="1.32652">
        <ele>262</ele>
        <time>2019-04-14T11:20:25Z</time>
      </trkpt>
      <trkpt lat="44.43427" lon="1.32651">
        <ele>262</ele>
        <time>2019-04-14T11:20:26Z</time>
      </trkpt>
      <trkpt lat="44.43429" lon="1.3265">
        <ele>262</ele>
        <time>2019-04-14T11:20:27Z</time>
      </trkpt>
      <trkpt lat="44.4343" lon="1.32649">
        <ele>262</ele>
        <time>2019-04-14T11:20:28Z</time>
      </trkpt>
      <trkpt lat="44.43431" lon="1.32648">
        <ele>262</ele>
        <time>2019-04-14T11:20:29Z</time>
      </trkpt>
      <trkpt lat="44.43433" lon="1.32647">
        <ele>262</ele>
        <time>2019-04-14T11:20:30Z</time>
      </trkpt>
      <trkpt lat="44.43434" lon="1.32646">
        <ele>262</ele>
        <time>2019-04-14T11:20:31Z</time>
      </trkpt>
      <trkpt lat="44.43436" lon="1.32646">
        <ele>263</ele>
        <time>2019-04-14T11:20:32Z</time>
      </trkpt>
      <trkpt lat="44.43438" lon="1.32646">
        <ele>263</ele>
        <time>2019-04-14T11:20:33Z</time>
      </trkpt>
      <trkpt lat="44.43439" lon="1.32645">
        <ele>263</ele>
        <time>2019-04-14T11:20:34Z</time>
      </trkpt>
      <trkpt lat="44.4344" lon="1.32645">
        <ele>263</ele>
        <time>2019-04-14T11:20:35Z</time>
      </trkpt>
      <trkpt lat="44.43441" lon="1.32645">
        <ele>263</ele>
        <time>2019-04-14T11:20:36Z</time>
      </trkpt>
      <trkpt lat="44.43443" lon="1.32644">
        <ele>263</ele>
        <time>2019-04-14T11:20:37Z</time>
      </trkpt>
      <trkpt lat="44.43444" lon="1.32643">
        <ele>264</ele>
        <time>2019-04-14T11:20:38Z</time>
      </trkpt>
      <trkpt lat="44.43446" lon="1.32642">
        <ele>264</ele>
        <time>2019-04-14T11:20:39Z</time>
      </trkpt>
      <trkpt lat="44.43447" lon="1.32642">
        <ele>264</ele>
        <time>2019-04-14T11:20:40Z</time>
      </trkpt>
      <trkpt lat="44.43448" lon="1.32641">
        <ele>264</ele>
        <time>2019-04-14T11:20:41Z</time>
      </trkpt>
      <trkpt lat="44.43449" lon="1.3264">
        <ele>264</ele>
        <time>2019-04-14T11:20:42Z</time>
      </trkpt>
      <trkpt lat="44.4345" lon="1.32638">
        <ele>264</ele>
        <time>2019-04-14T11:20:43Z</time>
      </trkpt>
      <trkpt lat="44.43451" lon="1.32637">
        <ele>264</ele>
        <time>2019-04-14T11:20:44Z</time>
      </trkpt>
      <trkpt lat="44.43452" lon="1.32636">
        <ele>264</ele>
        <time>2019-04-14T11:20:45Z</time>
      </trkpt>
      <trkpt lat="44.43453" lon="1.32634">
        <ele>264</ele>
        <time>2019-04-14T11:20:46Z</time>
      </trkpt>
      <trkpt lat="44.43454" lon="1.32632">
        <ele>265</ele>
        <time>2019-04-14T11:20:47Z</time>
      </trkpt>
      <trkpt lat="44.43456" lon="1.32631">
        <ele>265</ele>
        <time>2019-04-14T11:20:48Z</time>
      </trkpt>
      <trkpt lat="44.43456" lon="1.32629">
        <ele>265</ele>
        <time>2019-04-14T11:20:49Z</time>
      </trkpt>
      <trkpt lat="44.43457" lon="1.32628">
        <ele>265</ele>
        <time>2019-04-14T11:20:50Z</time>
      </trkpt>
      <trkpt lat="44.43458" lon="1.32626">
        <ele>265</ele>
        <time>2019-04-14T11:20:51Z</time>
      </trkpt>
      <trkpt lat="44.4346" lon="1.32625">
        <ele>265</ele>
        <time>2019-04-14T11:20:52Z</time>
      </trkpt>
      <trkpt lat="44.43461" lon="1.32624">
        <ele>266</ele>
        <time>2019-04-14T11:20:53Z</time>
      </trkpt>
      <trkpt lat="44.43462" lon="1.32623">
        <ele>266</ele>
        <time>2019-04-14T11:20:54Z</time>
      </trkpt>
      <trkpt lat="44.43464" lon="1.32621">
        <ele>266</ele>
        <time>2019-04-14T11:20:55Z</time>
      </trkpt>
      <trkpt lat="44.43465" lon="1.32618">
        <ele>266</ele>
        <time>2019-04-14T11:20:56Z</time>
      </trkpt>
      <trkpt lat="44.43466" lon="1.32617">
        <ele>266</ele>
        <time>2019-04-14T11:20:57Z</time>
      </trkpt>
      <trkpt lat="44.43467" lon="1.32616">
        <ele>267</ele>
        <time>2019-04-14T11:20:58Z</time>
      </trkpt>
      <trkpt lat="44.43468" lon="1.32614">
        <ele>267</ele>
        <time>2019-04-14T11:20:59Z</time>
      </trkpt>
      <trkpt lat="44.43469" lon="1.32613">
        <ele>267</ele>
        <time>2019-04-14T11:21:00Z</time>
      </trkpt>
      <trkpt lat="44.43469" lon="1.32612">
        <ele>267</ele>
        <time>2019-04-14T11:21:01Z</time>
      </trkpt>
      <trkpt lat="44.4347" lon="1.32612">
        <ele>267</ele>
        <time>2019-04-14T11:21:02Z</time>
      </trkpt>
      <trkpt lat="44.4347" lon="1.32611">
        <ele>267</ele>
        <time>2019-04-14T11:21:03Z</time>
      </trkpt>
      <trkpt lat="44.4347" lon="1.32611">
        <ele>267</ele>
        <time>2019-04-14T11:21:04Z</time>
      </trkpt>
      <trkpt lat="44.4347" lon="1.32611">
        <ele>267</ele>
        <time>2019-04-14T11:21:05Z</time>
      </trkpt>
      <trkpt lat="44.4347" lon="1.32611">
        <ele>267</ele>
        <time>2019-04-14T11:21:06Z</time>
      </trkpt>
      <trkpt lat="44.4347" lon="1.32611">
        <ele>267</ele>
        <time>2019-04-14T11:21:07Z</time>
      </trkpt>
      <trkpt lat="44.4347" lon="1.3261">
        <ele>267</ele>
        <time>2019-04-14T11:21:08Z</time>
      </trkpt>
      <trkpt lat="44.43486" lon="1.32586">
        <ele>270</ele>
        <time>2019-04-14T11:21:24Z</time>
      </trkpt>
      <trkpt lat="44.43487" lon="1.32584">
        <ele>271</ele>
        <time>2019-04-14T11:21:25Z</time>
      </trkpt>
      <trkpt lat="44.43488" lon="1.32583">
        <ele>271</ele>
        <time>2019-04-14T11:21:26Z</time>
      </trkpt>
      <trkpt lat="44.43489" lon="1.32581">
        <ele>271</ele>
        <time>2019-04-14T11:21:27Z</time>
      </trkpt>
      <trkpt lat="44.4349" lon="1.32578">
        <ele>271</ele>
        <time>2019-04-14T11:21:28Z</time>
      </trkpt>
      <trkpt lat="44.43491" lon="1.32575">
        <ele>271</ele>
        <time>2019-04-14T11:21:29Z</time>
      </trkpt>
      <trkpt lat="44.43491" lon="1.32572">
        <ele>271</ele>
        <time>2019-04-14T11:21:30Z</time>
      </trkpt>
      <trkpt lat="44.43492" lon="1.32569">
        <ele>272</ele>
        <time>2019-04-14T11:21:31Z</time>
      </trkpt>
      <trkpt lat="44.43494" lon="1.32567">
        <ele>272</ele>
        <time>2019-04-14T11:21:32Z</time>
      </trkpt>
      <trkpt lat="44.43494" lon="1.32563">
        <ele>272</ele>
        <time>2019-04-14T11:21:33Z</time>
      </trkpt>
      <trkpt lat="44.43496" lon="1.32562">
        <ele>272</ele>
        <time>2019-04-14T11:21:34Z</time>
      </trkpt>
      <trkpt lat="44.43497" lon="1.32559">
        <ele>272</ele>
        <time>2019-04-14T11:21:35Z</time>
      </trkpt>
      <trkpt lat="44.43497" lon="1.32556">
        <ele>273</ele>
        <time>2019-04-14T11:21:36Z</time>
      </trkpt>
      <trkpt lat="44.43498" lon="1.32553">
        <ele>273</ele>
        <time>2019-04-14T11:21:37Z</time>
      </trkpt>
      <trkpt lat="44.43499" lon="1.3255">
        <ele>273</ele>
        <time>2019-04-14T11:21:38Z</time>
      </trkpt>
      <trkpt lat="44.435" lon="1.32547">
        <ele>273</ele>
        <time>2019-04-14T11:21:39Z</time>
      </trkpt>
      <trkpt lat="44.43501" lon="1.32544">
        <ele>273</ele>
        <time>2019-04-14T11:21:40Z</time>
      </trkpt>
      <trkpt lat="44.43502" lon="1.32541">
        <ele>273</ele>
        <time>2019-04-14T11:21:41Z</time>
      </trkpt>
      <trkpt lat="44.43502" lon="1.32538">
        <ele>273</ele>
        <time>2019-04-14T11:21:42Z</time>
      </trkpt>
      <trkpt lat="44.43503" lon="1.32535">
        <ele>273</ele>
        <time>2019-04-14T11:21:43Z</time>
      </trkpt>
      <trkpt lat="44.43503" lon="1.32532">
        <ele>273</ele>
        <time>2019-04-14T11:21:44Z</time>
      </trkpt>
      <trkpt lat="44.43503" lon="1.32529">
        <ele>273</ele>
        <time>2019-04-14T11:21:45Z</time>
      </trkpt>
      <trkpt lat="44.43504" lon="1.32525">
        <ele>274</ele>
        <time>2019-04-14T11:21:46Z</time>
      </trkpt>
      <trkpt lat="44.43504" lon="1.32522">
        <ele>274</ele>
        <time>2019-04-14T11:21:47Z</time>
      </trkpt>
      <trkpt lat="44.43504" lon="1.32519">
        <ele>274</ele>
        <time>2019-04-14T11:21:48Z</time>
      </trkpt>
      <trkpt lat="44.43505" lon="1.32516">
        <ele>274</ele>
        <time>2019-04-14T11:21:49Z</time>
      </trkpt>
      <trkpt lat="44.43505" lon="1.32513">
        <ele>274</ele>
        <time>2019-04-14T11:21:50Z</time>
      </trkpt>
      <trkpt lat="44.43505" lon="1.3251">
        <ele>274</ele>
        <time>2019-04-14T11:21:51Z</time>
      </trkpt>
      <trkpt lat="44.43506" lon="1.32506">
        <ele>274</ele>
        <time>2019-04-14T11:21:52Z</time>
      </trkpt>
      <trkpt lat="44.43506" lon="1.32502">
        <ele>274</ele>
        <time>2019-04-14T11:21:53Z</time>
      </trkpt>
      <trkpt lat="44.43507" lon="1.32498">
        <ele>274</ele>
        <time>2019-04-14T11:21:54Z</time>
      </trkpt>
      <trkpt lat="44.43507" lon="1.32495">
        <ele>274</ele>
        <time>2019-04-14T11:21:55Z</time>
      </trkpt>
      <trkpt lat="44.43508" lon="1.32492">
        <ele>274</ele>
        <time>2019-04-14T11:21:56Z</time>
      </trkpt>
      <trkpt lat="44.43509" lon="1.32489">
        <ele>275</ele>
        <time>2019-04-14T11:21:57Z</time>
      </trkpt>
      <trkpt lat="44.4351" lon="1.32487">
        <ele>275</ele>
        <time>2019-04-14T11:21:58Z</time>
      </trkpt>
      <trkpt lat="44.43512" lon="1.32484">
        <ele>275</ele>
        <time>2019-04-14T11:21:59Z</time>
      </trkpt>
      <trkpt lat="44.43513" lon="1.32481">
        <ele>275</ele>
        <time>2019-04-14T11:22:00Z</time>
      </trkpt>
      <trkpt lat="44.43515" lon="1.32478">
        <ele>275</ele>
        <time>2019-04-14T11:22:01Z</time>
      </trkpt>
      <trkpt lat="44.43516" lon="1.32474">
        <ele>275</ele>
        <time>2019-04-14T11:22:02Z</time>
      </trkpt>
      <trkpt lat="44.43517" lon="1.32471">
        <ele>275</ele>
        <time>2019-04-14T11:22:03Z</time>
      </trkpt>
      <trkpt lat="44.43519" lon="1.32468">
        <ele>275</ele>
        <time>2019-04-14T11:22:04Z</time>
      </trkpt>
      <trkpt lat="44.4352" lon="1.32465">
        <ele>275</ele>
        <time>2019-04-14T11:22:05Z</time>
      </trkpt>
      <trkpt lat="44.4352" lon="1.32461">
        <ele>275</ele>
        <time>2019-04-14T11:22:06Z</time>
      </trkpt>
      <trkpt lat="44.43521" lon="1.32458">
        <ele>275</ele>
        <time>2019-04-14T11:22:07Z</time>
      </trkpt>
      <trkpt lat="44.43523" lon="1.32455">
        <ele>275</ele>
        <time>2019-04-14T11:22:08Z</time>
      </trkpt>
      <trkpt lat="44.43525" lon="1.32453">
        <ele>275</ele>
        <time>2019-04-14T11:22:09Z</time>
      </trkpt>
      <trkpt lat="44.43528" lon="1.32452">
        <ele>275</ele>
        <time>2019-04-14T11:22:10Z</time>
      </trkpt>
      <trkpt lat="44.4353" lon="1.32451">
        <ele>275</ele>
        <time>2019-04-14T11:22:11Z</time>
      </trkpt>
      <trkpt lat="44.43533" lon="1.32451">
        <ele>275</ele>
        <time>2019-04-14T11:22:12Z</time>
      </trkpt>
      <trkpt lat="44.43535" lon="1.3245">
        <ele>275</ele>
        <time>2019-04-14T11:22:13Z</time>
      </trkpt>
      <trkpt lat="44.43537" lon="1.32449">
        <ele>275</ele>
        <time>2019-04-14T11:22:14Z</time>
      </trkpt>
      <trkpt lat="44.43539" lon="1.32448">
        <ele>275</ele>
        <time>2019-04-14T11:22:15Z</time>
      </trkpt>
      <trkpt lat="44.43541" lon="1.32446">
        <ele>275</ele>
        <time>2019-04-14T11:22:16Z</time>
      </trkpt>
      <trkpt lat="44.43544" lon="1.32445">
        <ele>275</ele>
        <time>2019-04-14T11:22:17Z</time>
      </trkpt>
      <trkpt lat="44.43546" lon="1.32444">
        <ele>275</ele>
        <time>2019-04-14T11:22:18Z</time>
      </trkpt>
      <trkpt lat="44.43548" lon="1.32443">
        <ele>275</ele>
        <time>2019-04-14T11:22:19Z</time>
      </trkpt>
      <trkpt lat="44.4355" lon="1.32441">
        <ele>275</ele>
        <time>2019-04-14T11:22:20Z</time>
      </trkpt>
      <trkpt lat="44.43552" lon="1.3244">
        <ele>275</ele>
        <time>2019-04-14T11:22:21Z</time>
      </trkpt>
      <trkpt lat="44.43555" lon="1.32441">
        <ele>275</ele>
        <time>2019-04-14T11:22:22Z</time>
      </trkpt>
      <trkpt lat="44.43558" lon="1.32442">
        <ele>275</ele>
        <time>2019-04-14T11:22:23Z</time>
      </trkpt>
      <trkpt lat="44.43561" lon="1.32444">
        <ele>275</ele>
        <time>2019-04-14T11:22:24Z</time>
      </trkpt>
      <trkpt lat="44.43563" lon="1.32447">
        <ele>275</ele>
        <time>2019-04-14T11:22:25Z</time>
      </trkpt>
      <trkpt lat="44.43563" lon="1.32451">
        <ele>275</ele>
        <time>2019-04-14T11:22:26Z</time>
      </trkpt>
      <trkpt lat="44.43563" lon="1.32454">
        <ele>275</ele>
        <time>2019-04-14T11:22:27Z</time>
      </trkpt>
      <trkpt lat="44.43563" lon="1.32458">
        <ele>275</ele>
        <time>2019-04-14T11:22:28Z</time>
      </trkpt>
      <trkpt lat="44.43563" lon="1.32462">
        <ele>275</ele>
        <time>2019-04-14T11:22:29Z</time>
      </trkpt>
      <trkpt lat="44.43562" lon="1.32466">
        <ele>275</ele>
        <time>2019-04-14T11:22:30Z</time>
      </trkpt>
      <trkpt lat="44.43561" lon="1.3247">
        <ele>275</ele>
        <time>2019-04-14T11:22:31Z</time>
      </trkpt>
      <trkpt lat="44.4356" lon="1.32473">
        <ele>275</ele>
        <time>2019-04-14T11:22:32Z</time>
      </trkpt>
      <trkpt lat="44.43559" lon="1.32476">
        <ele>275</ele>
        <time>2019-04-14T11:22:33Z</time>
      </trkpt>
      <trkpt lat="44.43558" lon="1.3248">
        <ele>275</ele>
        <time>2019-04-14T11:22:34Z</time>
      </trkpt>
      <trkpt lat="44.43556" lon="1.32484">
        <ele>275</ele>
        <time>2019-04-14T11:22:35Z</time>
      </trkpt>
      <trkpt lat="44.43555" lon="1.32488">
        <ele>275</ele>
        <time>2019-04-14T11:22:36Z</time>
      </trkpt>
      <trkpt lat="44.43554" lon="1.32492">
        <ele>275</ele>
        <time>2019-04-14T11:22:37Z</time>
      </trkpt>
      <trkpt lat="44.43553" lon="1.32496">
        <ele>275</ele>
        <time>2019-04-14T11:22:38Z</time>
      </trkpt>
      <trkpt lat="44.43552" lon="1.32501">
        <ele>276</ele>
        <time>2019-04-14T11:22:39Z</time>
      </trkpt>
      <trkpt lat="44.43552" lon="1.32506">
        <ele>276</ele>
        <time>2019-04-14T11:22:40Z</time>
      </trkpt>
      <trkpt lat="44.43552" lon="1.32511">
        <ele>276</ele>
        <time>2019-04-14T11:22:41Z</time>
      </trkpt>
      <trkpt lat="44.43552" lon="1.32516">
        <ele>276</ele>
        <time>2019-04-14T11:22:42Z</time>
      </trkpt>
      <trkpt lat="44.43554" lon="1.3252">
        <ele>276</ele>
        <time>2019-04-14T11:22:43Z</time>
      </trkpt>
      <trkpt lat="44.43556" lon="1.32525">
        <ele>276</ele>
        <time>2019-04-14T11:22:44Z</time>
      </trkpt>
      <trkpt lat="44.43558" lon="1.32529">
        <ele>276</ele>
        <time>2019-04-14T11:22:45Z</time>
      </trkpt>
      <trkpt lat="44.4356" lon="1.32534">
        <ele>276</ele>
        <time>2019-04-14T11:22:46Z</time>
      </trkpt>
      <trkpt lat="44.43562" lon="1.32538">
        <ele>276</ele>
        <time>2019-04-14T11:22:47Z</time>
      </trkpt>
      <trkpt lat="44.43564" lon="1.32542">
        <ele>276</ele>
        <time>2019-04-14T11:22:48Z</time>
      </trkpt>
      <trkpt lat="44.43567" lon="1.32547">
        <ele>276</ele>
        <time>2019-04-14T11:22:49Z</time>
      </trkpt>
      <trkpt lat="44.43568" lon="1.32551">
        <ele>276</ele>
        <time>2019-04-14T11:22:50Z</time>
      </trkpt>
      <trkpt lat="44.43571" lon="1.32556">
        <ele>276</ele>
        <time>2019-04-14T11:22:51Z</time>
      </trkpt>
      <trkpt lat="44.43573" lon="1.3256">
        <ele>276</ele>
        <time>2019-04-14T11:22:52Z</time>
      </trkpt>
      <trkpt lat="44.43574" lon="1.32565">
        <ele>276</ele>
        <time>2019-04-14T11:22:53Z</time>
      </trkpt>
      <trkpt lat="44.43576" lon="1.3257">
        <ele>276</ele>
        <time>2019-04-14T11:22:54Z</time>
      </trkpt>
      <trkpt lat="44.43578" lon="1.32575">
        <ele>276</ele>
        <time>2019-04-14T11:22:55Z</time>
      </trkpt>
      <trkpt lat="44.43579" lon="1.3258">
        <ele>276</ele>
        <time>2019-04-14T11:22:56Z</time>
      </trkpt>
      <trkpt lat="44.43581" lon="1.32585">
        <ele>277</ele>
        <time>2019-04-14T11:22:57Z</time>
      </trkpt>
      <trkpt lat="44.43582" lon="1.3259">
        <ele>277</ele>
        <time>2019-04-14T11:22:58Z</time>
      </trkpt>
      <trkpt lat="44.43583" lon="1.32596">
        <ele>276</ele>
        <time>2019-04-14T11:22:59Z</time>
      </trkpt>
      <trkpt lat="44.43584" lon="1.32601">
        <ele>277</ele>
        <time>2019-04-14T11:23:00Z</time>
      </trkpt>
      <trkpt lat="44.43585" lon="1.32606">
        <ele>276</ele>
        <time>2019-04-14T11:23:01Z</time>
      </trkpt>
      <trkpt lat="44.43586" lon="1.32612">
        <ele>277</ele>
        <time>2019-04-14T11:23:02Z</time>
      </trkpt>
      <trkpt lat="44.43587" lon="1.32617">
        <ele>276</ele>
        <time>2019-04-14T11:23:03Z</time>
      </trkpt>
      <trkpt lat="44.43587" lon="1.32623">
        <ele>276</ele>
        <time>2019-04-14T11:23:04Z</time>
      </trkpt>
      <trkpt lat="44.43588" lon="1.32628">
        <ele>276</ele>
        <time>2019-04-14T11:23:05Z</time>
      </trkpt>
      <trkpt lat="44.43589" lon="1.32634">
        <ele>276</ele>
        <time>2019-04-14T11:23:06Z</time>
      </trkpt>
      <trkpt lat="44.4359" lon="1.32639">
        <ele>276</ele>
        <time>2019-04-14T11:23:07Z</time>
      </trkpt>
      <trkpt lat="44.43591" lon="1.32645">
        <ele>277</ele>
        <time>2019-04-14T11:23:08Z</time>
      </trkpt>
      <trkpt lat="44.43592" lon="1.3265">
        <ele>276</ele>
        <time>2019-04-14T11:23:09Z</time>
      </trkpt>
      <trkpt lat="44.43593" lon="1.32656">
        <ele>276</ele>
        <time>2019-04-14T11:23:10Z</time>
      </trkpt>
      <trkpt lat="44.43594" lon="1.32662">
        <ele>276</ele>
        <time>2019-04-14T11:23:11Z</time>
      </trkpt>
      <trkpt lat="44.43595" lon="1.32668">
        <ele>277</ele>
        <time>2019-04-14T11:23:12Z</time>
      </trkpt>
      <trkpt lat="44.43597" lon="1.32672">
        <ele>277</ele>
        <time>2019-04-14T11:23:13Z</time>
      </trkpt>
      <trkpt lat="44.43599" lon="1.32677">
        <ele>277</ele>
        <time>2019-04-14T11:23:14Z</time>
      </trkpt>
      <trkpt lat="44.43602" lon="1.3268">
        <ele>277</ele>
        <time>2019-04-14T11:23:15Z</time>
      </trkpt>
      <trkpt lat="44.43606" lon="1.32681">
        <ele>276</ele>
        <time>2019-04-14T11:23:16Z</time>
      </trkpt>
      <trkpt lat="44.43609" lon="1.32682">
        <ele>276</ele>
        <time>2019-04-14T11:23:17Z</time>
      </trkpt>
      <trkpt lat="44.43613" lon="1.32682">
        <ele>276</ele>
        <time>2019-04-14T11:23:18Z</time>
      </trkpt>
      <trkpt lat="44.43616" lon="1.32682">
        <ele>276</ele>
        <time>2019-04-14T11:23:19Z</time>
      </trkpt>
      <trkpt lat="44.4362" lon="1.32682">
        <ele>276</ele>
        <time>2019-04-14T11:23:20Z</time>
      </trkpt>
      <trkpt lat="44.43624" lon="1.32682">
        <ele>276</ele>
        <time>2019-04-14T11:23:21Z</time>
      </trkpt>
      <trkpt lat="44.43628" lon="1.32682">
        <ele>276</ele>
        <time>2019-04-14T11:23:22Z</time>
      </trkpt>
      <trkpt lat="44.43632" lon="1.32682">
        <ele>276</ele>
        <time>2019-04-14T11:23:23Z</time>
      </trkpt>
      <trkpt lat="44.43636" lon="1.32682">
        <ele>275</ele>
        <time>2019-04-14T11:23:24Z</time>
      </trkpt>
      <trkpt lat="44.43641" lon="1.32682">
        <ele>275</ele>
        <time>2019-04-14T11:23:25Z</time>
      </trkpt>
      <trkpt lat="44.43645" lon="1.32683">
        <ele>275</ele>
        <time>2019-04-14T11:23:26Z</time>
      </trkpt>
      <trkpt lat="44.4365" lon="1.32683">
        <ele>275</ele>
        <time>2019-04-14T11:23:27Z</time>
      </trkpt>
      <trkpt lat="44.43654" lon="1.32684">
        <ele>275</ele>
        <time>2019-04-14T11:23:28Z</time>
      </trkpt>
      <trkpt lat="44.43659" lon="1.32685">
        <ele>275</ele>
        <time>2019-04-14T11:23:29Z</time>
      </trkpt>
      <trkpt lat="44.43664" lon="1.32686">
        <ele>275</ele>
        <time>2019-04-14T11:23:30Z</time>
      </trkpt>
      <trkpt lat="44.43669" lon="1.32688">
        <ele>275</ele>
        <time>2019-04-14T11:23:31Z</time>
      </trkpt>
      <trkpt lat="44.43674" lon="1.32689">
        <ele>274</ele>
        <time>2019-04-14T11:23:32Z</time>
      </trkpt>
      <trkpt lat="44.43679" lon="1.32691">
        <ele>274</ele>
        <time>2019-04-14T11:23:33Z</time>
      </trkpt>
      <trkpt lat="44.43683" lon="1.32693">
        <ele>274</ele>
        <time>2019-04-14T11:23:34Z</time>
      </trkpt>
      <trkpt lat="44.43689" lon="1.32695">
        <ele>274</ele>
        <time>2019-04-14T11:23:35Z</time>
      </trkpt>
      <trkpt lat="44.43694" lon="1.32697">
        <ele>274</ele>
        <time>2019-04-14T11:23:36Z</time>
      </trkpt>
      <trkpt lat="44.43699" lon="1.32699">
        <ele>274</ele>
        <time>2019-04-14T11:23:37Z</time>
      </trkpt>
      <trkpt lat="44.43704" lon="1.32701">
        <ele>274</ele>
        <time>2019-04-14T11:23:38Z</time>
      </trkpt>
      <trkpt lat="44.43708" lon="1.32703">
        <ele>274</ele>
        <time>2019-04-14T11:23:39Z</time>
      </trkpt>
      <trkpt lat="44.43712" lon="1.32706">
        <ele>273</ele>
        <time>2019-04-14T11:23:40Z</time>
      </trkpt>
      <trkpt lat="44.43717" lon="1.32709">
        <ele>273</ele>
        <time>2019-04-14T11:23:41Z</time>
      </trkpt>
      <trkpt lat="44.43722" lon="1.32712">
        <ele>273</ele>
        <time>2019-04-14T11:23:42Z</time>
      </trkpt>
      <trkpt lat="44.43728" lon="1.32714">
        <ele>273</ele>
        <time>2019-04-14T11:23:43Z</time>
      </trkpt>
      <trkpt lat="44.43733" lon="1.32717">
        <ele>273</ele>
        <time>2019-04-14T11:23:44Z</time>
      </trkpt>
      <trkpt lat="44.43738" lon="1.3272">
        <ele>273</ele>
        <time>2019-04-14T11:23:45Z</time>
      </trkpt>
      <trkpt lat="44.43743" lon="1.32722">
        <ele>272</ele>
        <time>2019-04-14T11:23:46Z</time>
      </trkpt>
      <trkpt lat="44.43749" lon="1.32725">
        <ele>272</ele>
        <time>2019-04-14T11:23:47Z</time>
      </trkpt>
      <trkpt lat="44.43755" lon="1.32727">
        <ele>272</ele>
        <time>2019-04-14T11:23:48Z</time>
      </trkpt>
      <trkpt lat="44.4376" lon="1.3273">
        <ele>272</ele>
        <time>2019-04-14T11:23:49Z</time>
      </trkpt>
      <trkpt lat="44.43766" lon="1.32733">
        <ele>272</ele>
        <time>2019-04-14T11:23:50Z</time>
      </trkpt>
      <trkpt lat="44.43771" lon="1.32736">
        <ele>272</ele>
        <time>2019-04-14T11:23:51Z</time>
      </trkpt>
      <trkpt lat="44.43776" lon="1.32738">
        <ele>272</ele>
        <time>2019-04-14T11:23:52Z</time>
      </trkpt>
      <trkpt lat="44.43781" lon="1.3274">
        <ele>272</ele>
        <time>2019-04-14T11:23:53Z</time>
      </trkpt>
      <trkpt lat="44.43785" lon="1.32742">
        <ele>271</ele>
        <time>2019-04-14T11:23:54Z</time>
      </trkpt>
      <trkpt lat="44.4379" lon="1.32744">
        <ele>271</ele>
        <time>2019-04-14T11:23:55Z</time>
      </trkpt>
      <trkpt lat="44.43795" lon="1.32746">
        <ele>271</ele>
        <time>2019-04-14T11:23:56Z</time>
      </trkpt>
      <trkpt lat="44.43798" lon="1.3275">
        <ele>271</ele>
        <time>2019-04-14T11:23:57Z</time>
      </trkpt>
      <trkpt lat="44.43801" lon="1.32754">
        <ele>271</ele>
        <time>2019-04-14T11:23:58Z</time>
      </trkpt>
      <trkpt lat="44.43804" lon="1.32759">
        <ele>271</ele>
        <time>2019-04-14T11:23:59Z</time>
      </trkpt>
      <trkpt lat="44.43808" lon="1.32763">
        <ele>271</ele>
        <time>2019-04-14T11:24:00Z</time>
      </trkpt>
      <trkpt lat="44.43812" lon="1.32767">
        <ele>271</ele>
        <time>2019-04-14T11:24:01Z</time>
      </trkpt>
      <trkpt lat="44.43816" lon="1.3277">
        <ele>271</ele>
        <time>2019-04-14T11:24:02Z</time>
      </trkpt>
      <trkpt lat="44.43821" lon="1.32773">
        <ele>271</ele>
        <time>2019-04-14T11:24:03Z</time>
      </trkpt>
      <trkpt lat="44.43825" lon="1.32776">
        <ele>271</ele>
        <time>2019-04-14T11:24:04Z</time>
      </trkpt>
      <trkpt lat="44.43829" lon="1.32778">
        <ele>271</ele>
        <time>2019-04-14T11:24:05Z</time>
      </trkpt>
      <trkpt lat="44.43833" lon="1.32781">
        <ele>270</ele>
        <time>2019-04-14T11:24:06Z</time>
      </trkpt>
      <trkpt lat="44.43837" lon="1.32784">
        <ele>270</ele>
        <time>2019-04-14T11:24:07Z</time>
      </trkpt>
      <trkpt lat="44.43841" lon="1.32786">
        <ele>270</ele>
        <time>2019-04-14T11:24:08Z</time>
      </trkpt>
      <trkpt lat="44.43844" lon="1.32788">
        <ele>270</ele>
        <time>2019-04-14T11:24:09Z</time>
      </trkpt>
      <trkpt lat="44.43847" lon="1.32791">
        <ele>270</ele>
        <time>2019-04-14T11:24:10Z</time>
      </trkpt>
      <trkpt lat="44.4385" lon="1.32793">
        <ele>270</ele>
        <time>2019-04-14T11:24:11Z</time>
      </trkpt>
      <trkpt lat="44.43853" lon="1.32795">
        <ele>270</ele>
        <time>2019-04-14T11:24:12Z</time>
      </trkpt>
      <trkpt lat="44.43857" lon="1.32797">
        <ele>270</ele>
        <time>2019-04-14T11:24:13Z</time>
      </trkpt>
      <trkpt lat="44.43861" lon="1.32799">
        <ele>270</ele>
        <time>2019-04-14T11:24:14Z</time>
      </trkpt>
      <trkpt lat="44.43865" lon="1.32802">
        <ele>270</ele>
        <time>2019-04-14T11:24:15Z</time>
      </trkpt>
      <trkpt lat="44.43869" lon="1.32804">
        <ele>270</ele>
        <time>2019-04-14T11:24:16Z</time>
      </trkpt>
      <trkpt lat="44.43872" lon="1.32806">
        <ele>270</ele>
        <time>2019-04-14T11:24:17Z</time>
      </trkpt>
      <trkpt lat="44.43876" lon="1.32808">
        <ele>270</ele>
        <time>2019-04-14T11:24:18Z</time>
      </trkpt>
      <trkpt lat="44.43881" lon="1.32809">
        <ele>270</ele>
        <time>2019-04-14T11:24:19Z</time>
      </trkpt>
      <trkpt lat="44.43885" lon="1.3281">
        <ele>270</ele>
        <time>2019-04-14T11:24:20Z</time>
      </trkpt>
      <trkpt lat="44.4389" lon="1.32811">
        <ele>270</ele>
        <time>2019-04-14T11:24:21Z</time>
      </trkpt>
      <trkpt lat="44.43895" lon="1.32812">
        <ele>270</ele>
        <time>2019-04-14T11:24:22Z</time>
      </trkpt>
      <trkpt lat="44.43899" lon="1.32813">
        <ele>270</ele>
        <time>2019-04-14T11:24:23Z</time>
      </trkpt>
      <trkpt lat="44.43902" lon="1.32814">
        <ele>270</ele>
        <time>2019-04-14T11:24:24Z</time>
      </trkpt>
      <trkpt lat="44.43906" lon="1.32815">
        <ele>270</ele>
        <time>2019-04-14T11:24:25Z</time>
      </trkpt>
      <trkpt lat="44.43911" lon="1.32815">
        <ele>270</ele>
        <time>2019-04-14T11:24:26Z</time>
      </trkpt>
      <trkpt lat="44.43915" lon="1.32816">
        <ele>271</ele>
        <time>2019-04-14T11:24:27Z</time>
      </trkpt>
      <trkpt lat="44.43919" lon="1.32817">
        <ele>271</ele>
        <time>2019-04-14T11:24:28Z</time>
      </trkpt>
      <trkpt lat="44.43922" lon="1.32817">
        <ele>271</ele>
        <time>2019-04-14T11:24:29Z</time>
      </trkpt>
      <trkpt lat="44.43926" lon="1.32817">
        <ele>271</ele>
        <time>2019-04-14T11:24:30Z</time>
      </trkpt>
      <trkpt lat="44.4393" lon="1.32817">
        <ele>271</ele>
        <time>2019-04-14T11:24:31Z</time>
      </trkpt>
      <trkpt lat="44.43933" lon="1.32817">
        <ele>271</ele>
        <time>2019-04-14T11:24:32Z</time>
      </trkpt>
      <trkpt lat="44.43937" lon="1.32817">
        <ele>271</ele>
        <time>2019-04-14T11:24:33Z</time>
      </trkpt>
      <trkpt lat="44.43941" lon="1.32817">
        <ele>271</ele>
        <time>2019-04-14T11:24:34Z</time>
      </trkpt>
      <trkpt lat="44.43944" lon="1.32817">
        <ele>271</ele>
        <time>2019-04-14T11:24:35Z</time>
      </trkpt>
      <trkpt lat="44.43949" lon="1.32816">
        <ele>270</ele>
        <time>2019-04-14T11:24:36Z</time>
      </trkpt>
      <trkpt lat="44.43952" lon="1.32816">
        <ele>270</ele>
        <time>2019-04-14T11:24:37Z</time>
      </trkpt>
      <trkpt lat="44.43957" lon="1.32816">
        <ele>270</ele>
        <time>2019-04-14T11:24:38Z</time>
      </trkpt>
      <trkpt lat="44.43961" lon="1.32815">
        <ele>270</ele>
        <time>2019-04-14T11:24:39Z</time>
      </trkpt>
      <trkpt lat="44.43966" lon="1.32815">
        <ele>270</ele>
        <time>2019-04-14T11:24:40Z</time>
      </trkpt>
      <trkpt lat="44.4397" lon="1.32814">
        <ele>270</ele>
        <time>2019-04-14T11:24:41Z</time>
      </trkpt>
      <trkpt lat="44.43975" lon="1.32813">
        <ele>269</ele>
        <time>2019-04-14T11:24:42Z</time>
      </trkpt>
      <trkpt lat="44.4398" lon="1.32811">
        <ele>269</ele>
        <time>2019-04-14T11:24:43Z</time>
      </trkpt>
      <trkpt lat="44.43985" lon="1.32811">
        <ele>269</ele>
        <time>2019-04-14T11:24:44Z</time>
      </trkpt>
      <trkpt lat="44.4399" lon="1.32809">
        <ele>269</ele>
        <time>2019-04-14T11:24:45Z</time>
      </trkpt>
      <trkpt lat="44.43996" lon="1.32808">
        <ele>268</ele>
        <time>2019-04-14T11:24:46Z</time>
      </trkpt>
      <trkpt lat="44.44003" lon="1.32807">
        <ele>268</ele>
        <time>2019-04-14T11:24:47Z</time>
      </trkpt>
      <trkpt lat="44.4401" lon="1.32807">
        <ele>267</ele>
        <time>2019-04-14T11:24:48Z</time>
      </trkpt>
      <trkpt lat="44.44017" lon="1.32807">
        <ele>266</ele>
        <time>2019-04-14T11:24:49Z</time>
      </trkpt>
      <trkpt lat="44.44024" lon="1.32808">
        <ele>265</ele>
        <time>2019-04-14T11:24:50Z</time>
      </trkpt>
      <trkpt lat="44.44032" lon="1.3281">
        <ele>264</ele>
        <time>2019-04-14T11:24:51Z</time>
      </trkpt>
      <trkpt lat="44.44041" lon="1.32813">
        <ele>263</ele>
        <time>2019-04-14T11:24:52Z</time>
      </trkpt>
      <trkpt lat="44.44049" lon="1.32816">
        <ele>261</ele>
        <time>2019-04-14T11:24:53Z</time>
      </trkpt>
      <trkpt lat="44.44057" lon="1.32819">
        <ele>260</ele>
        <time>2019-04-14T11:24:54Z</time>
      </trkpt>
      <trkpt lat="44.44066" lon="1.32823">
        <ele>259</ele>
        <time>2019-04-14T11:24:55Z</time>
      </trkpt>
      <trkpt lat="44.44075" lon="1.32826">
        <ele>257</ele>
        <time>2019-04-14T11:24:56Z</time>
      </trkpt>
      <trkpt lat="44.44084" lon="1.32829">
        <ele>256</ele>
        <time>2019-04-14T11:24:57Z</time>
      </trkpt>
      <trkpt lat="44.44092" lon="1.32833">
        <ele>255</ele>
        <time>2019-04-14T11:24:58Z</time>
      </trkpt>
      <trkpt lat="44.441" lon="1.32836">
        <ele>254</ele>
        <time>2019-04-14T11:24:59Z</time>
      </trkpt>
      <trkpt lat="44.44107" lon="1.32838">
        <ele>253</ele>
        <time>2019-04-14T11:25:00Z</time>
      </trkpt>
      <trkpt lat="44.44115" lon="1.32839">
        <ele>253</ele>
        <time>2019-04-14T11:25:01Z</time>
      </trkpt>
      <trkpt lat="44.44124" lon="1.32839">
        <ele>251</ele>
        <time>2019-04-14T11:25:02Z</time>
      </trkpt>
      <trkpt lat="44.44133" lon="1.32838">
        <ele>251</ele>
        <time>2019-04-14T11:25:03Z</time>
      </trkpt>
      <trkpt lat="44.44141" lon="1.32837">
        <ele>250</ele>
        <time>2019-04-14T11:25:04Z</time>
      </trkpt>
      <trkpt lat="44.4415" lon="1.32838">
        <ele>250</ele>
        <time>2019-04-14T11:25:05Z</time>
      </trkpt>
      <trkpt lat="44.44158" lon="1.3284">
        <ele>249</ele>
        <time>2019-04-14T11:25:06Z</time>
      </trkpt>
      <trkpt lat="44.44166" lon="1.32843">
        <ele>249</ele>
        <time>2019-04-14T11:25:07Z</time>
      </trkpt>
      <trkpt lat="44.44173" lon="1.32846">
        <ele>249</ele>
        <time>2019-04-14T11:25:08Z</time>
      </trkpt>
      <trkpt lat="44.4418" lon="1.3285">
        <ele>249</ele>
        <time>2019-04-14T11:25:09Z</time>
      </trkpt>
      <trkpt lat="44.44186" lon="1.32854">
        <ele>249</ele>
        <time>2019-04-14T11:25:10Z</time>
      </trkpt>
      <trkpt lat="44.44191" lon="1.32858">
        <ele>249</ele>
        <time>2019-04-14T11:25:11Z</time>
      </trkpt>
      <trkpt lat="44.44197" lon="1.32861">
        <ele>249</ele>
        <time>2019-04-14T11:25:12Z</time>
      </trkpt>
      <trkpt lat="44.44202" lon="1.32863">
        <ele>249</ele>
        <time>2019-04-14T11:25:13Z</time>
      </trkpt>
      <trkpt lat="44.44207" lon="1.32865">
        <ele>249</ele>
        <time>2019-04-14T11:25:14Z</time>
      </trkpt>
      <trkpt lat="44.44211" lon="1.32866">
        <ele>249</ele>
        <time>2019-04-14T11:25:15Z</time>
      </trkpt>
      <trkpt lat="44.44215" lon="1.32867">
        <ele>249</ele>
        <time>2019-04-14T11:25:16Z</time>
      </trkpt>
      <trkpt lat="44.44219" lon="1.32868">
        <ele>249</ele>
        <time>2019-04-14T11:25:17Z</time>
      </trkpt>
      <trkpt lat="44.44223" lon="1.32868">
        <ele>249</ele>
        <time>2019-04-14T11:25:18Z</time>
      </trkpt>
      <trkpt lat="44.44227" lon="1.32868">
        <ele>249</ele>
        <time>2019-04-14T11:25:19Z</time>
      </trkpt>
      <trkpt lat="44.44231" lon="1.32868">
        <ele>250</ele>
        <time>2019-04-14T11:25:20Z</time>
      </trkpt>
      <trkpt lat="44.44235" lon="1.32868">
        <ele>250</ele>
        <time>2019-04-14T11:25:21Z</time>
      </trkpt>
      <trkpt lat="44.44239" lon="1.32868">
        <ele>250</ele>
        <time>2019-04-14T11:25:22Z</time>
      </trkpt>
      <trkpt lat="44.44243" lon="1.32869">
        <ele>250</ele>
        <time>2019-04-14T11:25:23Z</time>
      </trkpt>
      <trkpt lat="44.44247" lon="1.32869">
        <ele>250</ele>
        <time>2019-04-14T11:25:24Z</time>
      </trkpt>
      <trkpt lat="44.4425" lon="1.3287">
        <ele>250</ele>
        <time>2019-04-14T11:25:25Z</time>
      </trkpt>
      <trkpt lat="44.44253" lon="1.3287">
        <ele>250</ele>
        <time>2019-04-14T11:25:26Z</time>
      </trkpt>
      <trkpt lat="44.44257" lon="1.32871">
        <ele>251</ele>
        <time>2019-04-14T11:25:27Z</time>
      </trkpt>
      <trkpt lat="44.4426" lon="1.32872">
        <ele>251</ele>
        <time>2019-04-14T11:25:28Z</time>
      </trkpt>
      <trkpt lat="44.44263" lon="1.32873">
        <ele>251</ele>
        <time>2019-04-14T11:25:29Z</time>
      </trkpt>
      <trkpt lat="44.44266" lon="1.32874">
        <ele>252</ele>
        <time>2019-04-14T11:25:30Z</time>
      </trkpt>
      <trkpt lat="44.44269" lon="1.32875">
        <ele>252</ele>
        <time>2019-04-14T11:25:31Z</time>
      </trkpt>
      <trkpt lat="44.44271" lon="1.32876">
        <ele>252</ele>
        <time>2019-04-14T11:25:32Z</time>
      </trkpt>
      <trkpt lat="44.44274" lon="1.32877">
        <ele>252</ele>
        <time>2019-04-14T11:25:33Z</time>
      </trkpt>
      <trkpt lat="44.44277" lon="1.32879">
        <ele>253</ele>
        <time>2019-04-14T11:25:34Z</time>
      </trkpt>
      <trkpt lat="44.44279" lon="1.3288">
        <ele>253</ele>
        <time>2019-04-14T11:25:35Z</time>
      </trkpt>
      <trkpt lat="44.44282" lon="1.32881">
        <ele>253</ele>
        <time>2019-04-14T11:25:36Z</time>
      </trkpt>
      <trkpt lat="44.44285" lon="1.32883">
        <ele>253</ele>
        <time>2019-04-14T11:25:37Z</time>
      </trkpt>
      <trkpt lat="44.44289" lon="1.32885">
        <ele>254</ele>
        <time>2019-04-14T11:25:38Z</time>
      </trkpt>
      <trkpt lat="44.44292" lon="1.32887">
        <ele>254</ele>
        <time>2019-04-14T11:25:39Z</time>
      </trkpt>
      <trkpt lat="44.44294" lon="1.32889">
        <ele>254</ele>
        <time>2019-04-14T11:25:40Z</time>
      </trkpt>
      <trkpt lat="44.44297" lon="1.3289">
        <ele>255</ele>
        <time>2019-04-14T11:25:41Z</time>
      </trkpt>
      <trkpt lat="44.44299" lon="1.32891">
        <ele>255</ele>
        <time>2019-04-14T11:25:42Z</time>
      </trkpt>
      <trkpt lat="44.443" lon="1.32891">
        <ele>255</ele>
        <time>2019-04-14T11:25:43Z</time>
      </trkpt>
      <trkpt lat="44.44303" lon="1.32892">
        <ele>256</ele>
        <time>2019-04-14T11:25:44Z</time>
      </trkpt>
      <trkpt lat="44.44306" lon="1.32893">
        <ele>256</ele>
        <time>2019-04-14T11:25:45Z</time>
      </trkpt>
      <trkpt lat="44.4431" lon="1.32896">
        <ele>256</ele>
        <time>2019-04-14T11:25:46Z</time>
      </trkpt>
      <trkpt lat="44.44313" lon="1.32898">
        <ele>256</ele>
        <time>2019-04-14T11:25:47Z</time>
      </trkpt>
      <trkpt lat="44.44316" lon="1.329">
        <ele>257</ele>
        <time>2019-04-14T11:25:48Z</time>
      </trkpt>
      <trkpt lat="44.44319" lon="1.32902">
        <ele>257</ele>
        <time>2019-04-14T11:25:49Z</time>
      </trkpt>
      <trkpt lat="44.44323" lon="1.32905">
        <ele>257</ele>
        <time>2019-04-14T11:25:50Z</time>
      </trkpt>
      <trkpt lat="44.44326" lon="1.32907">
        <ele>257</ele>
        <time>2019-04-14T11:25:51Z</time>
      </trkpt>
      <trkpt lat="44.44329" lon="1.32909">
        <ele>257</ele>
        <time>2019-04-14T11:25:52Z</time>
      </trkpt>
      <trkpt lat="44.44331" lon="1.32912">
        <ele>258</ele>
        <time>2019-04-14T11:25:53Z</time>
      </trkpt>
      <trkpt lat="44.44334" lon="1.32913">
        <ele>258</ele>
        <time>2019-04-14T11:25:54Z</time>
      </trkpt>
      <trkpt lat="44.44337" lon="1.32915">
        <ele>258</ele>
        <time>2019-04-14T11:25:55Z</time>
      </trkpt>
      <trkpt lat="44.44339" lon="1.32917">
        <ele>258</ele>
        <time>2019-04-14T11:25:56Z</time>
      </trkpt>
      <trkpt lat="44.44341" lon="1.32918">
        <ele>259</ele>
        <time>2019-04-14T11:25:57Z</time>
      </trkpt>
      <trkpt lat="44.44343" lon="1.32918">
        <ele>259</ele>
        <time>2019-04-14T11:25:58Z</time>
      </trkpt>
      <trkpt lat="44.44346" lon="1.3292">
        <ele>259</ele>
        <time>2019-04-14T11:25:59Z</time>
      </trkpt>
      <trkpt lat="44.44348" lon="1.32921">
        <ele>259</ele>
        <time>2019-04-14T11:26:00Z</time>
      </trkpt>
      <trkpt lat="44.44351" lon="1.32923">
        <ele>259</ele>
        <time>2019-04-14T11:26:01Z</time>
      </trkpt>
      <trkpt lat="44.44354" lon="1.32926">
        <ele>259</ele>
        <time>2019-04-14T11:26:02Z</time>
      </trkpt>
      <trkpt lat="44.44358" lon="1.32929">
        <ele>259</ele>
        <time>2019-04-14T11:26:03Z</time>
      </trkpt>
      <trkpt lat="44.44361" lon="1.32933">
        <ele>259</ele>
        <time>2019-04-14T11:26:04Z</time>
      </trkpt>
      <trkpt lat="44.44363" lon="1.32937">
        <ele>259</ele>
        <time>2019-04-14T11:26:05Z</time>
      </trkpt>
      <trkpt lat="44.44366" lon="1.32941">
        <ele>259</ele>
        <time>2019-04-14T11:26:06Z</time>
      </trkpt>
      <trkpt lat="44.44369" lon="1.32946">
        <ele>259</ele>
        <time>2019-04-14T11:26:07Z</time>
      </trkpt>
      <trkpt lat="44.44372" lon="1.32952">
        <ele>258</ele>
        <time>2019-04-14T11:26:08Z</time>
      </trkpt>
      <trkpt lat="44.44376" lon="1.32958">
        <ele>258</ele>
        <time>2019-04-14T11:26:09Z</time>
      </trkpt>
      <trkpt lat="44.4438" lon="1.32964">
        <ele>258</ele>
        <time>2019-04-14T11:26:10Z</time>
      </trkpt>
      <trkpt lat="44.44384" lon="1.32971">
        <ele>257</ele>
        <time>2019-04-14T11:26:11Z</time>
      </trkpt>
      <trkpt lat="44.44388" lon="1.32977">
        <ele>257</ele>
        <time>2019-04-14T11:26:12Z</time>
      </trkpt>
      <trkpt lat="44.44391" lon="1.32984">
        <ele>257</ele>
        <time>2019-04-14T11:26:13Z</time>
      </trkpt>
      <trkpt lat="44.44394" lon="1.32991">
        <ele>256</ele>
        <time>2019-04-14T11:26:14Z</time>
      </trkpt>
      <trkpt lat="44.44397" lon="1.32998">
        <ele>256</ele>
        <time>2019-04-14T11:26:15Z</time>
      </trkpt>
      <trkpt lat="44.44401" lon="1.33003">
        <ele>256</ele>
        <time>2019-04-14T11:26:16Z</time>
      </trkpt>
      <trkpt lat="44.44406" lon="1.33007">
        <ele>255</ele>
        <time>2019-04-14T11:26:17Z</time>
      </trkpt>
      <trkpt lat="44.44411" lon="1.33009">
        <ele>255</ele>
        <time>2019-04-14T11:26:18Z</time>
      </trkpt>
      <trkpt lat="44.44416" lon="1.3301">
        <ele>255</ele>
        <time>2019-04-14T11:26:19Z</time>
      </trkpt>
      <trkpt lat="44.44421" lon="1.33009">
        <ele>255</ele>
        <time>2019-04-14T11:26:20Z</time>
      </trkpt>
      <trkpt lat="44.44426" lon="1.33008">
        <ele>255</ele>
        <time>2019-04-14T11:26:21Z</time>
      </trkpt>
      <trkpt lat="44.4443" lon="1.33007">
        <ele>255</ele>
        <time>2019-04-14T11:26:22Z</time>
      </trkpt>
      <trkpt lat="44.44434" lon="1.33005">
        <ele>255</ele>
        <time>2019-04-14T11:26:23Z</time>
      </trkpt>
      <trkpt lat="44.44437" lon="1.33003">
        <ele>255</ele>
        <time>2019-04-14T11:26:24Z</time>
      </trkpt>
      <trkpt lat="44.44441" lon="1.33003">
        <ele>255</ele>
        <time>2019-04-14T11:26:25Z</time>
      </trkpt>
      <trkpt lat="44.44445" lon="1.33005">
        <ele>255</ele>
        <time>2019-04-14T11:26:26Z</time>
      </trkpt>
      <trkpt lat="44.44449" lon="1.33008">
        <ele>255</ele>
        <time>2019-04-14T11:26:27Z</time>
      </trkpt>
      <trkpt lat="44.44453" lon="1.33011">
        <ele>255</ele>
        <time>2019-04-14T11:26:28Z</time>
      </trkpt>
      <trkpt lat="44.44458" lon="1.33014">
        <ele>255</ele>
        <time>2019-04-14T11:26:29Z</time>
      </trkpt>
      <trkpt lat="44.44461" lon="1.33019">
        <ele>255</ele>
        <time>2019-04-14T11:26:30Z</time>
      </trkpt>
      <trkpt lat="44.44464" lon="1.33025">
        <ele>254</ele>
        <time>2019-04-14T11:26:31Z</time>
      </trkpt>
      <trkpt lat="44.44465" lon="1.33031">
        <ele>254</ele>
        <time>2019-04-14T11:26:32Z</time>
      </trkpt>
      <trkpt lat="44.44466" lon="1.33037">
        <ele>254</ele>
        <time>2019-04-14T11:26:33Z</time>
      </trkpt>
      <trkpt lat="44.44468" lon="1.33043">
        <ele>254</ele>
        <time>2019-04-14T11:26:34Z</time>
      </trkpt>
      <trkpt lat="44.44469" lon="1.3305">
        <ele>254</ele>
        <time>2019-04-14T11:26:35Z</time>
      </trkpt>
      <trkpt lat="44.44471" lon="1.33057">
        <ele>254</ele>
        <time>2019-04-14T11:26:36Z</time>
      </trkpt>
      <trkpt lat="44.44473" lon="1.33064">
        <ele>254</ele>
        <time>2019-04-14T11:26:37Z</time>
      </trkpt>
      <trkpt lat="44.44474" lon="1.33072">
        <ele>254</ele>
        <time>2019-04-14T11:26:38Z</time>
      </trkpt>
      <trkpt lat="44.44476" lon="1.33079">
        <ele>254</ele>
        <time>2019-04-14T11:26:39Z</time>
      </trkpt>
      <trkpt lat="44.44477" lon="1.33087">
        <ele>254</ele>
        <time>2019-04-14T11:26:40Z</time>
      </trkpt>
      <trkpt lat="44.44479" lon="1.33094">
        <ele>254</ele>
        <time>2019-04-14T11:26:41Z</time>
      </trkpt>
      <trkpt lat="44.44481" lon="1.33102">
        <ele>254</ele>
        <time>2019-04-14T11:26:42Z</time>
      </trkpt>
      <trkpt lat="44.44483" lon="1.3311">
        <ele>254</ele>
        <time>2019-04-14T11:26:43Z</time>
      </trkpt>
      <trkpt lat="44.44484" lon="1.33118">
        <ele>254</ele>
        <time>2019-04-14T11:26:44Z</time>
      </trkpt>
      <trkpt lat="44.44486" lon="1.33125">
        <ele>254</ele>
        <time>2019-04-14T11:26:45Z</time>
      </trkpt>
      <trkpt lat="44.44487" lon="1.33133">
        <ele>253</ele>
        <time>2019-04-14T11:26:46Z</time>
      </trkpt>
      <trkpt lat="44.4449" lon="1.3314">
        <ele>253</ele>
        <time>2019-04-14T11:26:47Z</time>
      </trkpt>
      <trkpt lat="44.44492" lon="1.33148">
        <ele>254</ele>
        <time>2019-04-14T11:26:48Z</time>
      </trkpt>
      <trkpt lat="44.44496" lon="1.33154">
        <ele>254</ele>
        <time>2019-04-14T11:26:49Z</time>
      </trkpt>
      <trkpt lat="44.445" lon="1.33159">
        <ele>254</ele>
        <time>2019-04-14T11:26:50Z</time>
      </trkpt>
      <trkpt lat="44.44504" lon="1.33165">
        <ele>253</ele>
        <time>2019-04-14T11:26:51Z</time>
      </trkpt>
      <trkpt lat="44.44508" lon="1.3317">
        <ele>253</ele>
        <time>2019-04-14T11:26:52Z</time>
      </trkpt>
      <trkpt lat="44.44512" lon="1.33175">
        <ele>253</ele>
        <time>2019-04-14T11:26:53Z</time>
      </trkpt>
      <trkpt lat="44.44516" lon="1.33181">
        <ele>253</ele>
        <time>2019-04-14T11:26:54Z</time>
      </trkpt>
      <trkpt lat="44.44519" lon="1.33186">
        <ele>253</ele>
        <time>2019-04-14T11:26:55Z</time>
      </trkpt>
      <trkpt lat="44.44523" lon="1.33192">
        <ele>253</ele>
        <time>2019-04-14T11:26:56Z</time>
      </trkpt>
      <trkpt lat="44.44527" lon="1.33198">
        <ele>254</ele>
        <time>2019-04-14T11:26:57Z</time>
      </trkpt>
      <trkpt lat="44.44531" lon="1.33204">
        <ele>254</ele>
        <time>2019-04-14T11:26:58Z</time>
      </trkpt>
      <trkpt lat="44.44535" lon="1.33208">
        <ele>254</ele>
        <time>2019-04-14T11:26:59Z</time>
      </trkpt>
      <trkpt lat="44.44539" lon="1.33213">
        <ele>254</ele>
        <time>2019-04-14T11:27:00Z</time>
      </trkpt>
      <trkpt lat="44.44543" lon="1.33218">
        <ele>254</ele>
        <time>2019-04-14T11:27:01Z</time>
      </trkpt>
      <trkpt lat="44.44545" lon="1.33222">
        <ele>254</ele>
        <time>2019-04-14T11:27:02Z</time>
      </trkpt>
      <trkpt lat="44.44549" lon="1.33226">
        <ele>254</ele>
        <time>2019-04-14T11:27:03Z</time>
      </trkpt>
      <trkpt lat="44.44553" lon="1.33231">
        <ele>254</ele>
        <time>2019-04-14T11:27:04Z</time>
      </trkpt>
      <trkpt lat="44.44557" lon="1.33237">
        <ele>254</ele>
        <time>2019-04-14T11:27:05Z</time>
      </trkpt>
      <trkpt lat="44.4456" lon="1.33242">
        <ele>254</ele>
        <time>2019-04-14T11:27:06Z</time>
      </trkpt>
      <trkpt lat="44.44563" lon="1.33248">
        <ele>254</ele>
        <time>2019-04-14T11:27:07Z</time>
      </trkpt>
      <trkpt lat="44.44566" lon="1.33255">
        <ele>254</ele>
        <time>2019-04-14T11:27:08Z</time>
      </trkpt>
      <trkpt lat="44.44568" lon="1.33261">
        <ele>254</ele>
        <time>2019-04-14T11:27:09Z</time>
      </trkpt>
      <trkpt lat="44.44571" lon="1.33268">
        <ele>254</ele>
        <time>2019-04-14T11:27:10Z</time>
      </trkpt>
      <trkpt lat="44.44573" lon="1.33274">
        <ele>255</ele>
        <time>2019-04-14T11:27:11Z</time>
      </trkpt>
      <trkpt lat="44.44576" lon="1.3328">
        <ele>255</ele>
        <time>2019-04-14T11:27:12Z</time>
      </trkpt>
      <trkpt lat="44.44578" lon="1.33287">
        <ele>255</ele>
        <time>2019-04-14T11:27:13Z</time>
      </trkpt>
      <trkpt lat="44.44579" lon="1.33293">
        <ele>255</ele>
        <time>2019-04-14T11:27:14Z</time>
      </trkpt>
      <trkpt lat="44.44581" lon="1.33299">
        <ele>255</ele>
        <time>2019-04-14T11:27:15Z</time>
      </trkpt>
      <trkpt lat="44.44582" lon="1.33305">
        <ele>256</ele>
        <time>2019-04-14T11:27:16Z</time>
      </trkpt>
      <trkpt lat="44.44583" lon="1.3331">
        <ele>256</ele>
        <time>2019-04-14T11:27:17Z</time>
      </trkpt>
      <trkpt lat="44.44584" lon="1.33316">
        <ele>256</ele>
        <time>2019-04-14T11:27:18Z</time>
      </trkpt>
      <trkpt lat="44.44583" lon="1.33321">
        <ele>256</ele>
        <time>2019-04-14T11:27:19Z</time>
      </trkpt>
      <trkpt lat="44.44582" lon="1.33327">
        <ele>257</ele>
        <time>2019-04-14T11:27:20Z</time>
      </trkpt>
      <trkpt lat="44.44582" lon="1.33332">
        <ele>257</ele>
        <time>2019-04-14T11:27:21Z</time>
      </trkpt>
      <trkpt lat="44.44582" lon="1.33338">
        <ele>257</ele>
        <time>2019-04-14T11:27:22Z</time>
      </trkpt>
      <trkpt lat="44.44581" lon="1.33343">
        <ele>257</ele>
        <time>2019-04-14T11:27:23Z</time>
      </trkpt>
      <trkpt lat="44.4458" lon="1.33349">
        <ele>258</ele>
        <time>2019-04-14T11:27:24Z</time>
      </trkpt>
      <trkpt lat="44.4458" lon="1.33356">
        <ele>258</ele>
        <time>2019-04-14T11:27:25Z</time>
      </trkpt>
      <trkpt lat="44.4458" lon="1.33362">
        <ele>258</ele>
        <time>2019-04-14T11:27:26Z</time>
      </trkpt>
      <trkpt lat="44.44579" lon="1.33368">
        <ele>258</ele>
        <time>2019-04-14T11:27:27Z</time>
      </trkpt>
      <trkpt lat="44.44578" lon="1.33374">
        <ele>258</ele>
        <time>2019-04-14T11:27:28Z</time>
      </trkpt>
      <trkpt lat="44.44578" lon="1.33381">
        <ele>258</ele>
        <time>2019-04-14T11:27:29Z</time>
      </trkpt>
      <trkpt lat="44.44577" lon="1.33387">
        <ele>258</ele>
        <time>2019-04-14T11:27:30Z</time>
      </trkpt>
      <trkpt lat="44.44577" lon="1.33393">
        <ele>259</ele>
        <time>2019-04-14T11:27:31Z</time>
      </trkpt>
      <trkpt lat="44.44576" lon="1.33399">
        <ele>259</ele>
        <time>2019-04-14T11:27:32Z</time>
      </trkpt>
      <trkpt lat="44.44576" lon="1.33405">
        <ele>259</ele>
        <time>2019-04-14T11:27:33Z</time>
      </trkpt>
      <trkpt lat="44.44576" lon="1.33411">
        <ele>259</ele>
        <time>2019-04-14T11:27:34Z</time>
      </trkpt>
      <trkpt lat="44.44576" lon="1.33417">
        <ele>259</ele>
        <time>2019-04-14T11:27:35Z</time>
      </trkpt>
      <trkpt lat="44.44576" lon="1.33422">
        <ele>259</ele>
        <time>2019-04-14T11:27:36Z</time>
      </trkpt>
      <trkpt lat="44.44577" lon="1.33428">
        <ele>259</ele>
        <time>2019-04-14T11:27:37Z</time>
      </trkpt>
      <trkpt lat="44.44577" lon="1.33433">
        <ele>259</ele>
        <time>2019-04-14T11:27:38Z</time>
      </trkpt>
      <trkpt lat="44.44577" lon="1.33438">
        <ele>259</ele>
        <time>2019-04-14T11:27:39Z</time>
      </trkpt>
      <trkpt lat="44.44578" lon="1.33444">
        <ele>259</ele>
        <time>2019-04-14T11:27:40Z</time>
      </trkpt>
      <trkpt lat="44.44578" lon="1.33449">
        <ele>259</ele>
        <time>2019-04-14T11:27:41Z</time>
      </trkpt>
      <trkpt lat="44.44579" lon="1.33454">
        <ele>259</ele>
        <time>2019-04-14T11:27:42Z</time>
      </trkpt>
      <trkpt lat="44.4458" lon="1.33459">
        <ele>259</ele>
        <time>2019-04-14T11:27:43Z</time>
      </trkpt>
      <trkpt lat="44.4458" lon="1.33464">
        <ele>259</ele>
        <time>2019-04-14T11:27:44Z</time>
      </trkpt>
      <trkpt lat="44.44581" lon="1.33468">
        <ele>259</ele>
        <time>2019-04-14T11:27:45Z</time>
      </trkpt>
      <trkpt lat="44.44581" lon="1.33473">
        <ele>259</ele>
        <time>2019-04-14T11:27:46Z</time>
      </trkpt>
      <trkpt lat="44.44581" lon="1.33476">
        <ele>258</ele>
        <time>2019-04-14T11:27:47Z</time>
      </trkpt>
      <trkpt lat="44.44579" lon="1.33479">
        <ele>258</ele>
        <time>2019-04-14T11:27:48Z</time>
      </trkpt>
      <trkpt lat="44.44576" lon="1.33479">
        <ele>258</ele>
        <time>2019-04-14T11:27:49Z</time>
      </trkpt>
      <trkpt lat="44.44572" lon="1.33479">
        <ele>258</ele>
        <time>2019-04-14T11:27:50Z</time>
      </trkpt>
      <trkpt lat="44.44569" lon="1.33477">
        <ele>258</ele>
        <time>2019-04-14T11:27:51Z</time>
      </trkpt>
      <trkpt lat="44.44565" lon="1.33477">
        <ele>257</ele>
        <time>2019-04-14T11:27:52Z</time>
      </trkpt>
      <trkpt lat="44.4456" lon="1.33476">
        <ele>257</ele>
        <time>2019-04-14T11:27:53Z</time>
      </trkpt>
      <trkpt lat="44.44555" lon="1.33476">
        <ele>257</ele>
        <time>2019-04-14T11:27:54Z</time>
      </trkpt>
      <trkpt lat="44.4455" lon="1.33476">
        <ele>256</ele>
        <time>2019-04-14T11:27:55Z</time>
      </trkpt>
      <trkpt lat="44.44545" lon="1.33475">
        <ele>256</ele>
        <time>2019-04-14T11:27:56Z</time>
      </trkpt>
      <trkpt lat="44.4454" lon="1.33475">
        <ele>256</ele>
        <time>2019-04-14T11:27:57Z</time>
      </trkpt>
      <trkpt lat="44.44534" lon="1.33474">
        <ele>256</ele>
        <time>2019-04-14T11:27:58Z</time>
      </trkpt>
      <trkpt lat="44.44528" lon="1.33473">
        <ele>255</ele>
        <time>2019-04-14T11:27:59Z</time>
      </trkpt>
      <trkpt lat="44.44522" lon="1.33472">
        <ele>255</ele>
        <time>2019-04-14T11:28:00Z</time>
      </trkpt>
      <trkpt lat="44.44517" lon="1.33472">
        <ele>254</ele>
        <time>2019-04-14T11:28:01Z</time>
      </trkpt>
      <trkpt lat="44.44512" lon="1.33473">
        <ele>254</ele>
        <time>2019-04-14T11:28:02Z</time>
      </trkpt>
      <trkpt lat="44.44508" lon="1.33471">
        <ele>254</ele>
        <time>2019-04-14T11:28:03Z</time>
      </trkpt>
      <trkpt lat="44.44504" lon="1.33469">
        <ele>254</ele>
        <time>2019-04-14T11:28:04Z</time>
      </trkpt>
      <trkpt lat="44.44499" lon="1.33468">
        <ele>253</ele>
        <time>2019-04-14T11:28:05Z</time>
      </trkpt>
      <trkpt lat="44.44494" lon="1.33469">
        <ele>253</ele>
        <time>2019-04-14T11:28:06Z</time>
      </trkpt>
      <trkpt lat="44.4449" lon="1.33472">
        <ele>253</ele>
        <time>2019-04-14T11:28:07Z</time>
      </trkpt>
      <trkpt lat="44.44485" lon="1.33477">
        <ele>252</ele>
        <time>2019-04-14T11:28:08Z</time>
      </trkpt>
      <trkpt lat="44.4448" lon="1.33482">
        <ele>252</ele>
        <time>2019-04-14T11:28:09Z</time>
      </trkpt>
      <trkpt lat="44.44476" lon="1.33488">
        <ele>251</ele>
        <time>2019-04-14T11:28:10Z</time>
      </trkpt>
      <trkpt lat="44.44471" lon="1.33494">
        <ele>251</ele>
        <time>2019-04-14T11:28:11Z</time>
      </trkpt>
      <trkpt lat="44.44467" lon="1.33501">
        <ele>250</ele>
        <time>2019-04-14T11:28:12Z</time>
      </trkpt>
      <trkpt lat="44.44464" lon="1.3351">
        <ele>250</ele>
        <time>2019-04-14T11:28:13Z</time>
      </trkpt>
      <trkpt lat="44.44462" lon="1.33519">
        <ele>249</ele>
        <time>2019-04-14T11:28:14Z</time>
      </trkpt>
      <trkpt lat="44.44458" lon="1.33526">
        <ele>249</ele>
        <time>2019-04-14T11:28:15Z</time>
      </trkpt>
      <trkpt lat="44.44455" lon="1.33531">
        <ele>249</ele>
        <time>2019-04-14T11:28:16Z</time>
      </trkpt>
      <trkpt lat="44.4445" lon="1.33531">
        <ele>248</ele>
        <time>2019-04-14T11:28:17Z</time>
      </trkpt>
      <trkpt lat="44.44445" lon="1.3353">
        <ele>248</ele>
        <time>2019-04-14T11:28:18Z</time>
      </trkpt>
      <trkpt lat="44.44439" lon="1.33527">
        <ele>247</ele>
        <time>2019-04-14T11:28:19Z</time>
      </trkpt>
      <trkpt lat="44.44434" lon="1.33524">
        <ele>247</ele>
        <time>2019-04-14T11:28:20Z</time>
      </trkpt>
      <trkpt lat="44.44428" lon="1.33521">
        <ele>246</ele>
        <time>2019-04-14T11:28:21Z</time>
      </trkpt>
      <trkpt lat="44.44421" lon="1.33518">
        <ele>245</ele>
        <time>2019-04-14T11:28:22Z</time>
      </trkpt>
      <trkpt lat="44.44414" lon="1.33515">
        <ele>244</ele>
        <time>2019-04-14T11:28:23Z</time>
      </trkpt>
      <trkpt lat="44.44407" lon="1.33515">
        <ele>243</ele>
        <time>2019-04-14T11:28:24Z</time>
      </trkpt>
      <trkpt lat="44.444" lon="1.33517">
        <ele>242</ele>
        <time>2019-04-14T11:28:25Z</time>
      </trkpt>
      <trkpt lat="44.44394" lon="1.33519">
        <ele>241</ele>
        <time>2019-04-14T11:28:26Z</time>
      </trkpt>
      <trkpt lat="44.44388" lon="1.3352">
        <ele>240</ele>
        <time>2019-04-14T11:28:27Z</time>
      </trkpt>
      <trkpt lat="44.44384" lon="1.33522">
        <ele>238</ele>
        <time>2019-04-14T11:28:28Z</time>
      </trkpt>
      <trkpt lat="44.44381" lon="1.33523">
        <ele>238</ele>
        <time>2019-04-14T11:28:29Z</time>
      </trkpt>
      <trkpt lat="44.44381" lon="1.33526">
        <ele>238</ele>
        <time>2019-04-14T11:28:30Z</time>
      </trkpt>
      <trkpt lat="44.44379" lon="1.33528">
        <ele>237</ele>
        <time>2019-04-14T11:28:31Z</time>
      </trkpt>
      <trkpt lat="44.44377" lon="1.33532">
        <ele>237</ele>
        <time>2019-04-14T11:28:32Z</time>
      </trkpt>
      <trkpt lat="44.44376" lon="1.33537">
        <ele>237</ele>
        <time>2019-04-14T11:28:33Z</time>
      </trkpt>
      <trkpt lat="44.44375" lon="1.33542">
        <ele>237</ele>
        <time>2019-04-14T11:28:34Z</time>
      </trkpt>
      <trkpt lat="44.44375" lon="1.33548">
        <ele>237</ele>
        <time>2019-04-14T11:28:35Z</time>
      </trkpt>
      <trkpt lat="44.44374" lon="1.33554">
        <ele>237</ele>
        <time>2019-04-14T11:28:36Z</time>
      </trkpt>
      <trkpt lat="44.44373" lon="1.3356">
        <ele>237</ele>
        <time>2019-04-14T11:28:37Z</time>
      </trkpt>
      <trkpt lat="44.44372" lon="1.33567">
        <ele>236</ele>
        <time>2019-04-14T11:28:38Z</time>
      </trkpt>
      <trkpt lat="44.44371" lon="1.33574">
        <ele>236</ele>
        <time>2019-04-14T11:28:39Z</time>
      </trkpt>
      <trkpt lat="44.44371" lon="1.33582">
        <ele>236</ele>
        <time>2019-04-14T11:28:40Z</time>
      </trkpt>
      <trkpt lat="44.4437" lon="1.33588">
        <ele>236</ele>
        <time>2019-04-14T11:28:41Z</time>
      </trkpt>
      <trkpt lat="44.44369" lon="1.33596">
        <ele>236</ele>
        <time>2019-04-14T11:28:42Z</time>
      </trkpt>
      <trkpt lat="44.44368" lon="1.33603">
        <ele>236</ele>
        <time>2019-04-14T11:28:43Z</time>
      </trkpt>
      <trkpt lat="44.44368" lon="1.33611">
        <ele>236</ele>
        <time>2019-04-14T11:28:44Z</time>
      </trkpt>
      <trkpt lat="44.44367" lon="1.33618">
        <ele>236</ele>
        <time>2019-04-14T11:28:45Z</time>
      </trkpt>
      <trkpt lat="44.44366" lon="1.33626">
        <ele>236</ele>
        <time>2019-04-14T11:28:46Z</time>
      </trkpt>
      <trkpt lat="44.44365" lon="1.33634">
        <ele>235</ele>
        <time>2019-04-14T11:28:47Z</time>
      </trkpt>
      <trkpt lat="44.44364" lon="1.33642">
        <ele>235</ele>
        <time>2019-04-14T11:28:48Z</time>
      </trkpt>
      <trkpt lat="44.44363" lon="1.33651">
        <ele>235</ele>
        <time>2019-04-14T11:28:49Z</time>
      </trkpt>
      <trkpt lat="44.44362" lon="1.33659">
        <ele>235</ele>
        <time>2019-04-14T11:28:50Z</time>
      </trkpt>
      <trkpt lat="44.44361" lon="1.33668">
        <ele>235</ele>
        <time>2019-04-14T11:28:51Z</time>
      </trkpt>
      <trkpt lat="44.44359" lon="1.33674">
        <ele>234</ele>
        <time>2019-04-14T11:28:52Z</time>
      </trkpt>
      <trkpt lat="44.44358" lon="1.33681">
        <ele>234</ele>
        <time>2019-04-14T11:28:53Z</time>
      </trkpt>
      <trkpt lat="44.44358" lon="1.33689">
        <ele>234</ele>
        <time>2019-04-14T11:28:54Z</time>
      </trkpt>
      <trkpt lat="44.44357" lon="1.33696">
        <ele>233</ele>
        <time>2019-04-14T11:28:55Z</time>
      </trkpt>
      <trkpt lat="44.44357" lon="1.33704">
        <ele>233</ele>
        <time>2019-04-14T11:28:56Z</time>
      </trkpt>
      <trkpt lat="44.44357" lon="1.33712">
        <ele>233</ele>
        <time>2019-04-14T11:28:57Z</time>
      </trkpt>
      <trkpt lat="44.44358" lon="1.3372">
        <ele>232</ele>
        <time>2019-04-14T11:28:58Z</time>
      </trkpt>
      <trkpt lat="44.44359" lon="1.33727">
        <ele>232</ele>
        <time>2019-04-14T11:28:59Z</time>
      </trkpt>
      <trkpt lat="44.44359" lon="1.33735">
        <ele>232</ele>
        <time>2019-04-14T11:29:00Z</time>
      </trkpt>
      <trkpt lat="44.44359" lon="1.33744">
        <ele>231</ele>
        <time>2019-04-14T11:29:01Z</time>
      </trkpt>
      <trkpt lat="44.4436" lon="1.33753">
        <ele>231</ele>
        <time>2019-04-14T11:29:02Z</time>
      </trkpt>
      <trkpt lat="44.44362" lon="1.33762">
        <ele>230</ele>
        <time>2019-04-14T11:29:03Z</time>
      </trkpt>
      <trkpt lat="44.44364" lon="1.33771">
        <ele>229</ele>
        <time>2019-04-14T11:29:04Z</time>
      </trkpt>
      <trkpt lat="44.44366" lon="1.33779">
        <ele>228</ele>
        <time>2019-04-14T11:29:05Z</time>
      </trkpt>
      <trkpt lat="44.44368" lon="1.33787">
        <ele>227</ele>
        <time>2019-04-14T11:29:06Z</time>
      </trkpt>
      <trkpt lat="44.4437" lon="1.33794">
        <ele>226</ele>
        <time>2019-04-14T11:29:07Z</time>
      </trkpt>
      <trkpt lat="44.44373" lon="1.33801">
        <ele>225</ele>
        <time>2019-04-14T11:29:08Z</time>
      </trkpt>
      <trkpt lat="44.44377" lon="1.33808">
        <ele>225</ele>
        <time>2019-04-14T11:29:09Z</time>
      </trkpt>
      <trkpt lat="44.44378" lon="1.33812">
        <ele>224</ele>
        <time>2019-04-14T11:29:10Z</time>
      </trkpt>
      <trkpt lat="44.44377" lon="1.33817">
        <ele>223</ele>
        <time>2019-04-14T11:29:11Z</time>
      </trkpt>
      <trkpt lat="44.44378" lon="1.33824">
        <ele>222</ele>
        <time>2019-04-14T11:29:12Z</time>
      </trkpt>
      <trkpt lat="44.4438" lon="1.33829">
        <ele>222</ele>
        <time>2019-04-14T11:29:13Z</time>
      </trkpt>
      <trkpt lat="44.44382" lon="1.33834">
        <ele>222</ele>
        <time>2019-04-14T11:29:14Z</time>
      </trkpt>
      <trkpt lat="44.44385" lon="1.33838">
        <ele>222</ele>
        <time>2019-04-14T11:29:15Z</time>
      </trkpt>
      <trkpt lat="44.44385" lon="1.33842">
        <ele>222</ele>
        <time>2019-04-14T11:29:16Z</time>
      </trkpt>
      <trkpt lat="44.44385" lon="1.33846">
        <ele>221</ele>
        <time>2019-04-14T11:29:17Z</time>
      </trkpt>
      <trkpt lat="44.44387" lon="1.33852">
        <ele>221</ele>
        <time>2019-04-14T11:29:18Z</time>
      </trkpt>
      <trkpt lat="44.44389" lon="1.33856">
        <ele>220</ele>
        <time>2019-04-14T11:29:19Z</time>
      </trkpt>
      <trkpt lat="44.44391" lon="1.33861">
        <ele>220</ele>
        <time>2019-04-14T11:29:20Z</time>
      </trkpt>
      <trkpt lat="44.44393" lon="1.33866">
        <ele>220</ele>
        <time>2019-04-14T11:29:21Z</time>
      </trkpt>
      <trkpt lat="44.44394" lon="1.33872">
        <ele>219</ele>
        <time>2019-04-14T11:29:22Z</time>
      </trkpt>
      <trkpt lat="44.44394" lon="1.3388">
        <ele>219</ele>
        <time>2019-04-14T11:29:23Z</time>
      </trkpt>
      <trkpt lat="44.44394" lon="1.33887">
        <ele>218</ele>
        <time>2019-04-14T11:29:24Z</time>
      </trkpt>
      <trkpt lat="44.44395" lon="1.33893">
        <ele>218</ele>
        <time>2019-04-14T11:29:25Z</time>
      </trkpt>
      <trkpt lat="44.44397" lon="1.33899">
        <ele>217</ele>
        <time>2019-04-14T11:29:26Z</time>
      </trkpt>
      <trkpt lat="44.44399" lon="1.33903">
        <ele>217</ele>
        <time>2019-04-14T11:29:27Z</time>
      </trkpt>
      <trkpt lat="44.44401" lon="1.33908">
        <ele>217</ele>
        <time>2019-04-14T11:29:28Z</time>
      </trkpt>
      <trkpt lat="44.44401" lon="1.33913">
        <ele>217</ele>
        <time>2019-04-14T11:29:29Z</time>
      </trkpt>
      <trkpt lat="44.44401" lon="1.33919">
        <ele>217</ele>
        <time>2019-04-14T11:29:30Z</time>
      </trkpt>
      <trkpt lat="44.44403" lon="1.33924">
        <ele>217</ele>
        <time>2019-04-14T11:29:31Z</time>
      </trkpt>
      <trkpt lat="44.44405" lon="1.33928">
        <ele>217</ele>
        <time>2019-04-14T11:29:32Z</time>
      </trkpt>
      <trkpt lat="44.44406" lon="1.33931">
        <ele>217</ele>
        <time>2019-04-14T11:29:33Z</time>
      </trkpt>
      <trkpt lat="44.44406" lon="1.33934">
        <ele>217</ele>
        <time>2019-04-14T11:29:34Z</time>
      </trkpt>
      <trkpt lat="44.44407" lon="1.33937">
        <ele>217</ele>
        <time>2019-04-14T11:29:35Z</time>
      </trkpt>
      <trkpt lat="44.44407" lon="1.33941">
        <ele>217</ele>
        <time>2019-04-14T11:29:36Z</time>
      </trkpt>
      <trkpt lat="44.44409" lon="1.33945">
        <ele>217</ele>
        <time>2019-04-14T11:29:37Z</time>
      </trkpt>
      <trkpt lat="44.44412" lon="1.33949">
        <ele>217</ele>
        <time>2019-04-14T11:29:38Z</time>
      </trkpt>
      <trkpt lat="44.44414" lon="1.33953">
        <ele>217</ele>
        <time>2019-04-14T11:29:39Z</time>
      </trkpt>
      <trkpt lat="44.44415" lon="1.33958">
        <ele>217</ele>
        <time>2019-04-14T11:29:40Z</time>
      </trkpt>
      <trkpt lat="44.44416" lon="1.33963">
        <ele>217</ele>
        <time>2019-04-14T11:29:41Z</time>
      </trkpt>
      <trkpt lat="44.44418" lon="1.33969">
        <ele>217</ele>
        <time>2019-04-14T11:29:42Z</time>
      </trkpt>
      <trkpt lat="44.44419" lon="1.33974">
        <ele>216</ele>
        <time>2019-04-14T11:29:43Z</time>
      </trkpt>
      <trkpt lat="44.44421" lon="1.33981">
        <ele>216</ele>
        <time>2019-04-14T11:29:44Z</time>
      </trkpt>
      <trkpt lat="44.44422" lon="1.33986">
        <ele>216</ele>
        <time>2019-04-14T11:29:45Z</time>
      </trkpt>
      <trkpt lat="44.44425" lon="1.33991">
        <ele>216</ele>
        <time>2019-04-14T11:29:46Z</time>
      </trkpt>
      <trkpt lat="44.44429" lon="1.33992">
        <ele>216</ele>
        <time>2019-04-14T11:29:47Z</time>
      </trkpt>
      <trkpt lat="44.44431" lon="1.33992">
        <ele>216</ele>
        <time>2019-04-14T11:29:48Z</time>
      </trkpt>
      <trkpt lat="44.44433" lon="1.33992">
        <ele>217</ele>
        <time>2019-04-14T11:29:49Z</time>
      </trkpt>
      <trkpt lat="44.44436" lon="1.33991">
        <ele>217</ele>
        <time>2019-04-14T11:29:50Z</time>
      </trkpt>
      <trkpt lat="44.44438" lon="1.3399">
        <ele>217</ele>
        <time>2019-04-14T11:29:51Z</time>
      </trkpt>
      <trkpt lat="44.44441" lon="1.33989">
        <ele>218</ele>
        <time>2019-04-14T11:29:52Z</time>
      </trkpt>
      <trkpt lat="44.44444" lon="1.33987">
        <ele>218</ele>
        <time>2019-04-14T11:29:53Z</time>
      </trkpt>
      <trkpt lat="44.44447" lon="1.33985">
        <ele>218</ele>
        <time>2019-04-14T11:29:54Z</time>
      </trkpt>
      <trkpt lat="44.44449" lon="1.33983">
        <ele>218</ele>
        <time>2019-04-14T11:29:55Z</time>
      </trkpt>
      <trkpt lat="44.44451" lon="1.33981">
        <ele>218</ele>
        <time>2019-04-14T11:29:56Z</time>
      </trkpt>
      <trkpt lat="44.44453" lon="1.33979">
        <ele>219</ele>
        <time>2019-04-14T11:29:57Z</time>
      </trkpt>
      <trkpt lat="44.44455" lon="1.33978">
        <ele>219</ele>
        <time>2019-04-14T11:29:58Z</time>
      </trkpt>
      <trkpt lat="44.44458" lon="1.33976">
        <ele>219</ele>
        <time>2019-04-14T11:29:59Z</time>
      </trkpt>
      <trkpt lat="44.4446" lon="1.33975">
        <ele>218</ele>
        <time>2019-04-14T11:30:00Z</time>
      </trkpt>
      <trkpt lat="44.44463" lon="1.33975">
        <ele>218</ele>
        <time>2019-04-14T11:30:01Z</time>
      </trkpt>
      <trkpt lat="44.44466" lon="1.33974">
        <ele>218</ele>
        <time>2019-04-14T11:30:02Z</time>
      </trkpt>
      <trkpt lat="44.44469" lon="1.33973">
        <ele>218</ele>
        <time>2019-04-14T11:30:03Z</time>
      </trkpt>
      <trkpt lat="44.44473" lon="1.3397">
        <ele>217</ele>
        <time>2019-04-14T11:30:04Z</time>
      </trkpt>
      <trkpt lat="44.44476" lon="1.33966">
        <ele>217</ele>
        <time>2019-04-14T11:30:05Z</time>
      </trkpt>
      <trkpt lat="44.44479" lon="1.33962">
        <ele>217</ele>
        <time>2019-04-14T11:30:06Z</time>
      </trkpt>
      <trkpt lat="44.44481" lon="1.33956">
        <ele>217</ele>
        <time>2019-04-14T11:30:07Z</time>
      </trkpt>
      <trkpt lat="44.44483" lon="1.33951">
        <ele>217</ele>
        <time>2019-04-14T11:30:08Z</time>
      </trkpt>
      <trkpt lat="44.44483" lon="1.33945">
        <ele>217</ele>
        <time>2019-04-14T11:30:09Z</time>
      </trkpt>
      <trkpt lat="44.44484" lon="1.33939">
        <ele>217</ele>
        <time>2019-04-14T11:30:10Z</time>
      </trkpt>
      <trkpt lat="44.44485" lon="1.33934">
        <ele>217</ele>
        <time>2019-04-14T11:30:11Z</time>
      </trkpt>
      <trkpt lat="44.44486" lon="1.33929">
        <ele>217</ele>
        <time>2019-04-14T11:30:12Z</time>
      </trkpt>
      <trkpt lat="44.44487" lon="1.33924">
        <ele>217</ele>
        <time>2019-04-14T11:30:13Z</time>
      </trkpt>
      <trkpt lat="44.44489" lon="1.33919">
        <ele>217</ele>
        <time>2019-04-14T11:30:14Z</time>
      </trkpt>
      <trkpt lat="44.4449" lon="1.33913">
        <ele>217</ele>
        <time>2019-04-14T11:30:15Z</time>
      </trkpt>
      <trkpt lat="44.44491" lon="1.33907">
        <ele>216</ele>
        <time>2019-04-14T11:30:16Z</time>
      </trkpt>
      <trkpt lat="44.44492" lon="1.33901">
        <ele>217</ele>
        <time>2019-04-14T11:30:17Z</time>
      </trkpt>
      <trkpt lat="44.44492" lon="1.33896">
        <ele>216</ele>
        <time>2019-04-14T11:30:18Z</time>
      </trkpt>
      <trkpt lat="44.44491" lon="1.33891">
        <ele>217</ele>
        <time>2019-04-14T11:30:19Z</time>
      </trkpt>
      <trkpt lat="44.44491" lon="1.33886">
        <ele>217</ele>
        <time>2019-04-14T11:30:20Z</time>
      </trkpt>
      <trkpt lat="44.4449" lon="1.33882">
        <ele>217</ele>
        <time>2019-04-14T11:30:21Z</time>
      </trkpt>
      <trkpt lat="44.4449" lon="1.33878">
        <ele>217</ele>
        <time>2019-04-14T11:30:22Z</time>
      </trkpt>
      <trkpt lat="44.4449" lon="1.33875">
        <ele>218</ele>
        <time>2019-04-14T11:30:23Z</time>
      </trkpt>
      <trkpt lat="44.4449" lon="1.33871">
        <ele>218</ele>
        <time>2019-04-14T11:30:24Z</time>
      </trkpt>
      <trkpt lat="44.4449" lon="1.33867">
        <ele>218</ele>
        <time>2019-04-14T11:30:25Z</time>
      </trkpt>
      <trkpt lat="44.44489" lon="1.33863">
        <ele>218</ele>
        <time>2019-04-14T11:30:26Z</time>
      </trkpt>
      <trkpt lat="44.44489" lon="1.3386">
        <ele>219</ele>
        <time>2019-04-14T11:30:27Z</time>
      </trkpt>
      <trkpt lat="44.44488" lon="1.33857">
        <ele>219</ele>
        <time>2019-04-14T11:30:28Z</time>
      </trkpt>
      <trkpt lat="44.44488" lon="1.33855">
        <ele>219</ele>
        <time>2019-04-14T11:30:29Z</time>
      </trkpt>
      <trkpt lat="44.44488" lon="1.33852">
        <ele>219</ele>
        <time>2019-04-14T11:30:30Z</time>
      </trkpt>
      <trkpt lat="44.44489" lon="1.3385">
        <ele>219</ele>
        <time>2019-04-14T11:30:31Z</time>
      </trkpt>
      <trkpt lat="44.44491" lon="1.33848">
        <ele>219</ele>
        <time>2019-04-14T11:30:32Z</time>
      </trkpt>
      <trkpt lat="44.44492" lon="1.33846">
        <ele>218</ele>
        <time>2019-04-14T11:30:33Z</time>
      </trkpt>
      <trkpt lat="44.44493" lon="1.33844">
        <ele>218</ele>
        <time>2019-04-14T11:30:34Z</time>
      </trkpt>
      <trkpt lat="44.44494" lon="1.33841">
        <ele>218</ele>
        <time>2019-04-14T11:30:35Z</time>
      </trkpt>
      <trkpt lat="44.44495" lon="1.33839">
        <ele>218</ele>
        <time>2019-04-14T11:30:36Z</time>
      </trkpt>
      <trkpt lat="44.44497" lon="1.33838">
        <ele>218</ele>
        <time>2019-04-14T11:30:37Z</time>
      </trkpt>
      <trkpt lat="44.445" lon="1.33837">
        <ele>217</ele>
        <time>2019-04-14T11:30:38Z</time>
      </trkpt>
      <trkpt lat="44.44503" lon="1.33836">
        <ele>217</ele>
        <time>2019-04-14T11:30:39Z</time>
      </trkpt>
      <trkpt lat="44.44508" lon="1.33835">
        <ele>217</ele>
        <time>2019-04-14T11:30:40Z</time>
      </trkpt>
      <trkpt lat="44.44513" lon="1.33833">
        <ele>216</ele>
        <time>2019-04-14T11:30:41Z</time>
      </trkpt>
      <trkpt lat="44.44519" lon="1.3383">
        <ele>216</ele>
        <time>2019-04-14T11:30:42Z</time>
      </trkpt>
      <trkpt lat="44.44524" lon="1.33828">
        <ele>215</ele>
        <time>2019-04-14T11:30:43Z</time>
      </trkpt>
      <trkpt lat="44.44529" lon="1.33828">
        <ele>215</ele>
        <time>2019-04-14T11:30:44Z</time>
      </trkpt>
      <trkpt lat="44.44534" lon="1.3383">
        <ele>215</ele>
        <time>2019-04-14T11:30:45Z</time>
      </trkpt>
      <trkpt lat="44.44538" lon="1.33833">
        <ele>215</ele>
        <time>2019-04-14T11:30:46Z</time>
      </trkpt>
      <trkpt lat="44.44541" lon="1.33838">
        <ele>215</ele>
        <time>2019-04-14T11:30:47Z</time>
      </trkpt>
      <trkpt lat="44.44543" lon="1.3384">
        <ele>215</ele>
        <time>2019-04-14T11:30:48Z</time>
      </trkpt>
      <trkpt lat="44.44545" lon="1.33841">
        <ele>216</ele>
        <time>2019-04-14T11:30:49Z</time>
      </trkpt>
      <trkpt lat="44.44546" lon="1.3384">
        <ele>216</ele>
        <time>2019-04-14T11:30:50Z</time>
      </trkpt>
      <trkpt lat="44.44546" lon="1.3384">
        <ele>216</ele>
        <time>2019-04-14T11:30:51Z</time>
      </trkpt>
      <trkpt lat="44.44546" lon="1.3384">
        <ele>217</ele>
        <time>2019-04-14T11:30:52Z</time>
      </trkpt>
      <trkpt lat="44.44547" lon="1.33839">
        <ele>217</ele>
        <time>2019-04-14T11:30:53Z</time>
      </trkpt>
      <trkpt lat="44.44547" lon="1.33838">
        <ele>217</ele>
        <time>2019-04-14T11:30:54Z</time>
      </trkpt>
      <trkpt lat="44.44547" lon="1.33836">
        <ele>217</ele>
        <time>2019-04-14T11:30:55Z</time>
      </trkpt>
      <trkpt lat="44.44547" lon="1.33835">
        <ele>217</ele>
        <time>2019-04-14T11:30:56Z</time>
      </trkpt>
      <trkpt lat="44.44547" lon="1.33834">
        <ele>217</ele>
        <time>2019-04-14T11:30:57Z</time>
      </trkpt>
      <trkpt lat="44.44547" lon="1.33833">
        <ele>218</ele>
        <time>2019-04-14T11:30:58Z</time>
      </trkpt>
      <trkpt lat="44.44548" lon="1.33832">
        <ele>218</ele>
        <time>2019-04-14T11:30:59Z</time>
      </trkpt>
      <trkpt lat="44.44548" lon="1.33831">
        <ele>218</ele>
        <time>2019-04-14T11:31:00Z</time>
      </trkpt>
      <trkpt lat="44.44548" lon="1.33831">
        <ele>218</ele>
        <time>2019-04-14T11:31:01Z</time>
      </trkpt>
      <trkpt lat="44.44548" lon="1.33831">
        <ele>218</ele>
        <time>2019-04-14T11:31:02Z</time>
      </trkpt>
      <trkpt lat="44.44548" lon="1.33831">
        <ele>218</ele>
        <time>2019-04-14T11:31:03Z</time>
      </trkpt>
      <trkpt lat="44.44548" lon="1.3383">
        <ele>218</ele>
        <time>2019-04-14T11:31:04Z</time>
      </trkpt>
      <trkpt lat="44.44548" lon="1.33831">
        <ele>220</ele>
        <time>2019-04-14T11:31:05Z</time>
      </trkpt>
      <trkpt lat="44.44555" lon="1.33818">
        <ele>221</ele>
        <time>2019-04-14T11:31:15Z</time>
      </trkpt>
      <trkpt lat="44.44555" lon="1.33817">
        <ele>221</ele>
        <time>2019-04-14T11:31:16Z</time>
      </trkpt>
      <trkpt lat="44.44555" lon="1.33817">
        <ele>221</ele>
        <time>2019-04-14T11:31:17Z</time>
      </trkpt>
      <trkpt lat="44.44555" lon="1.33817">
        <ele>221</ele>
        <time>2019-04-14T11:31:18Z</time>
      </trkpt>
      <trkpt lat="44.44556" lon="1.33816">
        <ele>221</ele>
        <time>2019-04-14T11:31:19Z</time>
      </trkpt>
      <trkpt lat="44.44556" lon="1.33816">
        <ele>221</ele>
        <time>2019-04-14T11:31:20Z</time>
      </trkpt>
      <trkpt lat="44.44557" lon="1.33816">
        <ele>222</ele>
        <time>2019-04-14T11:31:21Z</time>
      </trkpt>
      <trkpt lat="44.44558" lon="1.33816">
        <ele>222</ele>
        <time>2019-04-14T11:31:22Z</time>
      </trkpt>
      <trkpt lat="44.44559" lon="1.33816">
        <ele>222</ele>
        <time>2019-04-14T11:31:23Z</time>
      </trkpt>
      <trkpt lat="44.44569" lon="1.33812">
        <ele>225</ele>
        <time>2019-04-14T11:31:36Z</time>
      </trkpt>
      <trkpt lat="44.4457" lon="1.33811">
        <ele>225</ele>
        <time>2019-04-14T11:31:37Z</time>
      </trkpt>
      <trkpt lat="44.44571" lon="1.33811">
        <ele>226</ele>
        <time>2019-04-14T11:31:38Z</time>
      </trkpt>
      <trkpt lat="44.44572" lon="1.3381">
        <ele>226</ele>
        <time>2019-04-14T11:31:39Z</time>
      </trkpt>
      <trkpt lat="44.44573" lon="1.3381">
        <ele>226</ele>
        <time>2019-04-14T11:31:40Z</time>
      </trkpt>
      <trkpt lat="44.44573" lon="1.33809">
        <ele>226</ele>
        <time>2019-04-14T11:31:41Z</time>
      </trkpt>
      <trkpt lat="44.44574" lon="1.33809">
        <ele>227</ele>
        <time>2019-04-14T11:31:42Z</time>
      </trkpt>
      <trkpt lat="44.44575" lon="1.33809">
        <ele>227</ele>
        <time>2019-04-14T11:31:43Z</time>
      </trkpt>
      <trkpt lat="44.44576" lon="1.33808">
        <ele>227</ele>
        <time>2019-04-14T11:31:44Z</time>
      </trkpt>
      <trkpt lat="44.44577" lon="1.33808">
        <ele>227</ele>
        <time>2019-04-14T11:31:45Z</time>
      </trkpt>
      <trkpt lat="44.44577" lon="1.33808">
        <ele>227</ele>
        <time>2019-04-14T11:31:46Z</time>
      </trkpt>
      <trkpt lat="44.44578" lon="1.33808">
        <ele>228</ele>
        <time>2019-04-14T11:31:47Z</time>
      </trkpt>
      <trkpt lat="44.44579" lon="1.33808">
        <ele>228</ele>
        <time>2019-04-14T11:31:48Z</time>
      </trkpt>
      <trkpt lat="44.44579" lon="1.33808">
        <ele>228</ele>
        <time>2019-04-14T11:31:49Z</time>
      </trkpt>
      <trkpt lat="44.4458" lon="1.33808">
        <ele>228</ele>
        <time>2019-04-14T11:31:50Z</time>
      </trkpt>
      <trkpt lat="44.44581" lon="1.33808">
        <ele>228</ele>
        <time>2019-04-14T11:31:51Z</time>
      </trkpt>
      <trkpt lat="44.44581" lon="1.33808">
        <ele>228</ele>
        <time>2019-04-14T11:31:52Z</time>
      </trkpt>
      <trkpt lat="44.44582" lon="1.33808">
        <ele>228</ele>
        <time>2019-04-14T11:31:53Z</time>
      </trkpt>
      <trkpt lat="44.44582" lon="1.33808">
        <ele>228</ele>
        <time>2019-04-14T11:31:54Z</time>
      </trkpt>
      <trkpt lat="44.44582" lon="1.33808">
        <ele>228</ele>
        <time>2019-04-14T11:31:55Z</time>
      </trkpt>
      <trkpt lat="44.44582" lon="1.33808">
        <ele>228</ele>
        <time>2019-04-14T11:31:56Z</time>
      </trkpt>
      <trkpt lat="44.44582" lon="1.33808">
        <ele>228</ele>
        <time>2019-04-14T11:31:57Z</time>
      </trkpt>
      <trkpt lat="44.44582" lon="1.33807">
        <ele>228</ele>
        <time>2019-04-14T11:31:58Z</time>
      </trkpt>
      <trkpt lat="44.44582" lon="1.33807">
        <ele>228</ele>
        <time>2019-04-14T11:31:59Z</time>
      </trkpt>
      <trkpt lat="44.44594" lon="1.33803">
        <ele>230</ele>
        <time>2019-04-14T11:32:36Z</time>
      </trkpt>
      <trkpt lat="44.44595" lon="1.33802">
        <ele>230</ele>
        <time>2019-04-14T11:32:37Z</time>
      </trkpt>
      <trkpt lat="44.44597" lon="1.33802">
        <ele>231</ele>
        <time>2019-04-14T11:32:38Z</time>
      </trkpt>
      <trkpt lat="44.44598" lon="1.33802">
        <ele>231</ele>
        <time>2019-04-14T11:32:39Z</time>
      </trkpt>
      <trkpt lat="44.44599" lon="1.33802">
        <ele>231</ele>
        <time>2019-04-14T11:32:40Z</time>
      </trkpt>
      <trkpt lat="44.44601" lon="1.33802">
        <ele>231</ele>
        <time>2019-04-14T11:32:41Z</time>
      </trkpt>
      <trkpt lat="44.44602" lon="1.33803">
        <ele>232</ele>
        <time>2019-04-14T11:32:42Z</time>
      </trkpt>
      <trkpt lat="44.44603" lon="1.33803">
        <ele>232</ele>
        <time>2019-04-14T11:32:43Z</time>
      </trkpt>
      <trkpt lat="44.44604" lon="1.33804">
        <ele>232</ele>
        <time>2019-04-14T11:32:44Z</time>
      </trkpt>
      <trkpt lat="44.44605" lon="1.33806">
        <ele>232</ele>
        <time>2019-04-14T11:32:45Z</time>
      </trkpt>
      <trkpt lat="44.44604" lon="1.33808">
        <ele>232</ele>
        <time>2019-04-14T11:32:46Z</time>
      </trkpt>
      <trkpt lat="44.44603" lon="1.3381">
        <ele>232</ele>
        <time>2019-04-14T11:32:47Z</time>
      </trkpt>
      <trkpt lat="44.44603" lon="1.33814">
        <ele>231</ele>
        <time>2019-04-14T11:32:48Z</time>
      </trkpt>
      <trkpt lat="44.44602" lon="1.33819">
        <ele>231</ele>
        <time>2019-04-14T11:32:49Z</time>
      </trkpt>
      <trkpt lat="44.44602" lon="1.33824">
        <ele>231</ele>
        <time>2019-04-14T11:32:50Z</time>
      </trkpt>
      <trkpt lat="44.44602" lon="1.33829">
        <ele>230</ele>
        <time>2019-04-14T11:32:51Z</time>
      </trkpt>
      <trkpt lat="44.44603" lon="1.33835">
        <ele>230</ele>
        <time>2019-04-14T11:32:52Z</time>
      </trkpt>
      <trkpt lat="44.44604" lon="1.3384">
        <ele>230</ele>
        <time>2019-04-14T11:32:53Z</time>
      </trkpt>
      <trkpt lat="44.44607" lon="1.33845">
        <ele>230</ele>
        <time>2019-04-14T11:32:54Z</time>
      </trkpt>
      <trkpt lat="44.4461" lon="1.33849">
        <ele>230</ele>
        <time>2019-04-14T11:32:55Z</time>
      </trkpt>
      <trkpt lat="44.44612" lon="1.33853">
        <ele>230</ele>
        <time>2019-04-14T11:32:56Z</time>
      </trkpt>
      <trkpt lat="44.44614" lon="1.33857">
        <ele>230</ele>
        <time>2019-04-14T11:32:57Z</time>
      </trkpt>
      <trkpt lat="44.44616" lon="1.33861">
        <ele>229</ele>
        <time>2019-04-14T11:32:58Z</time>
      </trkpt>
      <trkpt lat="44.44617" lon="1.33867">
        <ele>229</ele>
        <time>2019-04-14T11:32:59Z</time>
      </trkpt>
      <trkpt lat="44.44618" lon="1.33873">
        <ele>229</ele>
        <time>2019-04-14T11:33:00Z</time>
      </trkpt>
      <trkpt lat="44.44619" lon="1.33881">
        <ele>228</ele>
        <time>2019-04-14T11:33:01Z</time>
      </trkpt>
      <trkpt lat="44.44622" lon="1.33887">
        <ele>228</ele>
        <time>2019-04-14T11:33:02Z</time>
      </trkpt>
      <trkpt lat="44.44624" lon="1.33893">
        <ele>227</ele>
        <time>2019-04-14T11:33:03Z</time>
      </trkpt>
      <trkpt lat="44.44626" lon="1.33901">
        <ele>226</ele>
        <time>2019-04-14T11:33:04Z</time>
      </trkpt>
      <trkpt lat="44.44626" lon="1.3391">
        <ele>225</ele>
        <time>2019-04-14T11:33:05Z</time>
      </trkpt>
      <trkpt lat="44.44626" lon="1.33919">
        <ele>224</ele>
        <time>2019-04-14T11:33:06Z</time>
      </trkpt>
      <trkpt lat="44.44627" lon="1.33926">
        <ele>224</ele>
        <time>2019-04-14T11:33:07Z</time>
      </trkpt>
      <trkpt lat="44.44629" lon="1.33932">
        <ele>224</ele>
        <time>2019-04-14T11:33:08Z</time>
      </trkpt>
      <trkpt lat="44.44631" lon="1.33936">
        <ele>224</ele>
        <time>2019-04-14T11:33:09Z</time>
      </trkpt>
      <trkpt lat="44.44633" lon="1.3394">
        <ele>224</ele>
        <time>2019-04-14T11:33:10Z</time>
      </trkpt>
      <trkpt lat="44.44634" lon="1.33944">
        <ele>224</ele>
        <time>2019-04-14T11:33:11Z</time>
      </trkpt>
      <trkpt lat="44.44635" lon="1.33947">
        <ele>224</ele>
        <time>2019-04-14T11:33:12Z</time>
      </trkpt>
      <trkpt lat="44.44636" lon="1.3395">
        <ele>224</ele>
        <time>2019-04-14T11:33:13Z</time>
      </trkpt>
      <trkpt lat="44.44637" lon="1.33954">
        <ele>224</ele>
        <time>2019-04-14T11:33:14Z</time>
      </trkpt>
      <trkpt lat="44.44638" lon="1.33957">
        <ele>224</ele>
        <time>2019-04-14T11:33:15Z</time>
      </trkpt>
      <trkpt lat="44.4464" lon="1.33961">
        <ele>224</ele>
        <time>2019-04-14T11:33:16Z</time>
      </trkpt>
      <trkpt lat="44.4464" lon="1.33965">
        <ele>224</ele>
        <time>2019-04-14T11:33:17Z</time>
      </trkpt>
      <trkpt lat="44.4464" lon="1.3397">
        <ele>223</ele>
        <time>2019-04-14T11:33:18Z</time>
      </trkpt>
      <trkpt lat="44.44641" lon="1.33975">
        <ele>223</ele>
        <time>2019-04-14T11:33:19Z</time>
      </trkpt>
      <trkpt lat="44.44641" lon="1.3398">
        <ele>223</ele>
        <time>2019-04-14T11:33:20Z</time>
      </trkpt>
      <trkpt lat="44.44642" lon="1.33986">
        <ele>223</ele>
        <time>2019-04-14T11:33:21Z</time>
      </trkpt>
      <trkpt lat="44.44641" lon="1.33993">
        <ele>222</ele>
        <time>2019-04-14T11:33:22Z</time>
      </trkpt>
      <trkpt lat="44.44641" lon="1.33999">
        <ele>222</ele>
        <time>2019-04-14T11:33:23Z</time>
      </trkpt>
      <trkpt lat="44.44641" lon="1.34004">
        <ele>222</ele>
        <time>2019-04-14T11:33:24Z</time>
      </trkpt>
      <trkpt lat="44.44642" lon="1.34008">
        <ele>222</ele>
        <time>2019-04-14T11:33:25Z</time>
      </trkpt>
      <trkpt lat="44.44644" lon="1.3401">
        <ele>222</ele>
        <time>2019-04-14T11:33:26Z</time>
      </trkpt>
      <trkpt lat="44.44646" lon="1.34012">
        <ele>222</ele>
        <time>2019-04-14T11:33:27Z</time>
      </trkpt>
      <trkpt lat="44.44647" lon="1.34013">
        <ele>222</ele>
        <time>2019-04-14T11:33:28Z</time>
      </trkpt>
      <trkpt lat="44.44648" lon="1.34015">
        <ele>222</ele>
        <time>2019-04-14T11:33:29Z</time>
      </trkpt>
      <trkpt lat="44.4465" lon="1.34017">
        <ele>222</ele>
        <time>2019-04-14T11:33:30Z</time>
      </trkpt>
      <trkpt lat="44.44651" lon="1.34018">
        <ele>222</ele>
        <time>2019-04-14T11:33:31Z</time>
      </trkpt>
      <trkpt lat="44.44652" lon="1.3402">
        <ele>222</ele>
        <time>2019-04-14T11:33:32Z</time>
      </trkpt>
      <trkpt lat="44.44653" lon="1.34021">
        <ele>222</ele>
        <time>2019-04-14T11:33:33Z</time>
      </trkpt>
      <trkpt lat="44.44654" lon="1.34022">
        <ele>222</ele>
        <time>2019-04-14T11:33:34Z</time>
      </trkpt>
      <trkpt lat="44.44654" lon="1.34024">
        <ele>222</ele>
        <time>2019-04-14T11:33:35Z</time>
      </trkpt>
      <trkpt lat="44.44655" lon="1.34025">
        <ele>222</ele>
        <time>2019-04-14T11:33:36Z</time>
      </trkpt>
      <trkpt lat="44.44655" lon="1.34026">
        <ele>222</ele>
        <time>2019-04-14T11:33:37Z</time>
      </trkpt>
      <trkpt lat="44.44655" lon="1.34027">
        <ele>222</ele>
        <time>2019-04-14T11:33:38Z</time>
      </trkpt>
      <trkpt lat="44.44655" lon="1.34028">
        <ele>222</ele>
        <time>2019-04-14T11:33:39Z</time>
      </trkpt>
      <trkpt lat="44.44655" lon="1.3403">
        <ele>222</ele>
        <time>2019-04-14T11:33:40Z</time>
      </trkpt>
      <trkpt lat="44.44654" lon="1.34033">
        <ele>222</ele>
        <time>2019-04-14T11:33:41Z</time>
      </trkpt>
      <trkpt lat="44.44653" lon="1.34037">
        <ele>221</ele>
        <time>2019-04-14T11:33:42Z</time>
      </trkpt>
      <trkpt lat="44.44653" lon="1.34042">
        <ele>221</ele>
        <time>2019-04-14T11:33:43Z</time>
      </trkpt>
      <trkpt lat="44.44652" lon="1.34047">
        <ele>221</ele>
        <time>2019-04-14T11:33:44Z</time>
      </trkpt>
      <trkpt lat="44.44652" lon="1.34053">
        <ele>220</ele>
        <time>2019-04-14T11:33:45Z</time>
      </trkpt>
      <trkpt lat="44.44652" lon="1.3406">
        <ele>220</ele>
        <time>2019-04-14T11:33:46Z</time>
      </trkpt>
      <trkpt lat="44.44653" lon="1.34067">
        <ele>220</ele>
        <time>2019-04-14T11:33:47Z</time>
      </trkpt>
      <trkpt lat="44.44654" lon="1.34074">
        <ele>220</ele>
        <time>2019-04-14T11:33:48Z</time>
      </trkpt>
      <trkpt lat="44.44655" lon="1.34081">
        <ele>219</ele>
        <time>2019-04-14T11:33:49Z</time>
      </trkpt>
      <trkpt lat="44.44655" lon="1.34089">
        <ele>219</ele>
        <time>2019-04-14T11:33:50Z</time>
      </trkpt>
      <trkpt lat="44.44656" lon="1.34096">
        <ele>219</ele>
        <time>2019-04-14T11:33:51Z</time>
      </trkpt>
      <trkpt lat="44.44657" lon="1.34103">
        <ele>218</ele>
        <time>2019-04-14T11:33:52Z</time>
      </trkpt>
      <trkpt lat="44.44658" lon="1.34111">
        <ele>218</ele>
        <time>2019-04-14T11:33:53Z</time>
      </trkpt>
      <trkpt lat="44.44659" lon="1.34117">
        <ele>217</ele>
        <time>2019-04-14T11:33:54Z</time>
      </trkpt>
      <trkpt lat="44.44659" lon="1.34125">
        <ele>217</ele>
        <time>2019-04-14T11:33:55Z</time>
      </trkpt>
      <trkpt lat="44.44659" lon="1.34132">
        <ele>217</ele>
        <time>2019-04-14T11:33:56Z</time>
      </trkpt>
      <trkpt lat="44.4466" lon="1.3414">
        <ele>216</ele>
        <time>2019-04-14T11:33:57Z</time>
      </trkpt>
      <trkpt lat="44.44661" lon="1.34148">
        <ele>216</ele>
        <time>2019-04-14T11:33:58Z</time>
      </trkpt>
      <trkpt lat="44.44661" lon="1.34156">
        <ele>215</ele>
        <time>2019-04-14T11:33:59Z</time>
      </trkpt>
      <trkpt lat="44.44661" lon="1.34164">
        <ele>215</ele>
        <time>2019-04-14T11:34:00Z</time>
      </trkpt>
      <trkpt lat="44.44662" lon="1.34174">
        <ele>214</ele>
        <time>2019-04-14T11:34:01Z</time>
      </trkpt>
      <trkpt lat="44.44663" lon="1.34183">
        <ele>214</ele>
        <time>2019-04-14T11:34:02Z</time>
      </trkpt>
      <trkpt lat="44.44663" lon="1.3419">
        <ele>213</ele>
        <time>2019-04-14T11:34:03Z</time>
      </trkpt>
      <trkpt lat="44.44664" lon="1.34194">
        <ele>213</ele>
        <time>2019-04-14T11:34:04Z</time>
      </trkpt>
      <trkpt lat="44.44664" lon="1.34198">
        <ele>213</ele>
        <time>2019-04-14T11:34:05Z</time>
      </trkpt>
      <trkpt lat="44.44665" lon="1.34204">
        <ele>212</ele>
        <time>2019-04-14T11:34:06Z</time>
      </trkpt>
      <trkpt lat="44.44664" lon="1.34209">
        <ele>212</ele>
        <time>2019-04-14T11:34:07Z</time>
      </trkpt>
      <trkpt lat="44.44665" lon="1.34215">
        <ele>212</ele>
        <time>2019-04-14T11:34:08Z</time>
      </trkpt>
      <trkpt lat="44.44667" lon="1.34222">
        <ele>212</ele>
        <time>2019-04-14T11:34:09Z</time>
      </trkpt>
      <trkpt lat="44.44669" lon="1.34228">
        <ele>212</ele>
        <time>2019-04-14T11:34:10Z</time>
      </trkpt>
      <trkpt lat="44.4467" lon="1.34234">
        <ele>212</ele>
        <time>2019-04-14T11:34:11Z</time>
      </trkpt>
      <trkpt lat="44.44672" lon="1.3424">
        <ele>211</ele>
        <time>2019-04-14T11:34:12Z</time>
      </trkpt>
      <trkpt lat="44.44674" lon="1.34246">
        <ele>211</ele>
        <time>2019-04-14T11:34:13Z</time>
      </trkpt>
      <trkpt lat="44.44674" lon="1.34252">
        <ele>211</ele>
        <time>2019-04-14T11:34:14Z</time>
      </trkpt>
      <trkpt lat="44.44673" lon="1.34258">
        <ele>210</ele>
        <time>2019-04-14T11:34:15Z</time>
      </trkpt>
      <trkpt lat="44.44671" lon="1.34264">
        <ele>210</ele>
        <time>2019-04-14T11:34:16Z</time>
      </trkpt>
      <trkpt lat="44.44671" lon="1.34269">
        <ele>209</ele>
        <time>2019-04-14T11:34:17Z</time>
      </trkpt>
      <trkpt lat="44.44673" lon="1.34273">
        <ele>209</ele>
        <time>2019-04-14T11:34:18Z</time>
      </trkpt>
      <trkpt lat="44.44675" lon="1.34277">
        <ele>209</ele>
        <time>2019-04-14T11:34:19Z</time>
      </trkpt>
      <trkpt lat="44.44676" lon="1.34282">
        <ele>209</ele>
        <time>2019-04-14T11:34:20Z</time>
      </trkpt>
      <trkpt lat="44.44677" lon="1.34287">
        <ele>209</ele>
        <time>2019-04-14T11:34:21Z</time>
      </trkpt>
      <trkpt lat="44.44678" lon="1.34293">
        <ele>208</ele>
        <time>2019-04-14T11:34:22Z</time>
      </trkpt>
      <trkpt lat="44.4468" lon="1.34299">
        <ele>208</ele>
        <time>2019-04-14T11:34:23Z</time>
      </trkpt>
      <trkpt lat="44.4468" lon="1.34306">
        <ele>208</ele>
        <time>2019-04-14T11:34:24Z</time>
      </trkpt>
      <trkpt lat="44.44681" lon="1.34314">
        <ele>207</ele>
        <time>2019-04-14T11:34:25Z</time>
      </trkpt>
      <trkpt lat="44.44682" lon="1.34321">
        <ele>207</ele>
        <time>2019-04-14T11:34:26Z</time>
      </trkpt>
      <trkpt lat="44.44683" lon="1.34328">
        <ele>207</ele>
        <time>2019-04-14T11:34:27Z</time>
      </trkpt>
      <trkpt lat="44.44685" lon="1.34334">
        <ele>206</ele>
        <time>2019-04-14T11:34:28Z</time>
      </trkpt>
      <trkpt lat="44.44688" lon="1.34339">
        <ele>206</ele>
        <time>2019-04-14T11:34:29Z</time>
      </trkpt>
      <trkpt lat="44.44692" lon="1.34345">
        <ele>206</ele>
        <time>2019-04-14T11:34:30Z</time>
      </trkpt>
      <trkpt lat="44.44696" lon="1.3435">
        <ele>205</ele>
        <time>2019-04-14T11:34:31Z</time>
      </trkpt>
      <trkpt lat="44.447" lon="1.34356">
        <ele>205</ele>
        <time>2019-04-14T11:34:32Z</time>
      </trkpt>
      <trkpt lat="44.44704" lon="1.34363">
        <ele>204</ele>
        <time>2019-04-14T11:34:33Z</time>
      </trkpt>
      <trkpt lat="44.44708" lon="1.3437">
        <ele>203</ele>
        <time>2019-04-14T11:34:34Z</time>
      </trkpt>
      <trkpt lat="44.44711" lon="1.34376">
        <ele>202</ele>
        <time>2019-04-14T11:34:35Z</time>
      </trkpt>
      <trkpt lat="44.44714" lon="1.34381">
        <ele>201</ele>
        <time>2019-04-14T11:34:36Z</time>
      </trkpt>
      <trkpt lat="44.44716" lon="1.34385">
        <ele>201</ele>
        <time>2019-04-14T11:34:37Z</time>
      </trkpt>
      <trkpt lat="44.44717" lon="1.34389">
        <ele>200</ele>
        <time>2019-04-14T11:34:38Z</time>
      </trkpt>
      <trkpt lat="44.44719" lon="1.34394">
        <ele>199</ele>
        <time>2019-04-14T11:34:39Z</time>
      </trkpt>
      <trkpt lat="44.44721" lon="1.34399">
        <ele>199</ele>
        <time>2019-04-14T11:34:40Z</time>
      </trkpt>
      <trkpt lat="44.44724" lon="1.34405">
        <ele>198</ele>
        <time>2019-04-14T11:34:41Z</time>
      </trkpt>
      <trkpt lat="44.44724" lon="1.34411">
        <ele>198</ele>
        <time>2019-04-14T11:34:42Z</time>
      </trkpt>
      <trkpt lat="44.44723" lon="1.34417">
        <ele>198</ele>
        <time>2019-04-14T11:34:43Z</time>
      </trkpt>
      <trkpt lat="44.44722" lon="1.34422">
        <ele>197</ele>
        <time>2019-04-14T11:34:44Z</time>
      </trkpt>
      <trkpt lat="44.44721" lon="1.34427">
        <ele>198</ele>
        <time>2019-04-14T11:34:45Z</time>
      </trkpt>
      <trkpt lat="44.44721" lon="1.34431">
        <ele>198</ele>
        <time>2019-04-14T11:34:46Z</time>
      </trkpt>
      <trkpt lat="44.4472" lon="1.34434">
        <ele>198</ele>
        <time>2019-04-14T11:34:47Z</time>
      </trkpt>
      <trkpt lat="44.44719" lon="1.34437">
        <ele>198</ele>
        <time>2019-04-14T11:34:48Z</time>
      </trkpt>
      <trkpt lat="44.44718" lon="1.34439">
        <ele>198</ele>
        <time>2019-04-14T11:34:49Z</time>
      </trkpt>
      <trkpt lat="44.44717" lon="1.34441">
        <ele>197</ele>
        <time>2019-04-14T11:34:50Z</time>
      </trkpt>
      <trkpt lat="44.44716" lon="1.34444">
        <ele>197</ele>
        <time>2019-04-14T11:34:51Z</time>
      </trkpt>
      <trkpt lat="44.44716" lon="1.34446">
        <ele>197</ele>
        <time>2019-04-14T11:34:52Z</time>
      </trkpt>
      <trkpt lat="44.44715" lon="1.34449">
        <ele>197</ele>
        <time>2019-04-14T11:34:53Z</time>
      </trkpt>
      <trkpt lat="44.44716" lon="1.34451">
        <ele>197</ele>
        <time>2019-04-14T11:34:54Z</time>
      </trkpt>
      <trkpt lat="44.44716" lon="1.34453">
        <ele>197</ele>
        <time>2019-04-14T11:34:55Z</time>
      </trkpt>
      <trkpt lat="44.44715" lon="1.34456">
        <ele>197</ele>
        <time>2019-04-14T11:34:56Z</time>
      </trkpt>
      <trkpt lat="44.44714" lon="1.3446">
        <ele>197</ele>
        <time>2019-04-14T11:34:57Z</time>
      </trkpt>
      <trkpt lat="44.44713" lon="1.34464">
        <ele>197</ele>
        <time>2019-04-14T11:34:58Z</time>
      </trkpt>
      <trkpt lat="44.44711" lon="1.34469">
        <ele>196</ele>
        <time>2019-04-14T11:34:59Z</time>
      </trkpt>
      <trkpt lat="44.4471" lon="1.34472">
        <ele>196</ele>
        <time>2019-04-14T11:35:00Z</time>
      </trkpt>
      <trkpt lat="44.44708" lon="1.34475">
        <ele>195</ele>
        <time>2019-04-14T11:35:01Z</time>
      </trkpt>
      <trkpt lat="44.44707" lon="1.34479">
        <ele>195</ele>
        <time>2019-04-14T11:35:02Z</time>
      </trkpt>
      <trkpt lat="44.44706" lon="1.34484">
        <ele>195</ele>
        <time>2019-04-14T11:35:03Z</time>
      </trkpt>
      <trkpt lat="44.44705" lon="1.34489">
        <ele>195</ele>
        <time>2019-04-14T11:35:04Z</time>
      </trkpt>
      <trkpt lat="44.44703" lon="1.34494">
        <ele>194</ele>
        <time>2019-04-14T11:35:05Z</time>
      </trkpt>
      <trkpt lat="44.44703" lon="1.34498">
        <ele>194</ele>
        <time>2019-04-14T11:35:06Z</time>
      </trkpt>
      <trkpt lat="44.44702" lon="1.34501">
        <ele>193</ele>
        <time>2019-04-14T11:35:07Z</time>
      </trkpt>
      <trkpt lat="44.44701" lon="1.34504">
        <ele>193</ele>
        <time>2019-04-14T11:35:08Z</time>
      </trkpt>
      <trkpt lat="44.447" lon="1.34508">
        <ele>193</ele>
        <time>2019-04-14T11:35:09Z</time>
      </trkpt>
      <trkpt lat="44.44699" lon="1.34512">
        <ele>192</ele>
        <time>2019-04-14T11:35:10Z</time>
      </trkpt>
      <trkpt lat="44.44697" lon="1.34515">
        <ele>192</ele>
        <time>2019-04-14T11:35:11Z</time>
      </trkpt>
      <trkpt lat="44.44697" lon="1.34519">
        <ele>192</ele>
        <time>2019-04-14T11:35:12Z</time>
      </trkpt>
      <trkpt lat="44.44697" lon="1.34522">
        <ele>192</ele>
        <time>2019-04-14T11:35:13Z</time>
      </trkpt>
      <trkpt lat="44.44697" lon="1.34526">
        <ele>192</ele>
        <time>2019-04-14T11:35:14Z</time>
      </trkpt>
      <trkpt lat="44.44697" lon="1.3453">
        <ele>192</ele>
        <time>2019-04-14T11:35:15Z</time>
      </trkpt>
      <trkpt lat="44.44696" lon="1.34535">
        <ele>193</ele>
        <time>2019-04-14T11:35:16Z</time>
      </trkpt>
      <trkpt lat="44.44697" lon="1.3454">
        <ele>193</ele>
        <time>2019-04-14T11:35:17Z</time>
      </trkpt>
      <trkpt lat="44.44697" lon="1.34544">
        <ele>193</ele>
        <time>2019-04-14T11:35:18Z</time>
      </trkpt>
      <trkpt lat="44.44695" lon="1.34546">
        <ele>193</ele>
        <time>2019-04-14T11:35:19Z</time>
      </trkpt>
      <trkpt lat="44.44694" lon="1.34549">
        <ele>193</ele>
        <time>2019-04-14T11:35:20Z</time>
      </trkpt>
      <trkpt lat="44.44694" lon="1.34553">
        <ele>193</ele>
        <time>2019-04-14T11:35:21Z</time>
      </trkpt>
      <trkpt lat="44.44694" lon="1.34557">
        <ele>193</ele>
        <time>2019-04-14T11:35:22Z</time>
      </trkpt>
      <trkpt lat="44.44695" lon="1.34561">
        <ele>193</ele>
        <time>2019-04-14T11:35:23Z</time>
      </trkpt>
      <trkpt lat="44.44695" lon="1.34566">
        <ele>192</ele>
        <time>2019-04-14T11:35:24Z</time>
      </trkpt>
      <trkpt lat="44.44695" lon="1.34571">
        <ele>192</ele>
        <time>2019-04-14T11:35:25Z</time>
      </trkpt>
      <trkpt lat="44.44694" lon="1.34576">
        <ele>192</ele>
        <time>2019-04-14T11:35:26Z</time>
      </trkpt>
      <trkpt lat="44.44694" lon="1.34581">
        <ele>191</ele>
        <time>2019-04-14T11:35:27Z</time>
      </trkpt>
      <trkpt lat="44.44695" lon="1.34586">
        <ele>191</ele>
        <time>2019-04-14T11:35:28Z</time>
      </trkpt>
      <trkpt lat="44.44694" lon="1.34592">
        <ele>191</ele>
        <time>2019-04-14T11:35:29Z</time>
      </trkpt>
      <trkpt lat="44.44694" lon="1.34597">
        <ele>190</ele>
        <time>2019-04-14T11:35:30Z</time>
      </trkpt>
      <trkpt lat="44.44694" lon="1.34603">
        <ele>190</ele>
        <time>2019-04-14T11:35:31Z</time>
      </trkpt>
      <trkpt lat="44.44694" lon="1.34609">
        <ele>189</ele>
        <time>2019-04-14T11:35:32Z</time>
      </trkpt>
      <trkpt lat="44.44695" lon="1.34614">
        <ele>189</ele>
        <time>2019-04-14T11:35:33Z</time>
      </trkpt>
      <trkpt lat="44.44695" lon="1.3462">
        <ele>188</ele>
        <time>2019-04-14T11:35:34Z</time>
      </trkpt>
      <trkpt lat="44.44695" lon="1.34626">
        <ele>188</ele>
        <time>2019-04-14T11:35:35Z</time>
      </trkpt>
      <trkpt lat="44.44696" lon="1.3463">
        <ele>188</ele>
        <time>2019-04-14T11:35:36Z</time>
      </trkpt>
      <trkpt lat="44.44696" lon="1.34634">
        <ele>188</ele>
        <time>2019-04-14T11:35:37Z</time>
      </trkpt>
      <trkpt lat="44.44697" lon="1.34637">
        <ele>188</ele>
        <time>2019-04-14T11:35:38Z</time>
      </trkpt>
      <trkpt lat="44.44697" lon="1.3464">
        <ele>189</ele>
        <time>2019-04-14T11:35:39Z</time>
      </trkpt>
      <trkpt lat="44.44699" lon="1.34644">
        <ele>189</ele>
        <time>2019-04-14T11:35:40Z</time>
      </trkpt>
      <trkpt lat="44.447" lon="1.34647">
        <ele>190</ele>
        <time>2019-04-14T11:35:41Z</time>
      </trkpt>
      <trkpt lat="44.44702" lon="1.3465">
        <ele>190</ele>
        <time>2019-04-14T11:35:42Z</time>
      </trkpt>
      <trkpt lat="44.44702" lon="1.34653">
        <ele>190</ele>
        <time>2019-04-14T11:35:43Z</time>
      </trkpt>
      <trkpt lat="44.44703" lon="1.34656">
        <ele>190</ele>
        <time>2019-04-14T11:35:44Z</time>
      </trkpt>
      <trkpt lat="44.44702" lon="1.34659">
        <ele>190</ele>
        <time>2019-04-14T11:35:45Z</time>
      </trkpt>
      <trkpt lat="44.44702" lon="1.34663">
        <ele>190</ele>
        <time>2019-04-14T11:35:46Z</time>
      </trkpt>
      <trkpt lat="44.44702" lon="1.34668">
        <ele>190</ele>
        <time>2019-04-14T11:35:47Z</time>
      </trkpt>
      <trkpt lat="44.44702" lon="1.34673">
        <ele>190</ele>
        <time>2019-04-14T11:35:48Z</time>
      </trkpt>
      <trkpt lat="44.44702" lon="1.34678">
        <ele>190</ele>
        <time>2019-04-14T11:35:49Z</time>
      </trkpt>
      <trkpt lat="44.44703" lon="1.34682">
        <ele>190</ele>
        <time>2019-04-14T11:35:50Z</time>
      </trkpt>
      <trkpt lat="44.44704" lon="1.34685">
        <ele>190</ele>
        <time>2019-04-14T11:35:51Z</time>
      </trkpt>
      <trkpt lat="44.44706" lon="1.34688">
        <ele>191</ele>
        <time>2019-04-14T11:35:52Z</time>
      </trkpt>
      <trkpt lat="44.44707" lon="1.34691">
        <ele>191</ele>
        <time>2019-04-14T11:35:53Z</time>
      </trkpt>
      <trkpt lat="44.44708" lon="1.34695">
        <ele>192</ele>
        <time>2019-04-14T11:35:54Z</time>
      </trkpt>
      <trkpt lat="44.44709" lon="1.34698">
        <ele>192</ele>
        <time>2019-04-14T11:35:55Z</time>
      </trkpt>
      <trkpt lat="44.44709" lon="1.34702">
        <ele>192</ele>
        <time>2019-04-14T11:35:56Z</time>
      </trkpt>
      <trkpt lat="44.44709" lon="1.34706">
        <ele>192</ele>
        <time>2019-04-14T11:35:57Z</time>
      </trkpt>
      <trkpt lat="44.44709" lon="1.3471">
        <ele>192</ele>
        <time>2019-04-14T11:35:58Z</time>
      </trkpt>
      <trkpt lat="44.4471" lon="1.34713">
        <ele>192</ele>
        <time>2019-04-14T11:35:59Z</time>
      </trkpt>
      <trkpt lat="44.4471" lon="1.34717">
        <ele>192</ele>
        <time>2019-04-14T11:36:00Z</time>
      </trkpt>
      <trkpt lat="44.44711" lon="1.34721">
        <ele>192</ele>
        <time>2019-04-14T11:36:01Z</time>
      </trkpt>
      <trkpt lat="44.44711" lon="1.34724">
        <ele>192</ele>
        <time>2019-04-14T11:36:02Z</time>
      </trkpt>
      <trkpt lat="44.44711" lon="1.34727">
        <ele>192</ele>
        <time>2019-04-14T11:36:03Z</time>
      </trkpt>
      <trkpt lat="44.44711" lon="1.34728">
        <ele>192</ele>
        <time>2019-04-14T11:36:04Z</time>
      </trkpt>
      <trkpt lat="44.44711" lon="1.34729">
        <ele>192</ele>
        <time>2019-04-14T11:36:05Z</time>
      </trkpt>
      <trkpt lat="44.44712" lon="1.34731">
        <ele>192</ele>
        <time>2019-04-14T11:36:06Z</time>
      </trkpt>
      <trkpt lat="44.44712" lon="1.34733">
        <ele>192</ele>
        <time>2019-04-14T11:36:07Z</time>
      </trkpt>
      <trkpt lat="44.44712" lon="1.34736">
        <ele>192</ele>
        <time>2019-04-14T11:36:08Z</time>
      </trkpt>
      <trkpt lat="44.44713" lon="1.34738">
        <ele>192</ele>
        <time>2019-04-14T11:36:09Z</time>
      </trkpt>
      <trkpt lat="44.44713" lon="1.34741">
        <ele>192</ele>
        <time>2019-04-14T11:36:10Z</time>
      </trkpt>
      <trkpt lat="44.44713" lon="1.34744">
        <ele>192</ele>
        <time>2019-04-14T11:36:11Z</time>
      </trkpt>
      <trkpt lat="44.44713" lon="1.34747">
        <ele>192</ele>
        <time>2019-04-14T11:36:12Z</time>
      </trkpt>
      <trkpt lat="44.44713" lon="1.34751">
        <ele>192</ele>
        <time>2019-04-14T11:36:13Z</time>
      </trkpt>
      <trkpt lat="44.44712" lon="1.34756">
        <ele>191</ele>
        <time>2019-04-14T11:36:14Z</time>
      </trkpt>
      <trkpt lat="44.44712" lon="1.34759">
        <ele>191</ele>
        <time>2019-04-14T11:36:15Z</time>
      </trkpt>
      <trkpt lat="44.44712" lon="1.34762">
        <ele>191</ele>
        <time>2019-04-14T11:36:16Z</time>
      </trkpt>
      <trkpt lat="44.44712" lon="1.34765">
        <ele>191</ele>
        <time>2019-04-14T11:36:17Z</time>
      </trkpt>
      <trkpt lat="44.44712" lon="1.34769">
        <ele>191</ele>
        <time>2019-04-14T11:36:18Z</time>
      </trkpt>
      <trkpt lat="44.44713" lon="1.34774">
        <ele>191</ele>
        <time>2019-04-14T11:36:19Z</time>
      </trkpt>
      <trkpt lat="44.44713" lon="1.34777">
        <ele>190</ele>
        <time>2019-04-14T11:36:20Z</time>
      </trkpt>
      <trkpt lat="44.44713" lon="1.34779">
        <ele>190</ele>
        <time>2019-04-14T11:36:21Z</time>
      </trkpt>
      <trkpt lat="44.44712" lon="1.34782">
        <ele>190</ele>
        <time>2019-04-14T11:36:22Z</time>
      </trkpt>
      <trkpt lat="44.44711" lon="1.34785">
        <ele>189</ele>
        <time>2019-04-14T11:36:23Z</time>
      </trkpt>
      <trkpt lat="44.4471" lon="1.34788">
        <ele>189</ele>
        <time>2019-04-14T11:36:24Z</time>
      </trkpt>
      <trkpt lat="44.44708" lon="1.34792">
        <ele>188</ele>
        <time>2019-04-14T11:36:25Z</time>
      </trkpt>
      <trkpt lat="44.44708" lon="1.34796">
        <ele>188</ele>
        <time>2019-04-14T11:36:26Z</time>
      </trkpt>
      <trkpt lat="44.44708" lon="1.34799">
        <ele>188</ele>
        <time>2019-04-14T11:36:27Z</time>
      </trkpt>
      <trkpt lat="44.44708" lon="1.34802">
        <ele>188</ele>
        <time>2019-04-14T11:36:28Z</time>
      </trkpt>
      <trkpt lat="44.44708" lon="1.34804">
        <ele>187</ele>
        <time>2019-04-14T11:36:29Z</time>
      </trkpt>
      <trkpt lat="44.44708" lon="1.34806">
        <ele>187</ele>
        <time>2019-04-14T11:36:30Z</time>
      </trkpt>
      <trkpt lat="44.44708" lon="1.34808">
        <ele>187</ele>
        <time>2019-04-14T11:36:31Z</time>
      </trkpt>
      <trkpt lat="44.44708" lon="1.34811">
        <ele>187</ele>
        <time>2019-04-14T11:36:32Z</time>
      </trkpt>
      <trkpt lat="44.44708" lon="1.34814">
        <ele>187</ele>
        <time>2019-04-14T11:36:33Z</time>
      </trkpt>
      <trkpt lat="44.4471" lon="1.34817">
        <ele>187</ele>
        <time>2019-04-14T11:36:34Z</time>
      </trkpt>
      <trkpt lat="44.44711" lon="1.34821">
        <ele>187</ele>
        <time>2019-04-14T11:36:35Z</time>
      </trkpt>
      <trkpt lat="44.44711" lon="1.34825">
        <ele>187</ele>
        <time>2019-04-14T11:36:36Z</time>
      </trkpt>
      <trkpt lat="44.4471" lon="1.34829">
        <ele>187</ele>
        <time>2019-04-14T11:36:37Z</time>
      </trkpt>
      <trkpt lat="44.44711" lon="1.34834">
        <ele>186</ele>
        <time>2019-04-14T11:36:38Z</time>
      </trkpt>
      <trkpt lat="44.44712" lon="1.3484">
        <ele>186</ele>
        <time>2019-04-14T11:36:39Z</time>
      </trkpt>
      <trkpt lat="44.44713" lon="1.34844">
        <ele>186</ele>
        <time>2019-04-14T11:36:40Z</time>
      </trkpt>
      <trkpt lat="44.44714" lon="1.34847">
        <ele>186</ele>
        <time>2019-04-14T11:36:41Z</time>
      </trkpt>
      <trkpt lat="44.44714" lon="1.34851">
        <ele>186</ele>
        <time>2019-04-14T11:36:42Z</time>
      </trkpt>
      <trkpt lat="44.44715" lon="1.34854">
        <ele>186</ele>
        <time>2019-04-14T11:36:43Z</time>
      </trkpt>
      <trkpt lat="44.44716" lon="1.34856">
        <ele>186</ele>
        <time>2019-04-14T11:36:44Z</time>
      </trkpt>
      <trkpt lat="44.44718" lon="1.34857">
        <ele>186</ele>
        <time>2019-04-14T11:36:45Z</time>
      </trkpt>
      <trkpt lat="44.4472" lon="1.34857">
        <ele>186</ele>
        <time>2019-04-14T11:36:46Z</time>
      </trkpt>
      <trkpt lat="44.44722" lon="1.34859">
        <ele>187</ele>
        <time>2019-04-14T11:36:47Z</time>
      </trkpt>
      <trkpt lat="44.44723" lon="1.34861">
        <ele>187</ele>
        <time>2019-04-14T11:36:48Z</time>
      </trkpt>
      <trkpt lat="44.44724" lon="1.34863">
        <ele>186</ele>
        <time>2019-04-14T11:36:49Z</time>
      </trkpt>
      <trkpt lat="44.44727" lon="1.34865">
        <ele>187</ele>
        <time>2019-04-14T11:36:50Z</time>
      </trkpt>
      <trkpt lat="44.44729" lon="1.34866">
        <ele>187</ele>
        <time>2019-04-14T11:36:51Z</time>
      </trkpt>
      <trkpt lat="44.44731" lon="1.34867">
        <ele>186</ele>
        <time>2019-04-14T11:36:52Z</time>
      </trkpt>
      <trkpt lat="44.44735" lon="1.34868">
        <ele>186</ele>
        <time>2019-04-14T11:36:53Z</time>
      </trkpt>
      <trkpt lat="44.44738" lon="1.34869">
        <ele>185</ele>
        <time>2019-04-14T11:36:54Z</time>
      </trkpt>
      <trkpt lat="44.44743" lon="1.3487">
        <ele>184</ele>
        <time>2019-04-14T11:36:55Z</time>
      </trkpt>
      <trkpt lat="44.44748" lon="1.3487">
        <ele>184</ele>
        <time>2019-04-14T11:36:56Z</time>
      </trkpt>
      <trkpt lat="44.44752" lon="1.34871">
        <ele>183</ele>
        <time>2019-04-14T11:36:57Z</time>
      </trkpt>
      <trkpt lat="44.44755" lon="1.34871">
        <ele>182</ele>
        <time>2019-04-14T11:36:58Z</time>
      </trkpt>
      <trkpt lat="44.44758" lon="1.34872">
        <ele>181</ele>
        <time>2019-04-14T11:36:59Z</time>
      </trkpt>
      <trkpt lat="44.44761" lon="1.34871">
        <ele>180</ele>
        <time>2019-04-14T11:37:00Z</time>
      </trkpt>
      <trkpt lat="44.44766" lon="1.3487">
        <ele>179</ele>
        <time>2019-04-14T11:37:01Z</time>
      </trkpt>
      <trkpt lat="44.4477" lon="1.34869">
        <ele>178</ele>
        <time>2019-04-14T11:37:02Z</time>
      </trkpt>
      <trkpt lat="44.44775" lon="1.34869">
        <ele>178</ele>
        <time>2019-04-14T11:37:03Z</time>
      </trkpt>
      <trkpt lat="44.44779" lon="1.34869">
        <ele>177</ele>
        <time>2019-04-14T11:37:04Z</time>
      </trkpt>
      <trkpt lat="44.44782" lon="1.34868">
        <ele>176</ele>
        <time>2019-04-14T11:37:05Z</time>
      </trkpt>
      <trkpt lat="44.44785" lon="1.34868">
        <ele>175</ele>
        <time>2019-04-14T11:37:06Z</time>
      </trkpt>
      <trkpt lat="44.44788" lon="1.34871">
        <ele>174</ele>
        <time>2019-04-14T11:37:07Z</time>
      </trkpt>
      <trkpt lat="44.44793" lon="1.34874">
        <ele>173</ele>
        <time>2019-04-14T11:37:08Z</time>
      </trkpt>
      <trkpt lat="44.44796" lon="1.34878">
        <ele>173</ele>
        <time>2019-04-14T11:37:09Z</time>
      </trkpt>
      <trkpt lat="44.44799" lon="1.34881">
        <ele>173</ele>
        <time>2019-04-14T11:37:10Z</time>
      </trkpt>
      <trkpt lat="44.44801" lon="1.34884">
        <ele>173</ele>
        <time>2019-04-14T11:37:11Z</time>
      </trkpt>
      <trkpt lat="44.44803" lon="1.34885">
        <ele>173</ele>
        <time>2019-04-14T11:37:12Z</time>
      </trkpt>
      <trkpt lat="44.44804" lon="1.34886">
        <ele>173</ele>
        <time>2019-04-14T11:37:13Z</time>
      </trkpt>
      <trkpt lat="44.44807" lon="1.34889">
        <ele>173</ele>
        <time>2019-04-14T11:37:14Z</time>
      </trkpt>
      <trkpt lat="44.44809" lon="1.3489">
        <ele>174</ele>
        <time>2019-04-14T11:37:15Z</time>
      </trkpt>
      <trkpt lat="44.4481" lon="1.34891">
        <ele>175</ele>
        <time>2019-04-14T11:37:16Z</time>
      </trkpt>
      <trkpt lat="44.44812" lon="1.34893">
        <ele>175</ele>
        <time>2019-04-14T11:37:17Z</time>
      </trkpt>
      <trkpt lat="44.44813" lon="1.34894">
        <ele>175</ele>
        <time>2019-04-14T11:37:18Z</time>
      </trkpt>
      <trkpt lat="44.44814" lon="1.34896">
        <ele>175</ele>
        <time>2019-04-14T11:37:19Z</time>
      </trkpt>
      <trkpt lat="44.44814" lon="1.34897">
        <ele>175</ele>
        <time>2019-04-14T11:37:20Z</time>
      </trkpt>
      <trkpt lat="44.44816" lon="1.34899">
        <ele>175</ele>
        <time>2019-04-14T11:37:21Z</time>
      </trkpt>
      <trkpt lat="44.44817" lon="1.34901">
        <ele>175</ele>
        <time>2019-04-14T11:37:22Z</time>
      </trkpt>
      <trkpt lat="44.44819" lon="1.34903">
        <ele>175</ele>
        <time>2019-04-14T11:37:23Z</time>
      </trkpt>
      <trkpt lat="44.4482" lon="1.34904">
        <ele>175</ele>
        <time>2019-04-14T11:37:24Z</time>
      </trkpt>
      <trkpt lat="44.4482" lon="1.34905">
        <ele>176</ele>
        <time>2019-04-14T11:37:25Z</time>
      </trkpt>
      <trkpt lat="44.44821" lon="1.34906">
        <ele>176</ele>
        <time>2019-04-14T11:37:26Z</time>
      </trkpt>
      <trkpt lat="44.44822" lon="1.34907">
        <ele>176</ele>
        <time>2019-04-14T11:37:27Z</time>
      </trkpt>
      <trkpt lat="44.44824" lon="1.34907">
        <ele>176</ele>
        <time>2019-04-14T11:37:28Z</time>
      </trkpt>
      <trkpt lat="44.44825" lon="1.34908">
        <ele>176</ele>
        <time>2019-04-14T11:37:29Z</time>
      </trkpt>
      <trkpt lat="44.44827" lon="1.34909">
        <ele>177</ele>
        <time>2019-04-14T11:37:30Z</time>
      </trkpt>
      <trkpt lat="44.44828" lon="1.3491">
        <ele>177</ele>
        <time>2019-04-14T11:37:31Z</time>
      </trkpt>
      <trkpt lat="44.4483" lon="1.34912">
        <ele>178</ele>
        <time>2019-04-14T11:37:32Z</time>
      </trkpt>
      <trkpt lat="44.44831" lon="1.34913">
        <ele>178</ele>
        <time>2019-04-14T11:37:33Z</time>
      </trkpt>
      <trkpt lat="44.44832" lon="1.34913">
        <ele>178</ele>
        <time>2019-04-14T11:37:34Z</time>
      </trkpt>
      <trkpt lat="44.44833" lon="1.34915">
        <ele>178</ele>
        <time>2019-04-14T11:37:35Z</time>
      </trkpt>
      <trkpt lat="44.44834" lon="1.34916">
        <ele>178</ele>
        <time>2019-04-14T11:37:36Z</time>
      </trkpt>
      <trkpt lat="44.44836" lon="1.34918">
        <ele>178</ele>
        <time>2019-04-14T11:37:37Z</time>
      </trkpt>
      <trkpt lat="44.44837" lon="1.3492">
        <ele>178</ele>
        <time>2019-04-14T11:37:38Z</time>
      </trkpt>
      <trkpt lat="44.44838" lon="1.34921">
        <ele>178</ele>
        <time>2019-04-14T11:37:39Z</time>
      </trkpt>
      <trkpt lat="44.4484" lon="1.34922">
        <ele>178</ele>
        <time>2019-04-14T11:37:40Z</time>
      </trkpt>
      <trkpt lat="44.44841" lon="1.34923">
        <ele>179</ele>
        <time>2019-04-14T11:37:41Z</time>
      </trkpt>
      <trkpt lat="44.44842" lon="1.34924">
        <ele>179</ele>
        <time>2019-04-14T11:37:42Z</time>
      </trkpt>
      <trkpt lat="44.44842" lon="1.34924">
        <ele>179</ele>
        <time>2019-04-14T11:37:43Z</time>
      </trkpt>
      <trkpt lat="44.44843" lon="1.34926">
        <ele>178</ele>
        <time>2019-04-14T11:37:44Z</time>
      </trkpt>
      <trkpt lat="44.44844" lon="1.34928">
        <ele>178</ele>
        <time>2019-04-14T11:37:45Z</time>
      </trkpt>
      <trkpt lat="44.44846" lon="1.3493">
        <ele>178</ele>
        <time>2019-04-14T11:37:46Z</time>
      </trkpt>
      <trkpt lat="44.44848" lon="1.34931">
        <ele>179</ele>
        <time>2019-04-14T11:37:47Z</time>
      </trkpt>
      <trkpt lat="44.4485" lon="1.34932">
        <ele>179</ele>
        <time>2019-04-14T11:37:48Z</time>
      </trkpt>
      <trkpt lat="44.44852" lon="1.34934">
        <ele>179</ele>
        <time>2019-04-14T11:37:49Z</time>
      </trkpt>
      <trkpt lat="44.44854" lon="1.34935">
        <ele>180</ele>
        <time>2019-04-14T11:37:50Z</time>
      </trkpt>
      <trkpt lat="44.44856" lon="1.34936">
        <ele>180</ele>
        <time>2019-04-14T11:37:51Z</time>
      </trkpt>
      <trkpt lat="44.44856" lon="1.34937">
        <ele>180</ele>
        <time>2019-04-14T11:37:52Z</time>
      </trkpt>
      <trkpt lat="44.44857" lon="1.34938">
        <ele>180</ele>
        <time>2019-04-14T11:37:53Z</time>
      </trkpt>
      <trkpt lat="44.44858" lon="1.3494">
        <ele>181</ele>
        <time>2019-04-14T11:37:54Z</time>
      </trkpt>
      <trkpt lat="44.4486" lon="1.34941">
        <ele>181</ele>
        <time>2019-04-14T11:37:55Z</time>
      </trkpt>
      <trkpt lat="44.44862" lon="1.34943">
        <ele>181</ele>
        <time>2019-04-14T11:37:56Z</time>
      </trkpt>
      <trkpt lat="44.44864" lon="1.34944">
        <ele>181</ele>
        <time>2019-04-14T11:37:57Z</time>
      </trkpt>
      <trkpt lat="44.44866" lon="1.34946">
        <ele>181</ele>
        <time>2019-04-14T11:37:58Z</time>
      </trkpt>
      <trkpt lat="44.44868" lon="1.34948">
        <ele>182</ele>
        <time>2019-04-14T11:37:59Z</time>
      </trkpt>
      <trkpt lat="44.4487" lon="1.34949">
        <ele>182</ele>
        <time>2019-04-14T11:38:00Z</time>
      </trkpt>
      <trkpt lat="44.44872" lon="1.34951">
        <ele>182</ele>
        <time>2019-04-14T11:38:01Z</time>
      </trkpt>
      <trkpt lat="44.44874" lon="1.34952">
        <ele>182</ele>
        <time>2019-04-14T11:38:02Z</time>
      </trkpt>
      <trkpt lat="44.44876" lon="1.34953">
        <ele>182</ele>
        <time>2019-04-14T11:38:03Z</time>
      </trkpt>
      <trkpt lat="44.44877" lon="1.34955">
        <ele>183</ele>
        <time>2019-04-14T11:38:04Z</time>
      </trkpt>
      <trkpt lat="44.44878" lon="1.34956">
        <ele>182</ele>
        <time>2019-04-14T11:38:05Z</time>
      </trkpt>
      <trkpt lat="44.4488" lon="1.34958">
        <ele>182</ele>
        <time>2019-04-14T11:38:06Z</time>
      </trkpt>
      <trkpt lat="44.44882" lon="1.34961">
        <ele>182</ele>
        <time>2019-04-14T11:38:07Z</time>
      </trkpt>
      <trkpt lat="44.44884" lon="1.34963">
        <ele>182</ele>
        <time>2019-04-14T11:38:08Z</time>
      </trkpt>
      <trkpt lat="44.44886" lon="1.34967">
        <ele>182</ele>
        <time>2019-04-14T11:38:09Z</time>
      </trkpt>
      <trkpt lat="44.44889" lon="1.34969">
        <ele>182</ele>
        <time>2019-04-14T11:38:10Z</time>
      </trkpt>
      <trkpt lat="44.44892" lon="1.34971">
        <ele>182</ele>
        <time>2019-04-14T11:38:11Z</time>
      </trkpt>
      <trkpt lat="44.44894" lon="1.34972">
        <ele>182</ele>
        <time>2019-04-14T11:38:12Z</time>
      </trkpt>
      <trkpt lat="44.44897" lon="1.34972">
        <ele>182</ele>
        <time>2019-04-14T11:38:13Z</time>
      </trkpt>
      <trkpt lat="44.44899" lon="1.34973">
        <ele>182</ele>
        <time>2019-04-14T11:38:14Z</time>
      </trkpt>
      <trkpt lat="44.44902" lon="1.34973">
        <ele>183</ele>
        <time>2019-04-14T11:38:15Z</time>
      </trkpt>
      <trkpt lat="44.44903" lon="1.34974">
        <ele>183</ele>
        <time>2019-04-14T11:38:16Z</time>
      </trkpt>
      <trkpt lat="44.44906" lon="1.34974">
        <ele>183</ele>
        <time>2019-04-14T11:38:17Z</time>
      </trkpt>
      <trkpt lat="44.44908" lon="1.34974">
        <ele>183</ele>
        <time>2019-04-14T11:38:18Z</time>
      </trkpt>
      <trkpt lat="44.44911" lon="1.34975">
        <ele>183</ele>
        <time>2019-04-14T11:38:19Z</time>
      </trkpt>
      <trkpt lat="44.44912" lon="1.34976">
        <ele>183</ele>
        <time>2019-04-14T11:38:20Z</time>
      </trkpt>
      <trkpt lat="44.44914" lon="1.34977">
        <ele>183</ele>
        <time>2019-04-14T11:38:21Z</time>
      </trkpt>
      <trkpt lat="44.44917" lon="1.34976">
        <ele>183</ele>
        <time>2019-04-14T11:38:22Z</time>
      </trkpt>
      <trkpt lat="44.44919" lon="1.34976">
        <ele>183</ele>
        <time>2019-04-14T11:38:23Z</time>
      </trkpt>
      <trkpt lat="44.44922" lon="1.34975">
        <ele>183</ele>
        <time>2019-04-14T11:38:24Z</time>
      </trkpt>
      <trkpt lat="44.44924" lon="1.34973">
        <ele>184</ele>
        <time>2019-04-14T11:38:25Z</time>
      </trkpt>
      <trkpt lat="44.44927" lon="1.34971">
        <ele>184</ele>
        <time>2019-04-14T11:38:26Z</time>
      </trkpt>
      <trkpt lat="44.44929" lon="1.3497">
        <ele>184</ele>
        <time>2019-04-14T11:38:27Z</time>
      </trkpt>
      <trkpt lat="44.44931" lon="1.3497">
        <ele>184</ele>
        <time>2019-04-14T11:38:28Z</time>
      </trkpt>
      <trkpt lat="44.44934" lon="1.34971">
        <ele>184</ele>
        <time>2019-04-14T11:38:29Z</time>
      </trkpt>
      <trkpt lat="44.44936" lon="1.34972">
        <ele>183</ele>
        <time>2019-04-14T11:38:30Z</time>
      </trkpt>
      <trkpt lat="44.44939" lon="1.34971">
        <ele>184</ele>
        <time>2019-04-14T11:38:31Z</time>
      </trkpt>
      <trkpt lat="44.44942" lon="1.34969">
        <ele>184</ele>
        <time>2019-04-14T11:38:32Z</time>
      </trkpt>
      <trkpt lat="44.44944" lon="1.34968">
        <ele>184</ele>
        <time>2019-04-14T11:38:33Z</time>
      </trkpt>
      <trkpt lat="44.44947" lon="1.34966">
        <ele>184</ele>
        <time>2019-04-14T11:38:34Z</time>
      </trkpt>
      <trkpt lat="44.44949" lon="1.34964">
        <ele>184</ele>
        <time>2019-04-14T11:38:35Z</time>
      </trkpt>
      <trkpt lat="44.44952" lon="1.34963">
        <ele>184</ele>
        <time>2019-04-14T11:38:36Z</time>
      </trkpt>
      <trkpt lat="44.44955" lon="1.34963">
        <ele>184</ele>
        <time>2019-04-14T11:38:37Z</time>
      </trkpt>
      <trkpt lat="44.44958" lon="1.34964">
        <ele>183</ele>
        <time>2019-04-14T11:38:38Z</time>
      </trkpt>
      <trkpt lat="44.44962" lon="1.34963">
        <ele>183</ele>
        <time>2019-04-14T11:38:39Z</time>
      </trkpt>
      <trkpt lat="44.44964" lon="1.34961">
        <ele>183</ele>
        <time>2019-04-14T11:38:40Z</time>
      </trkpt>
      <trkpt lat="44.44966" lon="1.34961">
        <ele>183</ele>
        <time>2019-04-14T11:38:41Z</time>
      </trkpt>
      <trkpt lat="44.44968" lon="1.34964">
        <ele>182</ele>
        <time>2019-04-14T11:38:42Z</time>
      </trkpt>
      <trkpt lat="44.4497" lon="1.34966">
        <ele>182</ele>
        <time>2019-04-14T11:38:43Z</time>
      </trkpt>
      <trkpt lat="44.44972" lon="1.34968">
        <ele>181</ele>
        <time>2019-04-14T11:38:44Z</time>
      </trkpt>
      <trkpt lat="44.44974" lon="1.34968">
        <ele>181</ele>
        <time>2019-04-14T11:38:45Z</time>
      </trkpt>
      <trkpt lat="44.44976" lon="1.34967">
        <ele>181</ele>
        <time>2019-04-14T11:38:46Z</time>
      </trkpt>
      <trkpt lat="44.44978" lon="1.34965">
        <ele>181</ele>
        <time>2019-04-14T11:38:47Z</time>
      </trkpt>
      <trkpt lat="44.4498" lon="1.34963">
        <ele>181</ele>
        <time>2019-04-14T11:38:48Z</time>
      </trkpt>
      <trkpt lat="44.44984" lon="1.34962">
        <ele>181</ele>
        <time>2019-04-14T11:38:49Z</time>
      </trkpt>
      <trkpt lat="44.44986" lon="1.34963">
        <ele>180</ele>
        <time>2019-04-14T11:38:50Z</time>
      </trkpt>
      <trkpt lat="44.44989" lon="1.34964">
        <ele>180</ele>
        <time>2019-04-14T11:38:51Z</time>
      </trkpt>
      <trkpt lat="44.44991" lon="1.34964">
        <ele>180</ele>
        <time>2019-04-14T11:38:52Z</time>
      </trkpt>
      <trkpt lat="44.44994" lon="1.34962">
        <ele>180</ele>
        <time>2019-04-14T11:38:53Z</time>
      </trkpt>
      <trkpt lat="44.44997" lon="1.3496">
        <ele>180</ele>
        <time>2019-04-14T11:38:54Z</time>
      </trkpt>
      <trkpt lat="44.44999" lon="1.34957">
        <ele>180</ele>
        <time>2019-04-14T11:38:55Z</time>
      </trkpt>
      <trkpt lat="44.45002" lon="1.34955">
        <ele>179</ele>
        <time>2019-04-14T11:38:56Z</time>
      </trkpt>
      <trkpt lat="44.45004" lon="1.34952">
        <ele>179</ele>
        <time>2019-04-14T11:38:57Z</time>
      </trkpt>
      <trkpt lat="44.45006" lon="1.34949">
        <ele>180</ele>
        <time>2019-04-14T11:38:58Z</time>
      </trkpt>
      <trkpt lat="44.45007" lon="1.34946">
        <ele>180</ele>
        <time>2019-04-14T11:38:59Z</time>
      </trkpt>
      <trkpt lat="44.45009" lon="1.34943">
        <ele>180</ele>
        <time>2019-04-14T11:39:00Z</time>
      </trkpt>
      <trkpt lat="44.4501" lon="1.34941">
        <ele>180</ele>
        <time>2019-04-14T11:39:01Z</time>
      </trkpt>
      <trkpt lat="44.45012" lon="1.34939">
        <ele>180</ele>
        <time>2019-04-14T11:39:02Z</time>
      </trkpt>
      <trkpt lat="44.45013" lon="1.34936">
        <ele>180</ele>
        <time>2019-04-14T11:39:03Z</time>
      </trkpt>
      <trkpt lat="44.45013" lon="1.34934">
        <ele>180</ele>
        <time>2019-04-14T11:39:04Z</time>
      </trkpt>
      <trkpt lat="44.45012" lon="1.34931">
        <ele>180</ele>
        <time>2019-04-14T11:39:05Z</time>
      </trkpt>
      <trkpt lat="44.45012" lon="1.34929">
        <ele>180</ele>
        <time>2019-04-14T11:39:06Z</time>
      </trkpt>
      <trkpt lat="44.45011" lon="1.34927">
        <ele>181</ele>
        <time>2019-04-14T11:39:07Z</time>
      </trkpt>
      <trkpt lat="44.45011" lon="1.34925">
        <ele>181</ele>
        <time>2019-04-14T11:39:08Z</time>
      </trkpt>
      <trkpt lat="44.45011" lon="1.34923">
        <ele>181</ele>
        <time>2019-04-14T11:39:09Z</time>
      </trkpt>
      <trkpt lat="44.45011" lon="1.34921">
        <ele>181</ele>
        <time>2019-04-14T11:39:10Z</time>
      </trkpt>
      <trkpt lat="44.4501" lon="1.34919">
        <ele>182</ele>
        <time>2019-04-14T11:39:11Z</time>
      </trkpt>
      <trkpt lat="44.4501" lon="1.34917">
        <ele>182</ele>
        <time>2019-04-14T11:39:12Z</time>
      </trkpt>
      <trkpt lat="44.4501" lon="1.34915">
        <ele>182</ele>
        <time>2019-04-14T11:39:13Z</time>
      </trkpt>
      <trkpt lat="44.4501" lon="1.34913">
        <ele>182</ele>
        <time>2019-04-14T11:39:14Z</time>
      </trkpt>
      <trkpt lat="44.45009" lon="1.34911">
        <ele>183</ele>
        <time>2019-04-14T11:39:15Z</time>
      </trkpt>
      <trkpt lat="44.45009" lon="1.3491">
        <ele>183</ele>
        <time>2019-04-14T11:39:16Z</time>
      </trkpt>
      <trkpt lat="44.45009" lon="1.34908">
        <ele>183</ele>
        <time>2019-04-14T11:39:17Z</time>
      </trkpt>
      <trkpt lat="44.45008" lon="1.34906">
        <ele>184</ele>
        <time>2019-04-14T11:39:18Z</time>
      </trkpt>
      <trkpt lat="44.45008" lon="1.34904">
        <ele>184</ele>
        <time>2019-04-14T11:39:19Z</time>
      </trkpt>
      <trkpt lat="44.45007" lon="1.34902">
        <ele>184</ele>
        <time>2019-04-14T11:39:20Z</time>
      </trkpt>
      <trkpt lat="44.45007" lon="1.349">
        <ele>184</ele>
        <time>2019-04-14T11:39:21Z</time>
      </trkpt>
      <trkpt lat="44.45007" lon="1.34898">
        <ele>185</ele>
        <time>2019-04-14T11:39:22Z</time>
      </trkpt>
      <trkpt lat="44.45007" lon="1.34896">
        <ele>185</ele>
        <time>2019-04-14T11:39:23Z</time>
      </trkpt>
      <trkpt lat="44.45006" lon="1.34895">
        <ele>185</ele>
        <time>2019-04-14T11:39:24Z</time>
      </trkpt>
      <trkpt lat="44.45006" lon="1.34893">
        <ele>185</ele>
        <time>2019-04-14T11:39:25Z</time>
      </trkpt>
      <trkpt lat="44.45006" lon="1.34891">
        <ele>185</ele>
        <time>2019-04-14T11:39:26Z</time>
      </trkpt>
      <trkpt lat="44.45006" lon="1.34889">
        <ele>186</ele>
        <time>2019-04-14T11:39:27Z</time>
      </trkpt>
      <trkpt lat="44.45005" lon="1.34887">
        <ele>186</ele>
        <time>2019-04-14T11:39:28Z</time>
      </trkpt>
      <trkpt lat="44.45005" lon="1.34885">
        <ele>186</ele>
        <time>2019-04-14T11:39:29Z</time>
      </trkpt>
      <trkpt lat="44.45005" lon="1.34884">
        <ele>186</ele>
        <time>2019-04-14T11:39:30Z</time>
      </trkpt>
      <trkpt lat="44.45005" lon="1.34882">
        <ele>186</ele>
        <time>2019-04-14T11:39:31Z</time>
      </trkpt>
      <trkpt lat="44.45005" lon="1.3488">
        <ele>187</ele>
        <time>2019-04-14T11:39:32Z</time>
      </trkpt>
      <trkpt lat="44.45004" lon="1.34878">
        <ele>187</ele>
        <time>2019-04-14T11:39:33Z</time>
      </trkpt>
      <trkpt lat="44.45004" lon="1.34876">
        <ele>187</ele>
        <time>2019-04-14T11:39:34Z</time>
      </trkpt>
      <trkpt lat="44.45004" lon="1.34874">
        <ele>187</ele>
        <time>2019-04-14T11:39:35Z</time>
      </trkpt>
      <trkpt lat="44.45003" lon="1.34873">
        <ele>187</ele>
        <time>2019-04-14T11:39:36Z</time>
      </trkpt>
      <trkpt lat="44.45003" lon="1.34871">
        <ele>188</ele>
        <time>2019-04-14T11:39:37Z</time>
      </trkpt>
      <trkpt lat="44.45003" lon="1.34869">
        <ele>188</ele>
        <time>2019-04-14T11:39:38Z</time>
      </trkpt>
      <trkpt lat="44.45002" lon="1.34868">
        <ele>188</ele>
        <time>2019-04-14T11:39:39Z</time>
      </trkpt>
      <trkpt lat="44.45002" lon="1.34866">
        <ele>188</ele>
        <time>2019-04-14T11:39:40Z</time>
      </trkpt>
      <trkpt lat="44.45002" lon="1.34865">
        <ele>188</ele>
        <time>2019-04-14T11:39:41Z</time>
      </trkpt>
      <trkpt lat="44.45002" lon="1.34863">
        <ele>188</ele>
        <time>2019-04-14T11:39:42Z</time>
      </trkpt>
      <trkpt lat="44.45001" lon="1.34862">
        <ele>189</ele>
        <time>2019-04-14T11:39:43Z</time>
      </trkpt>
      <trkpt lat="44.45002" lon="1.3486">
        <ele>189</ele>
        <time>2019-04-14T11:39:44Z</time>
      </trkpt>
      <trkpt lat="44.45002" lon="1.34859">
        <ele>189</ele>
        <time>2019-04-14T11:39:45Z</time>
      </trkpt>
      <trkpt lat="44.45002" lon="1.34857">
        <ele>189</ele>
        <time>2019-04-14T11:39:46Z</time>
      </trkpt>
      <trkpt lat="44.45003" lon="1.34856">
        <ele>189</ele>
        <time>2019-04-14T11:39:47Z</time>
      </trkpt>
      <trkpt lat="44.45004" lon="1.34855">
        <ele>189</ele>
        <time>2019-04-14T11:39:48Z</time>
      </trkpt>
      <trkpt lat="44.45004" lon="1.34855">
        <ele>189</ele>
        <time>2019-04-14T11:39:49Z</time>
      </trkpt>
      <trkpt lat="44.45004" lon="1.34855">
        <ele>189</ele>
        <time>2019-04-14T11:39:50Z</time>
      </trkpt>
      <trkpt lat="44.45004" lon="1.34855">
        <ele>189</ele>
        <time>2019-04-14T11:39:51Z</time>
      </trkpt>
      <trkpt lat="44.45004" lon="1.34854">
        <ele>189</ele>
        <time>2019-04-14T11:39:52Z</time>
      </trkpt>
      <trkpt lat="44.45004" lon="1.34855">
        <ele>189</ele>
        <time>2019-04-14T11:39:53Z</time>
      </trkpt>
      <trkpt lat="44.45004" lon="1.34855">
        <ele>189</ele>
        <time>2019-04-14T11:39:54Z</time>
      </trkpt>
      <trkpt lat="44.45004" lon="1.34855">
        <ele>189</ele>
        <time>2019-04-14T11:39:55Z</time>
      </trkpt>
      <trkpt lat="44.45004" lon="1.34855">
        <ele>189</ele>
        <time>2019-04-14T11:39:56Z</time>
      </trkpt>
      <trkpt lat="44.45045" lon="1.3487">
        <ele>182</ele>
        <time>2019-04-14T11:42:54Z</time>
      </trkpt>
      <trkpt lat="44.45052" lon="1.34873">
        <ele>182</ele>
        <time>2019-04-14T11:42:55Z</time>
      </trkpt>
      <trkpt lat="44.45057" lon="1.34877">
        <ele>181</ele>
        <time>2019-04-14T11:42:56Z</time>
      </trkpt>
      <trkpt lat="44.45063" lon="1.34881">
        <ele>181</ele>
        <time>2019-04-14T11:42:57Z</time>
      </trkpt>
      <trkpt lat="44.45069" lon="1.34885">
        <ele>181</ele>
        <time>2019-04-14T11:42:58Z</time>
      </trkpt>
      <trkpt lat="44.45075" lon="1.3489">
        <ele>180</ele>
        <time>2019-04-14T11:42:59Z</time>
      </trkpt>
      <trkpt lat="44.45082" lon="1.34895">
        <ele>180</ele>
        <time>2019-04-14T11:43:00Z</time>
      </trkpt>
      <trkpt lat="44.45088" lon="1.349">
        <ele>179</ele>
        <time>2019-04-14T11:43:01Z</time>
      </trkpt>
      <trkpt lat="44.45094" lon="1.34906">
        <ele>179</ele>
        <time>2019-04-14T11:43:02Z</time>
      </trkpt>
      <trkpt lat="44.451" lon="1.34911">
        <ele>179</ele>
        <time>2019-04-14T11:43:03Z</time>
      </trkpt>
      <trkpt lat="44.45105" lon="1.34916">
        <ele>179</ele>
        <time>2019-04-14T11:43:04Z</time>
      </trkpt>
      <trkpt lat="44.45111" lon="1.34922">
        <ele>179</ele>
        <time>2019-04-14T11:43:05Z</time>
      </trkpt>
      <trkpt lat="44.45117" lon="1.34927">
        <ele>178</ele>
        <time>2019-04-14T11:43:06Z</time>
      </trkpt>
      <trkpt lat="44.45123" lon="1.34932">
        <ele>178</ele>
        <time>2019-04-14T11:43:07Z</time>
      </trkpt>
      <trkpt lat="44.45128" lon="1.34937">
        <ele>178</ele>
        <time>2019-04-14T11:43:08Z</time>
      </trkpt>
      <trkpt lat="44.45133" lon="1.34943">
        <ele>178</ele>
        <time>2019-04-14T11:43:09Z</time>
      </trkpt>
      <trkpt lat="44.45138" lon="1.34947">
        <ele>178</ele>
        <time>2019-04-14T11:43:10Z</time>
      </trkpt>
      <trkpt lat="44.45143" lon="1.34952">
        <ele>177</ele>
        <time>2019-04-14T11:43:11Z</time>
      </trkpt>
      <trkpt lat="44.45147" lon="1.34956">
        <ele>177</ele>
        <time>2019-04-14T11:43:12Z</time>
      </trkpt>
      <trkpt lat="44.45151" lon="1.34959">
        <ele>177</ele>
        <time>2019-04-14T11:43:13Z</time>
      </trkpt>
      <trkpt lat="44.45155" lon="1.34962">
        <ele>177</ele>
        <time>2019-04-14T11:43:14Z</time>
      </trkpt>
      <trkpt lat="44.45159" lon="1.34966">
        <ele>177</ele>
        <time>2019-04-14T11:43:15Z</time>
      </trkpt>
      <trkpt lat="44.45162" lon="1.34969">
        <ele>177</ele>
        <time>2019-04-14T11:43:16Z</time>
      </trkpt>
      <trkpt lat="44.45166" lon="1.34973">
        <ele>178</ele>
        <time>2019-04-14T11:43:17Z</time>
      </trkpt>
      <trkpt lat="44.4517" lon="1.34977">
        <ele>178</ele>
        <time>2019-04-14T11:43:18Z</time>
      </trkpt>
      <trkpt lat="44.45174" lon="1.34981">
        <ele>178</ele>
        <time>2019-04-14T11:43:19Z</time>
      </trkpt>
      <trkpt lat="44.45177" lon="1.34985">
        <ele>178</ele>
        <time>2019-04-14T11:43:20Z</time>
      </trkpt>
      <trkpt lat="44.4518" lon="1.3499">
        <ele>178</ele>
        <time>2019-04-14T11:43:21Z</time>
      </trkpt>
      <trkpt lat="44.45183" lon="1.34995">
        <ele>177</ele>
        <time>2019-04-14T11:43:22Z</time>
      </trkpt>
      <trkpt lat="44.45186" lon="1.35001">
        <ele>177</ele>
        <time>2019-04-14T11:43:23Z</time>
      </trkpt>
      <trkpt lat="44.4519" lon="1.35007">
        <ele>177</ele>
        <time>2019-04-14T11:43:24Z</time>
      </trkpt>
      <trkpt lat="44.45193" lon="1.35012">
        <ele>177</ele>
        <time>2019-04-14T11:43:25Z</time>
      </trkpt>
      <trkpt lat="44.45197" lon="1.35017">
        <ele>176</ele>
        <time>2019-04-14T11:43:26Z</time>
      </trkpt>
      <trkpt lat="44.452" lon="1.35022">
        <ele>176</ele>
        <time>2019-04-14T11:43:27Z</time>
      </trkpt>
      <trkpt lat="44.45204" lon="1.35025">
        <ele>176</ele>
        <time>2019-04-14T11:43:28Z</time>
      </trkpt>
      <trkpt lat="44.45207" lon="1.35027">
        <ele>176</ele>
        <time>2019-04-14T11:43:29Z</time>
      </trkpt>
      <trkpt lat="44.4521" lon="1.35029">
        <ele>176</ele>
        <time>2019-04-14T11:43:30Z</time>
      </trkpt>
      <trkpt lat="44.45212" lon="1.3503">
        <ele>176</ele>
        <time>2019-04-14T11:43:31Z</time>
      </trkpt>
      <trkpt lat="44.45214" lon="1.35032">
        <ele>175</ele>
        <time>2019-04-14T11:43:32Z</time>
      </trkpt>
      <trkpt lat="44.45216" lon="1.35035">
        <ele>175</ele>
        <time>2019-04-14T11:43:33Z</time>
      </trkpt>
      <trkpt lat="44.45216" lon="1.35037">
        <ele>175</ele>
        <time>2019-04-14T11:43:34Z</time>
      </trkpt>
      <trkpt lat="44.45217" lon="1.3504">
        <ele>174</ele>
        <time>2019-04-14T11:43:35Z</time>
      </trkpt>
      <trkpt lat="44.45217" lon="1.35044">
        <ele>173</ele>
        <time>2019-04-14T11:43:36Z</time>
      </trkpt>
      <trkpt lat="44.45217" lon="1.35046">
        <ele>173</ele>
        <time>2019-04-14T11:43:37Z</time>
      </trkpt>
      <trkpt lat="44.45216" lon="1.35048">
        <ele>173</ele>
        <time>2019-04-14T11:43:38Z</time>
      </trkpt>
      <trkpt lat="44.45216" lon="1.35049">
        <ele>172</ele>
        <time>2019-04-14T11:43:39Z</time>
      </trkpt>
      <trkpt lat="44.45216" lon="1.35052">
        <ele>172</ele>
        <time>2019-04-14T11:43:40Z</time>
      </trkpt>
      <trkpt lat="44.45217" lon="1.35054">
        <ele>171</ele>
        <time>2019-04-14T11:43:41Z</time>
      </trkpt>
      <trkpt lat="44.45218" lon="1.35058">
        <ele>170</ele>
        <time>2019-04-14T11:43:42Z</time>
      </trkpt>
      <trkpt lat="44.4522" lon="1.3506">
        <ele>170</ele>
        <time>2019-04-14T11:43:43Z</time>
      </trkpt>
      <trkpt lat="44.45222" lon="1.35067">
        <ele>170</ele>
        <time>2019-04-14T11:43:44Z</time>
      </trkpt>
      <trkpt lat="44.45224" lon="1.35072">
        <ele>168</ele>
        <time>2019-04-14T11:43:46Z</time>
      </trkpt>
      <trkpt lat="44.45225" lon="1.35076">
        <ele>167</ele>
        <time>2019-04-14T11:43:47Z</time>
      </trkpt>
      <trkpt lat="44.45225" lon="1.35081">
        <ele>166</ele>
        <time>2019-04-14T11:43:48Z</time>
      </trkpt>
      <trkpt lat="44.45226" lon="1.35086">
        <ele>165</ele>
        <time>2019-04-14T11:43:49Z</time>
      </trkpt>
      <trkpt lat="44.45226" lon="1.35092">
        <ele>164</ele>
        <time>2019-04-14T11:43:50Z</time>
      </trkpt>
      <trkpt lat="44.45226" lon="1.35098">
        <ele>163</ele>
        <time>2019-04-14T11:43:51Z</time>
      </trkpt>
      <trkpt lat="44.45225" lon="1.35104">
        <ele>162</ele>
        <time>2019-04-14T11:43:52Z</time>
      </trkpt>
      <trkpt lat="44.45225" lon="1.35111">
        <ele>161</ele>
        <time>2019-04-14T11:43:53Z</time>
      </trkpt>
      <trkpt lat="44.45225" lon="1.35117">
        <ele>160</ele>
        <time>2019-04-14T11:43:54Z</time>
      </trkpt>
      <trkpt lat="44.45224" lon="1.35122">
        <ele>159</ele>
        <time>2019-04-14T11:43:55Z</time>
      </trkpt>
      <trkpt lat="44.45223" lon="1.35127">
        <ele>158</ele>
        <time>2019-04-14T11:43:56Z</time>
      </trkpt>
      <trkpt lat="44.45222" lon="1.35132">
        <ele>157</ele>
        <time>2019-04-14T11:43:57Z</time>
      </trkpt>
      <trkpt lat="44.45223" lon="1.35139">
        <ele>156</ele>
        <time>2019-04-14T11:43:58Z</time>
      </trkpt>
      <trkpt lat="44.45224" lon="1.35146">
        <ele>155</ele>
        <time>2019-04-14T11:43:59Z</time>
      </trkpt>
      <trkpt lat="44.45225" lon="1.35152">
        <ele>154</ele>
        <time>2019-04-14T11:44:00Z</time>
      </trkpt>
      <trkpt lat="44.45225" lon="1.35157">
        <ele>153</ele>
        <time>2019-04-14T11:44:01Z</time>
      </trkpt>
      <trkpt lat="44.45225" lon="1.35162">
        <ele>153</ele>
        <time>2019-04-14T11:44:02Z</time>
      </trkpt>
      <trkpt lat="44.45226" lon="1.35167">
        <ele>151</ele>
        <time>2019-04-14T11:44:03Z</time>
      </trkpt>
      <trkpt lat="44.45228" lon="1.35172">
        <ele>151</ele>
        <time>2019-04-14T11:44:04Z</time>
      </trkpt>
      <trkpt lat="44.45227" lon="1.35177">
        <ele>150</ele>
        <time>2019-04-14T11:44:05Z</time>
      </trkpt>
      <trkpt lat="44.45226" lon="1.35182">
        <ele>149</ele>
        <time>2019-04-14T11:44:06Z</time>
      </trkpt>
      <trkpt lat="44.45224" lon="1.35187">
        <ele>148</ele>
        <time>2019-04-14T11:44:07Z</time>
      </trkpt>
      <trkpt lat="44.45223" lon="1.3519">
        <ele>148</ele>
        <time>2019-04-14T11:44:08Z</time>
      </trkpt>
      <trkpt lat="44.45223" lon="1.35193">
        <ele>147</ele>
        <time>2019-04-14T11:44:09Z</time>
      </trkpt>
      <trkpt lat="44.45224" lon="1.35197">
        <ele>147</ele>
        <time>2019-04-14T11:44:10Z</time>
      </trkpt>
      <trkpt lat="44.45226" lon="1.35201">
        <ele>146</ele>
        <time>2019-04-14T11:44:11Z</time>
      </trkpt>
      <trkpt lat="44.45228" lon="1.35206">
        <ele>145</ele>
        <time>2019-04-14T11:44:12Z</time>
      </trkpt>
      <trkpt lat="44.4523" lon="1.3521">
        <ele>145</ele>
        <time>2019-04-14T11:44:13Z</time>
      </trkpt>
      <trkpt lat="44.45231" lon="1.35214">
        <ele>144</ele>
        <time>2019-04-14T11:44:14Z</time>
      </trkpt>
      <trkpt lat="44.45232" lon="1.35217">
        <ele>144</ele>
        <time>2019-04-14T11:44:15Z</time>
      </trkpt>
      <trkpt lat="44.45233" lon="1.35221">
        <ele>143</ele>
        <time>2019-04-14T11:44:16Z</time>
      </trkpt>
      <trkpt lat="44.45235" lon="1.35226">
        <ele>142</ele>
        <time>2019-04-14T11:44:17Z</time>
      </trkpt>
      <trkpt lat="44.45237" lon="1.3523">
        <ele>142</ele>
        <time>2019-04-14T11:44:18Z</time>
      </trkpt>
      <trkpt lat="44.45239" lon="1.35235">
        <ele>141</ele>
        <time>2019-04-14T11:44:19Z</time>
      </trkpt>
      <trkpt lat="44.45241" lon="1.35238">
        <ele>141</ele>
        <time>2019-04-14T11:44:20Z</time>
      </trkpt>
      <trkpt lat="44.45242" lon="1.35242">
        <ele>140</ele>
        <time>2019-04-14T11:44:21Z</time>
      </trkpt>
      <trkpt lat="44.45244" lon="1.35246">
        <ele>139</ele>
        <time>2019-04-14T11:44:22Z</time>
      </trkpt>
      <trkpt lat="44.45245" lon="1.3525">
        <ele>139</ele>
        <time>2019-04-14T11:44:23Z</time>
      </trkpt>
      <trkpt lat="44.45246" lon="1.35255">
        <ele>138</ele>
        <time>2019-04-14T11:44:24Z</time>
      </trkpt>
      <trkpt lat="44.45247" lon="1.35259">
        <ele>137</ele>
        <time>2019-04-14T11:44:25Z</time>
      </trkpt>
      <trkpt lat="44.45247" lon="1.35263">
        <ele>136</ele>
        <time>2019-04-14T11:44:26Z</time>
      </trkpt>
      <trkpt lat="44.45249" lon="1.35267">
        <ele>135</ele>
        <time>2019-04-14T11:44:27Z</time>
      </trkpt>
      <trkpt lat="44.45252" lon="1.35271">
        <ele>134</ele>
        <time>2019-04-14T11:44:28Z</time>
      </trkpt>
      <trkpt lat="44.45255" lon="1.35276">
        <ele>132</ele>
        <time>2019-04-14T11:44:29Z</time>
      </trkpt>
      <trkpt lat="44.45257" lon="1.3528">
        <ele>131</ele>
        <time>2019-04-14T11:44:30Z</time>
      </trkpt>
      <trkpt lat="44.45261" lon="1.35283">
        <ele>130</ele>
        <time>2019-04-14T11:44:31Z</time>
      </trkpt>
      <trkpt lat="44.45264" lon="1.35286">
        <ele>129</ele>
        <time>2019-04-14T11:44:32Z</time>
      </trkpt>
      <trkpt lat="44.4527" lon="1.35287">
        <ele>128</ele>
        <time>2019-04-14T11:44:33Z</time>
      </trkpt>
      <trkpt lat="44.45276" lon="1.35288">
        <ele>127</ele>
        <time>2019-04-14T11:44:34Z</time>
      </trkpt>
      <trkpt lat="44.45279" lon="1.35288">
        <ele>126</ele>
        <time>2019-04-14T11:44:35Z</time>
      </trkpt>
      <trkpt lat="44.45285" lon="1.35286">
        <ele>126</ele>
        <time>2019-04-14T11:44:37Z</time>
      </trkpt>
      <trkpt lat="44.4529" lon="1.35286">
        <ele>124</ele>
        <time>2019-04-14T11:44:38Z</time>
      </trkpt>
      <trkpt lat="44.45295" lon="1.35288">
        <ele>123</ele>
        <time>2019-04-14T11:44:39Z</time>
      </trkpt>
      <trkpt lat="44.45298" lon="1.35292">
        <ele>122</ele>
        <time>2019-04-14T11:44:40Z</time>
      </trkpt>
      <trkpt lat="44.453" lon="1.35298">
        <ele>121</ele>
        <time>2019-04-14T11:44:41Z</time>
      </trkpt>
      <trkpt lat="44.45302" lon="1.35303">
        <ele>121</ele>
        <time>2019-04-14T11:44:42Z</time>
      </trkpt>
      <trkpt lat="44.45302" lon="1.35308">
        <ele>120</ele>
        <time>2019-04-14T11:44:43Z</time>
      </trkpt>
      <trkpt lat="44.45302" lon="1.35314">
        <ele>120</ele>
        <time>2019-04-14T11:44:44Z</time>
      </trkpt>
      <trkpt lat="44.45302" lon="1.35321">
        <ele>119</ele>
        <time>2019-04-14T11:44:45Z</time>
      </trkpt>
      <trkpt lat="44.45303" lon="1.35327">
        <ele>118</ele>
        <time>2019-04-14T11:44:46Z</time>
      </trkpt>
      <trkpt lat="44.45304" lon="1.35333">
        <ele>117</ele>
        <time>2019-04-14T11:44:47Z</time>
      </trkpt>
      <trkpt lat="44.45306" lon="1.35338">
        <ele>115</ele>
        <time>2019-04-14T11:44:48Z</time>
      </trkpt>
      <trkpt lat="44.45308" lon="1.35343">
        <ele>114</ele>
        <time>2019-04-14T11:44:49Z</time>
      </trkpt>
      <trkpt lat="44.4531" lon="1.35347">
        <ele>113</ele>
        <time>2019-04-14T11:44:50Z</time>
      </trkpt>
      <trkpt lat="44.45312" lon="1.35351">
        <ele>112</ele>
        <time>2019-04-14T11:44:51Z</time>
      </trkpt>
      <trkpt lat="44.45313" lon="1.35354">
        <ele>111</ele>
        <time>2019-04-14T11:44:52Z</time>
      </trkpt>
      <trkpt lat="44.45314" lon="1.35356">
        <ele>110</ele>
        <time>2019-04-14T11:44:53Z</time>
      </trkpt>
      <trkpt lat="44.45316" lon="1.35359">
        <ele>108</ele>
        <time>2019-04-14T11:44:54Z</time>
      </trkpt>
      <trkpt lat="44.45317" lon="1.35361">
        <ele>107</ele>
        <time>2019-04-14T11:44:55Z</time>
      </trkpt>
      <trkpt lat="44.45319" lon="1.35364">
        <ele>106</ele>
        <time>2019-04-14T11:44:56Z</time>
      </trkpt>
      <trkpt lat="44.45319" lon="1.35367">
        <ele>105</ele>
        <time>2019-04-14T11:44:57Z</time>
      </trkpt>
      <trkpt lat="44.45318" lon="1.35371">
        <ele>104</ele>
        <time>2019-04-14T11:44:58Z</time>
      </trkpt>
      <trkpt lat="44.45318" lon="1.35373">
        <ele>103</ele>
        <time>2019-04-14T11:44:59Z</time>
      </trkpt>
      <trkpt lat="44.45319" lon="1.35376">
        <ele>102</ele>
        <time>2019-04-14T11:45:00Z</time>
      </trkpt>
      <trkpt lat="44.4532" lon="1.35378">
        <ele>101</ele>
        <time>2019-04-14T11:45:01Z</time>
      </trkpt>
      <trkpt lat="44.45323" lon="1.3538">
        <ele>99</ele>
        <time>2019-04-14T11:45:02Z</time>
      </trkpt>
      <trkpt lat="44.45325" lon="1.35383">
        <ele>98</ele>
        <time>2019-04-14T11:45:03Z</time>
      </trkpt>
      <trkpt lat="44.45328" lon="1.35385">
        <ele>97</ele>
        <time>2019-04-14T11:45:04Z</time>
      </trkpt>
      <trkpt lat="44.4533" lon="1.35388">
        <ele>96</ele>
        <time>2019-04-14T11:45:05Z</time>
      </trkpt>
      <trkpt lat="44.45334" lon="1.3539">
        <ele>95</ele>
        <time>2019-04-14T11:45:07Z</time>
      </trkpt>
      <trkpt lat="44.45336" lon="1.35391">
        <ele>94</ele>
        <time>2019-04-14T11:45:08Z</time>
      </trkpt>
      <trkpt lat="44.45337" lon="1.35393">
        <ele>93</ele>
        <time>2019-04-14T11:45:09Z</time>
      </trkpt>
      <trkpt lat="44.45336" lon="1.35395">
        <ele>93</ele>
        <time>2019-04-14T11:45:10Z</time>
      </trkpt>
      <trkpt lat="44.45336" lon="1.35396">
        <ele>93</ele>
        <time>2019-04-14T11:45:11Z</time>
      </trkpt>
      <trkpt lat="44.45335" lon="1.35397">
        <ele>93</ele>
        <time>2019-04-14T11:45:12Z</time>
      </trkpt>
      <trkpt lat="44.45335" lon="1.35398">
        <ele>93</ele>
        <time>2019-04-14T11:45:13Z</time>
      </trkpt>
      <trkpt lat="44.45334" lon="1.35398">
        <ele>93</ele>
        <time>2019-04-14T11:45:14Z</time>
      </trkpt>
      <trkpt lat="44.45334" lon="1.35398">
        <ele>93</ele>
        <time>2019-04-14T11:45:15Z</time>
      </trkpt>
      <trkpt lat="44.45334" lon="1.35398">
        <ele>93</ele>
        <time>2019-04-14T11:45:16Z</time>
      </trkpt>
      <trkpt lat="44.45335" lon="1.35398">
        <ele>93</ele>
        <time>2019-04-14T11:45:17Z</time>
      </trkpt>
      <trkpt lat="44.45335" lon="1.35398">
        <ele>93</ele>
        <time>2019-04-14T11:45:18Z</time>
      </trkpt>
      <trkpt lat="44.45335" lon="1.35398">
        <ele>93</ele>
        <time>2019-04-14T11:45:19Z</time>
      </trkpt>
      <trkpt lat="44.45335" lon="1.35398">
        <ele>93</ele>
        <time>2019-04-14T11:45:20Z</time>
      </trkpt>
      <trkpt lat="44.45335" lon="1.35399">
        <ele>93</ele>
        <time>2019-04-14T11:45:21Z</time>
      </trkpt>
      <trkpt lat="44.45322" lon="1.35411">
        <ele>94</ele>
        <time>2019-04-14T11:46:11Z</time>
      </trkpt>
      <trkpt lat="44.4532" lon="1.35413">
        <ele>94</ele>
        <time>2019-04-14T11:46:12Z</time>
      </trkpt>
      <trkpt lat="44.45318" lon="1.35414">
        <ele>94</ele>
        <time>2019-04-14T11:46:13Z</time>
      </trkpt>
      <trkpt lat="44.45315" lon="1.35415">
        <ele>94</ele>
        <time>2019-04-14T11:46:14Z</time>
      </trkpt>
      <trkpt lat="44.45313" lon="1.35416">
        <ele>95</ele>
        <time>2019-04-14T11:46:15Z</time>
      </trkpt>
      <trkpt lat="44.45307" lon="1.35419">
        <ele>95</ele>
        <time>2019-04-14T11:46:16Z</time>
      </trkpt>
      <trkpt lat="44.45302" lon="1.35424">
        <ele>95</ele>
        <time>2019-04-14T11:46:19Z</time>
      </trkpt>
      <trkpt lat="44.45299" lon="1.35426">
        <ele>95</ele>
        <time>2019-04-14T11:46:20Z</time>
      </trkpt>
      <trkpt lat="44.45296" lon="1.35427">
        <ele>94</ele>
        <time>2019-04-14T11:46:21Z</time>
      </trkpt>
      <trkpt lat="44.45294" lon="1.35429">
        <ele>94</ele>
        <time>2019-04-14T11:46:22Z</time>
      </trkpt>
      <trkpt lat="44.45292" lon="1.35431">
        <ele>94</ele>
        <time>2019-04-14T11:46:23Z</time>
      </trkpt>
      <trkpt lat="44.45288" lon="1.35432">
        <ele>94</ele>
        <time>2019-04-14T11:46:24Z</time>
      </trkpt>
      <trkpt lat="44.45285" lon="1.35433">
        <ele>94</ele>
        <time>2019-04-14T11:46:25Z</time>
      </trkpt>
      <trkpt lat="44.45282" lon="1.35435">
        <ele>94</ele>
        <time>2019-04-14T11:46:26Z</time>
      </trkpt>
      <trkpt lat="44.45278" lon="1.35437">
        <ele>94</ele>
        <time>2019-04-14T11:46:27Z</time>
      </trkpt>
      <trkpt lat="44.45274" lon="1.35438">
        <ele>94</ele>
        <time>2019-04-14T11:46:28Z</time>
      </trkpt>
      <trkpt lat="44.4527" lon="1.35441">
        <ele>94</ele>
        <time>2019-04-14T11:46:29Z</time>
      </trkpt>
      <trkpt lat="44.45268" lon="1.35444">
        <ele>94</ele>
        <time>2019-04-14T11:46:30Z</time>
      </trkpt>
      <trkpt lat="44.45265" lon="1.35446">
        <ele>94</ele>
        <time>2019-04-14T11:46:31Z</time>
      </trkpt>
      <trkpt lat="44.45262" lon="1.3545">
        <ele>93</ele>
        <time>2019-04-14T11:46:32Z</time>
      </trkpt>
      <trkpt lat="44.45259" lon="1.35453">
        <ele>93</ele>
        <time>2019-04-14T11:46:33Z</time>
      </trkpt>
      <trkpt lat="44.45257" lon="1.35456">
        <ele>94</ele>
        <time>2019-04-14T11:46:34Z</time>
      </trkpt>
      <trkpt lat="44.45255" lon="1.35459">
        <ele>94</ele>
        <time>2019-04-14T11:46:35Z</time>
      </trkpt>
      <trkpt lat="44.45253" lon="1.35462">
        <ele>94</ele>
        <time>2019-04-14T11:46:36Z</time>
      </trkpt>
      <trkpt lat="44.45251" lon="1.35465">
        <ele>94</ele>
        <time>2019-04-14T11:46:37Z</time>
      </trkpt>
      <trkpt lat="44.45249" lon="1.35468">
        <ele>94</ele>
        <time>2019-04-14T11:46:38Z</time>
      </trkpt>
      <trkpt lat="44.45245" lon="1.35472">
        <ele>94</ele>
        <time>2019-04-14T11:46:39Z</time>
      </trkpt>
      <trkpt lat="44.45243" lon="1.35472">
        <ele>94</ele>
        <time>2019-04-14T11:46:41Z</time>
      </trkpt>
      <trkpt lat="44.45241" lon="1.35472">
        <ele>94</ele>
        <time>2019-04-14T11:46:42Z</time>
      </trkpt>
      <trkpt lat="44.45239" lon="1.35471">
        <ele>94</ele>
        <time>2019-04-14T11:46:43Z</time>
      </trkpt>
      <trkpt lat="44.45238" lon="1.35471">
        <ele>95</ele>
        <time>2019-04-14T11:46:44Z</time>
      </trkpt>
      <trkpt lat="44.45236" lon="1.3547">
        <ele>94</ele>
        <time>2019-04-14T11:46:45Z</time>
      </trkpt>
      <trkpt lat="44.45236" lon="1.35469">
        <ele>94</ele>
        <time>2019-04-14T11:46:46Z</time>
      </trkpt>
      <trkpt lat="44.45235" lon="1.3547">
        <ele>94</ele>
        <time>2019-04-14T11:46:47Z</time>
      </trkpt>
      <trkpt lat="44.45235" lon="1.3547">
        <ele>94</ele>
        <time>2019-04-14T11:46:48Z</time>
      </trkpt>
      <trkpt lat="44.45235" lon="1.3547">
        <ele>94</ele>
        <time>2019-04-14T11:46:49Z</time>
      </trkpt>
      <trkpt lat="44.45235" lon="1.3547">
        <ele>94</ele>
        <time>2019-04-14T11:46:50Z</time>
      </trkpt>
      <trkpt lat="44.45235" lon="1.3547">
        <ele>94</ele>
        <time>2019-04-14T11:46:51Z</time>
      </trkpt>
      <trkpt lat="44.45234" lon="1.3547">
        <ele>94</ele>
        <time>2019-04-14T11:46:52Z</time>
      </trkpt>
      <trkpt lat="44.45232" lon="1.3547">
        <ele>94</ele>
        <time>2019-04-14T11:46:53Z</time>
      </trkpt>
      <trkpt lat="44.45249" lon="1.35494">
        <ele>95</ele>
        <time>2019-04-14T11:54:27Z</time>
      </trkpt>
      <trkpt lat="44.45251" lon="1.35496">
        <ele>95</ele>
        <time>2019-04-14T11:54:28Z</time>
      </trkpt>
      <trkpt lat="44.45253" lon="1.35497">
        <ele>95</ele>
        <time>2019-04-14T11:54:29Z</time>
      </trkpt>
      <trkpt lat="44.45255" lon="1.35499">
        <ele>95</ele>
        <time>2019-04-14T11:54:30Z</time>
      </trkpt>
      <trkpt lat="44.45257" lon="1.35502">
        <ele>95</ele>
        <time>2019-04-14T11:54:31Z</time>
      </trkpt>
      <trkpt lat="44.45259" lon="1.35504">
        <ele>95</ele>
        <time>2019-04-14T11:54:32Z</time>
      </trkpt>
      <trkpt lat="44.45261" lon="1.35507">
        <ele>95</ele>
        <time>2019-04-14T11:54:33Z</time>
      </trkpt>
      <trkpt lat="44.45263" lon="1.35509">
        <ele>95</ele>
        <time>2019-04-14T11:54:34Z</time>
      </trkpt>
      <trkpt lat="44.45265" lon="1.35512">
        <ele>95</ele>
        <time>2019-04-14T11:54:35Z</time>
      </trkpt>
      <trkpt lat="44.45268" lon="1.35515">
        <ele>95</ele>
        <time>2019-04-14T11:54:36Z</time>
      </trkpt>
      <trkpt lat="44.4527" lon="1.35518">
        <ele>95</ele>
        <time>2019-04-14T11:54:37Z</time>
      </trkpt>
      <trkpt lat="44.45273" lon="1.35521">
        <ele>95</ele>
        <time>2019-04-14T11:54:38Z</time>
      </trkpt>
      <trkpt lat="44.45275" lon="1.35525">
        <ele>95</ele>
        <time>2019-04-14T11:54:39Z</time>
      </trkpt>
      <trkpt lat="44.45278" lon="1.35528">
        <ele>95</ele>
        <time>2019-04-14T11:54:40Z</time>
      </trkpt>
      <trkpt lat="44.45281" lon="1.35531">
        <ele>95</ele>
        <time>2019-04-14T11:54:41Z</time>
      </trkpt>
      <trkpt lat="44.45283" lon="1.35534">
        <ele>95</ele>
        <time>2019-04-14T11:54:42Z</time>
      </trkpt>
      <trkpt lat="44.45285" lon="1.35537">
        <ele>95</ele>
        <time>2019-04-14T11:54:43Z</time>
      </trkpt>
      <trkpt lat="44.45288" lon="1.3554">
        <ele>95</ele>
        <time>2019-04-14T11:54:44Z</time>
      </trkpt>
      <trkpt lat="44.4529" lon="1.35543">
        <ele>95</ele>
        <time>2019-04-14T11:54:45Z</time>
      </trkpt>
      <trkpt lat="44.45293" lon="1.35547">
        <ele>95</ele>
        <time>2019-04-14T11:54:46Z</time>
      </trkpt>
      <trkpt lat="44.45296" lon="1.3555">
        <ele>95</ele>
        <time>2019-04-14T11:54:47Z</time>
      </trkpt>
      <trkpt lat="44.45298" lon="1.35553">
        <ele>95</ele>
        <time>2019-04-14T11:54:48Z</time>
      </trkpt>
      <trkpt lat="44.45301" lon="1.35556">
        <ele>94</ele>
        <time>2019-04-14T11:54:49Z</time>
      </trkpt>
      <trkpt lat="44.45304" lon="1.3556">
        <ele>95</ele>
        <time>2019-04-14T11:54:50Z</time>
      </trkpt>
      <trkpt lat="44.45308" lon="1.35563">
        <ele>95</ele>
        <time>2019-04-14T11:54:51Z</time>
      </trkpt>
      <trkpt lat="44.45311" lon="1.35566">
        <ele>94</ele>
        <time>2019-04-14T11:54:52Z</time>
      </trkpt>
      <trkpt lat="44.45313" lon="1.3557">
        <ele>94</ele>
        <time>2019-04-14T11:54:53Z</time>
      </trkpt>
      <trkpt lat="44.45315" lon="1.35574">
        <ele>95</ele>
        <time>2019-04-14T11:54:54Z</time>
      </trkpt>
      <trkpt lat="44.45316" lon="1.35578">
        <ele>94</ele>
        <time>2019-04-14T11:54:55Z</time>
      </trkpt>
      <trkpt lat="44.45316" lon="1.35583">
        <ele>95</ele>
        <time>2019-04-14T11:54:56Z</time>
      </trkpt>
      <trkpt lat="44.45314" lon="1.35587">
        <ele>95</ele>
        <time>2019-04-14T11:54:57Z</time>
      </trkpt>
      <trkpt lat="44.45312" lon="1.3559">
        <ele>95</ele>
        <time>2019-04-14T11:54:58Z</time>
      </trkpt>
      <trkpt lat="44.45309" lon="1.35593">
        <ele>95</ele>
        <time>2019-04-14T11:54:59Z</time>
      </trkpt>
      <trkpt lat="44.45307" lon="1.35596">
        <ele>95</ele>
        <time>2019-04-14T11:55:00Z</time>
      </trkpt>
      <trkpt lat="44.45305" lon="1.35599">
        <ele>95</ele>
        <time>2019-04-14T11:55:01Z</time>
      </trkpt>
      <trkpt lat="44.45303" lon="1.35603">
        <ele>96</ele>
        <time>2019-04-14T11:55:02Z</time>
      </trkpt>
      <trkpt lat="44.45301" lon="1.35606">
        <ele>96</ele>
        <time>2019-04-14T11:55:03Z</time>
      </trkpt>
      <trkpt lat="44.45298" lon="1.35609">
        <ele>96</ele>
        <time>2019-04-14T11:55:04Z</time>
      </trkpt>
      <trkpt lat="44.45296" lon="1.35613">
        <ele>96</ele>
        <time>2019-04-14T11:55:05Z</time>
      </trkpt>
      <trkpt lat="44.45294" lon="1.35616">
        <ele>96</ele>
        <time>2019-04-14T11:55:06Z</time>
      </trkpt>
      <trkpt lat="44.45292" lon="1.35619">
        <ele>97</ele>
        <time>2019-04-14T11:55:07Z</time>
      </trkpt>
      <trkpt lat="44.4529" lon="1.35623">
        <ele>97</ele>
        <time>2019-04-14T11:55:08Z</time>
      </trkpt>
      <trkpt lat="44.45288" lon="1.35626">
        <ele>97</ele>
        <time>2019-04-14T11:55:09Z</time>
      </trkpt>
      <trkpt lat="44.45285" lon="1.3563">
        <ele>97</ele>
        <time>2019-04-14T11:55:10Z</time>
      </trkpt>
      <trkpt lat="44.45283" lon="1.35633">
        <ele>97</ele>
        <time>2019-04-14T11:55:11Z</time>
      </trkpt>
      <trkpt lat="44.45281" lon="1.35636">
        <ele>98</ele>
        <time>2019-04-14T11:55:12Z</time>
      </trkpt>
      <trkpt lat="44.45279" lon="1.3564">
        <ele>98</ele>
        <time>2019-04-14T11:55:13Z</time>
      </trkpt>
      <trkpt lat="44.45277" lon="1.35643">
        <ele>98</ele>
        <time>2019-04-14T11:55:14Z</time>
      </trkpt>
      <trkpt lat="44.45275" lon="1.35646">
        <ele>98</ele>
        <time>2019-04-14T11:55:15Z</time>
      </trkpt>
      <trkpt lat="44.45273" lon="1.35649">
        <ele>99</ele>
        <time>2019-04-14T11:55:16Z</time>
      </trkpt>
      <trkpt lat="44.45271" lon="1.35653">
        <ele>99</ele>
        <time>2019-04-14T11:55:17Z</time>
      </trkpt>
      <trkpt lat="44.45269" lon="1.35656">
        <ele>99</ele>
        <time>2019-04-14T11:55:18Z</time>
      </trkpt>
      <trkpt lat="44.45266" lon="1.35658">
        <ele>99</ele>
        <time>2019-04-14T11:55:19Z</time>
      </trkpt>
      <trkpt lat="44.45264" lon="1.35661">
        <ele>99</ele>
        <time>2019-04-14T11:55:20Z</time>
      </trkpt>
      <trkpt lat="44.45262" lon="1.35664">
        <ele>99</ele>
        <time>2019-04-14T11:55:21Z</time>
      </trkpt>
      <trkpt lat="44.4526" lon="1.35667">
        <ele>100</ele>
        <time>2019-04-14T11:55:22Z</time>
      </trkpt>
      <trkpt lat="44.45258" lon="1.35669">
        <ele>100</ele>
        <time>2019-04-14T11:55:23Z</time>
      </trkpt>
      <trkpt lat="44.45255" lon="1.35671">
        <ele>100</ele>
        <time>2019-04-14T11:55:24Z</time>
      </trkpt>
      <trkpt lat="44.45253" lon="1.35673">
        <ele>100</ele>
        <time>2019-04-14T11:55:25Z</time>
      </trkpt>
      <trkpt lat="44.45251" lon="1.35676">
        <ele>100</ele>
        <time>2019-04-14T11:55:26Z</time>
      </trkpt>
      <trkpt lat="44.45249" lon="1.35679">
        <ele>100</ele>
        <time>2019-04-14T11:55:27Z</time>
      </trkpt>
      <trkpt lat="44.45246" lon="1.35682">
        <ele>100</ele>
        <time>2019-04-14T11:55:28Z</time>
      </trkpt>
      <trkpt lat="44.45244" lon="1.35685">
        <ele>100</ele>
        <time>2019-04-14T11:55:29Z</time>
      </trkpt>
      <trkpt lat="44.45242" lon="1.35688">
        <ele>100</ele>
        <time>2019-04-14T11:55:30Z</time>
      </trkpt>
      <trkpt lat="44.45239" lon="1.35691">
        <ele>100</ele>
        <time>2019-04-14T11:55:31Z</time>
      </trkpt>
      <trkpt lat="44.45236" lon="1.35694">
        <ele>101</ele>
        <time>2019-04-14T11:55:32Z</time>
      </trkpt>
      <trkpt lat="44.45233" lon="1.35697">
        <ele>101</ele>
        <time>2019-04-14T11:55:33Z</time>
      </trkpt>
      <trkpt lat="44.4523" lon="1.357">
        <ele>101</ele>
        <time>2019-04-14T11:55:34Z</time>
      </trkpt>
      <trkpt lat="44.45227" lon="1.35703">
        <ele>101</ele>
        <time>2019-04-14T11:55:35Z</time>
      </trkpt>
      <trkpt lat="44.45224" lon="1.35706">
        <ele>101</ele>
        <time>2019-04-14T11:55:36Z</time>
      </trkpt>
      <trkpt lat="44.4522" lon="1.35709">
        <ele>101</ele>
        <time>2019-04-14T11:55:37Z</time>
      </trkpt>
      <trkpt lat="44.45217" lon="1.35711">
        <ele>101</ele>
        <time>2019-04-14T11:55:38Z</time>
      </trkpt>
      <trkpt lat="44.45214" lon="1.35714">
        <ele>101</ele>
        <time>2019-04-14T11:55:39Z</time>
      </trkpt>
      <trkpt lat="44.4521" lon="1.35717">
        <ele>101</ele>
        <time>2019-04-14T11:55:40Z</time>
      </trkpt>
      <trkpt lat="44.45206" lon="1.35719">
        <ele>101</ele>
        <time>2019-04-14T11:55:41Z</time>
      </trkpt>
      <trkpt lat="44.45203" lon="1.35722">
        <ele>101</ele>
        <time>2019-04-14T11:55:42Z</time>
      </trkpt>
      <trkpt lat="44.45199" lon="1.35725">
        <ele>101</ele>
        <time>2019-04-14T11:55:43Z</time>
      </trkpt>
      <trkpt lat="44.45196" lon="1.35728">
        <ele>101</ele>
        <time>2019-04-14T11:55:44Z</time>
      </trkpt>
      <trkpt lat="44.45193" lon="1.35731">
        <ele>101</ele>
        <time>2019-04-14T11:55:45Z</time>
      </trkpt>
      <trkpt lat="44.4519" lon="1.35734">
        <ele>101</ele>
        <time>2019-04-14T11:55:46Z</time>
      </trkpt>
      <trkpt lat="44.45186" lon="1.35738">
        <ele>102</ele>
        <time>2019-04-14T11:55:47Z</time>
      </trkpt>
      <trkpt lat="44.45183" lon="1.35741">
        <ele>102</ele>
        <time>2019-04-14T11:55:48Z</time>
      </trkpt>
      <trkpt lat="44.4518" lon="1.35744">
        <ele>102</ele>
        <time>2019-04-14T11:55:49Z</time>
      </trkpt>
      <trkpt lat="44.45177" lon="1.35747">
        <ele>102</ele>
        <time>2019-04-14T11:55:50Z</time>
      </trkpt>
      <trkpt lat="44.45173" lon="1.3575">
        <ele>102</ele>
        <time>2019-04-14T11:55:51Z</time>
      </trkpt>
      <trkpt lat="44.4517" lon="1.35754">
        <ele>102</ele>
        <time>2019-04-14T11:55:52Z</time>
      </trkpt>
      <trkpt lat="44.45167" lon="1.35758">
        <ele>102</ele>
        <time>2019-04-14T11:55:53Z</time>
      </trkpt>
      <trkpt lat="44.45165" lon="1.35761">
        <ele>102</ele>
        <time>2019-04-14T11:55:54Z</time>
      </trkpt>
      <trkpt lat="44.45162" lon="1.35765">
        <ele>102</ele>
        <time>2019-04-14T11:55:55Z</time>
      </trkpt>
      <trkpt lat="44.45159" lon="1.35769">
        <ele>102</ele>
        <time>2019-04-14T11:55:56Z</time>
      </trkpt>
      <trkpt lat="44.45157" lon="1.35773">
        <ele>102</ele>
        <time>2019-04-14T11:55:57Z</time>
      </trkpt>
      <trkpt lat="44.45154" lon="1.35777">
        <ele>102</ele>
        <time>2019-04-14T11:55:58Z</time>
      </trkpt>
      <trkpt lat="44.45152" lon="1.35782">
        <ele>102</ele>
        <time>2019-04-14T11:55:59Z</time>
      </trkpt>
      <trkpt lat="44.45151" lon="1.35786">
        <ele>102</ele>
        <time>2019-04-14T11:56:00Z</time>
      </trkpt>
      <trkpt lat="44.45149" lon="1.35791">
        <ele>102</ele>
        <time>2019-04-14T11:56:01Z</time>
      </trkpt>
      <trkpt lat="44.45148" lon="1.35796">
        <ele>102</ele>
        <time>2019-04-14T11:56:02Z</time>
      </trkpt>
      <trkpt lat="44.45147" lon="1.35801">
        <ele>102</ele>
        <time>2019-04-14T11:56:03Z</time>
      </trkpt>
      <trkpt lat="44.45146" lon="1.35807">
        <ele>102</ele>
        <time>2019-04-14T11:56:04Z</time>
      </trkpt>
      <trkpt lat="44.45145" lon="1.35812">
        <ele>102</ele>
        <time>2019-04-14T11:56:05Z</time>
      </trkpt>
      <trkpt lat="44.45145" lon="1.35817">
        <ele>102</ele>
        <time>2019-04-14T11:56:06Z</time>
      </trkpt>
      <trkpt lat="44.45144" lon="1.35822">
        <ele>102</ele>
        <time>2019-04-14T11:56:07Z</time>
      </trkpt>
      <trkpt lat="44.45144" lon="1.35827">
        <ele>102</ele>
        <time>2019-04-14T11:56:08Z</time>
      </trkpt>
      <trkpt lat="44.45144" lon="1.35832">
        <ele>102</ele>
        <time>2019-04-14T11:56:09Z</time>
      </trkpt>
      <trkpt lat="44.45144" lon="1.35837">
        <ele>102</ele>
        <time>2019-04-14T11:56:10Z</time>
      </trkpt>
      <trkpt lat="44.45144" lon="1.35842">
        <ele>102</ele>
        <time>2019-04-14T11:56:11Z</time>
      </trkpt>
      <trkpt lat="44.45144" lon="1.35847">
        <ele>102</ele>
        <time>2019-04-14T11:56:12Z</time>
      </trkpt>
      <trkpt lat="44.45144" lon="1.35852">
        <ele>102</ele>
        <time>2019-04-14T11:56:13Z</time>
      </trkpt>
      <trkpt lat="44.45144" lon="1.35858">
        <ele>102</ele>
        <time>2019-04-14T11:56:14Z</time>
      </trkpt>
      <trkpt lat="44.45143" lon="1.35863">
        <ele>102</ele>
        <time>2019-04-14T11:56:15Z</time>
      </trkpt>
      <trkpt lat="44.45143" lon="1.35868">
        <ele>102</ele>
        <time>2019-04-14T11:56:16Z</time>
      </trkpt>
      <trkpt lat="44.45142" lon="1.35873">
        <ele>102</ele>
        <time>2019-04-14T11:56:17Z</time>
      </trkpt>
      <trkpt lat="44.4514" lon="1.35878">
        <ele>102</ele>
        <time>2019-04-14T11:56:18Z</time>
      </trkpt>
      <trkpt lat="44.45138" lon="1.35884">
        <ele>101</ele>
        <time>2019-04-14T11:56:19Z</time>
      </trkpt>
      <trkpt lat="44.45136" lon="1.35888">
        <ele>101</ele>
        <time>2019-04-14T11:56:20Z</time>
      </trkpt>
      <trkpt lat="44.45133" lon="1.35892">
        <ele>101</ele>
        <time>2019-04-14T11:56:21Z</time>
      </trkpt>
      <trkpt lat="44.45129" lon="1.35895">
        <ele>102</ele>
        <time>2019-04-14T11:56:22Z</time>
      </trkpt>
      <trkpt lat="44.45125" lon="1.35898">
        <ele>102</ele>
        <time>2019-04-14T11:56:23Z</time>
      </trkpt>
      <trkpt lat="44.45122" lon="1.359">
        <ele>101</ele>
        <time>2019-04-14T11:56:24Z</time>
      </trkpt>
      <trkpt lat="44.45118" lon="1.35902">
        <ele>102</ele>
        <time>2019-04-14T11:56:25Z</time>
      </trkpt>
      <trkpt lat="44.45114" lon="1.35904">
        <ele>101</ele>
        <time>2019-04-14T11:56:26Z</time>
      </trkpt>
      <trkpt lat="44.45109" lon="1.35905">
        <ele>102</ele>
        <time>2019-04-14T11:56:27Z</time>
      </trkpt>
      <trkpt lat="44.45106" lon="1.35907">
        <ele>101</ele>
        <time>2019-04-14T11:56:28Z</time>
      </trkpt>
      <trkpt lat="44.45102" lon="1.35908">
        <ele>101</ele>
        <time>2019-04-14T11:56:29Z</time>
      </trkpt>
      <trkpt lat="44.45098" lon="1.35909">
        <ele>101</ele>
        <time>2019-04-14T11:56:30Z</time>
      </trkpt>
      <trkpt lat="44.45094" lon="1.3591">
        <ele>101</ele>
        <time>2019-04-14T11:56:31Z</time>
      </trkpt>
      <trkpt lat="44.45091" lon="1.35912">
        <ele>102</ele>
        <time>2019-04-14T11:56:32Z</time>
      </trkpt>
      <trkpt lat="44.45087" lon="1.35913">
        <ele>102</ele>
        <time>2019-04-14T11:56:33Z</time>
      </trkpt>
      <trkpt lat="44.45083" lon="1.35915">
        <ele>102</ele>
        <time>2019-04-14T11:56:34Z</time>
      </trkpt>
      <trkpt lat="44.4508" lon="1.35916">
        <ele>102</ele>
        <time>2019-04-14T11:56:35Z</time>
      </trkpt>
      <trkpt lat="44.45076" lon="1.35917">
        <ele>102</ele>
        <time>2019-04-14T11:56:36Z</time>
      </trkpt>
      <trkpt lat="44.45073" lon="1.35919">
        <ele>102</ele>
        <time>2019-04-14T11:56:37Z</time>
      </trkpt>
      <trkpt lat="44.4507" lon="1.3592">
        <ele>102</ele>
        <time>2019-04-14T11:56:38Z</time>
      </trkpt>
      <trkpt lat="44.45066" lon="1.35922">
        <ele>102</ele>
        <time>2019-04-14T11:56:39Z</time>
      </trkpt>
      <trkpt lat="44.45063" lon="1.35924">
        <ele>102</ele>
        <time>2019-04-14T11:56:40Z</time>
      </trkpt>
      <trkpt lat="44.4506" lon="1.35926">
        <ele>102</ele>
        <time>2019-04-14T11:56:41Z</time>
      </trkpt>
      <trkpt lat="44.45057" lon="1.35928">
        <ele>102</ele>
        <time>2019-04-14T11:56:42Z</time>
      </trkpt>
      <trkpt lat="44.45054" lon="1.35929">
        <ele>103</ele>
        <time>2019-04-14T11:56:43Z</time>
      </trkpt>
      <trkpt lat="44.45051" lon="1.35931">
        <ele>103</ele>
        <time>2019-04-14T11:56:44Z</time>
      </trkpt>
      <trkpt lat="44.45048" lon="1.35934">
        <ele>103</ele>
        <time>2019-04-14T11:56:45Z</time>
      </trkpt>
      <trkpt lat="44.45045" lon="1.35936">
        <ele>103</ele>
        <time>2019-04-14T11:56:46Z</time>
      </trkpt>
      <trkpt lat="44.45043" lon="1.35938">
        <ele>103</ele>
        <time>2019-04-14T11:56:47Z</time>
      </trkpt>
      <trkpt lat="44.4504" lon="1.3594">
        <ele>103</ele>
        <time>2019-04-14T11:56:48Z</time>
      </trkpt>
      <trkpt lat="44.45038" lon="1.35942">
        <ele>103</ele>
        <time>2019-04-14T11:56:49Z</time>
      </trkpt>
      <trkpt lat="44.45035" lon="1.35944">
        <ele>103</ele>
        <time>2019-04-14T11:56:50Z</time>
      </trkpt>
      <trkpt lat="44.45032" lon="1.35946">
        <ele>103</ele>
        <time>2019-04-14T11:56:51Z</time>
      </trkpt>
      <trkpt lat="44.4503" lon="1.35948">
        <ele>103</ele>
        <time>2019-04-14T11:56:52Z</time>
      </trkpt>
      <trkpt lat="44.45027" lon="1.35951">
        <ele>103</ele>
        <time>2019-04-14T11:56:53Z</time>
      </trkpt>
      <trkpt lat="44.45024" lon="1.35953">
        <ele>103</ele>
        <time>2019-04-14T11:56:54Z</time>
      </trkpt>
      <trkpt lat="44.45022" lon="1.35955">
        <ele>104</ele>
        <time>2019-04-14T11:56:55Z</time>
      </trkpt>
      <trkpt lat="44.4502" lon="1.35957">
        <ele>104</ele>
        <time>2019-04-14T11:56:56Z</time>
      </trkpt>
      <trkpt lat="44.45017" lon="1.35959">
        <ele>104</ele>
        <time>2019-04-14T11:56:57Z</time>
      </trkpt>
      <trkpt lat="44.45014" lon="1.3596">
        <ele>104</ele>
        <time>2019-04-14T11:56:58Z</time>
      </trkpt>
      <trkpt lat="44.45012" lon="1.35962">
        <ele>104</ele>
        <time>2019-04-14T11:56:59Z</time>
      </trkpt>
      <trkpt lat="44.45009" lon="1.35964">
        <ele>104</ele>
        <time>2019-04-14T11:57:00Z</time>
      </trkpt>
      <trkpt lat="44.45006" lon="1.35966">
        <ele>104</ele>
        <time>2019-04-14T11:57:01Z</time>
      </trkpt>
      <trkpt lat="44.45003" lon="1.35968">
        <ele>104</ele>
        <time>2019-04-14T11:57:02Z</time>
      </trkpt>
      <trkpt lat="44.45001" lon="1.3597">
        <ele>104</ele>
        <time>2019-04-14T11:57:03Z</time>
      </trkpt>
      <trkpt lat="44.44999" lon="1.35972">
        <ele>104</ele>
        <time>2019-04-14T11:57:04Z</time>
      </trkpt>
      <trkpt lat="44.44996" lon="1.35973">
        <ele>104</ele>
        <time>2019-04-14T11:57:05Z</time>
      </trkpt>
      <trkpt lat="44.44993" lon="1.35975">
        <ele>105</ele>
        <time>2019-04-14T11:57:06Z</time>
      </trkpt>
      <trkpt lat="44.4499" lon="1.35976">
        <ele>105</ele>
        <time>2019-04-14T11:57:07Z</time>
      </trkpt>
      <trkpt lat="44.44988" lon="1.35977">
        <ele>105</ele>
        <time>2019-04-14T11:57:08Z</time>
      </trkpt>
      <trkpt lat="44.44985" lon="1.35978">
        <ele>105</ele>
        <time>2019-04-14T11:57:09Z</time>
      </trkpt>
      <trkpt lat="44.44982" lon="1.3598">
        <ele>105</ele>
        <time>2019-04-14T11:57:10Z</time>
      </trkpt>
      <trkpt lat="44.44979" lon="1.35981">
        <ele>105</ele>
        <time>2019-04-14T11:57:11Z</time>
      </trkpt>
      <trkpt lat="44.44977" lon="1.35982">
        <ele>105</ele>
        <time>2019-04-14T11:57:12Z</time>
      </trkpt>
      <trkpt lat="44.44974" lon="1.35983">
        <ele>105</ele>
        <time>2019-04-14T11:57:13Z</time>
      </trkpt>
      <trkpt lat="44.44971" lon="1.35985">
        <ele>105</ele>
        <time>2019-04-14T11:57:14Z</time>
      </trkpt>
      <trkpt lat="44.44968" lon="1.35987">
        <ele>105</ele>
        <time>2019-04-14T11:57:15Z</time>
      </trkpt>
      <trkpt lat="44.44966" lon="1.35989">
        <ele>105</ele>
        <time>2019-04-14T11:57:16Z</time>
      </trkpt>
      <trkpt lat="44.44963" lon="1.3599">
        <ele>105</ele>
        <time>2019-04-14T11:57:17Z</time>
      </trkpt>
      <trkpt lat="44.4496" lon="1.35992">
        <ele>106</ele>
        <time>2019-04-14T11:57:18Z</time>
      </trkpt>
      <trkpt lat="44.44957" lon="1.35994">
        <ele>106</ele>
        <time>2019-04-14T11:57:19Z</time>
      </trkpt>
      <trkpt lat="44.44954" lon="1.35995">
        <ele>106</ele>
        <time>2019-04-14T11:57:20Z</time>
      </trkpt>
      <trkpt lat="44.44952" lon="1.35997">
        <ele>106</ele>
        <time>2019-04-14T11:57:21Z</time>
      </trkpt>
      <trkpt lat="44.44949" lon="1.35999">
        <ele>106</ele>
        <time>2019-04-14T11:57:22Z</time>
      </trkpt>
      <trkpt lat="44.44946" lon="1.36001">
        <ele>106</ele>
        <time>2019-04-14T11:57:23Z</time>
      </trkpt>
      <trkpt lat="44.44943" lon="1.36004">
        <ele>106</ele>
        <time>2019-04-14T11:57:24Z</time>
      </trkpt>
      <trkpt lat="44.44939" lon="1.36006">
        <ele>106</ele>
        <time>2019-04-14T11:57:25Z</time>
      </trkpt>
      <trkpt lat="44.44937" lon="1.36008">
        <ele>106</ele>
        <time>2019-04-14T11:57:26Z</time>
      </trkpt>
      <trkpt lat="44.44934" lon="1.3601">
        <ele>106</ele>
        <time>2019-04-14T11:57:27Z</time>
      </trkpt>
      <trkpt lat="44.44931" lon="1.36012">
        <ele>106</ele>
        <time>2019-04-14T11:57:28Z</time>
      </trkpt>
      <trkpt lat="44.44928" lon="1.36014">
        <ele>106</ele>
        <time>2019-04-14T11:57:29Z</time>
      </trkpt>
      <trkpt lat="44.44925" lon="1.36016">
        <ele>107</ele>
        <time>2019-04-14T11:57:30Z</time>
      </trkpt>
      <trkpt lat="44.44922" lon="1.36018">
        <ele>107</ele>
        <time>2019-04-14T11:57:31Z</time>
      </trkpt>
      <trkpt lat="44.44919" lon="1.3602">
        <ele>107</ele>
        <time>2019-04-14T11:57:32Z</time>
      </trkpt>
      <trkpt lat="44.44916" lon="1.36021">
        <ele>107</ele>
        <time>2019-04-14T11:57:33Z</time>
      </trkpt>
      <trkpt lat="44.44913" lon="1.36024">
        <ele>107</ele>
        <time>2019-04-14T11:57:34Z</time>
      </trkpt>
      <trkpt lat="44.4491" lon="1.36026">
        <ele>107</ele>
        <time>2019-04-14T11:57:35Z</time>
      </trkpt>
      <trkpt lat="44.44908" lon="1.36028">
        <ele>107</ele>
        <time>2019-04-14T11:57:36Z</time>
      </trkpt>
      <trkpt lat="44.44905" lon="1.36029">
        <ele>107</ele>
        <time>2019-04-14T11:57:37Z</time>
      </trkpt>
      <trkpt lat="44.44902" lon="1.3603">
        <ele>107</ele>
        <time>2019-04-14T11:57:38Z</time>
      </trkpt>
      <trkpt lat="44.44899" lon="1.36032">
        <ele>107</ele>
        <time>2019-04-14T11:57:39Z</time>
      </trkpt>
      <trkpt lat="44.44896" lon="1.36034">
        <ele>107</ele>
        <time>2019-04-14T11:57:40Z</time>
      </trkpt>
      <trkpt lat="44.44893" lon="1.36035">
        <ele>107</ele>
        <time>2019-04-14T11:57:41Z</time>
      </trkpt>
      <trkpt lat="44.4489" lon="1.36037">
        <ele>107</ele>
        <time>2019-04-14T11:57:42Z</time>
      </trkpt>
      <trkpt lat="44.44887" lon="1.36039">
        <ele>107</ele>
        <time>2019-04-14T11:57:43Z</time>
      </trkpt>
      <trkpt lat="44.44884" lon="1.36041">
        <ele>107</ele>
        <time>2019-04-14T11:57:44Z</time>
      </trkpt>
      <trkpt lat="44.44881" lon="1.36043">
        <ele>107</ele>
        <time>2019-04-14T11:57:45Z</time>
      </trkpt>
      <trkpt lat="44.44878" lon="1.36045">
        <ele>107</ele>
        <time>2019-04-14T11:57:46Z</time>
      </trkpt>
      <trkpt lat="44.44875" lon="1.36047">
        <ele>108</ele>
        <time>2019-04-14T11:57:47Z</time>
      </trkpt>
      <trkpt lat="44.44872" lon="1.36049">
        <ele>108</ele>
        <time>2019-04-14T11:57:48Z</time>
      </trkpt>
      <trkpt lat="44.44869" lon="1.3605">
        <ele>108</ele>
        <time>2019-04-14T11:57:49Z</time>
      </trkpt>
      <trkpt lat="44.44866" lon="1.36052">
        <ele>108</ele>
        <time>2019-04-14T11:57:50Z</time>
      </trkpt>
      <trkpt lat="44.44863" lon="1.36053">
        <ele>108</ele>
        <time>2019-04-14T11:57:51Z</time>
      </trkpt>
      <trkpt lat="44.4486" lon="1.36055">
        <ele>108</ele>
        <time>2019-04-14T11:57:52Z</time>
      </trkpt>
      <trkpt lat="44.44857" lon="1.36056">
        <ele>108</ele>
        <time>2019-04-14T11:57:53Z</time>
      </trkpt>
      <trkpt lat="44.44854" lon="1.36058">
        <ele>108</ele>
        <time>2019-04-14T11:57:54Z</time>
      </trkpt>
      <trkpt lat="44.4485" lon="1.3606">
        <ele>108</ele>
        <time>2019-04-14T11:57:55Z</time>
      </trkpt>
      <trkpt lat="44.44847" lon="1.36061">
        <ele>108</ele>
        <time>2019-04-14T11:57:56Z</time>
      </trkpt>
      <trkpt lat="44.44844" lon="1.36063">
        <ele>108</ele>
        <time>2019-04-14T11:57:57Z</time>
      </trkpt>
      <trkpt lat="44.44841" lon="1.36065">
        <ele>108</ele>
        <time>2019-04-14T11:57:58Z</time>
      </trkpt>
      <trkpt lat="44.44837" lon="1.36067">
        <ele>108</ele>
        <time>2019-04-14T11:57:59Z</time>
      </trkpt>
      <trkpt lat="44.44834" lon="1.36068">
        <ele>108</ele>
        <time>2019-04-14T11:58:00Z</time>
      </trkpt>
      <trkpt lat="44.4483" lon="1.3607">
        <ele>108</ele>
        <time>2019-04-14T11:58:01Z</time>
      </trkpt>
      <trkpt lat="44.44827" lon="1.36071">
        <ele>108</ele>
        <time>2019-04-14T11:58:02Z</time>
      </trkpt>
      <trkpt lat="44.44824" lon="1.36072">
        <ele>108</ele>
        <time>2019-04-14T11:58:03Z</time>
      </trkpt>
      <trkpt lat="44.44821" lon="1.36074">
        <ele>108</ele>
        <time>2019-04-14T11:58:04Z</time>
      </trkpt>
      <trkpt lat="44.44818" lon="1.36075">
        <ele>108</ele>
        <time>2019-04-14T11:58:05Z</time>
      </trkpt>
      <trkpt lat="44.44815" lon="1.36077">
        <ele>108</ele>
        <time>2019-04-14T11:58:06Z</time>
      </trkpt>
      <trkpt lat="44.44812" lon="1.36079">
        <ele>108</ele>
        <time>2019-04-14T11:58:07Z</time>
      </trkpt>
      <trkpt lat="44.44809" lon="1.36081">
        <ele>108</ele>
        <time>2019-04-14T11:58:08Z</time>
      </trkpt>
      <trkpt lat="44.44805" lon="1.36082">
        <ele>108</ele>
        <time>2019-04-14T11:58:09Z</time>
      </trkpt>
      <trkpt lat="44.44801" lon="1.36084">
        <ele>108</ele>
        <time>2019-04-14T11:58:10Z</time>
      </trkpt>
      <trkpt lat="44.44798" lon="1.36087">
        <ele>109</ele>
        <time>2019-04-14T11:58:11Z</time>
      </trkpt>
      <trkpt lat="44.44795" lon="1.36088">
        <ele>109</ele>
        <time>2019-04-14T11:58:12Z</time>
      </trkpt>
      <trkpt lat="44.44792" lon="1.36089">
        <ele>109</ele>
        <time>2019-04-14T11:58:13Z</time>
      </trkpt>
      <trkpt lat="44.44789" lon="1.3609">
        <ele>109</ele>
        <time>2019-04-14T11:58:14Z</time>
      </trkpt>
      <trkpt lat="44.44786" lon="1.36091">
        <ele>109</ele>
        <time>2019-04-14T11:58:15Z</time>
      </trkpt>
      <trkpt lat="44.44783" lon="1.36092">
        <ele>109</ele>
        <time>2019-04-14T11:58:16Z</time>
      </trkpt>
      <trkpt lat="44.4478" lon="1.36093">
        <ele>109</ele>
        <time>2019-04-14T11:58:17Z</time>
      </trkpt>
      <trkpt lat="44.44776" lon="1.36095">
        <ele>109</ele>
        <time>2019-04-14T11:58:18Z</time>
      </trkpt>
      <trkpt lat="44.44773" lon="1.36096">
        <ele>109</ele>
        <time>2019-04-14T11:58:19Z</time>
      </trkpt>
      <trkpt lat="44.4477" lon="1.36097">
        <ele>109</ele>
        <time>2019-04-14T11:58:20Z</time>
      </trkpt>
      <trkpt lat="44.44766" lon="1.36099">
        <ele>109</ele>
        <time>2019-04-14T11:58:21Z</time>
      </trkpt>
      <trkpt lat="44.44762" lon="1.361">
        <ele>109</ele>
        <time>2019-04-14T11:58:22Z</time>
      </trkpt>
      <trkpt lat="44.44759" lon="1.36102">
        <ele>109</ele>
        <time>2019-04-14T11:58:23Z</time>
      </trkpt>
      <trkpt lat="44.44756" lon="1.36103">
        <ele>109</ele>
        <time>2019-04-14T11:58:24Z</time>
      </trkpt>
      <trkpt lat="44.44752" lon="1.36104">
        <ele>109</ele>
        <time>2019-04-14T11:58:25Z</time>
      </trkpt>
      <trkpt lat="44.44749" lon="1.36105">
        <ele>109</ele>
        <time>2019-04-14T11:58:26Z</time>
      </trkpt>
      <trkpt lat="44.44746" lon="1.36107">
        <ele>109</ele>
        <time>2019-04-14T11:58:27Z</time>
      </trkpt>
      <trkpt lat="44.44743" lon="1.36108">
        <ele>109</ele>
        <time>2019-04-14T11:58:28Z</time>
      </trkpt>
      <trkpt lat="44.44739" lon="1.3611">
        <ele>109</ele>
        <time>2019-04-14T11:58:29Z</time>
      </trkpt>
      <trkpt lat="44.44736" lon="1.36111">
        <ele>109</ele>
        <time>2019-04-14T11:58:30Z</time>
      </trkpt>
      <trkpt lat="44.44733" lon="1.36112">
        <ele>110</ele>
        <time>2019-04-14T11:58:31Z</time>
      </trkpt>
      <trkpt lat="44.4473" lon="1.36114">
        <ele>110</ele>
        <time>2019-04-14T11:58:32Z</time>
      </trkpt>
      <trkpt lat="44.44726" lon="1.36116">
        <ele>110</ele>
        <time>2019-04-14T11:58:33Z</time>
      </trkpt>
      <trkpt lat="44.44723" lon="1.36118">
        <ele>110</ele>
        <time>2019-04-14T11:58:34Z</time>
      </trkpt>
      <trkpt lat="44.4472" lon="1.36119">
        <ele>110</ele>
        <time>2019-04-14T11:58:35Z</time>
      </trkpt>
      <trkpt lat="44.44717" lon="1.36121">
        <ele>110</ele>
        <time>2019-04-14T11:58:36Z</time>
      </trkpt>
      <trkpt lat="44.44714" lon="1.36122">
        <ele>110</ele>
        <time>2019-04-14T11:58:37Z</time>
      </trkpt>
      <trkpt lat="44.44712" lon="1.36123">
        <ele>110</ele>
        <time>2019-04-14T11:58:38Z</time>
      </trkpt>
      <trkpt lat="44.44709" lon="1.36124">
        <ele>110</ele>
        <time>2019-04-14T11:58:39Z</time>
      </trkpt>
      <trkpt lat="44.44706" lon="1.36124">
        <ele>110</ele>
        <time>2019-04-14T11:58:40Z</time>
      </trkpt>
      <trkpt lat="44.44703" lon="1.36123">
        <ele>110</ele>
        <time>2019-04-14T11:58:41Z</time>
      </trkpt>
      <trkpt lat="44.44699" lon="1.36122">
        <ele>110</ele>
        <time>2019-04-14T11:58:42Z</time>
      </trkpt>
      <trkpt lat="44.44695" lon="1.3612">
        <ele>110</ele>
        <time>2019-04-14T11:58:43Z</time>
      </trkpt>
      <trkpt lat="44.44692" lon="1.36119">
        <ele>110</ele>
        <time>2019-04-14T11:58:44Z</time>
      </trkpt>
      <trkpt lat="44.44689" lon="1.36117">
        <ele>111</ele>
        <time>2019-04-14T11:58:45Z</time>
      </trkpt>
      <trkpt lat="44.44685" lon="1.36115">
        <ele>111</ele>
        <time>2019-04-14T11:58:46Z</time>
      </trkpt>
      <trkpt lat="44.44682" lon="1.36114">
        <ele>110</ele>
        <time>2019-04-14T11:58:47Z</time>
      </trkpt>
      <trkpt lat="44.44679" lon="1.36113">
        <ele>111</ele>
        <time>2019-04-14T11:58:48Z</time>
      </trkpt>
      <trkpt lat="44.44676" lon="1.36112">
        <ele>111</ele>
        <time>2019-04-14T11:58:49Z</time>
      </trkpt>
      <trkpt lat="44.44673" lon="1.36111">
        <ele>111</ele>
        <time>2019-04-14T11:58:50Z</time>
      </trkpt>
      <trkpt lat="44.44669" lon="1.36109">
        <ele>111</ele>
        <time>2019-04-14T11:58:51Z</time>
      </trkpt>
      <trkpt lat="44.44666" lon="1.36108">
        <ele>111</ele>
        <time>2019-04-14T11:58:52Z</time>
      </trkpt>
      <trkpt lat="44.44663" lon="1.36107">
        <ele>111</ele>
        <time>2019-04-14T11:58:53Z</time>
      </trkpt>
      <trkpt lat="44.44659" lon="1.36106">
        <ele>111</ele>
        <time>2019-04-14T11:58:54Z</time>
      </trkpt>
      <trkpt lat="44.44656" lon="1.36105">
        <ele>111</ele>
        <time>2019-04-14T11:58:55Z</time>
      </trkpt>
      <trkpt lat="44.44653" lon="1.36104">
        <ele>111</ele>
        <time>2019-04-14T11:58:56Z</time>
      </trkpt>
      <trkpt lat="44.44649" lon="1.36102">
        <ele>111</ele>
        <time>2019-04-14T11:58:57Z</time>
      </trkpt>
      <trkpt lat="44.44646" lon="1.36101">
        <ele>111</ele>
        <time>2019-04-14T11:58:58Z</time>
      </trkpt>
      <trkpt lat="44.44643" lon="1.361">
        <ele>111</ele>
        <time>2019-04-14T11:58:59Z</time>
      </trkpt>
      <trkpt lat="44.44639" lon="1.36099">
        <ele>112</ele>
        <time>2019-04-14T11:59:00Z</time>
      </trkpt>
      <trkpt lat="44.44636" lon="1.36098">
        <ele>112</ele>
        <time>2019-04-14T11:59:01Z</time>
      </trkpt>
      <trkpt lat="44.44633" lon="1.36096">
        <ele>112</ele>
        <time>2019-04-14T11:59:02Z</time>
      </trkpt>
      <trkpt lat="44.44629" lon="1.36096">
        <ele>112</ele>
        <time>2019-04-14T11:59:03Z</time>
      </trkpt>
      <trkpt lat="44.44625" lon="1.36095">
        <ele>112</ele>
        <time>2019-04-14T11:59:04Z</time>
      </trkpt>
      <trkpt lat="44.44621" lon="1.36093">
        <ele>112</ele>
        <time>2019-04-14T11:59:05Z</time>
      </trkpt>
      <trkpt lat="44.44618" lon="1.36092">
        <ele>112</ele>
        <time>2019-04-14T11:59:06Z</time>
      </trkpt>
      <trkpt lat="44.44614" lon="1.36091">
        <ele>112</ele>
        <time>2019-04-14T11:59:07Z</time>
      </trkpt>
      <trkpt lat="44.4461" lon="1.36089">
        <ele>112</ele>
        <time>2019-04-14T11:59:08Z</time>
      </trkpt>
      <trkpt lat="44.44607" lon="1.36088">
        <ele>112</ele>
        <time>2019-04-14T11:59:09Z</time>
      </trkpt>
      <trkpt lat="44.44603" lon="1.36086">
        <ele>112</ele>
        <time>2019-04-14T11:59:10Z</time>
      </trkpt>
      <trkpt lat="44.446" lon="1.36084">
        <ele>112</ele>
        <time>2019-04-14T11:59:11Z</time>
      </trkpt>
      <trkpt lat="44.44597" lon="1.36083">
        <ele>112</ele>
        <time>2019-04-14T11:59:12Z</time>
      </trkpt>
      <trkpt lat="44.44594" lon="1.36081">
        <ele>112</ele>
        <time>2019-04-14T11:59:13Z</time>
      </trkpt>
      <trkpt lat="44.4459" lon="1.36078">
        <ele>112</ele>
        <time>2019-04-14T11:59:14Z</time>
      </trkpt>
      <trkpt lat="44.44587" lon="1.36076">
        <ele>112</ele>
        <time>2019-04-14T11:59:15Z</time>
      </trkpt>
      <trkpt lat="44.44583" lon="1.36074">
        <ele>112</ele>
        <time>2019-04-14T11:59:16Z</time>
      </trkpt>
      <trkpt lat="44.4458" lon="1.36072">
        <ele>112</ele>
        <time>2019-04-14T11:59:17Z</time>
      </trkpt>
      <trkpt lat="44.44576" lon="1.3607">
        <ele>112</ele>
        <time>2019-04-14T11:59:18Z</time>
      </trkpt>
      <trkpt lat="44.44573" lon="1.36067">
        <ele>112</ele>
        <time>2019-04-14T11:59:19Z</time>
      </trkpt>
      <trkpt lat="44.4457" lon="1.36065">
        <ele>112</ele>
        <time>2019-04-14T11:59:20Z</time>
      </trkpt>
      <trkpt lat="44.44567" lon="1.36062">
        <ele>112</ele>
        <time>2019-04-14T11:59:21Z</time>
      </trkpt>
      <trkpt lat="44.44563" lon="1.3606">
        <ele>112</ele>
        <time>2019-04-14T11:59:22Z</time>
      </trkpt>
      <trkpt lat="44.44559" lon="1.36057">
        <ele>112</ele>
        <time>2019-04-14T11:59:23Z</time>
      </trkpt>
      <trkpt lat="44.44556" lon="1.36054">
        <ele>112</ele>
        <time>2019-04-14T11:59:24Z</time>
      </trkpt>
      <trkpt lat="44.44553" lon="1.36052">
        <ele>112</ele>
        <time>2019-04-14T11:59:25Z</time>
      </trkpt>
      <trkpt lat="44.44549" lon="1.3605">
        <ele>112</ele>
        <time>2019-04-14T11:59:26Z</time>
      </trkpt>
      <trkpt lat="44.44545" lon="1.36047">
        <ele>113</ele>
        <time>2019-04-14T11:59:27Z</time>
      </trkpt>
      <trkpt lat="44.44542" lon="1.36045">
        <ele>113</ele>
        <time>2019-04-14T11:59:28Z</time>
      </trkpt>
      <trkpt lat="44.44538" lon="1.36042">
        <ele>113</ele>
        <time>2019-04-14T11:59:29Z</time>
      </trkpt>
      <trkpt lat="44.44534" lon="1.3604">
        <ele>113</ele>
        <time>2019-04-14T11:59:30Z</time>
      </trkpt>
      <trkpt lat="44.4453" lon="1.36038">
        <ele>113</ele>
        <time>2019-04-14T11:59:31Z</time>
      </trkpt>
      <trkpt lat="44.44527" lon="1.36037">
        <ele>113</ele>
        <time>2019-04-14T11:59:32Z</time>
      </trkpt>
      <trkpt lat="44.44523" lon="1.36036">
        <ele>113</ele>
        <time>2019-04-14T11:59:33Z</time>
      </trkpt>
      <trkpt lat="44.4452" lon="1.36035">
        <ele>113</ele>
        <time>2019-04-14T11:59:34Z</time>
      </trkpt>
      <trkpt lat="44.44517" lon="1.36035">
        <ele>113</ele>
        <time>2019-04-14T11:59:35Z</time>
      </trkpt>
      <trkpt lat="44.44513" lon="1.36034">
        <ele>113</ele>
        <time>2019-04-14T11:59:36Z</time>
      </trkpt>
      <trkpt lat="44.4451" lon="1.36033">
        <ele>113</ele>
        <time>2019-04-14T11:59:37Z</time>
      </trkpt>
      <trkpt lat="44.44507" lon="1.36032">
        <ele>113</ele>
        <time>2019-04-14T11:59:38Z</time>
      </trkpt>
      <trkpt lat="44.44503" lon="1.36031">
        <ele>113</ele>
        <time>2019-04-14T11:59:39Z</time>
      </trkpt>
      <trkpt lat="44.445" lon="1.3603">
        <ele>113</ele>
        <time>2019-04-14T11:59:40Z</time>
      </trkpt>
      <trkpt lat="44.44496" lon="1.36029">
        <ele>114</ele>
        <time>2019-04-14T11:59:41Z</time>
      </trkpt>
      <trkpt lat="44.44492" lon="1.36029">
        <ele>114</ele>
        <time>2019-04-14T11:59:42Z</time>
      </trkpt>
      <trkpt lat="44.44489" lon="1.36028">
        <ele>114</ele>
        <time>2019-04-14T11:59:43Z</time>
      </trkpt>
      <trkpt lat="44.44485" lon="1.36028">
        <ele>114</ele>
        <time>2019-04-14T11:59:44Z</time>
      </trkpt>
      <trkpt lat="44.44481" lon="1.36027">
        <ele>114</ele>
        <time>2019-04-14T11:59:45Z</time>
      </trkpt>
      <trkpt lat="44.44477" lon="1.36027">
        <ele>114</ele>
        <time>2019-04-14T11:59:46Z</time>
      </trkpt>
      <trkpt lat="44.44473" lon="1.36027">
        <ele>114</ele>
        <time>2019-04-14T11:59:47Z</time>
      </trkpt>
      <trkpt lat="44.4447" lon="1.36027">
        <ele>114</ele>
        <time>2019-04-14T11:59:48Z</time>
      </trkpt>
      <trkpt lat="44.44466" lon="1.36027">
        <ele>115</ele>
        <time>2019-04-14T11:59:49Z</time>
      </trkpt>
      <trkpt lat="44.44462" lon="1.36026">
        <ele>115</ele>
        <time>2019-04-14T11:59:50Z</time>
      </trkpt>
      <trkpt lat="44.44459" lon="1.36026">
        <ele>115</ele>
        <time>2019-04-14T11:59:51Z</time>
      </trkpt>
      <trkpt lat="44.44455" lon="1.36026">
        <ele>115</ele>
        <time>2019-04-14T11:59:52Z</time>
      </trkpt>
      <trkpt lat="44.44451" lon="1.36026">
        <ele>115</ele>
        <time>2019-04-14T11:59:53Z</time>
      </trkpt>
      <trkpt lat="44.44448" lon="1.36026">
        <ele>115</ele>
        <time>2019-04-14T11:59:54Z</time>
      </trkpt>
      <trkpt lat="44.44444" lon="1.36026">
        <ele>115</ele>
        <time>2019-04-14T11:59:55Z</time>
      </trkpt>
      <trkpt lat="44.4444" lon="1.36027">
        <ele>115</ele>
        <time>2019-04-14T11:59:56Z</time>
      </trkpt>
      <trkpt lat="44.44436" lon="1.36027">
        <ele>115</ele>
        <time>2019-04-14T11:59:57Z</time>
      </trkpt>
      <trkpt lat="44.44432" lon="1.36027">
        <ele>116</ele>
        <time>2019-04-14T11:59:58Z</time>
      </trkpt>
      <trkpt lat="44.44429" lon="1.36027">
        <ele>116</ele>
        <time>2019-04-14T11:59:59Z</time>
      </trkpt>
      <trkpt lat="44.44425" lon="1.36027">
        <ele>116</ele>
        <time>2019-04-14T12:00:00Z</time>
      </trkpt>
      <trkpt lat="44.44421" lon="1.36028">
        <ele>116</ele>
        <time>2019-04-14T12:00:01Z</time>
      </trkpt>
      <trkpt lat="44.44418" lon="1.36028">
        <ele>116</ele>
        <time>2019-04-14T12:00:02Z</time>
      </trkpt>
      <trkpt lat="44.44414" lon="1.36028">
        <ele>116</ele>
        <time>2019-04-14T12:00:03Z</time>
      </trkpt>
      <trkpt lat="44.4441" lon="1.36028">
        <ele>116</ele>
        <time>2019-04-14T12:00:04Z</time>
      </trkpt>
      <trkpt lat="44.44407" lon="1.36027">
        <ele>116</ele>
        <time>2019-04-14T12:00:05Z</time>
      </trkpt>
      <trkpt lat="44.44403" lon="1.36027">
        <ele>116</ele>
        <time>2019-04-14T12:00:06Z</time>
      </trkpt>
      <trkpt lat="44.44399" lon="1.36027">
        <ele>116</ele>
        <time>2019-04-14T12:00:07Z</time>
      </trkpt>
      <trkpt lat="44.44395" lon="1.36027">
        <ele>116</ele>
        <time>2019-04-14T12:00:08Z</time>
      </trkpt>
      <trkpt lat="44.44392" lon="1.36028">
        <ele>117</ele>
        <time>2019-04-14T12:00:09Z</time>
      </trkpt>
      <trkpt lat="44.44388" lon="1.36028">
        <ele>117</ele>
        <time>2019-04-14T12:00:10Z</time>
      </trkpt>
      <trkpt lat="44.44384" lon="1.36028">
        <ele>117</ele>
        <time>2019-04-14T12:00:11Z</time>
      </trkpt>
      <trkpt lat="44.4438" lon="1.36028">
        <ele>117</ele>
        <time>2019-04-14T12:00:12Z</time>
      </trkpt>
      <trkpt lat="44.44377" lon="1.36028">
        <ele>117</ele>
        <time>2019-04-14T12:00:13Z</time>
      </trkpt>
      <trkpt lat="44.44374" lon="1.36028">
        <ele>117</ele>
        <time>2019-04-14T12:00:14Z</time>
      </trkpt>
      <trkpt lat="44.4437" lon="1.36027">
        <ele>117</ele>
        <time>2019-04-14T12:00:15Z</time>
      </trkpt>
      <trkpt lat="44.44367" lon="1.36027">
        <ele>117</ele>
        <time>2019-04-14T12:00:16Z</time>
      </trkpt>
      <trkpt lat="44.44364" lon="1.36027">
        <ele>117</ele>
        <time>2019-04-14T12:00:17Z</time>
      </trkpt>
      <trkpt lat="44.44359" lon="1.36028">
        <ele>117</ele>
        <time>2019-04-14T12:00:18Z</time>
      </trkpt>
      <trkpt lat="44.44356" lon="1.36028">
        <ele>117</ele>
        <time>2019-04-14T12:00:19Z</time>
      </trkpt>
      <trkpt lat="44.44352" lon="1.36028">
        <ele>117</ele>
        <time>2019-04-14T12:00:20Z</time>
      </trkpt>
      <trkpt lat="44.44349" lon="1.36029">
        <ele>117</ele>
        <time>2019-04-14T12:00:21Z</time>
      </trkpt>
      <trkpt lat="44.44345" lon="1.3603">
        <ele>117</ele>
        <time>2019-04-14T12:00:22Z</time>
      </trkpt>
      <trkpt lat="44.44341" lon="1.36031">
        <ele>118</ele>
        <time>2019-04-14T12:00:23Z</time>
      </trkpt>
      <trkpt lat="44.44338" lon="1.36032">
        <ele>118</ele>
        <time>2019-04-14T12:00:24Z</time>
      </trkpt>
      <trkpt lat="44.44335" lon="1.36033">
        <ele>118</ele>
        <time>2019-04-14T12:00:25Z</time>
      </trkpt>
      <trkpt lat="44.44331" lon="1.36034">
        <ele>118</ele>
        <time>2019-04-14T12:00:26Z</time>
      </trkpt>
      <trkpt lat="44.44328" lon="1.36035">
        <ele>118</ele>
        <time>2019-04-14T12:00:27Z</time>
      </trkpt>
      <trkpt lat="44.44325" lon="1.36037">
        <ele>118</ele>
        <time>2019-04-14T12:00:28Z</time>
      </trkpt>
      <trkpt lat="44.44321" lon="1.36039">
        <ele>118</ele>
        <time>2019-04-14T12:00:29Z</time>
      </trkpt>
      <trkpt lat="44.44317" lon="1.3604">
        <ele>118</ele>
        <time>2019-04-14T12:00:30Z</time>
      </trkpt>
      <trkpt lat="44.44313" lon="1.36042">
        <ele>118</ele>
        <time>2019-04-14T12:00:31Z</time>
      </trkpt>
      <trkpt lat="44.4431" lon="1.36044">
        <ele>118</ele>
        <time>2019-04-14T12:00:32Z</time>
      </trkpt>
      <trkpt lat="44.44307" lon="1.36046">
        <ele>119</ele>
        <time>2019-04-14T12:00:33Z</time>
      </trkpt>
      <trkpt lat="44.44304" lon="1.36048">
        <ele>119</ele>
        <time>2019-04-14T12:00:34Z</time>
      </trkpt>
      <trkpt lat="44.443" lon="1.3605">
        <ele>119</ele>
        <time>2019-04-14T12:00:35Z</time>
      </trkpt>
      <trkpt lat="44.44297" lon="1.36052">
        <ele>119</ele>
        <time>2019-04-14T12:00:36Z</time>
      </trkpt>
      <trkpt lat="44.44294" lon="1.36054">
        <ele>119</ele>
        <time>2019-04-14T12:00:37Z</time>
      </trkpt>
      <trkpt lat="44.44291" lon="1.36056">
        <ele>119</ele>
        <time>2019-04-14T12:00:38Z</time>
      </trkpt>
      <trkpt lat="44.44288" lon="1.36058">
        <ele>119</ele>
        <time>2019-04-14T12:00:39Z</time>
      </trkpt>
      <trkpt lat="44.44285" lon="1.3606">
        <ele>119</ele>
        <time>2019-04-14T12:00:40Z</time>
      </trkpt>
      <trkpt lat="44.44282" lon="1.36062">
        <ele>119</ele>
        <time>2019-04-14T12:00:41Z</time>
      </trkpt>
      <trkpt lat="44.44279" lon="1.36064">
        <ele>119</ele>
        <time>2019-04-14T12:00:42Z</time>
      </trkpt>
      <trkpt lat="44.44276" lon="1.36067">
        <ele>119</ele>
        <time>2019-04-14T12:00:43Z</time>
      </trkpt>
      <trkpt lat="44.44273" lon="1.36068">
        <ele>120</ele>
        <time>2019-04-14T12:00:44Z</time>
      </trkpt>
      <trkpt lat="44.4427" lon="1.3607">
        <ele>120</ele>
        <time>2019-04-14T12:00:45Z</time>
      </trkpt>
      <trkpt lat="44.44266" lon="1.36071">
        <ele>120</ele>
        <time>2019-04-14T12:00:46Z</time>
      </trkpt>
      <trkpt lat="44.44263" lon="1.36073">
        <ele>120</ele>
        <time>2019-04-14T12:00:47Z</time>
      </trkpt>
      <trkpt lat="44.4426" lon="1.36076">
        <ele>120</ele>
        <time>2019-04-14T12:00:48Z</time>
      </trkpt>
      <trkpt lat="44.44257" lon="1.36078">
        <ele>120</ele>
        <time>2019-04-14T12:00:49Z</time>
      </trkpt>
      <trkpt lat="44.44254" lon="1.3608">
        <ele>120</ele>
        <time>2019-04-14T12:00:50Z</time>
      </trkpt>
      <trkpt lat="44.44251" lon="1.36082">
        <ele>120</ele>
        <time>2019-04-14T12:00:51Z</time>
      </trkpt>
      <trkpt lat="44.44248" lon="1.36084">
        <ele>120</ele>
        <time>2019-04-14T12:00:52Z</time>
      </trkpt>
      <trkpt lat="44.44244" lon="1.36086">
        <ele>120</ele>
        <time>2019-04-14T12:00:53Z</time>
      </trkpt>
      <trkpt lat="44.44241" lon="1.36088">
        <ele>121</ele>
        <time>2019-04-14T12:00:54Z</time>
      </trkpt>
      <trkpt lat="44.44238" lon="1.3609">
        <ele>121</ele>
        <time>2019-04-14T12:00:55Z</time>
      </trkpt>
      <trkpt lat="44.44235" lon="1.36093">
        <ele>121</ele>
        <time>2019-04-14T12:00:56Z</time>
      </trkpt>
      <trkpt lat="44.44232" lon="1.36095">
        <ele>121</ele>
        <time>2019-04-14T12:00:57Z</time>
      </trkpt>
      <trkpt lat="44.44229" lon="1.36097">
        <ele>121</ele>
        <time>2019-04-14T12:00:58Z</time>
      </trkpt>
      <trkpt lat="44.44226" lon="1.36099">
        <ele>121</ele>
        <time>2019-04-14T12:00:59Z</time>
      </trkpt>
      <trkpt lat="44.44223" lon="1.36102">
        <ele>121</ele>
        <time>2019-04-14T12:01:00Z</time>
      </trkpt>
      <trkpt lat="44.4422" lon="1.36104">
        <ele>121</ele>
        <time>2019-04-14T12:01:01Z</time>
      </trkpt>
      <trkpt lat="44.44217" lon="1.36105">
        <ele>121</ele>
        <time>2019-04-14T12:01:02Z</time>
      </trkpt>
      <trkpt lat="44.44214" lon="1.36107">
        <ele>121</ele>
        <time>2019-04-14T12:01:03Z</time>
      </trkpt>
      <trkpt lat="44.44211" lon="1.36109">
        <ele>121</ele>
        <time>2019-04-14T12:01:04Z</time>
      </trkpt>
      <trkpt lat="44.44207" lon="1.36111">
        <ele>121</ele>
        <time>2019-04-14T12:01:05Z</time>
      </trkpt>
      <trkpt lat="44.44204" lon="1.36113">
        <ele>121</ele>
        <time>2019-04-14T12:01:06Z</time>
      </trkpt>
      <trkpt lat="44.44201" lon="1.36115">
        <ele>121</ele>
        <time>2019-04-14T12:01:07Z</time>
      </trkpt>
      <trkpt lat="44.44198" lon="1.36118">
        <ele>121</ele>
        <time>2019-04-14T12:01:08Z</time>
      </trkpt>
      <trkpt lat="44.44196" lon="1.3612">
        <ele>121</ele>
        <time>2019-04-14T12:01:09Z</time>
      </trkpt>
      <trkpt lat="44.44193" lon="1.36123">
        <ele>121</ele>
        <time>2019-04-14T12:01:10Z</time>
      </trkpt>
      <trkpt lat="44.44189" lon="1.36126">
        <ele>121</ele>
        <time>2019-04-14T12:01:11Z</time>
      </trkpt>
      <trkpt lat="44.44186" lon="1.36129">
        <ele>121</ele>
        <time>2019-04-14T12:01:12Z</time>
      </trkpt>
      <trkpt lat="44.44183" lon="1.36131">
        <ele>121</ele>
        <time>2019-04-14T12:01:13Z</time>
      </trkpt>
      <trkpt lat="44.4418" lon="1.36133">
        <ele>121</ele>
        <time>2019-04-14T12:01:14Z</time>
      </trkpt>
      <trkpt lat="44.44176" lon="1.36135">
        <ele>121</ele>
        <time>2019-04-14T12:01:15Z</time>
      </trkpt>
      <trkpt lat="44.44173" lon="1.36137">
        <ele>121</ele>
        <time>2019-04-14T12:01:16Z</time>
      </trkpt>
      <trkpt lat="44.4417" lon="1.36138">
        <ele>121</ele>
        <time>2019-04-14T12:01:17Z</time>
      </trkpt>
      <trkpt lat="44.44166" lon="1.3614">
        <ele>121</ele>
        <time>2019-04-14T12:01:18Z</time>
      </trkpt>
      <trkpt lat="44.44162" lon="1.36142">
        <ele>122</ele>
        <time>2019-04-14T12:01:19Z</time>
      </trkpt>
      <trkpt lat="44.44158" lon="1.36145">
        <ele>122</ele>
        <time>2019-04-14T12:01:20Z</time>
      </trkpt>
      <trkpt lat="44.44155" lon="1.36147">
        <ele>122</ele>
        <time>2019-04-14T12:01:21Z</time>
      </trkpt>
      <trkpt lat="44.44152" lon="1.36149">
        <ele>122</ele>
        <time>2019-04-14T12:01:22Z</time>
      </trkpt>
      <trkpt lat="44.44148" lon="1.36151">
        <ele>122</ele>
        <time>2019-04-14T12:01:23Z</time>
      </trkpt>
      <trkpt lat="44.44145" lon="1.36153">
        <ele>122</ele>
        <time>2019-04-14T12:01:24Z</time>
      </trkpt>
      <trkpt lat="44.44142" lon="1.36156">
        <ele>122</ele>
        <time>2019-04-14T12:01:25Z</time>
      </trkpt>
      <trkpt lat="44.44139" lon="1.36159">
        <ele>122</ele>
        <time>2019-04-14T12:01:26Z</time>
      </trkpt>
      <trkpt lat="44.44135" lon="1.36161">
        <ele>122</ele>
        <time>2019-04-14T12:01:27Z</time>
      </trkpt>
      <trkpt lat="44.44132" lon="1.36164">
        <ele>122</ele>
        <time>2019-04-14T12:01:28Z</time>
      </trkpt>
      <trkpt lat="44.4413" lon="1.36167">
        <ele>122</ele>
        <time>2019-04-14T12:01:29Z</time>
      </trkpt>
      <trkpt lat="44.44127" lon="1.36169">
        <ele>123</ele>
        <time>2019-04-14T12:01:30Z</time>
      </trkpt>
      <trkpt lat="44.44124" lon="1.36172">
        <ele>123</ele>
        <time>2019-04-14T12:01:31Z</time>
      </trkpt>
      <trkpt lat="44.44121" lon="1.36174">
        <ele>123</ele>
        <time>2019-04-14T12:01:32Z</time>
      </trkpt>
      <trkpt lat="44.44118" lon="1.36175">
        <ele>123</ele>
        <time>2019-04-14T12:01:33Z</time>
      </trkpt>
      <trkpt lat="44.44116" lon="1.36174">
        <ele>123</ele>
        <time>2019-04-14T12:01:34Z</time>
      </trkpt>
      <trkpt lat="44.44114" lon="1.36172">
        <ele>123</ele>
        <time>2019-04-14T12:01:35Z</time>
      </trkpt>
      <trkpt lat="44.44113" lon="1.3617">
        <ele>123</ele>
        <time>2019-04-14T12:01:36Z</time>
      </trkpt>
      <trkpt lat="44.44113" lon="1.36167">
        <ele>123</ele>
        <time>2019-04-14T12:01:37Z</time>
      </trkpt>
      <trkpt lat="44.44115" lon="1.36163">
        <ele>122</ele>
        <time>2019-04-14T12:01:38Z</time>
      </trkpt>
      <trkpt lat="44.44115" lon="1.36158">
        <ele>122</ele>
        <time>2019-04-14T12:01:39Z</time>
      </trkpt>
      <trkpt lat="44.44117" lon="1.36153">
        <ele>122</ele>
        <time>2019-04-14T12:01:40Z</time>
      </trkpt>
      <trkpt lat="44.44119" lon="1.36147">
        <ele>122</ele>
        <time>2019-04-14T12:01:41Z</time>
      </trkpt>
      <trkpt lat="44.4412" lon="1.36142">
        <ele>121</ele>
        <time>2019-04-14T12:01:42Z</time>
      </trkpt>
      <trkpt lat="44.44121" lon="1.36136">
        <ele>121</ele>
        <time>2019-04-14T12:01:43Z</time>
      </trkpt>
      <trkpt lat="44.44122" lon="1.36131">
        <ele>121</ele>
        <time>2019-04-14T12:01:44Z</time>
      </trkpt>
      <trkpt lat="44.44123" lon="1.36126">
        <ele>121</ele>
        <time>2019-04-14T12:01:45Z</time>
      </trkpt>
      <trkpt lat="44.44125" lon="1.36121">
        <ele>121</ele>
        <time>2019-04-14T12:01:46Z</time>
      </trkpt>
      <trkpt lat="44.44125" lon="1.36116">
        <ele>121</ele>
        <time>2019-04-14T12:01:47Z</time>
      </trkpt>
      <trkpt lat="44.44126" lon="1.3611">
        <ele>121</ele>
        <time>2019-04-14T12:01:48Z</time>
      </trkpt>
      <trkpt lat="44.44128" lon="1.36104">
        <ele>121</ele>
        <time>2019-04-14T12:01:49Z</time>
      </trkpt>
      <trkpt lat="44.44129" lon="1.361">
        <ele>121</ele>
        <time>2019-04-14T12:01:50Z</time>
      </trkpt>
      <trkpt lat="44.44129" lon="1.36095">
        <ele>121</ele>
        <time>2019-04-14T12:01:51Z</time>
      </trkpt>
      <trkpt lat="44.44128" lon="1.3609">
        <ele>121</ele>
        <time>2019-04-14T12:01:52Z</time>
      </trkpt>
      <trkpt lat="44.44126" lon="1.36088">
        <ele>121</ele>
        <time>2019-04-14T12:01:53Z</time>
      </trkpt>
      <trkpt lat="44.44124" lon="1.36087">
        <ele>122</ele>
        <time>2019-04-14T12:01:54Z</time>
      </trkpt>
      <trkpt lat="44.44121" lon="1.36088">
        <ele>122</ele>
        <time>2019-04-14T12:01:55Z</time>
      </trkpt>
      <trkpt lat="44.44119" lon="1.36088">
        <ele>122</ele>
        <time>2019-04-14T12:01:56Z</time>
      </trkpt>
      <trkpt lat="44.44116" lon="1.36089">
        <ele>123</ele>
        <time>2019-04-14T12:01:57Z</time>
      </trkpt>
      <trkpt lat="44.44115" lon="1.3609">
        <ele>123</ele>
        <time>2019-04-14T12:01:58Z</time>
      </trkpt>
      <trkpt lat="44.44112" lon="1.36091">
        <ele>123</ele>
        <time>2019-04-14T12:01:59Z</time>
      </trkpt>
      <trkpt lat="44.4411" lon="1.36091">
        <ele>123</ele>
        <time>2019-04-14T12:02:00Z</time>
      </trkpt>
      <trkpt lat="44.44107" lon="1.36093">
        <ele>123</ele>
        <time>2019-04-14T12:02:01Z</time>
      </trkpt>
      <trkpt lat="44.44105" lon="1.36093">
        <ele>124</ele>
        <time>2019-04-14T12:02:02Z</time>
      </trkpt>
      <trkpt lat="44.44103" lon="1.36094">
        <ele>124</ele>
        <time>2019-04-14T12:02:03Z</time>
      </trkpt>
      <trkpt lat="44.44101" lon="1.36094">
        <ele>124</ele>
        <time>2019-04-14T12:02:04Z</time>
      </trkpt>
      <trkpt lat="44.44098" lon="1.36095">
        <ele>124</ele>
        <time>2019-04-14T12:02:05Z</time>
      </trkpt>
      <trkpt lat="44.44095" lon="1.36096">
        <ele>124</ele>
        <time>2019-04-14T12:02:06Z</time>
      </trkpt>
      <trkpt lat="44.44092" lon="1.36096">
        <ele>124</ele>
        <time>2019-04-14T12:02:07Z</time>
      </trkpt>
      <trkpt lat="44.44089" lon="1.36097">
        <ele>124</ele>
        <time>2019-04-14T12:02:08Z</time>
      </trkpt>
      <trkpt lat="44.44087" lon="1.36099">
        <ele>125</ele>
        <time>2019-04-14T12:02:09Z</time>
      </trkpt>
      <trkpt lat="44.44085" lon="1.361">
        <ele>125</ele>
        <time>2019-04-14T12:02:10Z</time>
      </trkpt>
      <trkpt lat="44.44083" lon="1.361">
        <ele>125</ele>
        <time>2019-04-14T12:02:11Z</time>
      </trkpt>
      <trkpt lat="44.4408" lon="1.36102">
        <ele>125</ele>
        <time>2019-04-14T12:02:12Z</time>
      </trkpt>
      <trkpt lat="44.44077" lon="1.36104">
        <ele>125</ele>
        <time>2019-04-14T12:02:13Z</time>
      </trkpt>
      <trkpt lat="44.44074" lon="1.36103">
        <ele>125</ele>
        <time>2019-04-14T12:02:14Z</time>
      </trkpt>
      <trkpt lat="44.44072" lon="1.36103">
        <ele>126</ele>
        <time>2019-04-14T12:02:15Z</time>
      </trkpt>
      <trkpt lat="44.4407" lon="1.36105">
        <ele>126</ele>
        <time>2019-04-14T12:02:16Z</time>
      </trkpt>
      <trkpt lat="44.44067" lon="1.36106">
        <ele>126</ele>
        <time>2019-04-14T12:02:17Z</time>
      </trkpt>
      <trkpt lat="44.44064" lon="1.36108">
        <ele>126</ele>
        <time>2019-04-14T12:02:18Z</time>
      </trkpt>
      <trkpt lat="44.44061" lon="1.36109">
        <ele>126</ele>
        <time>2019-04-14T12:02:19Z</time>
      </trkpt>
      <trkpt lat="44.44059" lon="1.3611">
        <ele>126</ele>
        <time>2019-04-14T12:02:20Z</time>
      </trkpt>
      <trkpt lat="44.44055" lon="1.36112">
        <ele>126</ele>
        <time>2019-04-14T12:02:21Z</time>
      </trkpt>
      <trkpt lat="44.44052" lon="1.36114">
        <ele>126</ele>
        <time>2019-04-14T12:02:22Z</time>
      </trkpt>
      <trkpt lat="44.44049" lon="1.36115">
        <ele>126</ele>
        <time>2019-04-14T12:02:23Z</time>
      </trkpt>
      <trkpt lat="44.44045" lon="1.36116">
        <ele>126</ele>
        <time>2019-04-14T12:02:24Z</time>
      </trkpt>
      <trkpt lat="44.44043" lon="1.36117">
        <ele>126</ele>
        <time>2019-04-14T12:02:25Z</time>
      </trkpt>
      <trkpt lat="44.44039" lon="1.36117">
        <ele>126</ele>
        <time>2019-04-14T12:02:26Z</time>
      </trkpt>
      <trkpt lat="44.44035" lon="1.36119">
        <ele>127</ele>
        <time>2019-04-14T12:02:27Z</time>
      </trkpt>
      <trkpt lat="44.44033" lon="1.36121">
        <ele>127</ele>
        <time>2019-04-14T12:02:28Z</time>
      </trkpt>
      <trkpt lat="44.4403" lon="1.36122">
        <ele>127</ele>
        <time>2019-04-14T12:02:29Z</time>
      </trkpt>
      <trkpt lat="44.44027" lon="1.36124">
        <ele>127</ele>
        <time>2019-04-14T12:02:30Z</time>
      </trkpt>
      <trkpt lat="44.44024" lon="1.36125">
        <ele>127</ele>
        <time>2019-04-14T12:02:31Z</time>
      </trkpt>
      <trkpt lat="44.44021" lon="1.36127">
        <ele>127</ele>
        <time>2019-04-14T12:02:32Z</time>
      </trkpt>
      <trkpt lat="44.44018" lon="1.36127">
        <ele>127</ele>
        <time>2019-04-14T12:02:33Z</time>
      </trkpt>
      <trkpt lat="44.44015" lon="1.36129">
        <ele>127</ele>
        <time>2019-04-14T12:02:34Z</time>
      </trkpt>
      <trkpt lat="44.44013" lon="1.36131">
        <ele>127</ele>
        <time>2019-04-14T12:02:35Z</time>
      </trkpt>
      <trkpt lat="44.4401" lon="1.36132">
        <ele>127</ele>
        <time>2019-04-14T12:02:36Z</time>
      </trkpt>
      <trkpt lat="44.44006" lon="1.36135">
        <ele>127</ele>
        <time>2019-04-14T12:02:37Z</time>
      </trkpt>
      <trkpt lat="44.44003" lon="1.36136">
        <ele>127</ele>
        <time>2019-04-14T12:02:38Z</time>
      </trkpt>
      <trkpt lat="44.44001" lon="1.36138">
        <ele>127</ele>
        <time>2019-04-14T12:02:39Z</time>
      </trkpt>
      <trkpt lat="44.43998" lon="1.3614">
        <ele>128</ele>
        <time>2019-04-14T12:02:40Z</time>
      </trkpt>
      <trkpt lat="44.43995" lon="1.36142">
        <ele>127</ele>
        <time>2019-04-14T12:02:41Z</time>
      </trkpt>
      <trkpt lat="44.43992" lon="1.36144">
        <ele>127</ele>
        <time>2019-04-14T12:02:42Z</time>
      </trkpt>
      <trkpt lat="44.43989" lon="1.36146">
        <ele>127</ele>
        <time>2019-04-14T12:02:43Z</time>
      </trkpt>
      <trkpt lat="44.43986" lon="1.36148">
        <ele>128</ele>
        <time>2019-04-14T12:02:44Z</time>
      </trkpt>
      <trkpt lat="44.43983" lon="1.3615">
        <ele>128</ele>
        <time>2019-04-14T12:02:45Z</time>
      </trkpt>
      <trkpt lat="44.4398" lon="1.36152">
        <ele>128</ele>
        <time>2019-04-14T12:02:46Z</time>
      </trkpt>
      <trkpt lat="44.43977" lon="1.36153">
        <ele>127</ele>
        <time>2019-04-14T12:02:47Z</time>
      </trkpt>
      <trkpt lat="44.43974" lon="1.36155">
        <ele>128</ele>
        <time>2019-04-14T12:02:48Z</time>
      </trkpt>
      <trkpt lat="44.43971" lon="1.36156">
        <ele>128</ele>
        <time>2019-04-14T12:02:49Z</time>
      </trkpt>
      <trkpt lat="44.43968" lon="1.36158">
        <ele>128</ele>
        <time>2019-04-14T12:02:50Z</time>
      </trkpt>
      <trkpt lat="44.43965" lon="1.3616">
        <ele>128</ele>
        <time>2019-04-14T12:02:51Z</time>
      </trkpt>
      <trkpt lat="44.43962" lon="1.36161">
        <ele>128</ele>
        <time>2019-04-14T12:02:52Z</time>
      </trkpt>
      <trkpt lat="44.43959" lon="1.36162">
        <ele>128</ele>
        <time>2019-04-14T12:02:53Z</time>
      </trkpt>
      <trkpt lat="44.43955" lon="1.36163">
        <ele>128</ele>
        <time>2019-04-14T12:02:54Z</time>
      </trkpt>
      <trkpt lat="44.43953" lon="1.36165">
        <ele>128</ele>
        <time>2019-04-14T12:02:55Z</time>
      </trkpt>
      <trkpt lat="44.43949" lon="1.36166">
        <ele>128</ele>
        <time>2019-04-14T12:02:56Z</time>
      </trkpt>
      <trkpt lat="44.43946" lon="1.36167">
        <ele>128</ele>
        <time>2019-04-14T12:02:57Z</time>
      </trkpt>
      <trkpt lat="44.43943" lon="1.36167">
        <ele>128</ele>
        <time>2019-04-14T12:02:58Z</time>
      </trkpt>
      <trkpt lat="44.43941" lon="1.36168">
        <ele>128</ele>
        <time>2019-04-14T12:02:59Z</time>
      </trkpt>
      <trkpt lat="44.43938" lon="1.36169">
        <ele>128</ele>
        <time>2019-04-14T12:03:00Z</time>
      </trkpt>
      <trkpt lat="44.43935" lon="1.36169">
        <ele>128</ele>
        <time>2019-04-14T12:03:01Z</time>
      </trkpt>
      <trkpt lat="44.43932" lon="1.36169">
        <ele>128</ele>
        <time>2019-04-14T12:03:02Z</time>
      </trkpt>
      <trkpt lat="44.4393" lon="1.36168">
        <ele>128</ele>
        <time>2019-04-14T12:03:03Z</time>
      </trkpt>
      <trkpt lat="44.43926" lon="1.36167">
        <ele>129</ele>
        <time>2019-04-14T12:03:04Z</time>
      </trkpt>
      <trkpt lat="44.43923" lon="1.36167">
        <ele>129</ele>
        <time>2019-04-14T12:03:05Z</time>
      </trkpt>
      <trkpt lat="44.43921" lon="1.36166">
        <ele>129</ele>
        <time>2019-04-14T12:03:06Z</time>
      </trkpt>
      <trkpt lat="44.43918" lon="1.36165">
        <ele>129</ele>
        <time>2019-04-14T12:03:07Z</time>
      </trkpt>
      <trkpt lat="44.43915" lon="1.36165">
        <ele>130</ele>
        <time>2019-04-14T12:03:08Z</time>
      </trkpt>
      <trkpt lat="44.43912" lon="1.36165">
        <ele>130</ele>
        <time>2019-04-14T12:03:09Z</time>
      </trkpt>
      <trkpt lat="44.4391" lon="1.36164">
        <ele>130</ele>
        <time>2019-04-14T12:03:10Z</time>
      </trkpt>
      <trkpt lat="44.43907" lon="1.36162">
        <ele>130</ele>
        <time>2019-04-14T12:03:11Z</time>
      </trkpt>
      <trkpt lat="44.43906" lon="1.3616">
        <ele>130</ele>
        <time>2019-04-14T12:03:12Z</time>
      </trkpt>
      <trkpt lat="44.43904" lon="1.36159">
        <ele>131</ele>
        <time>2019-04-14T12:03:13Z</time>
      </trkpt>
      <trkpt lat="44.43902" lon="1.36158">
        <ele>131</ele>
        <time>2019-04-14T12:03:14Z</time>
      </trkpt>
      <trkpt lat="44.43899" lon="1.36156">
        <ele>131</ele>
        <time>2019-04-14T12:03:15Z</time>
      </trkpt>
      <trkpt lat="44.43897" lon="1.36155">
        <ele>131</ele>
        <time>2019-04-14T12:03:16Z</time>
      </trkpt>
      <trkpt lat="44.43895" lon="1.36153">
        <ele>131</ele>
        <time>2019-04-14T12:03:17Z</time>
      </trkpt>
      <trkpt lat="44.43894" lon="1.36151">
        <ele>132</ele>
        <time>2019-04-14T12:03:18Z</time>
      </trkpt>
      <trkpt lat="44.43891" lon="1.36149">
        <ele>132</ele>
        <time>2019-04-14T12:03:19Z</time>
      </trkpt>
      <trkpt lat="44.43889" lon="1.36147">
        <ele>132</ele>
        <time>2019-04-14T12:03:20Z</time>
      </trkpt>
      <trkpt lat="44.43887" lon="1.36146">
        <ele>132</ele>
        <time>2019-04-14T12:03:21Z</time>
      </trkpt>
      <trkpt lat="44.43884" lon="1.36145">
        <ele>132</ele>
        <time>2019-04-14T12:03:22Z</time>
      </trkpt>
      <trkpt lat="44.43882" lon="1.36142">
        <ele>133</ele>
        <time>2019-04-14T12:03:23Z</time>
      </trkpt>
      <trkpt lat="44.43879" lon="1.36141">
        <ele>133</ele>
        <time>2019-04-14T12:03:24Z</time>
      </trkpt>
      <trkpt lat="44.43877" lon="1.36139">
        <ele>133</ele>
        <time>2019-04-14T12:03:25Z</time>
      </trkpt>
      <trkpt lat="44.43876" lon="1.36137">
        <ele>133</ele>
        <time>2019-04-14T12:03:26Z</time>
      </trkpt>
      <trkpt lat="44.43874" lon="1.36136">
        <ele>133</ele>
        <time>2019-04-14T12:03:27Z</time>
      </trkpt>
      <trkpt lat="44.43871" lon="1.36134">
        <ele>133</ele>
        <time>2019-04-14T12:03:28Z</time>
      </trkpt>
      <trkpt lat="44.43869" lon="1.36132">
        <ele>134</ele>
        <time>2019-04-14T12:03:29Z</time>
      </trkpt>
      <trkpt lat="44.43867" lon="1.3613">
        <ele>134</ele>
        <time>2019-04-14T12:03:30Z</time>
      </trkpt>
      <trkpt lat="44.43864" lon="1.36129">
        <ele>134</ele>
        <time>2019-04-14T12:03:31Z</time>
      </trkpt>
      <trkpt lat="44.43862" lon="1.36127">
        <ele>134</ele>
        <time>2019-04-14T12:03:32Z</time>
      </trkpt>
      <trkpt lat="44.4386" lon="1.36125">
        <ele>134</ele>
        <time>2019-04-14T12:03:33Z</time>
      </trkpt>
      <trkpt lat="44.43858" lon="1.36123">
        <ele>135</ele>
        <time>2019-04-14T12:03:34Z</time>
      </trkpt>
      <trkpt lat="44.43857" lon="1.36123">
        <ele>135</ele>
        <time>2019-04-14T12:03:35Z</time>
      </trkpt>
      <trkpt lat="44.43855" lon="1.36121">
        <ele>135</ele>
        <time>2019-04-14T12:03:36Z</time>
      </trkpt>
      <trkpt lat="44.43853" lon="1.3612">
        <ele>135</ele>
        <time>2019-04-14T12:03:37Z</time>
      </trkpt>
      <trkpt lat="44.43851" lon="1.36118">
        <ele>135</ele>
        <time>2019-04-14T12:03:38Z</time>
      </trkpt>
      <trkpt lat="44.43849" lon="1.36117">
        <ele>135</ele>
        <time>2019-04-14T12:03:39Z</time>
      </trkpt>
      <trkpt lat="44.43847" lon="1.36116">
        <ele>135</ele>
        <time>2019-04-14T12:03:40Z</time>
      </trkpt>
      <trkpt lat="44.43846" lon="1.36114">
        <ele>136</ele>
        <time>2019-04-14T12:03:41Z</time>
      </trkpt>
      <trkpt lat="44.43844" lon="1.36113">
        <ele>136</ele>
        <time>2019-04-14T12:03:42Z</time>
      </trkpt>
      <trkpt lat="44.43842" lon="1.36112">
        <ele>136</ele>
        <time>2019-04-14T12:03:43Z</time>
      </trkpt>
      <trkpt lat="44.43841" lon="1.36112">
        <ele>136</ele>
        <time>2019-04-14T12:03:44Z</time>
      </trkpt>
      <trkpt lat="44.43839" lon="1.36112">
        <ele>136</ele>
        <time>2019-04-14T12:03:45Z</time>
      </trkpt>
      <trkpt lat="44.43838" lon="1.36113">
        <ele>136</ele>
        <time>2019-04-14T12:03:46Z</time>
      </trkpt>
      <trkpt lat="44.43837" lon="1.36115">
        <ele>136</ele>
        <time>2019-04-14T12:03:47Z</time>
      </trkpt>
      <trkpt lat="44.43837" lon="1.36118">
        <ele>136</ele>
        <time>2019-04-14T12:03:48Z</time>
      </trkpt>
      <trkpt lat="44.4384" lon="1.36117">
        <ele>135</ele>
        <time>2019-04-14T12:03:49Z</time>
      </trkpt>
      <trkpt lat="44.43841" lon="1.36122">
        <ele>135</ele>
        <time>2019-04-14T12:03:50Z</time>
      </trkpt>
      <trkpt lat="44.43843" lon="1.36126">
        <ele>134</ele>
        <time>2019-04-14T12:03:51Z</time>
      </trkpt>
      <trkpt lat="44.43845" lon="1.36131">
        <ele>134</ele>
        <time>2019-04-14T12:03:52Z</time>
      </trkpt>
      <trkpt lat="44.43848" lon="1.36135">
        <ele>133</ele>
        <time>2019-04-14T12:03:53Z</time>
      </trkpt>
      <trkpt lat="44.43851" lon="1.36139">
        <ele>133</ele>
        <time>2019-04-14T12:03:54Z</time>
      </trkpt>
      <trkpt lat="44.43854" lon="1.36144">
        <ele>133</ele>
        <time>2019-04-14T12:03:55Z</time>
      </trkpt>
      <trkpt lat="44.43857" lon="1.36152">
        <ele>132</ele>
        <time>2019-04-14T12:03:56Z</time>
      </trkpt>
      <trkpt lat="44.4386" lon="1.36158">
        <ele>132</ele>
        <time>2019-04-14T12:03:57Z</time>
      </trkpt>
      <trkpt lat="44.43864" lon="1.36164">
        <ele>132</ele>
        <time>2019-04-14T12:03:58Z</time>
      </trkpt>
      <trkpt lat="44.43867" lon="1.3617">
        <ele>131</ele>
        <time>2019-04-14T12:03:59Z</time>
      </trkpt>
      <trkpt lat="44.43869" lon="1.36179">
        <ele>131</ele>
        <time>2019-04-14T12:04:00Z</time>
      </trkpt>
      <trkpt lat="44.43869" lon="1.36189">
        <ele>130</ele>
        <time>2019-04-14T12:04:01Z</time>
      </trkpt>
      <trkpt lat="44.43869" lon="1.36197">
        <ele>130</ele>
        <time>2019-04-14T12:04:02Z</time>
      </trkpt>
      <trkpt lat="44.43867" lon="1.36203">
        <ele>130</ele>
        <time>2019-04-14T12:04:03Z</time>
      </trkpt>
      <trkpt lat="44.43864" lon="1.36209">
        <ele>129</ele>
        <time>2019-04-14T12:04:04Z</time>
      </trkpt>
      <trkpt lat="44.43862" lon="1.36214">
        <ele>129</ele>
        <time>2019-04-14T12:04:05Z</time>
      </trkpt>
      <trkpt lat="44.43859" lon="1.36219">
        <ele>129</ele>
        <time>2019-04-14T12:04:06Z</time>
      </trkpt>
      <trkpt lat="44.43857" lon="1.36224">
        <ele>129</ele>
        <time>2019-04-14T12:04:07Z</time>
      </trkpt>
      <trkpt lat="44.43854" lon="1.36229">
        <ele>129</ele>
        <time>2019-04-14T12:04:08Z</time>
      </trkpt>
      <trkpt lat="44.43852" lon="1.36234">
        <ele>129</ele>
        <time>2019-04-14T12:04:09Z</time>
      </trkpt>
      <trkpt lat="44.43849" lon="1.3624">
        <ele>129</ele>
        <time>2019-04-14T12:04:10Z</time>
      </trkpt>
      <trkpt lat="44.43847" lon="1.36245">
        <ele>129</ele>
        <time>2019-04-14T12:04:11Z</time>
      </trkpt>
      <trkpt lat="44.43845" lon="1.36251">
        <ele>130</ele>
        <time>2019-04-14T12:04:12Z</time>
      </trkpt>
      <trkpt lat="44.43843" lon="1.36257">
        <ele>129</ele>
        <time>2019-04-14T12:04:13Z</time>
      </trkpt>
      <trkpt lat="44.43841" lon="1.36263">
        <ele>130</ele>
        <time>2019-04-14T12:04:14Z</time>
      </trkpt>
      <trkpt lat="44.43839" lon="1.36269">
        <ele>130</ele>
        <time>2019-04-14T12:04:15Z</time>
      </trkpt>
      <trkpt lat="44.43838" lon="1.36276">
        <ele>130</ele>
        <time>2019-04-14T12:04:16Z</time>
      </trkpt>
      <trkpt lat="44.43835" lon="1.36282">
        <ele>130</ele>
        <time>2019-04-14T12:04:17Z</time>
      </trkpt>
      <trkpt lat="44.43834" lon="1.3629">
        <ele>130</ele>
        <time>2019-04-14T12:04:18Z</time>
      </trkpt>
      <trkpt lat="44.43833" lon="1.36297">
        <ele>130</ele>
        <time>2019-04-14T12:04:19Z</time>
      </trkpt>
      <trkpt lat="44.43831" lon="1.36303">
        <ele>130</ele>
        <time>2019-04-14T12:04:20Z</time>
      </trkpt>
      <trkpt lat="44.43829" lon="1.3631">
        <ele>130</ele>
        <time>2019-04-14T12:04:21Z</time>
      </trkpt>
      <trkpt lat="44.43828" lon="1.36317">
        <ele>130</ele>
        <time>2019-04-14T12:04:22Z</time>
      </trkpt>
      <trkpt lat="44.43827" lon="1.36323">
        <ele>130</ele>
        <time>2019-04-14T12:04:23Z</time>
      </trkpt>
      <trkpt lat="44.43826" lon="1.3633">
        <ele>130</ele>
        <time>2019-04-14T12:04:24Z</time>
      </trkpt>
      <trkpt lat="44.43825" lon="1.36336">
        <ele>130</ele>
        <time>2019-04-14T12:04:25Z</time>
      </trkpt>
      <trkpt lat="44.43823" lon="1.36342">
        <ele>130</ele>
        <time>2019-04-14T12:04:26Z</time>
      </trkpt>
      <trkpt lat="44.43822" lon="1.36349">
        <ele>130</ele>
        <time>2019-04-14T12:04:27Z</time>
      </trkpt>
      <trkpt lat="44.43821" lon="1.36355">
        <ele>130</ele>
        <time>2019-04-14T12:04:28Z</time>
      </trkpt>
      <trkpt lat="44.4382" lon="1.36363">
        <ele>130</ele>
        <time>2019-04-14T12:04:29Z</time>
      </trkpt>
      <trkpt lat="44.4382" lon="1.36368">
        <ele>130</ele>
        <time>2019-04-14T12:04:30Z</time>
      </trkpt>
      <trkpt lat="44.43819" lon="1.36375">
        <ele>131</ele>
        <time>2019-04-14T12:04:31Z</time>
      </trkpt>
      <trkpt lat="44.43818" lon="1.3638">
        <ele>131</ele>
        <time>2019-04-14T12:04:32Z</time>
      </trkpt>
      <trkpt lat="44.43817" lon="1.36386">
        <ele>131</ele>
        <time>2019-04-14T12:04:33Z</time>
      </trkpt>
      <trkpt lat="44.43816" lon="1.36392">
        <ele>131</ele>
        <time>2019-04-14T12:04:34Z</time>
      </trkpt>
      <trkpt lat="44.43816" lon="1.36397">
        <ele>131</ele>
        <time>2019-04-14T12:04:35Z</time>
      </trkpt>
      <trkpt lat="44.43815" lon="1.36401">
        <ele>131</ele>
        <time>2019-04-14T12:04:36Z</time>
      </trkpt>
      <trkpt lat="44.43814" lon="1.36406">
        <ele>132</ele>
        <time>2019-04-14T12:04:37Z</time>
      </trkpt>
      <trkpt lat="44.43812" lon="1.36411">
        <ele>132</ele>
        <time>2019-04-14T12:04:38Z</time>
      </trkpt>
      <trkpt lat="44.43812" lon="1.36415">
        <ele>132</ele>
        <time>2019-04-14T12:04:39Z</time>
      </trkpt>
      <trkpt lat="44.43811" lon="1.3642">
        <ele>132</ele>
        <time>2019-04-14T12:04:40Z</time>
      </trkpt>
      <trkpt lat="44.4381" lon="1.36425">
        <ele>132</ele>
        <time>2019-04-14T12:04:41Z</time>
      </trkpt>
      <trkpt lat="44.43808" lon="1.36432">
        <ele>132</ele>
        <time>2019-04-14T12:04:42Z</time>
      </trkpt>
      <trkpt lat="44.43807" lon="1.36437">
        <ele>132</ele>
        <time>2019-04-14T12:04:43Z</time>
      </trkpt>
      <trkpt lat="44.43806" lon="1.36443">
        <ele>133</ele>
        <time>2019-04-14T12:04:44Z</time>
      </trkpt>
      <trkpt lat="44.43806" lon="1.36448">
        <ele>133</ele>
        <time>2019-04-14T12:04:45Z</time>
      </trkpt>
      <trkpt lat="44.43804" lon="1.36455">
        <ele>133</ele>
        <time>2019-04-14T12:04:46Z</time>
      </trkpt>
      <trkpt lat="44.43803" lon="1.36458">
        <ele>133</ele>
        <time>2019-04-14T12:04:47Z</time>
      </trkpt>
      <trkpt lat="44.43801" lon="1.36464">
        <ele>133</ele>
        <time>2019-04-14T12:04:48Z</time>
      </trkpt>
      <trkpt lat="44.438" lon="1.36471">
        <ele>133</ele>
        <time>2019-04-14T12:04:49Z</time>
      </trkpt>
      <trkpt lat="44.43799" lon="1.36477">
        <ele>133</ele>
        <time>2019-04-14T12:04:50Z</time>
      </trkpt>
      <trkpt lat="44.43799" lon="1.36482">
        <ele>133</ele>
        <time>2019-04-14T12:04:51Z</time>
      </trkpt>
      <trkpt lat="44.43798" lon="1.36486">
        <ele>133</ele>
        <time>2019-04-14T12:04:52Z</time>
      </trkpt>
      <trkpt lat="44.43797" lon="1.36491">
        <ele>133</ele>
        <time>2019-04-14T12:04:53Z</time>
      </trkpt>
      <trkpt lat="44.43795" lon="1.36495">
        <ele>133</ele>
        <time>2019-04-14T12:04:54Z</time>
      </trkpt>
      <trkpt lat="44.43792" lon="1.36498">
        <ele>133</ele>
        <time>2019-04-14T12:04:55Z</time>
      </trkpt>
      <trkpt lat="44.43789" lon="1.36502">
        <ele>133</ele>
        <time>2019-04-14T12:04:56Z</time>
      </trkpt>
      <trkpt lat="44.43787" lon="1.36507">
        <ele>133</ele>
        <time>2019-04-14T12:04:57Z</time>
      </trkpt>
      <trkpt lat="44.43783" lon="1.36511">
        <ele>134</ele>
        <time>2019-04-14T12:04:58Z</time>
      </trkpt>
      <trkpt lat="44.4378" lon="1.36516">
        <ele>134</ele>
        <time>2019-04-14T12:04:59Z</time>
      </trkpt>
      <trkpt lat="44.43775" lon="1.36521">
        <ele>134</ele>
        <time>2019-04-14T12:05:00Z</time>
      </trkpt>
      <trkpt lat="44.43772" lon="1.36526">
        <ele>134</ele>
        <time>2019-04-14T12:05:01Z</time>
      </trkpt>
      <trkpt lat="44.43769" lon="1.36529">
        <ele>134</ele>
        <time>2019-04-14T12:05:02Z</time>
      </trkpt>
      <trkpt lat="44.43766" lon="1.36532">
        <ele>135</ele>
        <time>2019-04-14T12:05:03Z</time>
      </trkpt>
      <trkpt lat="44.43764" lon="1.36533">
        <ele>135</ele>
        <time>2019-04-14T12:05:04Z</time>
      </trkpt>
      <trkpt lat="44.43762" lon="1.36535">
        <ele>135</ele>
        <time>2019-04-14T12:05:05Z</time>
      </trkpt>
      <trkpt lat="44.43758" lon="1.36536">
        <ele>135</ele>
        <time>2019-04-14T12:05:06Z</time>
      </trkpt>
      <trkpt lat="44.43755" lon="1.36536">
        <ele>135</ele>
        <time>2019-04-14T12:05:07Z</time>
      </trkpt>
      <trkpt lat="44.43752" lon="1.36535">
        <ele>135</ele>
        <time>2019-04-14T12:05:08Z</time>
      </trkpt>
      <trkpt lat="44.43749" lon="1.36534">
        <ele>135</ele>
        <time>2019-04-14T12:05:09Z</time>
      </trkpt>
      <trkpt lat="44.43747" lon="1.36534">
        <ele>136</ele>
        <time>2019-04-14T12:05:10Z</time>
      </trkpt>
      <trkpt lat="44.43744" lon="1.36533">
        <ele>136</ele>
        <time>2019-04-14T12:05:11Z</time>
      </trkpt>
      <trkpt lat="44.43742" lon="1.36532">
        <ele>136</ele>
        <time>2019-04-14T12:05:12Z</time>
      </trkpt>
      <trkpt lat="44.4374" lon="1.36531">
        <ele>136</ele>
        <time>2019-04-14T12:05:13Z</time>
      </trkpt>
      <trkpt lat="44.43739" lon="1.3653">
        <ele>137</ele>
        <time>2019-04-14T12:05:14Z</time>
      </trkpt>
      <trkpt lat="44.43737" lon="1.36529">
        <ele>137</ele>
        <time>2019-04-14T12:05:15Z</time>
      </trkpt>
      <trkpt lat="44.43735" lon="1.36528">
        <ele>137</ele>
        <time>2019-04-14T12:05:16Z</time>
      </trkpt>
      <trkpt lat="44.43733" lon="1.36527">
        <ele>137</ele>
        <time>2019-04-14T12:05:17Z</time>
      </trkpt>
      <trkpt lat="44.43731" lon="1.36527">
        <ele>138</ele>
        <time>2019-04-14T12:05:18Z</time>
      </trkpt>
      <trkpt lat="44.43729" lon="1.36526">
        <ele>138</ele>
        <time>2019-04-14T12:05:19Z</time>
      </trkpt>
      <trkpt lat="44.43727" lon="1.36526">
        <ele>138</ele>
        <time>2019-04-14T12:05:20Z</time>
      </trkpt>
      <trkpt lat="44.43725" lon="1.36525">
        <ele>138</ele>
        <time>2019-04-14T12:05:21Z</time>
      </trkpt>
      <trkpt lat="44.43724" lon="1.36524">
        <ele>138</ele>
        <time>2019-04-14T12:05:22Z</time>
      </trkpt>
      <trkpt lat="44.43722" lon="1.36522">
        <ele>139</ele>
        <time>2019-04-14T12:05:23Z</time>
      </trkpt>
      <trkpt lat="44.4372" lon="1.36521">
        <ele>139</ele>
        <time>2019-04-14T12:05:24Z</time>
      </trkpt>
      <trkpt lat="44.43719" lon="1.3652">
        <ele>139</ele>
        <time>2019-04-14T12:05:25Z</time>
      </trkpt>
      <trkpt lat="44.43717" lon="1.36519">
        <ele>139</ele>
        <time>2019-04-14T12:05:26Z</time>
      </trkpt>
      <trkpt lat="44.43715" lon="1.36518">
        <ele>140</ele>
        <time>2019-04-14T12:05:27Z</time>
      </trkpt>
      <trkpt lat="44.43713" lon="1.36516">
        <ele>140</ele>
        <time>2019-04-14T12:05:28Z</time>
      </trkpt>
      <trkpt lat="44.43711" lon="1.36515">
        <ele>140</ele>
        <time>2019-04-14T12:05:29Z</time>
      </trkpt>
      <trkpt lat="44.43709" lon="1.36513">
        <ele>140</ele>
        <time>2019-04-14T12:05:30Z</time>
      </trkpt>
      <trkpt lat="44.43707" lon="1.36512">
        <ele>140</ele>
        <time>2019-04-14T12:05:31Z</time>
      </trkpt>
      <trkpt lat="44.43705" lon="1.36512">
        <ele>140</ele>
        <time>2019-04-14T12:05:32Z</time>
      </trkpt>
      <trkpt lat="44.43703" lon="1.36511">
        <ele>141</ele>
        <time>2019-04-14T12:05:33Z</time>
      </trkpt>
      <trkpt lat="44.43702" lon="1.3651">
        <ele>141</ele>
        <time>2019-04-14T12:05:34Z</time>
      </trkpt>
      <trkpt lat="44.437" lon="1.3651">
        <ele>141</ele>
        <time>2019-04-14T12:05:35Z</time>
      </trkpt>
      <trkpt lat="44.43697" lon="1.3651">
        <ele>141</ele>
        <time>2019-04-14T12:05:36Z</time>
      </trkpt>
      <trkpt lat="44.43695" lon="1.36509">
        <ele>141</ele>
        <time>2019-04-14T12:05:37Z</time>
      </trkpt>
      <trkpt lat="44.43693" lon="1.3651">
        <ele>141</ele>
        <time>2019-04-14T12:05:38Z</time>
      </trkpt>
      <trkpt lat="44.43691" lon="1.3651">
        <ele>140</ele>
        <time>2019-04-14T12:05:39Z</time>
      </trkpt>
      <trkpt lat="44.43688" lon="1.36511">
        <ele>140</ele>
        <time>2019-04-14T12:05:40Z</time>
      </trkpt>
      <trkpt lat="44.43685" lon="1.36512">
        <ele>140</ele>
        <time>2019-04-14T12:05:41Z</time>
      </trkpt>
      <trkpt lat="44.43681" lon="1.36516">
        <ele>139</ele>
        <time>2019-04-14T12:05:42Z</time>
      </trkpt>
      <trkpt lat="44.43678" lon="1.36521">
        <ele>139</ele>
        <time>2019-04-14T12:05:43Z</time>
      </trkpt>
      <trkpt lat="44.43676" lon="1.36526">
        <ele>139</ele>
        <time>2019-04-14T12:05:44Z</time>
      </trkpt>
      <trkpt lat="44.43676" lon="1.36529">
        <ele>139</ele>
        <time>2019-04-14T12:05:45Z</time>
      </trkpt>
      <trkpt lat="44.43675" lon="1.36531">
        <ele>139</ele>
        <time>2019-04-14T12:05:46Z</time>
      </trkpt>
      <trkpt lat="44.43674" lon="1.36534">
        <ele>139</ele>
        <time>2019-04-14T12:05:47Z</time>
      </trkpt>
      <trkpt lat="44.43672" lon="1.36538">
        <ele>139</ele>
        <time>2019-04-14T12:05:48Z</time>
      </trkpt>
      <trkpt lat="44.43672" lon="1.36541">
        <ele>139</ele>
        <time>2019-04-14T12:05:49Z</time>
      </trkpt>
      <trkpt lat="44.43672" lon="1.36544">
        <ele>139</ele>
        <time>2019-04-14T12:05:50Z</time>
      </trkpt>
      <trkpt lat="44.43672" lon="1.36546">
        <ele>139</ele>
        <time>2019-04-14T12:05:51Z</time>
      </trkpt>
      <trkpt lat="44.43673" lon="1.36548">
        <ele>139</ele>
        <time>2019-04-14T12:05:52Z</time>
      </trkpt>
      <trkpt lat="44.43674" lon="1.3655">
        <ele>139</ele>
        <time>2019-04-14T12:05:53Z</time>
      </trkpt>
      <trkpt lat="44.43675" lon="1.36552">
        <ele>139</ele>
        <time>2019-04-14T12:05:54Z</time>
      </trkpt>
      <trkpt lat="44.43675" lon="1.36556">
        <ele>139</ele>
        <time>2019-04-14T12:05:55Z</time>
      </trkpt>
      <trkpt lat="44.43676" lon="1.36559">
        <ele>139</ele>
        <time>2019-04-14T12:05:56Z</time>
      </trkpt>
      <trkpt lat="44.43677" lon="1.36562">
        <ele>139</ele>
        <time>2019-04-14T12:05:57Z</time>
      </trkpt>
      <trkpt lat="44.43678" lon="1.36565">
        <ele>138</ele>
        <time>2019-04-14T12:05:58Z</time>
      </trkpt>
      <trkpt lat="44.43679" lon="1.36567">
        <ele>138</ele>
        <time>2019-04-14T12:05:59Z</time>
      </trkpt>
      <trkpt lat="44.4368" lon="1.3657">
        <ele>138</ele>
        <time>2019-04-14T12:06:00Z</time>
      </trkpt>
      <trkpt lat="44.4368" lon="1.36574">
        <ele>138</ele>
        <time>2019-04-14T12:06:01Z</time>
      </trkpt>
      <trkpt lat="44.4368" lon="1.36579">
        <ele>138</ele>
        <time>2019-04-14T12:06:02Z</time>
      </trkpt>
      <trkpt lat="44.4368" lon="1.36583">
        <ele>138</ele>
        <time>2019-04-14T12:06:03Z</time>
      </trkpt>
      <trkpt lat="44.4368" lon="1.36588">
        <ele>138</ele>
        <time>2019-04-14T12:06:04Z</time>
      </trkpt>
      <trkpt lat="44.43678" lon="1.36593">
        <ele>137</ele>
        <time>2019-04-14T12:06:05Z</time>
      </trkpt>
      <trkpt lat="44.43676" lon="1.36599">
        <ele>137</ele>
        <time>2019-04-14T12:06:06Z</time>
      </trkpt>
      <trkpt lat="44.43673" lon="1.36603">
        <ele>137</ele>
        <time>2019-04-14T12:06:07Z</time>
      </trkpt>
      <trkpt lat="44.43671" lon="1.36608">
        <ele>137</ele>
        <time>2019-04-14T12:06:08Z</time>
      </trkpt>
      <trkpt lat="44.43668" lon="1.36613">
        <ele>137</ele>
        <time>2019-04-14T12:06:09Z</time>
      </trkpt>
      <trkpt lat="44.43665" lon="1.36616">
        <ele>137</ele>
        <time>2019-04-14T12:06:10Z</time>
      </trkpt>
      <trkpt lat="44.43663" lon="1.3662">
        <ele>137</ele>
        <time>2019-04-14T12:06:11Z</time>
      </trkpt>
      <trkpt lat="44.43661" lon="1.36624">
        <ele>137</ele>
        <time>2019-04-14T12:06:12Z</time>
      </trkpt>
      <trkpt lat="44.43658" lon="1.36628">
        <ele>137</ele>
        <time>2019-04-14T12:06:13Z</time>
      </trkpt>
      <trkpt lat="44.43655" lon="1.36632">
        <ele>137</ele>
        <time>2019-04-14T12:06:14Z</time>
      </trkpt>
      <trkpt lat="44.43653" lon="1.36636">
        <ele>136</ele>
        <time>2019-04-14T12:06:15Z</time>
      </trkpt>
      <trkpt lat="44.43652" lon="1.36639">
        <ele>136</ele>
        <time>2019-04-14T12:06:16Z</time>
      </trkpt>
      <trkpt lat="44.4365" lon="1.36642">
        <ele>136</ele>
        <time>2019-04-14T12:06:17Z</time>
      </trkpt>
      <trkpt lat="44.43648" lon="1.36646">
        <ele>136</ele>
        <time>2019-04-14T12:06:18Z</time>
      </trkpt>
      <trkpt lat="44.43645" lon="1.3665">
        <ele>136</ele>
        <time>2019-04-14T12:06:19Z</time>
      </trkpt>
      <trkpt lat="44.43643" lon="1.36654">
        <ele>136</ele>
        <time>2019-04-14T12:06:20Z</time>
      </trkpt>
      <trkpt lat="44.43641" lon="1.36657">
        <ele>136</ele>
        <time>2019-04-14T12:06:21Z</time>
      </trkpt>
      <trkpt lat="44.43638" lon="1.36661">
        <ele>136</ele>
        <time>2019-04-14T12:06:22Z</time>
      </trkpt>
      <trkpt lat="44.43636" lon="1.36664">
        <ele>136</ele>
        <time>2019-04-14T12:06:23Z</time>
      </trkpt>
      <trkpt lat="44.43635" lon="1.36667">
        <ele>136</ele>
        <time>2019-04-14T12:06:24Z</time>
      </trkpt>
      <trkpt lat="44.43634" lon="1.3667">
        <ele>136</ele>
        <time>2019-04-14T12:06:25Z</time>
      </trkpt>
      <trkpt lat="44.43633" lon="1.36672">
        <ele>136</ele>
        <time>2019-04-14T12:06:26Z</time>
      </trkpt>
      <trkpt lat="44.43633" lon="1.36675">
        <ele>136</ele>
        <time>2019-04-14T12:06:27Z</time>
      </trkpt>
      <trkpt lat="44.43632" lon="1.36677">
        <ele>137</ele>
        <time>2019-04-14T12:06:28Z</time>
      </trkpt>
      <trkpt lat="44.43631" lon="1.36679">
        <ele>137</ele>
        <time>2019-04-14T12:06:29Z</time>
      </trkpt>
      <trkpt lat="44.4363" lon="1.36681">
        <ele>137</ele>
        <time>2019-04-14T12:06:30Z</time>
      </trkpt>
      <trkpt lat="44.43629" lon="1.36683">
        <ele>137</ele>
        <time>2019-04-14T12:06:31Z</time>
      </trkpt>
      <trkpt lat="44.43627" lon="1.36686">
        <ele>137</ele>
        <time>2019-04-14T12:06:32Z</time>
      </trkpt>
      <trkpt lat="44.43626" lon="1.36688">
        <ele>137</ele>
        <time>2019-04-14T12:06:33Z</time>
      </trkpt>
      <trkpt lat="44.43625" lon="1.3669">
        <ele>137</ele>
        <time>2019-04-14T12:06:34Z</time>
      </trkpt>
      <trkpt lat="44.43625" lon="1.36693">
        <ele>137</ele>
        <time>2019-04-14T12:06:35Z</time>
      </trkpt>
      <trkpt lat="44.43624" lon="1.36695">
        <ele>137</ele>
        <time>2019-04-14T12:06:36Z</time>
      </trkpt>
      <trkpt lat="44.43623" lon="1.36697">
        <ele>137</ele>
        <time>2019-04-14T12:06:37Z</time>
      </trkpt>
      <trkpt lat="44.43622" lon="1.367">
        <ele>137</ele>
        <time>2019-04-14T12:06:38Z</time>
      </trkpt>
      <trkpt lat="44.43622" lon="1.36703">
        <ele>137</ele>
        <time>2019-04-14T12:06:39Z</time>
      </trkpt>
      <trkpt lat="44.43621" lon="1.36705">
        <ele>137</ele>
        <time>2019-04-14T12:06:40Z</time>
      </trkpt>
      <trkpt lat="44.43621" lon="1.36708">
        <ele>137</ele>
        <time>2019-04-14T12:06:41Z</time>
      </trkpt>
      <trkpt lat="44.4362" lon="1.36711">
        <ele>137</ele>
        <time>2019-04-14T12:06:42Z</time>
      </trkpt>
      <trkpt lat="44.43622" lon="1.36713">
        <ele>137</ele>
        <time>2019-04-14T12:06:43Z</time>
      </trkpt>
      <trkpt lat="44.43622" lon="1.36716">
        <ele>138</ele>
        <time>2019-04-14T12:06:44Z</time>
      </trkpt>
      <trkpt lat="44.43621" lon="1.36718">
        <ele>138</ele>
        <time>2019-04-14T12:06:45Z</time>
      </trkpt>
      <trkpt lat="44.4362" lon="1.36721">
        <ele>138</ele>
        <time>2019-04-14T12:06:46Z</time>
      </trkpt>
      <trkpt lat="44.43619" lon="1.36724">
        <ele>138</ele>
        <time>2019-04-14T12:06:47Z</time>
      </trkpt>
      <trkpt lat="44.43618" lon="1.36727">
        <ele>138</ele>
        <time>2019-04-14T12:06:48Z</time>
      </trkpt>
      <trkpt lat="44.43617" lon="1.36729">
        <ele>138</ele>
        <time>2019-04-14T12:06:49Z</time>
      </trkpt>
      <trkpt lat="44.43616" lon="1.36732">
        <ele>138</ele>
        <time>2019-04-14T12:06:50Z</time>
      </trkpt>
      <trkpt lat="44.43615" lon="1.36734">
        <ele>138</ele>
        <time>2019-04-14T12:06:51Z</time>
      </trkpt>
      <trkpt lat="44.43615" lon="1.36736">
        <ele>138</ele>
        <time>2019-04-14T12:06:52Z</time>
      </trkpt>
      <trkpt lat="44.43614" lon="1.36739">
        <ele>138</ele>
        <time>2019-04-14T12:06:53Z</time>
      </trkpt>
      <trkpt lat="44.43614" lon="1.36741">
        <ele>138</ele>
        <time>2019-04-14T12:06:54Z</time>
      </trkpt>
      <trkpt lat="44.43613" lon="1.36743">
        <ele>138</ele>
        <time>2019-04-14T12:06:55Z</time>
      </trkpt>
      <trkpt lat="44.43613" lon="1.36745">
        <ele>138</ele>
        <time>2019-04-14T12:06:56Z</time>
      </trkpt>
      <trkpt lat="44.43612" lon="1.36747">
        <ele>139</ele>
        <time>2019-04-14T12:06:57Z</time>
      </trkpt>
      <trkpt lat="44.43611" lon="1.3675">
        <ele>139</ele>
        <time>2019-04-14T12:06:58Z</time>
      </trkpt>
      <trkpt lat="44.43611" lon="1.36752">
        <ele>139</ele>
        <time>2019-04-14T12:06:59Z</time>
      </trkpt>
      <trkpt lat="44.4361" lon="1.36755">
        <ele>139</ele>
        <time>2019-04-14T12:07:00Z</time>
      </trkpt>
      <trkpt lat="44.4361" lon="1.36758">
        <ele>139</ele>
        <time>2019-04-14T12:07:01Z</time>
      </trkpt>
      <trkpt lat="44.43609" lon="1.3676">
        <ele>139</ele>
        <time>2019-04-14T12:07:02Z</time>
      </trkpt>
      <trkpt lat="44.43609" lon="1.36763">
        <ele>139</ele>
        <time>2019-04-14T12:07:03Z</time>
      </trkpt>
      <trkpt lat="44.43609" lon="1.36765">
        <ele>139</ele>
        <time>2019-04-14T12:07:04Z</time>
      </trkpt>
      <trkpt lat="44.43608" lon="1.36768">
        <ele>139</ele>
        <time>2019-04-14T12:07:05Z</time>
      </trkpt>
      <trkpt lat="44.43608" lon="1.36769">
        <ele>139</ele>
        <time>2019-04-14T12:07:06Z</time>
      </trkpt>
      <trkpt lat="44.43608" lon="1.36771">
        <ele>139</ele>
        <time>2019-04-14T12:07:07Z</time>
      </trkpt>
      <trkpt lat="44.43608" lon="1.36773">
        <ele>139</ele>
        <time>2019-04-14T12:07:08Z</time>
      </trkpt>
      <trkpt lat="44.43608" lon="1.36776">
        <ele>139</ele>
        <time>2019-04-14T12:07:09Z</time>
      </trkpt>
      <trkpt lat="44.43608" lon="1.36778">
        <ele>139</ele>
        <time>2019-04-14T12:07:10Z</time>
      </trkpt>
      <trkpt lat="44.43608" lon="1.36781">
        <ele>139</ele>
        <time>2019-04-14T12:07:11Z</time>
      </trkpt>
      <trkpt lat="44.43607" lon="1.36783">
        <ele>139</ele>
        <time>2019-04-14T12:07:12Z</time>
      </trkpt>
      <trkpt lat="44.43607" lon="1.36785">
        <ele>139</ele>
        <time>2019-04-14T12:07:13Z</time>
      </trkpt>
      <trkpt lat="44.43607" lon="1.36788">
        <ele>139</ele>
        <time>2019-04-14T12:07:14Z</time>
      </trkpt>
      <trkpt lat="44.43607" lon="1.3679">
        <ele>139</ele>
        <time>2019-04-14T12:07:15Z</time>
      </trkpt>
      <trkpt lat="44.43607" lon="1.36793">
        <ele>139</ele>
        <time>2019-04-14T12:07:16Z</time>
      </trkpt>
      <trkpt lat="44.43608" lon="1.36796">
        <ele>139</ele>
        <time>2019-04-14T12:07:17Z</time>
      </trkpt>
      <trkpt lat="44.43608" lon="1.36799">
        <ele>139</ele>
        <time>2019-04-14T12:07:18Z</time>
      </trkpt>
      <trkpt lat="44.43608" lon="1.36803">
        <ele>139</ele>
        <time>2019-04-14T12:07:19Z</time>
      </trkpt>
      <trkpt lat="44.43608" lon="1.36805">
        <ele>138</ele>
        <time>2019-04-14T12:07:20Z</time>
      </trkpt>
      <trkpt lat="44.43607" lon="1.36808">
        <ele>138</ele>
        <time>2019-04-14T12:07:21Z</time>
      </trkpt>
      <trkpt lat="44.43607" lon="1.36812">
        <ele>138</ele>
        <time>2019-04-14T12:07:22Z</time>
      </trkpt>
      <trkpt lat="44.43607" lon="1.36814">
        <ele>138</ele>
        <time>2019-04-14T12:07:23Z</time>
      </trkpt>
      <trkpt lat="44.43608" lon="1.36816">
        <ele>138</ele>
        <time>2019-04-14T12:07:24Z</time>
      </trkpt>
      <trkpt lat="44.43608" lon="1.3682">
        <ele>138</ele>
        <time>2019-04-14T12:07:25Z</time>
      </trkpt>
      <trkpt lat="44.43608" lon="1.36823">
        <ele>138</ele>
        <time>2019-04-14T12:07:26Z</time>
      </trkpt>
      <trkpt lat="44.43608" lon="1.36826">
        <ele>138</ele>
        <time>2019-04-14T12:07:27Z</time>
      </trkpt>
      <trkpt lat="44.43608" lon="1.36829">
        <ele>138</ele>
        <time>2019-04-14T12:07:28Z</time>
      </trkpt>
      <trkpt lat="44.43608" lon="1.36833">
        <ele>138</ele>
        <time>2019-04-14T12:07:29Z</time>
      </trkpt>
      <trkpt lat="44.43609" lon="1.36836">
        <ele>138</ele>
        <time>2019-04-14T12:07:30Z</time>
      </trkpt>
      <trkpt lat="44.43609" lon="1.3684">
        <ele>138</ele>
        <time>2019-04-14T12:07:31Z</time>
      </trkpt>
      <trkpt lat="44.43609" lon="1.36843">
        <ele>138</ele>
        <time>2019-04-14T12:07:32Z</time>
      </trkpt>
      <trkpt lat="44.43609" lon="1.36846">
        <ele>138</ele>
        <time>2019-04-14T12:07:33Z</time>
      </trkpt>
      <trkpt lat="44.43609" lon="1.36849">
        <ele>138</ele>
        <time>2019-04-14T12:07:34Z</time>
      </trkpt>
      <trkpt lat="44.4361" lon="1.36852">
        <ele>138</ele>
        <time>2019-04-14T12:07:35Z</time>
      </trkpt>
      <trkpt lat="44.43611" lon="1.36854">
        <ele>138</ele>
        <time>2019-04-14T12:07:36Z</time>
      </trkpt>
      <trkpt lat="44.43612" lon="1.36857">
        <ele>138</ele>
        <time>2019-04-14T12:07:37Z</time>
      </trkpt>
      <trkpt lat="44.43612" lon="1.36859">
        <ele>138</ele>
        <time>2019-04-14T12:07:38Z</time>
      </trkpt>
      <trkpt lat="44.43613" lon="1.36862">
        <ele>138</ele>
        <time>2019-04-14T12:07:39Z</time>
      </trkpt>
      <trkpt lat="44.43614" lon="1.36864">
        <ele>138</ele>
        <time>2019-04-14T12:07:40Z</time>
      </trkpt>
      <trkpt lat="44.43614" lon="1.36867">
        <ele>138</ele>
        <time>2019-04-14T12:07:41Z</time>
      </trkpt>
      <trkpt lat="44.43615" lon="1.36869">
        <ele>138</ele>
        <time>2019-04-14T12:07:42Z</time>
      </trkpt>
      <trkpt lat="44.43616" lon="1.36872">
        <ele>138</ele>
        <time>2019-04-14T12:07:43Z</time>
      </trkpt>
      <trkpt lat="44.43616" lon="1.36874">
        <ele>138</ele>
        <time>2019-04-14T12:07:44Z</time>
      </trkpt>
      <trkpt lat="44.43616" lon="1.36877">
        <ele>138</ele>
        <time>2019-04-14T12:07:45Z</time>
      </trkpt>
      <trkpt lat="44.43617" lon="1.3688">
        <ele>138</ele>
        <time>2019-04-14T12:07:46Z</time>
      </trkpt>
      <trkpt lat="44.43617" lon="1.36882">
        <ele>138</ele>
        <time>2019-04-14T12:07:47Z</time>
      </trkpt>
      <trkpt lat="44.43618" lon="1.36884">
        <ele>138</ele>
        <time>2019-04-14T12:07:48Z</time>
      </trkpt>
      <trkpt lat="44.43618" lon="1.36887">
        <ele>138</ele>
        <time>2019-04-14T12:07:49Z</time>
      </trkpt>
      <trkpt lat="44.43619" lon="1.36889">
        <ele>138</ele>
        <time>2019-04-14T12:07:50Z</time>
      </trkpt>
      <trkpt lat="44.43621" lon="1.36892">
        <ele>138</ele>
        <time>2019-04-14T12:07:51Z</time>
      </trkpt>
      <trkpt lat="44.43621" lon="1.36894">
        <ele>138</ele>
        <time>2019-04-14T12:07:52Z</time>
      </trkpt>
      <trkpt lat="44.43622" lon="1.36896">
        <ele>138</ele>
        <time>2019-04-14T12:07:53Z</time>
      </trkpt>
      <trkpt lat="44.43623" lon="1.36899">
        <ele>138</ele>
        <time>2019-04-14T12:07:54Z</time>
      </trkpt>
      <trkpt lat="44.43623" lon="1.36901">
        <ele>138</ele>
        <time>2019-04-14T12:07:55Z</time>
      </trkpt>
      <trkpt lat="44.43624" lon="1.36904">
        <ele>138</ele>
        <time>2019-04-14T12:07:56Z</time>
      </trkpt>
      <trkpt lat="44.43625" lon="1.36906">
        <ele>138</ele>
        <time>2019-04-14T12:07:57Z</time>
      </trkpt>
      <trkpt lat="44.43625" lon="1.36909">
        <ele>138</ele>
        <time>2019-04-14T12:07:58Z</time>
      </trkpt>
      <trkpt lat="44.43626" lon="1.36911">
        <ele>138</ele>
        <time>2019-04-14T12:07:59Z</time>
      </trkpt>
      <trkpt lat="44.43627" lon="1.36913">
        <ele>138</ele>
        <time>2019-04-14T12:08:00Z</time>
      </trkpt>
      <trkpt lat="44.43628" lon="1.36915">
        <ele>138</ele>
        <time>2019-04-14T12:08:01Z</time>
      </trkpt>
      <trkpt lat="44.43629" lon="1.36918">
        <ele>138</ele>
        <time>2019-04-14T12:08:02Z</time>
      </trkpt>
      <trkpt lat="44.4363" lon="1.3692">
        <ele>138</ele>
        <time>2019-04-14T12:08:03Z</time>
      </trkpt>
      <trkpt lat="44.43631" lon="1.36922">
        <ele>138</ele>
        <time>2019-04-14T12:08:04Z</time>
      </trkpt>
      <trkpt lat="44.43631" lon="1.36924">
        <ele>138</ele>
        <time>2019-04-14T12:08:05Z</time>
      </trkpt>
      <trkpt lat="44.43632" lon="1.36926">
        <ele>138</ele>
        <time>2019-04-14T12:08:06Z</time>
      </trkpt>
      <trkpt lat="44.43632" lon="1.36928">
        <ele>138</ele>
        <time>2019-04-14T12:08:07Z</time>
      </trkpt>
      <trkpt lat="44.43633" lon="1.3693">
        <ele>138</ele>
        <time>2019-04-14T12:08:08Z</time>
      </trkpt>
      <trkpt lat="44.43633" lon="1.36931">
        <ele>138</ele>
        <time>2019-04-14T12:08:09Z</time>
      </trkpt>
      <trkpt lat="44.43634" lon="1.36932">
        <ele>138</ele>
        <time>2019-04-14T12:08:10Z</time>
      </trkpt>
      <trkpt lat="44.43634" lon="1.36933">
        <ele>138</ele>
        <time>2019-04-14T12:08:11Z</time>
      </trkpt>
      <trkpt lat="44.43635" lon="1.36934">
        <ele>138</ele>
        <time>2019-04-14T12:08:12Z</time>
      </trkpt>
      <trkpt lat="44.43635" lon="1.36935">
        <ele>138</ele>
        <time>2019-04-14T12:08:13Z</time>
      </trkpt>
      <trkpt lat="44.43636" lon="1.36937">
        <ele>138</ele>
        <time>2019-04-14T12:08:14Z</time>
      </trkpt>
      <trkpt lat="44.43636" lon="1.36938">
        <ele>139</ele>
        <time>2019-04-14T12:08:15Z</time>
      </trkpt>
      <trkpt lat="44.43638" lon="1.3694">
        <ele>139</ele>
        <time>2019-04-14T12:08:16Z</time>
      </trkpt>
      <trkpt lat="44.43639" lon="1.36941">
        <ele>139</ele>
        <time>2019-04-14T12:08:17Z</time>
      </trkpt>
      <trkpt lat="44.4364" lon="1.36943">
        <ele>139</ele>
        <time>2019-04-14T12:08:18Z</time>
      </trkpt>
      <trkpt lat="44.4364" lon="1.36945">
        <ele>139</ele>
        <time>2019-04-14T12:08:19Z</time>
      </trkpt>
      <trkpt lat="44.4364" lon="1.36947">
        <ele>139</ele>
        <time>2019-04-14T12:08:20Z</time>
      </trkpt>
      <trkpt lat="44.4364" lon="1.36949">
        <ele>139</ele>
        <time>2019-04-14T12:08:21Z</time>
      </trkpt>
      <trkpt lat="44.43641" lon="1.3695">
        <ele>139</ele>
        <time>2019-04-14T12:08:22Z</time>
      </trkpt>
      <trkpt lat="44.43642" lon="1.36951">
        <ele>139</ele>
        <time>2019-04-14T12:08:23Z</time>
      </trkpt>
      <trkpt lat="44.43643" lon="1.36953">
        <ele>139</ele>
        <time>2019-04-14T12:08:24Z</time>
      </trkpt>
      <trkpt lat="44.43643" lon="1.36955">
        <ele>139</ele>
        <time>2019-04-14T12:08:25Z</time>
      </trkpt>
      <trkpt lat="44.43643" lon="1.36957">
        <ele>139</ele>
        <time>2019-04-14T12:08:26Z</time>
      </trkpt>
      <trkpt lat="44.43644" lon="1.36959">
        <ele>139</ele>
        <time>2019-04-14T12:08:27Z</time>
      </trkpt>
      <trkpt lat="44.43645" lon="1.36961">
        <ele>139</ele>
        <time>2019-04-14T12:08:28Z</time>
      </trkpt>
      <trkpt lat="44.43646" lon="1.36963">
        <ele>139</ele>
        <time>2019-04-14T12:08:29Z</time>
      </trkpt>
      <trkpt lat="44.43646" lon="1.36965">
        <ele>139</ele>
        <time>2019-04-14T12:08:30Z</time>
      </trkpt>
      <trkpt lat="44.43647" lon="1.36967">
        <ele>139</ele>
        <time>2019-04-14T12:08:31Z</time>
      </trkpt>
      <trkpt lat="44.43647" lon="1.3697">
        <ele>139</ele>
        <time>2019-04-14T12:08:32Z</time>
      </trkpt>
      <trkpt lat="44.43648" lon="1.36972">
        <ele>139</ele>
        <time>2019-04-14T12:08:33Z</time>
      </trkpt>
      <trkpt lat="44.43648" lon="1.36974">
        <ele>139</ele>
        <time>2019-04-14T12:08:34Z</time>
      </trkpt>
      <trkpt lat="44.43648" lon="1.36977">
        <ele>140</ele>
        <time>2019-04-14T12:08:35Z</time>
      </trkpt>
      <trkpt lat="44.43648" lon="1.36979">
        <ele>140</ele>
        <time>2019-04-14T12:08:36Z</time>
      </trkpt>
      <trkpt lat="44.43648" lon="1.36981">
        <ele>140</ele>
        <time>2019-04-14T12:08:37Z</time>
      </trkpt>
      <trkpt lat="44.43648" lon="1.36983">
        <ele>140</ele>
        <time>2019-04-14T12:08:38Z</time>
      </trkpt>
      <trkpt lat="44.43648" lon="1.36986">
        <ele>140</ele>
        <time>2019-04-14T12:08:39Z</time>
      </trkpt>
      <trkpt lat="44.43649" lon="1.36988">
        <ele>140</ele>
        <time>2019-04-14T12:08:40Z</time>
      </trkpt>
      <trkpt lat="44.43649" lon="1.3699">
        <ele>140</ele>
        <time>2019-04-14T12:08:41Z</time>
      </trkpt>
      <trkpt lat="44.43649" lon="1.36992">
        <ele>140</ele>
        <time>2019-04-14T12:08:42Z</time>
      </trkpt>
      <trkpt lat="44.43648" lon="1.36994">
        <ele>140</ele>
        <time>2019-04-14T12:08:43Z</time>
      </trkpt>
      <trkpt lat="44.43648" lon="1.36996">
        <ele>140</ele>
        <time>2019-04-14T12:08:44Z</time>
      </trkpt>
      <trkpt lat="44.43649" lon="1.36997">
        <ele>140</ele>
        <time>2019-04-14T12:08:45Z</time>
      </trkpt>
      <trkpt lat="44.43649" lon="1.36999">
        <ele>140</ele>
        <time>2019-04-14T12:08:46Z</time>
      </trkpt>
      <trkpt lat="44.43648" lon="1.37001">
        <ele>140</ele>
        <time>2019-04-14T12:08:47Z</time>
      </trkpt>
      <trkpt lat="44.43648" lon="1.37003">
        <ele>140</ele>
        <time>2019-04-14T12:08:48Z</time>
      </trkpt>
      <trkpt lat="44.43647" lon="1.37006">
        <ele>140</ele>
        <time>2019-04-14T12:08:49Z</time>
      </trkpt>
      <trkpt lat="44.43647" lon="1.37008">
        <ele>140</ele>
        <time>2019-04-14T12:08:50Z</time>
      </trkpt>
      <trkpt lat="44.43647" lon="1.37011">
        <ele>140</ele>
        <time>2019-04-14T12:08:51Z</time>
      </trkpt>
      <trkpt lat="44.43646" lon="1.37013">
        <ele>140</ele>
        <time>2019-04-14T12:08:52Z</time>
      </trkpt>
      <trkpt lat="44.43646" lon="1.37015">
        <ele>140</ele>
        <time>2019-04-14T12:08:53Z</time>
      </trkpt>
      <trkpt lat="44.43645" lon="1.37018">
        <ele>140</ele>
        <time>2019-04-14T12:08:54Z</time>
      </trkpt>
      <trkpt lat="44.43645" lon="1.37021">
        <ele>140</ele>
        <time>2019-04-14T12:08:55Z</time>
      </trkpt>
      <trkpt lat="44.43644" lon="1.37023">
        <ele>140</ele>
        <time>2019-04-14T12:08:56Z</time>
      </trkpt>
      <trkpt lat="44.43644" lon="1.37026">
        <ele>141</ele>
        <time>2019-04-14T12:08:57Z</time>
      </trkpt>
      <trkpt lat="44.43643" lon="1.37028">
        <ele>141</ele>
        <time>2019-04-14T12:08:58Z</time>
      </trkpt>
      <trkpt lat="44.43642" lon="1.3703">
        <ele>141</ele>
        <time>2019-04-14T12:08:59Z</time>
      </trkpt>
      <trkpt lat="44.43642" lon="1.37031">
        <ele>141</ele>
        <time>2019-04-14T12:09:00Z</time>
      </trkpt>
      <trkpt lat="44.43642" lon="1.37033">
        <ele>141</ele>
        <time>2019-04-14T12:09:01Z</time>
      </trkpt>
      <trkpt lat="44.43642" lon="1.37035">
        <ele>141</ele>
        <time>2019-04-14T12:09:02Z</time>
      </trkpt>
      <trkpt lat="44.43642" lon="1.37038">
        <ele>141</ele>
        <time>2019-04-14T12:09:03Z</time>
      </trkpt>
      <trkpt lat="44.43641" lon="1.3704">
        <ele>141</ele>
        <time>2019-04-14T12:09:04Z</time>
      </trkpt>
      <trkpt lat="44.43641" lon="1.37042">
        <ele>141</ele>
        <time>2019-04-14T12:09:05Z</time>
      </trkpt>
      <trkpt lat="44.4364" lon="1.37045">
        <ele>141</ele>
        <time>2019-04-14T12:09:06Z</time>
      </trkpt>
      <trkpt lat="44.4364" lon="1.37047">
        <ele>141</ele>
        <time>2019-04-14T12:09:07Z</time>
      </trkpt>
      <trkpt lat="44.43639" lon="1.37049">
        <ele>141</ele>
        <time>2019-04-14T12:09:08Z</time>
      </trkpt>
      <trkpt lat="44.43639" lon="1.37052">
        <ele>141</ele>
        <time>2019-04-14T12:09:09Z</time>
      </trkpt>
      <trkpt lat="44.43638" lon="1.37054">
        <ele>141</ele>
        <time>2019-04-14T12:09:10Z</time>
      </trkpt>
      <trkpt lat="44.43637" lon="1.37056">
        <ele>141</ele>
        <time>2019-04-14T12:09:11Z</time>
      </trkpt>
      <trkpt lat="44.43636" lon="1.37058">
        <ele>142</ele>
        <time>2019-04-14T12:09:12Z</time>
      </trkpt>
      <trkpt lat="44.43636" lon="1.37061">
        <ele>142</ele>
        <time>2019-04-14T12:09:13Z</time>
      </trkpt>
      <trkpt lat="44.43636" lon="1.37064">
        <ele>142</ele>
        <time>2019-04-14T12:09:14Z</time>
      </trkpt>
      <trkpt lat="44.43635" lon="1.37066">
        <ele>142</ele>
        <time>2019-04-14T12:09:15Z</time>
      </trkpt>
      <trkpt lat="44.43635" lon="1.37069">
        <ele>142</ele>
        <time>2019-04-14T12:09:16Z</time>
      </trkpt>
      <trkpt lat="44.43634" lon="1.37071">
        <ele>142</ele>
        <time>2019-04-14T12:09:17Z</time>
      </trkpt>
      <trkpt lat="44.43634" lon="1.37073">
        <ele>142</ele>
        <time>2019-04-14T12:09:18Z</time>
      </trkpt>
      <trkpt lat="44.43633" lon="1.37075">
        <ele>142</ele>
        <time>2019-04-14T12:09:19Z</time>
      </trkpt>
      <trkpt lat="44.43633" lon="1.37077">
        <ele>142</ele>
        <time>2019-04-14T12:09:20Z</time>
      </trkpt>
      <trkpt lat="44.43632" lon="1.37079">
        <ele>142</ele>
        <time>2019-04-14T12:09:21Z</time>
      </trkpt>
      <trkpt lat="44.43631" lon="1.37082">
        <ele>142</ele>
        <time>2019-04-14T12:09:22Z</time>
      </trkpt>
      <trkpt lat="44.43631" lon="1.37084">
        <ele>142</ele>
        <time>2019-04-14T12:09:23Z</time>
      </trkpt>
      <trkpt lat="44.4363" lon="1.37086">
        <ele>142</ele>
        <time>2019-04-14T12:09:24Z</time>
      </trkpt>
      <trkpt lat="44.4363" lon="1.37088">
        <ele>142</ele>
        <time>2019-04-14T12:09:25Z</time>
      </trkpt>
      <trkpt lat="44.4363" lon="1.3709">
        <ele>142</ele>
        <time>2019-04-14T12:09:26Z</time>
      </trkpt>
      <trkpt lat="44.43629" lon="1.37091">
        <ele>142</ele>
        <time>2019-04-14T12:09:27Z</time>
      </trkpt>
      <trkpt lat="44.43629" lon="1.37093">
        <ele>142</ele>
        <time>2019-04-14T12:09:28Z</time>
      </trkpt>
      <trkpt lat="44.43628" lon="1.37095">
        <ele>142</ele>
        <time>2019-04-14T12:09:29Z</time>
      </trkpt>
      <trkpt lat="44.43627" lon="1.37097">
        <ele>142</ele>
        <time>2019-04-14T12:09:30Z</time>
      </trkpt>
      <trkpt lat="44.43626" lon="1.37099">
        <ele>142</ele>
        <time>2019-04-14T12:09:31Z</time>
      </trkpt>
      <trkpt lat="44.43625" lon="1.37101">
        <ele>142</ele>
        <time>2019-04-14T12:09:32Z</time>
      </trkpt>
      <trkpt lat="44.43624" lon="1.37103">
        <ele>142</ele>
        <time>2019-04-14T12:09:33Z</time>
      </trkpt>
      <trkpt lat="44.43624" lon="1.37105">
        <ele>142</ele>
        <time>2019-04-14T12:09:34Z</time>
      </trkpt>
      <trkpt lat="44.43624" lon="1.37107">
        <ele>142</ele>
        <time>2019-04-14T12:09:35Z</time>
      </trkpt>
      <trkpt lat="44.43623" lon="1.37108">
        <ele>143</ele>
        <time>2019-04-14T12:09:36Z</time>
      </trkpt>
      <trkpt lat="44.43622" lon="1.37109">
        <ele>143</ele>
        <time>2019-04-14T12:09:37Z</time>
      </trkpt>
      <trkpt lat="44.43621" lon="1.37111">
        <ele>143</ele>
        <time>2019-04-14T12:09:38Z</time>
      </trkpt>
      <trkpt lat="44.43621" lon="1.37113">
        <ele>143</ele>
        <time>2019-04-14T12:09:39Z</time>
      </trkpt>
      <trkpt lat="44.4362" lon="1.37115">
        <ele>143</ele>
        <time>2019-04-14T12:09:40Z</time>
      </trkpt>
      <trkpt lat="44.43619" lon="1.37116">
        <ele>143</ele>
        <time>2019-04-14T12:09:41Z</time>
      </trkpt>
      <trkpt lat="44.43618" lon="1.37118">
        <ele>143</ele>
        <time>2019-04-14T12:09:42Z</time>
      </trkpt>
      <trkpt lat="44.43618" lon="1.3712">
        <ele>143</ele>
        <time>2019-04-14T12:09:43Z</time>
      </trkpt>
      <trkpt lat="44.43617" lon="1.37121">
        <ele>143</ele>
        <time>2019-04-14T12:09:44Z</time>
      </trkpt>
      <trkpt lat="44.43617" lon="1.37123">
        <ele>143</ele>
        <time>2019-04-14T12:09:45Z</time>
      </trkpt>
      <trkpt lat="44.43617" lon="1.37125">
        <ele>143</ele>
        <time>2019-04-14T12:09:46Z</time>
      </trkpt>
      <trkpt lat="44.43616" lon="1.37127">
        <ele>143</ele>
        <time>2019-04-14T12:09:47Z</time>
      </trkpt>
      <trkpt lat="44.43615" lon="1.37129">
        <ele>143</ele>
        <time>2019-04-14T12:09:48Z</time>
      </trkpt>
      <trkpt lat="44.43615" lon="1.37131">
        <ele>143</ele>
        <time>2019-04-14T12:09:49Z</time>
      </trkpt>
      <trkpt lat="44.43614" lon="1.37133">
        <ele>143</ele>
        <time>2019-04-14T12:09:50Z</time>
      </trkpt>
      <trkpt lat="44.43613" lon="1.37135">
        <ele>143</ele>
        <time>2019-04-14T12:09:51Z</time>
      </trkpt>
      <trkpt lat="44.43613" lon="1.37137">
        <ele>143</ele>
        <time>2019-04-14T12:09:52Z</time>
      </trkpt>
      <trkpt lat="44.43613" lon="1.37139">
        <ele>143</ele>
        <time>2019-04-14T12:09:53Z</time>
      </trkpt>
      <trkpt lat="44.43612" lon="1.37141">
        <ele>143</ele>
        <time>2019-04-14T12:09:54Z</time>
      </trkpt>
      <trkpt lat="44.43613" lon="1.37143">
        <ele>143</ele>
        <time>2019-04-14T12:09:55Z</time>
      </trkpt>
      <trkpt lat="44.43612" lon="1.37145">
        <ele>143</ele>
        <time>2019-04-14T12:09:56Z</time>
      </trkpt>
      <trkpt lat="44.43612" lon="1.37147">
        <ele>144</ele>
        <time>2019-04-14T12:09:57Z</time>
      </trkpt>
      <trkpt lat="44.4361" lon="1.37149">
        <ele>144</ele>
        <time>2019-04-14T12:09:58Z</time>
      </trkpt>
      <trkpt lat="44.43609" lon="1.37152">
        <ele>144</ele>
        <time>2019-04-14T12:09:59Z</time>
      </trkpt>
      <trkpt lat="44.43608" lon="1.37153">
        <ele>144</ele>
        <time>2019-04-14T12:10:00Z</time>
      </trkpt>
      <trkpt lat="44.43607" lon="1.37155">
        <ele>144</ele>
        <time>2019-04-14T12:10:01Z</time>
      </trkpt>
      <trkpt lat="44.43607" lon="1.37156">
        <ele>144</ele>
        <time>2019-04-14T12:10:02Z</time>
      </trkpt>
      <trkpt lat="44.43607" lon="1.37158">
        <ele>144</ele>
        <time>2019-04-14T12:10:03Z</time>
      </trkpt>
      <trkpt lat="44.43606" lon="1.37159">
        <ele>144</ele>
        <time>2019-04-14T12:10:04Z</time>
      </trkpt>
      <trkpt lat="44.43606" lon="1.3716">
        <ele>144</ele>
        <time>2019-04-14T12:10:05Z</time>
      </trkpt>
      <trkpt lat="44.43605" lon="1.37163">
        <ele>144</ele>
        <time>2019-04-14T12:10:06Z</time>
      </trkpt>
      <trkpt lat="44.43604" lon="1.37165">
        <ele>144</ele>
        <time>2019-04-14T12:10:07Z</time>
      </trkpt>
      <trkpt lat="44.43604" lon="1.37167">
        <ele>144</ele>
        <time>2019-04-14T12:10:08Z</time>
      </trkpt>
      <trkpt lat="44.43603" lon="1.37169">
        <ele>144</ele>
        <time>2019-04-14T12:10:09Z</time>
      </trkpt>
      <trkpt lat="44.43603" lon="1.37172">
        <ele>144</ele>
        <time>2019-04-14T12:10:10Z</time>
      </trkpt>
      <trkpt lat="44.43602" lon="1.37175">
        <ele>144</ele>
        <time>2019-04-14T12:10:11Z</time>
      </trkpt>
      <trkpt lat="44.43601" lon="1.37177">
        <ele>144</ele>
        <time>2019-04-14T12:10:12Z</time>
      </trkpt>
      <trkpt lat="44.436" lon="1.37179">
        <ele>144</ele>
        <time>2019-04-14T12:10:13Z</time>
      </trkpt>
      <trkpt lat="44.43599" lon="1.37181">
        <ele>144</ele>
        <time>2019-04-14T12:10:14Z</time>
      </trkpt>
      <trkpt lat="44.43598" lon="1.37184">
        <ele>144</ele>
        <time>2019-04-14T12:10:15Z</time>
      </trkpt>
      <trkpt lat="44.43597" lon="1.37187">
        <ele>144</ele>
        <time>2019-04-14T12:10:16Z</time>
      </trkpt>
      <trkpt lat="44.43596" lon="1.37189">
        <ele>144</ele>
        <time>2019-04-14T12:10:17Z</time>
      </trkpt>
      <trkpt lat="44.43596" lon="1.37191">
        <ele>144</ele>
        <time>2019-04-14T12:10:18Z</time>
      </trkpt>
      <trkpt lat="44.43596" lon="1.37194">
        <ele>144</ele>
        <time>2019-04-14T12:10:19Z</time>
      </trkpt>
      <trkpt lat="44.43595" lon="1.37197">
        <ele>144</ele>
        <time>2019-04-14T12:10:20Z</time>
      </trkpt>
      <trkpt lat="44.43595" lon="1.37199">
        <ele>144</ele>
        <time>2019-04-14T12:10:21Z</time>
      </trkpt>
      <trkpt lat="44.43595" lon="1.37201">
        <ele>144</ele>
        <time>2019-04-14T12:10:22Z</time>
      </trkpt>
      <trkpt lat="44.43594" lon="1.37202">
        <ele>144</ele>
        <time>2019-04-14T12:10:23Z</time>
      </trkpt>
      <trkpt lat="44.43594" lon="1.37204">
        <ele>144</ele>
        <time>2019-04-14T12:10:24Z</time>
      </trkpt>
      <trkpt lat="44.43594" lon="1.37207">
        <ele>144</ele>
        <time>2019-04-14T12:10:25Z</time>
      </trkpt>
      <trkpt lat="44.43595" lon="1.3721">
        <ele>144</ele>
        <time>2019-04-14T12:10:26Z</time>
      </trkpt>
      <trkpt lat="44.43594" lon="1.37212">
        <ele>144</ele>
        <time>2019-04-14T12:10:27Z</time>
      </trkpt>
      <trkpt lat="44.43594" lon="1.37215">
        <ele>144</ele>
        <time>2019-04-14T12:10:28Z</time>
      </trkpt>
      <trkpt lat="44.43592" lon="1.37217">
        <ele>144</ele>
        <time>2019-04-14T12:10:29Z</time>
      </trkpt>
      <trkpt lat="44.43591" lon="1.37218">
        <ele>144</ele>
        <time>2019-04-14T12:10:30Z</time>
      </trkpt>
      <trkpt lat="44.43591" lon="1.3722">
        <ele>144</ele>
        <time>2019-04-14T12:10:31Z</time>
      </trkpt>
      <trkpt lat="44.4359" lon="1.37222">
        <ele>144</ele>
        <time>2019-04-14T12:10:32Z</time>
      </trkpt>
      <trkpt lat="44.43589" lon="1.37223">
        <ele>144</ele>
        <time>2019-04-14T12:10:33Z</time>
      </trkpt>
      <trkpt lat="44.43588" lon="1.37226">
        <ele>144</ele>
        <time>2019-04-14T12:10:34Z</time>
      </trkpt>
      <trkpt lat="44.43588" lon="1.37228">
        <ele>144</ele>
        <time>2019-04-14T12:10:35Z</time>
      </trkpt>
      <trkpt lat="44.43587" lon="1.3723">
        <ele>144</ele>
        <time>2019-04-14T12:10:36Z</time>
      </trkpt>
      <trkpt lat="44.43586" lon="1.37232">
        <ele>144</ele>
        <time>2019-04-14T12:10:37Z</time>
      </trkpt>
      <trkpt lat="44.43585" lon="1.37234">
        <ele>144</ele>
        <time>2019-04-14T12:10:38Z</time>
      </trkpt>
      <trkpt lat="44.43584" lon="1.37236">
        <ele>144</ele>
        <time>2019-04-14T12:10:39Z</time>
      </trkpt>
      <trkpt lat="44.43582" lon="1.37237">
        <ele>144</ele>
        <time>2019-04-14T12:10:40Z</time>
      </trkpt>
      <trkpt lat="44.43581" lon="1.37239">
        <ele>144</ele>
        <time>2019-04-14T12:10:41Z</time>
      </trkpt>
      <trkpt lat="44.43581" lon="1.3724">
        <ele>144</ele>
        <time>2019-04-14T12:10:42Z</time>
      </trkpt>
      <trkpt lat="44.4358" lon="1.37241">
        <ele>144</ele>
        <time>2019-04-14T12:10:43Z</time>
      </trkpt>
      <trkpt lat="44.4358" lon="1.37243">
        <ele>144</ele>
        <time>2019-04-14T12:10:44Z</time>
      </trkpt>
      <trkpt lat="44.4358" lon="1.37244">
        <ele>144</ele>
        <time>2019-04-14T12:10:45Z</time>
      </trkpt>
      <trkpt lat="44.43582" lon="1.37246">
        <ele>144</ele>
        <time>2019-04-14T12:10:46Z</time>
      </trkpt>
      <trkpt lat="44.43583" lon="1.37245">
        <ele>144</ele>
        <time>2019-04-14T12:10:47Z</time>
      </trkpt>
      <trkpt lat="44.43583" lon="1.37244">
        <ele>144</ele>
        <time>2019-04-14T12:10:48Z</time>
      </trkpt>
      <trkpt lat="44.43583" lon="1.37242">
        <ele>144</ele>
        <time>2019-04-14T12:10:49Z</time>
      </trkpt>
      <trkpt lat="44.43583" lon="1.37241">
        <ele>144</ele>
        <time>2019-04-14T12:10:50Z</time>
      </trkpt>
      <trkpt lat="44.43584" lon="1.37239">
        <ele>144</ele>
        <time>2019-04-14T12:10:51Z</time>
      </trkpt>
      <trkpt lat="44.43584" lon="1.37236">
        <ele>144</ele>
        <time>2019-04-14T12:10:52Z</time>
      </trkpt>
      <trkpt lat="44.43585" lon="1.37234">
        <ele>144</ele>
        <time>2019-04-14T12:10:53Z</time>
      </trkpt>
      <trkpt lat="44.43585" lon="1.37231">
        <ele>144</ele>
        <time>2019-04-14T12:10:54Z</time>
      </trkpt>
      <trkpt lat="44.43586" lon="1.37229">
        <ele>144</ele>
        <time>2019-04-14T12:10:55Z</time>
      </trkpt>
      <trkpt lat="44.43587" lon="1.37227">
        <ele>144</ele>
        <time>2019-04-14T12:10:56Z</time>
      </trkpt>
      <trkpt lat="44.43588" lon="1.37224">
        <ele>144</ele>
        <time>2019-04-14T12:10:57Z</time>
      </trkpt>
      <trkpt lat="44.43589" lon="1.37222">
        <ele>144</ele>
        <time>2019-04-14T12:10:58Z</time>
      </trkpt>
      <trkpt lat="44.4359" lon="1.37219">
        <ele>144</ele>
        <time>2019-04-14T12:10:59Z</time>
      </trkpt>
      <trkpt lat="44.4359" lon="1.37217">
        <ele>144</ele>
        <time>2019-04-14T12:11:00Z</time>
      </trkpt>
      <trkpt lat="44.43591" lon="1.37215">
        <ele>144</ele>
        <time>2019-04-14T12:11:01Z</time>
      </trkpt>
      <trkpt lat="44.43592" lon="1.37213">
        <ele>144</ele>
        <time>2019-04-14T12:11:02Z</time>
      </trkpt>
      <trkpt lat="44.43593" lon="1.37211">
        <ele>144</ele>
        <time>2019-04-14T12:11:03Z</time>
      </trkpt>
      <trkpt lat="44.43594" lon="1.3721">
        <ele>144</ele>
        <time>2019-04-14T12:11:04Z</time>
      </trkpt>
      <trkpt lat="44.43595" lon="1.37209">
        <ele>144</ele>
        <time>2019-04-14T12:11:05Z</time>
      </trkpt>
      <trkpt lat="44.43595" lon="1.37206">
        <ele>144</ele>
        <time>2019-04-14T12:11:06Z</time>
      </trkpt>
      <trkpt lat="44.43596" lon="1.37203">
        <ele>144</ele>
        <time>2019-04-14T12:11:07Z</time>
      </trkpt>
      <trkpt lat="44.43597" lon="1.372">
        <ele>144</ele>
        <time>2019-04-14T12:11:08Z</time>
      </trkpt>
      <trkpt lat="44.43598" lon="1.37197">
        <ele>144</ele>
        <time>2019-04-14T12:11:09Z</time>
      </trkpt>
      <trkpt lat="44.43598" lon="1.37195">
        <ele>144</ele>
        <time>2019-04-14T12:11:10Z</time>
      </trkpt>
      <trkpt lat="44.43599" lon="1.37193">
        <ele>144</ele>
        <time>2019-04-14T12:11:11Z</time>
      </trkpt>
      <trkpt lat="44.43599" lon="1.37191">
        <ele>144</ele>
        <time>2019-04-14T12:11:12Z</time>
      </trkpt>
      <trkpt lat="44.436" lon="1.3719">
        <ele>144</ele>
        <time>2019-04-14T12:11:13Z</time>
      </trkpt>
      <trkpt lat="44.43601" lon="1.37188">
        <ele>144</ele>
        <time>2019-04-14T12:11:14Z</time>
      </trkpt>
      <trkpt lat="44.43602" lon="1.37186">
        <ele>144</ele>
        <time>2019-04-14T12:11:15Z</time>
      </trkpt>
      <trkpt lat="44.43603" lon="1.37183">
        <ele>144</ele>
        <time>2019-04-14T12:11:16Z</time>
      </trkpt>
      <trkpt lat="44.43603" lon="1.3718">
        <ele>144</ele>
        <time>2019-04-14T12:11:17Z</time>
      </trkpt>
      <trkpt lat="44.43605" lon="1.37178">
        <ele>144</ele>
        <time>2019-04-14T12:11:18Z</time>
      </trkpt>
      <trkpt lat="44.43606" lon="1.37176">
        <ele>144</ele>
        <time>2019-04-14T12:11:19Z</time>
      </trkpt>
      <trkpt lat="44.43607" lon="1.37173">
        <ele>144</ele>
        <time>2019-04-14T12:11:20Z</time>
      </trkpt>
      <trkpt lat="44.43608" lon="1.37169">
        <ele>144</ele>
        <time>2019-04-14T12:11:21Z</time>
      </trkpt>
      <trkpt lat="44.43608" lon="1.37165">
        <ele>144</ele>
        <time>2019-04-14T12:11:22Z</time>
      </trkpt>
      <trkpt lat="44.4361" lon="1.37161">
        <ele>144</ele>
        <time>2019-04-14T12:11:23Z</time>
      </trkpt>
      <trkpt lat="44.43611" lon="1.37157">
        <ele>144</ele>
        <time>2019-04-14T12:11:24Z</time>
      </trkpt>
      <trkpt lat="44.43613" lon="1.37153">
        <ele>143</ele>
        <time>2019-04-14T12:11:25Z</time>
      </trkpt>
      <trkpt lat="44.43615" lon="1.37149">
        <ele>143</ele>
        <time>2019-04-14T12:11:26Z</time>
      </trkpt>
      <trkpt lat="44.43617" lon="1.37145">
        <ele>143</ele>
        <time>2019-04-14T12:11:27Z</time>
      </trkpt>
      <trkpt lat="44.43618" lon="1.37142">
        <ele>143</ele>
        <time>2019-04-14T12:11:28Z</time>
      </trkpt>
      <trkpt lat="44.4362" lon="1.37137">
        <ele>143</ele>
        <time>2019-04-14T12:11:29Z</time>
      </trkpt>
      <trkpt lat="44.43622" lon="1.37132">
        <ele>143</ele>
        <time>2019-04-14T12:11:30Z</time>
      </trkpt>
      <trkpt lat="44.43624" lon="1.37127">
        <ele>143</ele>
        <time>2019-04-14T12:11:31Z</time>
      </trkpt>
      <trkpt lat="44.43625" lon="1.37123">
        <ele>143</ele>
        <time>2019-04-14T12:11:32Z</time>
      </trkpt>
      <trkpt lat="44.43627" lon="1.37118">
        <ele>142</ele>
        <time>2019-04-14T12:11:33Z</time>
      </trkpt>
      <trkpt lat="44.43628" lon="1.37112">
        <ele>142</ele>
        <time>2019-04-14T12:11:34Z</time>
      </trkpt>
      <trkpt lat="44.43629" lon="1.37108">
        <ele>142</ele>
        <time>2019-04-14T12:11:35Z</time>
      </trkpt>
      <trkpt lat="44.4363" lon="1.37103">
        <ele>142</ele>
        <time>2019-04-14T12:11:36Z</time>
      </trkpt>
      <trkpt lat="44.43631" lon="1.37099">
        <ele>142</ele>
        <time>2019-04-14T12:11:37Z</time>
      </trkpt>
      <trkpt lat="44.43632" lon="1.37095">
        <ele>142</ele>
        <time>2019-04-14T12:11:38Z</time>
      </trkpt>
      <trkpt lat="44.43632" lon="1.3709">
        <ele>142</ele>
        <time>2019-04-14T12:11:39Z</time>
      </trkpt>
      <trkpt lat="44.43633" lon="1.37085">
        <ele>142</ele>
        <time>2019-04-14T12:11:40Z</time>
      </trkpt>
      <trkpt lat="44.43634" lon="1.37081">
        <ele>142</ele>
        <time>2019-04-14T12:11:41Z</time>
      </trkpt>
      <trkpt lat="44.43636" lon="1.37078">
        <ele>142</ele>
        <time>2019-04-14T12:11:42Z</time>
      </trkpt>
      <trkpt lat="44.43637" lon="1.37074">
        <ele>142</ele>
        <time>2019-04-14T12:11:43Z</time>
      </trkpt>
      <trkpt lat="44.43638" lon="1.37069">
        <ele>141</ele>
        <time>2019-04-14T12:11:44Z</time>
      </trkpt>
      <trkpt lat="44.43639" lon="1.37064">
        <ele>141</ele>
        <time>2019-04-14T12:11:45Z</time>
      </trkpt>
      <trkpt lat="44.4364" lon="1.37059">
        <ele>141</ele>
        <time>2019-04-14T12:11:46Z</time>
      </trkpt>
      <trkpt lat="44.43641" lon="1.37053">
        <ele>141</ele>
        <time>2019-04-14T12:11:47Z</time>
      </trkpt>
      <trkpt lat="44.43642" lon="1.37048">
        <ele>141</ele>
        <time>2019-04-14T12:11:48Z</time>
      </trkpt>
      <trkpt lat="44.43643" lon="1.37042">
        <ele>141</ele>
        <time>2019-04-14T12:11:49Z</time>
      </trkpt>
      <trkpt lat="44.43644" lon="1.37037">
        <ele>141</ele>
        <time>2019-04-14T12:11:50Z</time>
      </trkpt>
      <trkpt lat="44.43645" lon="1.37032">
        <ele>140</ele>
        <time>2019-04-14T12:11:51Z</time>
      </trkpt>
      <trkpt lat="44.43646" lon="1.37028">
        <ele>140</ele>
        <time>2019-04-14T12:11:52Z</time>
      </trkpt>
      <trkpt lat="44.43647" lon="1.37025">
        <ele>140</ele>
        <time>2019-04-14T12:11:53Z</time>
      </trkpt>
      <trkpt lat="44.43647" lon="1.37022">
        <ele>140</ele>
        <time>2019-04-14T12:11:54Z</time>
      </trkpt>
      <trkpt lat="44.43648" lon="1.37019">
        <ele>140</ele>
        <time>2019-04-14T12:11:55Z</time>
      </trkpt>
      <trkpt lat="44.43648" lon="1.37017">
        <ele>140</ele>
        <time>2019-04-14T12:11:56Z</time>
      </trkpt>
      <trkpt lat="44.43648" lon="1.37015">
        <ele>140</ele>
        <time>2019-04-14T12:11:57Z</time>
      </trkpt>
      <trkpt lat="44.43648" lon="1.37012">
        <ele>140</ele>
        <time>2019-04-14T12:11:58Z</time>
      </trkpt>
      <trkpt lat="44.43648" lon="1.37009">
        <ele>140</ele>
        <time>2019-04-14T12:11:59Z</time>
      </trkpt>
      <trkpt lat="44.43649" lon="1.37006">
        <ele>140</ele>
        <time>2019-04-14T12:12:00Z</time>
      </trkpt>
      <trkpt lat="44.43649" lon="1.37002">
        <ele>139</ele>
        <time>2019-04-14T12:12:01Z</time>
      </trkpt>
      <trkpt lat="44.4365" lon="1.36999">
        <ele>139</ele>
        <time>2019-04-14T12:12:02Z</time>
      </trkpt>
      <trkpt lat="44.4365" lon="1.36995">
        <ele>139</ele>
        <time>2019-04-14T12:12:03Z</time>
      </trkpt>
      <trkpt lat="44.4365" lon="1.36992">
        <ele>139</ele>
        <time>2019-04-14T12:12:04Z</time>
      </trkpt>
      <trkpt lat="44.4365" lon="1.36989">
        <ele>139</ele>
        <time>2019-04-14T12:12:05Z</time>
      </trkpt>
      <trkpt lat="44.4365" lon="1.36987">
        <ele>139</ele>
        <time>2019-04-14T12:12:06Z</time>
      </trkpt>
      <trkpt lat="44.43649" lon="1.36985">
        <ele>139</ele>
        <time>2019-04-14T12:12:07Z</time>
      </trkpt>
      <trkpt lat="44.43648" lon="1.36982">
        <ele>139</ele>
        <time>2019-04-14T12:12:08Z</time>
      </trkpt>
      <trkpt lat="44.43648" lon="1.36979">
        <ele>139</ele>
        <time>2019-04-14T12:12:09Z</time>
      </trkpt>
      <trkpt lat="44.43647" lon="1.36976">
        <ele>139</ele>
        <time>2019-04-14T12:12:10Z</time>
      </trkpt>
      <trkpt lat="44.43646" lon="1.36973">
        <ele>139</ele>
        <time>2019-04-14T12:12:11Z</time>
      </trkpt>
      <trkpt lat="44.43645" lon="1.3697">
        <ele>139</ele>
        <time>2019-04-14T12:12:12Z</time>
      </trkpt>
      <trkpt lat="44.43644" lon="1.36967">
        <ele>139</ele>
        <time>2019-04-14T12:12:13Z</time>
      </trkpt>
      <trkpt lat="44.43644" lon="1.36963">
        <ele>139</ele>
        <time>2019-04-14T12:12:14Z</time>
      </trkpt>
      <trkpt lat="44.43642" lon="1.36959">
        <ele>139</ele>
        <time>2019-04-14T12:12:15Z</time>
      </trkpt>
      <trkpt lat="44.43641" lon="1.36956">
        <ele>139</ele>
        <time>2019-04-14T12:12:16Z</time>
      </trkpt>
      <trkpt lat="44.4364" lon="1.36952">
        <ele>138</ele>
        <time>2019-04-14T12:12:17Z</time>
      </trkpt>
      <trkpt lat="44.43639" lon="1.36949">
        <ele>138</ele>
        <time>2019-04-14T12:12:18Z</time>
      </trkpt>
      <trkpt lat="44.43638" lon="1.36946">
        <ele>138</ele>
        <time>2019-04-14T12:12:19Z</time>
      </trkpt>
      <trkpt lat="44.43637" lon="1.36943">
        <ele>138</ele>
        <time>2019-04-14T12:12:20Z</time>
      </trkpt>
      <trkpt lat="44.43635" lon="1.3694">
        <ele>138</ele>
        <time>2019-04-14T12:12:21Z</time>
      </trkpt>
      <trkpt lat="44.43634" lon="1.36937">
        <ele>138</ele>
        <time>2019-04-14T12:12:22Z</time>
      </trkpt>
      <trkpt lat="44.43633" lon="1.36934">
        <ele>137</ele>
        <time>2019-04-14T12:12:23Z</time>
      </trkpt>
      <trkpt lat="44.43631" lon="1.36931">
        <ele>137</ele>
        <time>2019-04-14T12:12:24Z</time>
      </trkpt>
      <trkpt lat="44.4363" lon="1.36929">
        <ele>138</ele>
        <time>2019-04-14T12:12:25Z</time>
      </trkpt>
      <trkpt lat="44.4363" lon="1.36926">
        <ele>138</ele>
        <time>2019-04-14T12:12:26Z</time>
      </trkpt>
      <trkpt lat="44.43628" lon="1.36922">
        <ele>138</ele>
        <time>2019-04-14T12:12:27Z</time>
      </trkpt>
      <trkpt lat="44.43627" lon="1.3692">
        <ele>137</ele>
        <time>2019-04-14T12:12:28Z</time>
      </trkpt>
      <trkpt lat="44.43625" lon="1.36917">
        <ele>137</ele>
        <time>2019-04-14T12:12:29Z</time>
      </trkpt>
      <trkpt lat="44.43624" lon="1.36915">
        <ele>137</ele>
        <time>2019-04-14T12:12:30Z</time>
      </trkpt>
      <trkpt lat="44.43623" lon="1.36913">
        <ele>137</ele>
        <time>2019-04-14T12:12:31Z</time>
      </trkpt>
      <trkpt lat="44.43622" lon="1.3691">
        <ele>137</ele>
        <time>2019-04-14T12:12:32Z</time>
      </trkpt>
      <trkpt lat="44.43622" lon="1.36908">
        <ele>137</ele>
        <time>2019-04-14T12:12:33Z</time>
      </trkpt>
      <trkpt lat="44.43621" lon="1.36905">
        <ele>137</ele>
        <time>2019-04-14T12:12:34Z</time>
      </trkpt>
      <trkpt lat="44.4362" lon="1.36902">
        <ele>137</ele>
        <time>2019-04-14T12:12:35Z</time>
      </trkpt>
      <trkpt lat="44.43619" lon="1.36899">
        <ele>137</ele>
        <time>2019-04-14T12:12:36Z</time>
      </trkpt>
      <trkpt lat="44.43619" lon="1.36896">
        <ele>137</ele>
        <time>2019-04-14T12:12:37Z</time>
      </trkpt>
      <trkpt lat="44.43618" lon="1.36894">
        <ele>137</ele>
        <time>2019-04-14T12:12:38Z</time>
      </trkpt>
      <trkpt lat="44.43617" lon="1.36892">
        <ele>137</ele>
        <time>2019-04-14T12:12:39Z</time>
      </trkpt>
      <trkpt lat="44.43616" lon="1.36889">
        <ele>137</ele>
        <time>2019-04-14T12:12:40Z</time>
      </trkpt>
      <trkpt lat="44.43615" lon="1.36886">
        <ele>137</ele>
        <time>2019-04-14T12:12:41Z</time>
      </trkpt>
      <trkpt lat="44.43614" lon="1.36883">
        <ele>137</ele>
        <time>2019-04-14T12:12:42Z</time>
      </trkpt>
      <trkpt lat="44.43613" lon="1.3688">
        <ele>137</ele>
        <time>2019-04-14T12:12:43Z</time>
      </trkpt>
      <trkpt lat="44.43612" lon="1.36878">
        <ele>137</ele>
        <time>2019-04-14T12:12:44Z</time>
      </trkpt>
      <trkpt lat="44.43612" lon="1.36875">
        <ele>137</ele>
        <time>2019-04-14T12:12:45Z</time>
      </trkpt>
      <trkpt lat="44.43611" lon="1.36873">
        <ele>137</ele>
        <time>2019-04-14T12:12:46Z</time>
      </trkpt>
      <trkpt lat="44.43611" lon="1.36871">
        <ele>137</ele>
        <time>2019-04-14T12:12:47Z</time>
      </trkpt>
      <trkpt lat="44.43611" lon="1.36869">
        <ele>137</ele>
        <time>2019-04-14T12:12:48Z</time>
      </trkpt>
      <trkpt lat="44.4361" lon="1.36867">
        <ele>137</ele>
        <time>2019-04-14T12:12:49Z</time>
      </trkpt>
      <trkpt lat="44.4361" lon="1.36866">
        <ele>137</ele>
        <time>2019-04-14T12:12:50Z</time>
      </trkpt>
      <trkpt lat="44.4361" lon="1.36864">
        <ele>137</ele>
        <time>2019-04-14T12:12:51Z</time>
      </trkpt>
      <trkpt lat="44.4361" lon="1.36862">
        <ele>137</ele>
        <time>2019-04-14T12:12:52Z</time>
      </trkpt>
      <trkpt lat="44.4361" lon="1.36859">
        <ele>137</ele>
        <time>2019-04-14T12:12:53Z</time>
      </trkpt>
      <trkpt lat="44.43609" lon="1.36855">
        <ele>137</ele>
        <time>2019-04-14T12:12:54Z</time>
      </trkpt>
      <trkpt lat="44.43609" lon="1.36852">
        <ele>137</ele>
        <time>2019-04-14T12:12:55Z</time>
      </trkpt>
      <trkpt lat="44.43608" lon="1.36849">
        <ele>137</ele>
        <time>2019-04-14T12:12:56Z</time>
      </trkpt>
      <trkpt lat="44.43608" lon="1.36846">
        <ele>137</ele>
        <time>2019-04-14T12:12:57Z</time>
      </trkpt>
      <trkpt lat="44.43607" lon="1.36842">
        <ele>137</ele>
        <time>2019-04-14T12:12:58Z</time>
      </trkpt>
      <trkpt lat="44.43607" lon="1.36838">
        <ele>137</ele>
        <time>2019-04-14T12:12:59Z</time>
      </trkpt>
      <trkpt lat="44.43607" lon="1.36835">
        <ele>137</ele>
        <time>2019-04-14T12:13:00Z</time>
      </trkpt>
      <trkpt lat="44.43607" lon="1.36832">
        <ele>137</ele>
        <time>2019-04-14T12:13:01Z</time>
      </trkpt>
      <trkpt lat="44.43606" lon="1.36829">
        <ele>137</ele>
        <time>2019-04-14T12:13:02Z</time>
      </trkpt>
      <trkpt lat="44.43606" lon="1.36825">
        <ele>137</ele>
        <time>2019-04-14T12:13:03Z</time>
      </trkpt>
      <trkpt lat="44.43606" lon="1.36821">
        <ele>137</ele>
        <time>2019-04-14T12:13:04Z</time>
      </trkpt>
      <trkpt lat="44.43606" lon="1.36817">
        <ele>137</ele>
        <time>2019-04-14T12:13:05Z</time>
      </trkpt>
      <trkpt lat="44.43606" lon="1.36813">
        <ele>137</ele>
        <time>2019-04-14T12:13:06Z</time>
      </trkpt>
      <trkpt lat="44.43606" lon="1.36809">
        <ele>137</ele>
        <time>2019-04-14T12:13:07Z</time>
      </trkpt>
      <trkpt lat="44.43606" lon="1.36805">
        <ele>137</ele>
        <time>2019-04-14T12:13:08Z</time>
      </trkpt>
      <trkpt lat="44.43607" lon="1.36802">
        <ele>137</ele>
        <time>2019-04-14T12:13:09Z</time>
      </trkpt>
      <trkpt lat="44.43607" lon="1.368">
        <ele>137</ele>
        <time>2019-04-14T12:13:10Z</time>
      </trkpt>
      <trkpt lat="44.43608" lon="1.36797">
        <ele>137</ele>
        <time>2019-04-14T12:13:11Z</time>
      </trkpt>
      <trkpt lat="44.43608" lon="1.36794">
        <ele>137</ele>
        <time>2019-04-14T12:13:12Z</time>
      </trkpt>
      <trkpt lat="44.43608" lon="1.36791">
        <ele>137</ele>
        <time>2019-04-14T12:13:13Z</time>
      </trkpt>
      <trkpt lat="44.43608" lon="1.36788">
        <ele>137</ele>
        <time>2019-04-14T12:13:14Z</time>
      </trkpt>
      <trkpt lat="44.43609" lon="1.36785">
        <ele>137</ele>
        <time>2019-04-14T12:13:15Z</time>
      </trkpt>
      <trkpt lat="44.43609" lon="1.36782">
        <ele>137</ele>
        <time>2019-04-14T12:13:16Z</time>
      </trkpt>
      <trkpt lat="44.43609" lon="1.36778">
        <ele>137</ele>
        <time>2019-04-14T12:13:17Z</time>
      </trkpt>
      <trkpt lat="44.43609" lon="1.36774">
        <ele>137</ele>
        <time>2019-04-14T12:13:18Z</time>
      </trkpt>
      <trkpt lat="44.4361" lon="1.36771">
        <ele>137</ele>
        <time>2019-04-14T12:13:19Z</time>
      </trkpt>
      <trkpt lat="44.43611" lon="1.36767">
        <ele>137</ele>
        <time>2019-04-14T12:13:20Z</time>
      </trkpt>
      <trkpt lat="44.43613" lon="1.36764">
        <ele>137</ele>
        <time>2019-04-14T12:13:21Z</time>
      </trkpt>
      <trkpt lat="44.43614" lon="1.3676">
        <ele>137</ele>
        <time>2019-04-14T12:13:22Z</time>
      </trkpt>
      <trkpt lat="44.43615" lon="1.36756">
        <ele>137</ele>
        <time>2019-04-14T12:13:23Z</time>
      </trkpt>
      <trkpt lat="44.43616" lon="1.36751">
        <ele>137</ele>
        <time>2019-04-14T12:13:24Z</time>
      </trkpt>
      <trkpt lat="44.43617" lon="1.36747">
        <ele>137</ele>
        <time>2019-04-14T12:13:25Z</time>
      </trkpt>
      <trkpt lat="44.43618" lon="1.36742">
        <ele>137</ele>
        <time>2019-04-14T12:13:26Z</time>
      </trkpt>
      <trkpt lat="44.43619" lon="1.36737">
        <ele>136</ele>
        <time>2019-04-14T12:13:27Z</time>
      </trkpt>
      <trkpt lat="44.43621" lon="1.36732">
        <ele>136</ele>
        <time>2019-04-14T12:13:28Z</time>
      </trkpt>
      <trkpt lat="44.43622" lon="1.36728">
        <ele>136</ele>
        <time>2019-04-14T12:13:29Z</time>
      </trkpt>
      <trkpt lat="44.43624" lon="1.36723">
        <ele>136</ele>
        <time>2019-04-14T12:13:30Z</time>
      </trkpt>
      <trkpt lat="44.43626" lon="1.36718">
        <ele>136</ele>
        <time>2019-04-14T12:13:31Z</time>
      </trkpt>
      <trkpt lat="44.43626" lon="1.36715">
        <ele>136</ele>
        <time>2019-04-14T12:13:32Z</time>
      </trkpt>
      <trkpt lat="44.43628" lon="1.36711">
        <ele>135</ele>
        <time>2019-04-14T12:13:33Z</time>
      </trkpt>
      <trkpt lat="44.43629" lon="1.36707">
        <ele>135</ele>
        <time>2019-04-14T12:13:34Z</time>
      </trkpt>
      <trkpt lat="44.4363" lon="1.36701">
        <ele>135</ele>
        <time>2019-04-14T12:13:35Z</time>
      </trkpt>
      <trkpt lat="44.43632" lon="1.36696">
        <ele>135</ele>
        <time>2019-04-14T12:13:36Z</time>
      </trkpt>
      <trkpt lat="44.43634" lon="1.36691">
        <ele>135</ele>
        <time>2019-04-14T12:13:37Z</time>
      </trkpt>
      <trkpt lat="44.43636" lon="1.36688">
        <ele>134</ele>
        <time>2019-04-14T12:13:38Z</time>
      </trkpt>
      <trkpt lat="44.43638" lon="1.36684">
        <ele>134</ele>
        <time>2019-04-14T12:13:39Z</time>
      </trkpt>
      <trkpt lat="44.4364" lon="1.36679">
        <ele>134</ele>
        <time>2019-04-14T12:13:40Z</time>
      </trkpt>
      <trkpt lat="44.43642" lon="1.36675">
        <ele>134</ele>
        <time>2019-04-14T12:13:41Z</time>
      </trkpt>
      <trkpt lat="44.43644" lon="1.36671">
        <ele>134</ele>
        <time>2019-04-14T12:13:42Z</time>
      </trkpt>
      <trkpt lat="44.43646" lon="1.36667">
        <ele>134</ele>
        <time>2019-04-14T12:13:43Z</time>
      </trkpt>
      <trkpt lat="44.43648" lon="1.36665">
        <ele>134</ele>
        <time>2019-04-14T12:13:44Z</time>
      </trkpt>
      <trkpt lat="44.43649" lon="1.36662">
        <ele>135</ele>
        <time>2019-04-14T12:13:45Z</time>
      </trkpt>
      <trkpt lat="44.43651" lon="1.36658">
        <ele>135</ele>
        <time>2019-04-14T12:13:46Z</time>
      </trkpt>
      <trkpt lat="44.43652" lon="1.36654">
        <ele>135</ele>
        <time>2019-04-14T12:13:47Z</time>
      </trkpt>
      <trkpt lat="44.43654" lon="1.36651">
        <ele>135</ele>
        <time>2019-04-14T12:13:48Z</time>
      </trkpt>
      <trkpt lat="44.43656" lon="1.36648">
        <ele>135</ele>
        <time>2019-04-14T12:13:49Z</time>
      </trkpt>
      <trkpt lat="44.43658" lon="1.36644">
        <ele>135</ele>
        <time>2019-04-14T12:13:50Z</time>
      </trkpt>
      <trkpt lat="44.4366" lon="1.3664">
        <ele>135</ele>
        <time>2019-04-14T12:13:51Z</time>
      </trkpt>
      <trkpt lat="44.43661" lon="1.36637">
        <ele>135</ele>
        <time>2019-04-14T12:13:52Z</time>
      </trkpt>
      <trkpt lat="44.43663" lon="1.36634">
        <ele>135</ele>
        <time>2019-04-14T12:13:53Z</time>
      </trkpt>
      <trkpt lat="44.43665" lon="1.3663">
        <ele>135</ele>
        <time>2019-04-14T12:13:54Z</time>
      </trkpt>
      <trkpt lat="44.43667" lon="1.36627">
        <ele>135</ele>
        <time>2019-04-14T12:13:55Z</time>
      </trkpt>
      <trkpt lat="44.43669" lon="1.36623">
        <ele>135</ele>
        <time>2019-04-14T12:13:56Z</time>
      </trkpt>
      <trkpt lat="44.43671" lon="1.3662">
        <ele>135</ele>
        <time>2019-04-14T12:13:57Z</time>
      </trkpt>
      <trkpt lat="44.43672" lon="1.36616">
        <ele>135</ele>
        <time>2019-04-14T12:13:58Z</time>
      </trkpt>
      <trkpt lat="44.43674" lon="1.36612">
        <ele>135</ele>
        <time>2019-04-14T12:13:59Z</time>
      </trkpt>
      <trkpt lat="44.43676" lon="1.36609">
        <ele>135</ele>
        <time>2019-04-14T12:14:00Z</time>
      </trkpt>
      <trkpt lat="44.43677" lon="1.36605">
        <ele>135</ele>
        <time>2019-04-14T12:14:01Z</time>
      </trkpt>
      <trkpt lat="44.43678" lon="1.36602">
        <ele>135</ele>
        <time>2019-04-14T12:14:02Z</time>
      </trkpt>
      <trkpt lat="44.43678" lon="1.36599">
        <ele>135</ele>
        <time>2019-04-14T12:14:03Z</time>
      </trkpt>
      <trkpt lat="44.43678" lon="1.36596">
        <ele>135</ele>
        <time>2019-04-14T12:14:04Z</time>
      </trkpt>
      <trkpt lat="44.43678" lon="1.36593">
        <ele>135</ele>
        <time>2019-04-14T12:14:05Z</time>
      </trkpt>
      <trkpt lat="44.43677" lon="1.36591">
        <ele>135</ele>
        <time>2019-04-14T12:14:06Z</time>
      </trkpt>
      <trkpt lat="44.43677" lon="1.36589">
        <ele>135</ele>
        <time>2019-04-14T12:14:07Z</time>
      </trkpt>
      <trkpt lat="44.43676" lon="1.36586">
        <ele>135</ele>
        <time>2019-04-14T12:14:08Z</time>
      </trkpt>
      <trkpt lat="44.43675" lon="1.36583">
        <ele>135</ele>
        <time>2019-04-14T12:14:09Z</time>
      </trkpt>
      <trkpt lat="44.43674" lon="1.3658">
        <ele>135</ele>
        <time>2019-04-14T12:14:10Z</time>
      </trkpt>
      <trkpt lat="44.43673" lon="1.36577">
        <ele>136</ele>
        <time>2019-04-14T12:14:11Z</time>
      </trkpt>
      <trkpt lat="44.43672" lon="1.36575">
        <ele>136</ele>
        <time>2019-04-14T12:14:12Z</time>
      </trkpt>
      <trkpt lat="44.4367" lon="1.36572">
        <ele>136</ele>
        <time>2019-04-14T12:14:13Z</time>
      </trkpt>
      <trkpt lat="44.43669" lon="1.36569">
        <ele>136</ele>
        <time>2019-04-14T12:14:14Z</time>
      </trkpt>
      <trkpt lat="44.43667" lon="1.36566">
        <ele>136</ele>
        <time>2019-04-14T12:14:15Z</time>
      </trkpt>
      <trkpt lat="44.43666" lon="1.36564">
        <ele>136</ele>
        <time>2019-04-14T12:14:16Z</time>
      </trkpt>
      <trkpt lat="44.43665" lon="1.36562">
        <ele>136</ele>
        <time>2019-04-14T12:14:17Z</time>
      </trkpt>
      <trkpt lat="44.43664" lon="1.36559">
        <ele>136</ele>
        <time>2019-04-14T12:14:18Z</time>
      </trkpt>
      <trkpt lat="44.43663" lon="1.36557">
        <ele>136</ele>
        <time>2019-04-14T12:14:19Z</time>
      </trkpt>
      <trkpt lat="44.43662" lon="1.36556">
        <ele>136</ele>
        <time>2019-04-14T12:14:20Z</time>
      </trkpt>
      <trkpt lat="44.43661" lon="1.36555">
        <ele>137</ele>
        <time>2019-04-14T12:14:21Z</time>
      </trkpt>
      <trkpt lat="44.43661" lon="1.36555">
        <ele>137</ele>
        <time>2019-04-14T12:14:22Z</time>
      </trkpt>
      <trkpt lat="44.4366" lon="1.36555">
        <ele>137</ele>
        <time>2019-04-14T12:14:23Z</time>
      </trkpt>
      <trkpt lat="44.43661" lon="1.36555">
        <ele>136</ele>
        <time>2019-04-14T12:14:24Z</time>
      </trkpt>
      <trkpt lat="44.43661" lon="1.36555">
        <ele>136</ele>
        <time>2019-04-14T12:14:25Z</time>
      </trkpt>
      <trkpt lat="44.43661" lon="1.36555">
        <ele>137</ele>
        <time>2019-04-14T12:14:26Z</time>
      </trkpt>
      <trkpt lat="44.43661" lon="1.36555">
        <ele>137</ele>
        <time>2019-04-14T12:14:27Z</time>
      </trkpt>
      <trkpt lat="44.43661" lon="1.36555">
        <ele>137</ele>
        <time>2019-04-14T12:14:28Z</time>
      </trkpt>
      <trkpt lat="44.43676" lon="1.36581">
        <ele>135</ele>
        <time>2019-04-14T12:17:58Z</time>
      </trkpt>
      <trkpt lat="44.43676" lon="1.36586">
        <ele>135</ele>
        <time>2019-04-14T12:17:59Z</time>
      </trkpt>
      <trkpt lat="44.43674" lon="1.36592">
        <ele>135</ele>
        <time>2019-04-14T12:18:00Z</time>
      </trkpt>
      <trkpt lat="44.43671" lon="1.36597">
        <ele>135</ele>
        <time>2019-04-14T12:18:01Z</time>
      </trkpt>
      <trkpt lat="44.43669" lon="1.36601">
        <ele>134</ele>
        <time>2019-04-14T12:18:02Z</time>
      </trkpt>
      <trkpt lat="44.43667" lon="1.36606">
        <ele>134</ele>
        <time>2019-04-14T12:18:03Z</time>
      </trkpt>
      <trkpt lat="44.43665" lon="1.3661">
        <ele>134</ele>
        <time>2019-04-14T12:18:04Z</time>
      </trkpt>
      <trkpt lat="44.43662" lon="1.36613">
        <ele>134</ele>
        <time>2019-04-14T12:18:05Z</time>
      </trkpt>
      <trkpt lat="44.43659" lon="1.36616">
        <ele>134</ele>
        <time>2019-04-14T12:18:06Z</time>
      </trkpt>
      <trkpt lat="44.43656" lon="1.3662">
        <ele>134</ele>
        <time>2019-04-14T12:18:07Z</time>
      </trkpt>
      <trkpt lat="44.43654" lon="1.36625">
        <ele>134</ele>
        <time>2019-04-14T12:18:08Z</time>
      </trkpt>
      <trkpt lat="44.43652" lon="1.36629">
        <ele>134</ele>
        <time>2019-04-14T12:18:09Z</time>
      </trkpt>
      <trkpt lat="44.43649" lon="1.36634">
        <ele>134</ele>
        <time>2019-04-14T12:18:10Z</time>
      </trkpt>
      <trkpt lat="44.43647" lon="1.36639">
        <ele>134</ele>
        <time>2019-04-14T12:18:11Z</time>
      </trkpt>
      <trkpt lat="44.43644" lon="1.36644">
        <ele>134</ele>
        <time>2019-04-14T12:18:12Z</time>
      </trkpt>
      <trkpt lat="44.43642" lon="1.36649">
        <ele>134</ele>
        <time>2019-04-14T12:18:13Z</time>
      </trkpt>
      <trkpt lat="44.4364" lon="1.36654">
        <ele>134</ele>
        <time>2019-04-14T12:18:14Z</time>
      </trkpt>
      <trkpt lat="44.43636" lon="1.36659">
        <ele>134</ele>
        <time>2019-04-14T12:18:15Z</time>
      </trkpt>
      <trkpt lat="44.43634" lon="1.36662">
        <ele>134</ele>
        <time>2019-04-14T12:18:16Z</time>
      </trkpt>
      <trkpt lat="44.43632" lon="1.36665">
        <ele>134</ele>
        <time>2019-04-14T12:18:17Z</time>
      </trkpt>
      <trkpt lat="44.43631" lon="1.36669">
        <ele>134</ele>
        <time>2019-04-14T12:18:18Z</time>
      </trkpt>
      <trkpt lat="44.4363" lon="1.36672">
        <ele>135</ele>
        <time>2019-04-14T12:18:19Z</time>
      </trkpt>
      <trkpt lat="44.43629" lon="1.36677">
        <ele>135</ele>
        <time>2019-04-14T12:18:20Z</time>
      </trkpt>
      <trkpt lat="44.43628" lon="1.36681">
        <ele>135</ele>
        <time>2019-04-14T12:18:21Z</time>
      </trkpt>
      <trkpt lat="44.43626" lon="1.36685">
        <ele>135</ele>
        <time>2019-04-14T12:18:22Z</time>
      </trkpt>
      <trkpt lat="44.43625" lon="1.3669">
        <ele>135</ele>
        <time>2019-04-14T12:18:23Z</time>
      </trkpt>
      <trkpt lat="44.43624" lon="1.36695">
        <ele>135</ele>
        <time>2019-04-14T12:18:24Z</time>
      </trkpt>
      <trkpt lat="44.43623" lon="1.36699">
        <ele>135</ele>
        <time>2019-04-14T12:18:25Z</time>
      </trkpt>
      <trkpt lat="44.43622" lon="1.36705">
        <ele>135</ele>
        <time>2019-04-14T12:18:26Z</time>
      </trkpt>
      <trkpt lat="44.43621" lon="1.3671">
        <ele>136</ele>
        <time>2019-04-14T12:18:27Z</time>
      </trkpt>
      <trkpt lat="44.4362" lon="1.36715">
        <ele>136</ele>
        <time>2019-04-14T12:18:28Z</time>
      </trkpt>
      <trkpt lat="44.43618" lon="1.36721">
        <ele>136</ele>
        <time>2019-04-14T12:18:29Z</time>
      </trkpt>
      <trkpt lat="44.43617" lon="1.36727">
        <ele>136</ele>
        <time>2019-04-14T12:18:30Z</time>
      </trkpt>
      <trkpt lat="44.43616" lon="1.36733">
        <ele>136</ele>
        <time>2019-04-14T12:18:31Z</time>
      </trkpt>
      <trkpt lat="44.43614" lon="1.36738">
        <ele>136</ele>
        <time>2019-04-14T12:18:32Z</time>
      </trkpt>
      <trkpt lat="44.43613" lon="1.36744">
        <ele>137</ele>
        <time>2019-04-14T12:18:33Z</time>
      </trkpt>
      <trkpt lat="44.43612" lon="1.36748">
        <ele>137</ele>
        <time>2019-04-14T12:18:34Z</time>
      </trkpt>
      <trkpt lat="44.43612" lon="1.36751">
        <ele>137</ele>
        <time>2019-04-14T12:18:35Z</time>
      </trkpt>
      <trkpt lat="44.43612" lon="1.36756">
        <ele>137</ele>
        <time>2019-04-14T12:18:36Z</time>
      </trkpt>
      <trkpt lat="44.43612" lon="1.3676">
        <ele>137</ele>
        <time>2019-04-14T12:18:37Z</time>
      </trkpt>
      <trkpt lat="44.43611" lon="1.36763">
        <ele>137</ele>
        <time>2019-04-14T12:18:38Z</time>
      </trkpt>
      <trkpt lat="44.43611" lon="1.36768">
        <ele>137</ele>
        <time>2019-04-14T12:18:39Z</time>
      </trkpt>
      <trkpt lat="44.43611" lon="1.36772">
        <ele>137</ele>
        <time>2019-04-14T12:18:40Z</time>
      </trkpt>
      <trkpt lat="44.43611" lon="1.36778">
        <ele>137</ele>
        <time>2019-04-14T12:18:41Z</time>
      </trkpt>
      <trkpt lat="44.43611" lon="1.36785">
        <ele>137</ele>
        <time>2019-04-14T12:18:42Z</time>
      </trkpt>
      <trkpt lat="44.43611" lon="1.36791">
        <ele>137</ele>
        <time>2019-04-14T12:18:43Z</time>
      </trkpt>
      <trkpt lat="44.43611" lon="1.36796">
        <ele>137</ele>
        <time>2019-04-14T12:18:44Z</time>
      </trkpt>
      <trkpt lat="44.43611" lon="1.36803">
        <ele>137</ele>
        <time>2019-04-14T12:18:45Z</time>
      </trkpt>
      <trkpt lat="44.4361" lon="1.3681">
        <ele>137</ele>
        <time>2019-04-14T12:18:46Z</time>
      </trkpt>
      <trkpt lat="44.43611" lon="1.36815">
        <ele>136</ele>
        <time>2019-04-14T12:18:47Z</time>
      </trkpt>
      <trkpt lat="44.43611" lon="1.36822">
        <ele>136</ele>
        <time>2019-04-14T12:18:48Z</time>
      </trkpt>
      <trkpt lat="44.43611" lon="1.36829">
        <ele>137</ele>
        <time>2019-04-14T12:18:49Z</time>
      </trkpt>
      <trkpt lat="44.43609" lon="1.36836">
        <ele>136</ele>
        <time>2019-04-14T12:18:50Z</time>
      </trkpt>
      <trkpt lat="44.4361" lon="1.36843">
        <ele>137</ele>
        <time>2019-04-14T12:18:51Z</time>
      </trkpt>
      <trkpt lat="44.43611" lon="1.36848">
        <ele>137</ele>
        <time>2019-04-14T12:18:52Z</time>
      </trkpt>
      <trkpt lat="44.43612" lon="1.36854">
        <ele>137</ele>
        <time>2019-04-14T12:18:53Z</time>
      </trkpt>
      <trkpt lat="44.43614" lon="1.36859">
        <ele>137</ele>
        <time>2019-04-14T12:18:54Z</time>
      </trkpt>
      <trkpt lat="44.43615" lon="1.36865">
        <ele>137</ele>
        <time>2019-04-14T12:18:55Z</time>
      </trkpt>
      <trkpt lat="44.43616" lon="1.3687">
        <ele>137</ele>
        <time>2019-04-14T12:18:56Z</time>
      </trkpt>
      <trkpt lat="44.43617" lon="1.36875">
        <ele>137</ele>
        <time>2019-04-14T12:18:57Z</time>
      </trkpt>
      <trkpt lat="44.43617" lon="1.3688">
        <ele>137</ele>
        <time>2019-04-14T12:18:58Z</time>
      </trkpt>
      <trkpt lat="44.43619" lon="1.36885">
        <ele>137</ele>
        <time>2019-04-14T12:18:59Z</time>
      </trkpt>
      <trkpt lat="44.4362" lon="1.36891">
        <ele>137</ele>
        <time>2019-04-14T12:19:00Z</time>
      </trkpt>
      <trkpt lat="44.43622" lon="1.36896">
        <ele>137</ele>
        <time>2019-04-14T12:19:01Z</time>
      </trkpt>
      <trkpt lat="44.43622" lon="1.36901">
        <ele>137</ele>
        <time>2019-04-14T12:19:02Z</time>
      </trkpt>
      <trkpt lat="44.43624" lon="1.36907">
        <ele>137</ele>
        <time>2019-04-14T12:19:03Z</time>
      </trkpt>
      <trkpt lat="44.43625" lon="1.36912">
        <ele>137</ele>
        <time>2019-04-14T12:19:04Z</time>
      </trkpt>
      <trkpt lat="44.43628" lon="1.36918">
        <ele>137</ele>
        <time>2019-04-14T12:19:05Z</time>
      </trkpt>
      <trkpt lat="44.4363" lon="1.36923">
        <ele>137</ele>
        <time>2019-04-14T12:19:06Z</time>
      </trkpt>
      <trkpt lat="44.43632" lon="1.36928">
        <ele>137</ele>
        <time>2019-04-14T12:19:07Z</time>
      </trkpt>
      <trkpt lat="44.43634" lon="1.36934">
        <ele>137</ele>
        <time>2019-04-14T12:19:08Z</time>
      </trkpt>
      <trkpt lat="44.43636" lon="1.36938">
        <ele>138</ele>
        <time>2019-04-14T12:19:09Z</time>
      </trkpt>
      <trkpt lat="44.43638" lon="1.36943">
        <ele>138</ele>
        <time>2019-04-14T12:19:10Z</time>
      </trkpt>
      <trkpt lat="44.43639" lon="1.36947">
        <ele>138</ele>
        <time>2019-04-14T12:19:11Z</time>
      </trkpt>
      <trkpt lat="44.43641" lon="1.36952">
        <ele>138</ele>
        <time>2019-04-14T12:19:12Z</time>
      </trkpt>
      <trkpt lat="44.43642" lon="1.36957">
        <ele>138</ele>
        <time>2019-04-14T12:19:13Z</time>
      </trkpt>
      <trkpt lat="44.43644" lon="1.36962">
        <ele>138</ele>
        <time>2019-04-14T12:19:14Z</time>
      </trkpt>
      <trkpt lat="44.43645" lon="1.36968">
        <ele>138</ele>
        <time>2019-04-14T12:19:15Z</time>
      </trkpt>
      <trkpt lat="44.43646" lon="1.36973">
        <ele>138</ele>
        <time>2019-04-14T12:19:16Z</time>
      </trkpt>
      <trkpt lat="44.43647" lon="1.36978">
        <ele>138</ele>
        <time>2019-04-14T12:19:17Z</time>
      </trkpt>
      <trkpt lat="44.43647" lon="1.36983">
        <ele>139</ele>
        <time>2019-04-14T12:19:18Z</time>
      </trkpt>
      <trkpt lat="44.43647" lon="1.36988">
        <ele>139</ele>
        <time>2019-04-14T12:19:19Z</time>
      </trkpt>
      <trkpt lat="44.43647" lon="1.36993">
        <ele>139</ele>
        <time>2019-04-14T12:19:20Z</time>
      </trkpt>
      <trkpt lat="44.43646" lon="1.36997">
        <ele>139</ele>
        <time>2019-04-14T12:19:21Z</time>
      </trkpt>
      <trkpt lat="44.43646" lon="1.37001">
        <ele>139</ele>
        <time>2019-04-14T12:19:22Z</time>
      </trkpt>
      <trkpt lat="44.43646" lon="1.37006">
        <ele>139</ele>
        <time>2019-04-14T12:19:23Z</time>
      </trkpt>
      <trkpt lat="44.43645" lon="1.37011">
        <ele>139</ele>
        <time>2019-04-14T12:19:24Z</time>
      </trkpt>
      <trkpt lat="44.43644" lon="1.37015">
        <ele>140</ele>
        <time>2019-04-14T12:19:25Z</time>
      </trkpt>
      <trkpt lat="44.43643" lon="1.3702">
        <ele>140</ele>
        <time>2019-04-14T12:19:26Z</time>
      </trkpt>
      <trkpt lat="44.43642" lon="1.37024">
        <ele>140</ele>
        <time>2019-04-14T12:19:27Z</time>
      </trkpt>
      <trkpt lat="44.43641" lon="1.37029">
        <ele>140</ele>
        <time>2019-04-14T12:19:28Z</time>
      </trkpt>
      <trkpt lat="44.4364" lon="1.37034">
        <ele>140</ele>
        <time>2019-04-14T12:19:29Z</time>
      </trkpt>
      <trkpt lat="44.43638" lon="1.37038">
        <ele>140</ele>
        <time>2019-04-14T12:19:30Z</time>
      </trkpt>
      <trkpt lat="44.43637" lon="1.37043">
        <ele>140</ele>
        <time>2019-04-14T12:19:31Z</time>
      </trkpt>
      <trkpt lat="44.43637" lon="1.37048">
        <ele>141</ele>
        <time>2019-04-14T12:19:32Z</time>
      </trkpt>
      <trkpt lat="44.43636" lon="1.37053">
        <ele>141</ele>
        <time>2019-04-14T12:19:33Z</time>
      </trkpt>
      <trkpt lat="44.43635" lon="1.37057">
        <ele>141</ele>
        <time>2019-04-14T12:19:34Z</time>
      </trkpt>
      <trkpt lat="44.43634" lon="1.37062">
        <ele>141</ele>
        <time>2019-04-14T12:19:35Z</time>
      </trkpt>
      <trkpt lat="44.43633" lon="1.37066">
        <ele>141</ele>
        <time>2019-04-14T12:19:36Z</time>
      </trkpt>
      <trkpt lat="44.43632" lon="1.3707">
        <ele>141</ele>
        <time>2019-04-14T12:19:37Z</time>
      </trkpt>
      <trkpt lat="44.4363" lon="1.37075">
        <ele>141</ele>
        <time>2019-04-14T12:19:38Z</time>
      </trkpt>
      <trkpt lat="44.43629" lon="1.37081">
        <ele>141</ele>
        <time>2019-04-14T12:19:39Z</time>
      </trkpt>
      <trkpt lat="44.43628" lon="1.37085">
        <ele>141</ele>
        <time>2019-04-14T12:19:40Z</time>
      </trkpt>
      <trkpt lat="44.43627" lon="1.3709">
        <ele>141</ele>
        <time>2019-04-14T12:19:41Z</time>
      </trkpt>
      <trkpt lat="44.43626" lon="1.37094">
        <ele>141</ele>
        <time>2019-04-14T12:19:42Z</time>
      </trkpt>
      <trkpt lat="44.43625" lon="1.37098">
        <ele>142</ele>
        <time>2019-04-14T12:19:43Z</time>
      </trkpt>
      <trkpt lat="44.43623" lon="1.37101">
        <ele>142</ele>
        <time>2019-04-14T12:19:44Z</time>
      </trkpt>
      <trkpt lat="44.43622" lon="1.37106">
        <ele>142</ele>
        <time>2019-04-14T12:19:45Z</time>
      </trkpt>
      <trkpt lat="44.4362" lon="1.3711">
        <ele>142</ele>
        <time>2019-04-14T12:19:46Z</time>
      </trkpt>
      <trkpt lat="44.43619" lon="1.37113">
        <ele>142</ele>
        <time>2019-04-14T12:19:47Z</time>
      </trkpt>
      <trkpt lat="44.43618" lon="1.37116">
        <ele>142</ele>
        <time>2019-04-14T12:19:48Z</time>
      </trkpt>
      <trkpt lat="44.43617" lon="1.3712">
        <ele>142</ele>
        <time>2019-04-14T12:19:49Z</time>
      </trkpt>
      <trkpt lat="44.43615" lon="1.37124">
        <ele>142</ele>
        <time>2019-04-14T12:19:50Z</time>
      </trkpt>
      <trkpt lat="44.43615" lon="1.37126">
        <ele>142</ele>
        <time>2019-04-14T12:19:51Z</time>
      </trkpt>
      <trkpt lat="44.43614" lon="1.37129">
        <ele>143</ele>
        <time>2019-04-14T12:19:52Z</time>
      </trkpt>
      <trkpt lat="44.43613" lon="1.37133">
        <ele>143</ele>
        <time>2019-04-14T12:19:53Z</time>
      </trkpt>
      <trkpt lat="44.43612" lon="1.37136">
        <ele>143</ele>
        <time>2019-04-14T12:19:54Z</time>
      </trkpt>
      <trkpt lat="44.43612" lon="1.37138">
        <ele>143</ele>
        <time>2019-04-14T12:19:55Z</time>
      </trkpt>
      <trkpt lat="44.43611" lon="1.37142">
        <ele>143</ele>
        <time>2019-04-14T12:19:56Z</time>
      </trkpt>
      <trkpt lat="44.43611" lon="1.37145">
        <ele>143</ele>
        <time>2019-04-14T12:19:57Z</time>
      </trkpt>
      <trkpt lat="44.43611" lon="1.37149">
        <ele>143</ele>
        <time>2019-04-14T12:19:58Z</time>
      </trkpt>
      <trkpt lat="44.4361" lon="1.37151">
        <ele>143</ele>
        <time>2019-04-14T12:19:59Z</time>
      </trkpt>
      <trkpt lat="44.43609" lon="1.37154">
        <ele>143</ele>
        <time>2019-04-14T12:20:00Z</time>
      </trkpt>
      <trkpt lat="44.43608" lon="1.37157">
        <ele>144</ele>
        <time>2019-04-14T12:20:01Z</time>
      </trkpt>
      <trkpt lat="44.43607" lon="1.37161">
        <ele>144</ele>
        <time>2019-04-14T12:20:02Z</time>
      </trkpt>
      <trkpt lat="44.43606" lon="1.37164">
        <ele>144</ele>
        <time>2019-04-14T12:20:03Z</time>
      </trkpt>
      <trkpt lat="44.43606" lon="1.37167">
        <ele>144</ele>
        <time>2019-04-14T12:20:04Z</time>
      </trkpt>
      <trkpt lat="44.43607" lon="1.37169">
        <ele>144</ele>
        <time>2019-04-14T12:20:05Z</time>
      </trkpt>
      <trkpt lat="44.43606" lon="1.37174">
        <ele>144</ele>
        <time>2019-04-14T12:20:06Z</time>
      </trkpt>
      <trkpt lat="44.43605" lon="1.37178">
        <ele>144</ele>
        <time>2019-04-14T12:20:07Z</time>
      </trkpt>
      <trkpt lat="44.43603" lon="1.37182">
        <ele>144</ele>
        <time>2019-04-14T12:20:08Z</time>
      </trkpt>
      <trkpt lat="44.43602" lon="1.37185">
        <ele>144</ele>
        <time>2019-04-14T12:20:09Z</time>
      </trkpt>
      <trkpt lat="44.43602" lon="1.37189">
        <ele>144</ele>
        <time>2019-04-14T12:20:10Z</time>
      </trkpt>
      <trkpt lat="44.436" lon="1.37193">
        <ele>144</ele>
        <time>2019-04-14T12:20:11Z</time>
      </trkpt>
      <trkpt lat="44.43599" lon="1.37198">
        <ele>144</ele>
        <time>2019-04-14T12:20:12Z</time>
      </trkpt>
      <trkpt lat="44.43598" lon="1.37202">
        <ele>144</ele>
        <time>2019-04-14T12:20:13Z</time>
      </trkpt>
      <trkpt lat="44.43597" lon="1.37206">
        <ele>144</ele>
        <time>2019-04-14T12:20:14Z</time>
      </trkpt>
      <trkpt lat="44.43596" lon="1.3721">
        <ele>144</ele>
        <time>2019-04-14T12:20:15Z</time>
      </trkpt>
      <trkpt lat="44.43593" lon="1.37215">
        <ele>144</ele>
        <time>2019-04-14T12:20:16Z</time>
      </trkpt>
      <trkpt lat="44.43591" lon="1.3722">
        <ele>144</ele>
        <time>2019-04-14T12:20:17Z</time>
      </trkpt>
      <trkpt lat="44.4359" lon="1.37224">
        <ele>144</ele>
        <time>2019-04-14T12:20:18Z</time>
      </trkpt>
      <trkpt lat="44.43589" lon="1.37226">
        <ele>144</ele>
        <time>2019-04-14T12:20:19Z</time>
      </trkpt>
      <trkpt lat="44.43588" lon="1.37229">
        <ele>144</ele>
        <time>2019-04-14T12:20:20Z</time>
      </trkpt>
      <trkpt lat="44.43588" lon="1.37231">
        <ele>144</ele>
        <time>2019-04-14T12:20:21Z</time>
      </trkpt>
      <trkpt lat="44.43589" lon="1.37234">
        <ele>144</ele>
        <time>2019-04-14T12:20:22Z</time>
      </trkpt>
      <trkpt lat="44.4359" lon="1.37238">
        <ele>144</ele>
        <time>2019-04-14T12:20:23Z</time>
      </trkpt>
      <trkpt lat="44.43591" lon="1.3724">
        <ele>144</ele>
        <time>2019-04-14T12:20:24Z</time>
      </trkpt>
      <trkpt lat="44.43593" lon="1.37242">
        <ele>143</ele>
        <time>2019-04-14T12:20:25Z</time>
      </trkpt>
      <trkpt lat="44.43595" lon="1.37244">
        <ele>143</ele>
        <time>2019-04-14T12:20:26Z</time>
      </trkpt>
      <trkpt lat="44.43597" lon="1.37247">
        <ele>144</ele>
        <time>2019-04-14T12:20:27Z</time>
      </trkpt>
      <trkpt lat="44.436" lon="1.37248">
        <ele>144</ele>
        <time>2019-04-14T12:20:28Z</time>
      </trkpt>
      <trkpt lat="44.43601" lon="1.3725">
        <ele>144</ele>
        <time>2019-04-14T12:20:29Z</time>
      </trkpt>
      <trkpt lat="44.43603" lon="1.37252">
        <ele>144</ele>
        <time>2019-04-14T12:20:30Z</time>
      </trkpt>
      <trkpt lat="44.43606" lon="1.37253">
        <ele>144</ele>
        <time>2019-04-14T12:20:31Z</time>
      </trkpt>
      <trkpt lat="44.43607" lon="1.37255">
        <ele>144</ele>
        <time>2019-04-14T12:20:32Z</time>
      </trkpt>
      <trkpt lat="44.43609" lon="1.37257">
        <ele>144</ele>
        <time>2019-04-14T12:20:33Z</time>
      </trkpt>
      <trkpt lat="44.43611" lon="1.37258">
        <ele>144</ele>
        <time>2019-04-14T12:20:34Z</time>
      </trkpt>
      <trkpt lat="44.43613" lon="1.37259">
        <ele>144</ele>
        <time>2019-04-14T12:20:35Z</time>
      </trkpt>
      <trkpt lat="44.43614" lon="1.37259">
        <ele>145</ele>
        <time>2019-04-14T12:20:36Z</time>
      </trkpt>
      <trkpt lat="44.43615" lon="1.37261">
        <ele>145</ele>
        <time>2019-04-14T12:20:37Z</time>
      </trkpt>
      <trkpt lat="44.43616" lon="1.37264">
        <ele>145</ele>
        <time>2019-04-14T12:20:38Z</time>
      </trkpt>
      <trkpt lat="44.43616" lon="1.37266">
        <ele>145</ele>
        <time>2019-04-14T12:20:39Z</time>
      </trkpt>
      <trkpt lat="44.43616" lon="1.37268">
        <ele>145</ele>
        <time>2019-04-14T12:20:40Z</time>
      </trkpt>
      <trkpt lat="44.43615" lon="1.37271">
        <ele>145</ele>
        <time>2019-04-14T12:20:41Z</time>
      </trkpt>
      <trkpt lat="44.43614" lon="1.37274">
        <ele>145</ele>
        <time>2019-04-14T12:20:42Z</time>
      </trkpt>
      <trkpt lat="44.43613" lon="1.37277">
        <ele>145</ele>
        <time>2019-04-14T12:20:43Z</time>
      </trkpt>
      <trkpt lat="44.43612" lon="1.3728">
        <ele>145</ele>
        <time>2019-04-14T12:20:44Z</time>
      </trkpt>
      <trkpt lat="44.4361" lon="1.37283">
        <ele>145</ele>
        <time>2019-04-14T12:20:45Z</time>
      </trkpt>
      <trkpt lat="44.43609" lon="1.37287">
        <ele>145</ele>
        <time>2019-04-14T12:20:46Z</time>
      </trkpt>
      <trkpt lat="44.43607" lon="1.37291">
        <ele>145</ele>
        <time>2019-04-14T12:20:47Z</time>
      </trkpt>
      <trkpt lat="44.43606" lon="1.37295">
        <ele>145</ele>
        <time>2019-04-14T12:20:48Z</time>
      </trkpt>
      <trkpt lat="44.43604" lon="1.37299">
        <ele>145</ele>
        <time>2019-04-14T12:20:49Z</time>
      </trkpt>
      <trkpt lat="44.43602" lon="1.37303">
        <ele>145</ele>
        <time>2019-04-14T12:20:50Z</time>
      </trkpt>
      <trkpt lat="44.43601" lon="1.37307">
        <ele>145</ele>
        <time>2019-04-14T12:20:51Z</time>
      </trkpt>
      <trkpt lat="44.43599" lon="1.3731">
        <ele>145</ele>
        <time>2019-04-14T12:20:52Z</time>
      </trkpt>
      <trkpt lat="44.43597" lon="1.37314">
        <ele>145</ele>
        <time>2019-04-14T12:20:53Z</time>
      </trkpt>
      <trkpt lat="44.43596" lon="1.37319">
        <ele>145</ele>
        <time>2019-04-14T12:20:54Z</time>
      </trkpt>
      <trkpt lat="44.43594" lon="1.37321">
        <ele>145</ele>
        <time>2019-04-14T12:20:55Z</time>
      </trkpt>
      <trkpt lat="44.43591" lon="1.37323">
        <ele>145</ele>
        <time>2019-04-14T12:20:56Z</time>
      </trkpt>
      <trkpt lat="44.43588" lon="1.37326">
        <ele>145</ele>
        <time>2019-04-14T12:20:57Z</time>
      </trkpt>
      <trkpt lat="44.43586" lon="1.37328">
        <ele>145</ele>
        <time>2019-04-14T12:20:58Z</time>
      </trkpt>
      <trkpt lat="44.43583" lon="1.37331">
        <ele>145</ele>
        <time>2019-04-14T12:20:59Z</time>
      </trkpt>
      <trkpt lat="44.4358" lon="1.37335">
        <ele>145</ele>
        <time>2019-04-14T12:21:00Z</time>
      </trkpt>
      <trkpt lat="44.43577" lon="1.37339">
        <ele>145</ele>
        <time>2019-04-14T12:21:01Z</time>
      </trkpt>
      <trkpt lat="44.43574" lon="1.37342">
        <ele>145</ele>
        <time>2019-04-14T12:21:02Z</time>
      </trkpt>
      <trkpt lat="44.43571" lon="1.37346">
        <ele>145</ele>
        <time>2019-04-14T12:21:03Z</time>
      </trkpt>
      <trkpt lat="44.43568" lon="1.3735">
        <ele>145</ele>
        <time>2019-04-14T12:21:04Z</time>
      </trkpt>
      <trkpt lat="44.43567" lon="1.37355">
        <ele>145</ele>
        <time>2019-04-14T12:21:05Z</time>
      </trkpt>
      <trkpt lat="44.43565" lon="1.37359">
        <ele>145</ele>
        <time>2019-04-14T12:21:06Z</time>
      </trkpt>
      <trkpt lat="44.43562" lon="1.37363">
        <ele>145</ele>
        <time>2019-04-14T12:21:07Z</time>
      </trkpt>
      <trkpt lat="44.43561" lon="1.37367">
        <ele>145</ele>
        <time>2019-04-14T12:21:08Z</time>
      </trkpt>
      <trkpt lat="44.43559" lon="1.37372">
        <ele>145</ele>
        <time>2019-04-14T12:21:09Z</time>
      </trkpt>
      <trkpt lat="44.43555" lon="1.37374">
        <ele>145</ele>
        <time>2019-04-14T12:21:10Z</time>
      </trkpt>
      <trkpt lat="44.43552" lon="1.37376">
        <ele>145</ele>
        <time>2019-04-14T12:21:11Z</time>
      </trkpt>
      <trkpt lat="44.43548" lon="1.37378">
        <ele>145</ele>
        <time>2019-04-14T12:21:12Z</time>
      </trkpt>
      <trkpt lat="44.43543" lon="1.37378">
        <ele>145</ele>
        <time>2019-04-14T12:21:13Z</time>
      </trkpt>
      <trkpt lat="44.43538" lon="1.37378">
        <ele>145</ele>
        <time>2019-04-14T12:21:14Z</time>
      </trkpt>
      <trkpt lat="44.43534" lon="1.3738">
        <ele>145</ele>
        <time>2019-04-14T12:21:15Z</time>
      </trkpt>
      <trkpt lat="44.43529" lon="1.37384">
        <ele>145</ele>
        <time>2019-04-14T12:21:16Z</time>
      </trkpt>
      <trkpt lat="44.43525" lon="1.37387">
        <ele>145</ele>
        <time>2019-04-14T12:21:17Z</time>
      </trkpt>
      <trkpt lat="44.43522" lon="1.37389">
        <ele>145</ele>
        <time>2019-04-14T12:21:18Z</time>
      </trkpt>
      <trkpt lat="44.43518" lon="1.37391">
        <ele>145</ele>
        <time>2019-04-14T12:21:19Z</time>
      </trkpt>
      <trkpt lat="44.43514" lon="1.37392">
        <ele>146</ele>
        <time>2019-04-14T12:21:20Z</time>
      </trkpt>
      <trkpt lat="44.4351" lon="1.37393">
        <ele>145</ele>
        <time>2019-04-14T12:21:21Z</time>
      </trkpt>
      <trkpt lat="44.43507" lon="1.37395">
        <ele>145</ele>
        <time>2019-04-14T12:21:22Z</time>
      </trkpt>
      <trkpt lat="44.43503" lon="1.37396">
        <ele>146</ele>
        <time>2019-04-14T12:21:23Z</time>
      </trkpt>
      <trkpt lat="44.435" lon="1.37397">
        <ele>146</ele>
        <time>2019-04-14T12:21:24Z</time>
      </trkpt>
      <trkpt lat="44.43497" lon="1.37396">
        <ele>146</ele>
        <time>2019-04-14T12:21:25Z</time>
      </trkpt>
      <trkpt lat="44.43494" lon="1.37396">
        <ele>146</ele>
        <time>2019-04-14T12:21:26Z</time>
      </trkpt>
      <trkpt lat="44.43491" lon="1.37397">
        <ele>146</ele>
        <time>2019-04-14T12:21:27Z</time>
      </trkpt>
      <trkpt lat="44.43488" lon="1.374">
        <ele>146</ele>
        <time>2019-04-14T12:21:28Z</time>
      </trkpt>
      <trkpt lat="44.43486" lon="1.37402">
        <ele>146</ele>
        <time>2019-04-14T12:21:29Z</time>
      </trkpt>
      <trkpt lat="44.43483" lon="1.37403">
        <ele>147</ele>
        <time>2019-04-14T12:21:30Z</time>
      </trkpt>
      <trkpt lat="44.43481" lon="1.37403">
        <ele>147</ele>
        <time>2019-04-14T12:21:31Z</time>
      </trkpt>
      <trkpt lat="44.43478" lon="1.37403">
        <ele>147</ele>
        <time>2019-04-14T12:21:32Z</time>
      </trkpt>
      <trkpt lat="44.43474" lon="1.37405">
        <ele>147</ele>
        <time>2019-04-14T12:21:33Z</time>
      </trkpt>
      <trkpt lat="44.43471" lon="1.37407">
        <ele>147</ele>
        <time>2019-04-14T12:21:34Z</time>
      </trkpt>
      <trkpt lat="44.43467" lon="1.37408">
        <ele>147</ele>
        <time>2019-04-14T12:21:35Z</time>
      </trkpt>
      <trkpt lat="44.43463" lon="1.37412">
        <ele>147</ele>
        <time>2019-04-14T12:21:36Z</time>
      </trkpt>
      <trkpt lat="44.43461" lon="1.37415">
        <ele>148</ele>
        <time>2019-04-14T12:21:37Z</time>
      </trkpt>
      <trkpt lat="44.43458" lon="1.37417">
        <ele>148</ele>
        <time>2019-04-14T12:21:38Z</time>
      </trkpt>
      <trkpt lat="44.43454" lon="1.37417">
        <ele>149</ele>
        <time>2019-04-14T12:21:39Z</time>
      </trkpt>
      <trkpt lat="44.4345" lon="1.37416">
        <ele>148</ele>
        <time>2019-04-14T12:21:40Z</time>
      </trkpt>
      <trkpt lat="44.43446" lon="1.37416">
        <ele>148</ele>
        <time>2019-04-14T12:21:41Z</time>
      </trkpt>
      <trkpt lat="44.43443" lon="1.37418">
        <ele>148</ele>
        <time>2019-04-14T12:21:42Z</time>
      </trkpt>
      <trkpt lat="44.4344" lon="1.3742">
        <ele>148</ele>
        <time>2019-04-14T12:21:43Z</time>
      </trkpt>
      <trkpt lat="44.43437" lon="1.37421">
        <ele>148</ele>
        <time>2019-04-14T12:21:44Z</time>
      </trkpt>
      <trkpt lat="44.43433" lon="1.37422">
        <ele>148</ele>
        <time>2019-04-14T12:21:45Z</time>
      </trkpt>
      <trkpt lat="44.43429" lon="1.37423">
        <ele>148</ele>
        <time>2019-04-14T12:21:46Z</time>
      </trkpt>
      <trkpt lat="44.43426" lon="1.37424">
        <ele>148</ele>
        <time>2019-04-14T12:21:47Z</time>
      </trkpt>
      <trkpt lat="44.43422" lon="1.37426">
        <ele>148</ele>
        <time>2019-04-14T12:21:48Z</time>
      </trkpt>
      <trkpt lat="44.43419" lon="1.37428">
        <ele>148</ele>
        <time>2019-04-14T12:21:49Z</time>
      </trkpt>
      <trkpt lat="44.43416" lon="1.3743">
        <ele>148</ele>
        <time>2019-04-14T12:21:50Z</time>
      </trkpt>
      <trkpt lat="44.43412" lon="1.37429">
        <ele>148</ele>
        <time>2019-04-14T12:21:51Z</time>
      </trkpt>
      <trkpt lat="44.43408" lon="1.37428">
        <ele>148</ele>
        <time>2019-04-14T12:21:52Z</time>
      </trkpt>
      <trkpt lat="44.43404" lon="1.37429">
        <ele>148</ele>
        <time>2019-04-14T12:21:53Z</time>
      </trkpt>
      <trkpt lat="44.434" lon="1.3743">
        <ele>148</ele>
        <time>2019-04-14T12:21:54Z</time>
      </trkpt>
      <trkpt lat="44.43397" lon="1.37431">
        <ele>148</ele>
        <time>2019-04-14T12:21:55Z</time>
      </trkpt>
      <trkpt lat="44.43395" lon="1.37432">
        <ele>148</ele>
        <time>2019-04-14T12:21:56Z</time>
      </trkpt>
      <trkpt lat="44.43393" lon="1.37433">
        <ele>148</ele>
        <time>2019-04-14T12:21:57Z</time>
      </trkpt>
      <trkpt lat="44.43392" lon="1.37434">
        <ele>148</ele>
        <time>2019-04-14T12:21:58Z</time>
      </trkpt>
      <trkpt lat="44.43391" lon="1.37434">
        <ele>148</ele>
        <time>2019-04-14T12:21:59Z</time>
      </trkpt>
      <trkpt lat="44.4339" lon="1.37435">
        <ele>148</ele>
        <time>2019-04-14T12:22:00Z</time>
      </trkpt>
      <trkpt lat="44.43389" lon="1.37436">
        <ele>148</ele>
        <time>2019-04-14T12:22:01Z</time>
      </trkpt>
      <trkpt lat="44.43388" lon="1.37437">
        <ele>148</ele>
        <time>2019-04-14T12:22:02Z</time>
      </trkpt>
      <trkpt lat="44.43385" lon="1.37439">
        <ele>149</ele>
        <time>2019-04-14T12:22:03Z</time>
      </trkpt>
      <trkpt lat="44.43383" lon="1.37441">
        <ele>149</ele>
        <time>2019-04-14T12:22:04Z</time>
      </trkpt>
      <trkpt lat="44.43383" lon="1.37442">
        <ele>149</ele>
        <time>2019-04-14T12:22:05Z</time>
      </trkpt>
      <trkpt lat="44.43383" lon="1.37442">
        <ele>149</ele>
        <time>2019-04-14T12:22:06Z</time>
      </trkpt>
      <trkpt lat="44.43382" lon="1.37442">
        <ele>149</ele>
        <time>2019-04-14T12:22:07Z</time>
      </trkpt>
      <trkpt lat="44.43382" lon="1.37441">
        <ele>149</ele>
        <time>2019-04-14T12:22:08Z</time>
      </trkpt>
      <trkpt lat="44.43381" lon="1.37441">
        <ele>149</ele>
        <time>2019-04-14T12:22:09Z</time>
      </trkpt>
      <trkpt lat="44.43381" lon="1.37441">
        <ele>149</ele>
        <time>2019-04-14T12:22:10Z</time>
      </trkpt>
      <trkpt lat="44.43381" lon="1.3744">
        <ele>149</ele>
        <time>2019-04-14T12:22:11Z</time>
      </trkpt>
      <trkpt lat="44.43381" lon="1.3744">
        <ele>149</ele>
        <time>2019-04-14T12:22:12Z</time>
      </trkpt>
      <trkpt lat="44.43356" lon="1.37453">
        <ele>149</ele>
        <time>2019-04-14T12:24:24Z</time>
      </trkpt>
      <trkpt lat="44.43354" lon="1.37456">
        <ele>149</ele>
        <time>2019-04-14T12:24:25Z</time>
      </trkpt>
      <trkpt lat="44.43351" lon="1.37457">
        <ele>150</ele>
        <time>2019-04-14T12:24:26Z</time>
      </trkpt>
      <trkpt lat="44.43349" lon="1.37459">
        <ele>150</ele>
        <time>2019-04-14T12:24:27Z</time>
      </trkpt>
      <trkpt lat="44.43348" lon="1.37459">
        <ele>150</ele>
        <time>2019-04-14T12:24:28Z</time>
      </trkpt>
      <trkpt lat="44.43345" lon="1.3746">
        <ele>150</ele>
        <time>2019-04-14T12:24:29Z</time>
      </trkpt>
      <trkpt lat="44.43343" lon="1.37461">
        <ele>150</ele>
        <time>2019-04-14T12:24:30Z</time>
      </trkpt>
      <trkpt lat="44.43341" lon="1.37462">
        <ele>150</ele>
        <time>2019-04-14T12:24:31Z</time>
      </trkpt>
      <trkpt lat="44.43339" lon="1.37463">
        <ele>150</ele>
        <time>2019-04-14T12:24:32Z</time>
      </trkpt>
      <trkpt lat="44.43336" lon="1.37464">
        <ele>150</ele>
        <time>2019-04-14T12:24:33Z</time>
      </trkpt>
      <trkpt lat="44.43334" lon="1.37466">
        <ele>150</ele>
        <time>2019-04-14T12:24:34Z</time>
      </trkpt>
      <trkpt lat="44.43332" lon="1.37468">
        <ele>150</ele>
        <time>2019-04-14T12:24:35Z</time>
      </trkpt>
      <trkpt lat="44.4333" lon="1.37469">
        <ele>150</ele>
        <time>2019-04-14T12:24:36Z</time>
      </trkpt>
      <trkpt lat="44.43329" lon="1.37471">
        <ele>151</ele>
        <time>2019-04-14T12:24:37Z</time>
      </trkpt>
      <trkpt lat="44.43327" lon="1.37473">
        <ele>151</ele>
        <time>2019-04-14T12:24:38Z</time>
      </trkpt>
      <trkpt lat="44.43326" lon="1.37474">
        <ele>151</ele>
        <time>2019-04-14T12:24:39Z</time>
      </trkpt>
      <trkpt lat="44.43323" lon="1.37474">
        <ele>151</ele>
        <time>2019-04-14T12:24:40Z</time>
      </trkpt>
      <trkpt lat="44.43322" lon="1.37475">
        <ele>151</ele>
        <time>2019-04-14T12:24:41Z</time>
      </trkpt>
      <trkpt lat="44.43321" lon="1.37476">
        <ele>151</ele>
        <time>2019-04-14T12:24:42Z</time>
      </trkpt>
      <trkpt lat="44.43319" lon="1.37478">
        <ele>151</ele>
        <time>2019-04-14T12:24:43Z</time>
      </trkpt>
      <trkpt lat="44.43317" lon="1.3748">
        <ele>151</ele>
        <time>2019-04-14T12:24:44Z</time>
      </trkpt>
      <trkpt lat="44.43314" lon="1.37482">
        <ele>151</ele>
        <time>2019-04-14T12:24:45Z</time>
      </trkpt>
      <trkpt lat="44.43312" lon="1.37483">
        <ele>151</ele>
        <time>2019-04-14T12:24:46Z</time>
      </trkpt>
      <trkpt lat="44.4331" lon="1.37485">
        <ele>152</ele>
        <time>2019-04-14T12:24:47Z</time>
      </trkpt>
      <trkpt lat="44.43308" lon="1.37486">
        <ele>152</ele>
        <time>2019-04-14T12:24:48Z</time>
      </trkpt>
      <trkpt lat="44.43306" lon="1.37487">
        <ele>152</ele>
        <time>2019-04-14T12:24:49Z</time>
      </trkpt>
      <trkpt lat="44.43304" lon="1.37488">
        <ele>152</ele>
        <time>2019-04-14T12:24:50Z</time>
      </trkpt>
      <trkpt lat="44.43303" lon="1.37489">
        <ele>152</ele>
        <time>2019-04-14T12:24:51Z</time>
      </trkpt>
      <trkpt lat="44.433" lon="1.37491">
        <ele>152</ele>
        <time>2019-04-14T12:24:52Z</time>
      </trkpt>
      <trkpt lat="44.43298" lon="1.37492">
        <ele>153</ele>
        <time>2019-04-14T12:24:53Z</time>
      </trkpt>
      <trkpt lat="44.43297" lon="1.37493">
        <ele>153</ele>
        <time>2019-04-14T12:24:54Z</time>
      </trkpt>
      <trkpt lat="44.43296" lon="1.37493">
        <ele>153</ele>
        <time>2019-04-14T12:24:55Z</time>
      </trkpt>
      <trkpt lat="44.43296" lon="1.37493">
        <ele>153</ele>
        <time>2019-04-14T12:24:56Z</time>
      </trkpt>
      <trkpt lat="44.43294" lon="1.37493">
        <ele>153</ele>
        <time>2019-04-14T12:24:57Z</time>
      </trkpt>
      <trkpt lat="44.43291" lon="1.37493">
        <ele>152</ele>
        <time>2019-04-14T12:24:58Z</time>
      </trkpt>
      <trkpt lat="44.43287" lon="1.37494">
        <ele>152</ele>
        <time>2019-04-14T12:24:59Z</time>
      </trkpt>
      <trkpt lat="44.43284" lon="1.37495">
        <ele>152</ele>
        <time>2019-04-14T12:25:00Z</time>
      </trkpt>
      <trkpt lat="44.43281" lon="1.37497">
        <ele>152</ele>
        <time>2019-04-14T12:25:01Z</time>
      </trkpt>
      <trkpt lat="44.43279" lon="1.37499">
        <ele>152</ele>
        <time>2019-04-14T12:25:02Z</time>
      </trkpt>
      <trkpt lat="44.43277" lon="1.37501">
        <ele>152</ele>
        <time>2019-04-14T12:25:03Z</time>
      </trkpt>
      <trkpt lat="44.43274" lon="1.37503">
        <ele>152</ele>
        <time>2019-04-14T12:25:04Z</time>
      </trkpt>
      <trkpt lat="44.43271" lon="1.37503">
        <ele>152</ele>
        <time>2019-04-14T12:25:05Z</time>
      </trkpt>
      <trkpt lat="44.43268" lon="1.37503">
        <ele>152</ele>
        <time>2019-04-14T12:25:06Z</time>
      </trkpt>
      <trkpt lat="44.43265" lon="1.37506">
        <ele>152</ele>
        <time>2019-04-14T12:25:07Z</time>
      </trkpt>
      <trkpt lat="44.43263" lon="1.37508">
        <ele>152</ele>
        <time>2019-04-14T12:25:08Z</time>
      </trkpt>
      <trkpt lat="44.43261" lon="1.3751">
        <ele>152</ele>
        <time>2019-04-14T12:25:09Z</time>
      </trkpt>
      <trkpt lat="44.43259" lon="1.37511">
        <ele>152</ele>
        <time>2019-04-14T12:25:10Z</time>
      </trkpt>
      <trkpt lat="44.43257" lon="1.37513">
        <ele>152</ele>
        <time>2019-04-14T12:25:11Z</time>
      </trkpt>
      <trkpt lat="44.43255" lon="1.37514">
        <ele>153</ele>
        <time>2019-04-14T12:25:12Z</time>
      </trkpt>
      <trkpt lat="44.43252" lon="1.37515">
        <ele>152</ele>
        <time>2019-04-14T12:25:13Z</time>
      </trkpt>
      <trkpt lat="44.43248" lon="1.37516">
        <ele>152</ele>
        <time>2019-04-14T12:25:14Z</time>
      </trkpt>
      <trkpt lat="44.43246" lon="1.37519">
        <ele>152</ele>
        <time>2019-04-14T12:25:15Z</time>
      </trkpt>
      <trkpt lat="44.43244" lon="1.37521">
        <ele>152</ele>
        <time>2019-04-14T12:25:16Z</time>
      </trkpt>
      <trkpt lat="44.43242" lon="1.37523">
        <ele>152</ele>
        <time>2019-04-14T12:25:17Z</time>
      </trkpt>
      <trkpt lat="44.4324" lon="1.37524">
        <ele>152</ele>
        <time>2019-04-14T12:25:18Z</time>
      </trkpt>
      <trkpt lat="44.43237" lon="1.37525">
        <ele>152</ele>
        <time>2019-04-14T12:25:19Z</time>
      </trkpt>
      <trkpt lat="44.43234" lon="1.37527">
        <ele>153</ele>
        <time>2019-04-14T12:25:20Z</time>
      </trkpt>
      <trkpt lat="44.43231" lon="1.37528">
        <ele>152</ele>
        <time>2019-04-14T12:25:21Z</time>
      </trkpt>
      <trkpt lat="44.43228" lon="1.37529">
        <ele>153</ele>
        <time>2019-04-14T12:25:22Z</time>
      </trkpt>
      <trkpt lat="44.43226" lon="1.37531">
        <ele>153</ele>
        <time>2019-04-14T12:25:23Z</time>
      </trkpt>
      <trkpt lat="44.43223" lon="1.37533">
        <ele>153</ele>
        <time>2019-04-14T12:25:24Z</time>
      </trkpt>
      <trkpt lat="44.43221" lon="1.37536">
        <ele>153</ele>
        <time>2019-04-14T12:25:25Z</time>
      </trkpt>
      <trkpt lat="44.43219" lon="1.37537">
        <ele>153</ele>
        <time>2019-04-14T12:25:26Z</time>
      </trkpt>
      <trkpt lat="44.43217" lon="1.37538">
        <ele>153</ele>
        <time>2019-04-14T12:25:27Z</time>
      </trkpt>
      <trkpt lat="44.43215" lon="1.37539">
        <ele>153</ele>
        <time>2019-04-14T12:25:28Z</time>
      </trkpt>
      <trkpt lat="44.43214" lon="1.3754">
        <ele>153</ele>
        <time>2019-04-14T12:25:29Z</time>
      </trkpt>
      <trkpt lat="44.43212" lon="1.37542">
        <ele>153</ele>
        <time>2019-04-14T12:25:30Z</time>
      </trkpt>
      <trkpt lat="44.43209" lon="1.37544">
        <ele>153</ele>
        <time>2019-04-14T12:25:31Z</time>
      </trkpt>
      <trkpt lat="44.43207" lon="1.37547">
        <ele>153</ele>
        <time>2019-04-14T12:25:32Z</time>
      </trkpt>
      <trkpt lat="44.43204" lon="1.37549">
        <ele>153</ele>
        <time>2019-04-14T12:25:33Z</time>
      </trkpt>
      <trkpt lat="44.43202" lon="1.37553">
        <ele>153</ele>
        <time>2019-04-14T12:25:34Z</time>
      </trkpt>
      <trkpt lat="44.432" lon="1.37557">
        <ele>153</ele>
        <time>2019-04-14T12:25:35Z</time>
      </trkpt>
      <trkpt lat="44.43198" lon="1.37561">
        <ele>154</ele>
        <time>2019-04-14T12:25:36Z</time>
      </trkpt>
      <trkpt lat="44.43196" lon="1.37564">
        <ele>154</ele>
        <time>2019-04-14T12:25:37Z</time>
      </trkpt>
      <trkpt lat="44.43193" lon="1.37567">
        <ele>154</ele>
        <time>2019-04-14T12:25:38Z</time>
      </trkpt>
      <trkpt lat="44.43192" lon="1.37571">
        <ele>154</ele>
        <time>2019-04-14T12:25:39Z</time>
      </trkpt>
      <trkpt lat="44.4319" lon="1.37575">
        <ele>154</ele>
        <time>2019-04-14T12:25:40Z</time>
      </trkpt>
      <trkpt lat="44.43189" lon="1.37579">
        <ele>155</ele>
        <time>2019-04-14T12:25:41Z</time>
      </trkpt>
      <trkpt lat="44.43189" lon="1.37583">
        <ele>155</ele>
        <time>2019-04-14T12:25:42Z</time>
      </trkpt>
      <trkpt lat="44.43188" lon="1.37585">
        <ele>155</ele>
        <time>2019-04-14T12:25:43Z</time>
      </trkpt>
      <trkpt lat="44.43188" lon="1.37588">
        <ele>156</ele>
        <time>2019-04-14T12:25:44Z</time>
      </trkpt>
      <trkpt lat="44.43187" lon="1.3759">
        <ele>156</ele>
        <time>2019-04-14T12:25:45Z</time>
      </trkpt>
      <trkpt lat="44.43186" lon="1.37592">
        <ele>156</ele>
        <time>2019-04-14T12:25:46Z</time>
      </trkpt>
      <trkpt lat="44.43185" lon="1.37594">
        <ele>157</ele>
        <time>2019-04-14T12:25:47Z</time>
      </trkpt>
      <trkpt lat="44.43183" lon="1.37595">
        <ele>156</ele>
        <time>2019-04-14T12:25:48Z</time>
      </trkpt>
      <trkpt lat="44.43182" lon="1.37597">
        <ele>156</ele>
        <time>2019-04-14T12:25:49Z</time>
      </trkpt>
      <trkpt lat="44.43181" lon="1.376">
        <ele>157</ele>
        <time>2019-04-14T12:25:50Z</time>
      </trkpt>
      <trkpt lat="44.4318" lon="1.37603">
        <ele>157</ele>
        <time>2019-04-14T12:25:51Z</time>
      </trkpt>
      <trkpt lat="44.43178" lon="1.37604">
        <ele>157</ele>
        <time>2019-04-14T12:25:52Z</time>
      </trkpt>
      <trkpt lat="44.43174" lon="1.37608">
        <ele>157</ele>
        <time>2019-04-14T12:25:53Z</time>
      </trkpt>
      <trkpt lat="44.43171" lon="1.37612">
        <ele>156</ele>
        <time>2019-04-14T12:25:54Z</time>
      </trkpt>
      <trkpt lat="44.43169" lon="1.37616">
        <ele>156</ele>
        <time>2019-04-14T12:25:55Z</time>
      </trkpt>
      <trkpt lat="44.43168" lon="1.3762">
        <ele>157</ele>
        <time>2019-04-14T12:25:56Z</time>
      </trkpt>
      <trkpt lat="44.43168" lon="1.37623">
        <ele>157</ele>
        <time>2019-04-14T12:25:57Z</time>
      </trkpt>
      <trkpt lat="44.43168" lon="1.37627">
        <ele>157</ele>
        <time>2019-04-14T12:25:58Z</time>
      </trkpt>
      <trkpt lat="44.43167" lon="1.37631">
        <ele>157</ele>
        <time>2019-04-14T12:25:59Z</time>
      </trkpt>
      <trkpt lat="44.43167" lon="1.37634">
        <ele>158</ele>
        <time>2019-04-14T12:26:00Z</time>
      </trkpt>
      <trkpt lat="44.43166" lon="1.37638">
        <ele>158</ele>
        <time>2019-04-14T12:26:01Z</time>
      </trkpt>
      <trkpt lat="44.43164" lon="1.37641">
        <ele>158</ele>
        <time>2019-04-14T12:26:02Z</time>
      </trkpt>
      <trkpt lat="44.43163" lon="1.37644">
        <ele>158</ele>
        <time>2019-04-14T12:26:03Z</time>
      </trkpt>
      <trkpt lat="44.43161" lon="1.37646">
        <ele>158</ele>
        <time>2019-04-14T12:26:04Z</time>
      </trkpt>
      <trkpt lat="44.43161" lon="1.37649">
        <ele>158</ele>
        <time>2019-04-14T12:26:05Z</time>
      </trkpt>
      <trkpt lat="44.43161" lon="1.37653">
        <ele>158</ele>
        <time>2019-04-14T12:26:06Z</time>
      </trkpt>
      <trkpt lat="44.43162" lon="1.37657">
        <ele>158</ele>
        <time>2019-04-14T12:26:07Z</time>
      </trkpt>
      <trkpt lat="44.43163" lon="1.3766">
        <ele>159</ele>
        <time>2019-04-14T12:26:08Z</time>
      </trkpt>
      <trkpt lat="44.43163" lon="1.37662">
        <ele>159</ele>
        <time>2019-04-14T12:26:09Z</time>
      </trkpt>
      <trkpt lat="44.43163" lon="1.37665">
        <ele>160</ele>
        <time>2019-04-14T12:26:10Z</time>
      </trkpt>
      <trkpt lat="44.43163" lon="1.37667">
        <ele>160</ele>
        <time>2019-04-14T12:26:11Z</time>
      </trkpt>
      <trkpt lat="44.43162" lon="1.3767">
        <ele>160</ele>
        <time>2019-04-14T12:26:12Z</time>
      </trkpt>
      <trkpt lat="44.43161" lon="1.37672">
        <ele>160</ele>
        <time>2019-04-14T12:26:13Z</time>
      </trkpt>
      <trkpt lat="44.43158" lon="1.37674">
        <ele>160</ele>
        <time>2019-04-14T12:26:14Z</time>
      </trkpt>
      <trkpt lat="44.43156" lon="1.37678">
        <ele>159</ele>
        <time>2019-04-14T12:26:15Z</time>
      </trkpt>
      <trkpt lat="44.43154" lon="1.37681">
        <ele>159</ele>
        <time>2019-04-14T12:26:16Z</time>
      </trkpt>
      <trkpt lat="44.43152" lon="1.37684">
        <ele>159</ele>
        <time>2019-04-14T12:26:17Z</time>
      </trkpt>
      <trkpt lat="44.4315" lon="1.37687">
        <ele>159</ele>
        <time>2019-04-14T12:26:18Z</time>
      </trkpt>
      <trkpt lat="44.43147" lon="1.37689">
        <ele>159</ele>
        <time>2019-04-14T12:26:19Z</time>
      </trkpt>
      <trkpt lat="44.43143" lon="1.37688">
        <ele>159</ele>
        <time>2019-04-14T12:26:20Z</time>
      </trkpt>
      <trkpt lat="44.43141" lon="1.37686">
        <ele>159</ele>
        <time>2019-04-14T12:26:21Z</time>
      </trkpt>
      <trkpt lat="44.43138" lon="1.37683">
        <ele>159</ele>
        <time>2019-04-14T12:26:22Z</time>
      </trkpt>
      <trkpt lat="44.43136" lon="1.37681">
        <ele>158</ele>
        <time>2019-04-14T12:26:23Z</time>
      </trkpt>
      <trkpt lat="44.43136" lon="1.37678">
        <ele>158</ele>
        <time>2019-04-14T12:26:24Z</time>
      </trkpt>
      <trkpt lat="44.43136" lon="1.37674">
        <ele>158</ele>
        <time>2019-04-14T12:26:25Z</time>
      </trkpt>
      <trkpt lat="44.43136" lon="1.3767">
        <ele>158</ele>
        <time>2019-04-14T12:26:26Z</time>
      </trkpt>
      <trkpt lat="44.43136" lon="1.37665">
        <ele>158</ele>
        <time>2019-04-14T12:26:27Z</time>
      </trkpt>
      <trkpt lat="44.43137" lon="1.3766">
        <ele>157</ele>
        <time>2019-04-14T12:26:28Z</time>
      </trkpt>
      <trkpt lat="44.43136" lon="1.37655">
        <ele>157</ele>
        <time>2019-04-14T12:26:29Z</time>
      </trkpt>
      <trkpt lat="44.43136" lon="1.3765">
        <ele>157</ele>
        <time>2019-04-14T12:26:30Z</time>
      </trkpt>
      <trkpt lat="44.43136" lon="1.37645">
        <ele>157</ele>
        <time>2019-04-14T12:26:31Z</time>
      </trkpt>
      <trkpt lat="44.43136" lon="1.37639">
        <ele>156</ele>
        <time>2019-04-14T12:26:32Z</time>
      </trkpt>
      <trkpt lat="44.43136" lon="1.37634">
        <ele>156</ele>
        <time>2019-04-14T12:26:33Z</time>
      </trkpt>
      <trkpt lat="44.43137" lon="1.37629">
        <ele>156</ele>
        <time>2019-04-14T12:26:34Z</time>
      </trkpt>
      <trkpt lat="44.43138" lon="1.37622">
        <ele>156</ele>
        <time>2019-04-14T12:26:35Z</time>
      </trkpt>
      <trkpt lat="44.43139" lon="1.37617">
        <ele>155</ele>
        <time>2019-04-14T12:26:36Z</time>
      </trkpt>
      <trkpt lat="44.43142" lon="1.37612">
        <ele>155</ele>
        <time>2019-04-14T12:26:37Z</time>
      </trkpt>
      <trkpt lat="44.43145" lon="1.37607">
        <ele>155</ele>
        <time>2019-04-14T12:26:38Z</time>
      </trkpt>
      <trkpt lat="44.43146" lon="1.37602">
        <ele>154</ele>
        <time>2019-04-14T12:26:39Z</time>
      </trkpt>
      <trkpt lat="44.43148" lon="1.37598">
        <ele>154</ele>
        <time>2019-04-14T12:26:40Z</time>
      </trkpt>
      <trkpt lat="44.43149" lon="1.37595">
        <ele>154</ele>
        <time>2019-04-14T12:26:41Z</time>
      </trkpt>
      <trkpt lat="44.43149" lon="1.37593">
        <ele>154</ele>
        <time>2019-04-14T12:26:42Z</time>
      </trkpt>
      <trkpt lat="44.43149" lon="1.3759">
        <ele>154</ele>
        <time>2019-04-14T12:26:43Z</time>
      </trkpt>
      <trkpt lat="44.43148" lon="1.37587">
        <ele>154</ele>
        <time>2019-04-14T12:26:44Z</time>
      </trkpt>
      <trkpt lat="44.43147" lon="1.37585">
        <ele>154</ele>
        <time>2019-04-14T12:26:45Z</time>
      </trkpt>
      <trkpt lat="44.43146" lon="1.37583">
        <ele>154</ele>
        <time>2019-04-14T12:26:46Z</time>
      </trkpt>
      <trkpt lat="44.43144" lon="1.37581">
        <ele>155</ele>
        <time>2019-04-14T12:26:47Z</time>
      </trkpt>
      <trkpt lat="44.43142" lon="1.3758">
        <ele>155</ele>
        <time>2019-04-14T12:26:48Z</time>
      </trkpt>
      <trkpt lat="44.4314" lon="1.37579">
        <ele>155</ele>
        <time>2019-04-14T12:26:49Z</time>
      </trkpt>
      <trkpt lat="44.43137" lon="1.37578">
        <ele>155</ele>
        <time>2019-04-14T12:26:50Z</time>
      </trkpt>
      <trkpt lat="44.43135" lon="1.37577">
        <ele>156</ele>
        <time>2019-04-14T12:26:51Z</time>
      </trkpt>
      <trkpt lat="44.43133" lon="1.37575">
        <ele>156</ele>
        <time>2019-04-14T12:26:52Z</time>
      </trkpt>
      <trkpt lat="44.43131" lon="1.37574">
        <ele>156</ele>
        <time>2019-04-14T12:26:53Z</time>
      </trkpt>
      <trkpt lat="44.43129" lon="1.37574">
        <ele>156</ele>
        <time>2019-04-14T12:26:54Z</time>
      </trkpt>
      <trkpt lat="44.43126" lon="1.37573">
        <ele>157</ele>
        <time>2019-04-14T12:26:55Z</time>
      </trkpt>
      <trkpt lat="44.43124" lon="1.37574">
        <ele>157</ele>
        <time>2019-04-14T12:26:56Z</time>
      </trkpt>
      <trkpt lat="44.43121" lon="1.37574">
        <ele>157</ele>
        <time>2019-04-14T12:26:57Z</time>
      </trkpt>
      <trkpt lat="44.43118" lon="1.37574">
        <ele>157</ele>
        <time>2019-04-14T12:26:58Z</time>
      </trkpt>
      <trkpt lat="44.43115" lon="1.37575">
        <ele>157</ele>
        <time>2019-04-14T12:26:59Z</time>
      </trkpt>
      <trkpt lat="44.43112" lon="1.37576">
        <ele>157</ele>
        <time>2019-04-14T12:27:00Z</time>
      </trkpt>
      <trkpt lat="44.4311" lon="1.37577">
        <ele>157</ele>
        <time>2019-04-14T12:27:01Z</time>
      </trkpt>
      <trkpt lat="44.43107" lon="1.37578">
        <ele>157</ele>
        <time>2019-04-14T12:27:02Z</time>
      </trkpt>
      <trkpt lat="44.43104" lon="1.37578">
        <ele>157</ele>
        <time>2019-04-14T12:27:03Z</time>
      </trkpt>
      <trkpt lat="44.43101" lon="1.37578">
        <ele>157</ele>
        <time>2019-04-14T12:27:04Z</time>
      </trkpt>
      <trkpt lat="44.43098" lon="1.37578">
        <ele>157</ele>
        <time>2019-04-14T12:27:05Z</time>
      </trkpt>
      <trkpt lat="44.43095" lon="1.37579">
        <ele>157</ele>
        <time>2019-04-14T12:27:06Z</time>
      </trkpt>
      <trkpt lat="44.43092" lon="1.3758">
        <ele>157</ele>
        <time>2019-04-14T12:27:07Z</time>
      </trkpt>
      <trkpt lat="44.43089" lon="1.3758">
        <ele>157</ele>
        <time>2019-04-14T12:27:08Z</time>
      </trkpt>
      <trkpt lat="44.43086" lon="1.3758">
        <ele>158</ele>
        <time>2019-04-14T12:27:09Z</time>
      </trkpt>
      <trkpt lat="44.43083" lon="1.3758">
        <ele>158</ele>
        <time>2019-04-14T12:27:10Z</time>
      </trkpt>
      <trkpt lat="44.4308" lon="1.3758">
        <ele>158</ele>
        <time>2019-04-14T12:27:11Z</time>
      </trkpt>
      <trkpt lat="44.43076" lon="1.37581">
        <ele>158</ele>
        <time>2019-04-14T12:27:12Z</time>
      </trkpt>
      <trkpt lat="44.43073" lon="1.37582">
        <ele>158</ele>
        <time>2019-04-14T12:27:13Z</time>
      </trkpt>
      <trkpt lat="44.43071" lon="1.37584">
        <ele>158</ele>
        <time>2019-04-14T12:27:14Z</time>
      </trkpt>
      <trkpt lat="44.43068" lon="1.37585">
        <ele>158</ele>
        <time>2019-04-14T12:27:15Z</time>
      </trkpt>
      <trkpt lat="44.43065" lon="1.37585">
        <ele>158</ele>
        <time>2019-04-14T12:27:16Z</time>
      </trkpt>
      <trkpt lat="44.43062" lon="1.37586">
        <ele>158</ele>
        <time>2019-04-14T12:27:17Z</time>
      </trkpt>
      <trkpt lat="44.4306" lon="1.37585">
        <ele>158</ele>
        <time>2019-04-14T12:27:18Z</time>
      </trkpt>
      <trkpt lat="44.43057" lon="1.37586">
        <ele>158</ele>
        <time>2019-04-14T12:27:19Z</time>
      </trkpt>
      <trkpt lat="44.43054" lon="1.37587">
        <ele>158</ele>
        <time>2019-04-14T12:27:20Z</time>
      </trkpt>
      <trkpt lat="44.43052" lon="1.37588">
        <ele>158</ele>
        <time>2019-04-14T12:27:21Z</time>
      </trkpt>
      <trkpt lat="44.43048" lon="1.37593">
        <ele>158</ele>
        <time>2019-04-14T12:27:22Z</time>
      </trkpt>
      <trkpt lat="44.43044" lon="1.37595">
        <ele>158</ele>
        <time>2019-04-14T12:27:23Z</time>
      </trkpt>
      <trkpt lat="44.43041" lon="1.37594">
        <ele>158</ele>
        <time>2019-04-14T12:27:24Z</time>
      </trkpt>
      <trkpt lat="44.43038" lon="1.37593">
        <ele>158</ele>
        <time>2019-04-14T12:27:25Z</time>
      </trkpt>
      <trkpt lat="44.43035" lon="1.37594">
        <ele>159</ele>
        <time>2019-04-14T12:27:26Z</time>
      </trkpt>
      <trkpt lat="44.43032" lon="1.37596">
        <ele>159</ele>
        <time>2019-04-14T12:27:27Z</time>
      </trkpt>
      <trkpt lat="44.43027" lon="1.37598">
        <ele>159</ele>
        <time>2019-04-14T12:27:28Z</time>
      </trkpt>
      <trkpt lat="44.43024" lon="1.37601">
        <ele>159</ele>
        <time>2019-04-14T12:27:29Z</time>
      </trkpt>
      <trkpt lat="44.4302" lon="1.37604">
        <ele>158</ele>
        <time>2019-04-14T12:27:30Z</time>
      </trkpt>
      <trkpt lat="44.43016" lon="1.37607">
        <ele>158</ele>
        <time>2019-04-14T12:27:31Z</time>
      </trkpt>
      <trkpt lat="44.43013" lon="1.3761">
        <ele>158</ele>
        <time>2019-04-14T12:27:32Z</time>
      </trkpt>
      <trkpt lat="44.4301" lon="1.37614">
        <ele>158</ele>
        <time>2019-04-14T12:27:33Z</time>
      </trkpt>
      <trkpt lat="44.43007" lon="1.37618">
        <ele>158</ele>
        <time>2019-04-14T12:27:34Z</time>
      </trkpt>
      <trkpt lat="44.43003" lon="1.37619">
        <ele>158</ele>
        <time>2019-04-14T12:27:35Z</time>
      </trkpt>
      <trkpt lat="44.43" lon="1.3762">
        <ele>158</ele>
        <time>2019-04-14T12:27:36Z</time>
      </trkpt>
      <trkpt lat="44.42997" lon="1.37621">
        <ele>159</ele>
        <time>2019-04-14T12:27:37Z</time>
      </trkpt>
      <trkpt lat="44.42994" lon="1.37623">
        <ele>159</ele>
        <time>2019-04-14T12:27:38Z</time>
      </trkpt>
      <trkpt lat="44.42992" lon="1.37625">
        <ele>159</ele>
        <time>2019-04-14T12:27:39Z</time>
      </trkpt>
      <trkpt lat="44.42989" lon="1.37628">
        <ele>159</ele>
        <time>2019-04-14T12:27:40Z</time>
      </trkpt>
      <trkpt lat="44.42988" lon="1.37631">
        <ele>159</ele>
        <time>2019-04-14T12:27:41Z</time>
      </trkpt>
      <trkpt lat="44.42988" lon="1.37635">
        <ele>159</ele>
        <time>2019-04-14T12:27:42Z</time>
      </trkpt>
      <trkpt lat="44.42987" lon="1.37637">
        <ele>159</ele>
        <time>2019-04-14T12:27:43Z</time>
      </trkpt>
      <trkpt lat="44.42986" lon="1.37639">
        <ele>159</ele>
        <time>2019-04-14T12:27:44Z</time>
      </trkpt>
      <trkpt lat="44.42984" lon="1.3764">
        <ele>159</ele>
        <time>2019-04-14T12:27:45Z</time>
      </trkpt>
      <trkpt lat="44.42982" lon="1.37643">
        <ele>159</ele>
        <time>2019-04-14T12:27:46Z</time>
      </trkpt>
      <trkpt lat="44.4298" lon="1.37648">
        <ele>159</ele>
        <time>2019-04-14T12:27:47Z</time>
      </trkpt>
      <trkpt lat="44.42979" lon="1.37649">
        <ele>159</ele>
        <time>2019-04-14T12:27:48Z</time>
      </trkpt>
      <trkpt lat="44.42976" lon="1.37653">
        <ele>159</ele>
        <time>2019-04-14T12:27:49Z</time>
      </trkpt>
      <trkpt lat="44.42974" lon="1.37657">
        <ele>159</ele>
        <time>2019-04-14T12:27:50Z</time>
      </trkpt>
      <trkpt lat="44.42972" lon="1.37662">
        <ele>159</ele>
        <time>2019-04-14T12:27:51Z</time>
      </trkpt>
      <trkpt lat="44.4297" lon="1.37665">
        <ele>159</ele>
        <time>2019-04-14T12:27:52Z</time>
      </trkpt>
      <trkpt lat="44.42966" lon="1.37667">
        <ele>160</ele>
        <time>2019-04-14T12:27:53Z</time>
      </trkpt>
      <trkpt lat="44.42963" lon="1.3767">
        <ele>160</ele>
        <time>2019-04-14T12:27:54Z</time>
      </trkpt>
      <trkpt lat="44.4296" lon="1.37674">
        <ele>160</ele>
        <time>2019-04-14T12:27:55Z</time>
      </trkpt>
      <trkpt lat="44.42957" lon="1.37678">
        <ele>161</ele>
        <time>2019-04-14T12:27:56Z</time>
      </trkpt>
      <trkpt lat="44.42953" lon="1.37682">
        <ele>161</ele>
        <time>2019-04-14T12:27:57Z</time>
      </trkpt>
      <trkpt lat="44.4295" lon="1.37686">
        <ele>161</ele>
        <time>2019-04-14T12:27:58Z</time>
      </trkpt>
      <trkpt lat="44.42947" lon="1.37688">
        <ele>161</ele>
        <time>2019-04-14T12:27:59Z</time>
      </trkpt>
      <trkpt lat="44.42943" lon="1.3769">
        <ele>162</ele>
        <time>2019-04-14T12:28:00Z</time>
      </trkpt>
      <trkpt lat="44.4294" lon="1.37691">
        <ele>162</ele>
        <time>2019-04-14T12:28:01Z</time>
      </trkpt>
      <trkpt lat="44.42937" lon="1.37692">
        <ele>162</ele>
        <time>2019-04-14T12:28:02Z</time>
      </trkpt>
      <trkpt lat="44.42935" lon="1.37691">
        <ele>162</ele>
        <time>2019-04-14T12:28:03Z</time>
      </trkpt>
      <trkpt lat="44.42932" lon="1.37689">
        <ele>162</ele>
        <time>2019-04-14T12:28:04Z</time>
      </trkpt>
      <trkpt lat="44.42929" lon="1.37689">
        <ele>162</ele>
        <time>2019-04-14T12:28:05Z</time>
      </trkpt>
      <trkpt lat="44.42927" lon="1.37688">
        <ele>162</ele>
        <time>2019-04-14T12:28:06Z</time>
      </trkpt>
      <trkpt lat="44.42924" lon="1.37686">
        <ele>163</ele>
        <time>2019-04-14T12:28:07Z</time>
      </trkpt>
      <trkpt lat="44.42922" lon="1.37685">
        <ele>163</ele>
        <time>2019-04-14T12:28:08Z</time>
      </trkpt>
      <trkpt lat="44.42919" lon="1.37684">
        <ele>163</ele>
        <time>2019-04-14T12:28:09Z</time>
      </trkpt>
      <trkpt lat="44.42916" lon="1.37683">
        <ele>163</ele>
        <time>2019-04-14T12:28:10Z</time>
      </trkpt>
      <trkpt lat="44.42914" lon="1.37682">
        <ele>163</ele>
        <time>2019-04-14T12:28:11Z</time>
      </trkpt>
      <trkpt lat="44.42911" lon="1.37681">
        <ele>163</ele>
        <time>2019-04-14T12:28:12Z</time>
      </trkpt>
      <trkpt lat="44.42909" lon="1.37679">
        <ele>163</ele>
        <time>2019-04-14T12:28:13Z</time>
      </trkpt>
      <trkpt lat="44.42906" lon="1.37676">
        <ele>163</ele>
        <time>2019-04-14T12:28:14Z</time>
      </trkpt>
      <trkpt lat="44.42903" lon="1.37675">
        <ele>163</ele>
        <time>2019-04-14T12:28:15Z</time>
      </trkpt>
      <trkpt lat="44.42902" lon="1.37673">
        <ele>163</ele>
        <time>2019-04-14T12:28:16Z</time>
      </trkpt>
      <trkpt lat="44.429" lon="1.3767">
        <ele>163</ele>
        <time>2019-04-14T12:28:17Z</time>
      </trkpt>
      <trkpt lat="44.42899" lon="1.37667">
        <ele>163</ele>
        <time>2019-04-14T12:28:18Z</time>
      </trkpt>
      <trkpt lat="44.42897" lon="1.37665">
        <ele>164</ele>
        <time>2019-04-14T12:28:19Z</time>
      </trkpt>
      <trkpt lat="44.42895" lon="1.37664">
        <ele>164</ele>
        <time>2019-04-14T12:28:20Z</time>
      </trkpt>
      <trkpt lat="44.42893" lon="1.37663">
        <ele>164</ele>
        <time>2019-04-14T12:28:21Z</time>
      </trkpt>
      <trkpt lat="44.42891" lon="1.37661">
        <ele>164</ele>
        <time>2019-04-14T12:28:22Z</time>
      </trkpt>
      <trkpt lat="44.42889" lon="1.3766">
        <ele>164</ele>
        <time>2019-04-14T12:28:23Z</time>
      </trkpt>
      <trkpt lat="44.42886" lon="1.37658">
        <ele>164</ele>
        <time>2019-04-14T12:28:24Z</time>
      </trkpt>
      <trkpt lat="44.42885" lon="1.37655">
        <ele>164</ele>
        <time>2019-04-14T12:28:25Z</time>
      </trkpt>
      <trkpt lat="44.42882" lon="1.37653">
        <ele>164</ele>
        <time>2019-04-14T12:28:26Z</time>
      </trkpt>
      <trkpt lat="44.4288" lon="1.3765">
        <ele>164</ele>
        <time>2019-04-14T12:28:27Z</time>
      </trkpt>
      <trkpt lat="44.42878" lon="1.37648">
        <ele>164</ele>
        <time>2019-04-14T12:28:28Z</time>
      </trkpt>
      <trkpt lat="44.42877" lon="1.37647">
        <ele>164</ele>
        <time>2019-04-14T12:28:29Z</time>
      </trkpt>
      <trkpt lat="44.42874" lon="1.37646">
        <ele>164</ele>
        <time>2019-04-14T12:28:30Z</time>
      </trkpt>
      <trkpt lat="44.42873" lon="1.37644">
        <ele>164</ele>
        <time>2019-04-14T12:28:31Z</time>
      </trkpt>
      <trkpt lat="44.42872" lon="1.37639">
        <ele>164</ele>
        <time>2019-04-14T12:28:32Z</time>
      </trkpt>
      <trkpt lat="44.42869" lon="1.37636">
        <ele>165</ele>
        <time>2019-04-14T12:28:33Z</time>
      </trkpt>
      <trkpt lat="44.42868" lon="1.37633">
        <ele>165</ele>
        <time>2019-04-14T12:28:34Z</time>
      </trkpt>
      <trkpt lat="44.42866" lon="1.37629">
        <ele>165</ele>
        <time>2019-04-14T12:28:35Z</time>
      </trkpt>
      <trkpt lat="44.42865" lon="1.37624">
        <ele>165</ele>
        <time>2019-04-14T12:28:36Z</time>
      </trkpt>
      <trkpt lat="44.42863" lon="1.37622">
        <ele>165</ele>
        <time>2019-04-14T12:28:37Z</time>
      </trkpt>
      <trkpt lat="44.4286" lon="1.37619">
        <ele>165</ele>
        <time>2019-04-14T12:28:38Z</time>
      </trkpt>
      <trkpt lat="44.42858" lon="1.37617">
        <ele>165</ele>
        <time>2019-04-14T12:28:39Z</time>
      </trkpt>
      <trkpt lat="44.42856" lon="1.37614">
        <ele>165</ele>
        <time>2019-04-14T12:28:40Z</time>
      </trkpt>
      <trkpt lat="44.42853" lon="1.37613">
        <ele>165</ele>
        <time>2019-04-14T12:28:41Z</time>
      </trkpt>
      <trkpt lat="44.4285" lon="1.37614">
        <ele>165</ele>
        <time>2019-04-14T12:28:42Z</time>
      </trkpt>
      <trkpt lat="44.42847" lon="1.37615">
        <ele>165</ele>
        <time>2019-04-14T12:28:43Z</time>
      </trkpt>
      <trkpt lat="44.42844" lon="1.37616">
        <ele>165</ele>
        <time>2019-04-14T12:28:44Z</time>
      </trkpt>
      <trkpt lat="44.4284" lon="1.37616">
        <ele>165</ele>
        <time>2019-04-14T12:28:45Z</time>
      </trkpt>
      <trkpt lat="44.42837" lon="1.37615">
        <ele>166</ele>
        <time>2019-04-14T12:28:46Z</time>
      </trkpt>
      <trkpt lat="44.42834" lon="1.37613">
        <ele>166</ele>
        <time>2019-04-14T12:28:47Z</time>
      </trkpt>
      <trkpt lat="44.42832" lon="1.3761">
        <ele>166</ele>
        <time>2019-04-14T12:28:48Z</time>
      </trkpt>
      <trkpt lat="44.42831" lon="1.37606">
        <ele>166</ele>
        <time>2019-04-14T12:28:49Z</time>
      </trkpt>
      <trkpt lat="44.4283" lon="1.37604">
        <ele>166</ele>
        <time>2019-04-14T12:28:50Z</time>
      </trkpt>
      <trkpt lat="44.42829" lon="1.376">
        <ele>166</ele>
        <time>2019-04-14T12:28:51Z</time>
      </trkpt>
      <trkpt lat="44.42826" lon="1.37598">
        <ele>166</ele>
        <time>2019-04-14T12:28:52Z</time>
      </trkpt>
      <trkpt lat="44.42823" lon="1.37597">
        <ele>166</ele>
        <time>2019-04-14T12:28:53Z</time>
      </trkpt>
      <trkpt lat="44.42822" lon="1.37594">
        <ele>166</ele>
        <time>2019-04-14T12:28:54Z</time>
      </trkpt>
      <trkpt lat="44.4282" lon="1.37592">
        <ele>166</ele>
        <time>2019-04-14T12:28:55Z</time>
      </trkpt>
      <trkpt lat="44.42818" lon="1.3759">
        <ele>166</ele>
        <time>2019-04-14T12:28:56Z</time>
      </trkpt>
      <trkpt lat="44.42815" lon="1.37589">
        <ele>166</ele>
        <time>2019-04-14T12:28:57Z</time>
      </trkpt>
      <trkpt lat="44.42813" lon="1.37585">
        <ele>166</ele>
        <time>2019-04-14T12:28:58Z</time>
      </trkpt>
      <trkpt lat="44.42811" lon="1.37583">
        <ele>166</ele>
        <time>2019-04-14T12:28:59Z</time>
      </trkpt>
      <trkpt lat="44.42809" lon="1.3758">
        <ele>167</ele>
        <time>2019-04-14T12:29:00Z</time>
      </trkpt>
      <trkpt lat="44.42807" lon="1.37577">
        <ele>167</ele>
        <time>2019-04-14T12:29:01Z</time>
      </trkpt>
      <trkpt lat="44.42805" lon="1.37575">
        <ele>167</ele>
        <time>2019-04-14T12:29:02Z</time>
      </trkpt>
      <trkpt lat="44.42803" lon="1.37572">
        <ele>167</ele>
        <time>2019-04-14T12:29:03Z</time>
      </trkpt>
      <trkpt lat="44.42801" lon="1.37569">
        <ele>167</ele>
        <time>2019-04-14T12:29:04Z</time>
      </trkpt>
      <trkpt lat="44.428" lon="1.37567">
        <ele>167</ele>
        <time>2019-04-14T12:29:05Z</time>
      </trkpt>
      <trkpt lat="44.42798" lon="1.37565">
        <ele>167</ele>
        <time>2019-04-14T12:29:06Z</time>
      </trkpt>
      <trkpt lat="44.42796" lon="1.37564">
        <ele>168</ele>
        <time>2019-04-14T12:29:07Z</time>
      </trkpt>
      <trkpt lat="44.42794" lon="1.37562">
        <ele>168</ele>
        <time>2019-04-14T12:29:08Z</time>
      </trkpt>
      <trkpt lat="44.42793" lon="1.37559">
        <ele>168</ele>
        <time>2019-04-14T12:29:09Z</time>
      </trkpt>
      <trkpt lat="44.42791" lon="1.37556">
        <ele>168</ele>
        <time>2019-04-14T12:29:10Z</time>
      </trkpt>
      <trkpt lat="44.4279" lon="1.37554">
        <ele>168</ele>
        <time>2019-04-14T12:29:11Z</time>
      </trkpt>
      <trkpt lat="44.42787" lon="1.37553">
        <ele>168</ele>
        <time>2019-04-14T12:29:12Z</time>
      </trkpt>
      <trkpt lat="44.42785" lon="1.37552">
        <ele>169</ele>
        <time>2019-04-14T12:29:13Z</time>
      </trkpt>
      <trkpt lat="44.42783" lon="1.37551">
        <ele>169</ele>
        <time>2019-04-14T12:29:14Z</time>
      </trkpt>
      <trkpt lat="44.4278" lon="1.37551">
        <ele>169</ele>
        <time>2019-04-14T12:29:15Z</time>
      </trkpt>
      <trkpt lat="44.42777" lon="1.3755">
        <ele>169</ele>
        <time>2019-04-14T12:29:16Z</time>
      </trkpt>
      <trkpt lat="44.42774" lon="1.3755">
        <ele>169</ele>
        <time>2019-04-14T12:29:17Z</time>
      </trkpt>
      <trkpt lat="44.42771" lon="1.37549">
        <ele>169</ele>
        <time>2019-04-14T12:29:18Z</time>
      </trkpt>
      <trkpt lat="44.42768" lon="1.37549">
        <ele>169</ele>
        <time>2019-04-14T12:29:19Z</time>
      </trkpt>
      <trkpt lat="44.42765" lon="1.37549">
        <ele>170</ele>
        <time>2019-04-14T12:29:20Z</time>
      </trkpt>
      <trkpt lat="44.42763" lon="1.37548">
        <ele>170</ele>
        <time>2019-04-14T12:29:21Z</time>
      </trkpt>
      <trkpt lat="44.4276" lon="1.37548">
        <ele>170</ele>
        <time>2019-04-14T12:29:22Z</time>
      </trkpt>
      <trkpt lat="44.42758" lon="1.37546">
        <ele>170</ele>
        <time>2019-04-14T12:29:23Z</time>
      </trkpt>
      <trkpt lat="44.42756" lon="1.37546">
        <ele>170</ele>
        <time>2019-04-14T12:29:24Z</time>
      </trkpt>
      <trkpt lat="44.42753" lon="1.37546">
        <ele>170</ele>
        <time>2019-04-14T12:29:25Z</time>
      </trkpt>
      <trkpt lat="44.4275" lon="1.37546">
        <ele>170</ele>
        <time>2019-04-14T12:29:26Z</time>
      </trkpt>
      <trkpt lat="44.42748" lon="1.37545">
        <ele>170</ele>
        <time>2019-04-14T12:29:27Z</time>
      </trkpt>
      <trkpt lat="44.42745" lon="1.37546">
        <ele>171</ele>
        <time>2019-04-14T12:29:28Z</time>
      </trkpt>
      <trkpt lat="44.42743" lon="1.37546">
        <ele>171</ele>
        <time>2019-04-14T12:29:29Z</time>
      </trkpt>
      <trkpt lat="44.4274" lon="1.37546">
        <ele>171</ele>
        <time>2019-04-14T12:29:30Z</time>
      </trkpt>
      <trkpt lat="44.42737" lon="1.37546">
        <ele>171</ele>
        <time>2019-04-14T12:29:31Z</time>
      </trkpt>
      <trkpt lat="44.42734" lon="1.37545">
        <ele>171</ele>
        <time>2019-04-14T12:29:32Z</time>
      </trkpt>
      <trkpt lat="44.42732" lon="1.37545">
        <ele>171</ele>
        <time>2019-04-14T12:29:33Z</time>
      </trkpt>
      <trkpt lat="44.42729" lon="1.37545">
        <ele>171</ele>
        <time>2019-04-14T12:29:34Z</time>
      </trkpt>
      <trkpt lat="44.42726" lon="1.37545">
        <ele>171</ele>
        <time>2019-04-14T12:29:35Z</time>
      </trkpt>
      <trkpt lat="44.42723" lon="1.37545">
        <ele>172</ele>
        <time>2019-04-14T12:29:36Z</time>
      </trkpt>
      <trkpt lat="44.4272" lon="1.37545">
        <ele>172</ele>
        <time>2019-04-14T12:29:37Z</time>
      </trkpt>
      <trkpt lat="44.42718" lon="1.37546">
        <ele>172</ele>
        <time>2019-04-14T12:29:38Z</time>
      </trkpt>
      <trkpt lat="44.42715" lon="1.37546">
        <ele>172</ele>
        <time>2019-04-14T12:29:39Z</time>
      </trkpt>
      <trkpt lat="44.42712" lon="1.37546">
        <ele>172</ele>
        <time>2019-04-14T12:29:40Z</time>
      </trkpt>
      <trkpt lat="44.4271" lon="1.37545">
        <ele>172</ele>
        <time>2019-04-14T12:29:41Z</time>
      </trkpt>
      <trkpt lat="44.42707" lon="1.37545">
        <ele>172</ele>
        <time>2019-04-14T12:29:42Z</time>
      </trkpt>
      <trkpt lat="44.42704" lon="1.37545">
        <ele>172</ele>
        <time>2019-04-14T12:29:43Z</time>
      </trkpt>
      <trkpt lat="44.42701" lon="1.37544">
        <ele>172</ele>
        <time>2019-04-14T12:29:44Z</time>
      </trkpt>
      <trkpt lat="44.42698" lon="1.37543">
        <ele>172</ele>
        <time>2019-04-14T12:29:45Z</time>
      </trkpt>
      <trkpt lat="44.42695" lon="1.37543">
        <ele>172</ele>
        <time>2019-04-14T12:29:46Z</time>
      </trkpt>
      <trkpt lat="44.42693" lon="1.37543">
        <ele>172</ele>
        <time>2019-04-14T12:29:47Z</time>
      </trkpt>
      <trkpt lat="44.4269" lon="1.37542">
        <ele>172</ele>
        <time>2019-04-14T12:29:48Z</time>
      </trkpt>
      <trkpt lat="44.42687" lon="1.37542">
        <ele>172</ele>
        <time>2019-04-14T12:29:49Z</time>
      </trkpt>
      <trkpt lat="44.42685" lon="1.3754">
        <ele>172</ele>
        <time>2019-04-14T12:29:50Z</time>
      </trkpt>
      <trkpt lat="44.42683" lon="1.37538">
        <ele>172</ele>
        <time>2019-04-14T12:29:51Z</time>
      </trkpt>
      <trkpt lat="44.42681" lon="1.37538">
        <ele>172</ele>
        <time>2019-04-14T12:29:52Z</time>
      </trkpt>
      <trkpt lat="44.42678" lon="1.37537">
        <ele>172</ele>
        <time>2019-04-14T12:29:53Z</time>
      </trkpt>
      <trkpt lat="44.42675" lon="1.37536">
        <ele>172</ele>
        <time>2019-04-14T12:29:54Z</time>
      </trkpt>
      <trkpt lat="44.42672" lon="1.37536">
        <ele>172</ele>
        <time>2019-04-14T12:29:55Z</time>
      </trkpt>
      <trkpt lat="44.4267" lon="1.37534">
        <ele>172</ele>
        <time>2019-04-14T12:29:56Z</time>
      </trkpt>
      <trkpt lat="44.42668" lon="1.37534">
        <ele>173</ele>
        <time>2019-04-14T12:29:57Z</time>
      </trkpt>
      <trkpt lat="44.42665" lon="1.37533">
        <ele>173</ele>
        <time>2019-04-14T12:29:58Z</time>
      </trkpt>
      <trkpt lat="44.42662" lon="1.37534">
        <ele>173</ele>
        <time>2019-04-14T12:29:59Z</time>
      </trkpt>
      <trkpt lat="44.42659" lon="1.37535">
        <ele>173</ele>
        <time>2019-04-14T12:30:00Z</time>
      </trkpt>
      <trkpt lat="44.42657" lon="1.37534">
        <ele>173</ele>
        <time>2019-04-14T12:30:01Z</time>
      </trkpt>
      <trkpt lat="44.42654" lon="1.37535">
        <ele>173</ele>
        <time>2019-04-14T12:30:02Z</time>
      </trkpt>
      <trkpt lat="44.4265" lon="1.37536">
        <ele>173</ele>
        <time>2019-04-14T12:30:03Z</time>
      </trkpt>
      <trkpt lat="44.42648" lon="1.37536">
        <ele>174</ele>
        <time>2019-04-14T12:30:04Z</time>
      </trkpt>
      <trkpt lat="44.42645" lon="1.37536">
        <ele>174</ele>
        <time>2019-04-14T12:30:05Z</time>
      </trkpt>
      <trkpt lat="44.42642" lon="1.37537">
        <ele>174</ele>
        <time>2019-04-14T12:30:06Z</time>
      </trkpt>
      <trkpt lat="44.42639" lon="1.37537">
        <ele>174</ele>
        <time>2019-04-14T12:30:07Z</time>
      </trkpt>
      <trkpt lat="44.42636" lon="1.37536">
        <ele>174</ele>
        <time>2019-04-14T12:30:08Z</time>
      </trkpt>
      <trkpt lat="44.42633" lon="1.37537">
        <ele>174</ele>
        <time>2019-04-14T12:30:09Z</time>
      </trkpt>
      <trkpt lat="44.42631" lon="1.37538">
        <ele>174</ele>
        <time>2019-04-14T12:30:10Z</time>
      </trkpt>
      <trkpt lat="44.42628" lon="1.37537">
        <ele>174</ele>
        <time>2019-04-14T12:30:11Z</time>
      </trkpt>
      <trkpt lat="44.42626" lon="1.37537">
        <ele>174</ele>
        <time>2019-04-14T12:30:12Z</time>
      </trkpt>
      <trkpt lat="44.42624" lon="1.37537">
        <ele>174</ele>
        <time>2019-04-14T12:30:13Z</time>
      </trkpt>
      <trkpt lat="44.42622" lon="1.37538">
        <ele>174</ele>
        <time>2019-04-14T12:30:14Z</time>
      </trkpt>
      <trkpt lat="44.42621" lon="1.3754">
        <ele>174</ele>
        <time>2019-04-14T12:30:15Z</time>
      </trkpt>
      <trkpt lat="44.4262" lon="1.37541">
        <ele>174</ele>
        <time>2019-04-14T12:30:16Z</time>
      </trkpt>
      <trkpt lat="44.4262" lon="1.37543">
        <ele>175</ele>
        <time>2019-04-14T12:30:17Z</time>
      </trkpt>
      <trkpt lat="44.4262" lon="1.37543">
        <ele>175</ele>
        <time>2019-04-14T12:30:18Z</time>
      </trkpt>
      <trkpt lat="44.42619" lon="1.37544">
        <ele>175</ele>
        <time>2019-04-14T12:30:19Z</time>
      </trkpt>
      <trkpt lat="44.42619" lon="1.37546">
        <ele>175</ele>
        <time>2019-04-14T12:30:20Z</time>
      </trkpt>
      <trkpt lat="44.42616" lon="1.37551">
        <ele>174</ele>
        <time>2019-04-14T12:30:21Z</time>
      </trkpt>
      <trkpt lat="44.42617" lon="1.37554">
        <ele>174</ele>
        <time>2019-04-14T12:30:22Z</time>
      </trkpt>
      <trkpt lat="44.42618" lon="1.37558">
        <ele>174</ele>
        <time>2019-04-14T12:30:23Z</time>
      </trkpt>
      <trkpt lat="44.42618" lon="1.37561">
        <ele>174</ele>
        <time>2019-04-14T12:30:24Z</time>
      </trkpt>
      <trkpt lat="44.42617" lon="1.37564">
        <ele>174</ele>
        <time>2019-04-14T12:30:25Z</time>
      </trkpt>
      <trkpt lat="44.42616" lon="1.37566">
        <ele>175</ele>
        <time>2019-04-14T12:30:26Z</time>
      </trkpt>
      <trkpt lat="44.42616" lon="1.37569">
        <ele>175</ele>
        <time>2019-04-14T12:30:27Z</time>
      </trkpt>
      <trkpt lat="44.42615" lon="1.37572">
        <ele>175</ele>
        <time>2019-04-14T12:30:28Z</time>
      </trkpt>
      <trkpt lat="44.42614" lon="1.37574">
        <ele>175</ele>
        <time>2019-04-14T12:30:29Z</time>
      </trkpt>
      <trkpt lat="44.42613" lon="1.37575">
        <ele>175</ele>
        <time>2019-04-14T12:30:30Z</time>
      </trkpt>
      <trkpt lat="44.42611" lon="1.37578">
        <ele>175</ele>
        <time>2019-04-14T12:30:31Z</time>
      </trkpt>
      <trkpt lat="44.42609" lon="1.3758">
        <ele>175</ele>
        <time>2019-04-14T12:30:32Z</time>
      </trkpt>
      <trkpt lat="44.42607" lon="1.37583">
        <ele>175</ele>
        <time>2019-04-14T12:30:33Z</time>
      </trkpt>
      <trkpt lat="44.42605" lon="1.37586">
        <ele>176</ele>
        <time>2019-04-14T12:30:34Z</time>
      </trkpt>
      <trkpt lat="44.42603" lon="1.37589">
        <ele>176</ele>
        <time>2019-04-14T12:30:35Z</time>
      </trkpt>
      <trkpt lat="44.42602" lon="1.3759">
        <ele>176</ele>
        <time>2019-04-14T12:30:36Z</time>
      </trkpt>
      <trkpt lat="44.42601" lon="1.37591">
        <ele>176</ele>
        <time>2019-04-14T12:30:37Z</time>
      </trkpt>
      <trkpt lat="44.426" lon="1.37593">
        <ele>176</ele>
        <time>2019-04-14T12:30:38Z</time>
      </trkpt>
      <trkpt lat="44.42598" lon="1.37595">
        <ele>177</ele>
        <time>2019-04-14T12:30:39Z</time>
      </trkpt>
      <trkpt lat="44.42596" lon="1.37598">
        <ele>177</ele>
        <time>2019-04-14T12:30:40Z</time>
      </trkpt>
      <trkpt lat="44.42594" lon="1.37599">
        <ele>177</ele>
        <time>2019-04-14T12:30:41Z</time>
      </trkpt>
      <trkpt lat="44.42592" lon="1.376">
        <ele>177</ele>
        <time>2019-04-14T12:30:42Z</time>
      </trkpt>
      <trkpt lat="44.4259" lon="1.37602">
        <ele>178</ele>
        <time>2019-04-14T12:30:43Z</time>
      </trkpt>
      <trkpt lat="44.42589" lon="1.37604">
        <ele>178</ele>
        <time>2019-04-14T12:30:44Z</time>
      </trkpt>
      <trkpt lat="44.42588" lon="1.37606">
        <ele>178</ele>
        <time>2019-04-14T12:30:45Z</time>
      </trkpt>
      <trkpt lat="44.42586" lon="1.37608">
        <ele>178</ele>
        <time>2019-04-14T12:30:46Z</time>
      </trkpt>
      <trkpt lat="44.42584" lon="1.3761">
        <ele>178</ele>
        <time>2019-04-14T12:30:47Z</time>
      </trkpt>
      <trkpt lat="44.42583" lon="1.37612">
        <ele>178</ele>
        <time>2019-04-14T12:30:48Z</time>
      </trkpt>
      <trkpt lat="44.42581" lon="1.37614">
        <ele>178</ele>
        <time>2019-04-14T12:30:49Z</time>
      </trkpt>
      <trkpt lat="44.4258" lon="1.37616">
        <ele>178</ele>
        <time>2019-04-14T12:30:50Z</time>
      </trkpt>
      <trkpt lat="44.42578" lon="1.37618">
        <ele>179</ele>
        <time>2019-04-14T12:30:51Z</time>
      </trkpt>
      <trkpt lat="44.42577" lon="1.37619">
        <ele>179</ele>
        <time>2019-04-14T12:30:52Z</time>
      </trkpt>
      <trkpt lat="44.42575" lon="1.3762">
        <ele>179</ele>
        <time>2019-04-14T12:30:53Z</time>
      </trkpt>
      <trkpt lat="44.42574" lon="1.37621">
        <ele>179</ele>
        <time>2019-04-14T12:30:54Z</time>
      </trkpt>
      <trkpt lat="44.42572" lon="1.37622">
        <ele>180</ele>
        <time>2019-04-14T12:30:55Z</time>
      </trkpt>
      <trkpt lat="44.4257" lon="1.37624">
        <ele>180</ele>
        <time>2019-04-14T12:30:56Z</time>
      </trkpt>
      <trkpt lat="44.42568" lon="1.37626">
        <ele>180</ele>
        <time>2019-04-14T12:30:57Z</time>
      </trkpt>
      <trkpt lat="44.42566" lon="1.37629">
        <ele>180</ele>
        <time>2019-04-14T12:30:58Z</time>
      </trkpt>
      <trkpt lat="44.42565" lon="1.3763">
        <ele>180</ele>
        <time>2019-04-14T12:30:59Z</time>
      </trkpt>
      <trkpt lat="44.42563" lon="1.37633">
        <ele>180</ele>
        <time>2019-04-14T12:31:00Z</time>
      </trkpt>
      <trkpt lat="44.42562" lon="1.37635">
        <ele>180</ele>
        <time>2019-04-14T12:31:01Z</time>
      </trkpt>
      <trkpt lat="44.4256" lon="1.37637">
        <ele>180</ele>
        <time>2019-04-14T12:31:02Z</time>
      </trkpt>
      <trkpt lat="44.4256" lon="1.37641">
        <ele>180</ele>
        <time>2019-04-14T12:31:03Z</time>
      </trkpt>
      <trkpt lat="44.42559" lon="1.37644">
        <ele>180</ele>
        <time>2019-04-14T12:31:04Z</time>
      </trkpt>
      <trkpt lat="44.42558" lon="1.37645">
        <ele>180</ele>
        <time>2019-04-14T12:31:05Z</time>
      </trkpt>
      <trkpt lat="44.42556" lon="1.37647">
        <ele>180</ele>
        <time>2019-04-14T12:31:06Z</time>
      </trkpt>
      <trkpt lat="44.42554" lon="1.37649">
        <ele>180</ele>
        <time>2019-04-14T12:31:07Z</time>
      </trkpt>
      <trkpt lat="44.42552" lon="1.37651">
        <ele>180</ele>
        <time>2019-04-14T12:31:08Z</time>
      </trkpt>
      <trkpt lat="44.42551" lon="1.37653">
        <ele>180</ele>
        <time>2019-04-14T12:31:09Z</time>
      </trkpt>
      <trkpt lat="44.42549" lon="1.37654">
        <ele>181</ele>
        <time>2019-04-14T12:31:10Z</time>
      </trkpt>
      <trkpt lat="44.42547" lon="1.37655">
        <ele>181</ele>
        <time>2019-04-14T12:31:11Z</time>
      </trkpt>
      <trkpt lat="44.42546" lon="1.37657">
        <ele>181</ele>
        <time>2019-04-14T12:31:12Z</time>
      </trkpt>
      <trkpt lat="44.42545" lon="1.37659">
        <ele>181</ele>
        <time>2019-04-14T12:31:13Z</time>
      </trkpt>
      <trkpt lat="44.42544" lon="1.37661">
        <ele>181</ele>
        <time>2019-04-14T12:31:14Z</time>
      </trkpt>
      <trkpt lat="44.42544" lon="1.37664">
        <ele>181</ele>
        <time>2019-04-14T12:31:15Z</time>
      </trkpt>
      <trkpt lat="44.42545" lon="1.37667">
        <ele>181</ele>
        <time>2019-04-14T12:31:16Z</time>
      </trkpt>
      <trkpt lat="44.42545" lon="1.37671">
        <ele>181</ele>
        <time>2019-04-14T12:31:17Z</time>
      </trkpt>
      <trkpt lat="44.42546" lon="1.37674">
        <ele>181</ele>
        <time>2019-04-14T12:31:18Z</time>
      </trkpt>
      <trkpt lat="44.42546" lon="1.37676">
        <ele>181</ele>
        <time>2019-04-14T12:31:19Z</time>
      </trkpt>
      <trkpt lat="44.42545" lon="1.37678">
        <ele>181</ele>
        <time>2019-04-14T12:31:20Z</time>
      </trkpt>
      <trkpt lat="44.42544" lon="1.37681">
        <ele>181</ele>
        <time>2019-04-14T12:31:21Z</time>
      </trkpt>
      <trkpt lat="44.42544" lon="1.37683">
        <ele>182</ele>
        <time>2019-04-14T12:31:22Z</time>
      </trkpt>
      <trkpt lat="44.42543" lon="1.37685">
        <ele>182</ele>
        <time>2019-04-14T12:31:23Z</time>
      </trkpt>
      <trkpt lat="44.42542" lon="1.37687">
        <ele>182</ele>
        <time>2019-04-14T12:31:24Z</time>
      </trkpt>
      <trkpt lat="44.42541" lon="1.37688">
        <ele>182</ele>
        <time>2019-04-14T12:31:25Z</time>
      </trkpt>
      <trkpt lat="44.42539" lon="1.37688">
        <ele>182</ele>
        <time>2019-04-14T12:31:26Z</time>
      </trkpt>
      <trkpt lat="44.42536" lon="1.37688">
        <ele>182</ele>
        <time>2019-04-14T12:31:27Z</time>
      </trkpt>
      <trkpt lat="44.42534" lon="1.37689">
        <ele>182</ele>
        <time>2019-04-14T12:31:28Z</time>
      </trkpt>
      <trkpt lat="44.42532" lon="1.3769">
        <ele>182</ele>
        <time>2019-04-14T12:31:29Z</time>
      </trkpt>
      <trkpt lat="44.42531" lon="1.37691">
        <ele>182</ele>
        <time>2019-04-14T12:31:30Z</time>
      </trkpt>
      <trkpt lat="44.42529" lon="1.37692">
        <ele>182</ele>
        <time>2019-04-14T12:31:31Z</time>
      </trkpt>
      <trkpt lat="44.42528" lon="1.37694">
        <ele>182</ele>
        <time>2019-04-14T12:31:32Z</time>
      </trkpt>
      <trkpt lat="44.42527" lon="1.37694">
        <ele>182</ele>
        <time>2019-04-14T12:31:33Z</time>
      </trkpt>
      <trkpt lat="44.42527" lon="1.37695">
        <ele>182</ele>
        <time>2019-04-14T12:31:34Z</time>
      </trkpt>
      <trkpt lat="44.42525" lon="1.37696">
        <ele>182</ele>
        <time>2019-04-14T12:31:35Z</time>
      </trkpt>
      <trkpt lat="44.42524" lon="1.37697">
        <ele>182</ele>
        <time>2019-04-14T12:31:36Z</time>
      </trkpt>
      <trkpt lat="44.42522" lon="1.37698">
        <ele>182</ele>
        <time>2019-04-14T12:31:37Z</time>
      </trkpt>
      <trkpt lat="44.4252" lon="1.37698">
        <ele>182</ele>
        <time>2019-04-14T12:31:38Z</time>
      </trkpt>
      <trkpt lat="44.42518" lon="1.37698">
        <ele>182</ele>
        <time>2019-04-14T12:31:39Z</time>
      </trkpt>
      <trkpt lat="44.42516" lon="1.37698">
        <ele>182</ele>
        <time>2019-04-14T12:31:40Z</time>
      </trkpt>
      <trkpt lat="44.42514" lon="1.37698">
        <ele>182</ele>
        <time>2019-04-14T12:31:41Z</time>
      </trkpt>
      <trkpt lat="44.42512" lon="1.37698">
        <ele>183</ele>
        <time>2019-04-14T12:31:42Z</time>
      </trkpt>
      <trkpt lat="44.4251" lon="1.37698">
        <ele>183</ele>
        <time>2019-04-14T12:31:43Z</time>
      </trkpt>
      <trkpt lat="44.42507" lon="1.37699">
        <ele>183</ele>
        <time>2019-04-14T12:31:44Z</time>
      </trkpt>
      <trkpt lat="44.42505" lon="1.37701">
        <ele>183</ele>
        <time>2019-04-14T12:31:45Z</time>
      </trkpt>
      <trkpt lat="44.42503" lon="1.37702">
        <ele>183</ele>
        <time>2019-04-14T12:31:46Z</time>
      </trkpt>
      <trkpt lat="44.42501" lon="1.37703">
        <ele>183</ele>
        <time>2019-04-14T12:31:47Z</time>
      </trkpt>
      <trkpt lat="44.425" lon="1.37705">
        <ele>183</ele>
        <time>2019-04-14T12:31:48Z</time>
      </trkpt>
      <trkpt lat="44.425" lon="1.37707">
        <ele>183</ele>
        <time>2019-04-14T12:31:49Z</time>
      </trkpt>
      <trkpt lat="44.425" lon="1.37709">
        <ele>183</ele>
        <time>2019-04-14T12:31:50Z</time>
      </trkpt>
      <trkpt lat="44.42499" lon="1.37711">
        <ele>183</ele>
        <time>2019-04-14T12:31:51Z</time>
      </trkpt>
      <trkpt lat="44.42497" lon="1.37712">
        <ele>183</ele>
        <time>2019-04-14T12:31:52Z</time>
      </trkpt>
      <trkpt lat="44.42495" lon="1.37713">
        <ele>183</ele>
        <time>2019-04-14T12:31:53Z</time>
      </trkpt>
      <trkpt lat="44.42493" lon="1.37713">
        <ele>183</ele>
        <time>2019-04-14T12:31:54Z</time>
      </trkpt>
      <trkpt lat="44.42492" lon="1.37714">
        <ele>184</ele>
        <time>2019-04-14T12:31:55Z</time>
      </trkpt>
      <trkpt lat="44.42491" lon="1.37715">
        <ele>184</ele>
        <time>2019-04-14T12:31:56Z</time>
      </trkpt>
      <trkpt lat="44.42489" lon="1.37717">
        <ele>184</ele>
        <time>2019-04-14T12:31:57Z</time>
      </trkpt>
      <trkpt lat="44.42487" lon="1.37718">
        <ele>184</ele>
        <time>2019-04-14T12:31:58Z</time>
      </trkpt>
      <trkpt lat="44.42485" lon="1.37719">
        <ele>184</ele>
        <time>2019-04-14T12:31:59Z</time>
      </trkpt>
      <trkpt lat="44.42482" lon="1.3772">
        <ele>184</ele>
        <time>2019-04-14T12:32:00Z</time>
      </trkpt>
      <trkpt lat="44.4248" lon="1.37722">
        <ele>185</ele>
        <time>2019-04-14T12:32:01Z</time>
      </trkpt>
      <trkpt lat="44.42479" lon="1.37723">
        <ele>185</ele>
        <time>2019-04-14T12:32:02Z</time>
      </trkpt>
      <trkpt lat="44.42477" lon="1.37724">
        <ele>185</ele>
        <time>2019-04-14T12:32:03Z</time>
      </trkpt>
      <trkpt lat="44.42477" lon="1.37725">
        <ele>186</ele>
        <time>2019-04-14T12:32:04Z</time>
      </trkpt>
      <trkpt lat="44.42476" lon="1.37726">
        <ele>186</ele>
        <time>2019-04-14T12:32:05Z</time>
      </trkpt>
      <trkpt lat="44.42474" lon="1.37727">
        <ele>186</ele>
        <time>2019-04-14T12:32:06Z</time>
      </trkpt>
      <trkpt lat="44.42472" lon="1.37728">
        <ele>186</ele>
        <time>2019-04-14T12:32:07Z</time>
      </trkpt>
      <trkpt lat="44.4247" lon="1.37729">
        <ele>186</ele>
        <time>2019-04-14T12:32:08Z</time>
      </trkpt>
      <trkpt lat="44.42467" lon="1.37728">
        <ele>186</ele>
        <time>2019-04-14T12:32:09Z</time>
      </trkpt>
      <trkpt lat="44.42465" lon="1.37727">
        <ele>186</ele>
        <time>2019-04-14T12:32:10Z</time>
      </trkpt>
      <trkpt lat="44.42463" lon="1.37725">
        <ele>186</ele>
        <time>2019-04-14T12:32:11Z</time>
      </trkpt>
      <trkpt lat="44.4246" lon="1.37725">
        <ele>186</ele>
        <time>2019-04-14T12:32:12Z</time>
      </trkpt>
      <trkpt lat="44.42457" lon="1.37724">
        <ele>186</ele>
        <time>2019-04-14T12:32:13Z</time>
      </trkpt>
      <trkpt lat="44.42455" lon="1.37723">
        <ele>186</ele>
        <time>2019-04-14T12:32:14Z</time>
      </trkpt>
      <trkpt lat="44.42453" lon="1.37722">
        <ele>186</ele>
        <time>2019-04-14T12:32:15Z</time>
      </trkpt>
      <trkpt lat="44.42451" lon="1.37722">
        <ele>186</ele>
        <time>2019-04-14T12:32:16Z</time>
      </trkpt>
      <trkpt lat="44.4245" lon="1.37721">
        <ele>186</ele>
        <time>2019-04-14T12:32:17Z</time>
      </trkpt>
      <trkpt lat="44.42448" lon="1.37719">
        <ele>186</ele>
        <time>2019-04-14T12:32:18Z</time>
      </trkpt>
      <trkpt lat="44.42447" lon="1.37719">
        <ele>187</ele>
        <time>2019-04-14T12:32:19Z</time>
      </trkpt>
      <trkpt lat="44.42444" lon="1.3772">
        <ele>187</ele>
        <time>2019-04-14T12:32:20Z</time>
      </trkpt>
      <trkpt lat="44.42442" lon="1.37721">
        <ele>187</ele>
        <time>2019-04-14T12:32:21Z</time>
      </trkpt>
      <trkpt lat="44.42439" lon="1.37721">
        <ele>187</ele>
        <time>2019-04-14T12:32:22Z</time>
      </trkpt>
      <trkpt lat="44.42437" lon="1.37723">
        <ele>187</ele>
        <time>2019-04-14T12:32:23Z</time>
      </trkpt>
      <trkpt lat="44.42435" lon="1.37724">
        <ele>187</ele>
        <time>2019-04-14T12:32:24Z</time>
      </trkpt>
      <trkpt lat="44.42433" lon="1.37725">
        <ele>187</ele>
        <time>2019-04-14T12:32:25Z</time>
      </trkpt>
      <trkpt lat="44.42431" lon="1.37726">
        <ele>188</ele>
        <time>2019-04-14T12:32:26Z</time>
      </trkpt>
      <trkpt lat="44.42428" lon="1.37728">
        <ele>188</ele>
        <time>2019-04-14T12:32:27Z</time>
      </trkpt>
      <trkpt lat="44.42426" lon="1.37728">
        <ele>188</ele>
        <time>2019-04-14T12:32:28Z</time>
      </trkpt>
      <trkpt lat="44.42425" lon="1.37729">
        <ele>188</ele>
        <time>2019-04-14T12:32:29Z</time>
      </trkpt>
      <trkpt lat="44.42423" lon="1.3773">
        <ele>188</ele>
        <time>2019-04-14T12:32:30Z</time>
      </trkpt>
      <trkpt lat="44.42421" lon="1.37731">
        <ele>188</ele>
        <time>2019-04-14T12:32:31Z</time>
      </trkpt>
      <trkpt lat="44.4242" lon="1.37732">
        <ele>188</ele>
        <time>2019-04-14T12:32:32Z</time>
      </trkpt>
      <trkpt lat="44.42418" lon="1.37733">
        <ele>188</ele>
        <time>2019-04-14T12:32:33Z</time>
      </trkpt>
      <trkpt lat="44.42416" lon="1.37735">
        <ele>188</ele>
        <time>2019-04-14T12:32:34Z</time>
      </trkpt>
      <trkpt lat="44.42415" lon="1.37737">
        <ele>188</ele>
        <time>2019-04-14T12:32:35Z</time>
      </trkpt>
      <trkpt lat="44.42414" lon="1.3774">
        <ele>188</ele>
        <time>2019-04-14T12:32:36Z</time>
      </trkpt>
      <trkpt lat="44.42414" lon="1.37742">
        <ele>188</ele>
        <time>2019-04-14T12:32:37Z</time>
      </trkpt>
      <trkpt lat="44.42413" lon="1.37744">
        <ele>189</ele>
        <time>2019-04-14T12:32:38Z</time>
      </trkpt>
      <trkpt lat="44.42412" lon="1.37745">
        <ele>189</ele>
        <time>2019-04-14T12:32:39Z</time>
      </trkpt>
      <trkpt lat="44.4241" lon="1.37746">
        <ele>189</ele>
        <time>2019-04-14T12:32:40Z</time>
      </trkpt>
      <trkpt lat="44.42408" lon="1.37747">
        <ele>189</ele>
        <time>2019-04-14T12:32:41Z</time>
      </trkpt>
      <trkpt lat="44.42405" lon="1.37748">
        <ele>189</ele>
        <time>2019-04-14T12:32:42Z</time>
      </trkpt>
      <trkpt lat="44.42403" lon="1.37749">
        <ele>189</ele>
        <time>2019-04-14T12:32:43Z</time>
      </trkpt>
      <trkpt lat="44.42401" lon="1.37749">
        <ele>189</ele>
        <time>2019-04-14T12:32:44Z</time>
      </trkpt>
      <trkpt lat="44.42399" lon="1.3775">
        <ele>189</ele>
        <time>2019-04-14T12:32:45Z</time>
      </trkpt>
      <trkpt lat="44.42397" lon="1.3775">
        <ele>189</ele>
        <time>2019-04-14T12:32:46Z</time>
      </trkpt>
      <trkpt lat="44.42395" lon="1.37751">
        <ele>189</ele>
        <time>2019-04-14T12:32:47Z</time>
      </trkpt>
      <trkpt lat="44.42393" lon="1.37752">
        <ele>190</ele>
        <time>2019-04-14T12:32:48Z</time>
      </trkpt>
      <trkpt lat="44.42392" lon="1.37753">
        <ele>190</ele>
        <time>2019-04-14T12:32:49Z</time>
      </trkpt>
      <trkpt lat="44.4239" lon="1.37753">
        <ele>190</ele>
        <time>2019-04-14T12:32:50Z</time>
      </trkpt>
      <trkpt lat="44.42389" lon="1.37754">
        <ele>190</ele>
        <time>2019-04-14T12:32:51Z</time>
      </trkpt>
      <trkpt lat="44.42387" lon="1.37754">
        <ele>190</ele>
        <time>2019-04-14T12:32:52Z</time>
      </trkpt>
      <trkpt lat="44.42385" lon="1.37755">
        <ele>190</ele>
        <time>2019-04-14T12:32:53Z</time>
      </trkpt>
      <trkpt lat="44.42383" lon="1.37756">
        <ele>190</ele>
        <time>2019-04-14T12:32:54Z</time>
      </trkpt>
      <trkpt lat="44.42381" lon="1.37755">
        <ele>190</ele>
        <time>2019-04-14T12:32:55Z</time>
      </trkpt>
      <trkpt lat="44.42379" lon="1.37755">
        <ele>190</ele>
        <time>2019-04-14T12:32:56Z</time>
      </trkpt>
      <trkpt lat="44.42377" lon="1.37755">
        <ele>190</ele>
        <time>2019-04-14T12:32:57Z</time>
      </trkpt>
      <trkpt lat="44.42374" lon="1.37756">
        <ele>190</ele>
        <time>2019-04-14T12:32:58Z</time>
      </trkpt>
      <trkpt lat="44.42372" lon="1.37757">
        <ele>190</ele>
        <time>2019-04-14T12:32:59Z</time>
      </trkpt>
      <trkpt lat="44.42369" lon="1.37757">
        <ele>191</ele>
        <time>2019-04-14T12:33:00Z</time>
      </trkpt>
      <trkpt lat="44.42366" lon="1.37757">
        <ele>191</ele>
        <time>2019-04-14T12:33:01Z</time>
      </trkpt>
      <trkpt lat="44.42364" lon="1.37757">
        <ele>191</ele>
        <time>2019-04-14T12:33:02Z</time>
      </trkpt>
      <trkpt lat="44.42362" lon="1.37758">
        <ele>191</ele>
        <time>2019-04-14T12:33:03Z</time>
      </trkpt>
      <trkpt lat="44.4236" lon="1.37759">
        <ele>191</ele>
        <time>2019-04-14T12:33:04Z</time>
      </trkpt>
      <trkpt lat="44.42358" lon="1.3776">
        <ele>191</ele>
        <time>2019-04-14T12:33:05Z</time>
      </trkpt>
      <trkpt lat="44.42356" lon="1.3776">
        <ele>191</ele>
        <time>2019-04-14T12:33:06Z</time>
      </trkpt>
      <trkpt lat="44.42354" lon="1.37761">
        <ele>191</ele>
        <time>2019-04-14T12:33:07Z</time>
      </trkpt>
      <trkpt lat="44.42352" lon="1.37762">
        <ele>191</ele>
        <time>2019-04-14T12:33:08Z</time>
      </trkpt>
      <trkpt lat="44.42349" lon="1.37763">
        <ele>191</ele>
        <time>2019-04-14T12:33:09Z</time>
      </trkpt>
      <trkpt lat="44.42347" lon="1.37764">
        <ele>192</ele>
        <time>2019-04-14T12:33:10Z</time>
      </trkpt>
      <trkpt lat="44.42345" lon="1.37765">
        <ele>192</ele>
        <time>2019-04-14T12:33:11Z</time>
      </trkpt>
      <trkpt lat="44.42343" lon="1.37767">
        <ele>192</ele>
        <time>2019-04-14T12:33:12Z</time>
      </trkpt>
      <trkpt lat="44.4234" lon="1.37769">
        <ele>192</ele>
        <time>2019-04-14T12:33:13Z</time>
      </trkpt>
      <trkpt lat="44.42339" lon="1.3777">
        <ele>192</ele>
        <time>2019-04-14T12:33:14Z</time>
      </trkpt>
      <trkpt lat="44.42336" lon="1.37773">
        <ele>192</ele>
        <time>2019-04-14T12:33:15Z</time>
      </trkpt>
      <trkpt lat="44.42334" lon="1.37775">
        <ele>192</ele>
        <time>2019-04-14T12:33:16Z</time>
      </trkpt>
      <trkpt lat="44.42331" lon="1.37777">
        <ele>192</ele>
        <time>2019-04-14T12:33:17Z</time>
      </trkpt>
      <trkpt lat="44.42328" lon="1.37779">
        <ele>192</ele>
        <time>2019-04-14T12:33:18Z</time>
      </trkpt>
      <trkpt lat="44.42326" lon="1.37781">
        <ele>192</ele>
        <time>2019-04-14T12:33:19Z</time>
      </trkpt>
      <trkpt lat="44.42324" lon="1.37782">
        <ele>192</ele>
        <time>2019-04-14T12:33:20Z</time>
      </trkpt>
      <trkpt lat="44.42322" lon="1.37784">
        <ele>193</ele>
        <time>2019-04-14T12:33:21Z</time>
      </trkpt>
      <trkpt lat="44.42319" lon="1.37786">
        <ele>193</ele>
        <time>2019-04-14T12:33:22Z</time>
      </trkpt>
      <trkpt lat="44.42317" lon="1.37788">
        <ele>193</ele>
        <time>2019-04-14T12:33:23Z</time>
      </trkpt>
      <trkpt lat="44.42315" lon="1.37789">
        <ele>193</ele>
        <time>2019-04-14T12:33:24Z</time>
      </trkpt>
      <trkpt lat="44.42313" lon="1.3779">
        <ele>193</ele>
        <time>2019-04-14T12:33:25Z</time>
      </trkpt>
      <trkpt lat="44.42311" lon="1.37792">
        <ele>194</ele>
        <time>2019-04-14T12:33:26Z</time>
      </trkpt>
      <trkpt lat="44.42311" lon="1.37793">
        <ele>194</ele>
        <time>2019-04-14T12:33:27Z</time>
      </trkpt>
      <trkpt lat="44.4231" lon="1.37794">
        <ele>194</ele>
        <time>2019-04-14T12:33:28Z</time>
      </trkpt>
      <trkpt lat="44.42308" lon="1.37795">
        <ele>194</ele>
        <time>2019-04-14T12:33:29Z</time>
      </trkpt>
      <trkpt lat="44.42305" lon="1.37796">
        <ele>194</ele>
        <time>2019-04-14T12:33:30Z</time>
      </trkpt>
      <trkpt lat="44.42303" lon="1.37798">
        <ele>195</ele>
        <time>2019-04-14T12:33:31Z</time>
      </trkpt>
      <trkpt lat="44.42301" lon="1.378">
        <ele>195</ele>
        <time>2019-04-14T12:33:32Z</time>
      </trkpt>
      <trkpt lat="44.42298" lon="1.378">
        <ele>195</ele>
        <time>2019-04-14T12:33:33Z</time>
      </trkpt>
      <trkpt lat="44.42296" lon="1.37801">
        <ele>195</ele>
        <time>2019-04-14T12:33:34Z</time>
      </trkpt>
      <trkpt lat="44.42294" lon="1.37801">
        <ele>195</ele>
        <time>2019-04-14T12:33:35Z</time>
      </trkpt>
      <trkpt lat="44.42292" lon="1.37801">
        <ele>195</ele>
        <time>2019-04-14T12:33:36Z</time>
      </trkpt>
      <trkpt lat="44.42289" lon="1.37801">
        <ele>195</ele>
        <time>2019-04-14T12:33:37Z</time>
      </trkpt>
      <trkpt lat="44.42286" lon="1.37802">
        <ele>195</ele>
        <time>2019-04-14T12:33:38Z</time>
      </trkpt>
      <trkpt lat="44.42283" lon="1.37803">
        <ele>195</ele>
        <time>2019-04-14T12:33:39Z</time>
      </trkpt>
      <trkpt lat="44.42281" lon="1.37804">
        <ele>195</ele>
        <time>2019-04-14T12:33:40Z</time>
      </trkpt>
      <trkpt lat="44.42278" lon="1.37805">
        <ele>195</ele>
        <time>2019-04-14T12:33:41Z</time>
      </trkpt>
      <trkpt lat="44.42276" lon="1.37805">
        <ele>195</ele>
        <time>2019-04-14T12:33:42Z</time>
      </trkpt>
      <trkpt lat="44.42273" lon="1.37806">
        <ele>195</ele>
        <time>2019-04-14T12:33:43Z</time>
      </trkpt>
      <trkpt lat="44.42271" lon="1.37806">
        <ele>195</ele>
        <time>2019-04-14T12:33:44Z</time>
      </trkpt>
      <trkpt lat="44.42268" lon="1.37808">
        <ele>196</ele>
        <time>2019-04-14T12:33:45Z</time>
      </trkpt>
      <trkpt lat="44.42266" lon="1.37809">
        <ele>196</ele>
        <time>2019-04-14T12:33:46Z</time>
      </trkpt>
      <trkpt lat="44.42264" lon="1.3781">
        <ele>196</ele>
        <time>2019-04-14T12:33:47Z</time>
      </trkpt>
      <trkpt lat="44.42262" lon="1.3781">
        <ele>196</ele>
        <time>2019-04-14T12:33:48Z</time>
      </trkpt>
      <trkpt lat="44.4226" lon="1.37809">
        <ele>196</ele>
        <time>2019-04-14T12:33:49Z</time>
      </trkpt>
      <trkpt lat="44.42258" lon="1.3781">
        <ele>196</ele>
        <time>2019-04-14T12:33:50Z</time>
      </trkpt>
      <trkpt lat="44.42256" lon="1.37811">
        <ele>196</ele>
        <time>2019-04-14T12:33:51Z</time>
      </trkpt>
      <trkpt lat="44.42254" lon="1.37811">
        <ele>196</ele>
        <time>2019-04-14T12:33:52Z</time>
      </trkpt>
      <trkpt lat="44.42253" lon="1.37809">
        <ele>196</ele>
        <time>2019-04-14T12:33:53Z</time>
      </trkpt>
      <trkpt lat="44.42251" lon="1.37807">
        <ele>197</ele>
        <time>2019-04-14T12:33:54Z</time>
      </trkpt>
      <trkpt lat="44.42249" lon="1.37806">
        <ele>197</ele>
        <time>2019-04-14T12:33:55Z</time>
      </trkpt>
      <trkpt lat="44.42247" lon="1.37805">
        <ele>197</ele>
        <time>2019-04-14T12:33:56Z</time>
      </trkpt>
      <trkpt lat="44.42244" lon="1.37805">
        <ele>197</ele>
        <time>2019-04-14T12:33:57Z</time>
      </trkpt>
      <trkpt lat="44.42242" lon="1.37803">
        <ele>197</ele>
        <time>2019-04-14T12:33:58Z</time>
      </trkpt>
      <trkpt lat="44.4224" lon="1.37801">
        <ele>198</ele>
        <time>2019-04-14T12:33:59Z</time>
      </trkpt>
      <trkpt lat="44.42238" lon="1.378">
        <ele>198</ele>
        <time>2019-04-14T12:34:00Z</time>
      </trkpt>
      <trkpt lat="44.42236" lon="1.37799">
        <ele>198</ele>
        <time>2019-04-14T12:34:01Z</time>
      </trkpt>
      <trkpt lat="44.42233" lon="1.378">
        <ele>198</ele>
        <time>2019-04-14T12:34:02Z</time>
      </trkpt>
      <trkpt lat="44.42231" lon="1.37801">
        <ele>199</ele>
        <time>2019-04-14T12:34:03Z</time>
      </trkpt>
      <trkpt lat="44.42228" lon="1.37801">
        <ele>198</ele>
        <time>2019-04-14T12:34:04Z</time>
      </trkpt>
      <trkpt lat="44.42226" lon="1.37801">
        <ele>198</ele>
        <time>2019-04-14T12:34:05Z</time>
      </trkpt>
      <trkpt lat="44.42223" lon="1.37801">
        <ele>198</ele>
        <time>2019-04-14T12:34:06Z</time>
      </trkpt>
      <trkpt lat="44.4222" lon="1.37802">
        <ele>198</ele>
        <time>2019-04-14T12:34:07Z</time>
      </trkpt>
      <trkpt lat="44.42219" lon="1.37803">
        <ele>199</ele>
        <time>2019-04-14T12:34:08Z</time>
      </trkpt>
      <trkpt lat="44.42218" lon="1.37803">
        <ele>199</ele>
        <time>2019-04-14T12:34:09Z</time>
      </trkpt>
      <trkpt lat="44.42216" lon="1.37805">
        <ele>199</ele>
        <time>2019-04-14T12:34:10Z</time>
      </trkpt>
      <trkpt lat="44.42214" lon="1.37806">
        <ele>199</ele>
        <time>2019-04-14T12:34:11Z</time>
      </trkpt>
      <trkpt lat="44.42213" lon="1.37805">
        <ele>199</ele>
        <time>2019-04-14T12:34:12Z</time>
      </trkpt>
      <trkpt lat="44.42213" lon="1.37803">
        <ele>199</ele>
        <time>2019-04-14T12:34:13Z</time>
      </trkpt>
      <trkpt lat="44.42211" lon="1.37801">
        <ele>199</ele>
        <time>2019-04-14T12:34:14Z</time>
      </trkpt>
      <trkpt lat="44.42208" lon="1.37802">
        <ele>199</ele>
        <time>2019-04-14T12:34:15Z</time>
      </trkpt>
      <trkpt lat="44.42206" lon="1.37802">
        <ele>199</ele>
        <time>2019-04-14T12:34:16Z</time>
      </trkpt>
      <trkpt lat="44.42204" lon="1.37802">
        <ele>200</ele>
        <time>2019-04-14T12:34:17Z</time>
      </trkpt>
      <trkpt lat="44.42202" lon="1.37801">
        <ele>200</ele>
        <time>2019-04-14T12:34:18Z</time>
      </trkpt>
      <trkpt lat="44.422" lon="1.37799">
        <ele>200</ele>
        <time>2019-04-14T12:34:19Z</time>
      </trkpt>
      <trkpt lat="44.42198" lon="1.37799">
        <ele>200</ele>
        <time>2019-04-14T12:34:20Z</time>
      </trkpt>
      <trkpt lat="44.42196" lon="1.37798">
        <ele>200</ele>
        <time>2019-04-14T12:34:21Z</time>
      </trkpt>
      <trkpt lat="44.42194" lon="1.37797">
        <ele>200</ele>
        <time>2019-04-14T12:34:22Z</time>
      </trkpt>
      <trkpt lat="44.42193" lon="1.37796">
        <ele>200</ele>
        <time>2019-04-14T12:34:23Z</time>
      </trkpt>
      <trkpt lat="44.42192" lon="1.37795">
        <ele>200</ele>
        <time>2019-04-14T12:34:24Z</time>
      </trkpt>
      <trkpt lat="44.42191" lon="1.37793">
        <ele>201</ele>
        <time>2019-04-14T12:34:25Z</time>
      </trkpt>
      <trkpt lat="44.42188" lon="1.37792">
        <ele>201</ele>
        <time>2019-04-14T12:34:26Z</time>
      </trkpt>
      <trkpt lat="44.42185" lon="1.37792">
        <ele>201</ele>
        <time>2019-04-14T12:34:27Z</time>
      </trkpt>
      <trkpt lat="44.42182" lon="1.37792">
        <ele>201</ele>
        <time>2019-04-14T12:34:28Z</time>
      </trkpt>
      <trkpt lat="44.4218" lon="1.37792">
        <ele>201</ele>
        <time>2019-04-14T12:34:29Z</time>
      </trkpt>
      <trkpt lat="44.42178" lon="1.37792">
        <ele>201</ele>
        <time>2019-04-14T12:34:30Z</time>
      </trkpt>
      <trkpt lat="44.42175" lon="1.37796">
        <ele>201</ele>
        <time>2019-04-14T12:34:31Z</time>
      </trkpt>
      <trkpt lat="44.42173" lon="1.37797">
        <ele>201</ele>
        <time>2019-04-14T12:34:32Z</time>
      </trkpt>
      <trkpt lat="44.4217" lon="1.37796">
        <ele>201</ele>
        <time>2019-04-14T12:34:33Z</time>
      </trkpt>
      <trkpt lat="44.42168" lon="1.37796">
        <ele>201</ele>
        <time>2019-04-14T12:34:34Z</time>
      </trkpt>
      <trkpt lat="44.42167" lon="1.37796">
        <ele>201</ele>
        <time>2019-04-14T12:34:35Z</time>
      </trkpt>
      <trkpt lat="44.42164" lon="1.37796">
        <ele>202</ele>
        <time>2019-04-14T12:34:36Z</time>
      </trkpt>
      <trkpt lat="44.42162" lon="1.37796">
        <ele>202</ele>
        <time>2019-04-14T12:34:37Z</time>
      </trkpt>
      <trkpt lat="44.42159" lon="1.37795">
        <ele>202</ele>
        <time>2019-04-14T12:34:38Z</time>
      </trkpt>
      <trkpt lat="44.42157" lon="1.37794">
        <ele>202</ele>
        <time>2019-04-14T12:34:39Z</time>
      </trkpt>
      <trkpt lat="44.42156" lon="1.37793">
        <ele>202</ele>
        <time>2019-04-14T12:34:40Z</time>
      </trkpt>
      <trkpt lat="44.42155" lon="1.37791">
        <ele>202</ele>
        <time>2019-04-14T12:34:41Z</time>
      </trkpt>
      <trkpt lat="44.42155" lon="1.37788">
        <ele>202</ele>
        <time>2019-04-14T12:34:42Z</time>
      </trkpt>
      <trkpt lat="44.42154" lon="1.37786">
        <ele>202</ele>
        <time>2019-04-14T12:34:43Z</time>
      </trkpt>
      <trkpt lat="44.42153" lon="1.37784">
        <ele>202</ele>
        <time>2019-04-14T12:34:44Z</time>
      </trkpt>
      <trkpt lat="44.4215" lon="1.37783">
        <ele>202</ele>
        <time>2019-04-14T12:34:45Z</time>
      </trkpt>
      <trkpt lat="44.42149" lon="1.37782">
        <ele>203</ele>
        <time>2019-04-14T12:34:46Z</time>
      </trkpt>
      <trkpt lat="44.42147" lon="1.37781">
        <ele>203</ele>
        <time>2019-04-14T12:34:47Z</time>
      </trkpt>
      <trkpt lat="44.42147" lon="1.37778">
        <ele>203</ele>
        <time>2019-04-14T12:34:48Z</time>
      </trkpt>
      <trkpt lat="44.42144" lon="1.37778">
        <ele>203</ele>
        <time>2019-04-14T12:34:49Z</time>
      </trkpt>
      <trkpt lat="44.42142" lon="1.37778">
        <ele>203</ele>
        <time>2019-04-14T12:34:50Z</time>
      </trkpt>
      <trkpt lat="44.42141" lon="1.37778">
        <ele>203</ele>
        <time>2019-04-14T12:34:51Z</time>
      </trkpt>
      <trkpt lat="44.42138" lon="1.37777">
        <ele>203</ele>
        <time>2019-04-14T12:34:52Z</time>
      </trkpt>
      <trkpt lat="44.42136" lon="1.37776">
        <ele>203</ele>
        <time>2019-04-14T12:34:53Z</time>
      </trkpt>
      <trkpt lat="44.42135" lon="1.37775">
        <ele>204</ele>
        <time>2019-04-14T12:34:54Z</time>
      </trkpt>
      <trkpt lat="44.42134" lon="1.37774">
        <ele>204</ele>
        <time>2019-04-14T12:34:55Z</time>
      </trkpt>
      <trkpt lat="44.42132" lon="1.37772">
        <ele>204</ele>
        <time>2019-04-14T12:34:56Z</time>
      </trkpt>
      <trkpt lat="44.4213" lon="1.37771">
        <ele>204</ele>
        <time>2019-04-14T12:34:57Z</time>
      </trkpt>
      <trkpt lat="44.42128" lon="1.37769">
        <ele>204</ele>
        <time>2019-04-14T12:34:58Z</time>
      </trkpt>
      <trkpt lat="44.42127" lon="1.37768">
        <ele>204</ele>
        <time>2019-04-14T12:34:59Z</time>
      </trkpt>
      <trkpt lat="44.42126" lon="1.37766">
        <ele>204</ele>
        <time>2019-04-14T12:35:00Z</time>
      </trkpt>
      <trkpt lat="44.42123" lon="1.37765">
        <ele>204</ele>
        <time>2019-04-14T12:35:01Z</time>
      </trkpt>
      <trkpt lat="44.42121" lon="1.37764">
        <ele>204</ele>
        <time>2019-04-14T12:35:02Z</time>
      </trkpt>
      <trkpt lat="44.4212" lon="1.37763">
        <ele>205</ele>
        <time>2019-04-14T12:35:03Z</time>
      </trkpt>
      <trkpt lat="44.42119" lon="1.37761">
        <ele>205</ele>
        <time>2019-04-14T12:35:04Z</time>
      </trkpt>
      <trkpt lat="44.42117" lon="1.37759">
        <ele>205</ele>
        <time>2019-04-14T12:35:05Z</time>
      </trkpt>
      <trkpt lat="44.42115" lon="1.37757">
        <ele>205</ele>
        <time>2019-04-14T12:35:06Z</time>
      </trkpt>
      <trkpt lat="44.42113" lon="1.37756">
        <ele>205</ele>
        <time>2019-04-14T12:35:07Z</time>
      </trkpt>
      <trkpt lat="44.42111" lon="1.37755">
        <ele>205</ele>
        <time>2019-04-14T12:35:08Z</time>
      </trkpt>
      <trkpt lat="44.42109" lon="1.37753">
        <ele>205</ele>
        <time>2019-04-14T12:35:09Z</time>
      </trkpt>
      <trkpt lat="44.42106" lon="1.37753">
        <ele>205</ele>
        <time>2019-04-14T12:35:10Z</time>
      </trkpt>
      <trkpt lat="44.42104" lon="1.37753">
        <ele>206</ele>
        <time>2019-04-14T12:35:11Z</time>
      </trkpt>
      <trkpt lat="44.42103" lon="1.37751">
        <ele>206</ele>
        <time>2019-04-14T12:35:12Z</time>
      </trkpt>
      <trkpt lat="44.42101" lon="1.37751">
        <ele>206</ele>
        <time>2019-04-14T12:35:13Z</time>
      </trkpt>
      <trkpt lat="44.421" lon="1.3775">
        <ele>206</ele>
        <time>2019-04-14T12:35:14Z</time>
      </trkpt>
      <trkpt lat="44.42098" lon="1.37749">
        <ele>206</ele>
        <time>2019-04-14T12:35:15Z</time>
      </trkpt>
      <trkpt lat="44.42095" lon="1.3775">
        <ele>206</ele>
        <time>2019-04-14T12:35:16Z</time>
      </trkpt>
      <trkpt lat="44.42094" lon="1.3775">
        <ele>207</ele>
        <time>2019-04-14T12:35:17Z</time>
      </trkpt>
      <trkpt lat="44.42093" lon="1.37751">
        <ele>207</ele>
        <time>2019-04-14T12:35:18Z</time>
      </trkpt>
      <trkpt lat="44.4209" lon="1.37752">
        <ele>207</ele>
        <time>2019-04-14T12:35:19Z</time>
      </trkpt>
      <trkpt lat="44.42089" lon="1.37752">
        <ele>207</ele>
        <time>2019-04-14T12:35:20Z</time>
      </trkpt>
      <trkpt lat="44.42087" lon="1.37752">
        <ele>207</ele>
        <time>2019-04-14T12:35:21Z</time>
      </trkpt>
      <trkpt lat="44.42084" lon="1.37752">
        <ele>207</ele>
        <time>2019-04-14T12:35:22Z</time>
      </trkpt>
      <trkpt lat="44.42082" lon="1.37753">
        <ele>208</ele>
        <time>2019-04-14T12:35:23Z</time>
      </trkpt>
      <trkpt lat="44.4208" lon="1.37753">
        <ele>208</ele>
        <time>2019-04-14T12:35:24Z</time>
      </trkpt>
      <trkpt lat="44.42078" lon="1.37753">
        <ele>208</ele>
        <time>2019-04-14T12:35:25Z</time>
      </trkpt>
      <trkpt lat="44.42076" lon="1.37754">
        <ele>208</ele>
        <time>2019-04-14T12:35:26Z</time>
      </trkpt>
      <trkpt lat="44.42074" lon="1.37754">
        <ele>208</ele>
        <time>2019-04-14T12:35:27Z</time>
      </trkpt>
      <trkpt lat="44.42072" lon="1.37755">
        <ele>208</ele>
        <time>2019-04-14T12:35:28Z</time>
      </trkpt>
      <trkpt lat="44.4207" lon="1.37755">
        <ele>208</ele>
        <time>2019-04-14T12:35:29Z</time>
      </trkpt>
      <trkpt lat="44.42068" lon="1.37756">
        <ele>209</ele>
        <time>2019-04-14T12:35:30Z</time>
      </trkpt>
      <trkpt lat="44.42066" lon="1.37756">
        <ele>209</ele>
        <time>2019-04-14T12:35:31Z</time>
      </trkpt>
      <trkpt lat="44.42065" lon="1.37756">
        <ele>209</ele>
        <time>2019-04-14T12:35:32Z</time>
      </trkpt>
      <trkpt lat="44.42063" lon="1.37757">
        <ele>209</ele>
        <time>2019-04-14T12:35:33Z</time>
      </trkpt>
      <trkpt lat="44.42061" lon="1.37758">
        <ele>209</ele>
        <time>2019-04-14T12:35:34Z</time>
      </trkpt>
      <trkpt lat="44.42059" lon="1.37759">
        <ele>209</ele>
        <time>2019-04-14T12:35:35Z</time>
      </trkpt>
      <trkpt lat="44.42057" lon="1.3776">
        <ele>209</ele>
        <time>2019-04-14T12:35:36Z</time>
      </trkpt>
      <trkpt lat="44.42055" lon="1.3776">
        <ele>210</ele>
        <time>2019-04-14T12:35:37Z</time>
      </trkpt>
      <trkpt lat="44.42054" lon="1.3776">
        <ele>210</ele>
        <time>2019-04-14T12:35:38Z</time>
      </trkpt>
      <trkpt lat="44.42052" lon="1.37761">
        <ele>210</ele>
        <time>2019-04-14T12:35:39Z</time>
      </trkpt>
      <trkpt lat="44.42051" lon="1.37762">
        <ele>210</ele>
        <time>2019-04-14T12:35:40Z</time>
      </trkpt>
      <trkpt lat="44.42049" lon="1.37762">
        <ele>210</ele>
        <time>2019-04-14T12:35:41Z</time>
      </trkpt>
      <trkpt lat="44.42047" lon="1.37764">
        <ele>210</ele>
        <time>2019-04-14T12:35:42Z</time>
      </trkpt>
      <trkpt lat="44.42046" lon="1.37764">
        <ele>210</ele>
        <time>2019-04-14T12:35:43Z</time>
      </trkpt>
      <trkpt lat="44.42044" lon="1.37765">
        <ele>210</ele>
        <time>2019-04-14T12:35:44Z</time>
      </trkpt>
      <trkpt lat="44.42042" lon="1.37766">
        <ele>210</ele>
        <time>2019-04-14T12:35:45Z</time>
      </trkpt>
      <trkpt lat="44.4204" lon="1.37767">
        <ele>211</ele>
        <time>2019-04-14T12:35:46Z</time>
      </trkpt>
      <trkpt lat="44.42038" lon="1.37768">
        <ele>211</ele>
        <time>2019-04-14T12:35:47Z</time>
      </trkpt>
      <trkpt lat="44.42037" lon="1.37769">
        <ele>211</ele>
        <time>2019-04-14T12:35:48Z</time>
      </trkpt>
      <trkpt lat="44.42035" lon="1.37769">
        <ele>211</ele>
        <time>2019-04-14T12:35:49Z</time>
      </trkpt>
      <trkpt lat="44.42033" lon="1.3777">
        <ele>211</ele>
        <time>2019-04-14T12:35:50Z</time>
      </trkpt>
      <trkpt lat="44.42032" lon="1.37769">
        <ele>211</ele>
        <time>2019-04-14T12:35:51Z</time>
      </trkpt>
      <trkpt lat="44.4203" lon="1.37769">
        <ele>211</ele>
        <time>2019-04-14T12:35:52Z</time>
      </trkpt>
      <trkpt lat="44.42028" lon="1.3777">
        <ele>211</ele>
        <time>2019-04-14T12:35:53Z</time>
      </trkpt>
      <trkpt lat="44.42027" lon="1.37771">
        <ele>211</ele>
        <time>2019-04-14T12:35:54Z</time>
      </trkpt>
      <trkpt lat="44.42025" lon="1.37772">
        <ele>211</ele>
        <time>2019-04-14T12:35:55Z</time>
      </trkpt>
      <trkpt lat="44.42023" lon="1.37772">
        <ele>211</ele>
        <time>2019-04-14T12:35:56Z</time>
      </trkpt>
      <trkpt lat="44.42022" lon="1.37772">
        <ele>211</ele>
        <time>2019-04-14T12:35:57Z</time>
      </trkpt>
      <trkpt lat="44.4202" lon="1.37773">
        <ele>212</ele>
        <time>2019-04-14T12:35:58Z</time>
      </trkpt>
      <trkpt lat="44.42018" lon="1.37774">
        <ele>212</ele>
        <time>2019-04-14T12:35:59Z</time>
      </trkpt>
      <trkpt lat="44.42017" lon="1.37774">
        <ele>212</ele>
        <time>2019-04-14T12:36:00Z</time>
      </trkpt>
      <trkpt lat="44.42016" lon="1.37774">
        <ele>212</ele>
        <time>2019-04-14T12:36:01Z</time>
      </trkpt>
      <trkpt lat="44.42016" lon="1.37775">
        <ele>212</ele>
        <time>2019-04-14T12:36:02Z</time>
      </trkpt>
      <trkpt lat="44.42014" lon="1.37775">
        <ele>212</ele>
        <time>2019-04-14T12:36:03Z</time>
      </trkpt>
      <trkpt lat="44.42013" lon="1.37776">
        <ele>212</ele>
        <time>2019-04-14T12:36:04Z</time>
      </trkpt>
      <trkpt lat="44.4201" lon="1.37778">
        <ele>212</ele>
        <time>2019-04-14T12:36:05Z</time>
      </trkpt>
      <trkpt lat="44.42008" lon="1.37779">
        <ele>212</ele>
        <time>2019-04-14T12:36:06Z</time>
      </trkpt>
      <trkpt lat="44.42005" lon="1.3778">
        <ele>213</ele>
        <time>2019-04-14T12:36:07Z</time>
      </trkpt>
      <trkpt lat="44.42003" lon="1.37781">
        <ele>213</ele>
        <time>2019-04-14T12:36:08Z</time>
      </trkpt>
      <trkpt lat="44.42001" lon="1.37782">
        <ele>213</ele>
        <time>2019-04-14T12:36:09Z</time>
      </trkpt>
      <trkpt lat="44.41999" lon="1.37783">
        <ele>213</ele>
        <time>2019-04-14T12:36:10Z</time>
      </trkpt>
      <trkpt lat="44.41998" lon="1.37784">
        <ele>213</ele>
        <time>2019-04-14T12:36:11Z</time>
      </trkpt>
      <trkpt lat="44.41996" lon="1.37784">
        <ele>214</ele>
        <time>2019-04-14T12:36:12Z</time>
      </trkpt>
      <trkpt lat="44.41995" lon="1.37785">
        <ele>214</ele>
        <time>2019-04-14T12:36:13Z</time>
      </trkpt>
      <trkpt lat="44.41993" lon="1.37786">
        <ele>214</ele>
        <time>2019-04-14T12:36:14Z</time>
      </trkpt>
      <trkpt lat="44.41991" lon="1.37787">
        <ele>214</ele>
        <time>2019-04-14T12:36:15Z</time>
      </trkpt>
      <trkpt lat="44.41989" lon="1.37787">
        <ele>214</ele>
        <time>2019-04-14T12:36:16Z</time>
      </trkpt>
      <trkpt lat="44.41988" lon="1.37788">
        <ele>214</ele>
        <time>2019-04-14T12:36:17Z</time>
      </trkpt>
      <trkpt lat="44.41986" lon="1.37788">
        <ele>214</ele>
        <time>2019-04-14T12:36:18Z</time>
      </trkpt>
      <trkpt lat="44.41985" lon="1.37789">
        <ele>214</ele>
        <time>2019-04-14T12:36:19Z</time>
      </trkpt>
      <trkpt lat="44.41984" lon="1.3779">
        <ele>214</ele>
        <time>2019-04-14T12:36:20Z</time>
      </trkpt>
      <trkpt lat="44.41982" lon="1.37791">
        <ele>215</ele>
        <time>2019-04-14T12:36:21Z</time>
      </trkpt>
      <trkpt lat="44.41981" lon="1.37792">
        <ele>215</ele>
        <time>2019-04-14T12:36:22Z</time>
      </trkpt>
      <trkpt lat="44.41979" lon="1.37794">
        <ele>215</ele>
        <time>2019-04-14T12:36:23Z</time>
      </trkpt>
      <trkpt lat="44.41978" lon="1.37795">
        <ele>215</ele>
        <time>2019-04-14T12:36:24Z</time>
      </trkpt>
      <trkpt lat="44.41977" lon="1.37795">
        <ele>215</ele>
        <time>2019-04-14T12:36:25Z</time>
      </trkpt>
      <trkpt lat="44.41975" lon="1.37797">
        <ele>215</ele>
        <time>2019-04-14T12:36:26Z</time>
      </trkpt>
      <trkpt lat="44.41974" lon="1.37798">
        <ele>215</ele>
        <time>2019-04-14T12:36:27Z</time>
      </trkpt>
      <trkpt lat="44.41972" lon="1.378">
        <ele>215</ele>
        <time>2019-04-14T12:36:28Z</time>
      </trkpt>
      <trkpt lat="44.4197" lon="1.37801">
        <ele>215</ele>
        <time>2019-04-14T12:36:29Z</time>
      </trkpt>
      <trkpt lat="44.41969" lon="1.37802">
        <ele>216</ele>
        <time>2019-04-14T12:36:30Z</time>
      </trkpt>
      <trkpt lat="44.41968" lon="1.37803">
        <ele>216</ele>
        <time>2019-04-14T12:36:31Z</time>
      </trkpt>
      <trkpt lat="44.41966" lon="1.37804">
        <ele>216</ele>
        <time>2019-04-14T12:36:32Z</time>
      </trkpt>
      <trkpt lat="44.41965" lon="1.37806">
        <ele>216</ele>
        <time>2019-04-14T12:36:33Z</time>
      </trkpt>
      <trkpt lat="44.41963" lon="1.37808">
        <ele>216</ele>
        <time>2019-04-14T12:36:34Z</time>
      </trkpt>
      <trkpt lat="44.41962" lon="1.3781">
        <ele>216</ele>
        <time>2019-04-14T12:36:35Z</time>
      </trkpt>
      <trkpt lat="44.4196" lon="1.37811">
        <ele>216</ele>
        <time>2019-04-14T12:36:36Z</time>
      </trkpt>
      <trkpt lat="44.41959" lon="1.37812">
        <ele>217</ele>
        <time>2019-04-14T12:36:37Z</time>
      </trkpt>
      <trkpt lat="44.41958" lon="1.37814">
        <ele>217</ele>
        <time>2019-04-14T12:36:38Z</time>
      </trkpt>
      <trkpt lat="44.41957" lon="1.37815">
        <ele>217</ele>
        <time>2019-04-14T12:36:39Z</time>
      </trkpt>
      <trkpt lat="44.41955" lon="1.37817">
        <ele>217</ele>
        <time>2019-04-14T12:36:40Z</time>
      </trkpt>
      <trkpt lat="44.41954" lon="1.37817">
        <ele>217</ele>
        <time>2019-04-14T12:36:41Z</time>
      </trkpt>
      <trkpt lat="44.41953" lon="1.37819">
        <ele>218</ele>
        <time>2019-04-14T12:36:42Z</time>
      </trkpt>
      <trkpt lat="44.41952" lon="1.3782">
        <ele>218</ele>
        <time>2019-04-14T12:36:43Z</time>
      </trkpt>
      <trkpt lat="44.4195" lon="1.37822">
        <ele>218</ele>
        <time>2019-04-14T12:36:44Z</time>
      </trkpt>
      <trkpt lat="44.41949" lon="1.37823">
        <ele>218</ele>
        <time>2019-04-14T12:36:45Z</time>
      </trkpt>
      <trkpt lat="44.41948" lon="1.37824">
        <ele>218</ele>
        <time>2019-04-14T12:36:46Z</time>
      </trkpt>
      <trkpt lat="44.41946" lon="1.37825">
        <ele>218</ele>
        <time>2019-04-14T12:36:47Z</time>
      </trkpt>
      <trkpt lat="44.41945" lon="1.37827">
        <ele>218</ele>
        <time>2019-04-14T12:36:48Z</time>
      </trkpt>
      <trkpt lat="44.41944" lon="1.37828">
        <ele>218</ele>
        <time>2019-04-14T12:36:49Z</time>
      </trkpt>
      <trkpt lat="44.41943" lon="1.37829">
        <ele>218</ele>
        <time>2019-04-14T12:36:50Z</time>
      </trkpt>
      <trkpt lat="44.41943" lon="1.37831">
        <ele>218</ele>
        <time>2019-04-14T12:36:51Z</time>
      </trkpt>
      <trkpt lat="44.41941" lon="1.37832">
        <ele>219</ele>
        <time>2019-04-14T12:36:52Z</time>
      </trkpt>
      <trkpt lat="44.4194" lon="1.37833">
        <ele>219</ele>
        <time>2019-04-14T12:36:53Z</time>
      </trkpt>
      <trkpt lat="44.41939" lon="1.37835">
        <ele>219</ele>
        <time>2019-04-14T12:36:54Z</time>
      </trkpt>
      <trkpt lat="44.41939" lon="1.37837">
        <ele>219</ele>
        <time>2019-04-14T12:36:55Z</time>
      </trkpt>
      <trkpt lat="44.41938" lon="1.37838">
        <ele>219</ele>
        <time>2019-04-14T12:36:56Z</time>
      </trkpt>
      <trkpt lat="44.41937" lon="1.37838">
        <ele>219</ele>
        <time>2019-04-14T12:36:57Z</time>
      </trkpt>
      <trkpt lat="44.41937" lon="1.37839">
        <ele>219</ele>
        <time>2019-04-14T12:36:58Z</time>
      </trkpt>
      <trkpt lat="44.41936" lon="1.37839">
        <ele>220</ele>
        <time>2019-04-14T12:36:59Z</time>
      </trkpt>
      <trkpt lat="44.41935" lon="1.37839">
        <ele>220</ele>
        <time>2019-04-14T12:37:00Z</time>
      </trkpt>
      <trkpt lat="44.41935" lon="1.3784">
        <ele>220</ele>
        <time>2019-04-14T12:37:01Z</time>
      </trkpt>
      <trkpt lat="44.41934" lon="1.37842">
        <ele>220</ele>
        <time>2019-04-14T12:37:02Z</time>
      </trkpt>
      <trkpt lat="44.41933" lon="1.37844">
        <ele>220</ele>
        <time>2019-04-14T12:37:03Z</time>
      </trkpt>
      <trkpt lat="44.41932" lon="1.37846">
        <ele>220</ele>
        <time>2019-04-14T12:37:04Z</time>
      </trkpt>
      <trkpt lat="44.41932" lon="1.37848">
        <ele>221</ele>
        <time>2019-04-14T12:37:05Z</time>
      </trkpt>
      <trkpt lat="44.41932" lon="1.37851">
        <ele>221</ele>
        <time>2019-04-14T12:37:06Z</time>
      </trkpt>
      <trkpt lat="44.41931" lon="1.37853">
        <ele>221</ele>
        <time>2019-04-14T12:37:07Z</time>
      </trkpt>
      <trkpt lat="44.41931" lon="1.37855">
        <ele>221</ele>
        <time>2019-04-14T12:37:08Z</time>
      </trkpt>
      <trkpt lat="44.4193" lon="1.37856">
        <ele>221</ele>
        <time>2019-04-14T12:37:09Z</time>
      </trkpt>
      <trkpt lat="44.41929" lon="1.37858">
        <ele>221</ele>
        <time>2019-04-14T12:37:10Z</time>
      </trkpt>
      <trkpt lat="44.41931" lon="1.37859">
        <ele>221</ele>
        <time>2019-04-14T12:37:11Z</time>
      </trkpt>
      <trkpt lat="44.41931" lon="1.37861">
        <ele>222</ele>
        <time>2019-04-14T12:37:12Z</time>
      </trkpt>
      <trkpt lat="44.4193" lon="1.37863">
        <ele>222</ele>
        <time>2019-04-14T12:37:13Z</time>
      </trkpt>
      <trkpt lat="44.41929" lon="1.37865">
        <ele>222</ele>
        <time>2019-04-14T12:37:14Z</time>
      </trkpt>
      <trkpt lat="44.41928" lon="1.37866">
        <ele>222</ele>
        <time>2019-04-14T12:37:15Z</time>
      </trkpt>
      <trkpt lat="44.41927" lon="1.37867">
        <ele>222</ele>
        <time>2019-04-14T12:37:16Z</time>
      </trkpt>
      <trkpt lat="44.41926" lon="1.37869">
        <ele>222</ele>
        <time>2019-04-14T12:37:17Z</time>
      </trkpt>
      <trkpt lat="44.41925" lon="1.37871">
        <ele>222</ele>
        <time>2019-04-14T12:37:18Z</time>
      </trkpt>
      <trkpt lat="44.41924" lon="1.37872">
        <ele>223</ele>
        <time>2019-04-14T12:37:19Z</time>
      </trkpt>
      <trkpt lat="44.41923" lon="1.37873">
        <ele>223</ele>
        <time>2019-04-14T12:37:20Z</time>
      </trkpt>
      <trkpt lat="44.41922" lon="1.37874">
        <ele>223</ele>
        <time>2019-04-14T12:37:21Z</time>
      </trkpt>
      <trkpt lat="44.4192" lon="1.37875">
        <ele>223</ele>
        <time>2019-04-14T12:37:22Z</time>
      </trkpt>
      <trkpt lat="44.41919" lon="1.37876">
        <ele>223</ele>
        <time>2019-04-14T12:37:23Z</time>
      </trkpt>
      <trkpt lat="44.41918" lon="1.37878">
        <ele>223</ele>
        <time>2019-04-14T12:37:24Z</time>
      </trkpt>
      <trkpt lat="44.41916" lon="1.37879">
        <ele>223</ele>
        <time>2019-04-14T12:37:25Z</time>
      </trkpt>
      <trkpt lat="44.41915" lon="1.3788">
        <ele>224</ele>
        <time>2019-04-14T12:37:26Z</time>
      </trkpt>
      <trkpt lat="44.41914" lon="1.37882">
        <ele>224</ele>
        <time>2019-04-14T12:37:27Z</time>
      </trkpt>
      <trkpt lat="44.41913" lon="1.37883">
        <ele>224</ele>
        <time>2019-04-14T12:37:28Z</time>
      </trkpt>
      <trkpt lat="44.41911" lon="1.37884">
        <ele>224</ele>
        <time>2019-04-14T12:37:29Z</time>
      </trkpt>
      <trkpt lat="44.4191" lon="1.37885">
        <ele>224</ele>
        <time>2019-04-14T12:37:30Z</time>
      </trkpt>
      <trkpt lat="44.41909" lon="1.37886">
        <ele>224</ele>
        <time>2019-04-14T12:37:31Z</time>
      </trkpt>
      <trkpt lat="44.41909" lon="1.37887">
        <ele>224</ele>
        <time>2019-04-14T12:37:32Z</time>
      </trkpt>
      <trkpt lat="44.41908" lon="1.37889">
        <ele>224</ele>
        <time>2019-04-14T12:37:33Z</time>
      </trkpt>
      <trkpt lat="44.41907" lon="1.3789">
        <ele>225</ele>
        <time>2019-04-14T12:37:34Z</time>
      </trkpt>
      <trkpt lat="44.41907" lon="1.37891">
        <ele>225</ele>
        <time>2019-04-14T12:37:35Z</time>
      </trkpt>
      <trkpt lat="44.41906" lon="1.37893">
        <ele>225</ele>
        <time>2019-04-14T12:37:36Z</time>
      </trkpt>
      <trkpt lat="44.41905" lon="1.37894">
        <ele>225</ele>
        <time>2019-04-14T12:37:37Z</time>
      </trkpt>
      <trkpt lat="44.41904" lon="1.37895">
        <ele>225</ele>
        <time>2019-04-14T12:37:38Z</time>
      </trkpt>
      <trkpt lat="44.41903" lon="1.37896">
        <ele>225</ele>
        <time>2019-04-14T12:37:39Z</time>
      </trkpt>
      <trkpt lat="44.41902" lon="1.37897">
        <ele>225</ele>
        <time>2019-04-14T12:37:40Z</time>
      </trkpt>
      <trkpt lat="44.41901" lon="1.37898">
        <ele>226</ele>
        <time>2019-04-14T12:37:41Z</time>
      </trkpt>
      <trkpt lat="44.419" lon="1.37899">
        <ele>226</ele>
        <time>2019-04-14T12:37:42Z</time>
      </trkpt>
      <trkpt lat="44.41899" lon="1.37901">
        <ele>226</ele>
        <time>2019-04-14T12:37:43Z</time>
      </trkpt>
      <trkpt lat="44.41898" lon="1.37902">
        <ele>226</ele>
        <time>2019-04-14T12:37:44Z</time>
      </trkpt>
      <trkpt lat="44.41897" lon="1.37903">
        <ele>226</ele>
        <time>2019-04-14T12:37:45Z</time>
      </trkpt>
      <trkpt lat="44.41895" lon="1.37904">
        <ele>226</ele>
        <time>2019-04-14T12:37:46Z</time>
      </trkpt>
      <trkpt lat="44.41894" lon="1.37905">
        <ele>226</ele>
        <time>2019-04-14T12:37:47Z</time>
      </trkpt>
      <trkpt lat="44.41892" lon="1.37906">
        <ele>226</ele>
        <time>2019-04-14T12:37:48Z</time>
      </trkpt>
      <trkpt lat="44.4189" lon="1.37908">
        <ele>226</ele>
        <time>2019-04-14T12:37:49Z</time>
      </trkpt>
      <trkpt lat="44.41888" lon="1.37909">
        <ele>226</ele>
        <time>2019-04-14T12:37:50Z</time>
      </trkpt>
      <trkpt lat="44.41887" lon="1.37909">
        <ele>226</ele>
        <time>2019-04-14T12:37:51Z</time>
      </trkpt>
      <trkpt lat="44.41885" lon="1.3791">
        <ele>226</ele>
        <time>2019-04-14T12:37:52Z</time>
      </trkpt>
      <trkpt lat="44.41883" lon="1.37911">
        <ele>226</ele>
        <time>2019-04-14T12:37:53Z</time>
      </trkpt>
      <trkpt lat="44.41882" lon="1.37912">
        <ele>226</ele>
        <time>2019-04-14T12:37:54Z</time>
      </trkpt>
      <trkpt lat="44.4188" lon="1.37913">
        <ele>226</ele>
        <time>2019-04-14T12:37:55Z</time>
      </trkpt>
      <trkpt lat="44.41878" lon="1.37914">
        <ele>226</ele>
        <time>2019-04-14T12:37:56Z</time>
      </trkpt>
      <trkpt lat="44.41876" lon="1.37915">
        <ele>227</ele>
        <time>2019-04-14T12:37:57Z</time>
      </trkpt>
      <trkpt lat="44.41875" lon="1.37916">
        <ele>227</ele>
        <time>2019-04-14T12:37:58Z</time>
      </trkpt>
      <trkpt lat="44.41873" lon="1.37917">
        <ele>227</ele>
        <time>2019-04-14T12:37:59Z</time>
      </trkpt>
      <trkpt lat="44.41871" lon="1.37917">
        <ele>227</ele>
        <time>2019-04-14T12:38:00Z</time>
      </trkpt>
      <trkpt lat="44.4187" lon="1.37918">
        <ele>227</ele>
        <time>2019-04-14T12:38:01Z</time>
      </trkpt>
      <trkpt lat="44.41868" lon="1.37919">
        <ele>227</ele>
        <time>2019-04-14T12:38:02Z</time>
      </trkpt>
      <trkpt lat="44.41867" lon="1.3792">
        <ele>227</ele>
        <time>2019-04-14T12:38:03Z</time>
      </trkpt>
      <trkpt lat="44.41865" lon="1.37921">
        <ele>227</ele>
        <time>2019-04-14T12:38:04Z</time>
      </trkpt>
      <trkpt lat="44.41864" lon="1.37921">
        <ele>227</ele>
        <time>2019-04-14T12:38:05Z</time>
      </trkpt>
      <trkpt lat="44.41862" lon="1.37922">
        <ele>227</ele>
        <time>2019-04-14T12:38:06Z</time>
      </trkpt>
      <trkpt lat="44.41861" lon="1.37923">
        <ele>227</ele>
        <time>2019-04-14T12:38:07Z</time>
      </trkpt>
      <trkpt lat="44.41859" lon="1.37923">
        <ele>227</ele>
        <time>2019-04-14T12:38:08Z</time>
      </trkpt>
      <trkpt lat="44.41858" lon="1.37924">
        <ele>228</ele>
        <time>2019-04-14T12:38:09Z</time>
      </trkpt>
      <trkpt lat="44.41857" lon="1.37925">
        <ele>228</ele>
        <time>2019-04-14T12:38:10Z</time>
      </trkpt>
      <trkpt lat="44.41855" lon="1.37925">
        <ele>228</ele>
        <time>2019-04-14T12:38:11Z</time>
      </trkpt>
      <trkpt lat="44.41854" lon="1.37926">
        <ele>228</ele>
        <time>2019-04-14T12:38:12Z</time>
      </trkpt>
      <trkpt lat="44.41852" lon="1.37926">
        <ele>228</ele>
        <time>2019-04-14T12:38:13Z</time>
      </trkpt>
      <trkpt lat="44.4185" lon="1.37926">
        <ele>228</ele>
        <time>2019-04-14T12:38:14Z</time>
      </trkpt>
      <trkpt lat="44.41849" lon="1.37925">
        <ele>228</ele>
        <time>2019-04-14T12:38:15Z</time>
      </trkpt>
      <trkpt lat="44.41847" lon="1.37925">
        <ele>228</ele>
        <time>2019-04-14T12:38:16Z</time>
      </trkpt>
      <trkpt lat="44.41845" lon="1.37926">
        <ele>228</ele>
        <time>2019-04-14T12:38:17Z</time>
      </trkpt>
      <trkpt lat="44.41844" lon="1.37926">
        <ele>229</ele>
        <time>2019-04-14T12:38:18Z</time>
      </trkpt>
      <trkpt lat="44.41843" lon="1.37925">
        <ele>229</ele>
        <time>2019-04-14T12:38:19Z</time>
      </trkpt>
      <trkpt lat="44.41841" lon="1.37925">
        <ele>229</ele>
        <time>2019-04-14T12:38:20Z</time>
      </trkpt>
      <trkpt lat="44.4184" lon="1.37926">
        <ele>229</ele>
        <time>2019-04-14T12:38:21Z</time>
      </trkpt>
      <trkpt lat="44.41838" lon="1.37926">
        <ele>229</ele>
        <time>2019-04-14T12:38:22Z</time>
      </trkpt>
      <trkpt lat="44.41836" lon="1.37926">
        <ele>229</ele>
        <time>2019-04-14T12:38:23Z</time>
      </trkpt>
      <trkpt lat="44.41834" lon="1.37926">
        <ele>229</ele>
        <time>2019-04-14T12:38:24Z</time>
      </trkpt>
      <trkpt lat="44.41833" lon="1.37927">
        <ele>229</ele>
        <time>2019-04-14T12:38:25Z</time>
      </trkpt>
      <trkpt lat="44.41831" lon="1.37928">
        <ele>229</ele>
        <time>2019-04-14T12:38:26Z</time>
      </trkpt>
      <trkpt lat="44.41829" lon="1.37928">
        <ele>229</ele>
        <time>2019-04-14T12:38:27Z</time>
      </trkpt>
      <trkpt lat="44.41828" lon="1.37928">
        <ele>229</ele>
        <time>2019-04-14T12:38:28Z</time>
      </trkpt>
      <trkpt lat="44.41826" lon="1.37928">
        <ele>229</ele>
        <time>2019-04-14T12:38:29Z</time>
      </trkpt>
      <trkpt lat="44.41825" lon="1.37928">
        <ele>229</ele>
        <time>2019-04-14T12:38:30Z</time>
      </trkpt>
      <trkpt lat="44.41823" lon="1.37928">
        <ele>229</ele>
        <time>2019-04-14T12:38:31Z</time>
      </trkpt>
      <trkpt lat="44.41822" lon="1.37929">
        <ele>229</ele>
        <time>2019-04-14T12:38:32Z</time>
      </trkpt>
      <trkpt lat="44.4182" lon="1.37929">
        <ele>229</ele>
        <time>2019-04-14T12:38:33Z</time>
      </trkpt>
      <trkpt lat="44.41819" lon="1.3793">
        <ele>230</ele>
        <time>2019-04-14T12:38:34Z</time>
      </trkpt>
      <trkpt lat="44.41817" lon="1.3793">
        <ele>230</ele>
        <time>2019-04-14T12:38:35Z</time>
      </trkpt>
      <trkpt lat="44.41816" lon="1.37931">
        <ele>230</ele>
        <time>2019-04-14T12:38:36Z</time>
      </trkpt>
      <trkpt lat="44.41815" lon="1.37931">
        <ele>230</ele>
        <time>2019-04-14T12:38:37Z</time>
      </trkpt>
      <trkpt lat="44.41814" lon="1.37932">
        <ele>230</ele>
        <time>2019-04-14T12:38:38Z</time>
      </trkpt>
      <trkpt lat="44.41813" lon="1.37933">
        <ele>230</ele>
        <time>2019-04-14T12:38:39Z</time>
      </trkpt>
      <trkpt lat="44.41811" lon="1.37934">
        <ele>231</ele>
        <time>2019-04-14T12:38:40Z</time>
      </trkpt>
      <trkpt lat="44.4181" lon="1.37934">
        <ele>231</ele>
        <time>2019-04-14T12:38:41Z</time>
      </trkpt>
      <trkpt lat="44.41808" lon="1.37934">
        <ele>231</ele>
        <time>2019-04-14T12:38:42Z</time>
      </trkpt>
      <trkpt lat="44.41806" lon="1.37934">
        <ele>231</ele>
        <time>2019-04-14T12:38:43Z</time>
      </trkpt>
      <trkpt lat="44.41805" lon="1.37934">
        <ele>231</ele>
        <time>2019-04-14T12:38:44Z</time>
      </trkpt>
      <trkpt lat="44.41803" lon="1.37934">
        <ele>231</ele>
        <time>2019-04-14T12:38:45Z</time>
      </trkpt>
      <trkpt lat="44.41802" lon="1.37934">
        <ele>231</ele>
        <time>2019-04-14T12:38:46Z</time>
      </trkpt>
      <trkpt lat="44.418" lon="1.37935">
        <ele>232</ele>
        <time>2019-04-14T12:38:47Z</time>
      </trkpt>
      <trkpt lat="44.41799" lon="1.37935">
        <ele>232</ele>
        <time>2019-04-14T12:38:48Z</time>
      </trkpt>
      <trkpt lat="44.41797" lon="1.37935">
        <ele>232</ele>
        <time>2019-04-14T12:38:49Z</time>
      </trkpt>
      <trkpt lat="44.41796" lon="1.37936">
        <ele>232</ele>
        <time>2019-04-14T12:38:50Z</time>
      </trkpt>
      <trkpt lat="44.41794" lon="1.37936">
        <ele>232</ele>
        <time>2019-04-14T12:38:51Z</time>
      </trkpt>
      <trkpt lat="44.41793" lon="1.37936">
        <ele>233</ele>
        <time>2019-04-14T12:38:52Z</time>
      </trkpt>
      <trkpt lat="44.41792" lon="1.37937">
        <ele>233</ele>
        <time>2019-04-14T12:38:53Z</time>
      </trkpt>
      <trkpt lat="44.41791" lon="1.37937">
        <ele>233</ele>
        <time>2019-04-14T12:38:54Z</time>
      </trkpt>
      <trkpt lat="44.41789" lon="1.37937">
        <ele>233</ele>
        <time>2019-04-14T12:38:55Z</time>
      </trkpt>
      <trkpt lat="44.41788" lon="1.37938">
        <ele>233</ele>
        <time>2019-04-14T12:38:56Z</time>
      </trkpt>
      <trkpt lat="44.41786" lon="1.37939">
        <ele>233</ele>
        <time>2019-04-14T12:38:57Z</time>
      </trkpt>
      <trkpt lat="44.41785" lon="1.3794">
        <ele>234</ele>
        <time>2019-04-14T12:38:58Z</time>
      </trkpt>
      <trkpt lat="44.41783" lon="1.3794">
        <ele>234</ele>
        <time>2019-04-14T12:38:59Z</time>
      </trkpt>
      <trkpt lat="44.41781" lon="1.3794">
        <ele>234</ele>
        <time>2019-04-14T12:39:00Z</time>
      </trkpt>
      <trkpt lat="44.41779" lon="1.37941">
        <ele>234</ele>
        <time>2019-04-14T12:39:01Z</time>
      </trkpt>
      <trkpt lat="44.41777" lon="1.37941">
        <ele>234</ele>
        <time>2019-04-14T12:39:02Z</time>
      </trkpt>
      <trkpt lat="44.41775" lon="1.37941">
        <ele>235</ele>
        <time>2019-04-14T12:39:03Z</time>
      </trkpt>
      <trkpt lat="44.41773" lon="1.37941">
        <ele>235</ele>
        <time>2019-04-14T12:39:04Z</time>
      </trkpt>
      <trkpt lat="44.41771" lon="1.37941">
        <ele>235</ele>
        <time>2019-04-14T12:39:05Z</time>
      </trkpt>
      <trkpt lat="44.41769" lon="1.37941">
        <ele>235</ele>
        <time>2019-04-14T12:39:06Z</time>
      </trkpt>
      <trkpt lat="44.41767" lon="1.37942">
        <ele>236</ele>
        <time>2019-04-14T12:39:07Z</time>
      </trkpt>
      <trkpt lat="44.41765" lon="1.37943">
        <ele>236</ele>
        <time>2019-04-14T12:39:08Z</time>
      </trkpt>
      <trkpt lat="44.41763" lon="1.37944">
        <ele>236</ele>
        <time>2019-04-14T12:39:09Z</time>
      </trkpt>
      <trkpt lat="44.41761" lon="1.37945">
        <ele>236</ele>
        <time>2019-04-14T12:39:10Z</time>
      </trkpt>
      <trkpt lat="44.41759" lon="1.37945">
        <ele>237</ele>
        <time>2019-04-14T12:39:11Z</time>
      </trkpt>
      <trkpt lat="44.41757" lon="1.37946">
        <ele>237</ele>
        <time>2019-04-14T12:39:12Z</time>
      </trkpt>
      <trkpt lat="44.41755" lon="1.37947">
        <ele>237</ele>
        <time>2019-04-14T12:39:13Z</time>
      </trkpt>
      <trkpt lat="44.41753" lon="1.37948">
        <ele>237</ele>
        <time>2019-04-14T12:39:14Z</time>
      </trkpt>
      <trkpt lat="44.41751" lon="1.37948">
        <ele>237</ele>
        <time>2019-04-14T12:39:15Z</time>
      </trkpt>
      <trkpt lat="44.41749" lon="1.37948">
        <ele>238</ele>
        <time>2019-04-14T12:39:16Z</time>
      </trkpt>
      <trkpt lat="44.41747" lon="1.37948">
        <ele>238</ele>
        <time>2019-04-14T12:39:17Z</time>
      </trkpt>
      <trkpt lat="44.41745" lon="1.37948">
        <ele>238</ele>
        <time>2019-04-14T12:39:18Z</time>
      </trkpt>
      <trkpt lat="44.41743" lon="1.37947">
        <ele>238</ele>
        <time>2019-04-14T12:39:19Z</time>
      </trkpt>
      <trkpt lat="44.41742" lon="1.37946">
        <ele>238</ele>
        <time>2019-04-14T12:39:20Z</time>
      </trkpt>
      <trkpt lat="44.41742" lon="1.37944">
        <ele>238</ele>
        <time>2019-04-14T12:39:21Z</time>
      </trkpt>
      <trkpt lat="44.41741" lon="1.37942">
        <ele>239</ele>
        <time>2019-04-14T12:39:22Z</time>
      </trkpt>
      <trkpt lat="44.41741" lon="1.37941">
        <ele>239</ele>
        <time>2019-04-14T12:39:23Z</time>
      </trkpt>
      <trkpt lat="44.4174" lon="1.37939">
        <ele>239</ele>
        <time>2019-04-14T12:39:24Z</time>
      </trkpt>
      <trkpt lat="44.41738" lon="1.37937">
        <ele>239</ele>
        <time>2019-04-14T12:39:25Z</time>
      </trkpt>
      <trkpt lat="44.41736" lon="1.37937">
        <ele>239</ele>
        <time>2019-04-14T12:39:26Z</time>
      </trkpt>
      <trkpt lat="44.41734" lon="1.37936">
        <ele>239</ele>
        <time>2019-04-14T12:39:27Z</time>
      </trkpt>
      <trkpt lat="44.41732" lon="1.37936">
        <ele>239</ele>
        <time>2019-04-14T12:39:28Z</time>
      </trkpt>
      <trkpt lat="44.4173" lon="1.37937">
        <ele>240</ele>
        <time>2019-04-14T12:39:29Z</time>
      </trkpt>
      <trkpt lat="44.41728" lon="1.37938">
        <ele>240</ele>
        <time>2019-04-14T12:39:30Z</time>
      </trkpt>
      <trkpt lat="44.41726" lon="1.37939">
        <ele>240</ele>
        <time>2019-04-14T12:39:31Z</time>
      </trkpt>
      <trkpt lat="44.41724" lon="1.37939">
        <ele>240</ele>
        <time>2019-04-14T12:39:32Z</time>
      </trkpt>
      <trkpt lat="44.41722" lon="1.37939">
        <ele>240</ele>
        <time>2019-04-14T12:39:33Z</time>
      </trkpt>
      <trkpt lat="44.41721" lon="1.37938">
        <ele>240</ele>
        <time>2019-04-14T12:39:34Z</time>
      </trkpt>
      <trkpt lat="44.41719" lon="1.37936">
        <ele>241</ele>
        <time>2019-04-14T12:39:35Z</time>
      </trkpt>
      <trkpt lat="44.41719" lon="1.37935">
        <ele>241</ele>
        <time>2019-04-14T12:39:36Z</time>
      </trkpt>
      <trkpt lat="44.41718" lon="1.37933">
        <ele>241</ele>
        <time>2019-04-14T12:39:37Z</time>
      </trkpt>
      <trkpt lat="44.41717" lon="1.37932">
        <ele>241</ele>
        <time>2019-04-14T12:39:38Z</time>
      </trkpt>
      <trkpt lat="44.41715" lon="1.37931">
        <ele>241</ele>
        <time>2019-04-14T12:39:39Z</time>
      </trkpt>
      <trkpt lat="44.41713" lon="1.3793">
        <ele>241</ele>
        <time>2019-04-14T12:39:40Z</time>
      </trkpt>
      <trkpt lat="44.41711" lon="1.3793">
        <ele>242</ele>
        <time>2019-04-14T12:39:41Z</time>
      </trkpt>
      <trkpt lat="44.4171" lon="1.37929">
        <ele>242</ele>
        <time>2019-04-14T12:39:42Z</time>
      </trkpt>
      <trkpt lat="44.41709" lon="1.37928">
        <ele>242</ele>
        <time>2019-04-14T12:39:43Z</time>
      </trkpt>
      <trkpt lat="44.41707" lon="1.37927">
        <ele>243</ele>
        <time>2019-04-14T12:39:44Z</time>
      </trkpt>
      <trkpt lat="44.41705" lon="1.37926">
        <ele>243</ele>
        <time>2019-04-14T12:39:45Z</time>
      </trkpt>
      <trkpt lat="44.41703" lon="1.37926">
        <ele>243</ele>
        <time>2019-04-14T12:39:46Z</time>
      </trkpt>
      <trkpt lat="44.41701" lon="1.37925">
        <ele>243</ele>
        <time>2019-04-14T12:39:47Z</time>
      </trkpt>
      <trkpt lat="44.41699" lon="1.37925">
        <ele>243</ele>
        <time>2019-04-14T12:39:48Z</time>
      </trkpt>
      <trkpt lat="44.41697" lon="1.37925">
        <ele>243</ele>
        <time>2019-04-14T12:39:49Z</time>
      </trkpt>
      <trkpt lat="44.41695" lon="1.37925">
        <ele>243</ele>
        <time>2019-04-14T12:39:50Z</time>
      </trkpt>
      <trkpt lat="44.41693" lon="1.37925">
        <ele>243</ele>
        <time>2019-04-14T12:39:51Z</time>
      </trkpt>
      <trkpt lat="44.41691" lon="1.37924">
        <ele>243</ele>
        <time>2019-04-14T12:39:52Z</time>
      </trkpt>
      <trkpt lat="44.41689" lon="1.37924">
        <ele>244</ele>
        <time>2019-04-14T12:39:53Z</time>
      </trkpt>
      <trkpt lat="44.41687" lon="1.37924">
        <ele>244</ele>
        <time>2019-04-14T12:39:54Z</time>
      </trkpt>
      <trkpt lat="44.41685" lon="1.37923">
        <ele>244</ele>
        <time>2019-04-14T12:39:55Z</time>
      </trkpt>
      <trkpt lat="44.41683" lon="1.37923">
        <ele>244</ele>
        <time>2019-04-14T12:39:56Z</time>
      </trkpt>
      <trkpt lat="44.41681" lon="1.37922">
        <ele>244</ele>
        <time>2019-04-14T12:39:57Z</time>
      </trkpt>
      <trkpt lat="44.41679" lon="1.37922">
        <ele>244</ele>
        <time>2019-04-14T12:39:58Z</time>
      </trkpt>
      <trkpt lat="44.41678" lon="1.37922">
        <ele>244</ele>
        <time>2019-04-14T12:39:59Z</time>
      </trkpt>
      <trkpt lat="44.41676" lon="1.37923">
        <ele>245</ele>
        <time>2019-04-14T12:40:00Z</time>
      </trkpt>
      <trkpt lat="44.41674" lon="1.37923">
        <ele>245</ele>
        <time>2019-04-14T12:40:01Z</time>
      </trkpt>
      <trkpt lat="44.41672" lon="1.37923">
        <ele>245</ele>
        <time>2019-04-14T12:40:02Z</time>
      </trkpt>
      <trkpt lat="44.4167" lon="1.37922">
        <ele>245</ele>
        <time>2019-04-14T12:40:03Z</time>
      </trkpt>
      <trkpt lat="44.41669" lon="1.37922">
        <ele>245</ele>
        <time>2019-04-14T12:40:04Z</time>
      </trkpt>
      <trkpt lat="44.41667" lon="1.37922">
        <ele>245</ele>
        <time>2019-04-14T12:40:05Z</time>
      </trkpt>
      <trkpt lat="44.41666" lon="1.37921">
        <ele>246</ele>
        <time>2019-04-14T12:40:06Z</time>
      </trkpt>
      <trkpt lat="44.41664" lon="1.37921">
        <ele>246</ele>
        <time>2019-04-14T12:40:07Z</time>
      </trkpt>
      <trkpt lat="44.41662" lon="1.37921">
        <ele>246</ele>
        <time>2019-04-14T12:40:08Z</time>
      </trkpt>
      <trkpt lat="44.4166" lon="1.37921">
        <ele>246</ele>
        <time>2019-04-14T12:40:09Z</time>
      </trkpt>
      <trkpt lat="44.41659" lon="1.3792">
        <ele>247</ele>
        <time>2019-04-14T12:40:10Z</time>
      </trkpt>
      <trkpt lat="44.41658" lon="1.37919">
        <ele>247</ele>
        <time>2019-04-14T12:40:11Z</time>
      </trkpt>
      <trkpt lat="44.41656" lon="1.37918">
        <ele>247</ele>
        <time>2019-04-14T12:40:12Z</time>
      </trkpt>
      <trkpt lat="44.41654" lon="1.37917">
        <ele>247</ele>
        <time>2019-04-14T12:40:13Z</time>
      </trkpt>
      <trkpt lat="44.41652" lon="1.37916">
        <ele>247</ele>
        <time>2019-04-14T12:40:14Z</time>
      </trkpt>
      <trkpt lat="44.41651" lon="1.37915">
        <ele>247</ele>
        <time>2019-04-14T12:40:15Z</time>
      </trkpt>
      <trkpt lat="44.41649" lon="1.37915">
        <ele>247</ele>
        <time>2019-04-14T12:40:16Z</time>
      </trkpt>
      <trkpt lat="44.41648" lon="1.37914">
        <ele>247</ele>
        <time>2019-04-14T12:40:17Z</time>
      </trkpt>
      <trkpt lat="44.41646" lon="1.37913">
        <ele>248</ele>
        <time>2019-04-14T12:40:18Z</time>
      </trkpt>
      <trkpt lat="44.41645" lon="1.37912">
        <ele>248</ele>
        <time>2019-04-14T12:40:19Z</time>
      </trkpt>
      <trkpt lat="44.41643" lon="1.37911">
        <ele>248</ele>
        <time>2019-04-14T12:40:20Z</time>
      </trkpt>
      <trkpt lat="44.41641" lon="1.37911">
        <ele>248</ele>
        <time>2019-04-14T12:40:21Z</time>
      </trkpt>
      <trkpt lat="44.4164" lon="1.37911">
        <ele>248</ele>
        <time>2019-04-14T12:40:22Z</time>
      </trkpt>
      <trkpt lat="44.41638" lon="1.37911">
        <ele>248</ele>
        <time>2019-04-14T12:40:23Z</time>
      </trkpt>
      <trkpt lat="44.41636" lon="1.3791">
        <ele>249</ele>
        <time>2019-04-14T12:40:24Z</time>
      </trkpt>
      <trkpt lat="44.41635" lon="1.3791">
        <ele>249</ele>
        <time>2019-04-14T12:40:25Z</time>
      </trkpt>
      <trkpt lat="44.41634" lon="1.37909">
        <ele>249</ele>
        <time>2019-04-14T12:40:26Z</time>
      </trkpt>
      <trkpt lat="44.41632" lon="1.37908">
        <ele>249</ele>
        <time>2019-04-14T12:40:27Z</time>
      </trkpt>
      <trkpt lat="44.41631" lon="1.37907">
        <ele>249</ele>
        <time>2019-04-14T12:40:28Z</time>
      </trkpt>
      <trkpt lat="44.4163" lon="1.37906">
        <ele>249</ele>
        <time>2019-04-14T12:40:29Z</time>
      </trkpt>
      <trkpt lat="44.41629" lon="1.37906">
        <ele>250</ele>
        <time>2019-04-14T12:40:30Z</time>
      </trkpt>
      <trkpt lat="44.41628" lon="1.37905">
        <ele>250</ele>
        <time>2019-04-14T12:40:31Z</time>
      </trkpt>
      <trkpt lat="44.41626" lon="1.37904">
        <ele>250</ele>
        <time>2019-04-14T12:40:32Z</time>
      </trkpt>
      <trkpt lat="44.41625" lon="1.37903">
        <ele>250</ele>
        <time>2019-04-14T12:40:33Z</time>
      </trkpt>
      <trkpt lat="44.41624" lon="1.37903">
        <ele>250</ele>
        <time>2019-04-14T12:40:34Z</time>
      </trkpt>
      <trkpt lat="44.41623" lon="1.37902">
        <ele>250</ele>
        <time>2019-04-14T12:40:35Z</time>
      </trkpt>
      <trkpt lat="44.41621" lon="1.37902">
        <ele>250</ele>
        <time>2019-04-14T12:40:36Z</time>
      </trkpt>
      <trkpt lat="44.41621" lon="1.379">
        <ele>251</ele>
        <time>2019-04-14T12:40:37Z</time>
      </trkpt>
      <trkpt lat="44.4162" lon="1.37898">
        <ele>251</ele>
        <time>2019-04-14T12:40:38Z</time>
      </trkpt>
      <trkpt lat="44.41619" lon="1.37898">
        <ele>251</ele>
        <time>2019-04-14T12:40:39Z</time>
      </trkpt>
      <trkpt lat="44.41619" lon="1.37896">
        <ele>251</ele>
        <time>2019-04-14T12:40:40Z</time>
      </trkpt>
      <trkpt lat="44.41619" lon="1.37894">
        <ele>251</ele>
        <time>2019-04-14T12:40:41Z</time>
      </trkpt>
      <trkpt lat="44.41619" lon="1.37892">
        <ele>251</ele>
        <time>2019-04-14T12:40:42Z</time>
      </trkpt>
      <trkpt lat="44.41619" lon="1.3789">
        <ele>252</ele>
        <time>2019-04-14T12:40:43Z</time>
      </trkpt>
      <trkpt lat="44.41619" lon="1.37889">
        <ele>252</ele>
        <time>2019-04-14T12:40:44Z</time>
      </trkpt>
      <trkpt lat="44.41619" lon="1.37888">
        <ele>252</ele>
        <time>2019-04-14T12:40:45Z</time>
      </trkpt>
      <trkpt lat="44.41619" lon="1.37886">
        <ele>253</ele>
        <time>2019-04-14T12:40:46Z</time>
      </trkpt>
      <trkpt lat="44.41619" lon="1.37887">
        <ele>253</ele>
        <time>2019-04-14T12:40:47Z</time>
      </trkpt>
      <trkpt lat="44.41619" lon="1.37888">
        <ele>253</ele>
        <time>2019-04-14T12:40:48Z</time>
      </trkpt>
      <trkpt lat="44.41621" lon="1.37887">
        <ele>253</ele>
        <time>2019-04-14T12:40:49Z</time>
      </trkpt>
      <trkpt lat="44.41622" lon="1.37886">
        <ele>254</ele>
        <time>2019-04-14T12:40:50Z</time>
      </trkpt>
      <trkpt lat="44.41623" lon="1.37887">
        <ele>254</ele>
        <time>2019-04-14T12:40:51Z</time>
      </trkpt>
      <trkpt lat="44.41624" lon="1.37886">
        <ele>254</ele>
        <time>2019-04-14T12:40:52Z</time>
      </trkpt>
      <trkpt lat="44.41625" lon="1.37887">
        <ele>254</ele>
        <time>2019-04-14T12:40:53Z</time>
      </trkpt>
      <trkpt lat="44.41626" lon="1.37888">
        <ele>254</ele>
        <time>2019-04-14T12:40:54Z</time>
      </trkpt>
      <trkpt lat="44.41627" lon="1.37888">
        <ele>254</ele>
        <time>2019-04-14T12:40:55Z</time>
      </trkpt>
      <trkpt lat="44.41628" lon="1.37888">
        <ele>254</ele>
        <time>2019-04-14T12:40:56Z</time>
      </trkpt>
      <trkpt lat="44.41629" lon="1.37888">
        <ele>255</ele>
        <time>2019-04-14T12:40:57Z</time>
      </trkpt>
      <trkpt lat="44.41631" lon="1.37888">
        <ele>255</ele>
        <time>2019-04-14T12:40:58Z</time>
      </trkpt>
      <trkpt lat="44.41632" lon="1.37887">
        <ele>255</ele>
        <time>2019-04-14T12:40:59Z</time>
      </trkpt>
      <trkpt lat="44.41633" lon="1.37887">
        <ele>255</ele>
        <time>2019-04-14T12:41:00Z</time>
      </trkpt>
      <trkpt lat="44.41634" lon="1.37887">
        <ele>255</ele>
        <time>2019-04-14T12:41:01Z</time>
      </trkpt>
      <trkpt lat="44.41635" lon="1.37888">
        <ele>256</ele>
        <time>2019-04-14T12:41:02Z</time>
      </trkpt>
      <trkpt lat="44.41636" lon="1.37889">
        <ele>256</ele>
        <time>2019-04-14T12:41:03Z</time>
      </trkpt>
      <trkpt lat="44.41638" lon="1.37888">
        <ele>256</ele>
        <time>2019-04-14T12:41:04Z</time>
      </trkpt>
      <trkpt lat="44.4164" lon="1.37888">
        <ele>256</ele>
        <time>2019-04-14T12:41:05Z</time>
      </trkpt>
      <trkpt lat="44.41641" lon="1.37888">
        <ele>256</ele>
        <time>2019-04-14T12:41:06Z</time>
      </trkpt>
      <trkpt lat="44.41643" lon="1.37889">
        <ele>257</ele>
        <time>2019-04-14T12:41:07Z</time>
      </trkpt>
      <trkpt lat="44.41644" lon="1.37888">
        <ele>257</ele>
        <time>2019-04-14T12:41:08Z</time>
      </trkpt>
      <trkpt lat="44.41646" lon="1.37888">
        <ele>257</ele>
        <time>2019-04-14T12:41:09Z</time>
      </trkpt>
      <trkpt lat="44.41647" lon="1.37888">
        <ele>257</ele>
        <time>2019-04-14T12:41:10Z</time>
      </trkpt>
      <trkpt lat="44.41648" lon="1.37888">
        <ele>257</ele>
        <time>2019-04-14T12:41:11Z</time>
      </trkpt>
      <trkpt lat="44.41649" lon="1.37888">
        <ele>257</ele>
        <time>2019-04-14T12:41:12Z</time>
      </trkpt>
      <trkpt lat="44.41651" lon="1.37887">
        <ele>257</ele>
        <time>2019-04-14T12:41:13Z</time>
      </trkpt>
      <trkpt lat="44.41652" lon="1.37886">
        <ele>258</ele>
        <time>2019-04-14T12:41:14Z</time>
      </trkpt>
      <trkpt lat="44.41654" lon="1.37885">
        <ele>258</ele>
        <time>2019-04-14T12:41:15Z</time>
      </trkpt>
      <trkpt lat="44.41656" lon="1.37885">
        <ele>258</ele>
        <time>2019-04-14T12:41:16Z</time>
      </trkpt>
      <trkpt lat="44.41657" lon="1.37885">
        <ele>258</ele>
        <time>2019-04-14T12:41:17Z</time>
      </trkpt>
      <trkpt lat="44.4166" lon="1.37884">
        <ele>258</ele>
        <time>2019-04-14T12:41:18Z</time>
      </trkpt>
      <trkpt lat="44.41662" lon="1.37884">
        <ele>258</ele>
        <time>2019-04-14T12:41:19Z</time>
      </trkpt>
      <trkpt lat="44.41664" lon="1.37883">
        <ele>258</ele>
        <time>2019-04-14T12:41:20Z</time>
      </trkpt>
      <trkpt lat="44.41667" lon="1.37882">
        <ele>258</ele>
        <time>2019-04-14T12:41:21Z</time>
      </trkpt>
      <trkpt lat="44.41669" lon="1.37881">
        <ele>259</ele>
        <time>2019-04-14T12:41:22Z</time>
      </trkpt>
      <trkpt lat="44.41671" lon="1.37881">
        <ele>259</ele>
        <time>2019-04-14T12:41:23Z</time>
      </trkpt>
      <trkpt lat="44.41673" lon="1.3788">
        <ele>259</ele>
        <time>2019-04-14T12:41:24Z</time>
      </trkpt>
      <trkpt lat="44.41676" lon="1.3788">
        <ele>259</ele>
        <time>2019-04-14T12:41:25Z</time>
      </trkpt>
      <trkpt lat="44.41678" lon="1.37879">
        <ele>259</ele>
        <time>2019-04-14T12:41:26Z</time>
      </trkpt>
      <trkpt lat="44.4168" lon="1.37879">
        <ele>259</ele>
        <time>2019-04-14T12:41:27Z</time>
      </trkpt>
      <trkpt lat="44.41682" lon="1.37878">
        <ele>259</ele>
        <time>2019-04-14T12:41:28Z</time>
      </trkpt>
      <trkpt lat="44.41685" lon="1.37877">
        <ele>259</ele>
        <time>2019-04-14T12:41:29Z</time>
      </trkpt>
      <trkpt lat="44.41687" lon="1.37876">
        <ele>259</ele>
        <time>2019-04-14T12:41:30Z</time>
      </trkpt>
      <trkpt lat="44.41689" lon="1.37875">
        <ele>260</ele>
        <time>2019-04-14T12:41:31Z</time>
      </trkpt>
      <trkpt lat="44.41691" lon="1.37873">
        <ele>260</ele>
        <time>2019-04-14T12:41:32Z</time>
      </trkpt>
      <trkpt lat="44.41692" lon="1.37871">
        <ele>260</ele>
        <time>2019-04-14T12:41:33Z</time>
      </trkpt>
      <trkpt lat="44.41693" lon="1.37869">
        <ele>260</ele>
        <time>2019-04-14T12:41:34Z</time>
      </trkpt>
      <trkpt lat="44.41695" lon="1.37867">
        <ele>260</ele>
        <time>2019-04-14T12:41:35Z</time>
      </trkpt>
      <trkpt lat="44.41696" lon="1.37866">
        <ele>260</ele>
        <time>2019-04-14T12:41:36Z</time>
      </trkpt>
      <trkpt lat="44.41697" lon="1.37864">
        <ele>260</ele>
        <time>2019-04-14T12:41:37Z</time>
      </trkpt>
      <trkpt lat="44.41698" lon="1.37862">
        <ele>260</ele>
        <time>2019-04-14T12:41:38Z</time>
      </trkpt>
      <trkpt lat="44.41699" lon="1.3786">
        <ele>261</ele>
        <time>2019-04-14T12:41:39Z</time>
      </trkpt>
      <trkpt lat="44.417" lon="1.37858">
        <ele>261</ele>
        <time>2019-04-14T12:41:40Z</time>
      </trkpt>
      <trkpt lat="44.417" lon="1.37856">
        <ele>261</ele>
        <time>2019-04-14T12:41:41Z</time>
      </trkpt>
      <trkpt lat="44.41699" lon="1.37853">
        <ele>261</ele>
        <time>2019-04-14T12:41:42Z</time>
      </trkpt>
      <trkpt lat="44.41698" lon="1.37851">
        <ele>261</ele>
        <time>2019-04-14T12:41:43Z</time>
      </trkpt>
      <trkpt lat="44.41698" lon="1.37849">
        <ele>262</ele>
        <time>2019-04-14T12:41:44Z</time>
      </trkpt>
      <trkpt lat="44.41697" lon="1.37847">
        <ele>262</ele>
        <time>2019-04-14T12:41:45Z</time>
      </trkpt>
      <trkpt lat="44.41696" lon="1.37845">
        <ele>262</ele>
        <time>2019-04-14T12:41:46Z</time>
      </trkpt>
      <trkpt lat="44.41694" lon="1.37843">
        <ele>263</ele>
        <time>2019-04-14T12:41:47Z</time>
      </trkpt>
      <trkpt lat="44.41693" lon="1.37842">
        <ele>263</ele>
        <time>2019-04-14T12:41:48Z</time>
      </trkpt>
      <trkpt lat="44.41693" lon="1.3784">
        <ele>263</ele>
        <time>2019-04-14T12:41:49Z</time>
      </trkpt>
      <trkpt lat="44.41692" lon="1.37838">
        <ele>264</ele>
        <time>2019-04-14T12:41:50Z</time>
      </trkpt>
      <trkpt lat="44.41693" lon="1.37835">
        <ele>264</ele>
        <time>2019-04-14T12:41:51Z</time>
      </trkpt>
      <trkpt lat="44.41693" lon="1.37833">
        <ele>264</ele>
        <time>2019-04-14T12:41:52Z</time>
      </trkpt>
      <trkpt lat="44.41694" lon="1.37831">
        <ele>264</ele>
        <time>2019-04-14T12:41:53Z</time>
      </trkpt>
      <trkpt lat="44.41695" lon="1.37829">
        <ele>264</ele>
        <time>2019-04-14T12:41:54Z</time>
      </trkpt>
      <trkpt lat="44.41696" lon="1.37827">
        <ele>264</ele>
        <time>2019-04-14T12:41:55Z</time>
      </trkpt>
      <trkpt lat="44.41696" lon="1.37825">
        <ele>264</ele>
        <time>2019-04-14T12:41:56Z</time>
      </trkpt>
      <trkpt lat="44.41696" lon="1.37822">
        <ele>264</ele>
        <time>2019-04-14T12:41:57Z</time>
      </trkpt>
      <trkpt lat="44.41696" lon="1.37819">
        <ele>264</ele>
        <time>2019-04-14T12:41:58Z</time>
      </trkpt>
      <trkpt lat="44.41695" lon="1.37816">
        <ele>265</ele>
        <time>2019-04-14T12:41:59Z</time>
      </trkpt>
      <trkpt lat="44.41693" lon="1.37814">
        <ele>265</ele>
        <time>2019-04-14T12:42:00Z</time>
      </trkpt>
      <trkpt lat="44.41692" lon="1.37812">
        <ele>265</ele>
        <time>2019-04-14T12:42:01Z</time>
      </trkpt>
      <trkpt lat="44.41691" lon="1.3781">
        <ele>265</ele>
        <time>2019-04-14T12:42:02Z</time>
      </trkpt>
      <trkpt lat="44.4169" lon="1.37808">
        <ele>266</ele>
        <time>2019-04-14T12:42:03Z</time>
      </trkpt>
      <trkpt lat="44.41689" lon="1.37806">
        <ele>266</ele>
        <time>2019-04-14T12:42:04Z</time>
      </trkpt>
      <trkpt lat="44.41689" lon="1.37803">
        <ele>266</ele>
        <time>2019-04-14T12:42:05Z</time>
      </trkpt>
      <trkpt lat="44.41689" lon="1.378">
        <ele>266</ele>
        <time>2019-04-14T12:42:06Z</time>
      </trkpt>
      <trkpt lat="44.41689" lon="1.37797">
        <ele>266</ele>
        <time>2019-04-14T12:42:07Z</time>
      </trkpt>
      <trkpt lat="44.41688" lon="1.37794">
        <ele>266</ele>
        <time>2019-04-14T12:42:08Z</time>
      </trkpt>
      <trkpt lat="44.41688" lon="1.37791">
        <ele>266</ele>
        <time>2019-04-14T12:42:09Z</time>
      </trkpt>
      <trkpt lat="44.41688" lon="1.37788">
        <ele>266</ele>
        <time>2019-04-14T12:42:10Z</time>
      </trkpt>
      <trkpt lat="44.41688" lon="1.37785">
        <ele>266</ele>
        <time>2019-04-14T12:42:11Z</time>
      </trkpt>
      <trkpt lat="44.41687" lon="1.37782">
        <ele>266</ele>
        <time>2019-04-14T12:42:12Z</time>
      </trkpt>
      <trkpt lat="44.41686" lon="1.37779">
        <ele>266</ele>
        <time>2019-04-14T12:42:13Z</time>
      </trkpt>
      <trkpt lat="44.41685" lon="1.37776">
        <ele>266</ele>
        <time>2019-04-14T12:42:14Z</time>
      </trkpt>
      <trkpt lat="44.41683" lon="1.37773">
        <ele>266</ele>
        <time>2019-04-14T12:42:15Z</time>
      </trkpt>
      <trkpt lat="44.41682" lon="1.37771">
        <ele>266</ele>
        <time>2019-04-14T12:42:16Z</time>
      </trkpt>
      <trkpt lat="44.4168" lon="1.3777">
        <ele>266</ele>
        <time>2019-04-14T12:42:17Z</time>
      </trkpt>
      <trkpt lat="44.41677" lon="1.37769">
        <ele>267</ele>
        <time>2019-04-14T12:42:18Z</time>
      </trkpt>
      <trkpt lat="44.41675" lon="1.37769">
        <ele>267</ele>
        <time>2019-04-14T12:42:19Z</time>
      </trkpt>
      <trkpt lat="44.41674" lon="1.3777">
        <ele>267</ele>
        <time>2019-04-14T12:42:20Z</time>
      </trkpt>
      <trkpt lat="44.41672" lon="1.37771">
        <ele>268</ele>
        <time>2019-04-14T12:42:21Z</time>
      </trkpt>
      <trkpt lat="44.4167" lon="1.37771">
        <ele>268</ele>
        <time>2019-04-14T12:42:22Z</time>
      </trkpt>
      <trkpt lat="44.41669" lon="1.37772">
        <ele>268</ele>
        <time>2019-04-14T12:42:23Z</time>
      </trkpt>
      <trkpt lat="44.41667" lon="1.37773">
        <ele>269</ele>
        <time>2019-04-14T12:42:24Z</time>
      </trkpt>
      <trkpt lat="44.41665" lon="1.37773">
        <ele>269</ele>
        <time>2019-04-14T12:42:25Z</time>
      </trkpt>
      <trkpt lat="44.41663" lon="1.37774">
        <ele>269</ele>
        <time>2019-04-14T12:42:26Z</time>
      </trkpt>
      <trkpt lat="44.41662" lon="1.37774">
        <ele>269</ele>
        <time>2019-04-14T12:42:27Z</time>
      </trkpt>
      <trkpt lat="44.4166" lon="1.37774">
        <ele>270</ele>
        <time>2019-04-14T12:42:28Z</time>
      </trkpt>
      <trkpt lat="44.41658" lon="1.37774">
        <ele>270</ele>
        <time>2019-04-14T12:42:29Z</time>
      </trkpt>
      <trkpt lat="44.41657" lon="1.37774">
        <ele>270</ele>
        <time>2019-04-14T12:42:30Z</time>
      </trkpt>
      <trkpt lat="44.41656" lon="1.37773">
        <ele>270</ele>
        <time>2019-04-14T12:42:31Z</time>
      </trkpt>
      <trkpt lat="44.41655" lon="1.37772">
        <ele>270</ele>
        <time>2019-04-14T12:42:32Z</time>
      </trkpt>
      <trkpt lat="44.41654" lon="1.37771">
        <ele>271</ele>
        <time>2019-04-14T12:42:33Z</time>
      </trkpt>
      <trkpt lat="44.41652" lon="1.3777">
        <ele>271</ele>
        <time>2019-04-14T12:42:34Z</time>
      </trkpt>
      <trkpt lat="44.41651" lon="1.37769">
        <ele>271</ele>
        <time>2019-04-14T12:42:35Z</time>
      </trkpt>
      <trkpt lat="44.4165" lon="1.37768">
        <ele>271</ele>
        <time>2019-04-14T12:42:36Z</time>
      </trkpt>
      <trkpt lat="44.41649" lon="1.37767">
        <ele>271</ele>
        <time>2019-04-14T12:42:37Z</time>
      </trkpt>
      <trkpt lat="44.41648" lon="1.37766">
        <ele>272</ele>
        <time>2019-04-14T12:42:38Z</time>
      </trkpt>
      <trkpt lat="44.41647" lon="1.37766">
        <ele>272</ele>
        <time>2019-04-14T12:42:39Z</time>
      </trkpt>
      <trkpt lat="44.41645" lon="1.37765">
        <ele>272</ele>
        <time>2019-04-14T12:42:40Z</time>
      </trkpt>
      <trkpt lat="44.41644" lon="1.37764">
        <ele>272</ele>
        <time>2019-04-14T12:42:41Z</time>
      </trkpt>
      <trkpt lat="44.41642" lon="1.37764">
        <ele>272</ele>
        <time>2019-04-14T12:42:42Z</time>
      </trkpt>
      <trkpt lat="44.4164" lon="1.37764">
        <ele>272</ele>
        <time>2019-04-14T12:42:43Z</time>
      </trkpt>
      <trkpt lat="44.41638" lon="1.37763">
        <ele>272</ele>
        <time>2019-04-14T12:42:44Z</time>
      </trkpt>
      <trkpt lat="44.41637" lon="1.37763">
        <ele>273</ele>
        <time>2019-04-14T12:42:45Z</time>
      </trkpt>
      <trkpt lat="44.41635" lon="1.37762">
        <ele>273</ele>
        <time>2019-04-14T12:42:46Z</time>
      </trkpt>
      <trkpt lat="44.41634" lon="1.3776">
        <ele>273</ele>
        <time>2019-04-14T12:42:47Z</time>
      </trkpt>
      <trkpt lat="44.41633" lon="1.37758">
        <ele>273</ele>
        <time>2019-04-14T12:42:48Z</time>
      </trkpt>
      <trkpt lat="44.41632" lon="1.37756">
        <ele>273</ele>
        <time>2019-04-14T12:42:49Z</time>
      </trkpt>
      <trkpt lat="44.4163" lon="1.37755">
        <ele>273</ele>
        <time>2019-04-14T12:42:50Z</time>
      </trkpt>
      <trkpt lat="44.41628" lon="1.37754">
        <ele>273</ele>
        <time>2019-04-14T12:42:51Z</time>
      </trkpt>
      <trkpt lat="44.41626" lon="1.37753">
        <ele>274</ele>
        <time>2019-04-14T12:42:52Z</time>
      </trkpt>
      <trkpt lat="44.41625" lon="1.37752">
        <ele>274</ele>
        <time>2019-04-14T12:42:53Z</time>
      </trkpt>
      <trkpt lat="44.41624" lon="1.37751">
        <ele>274</ele>
        <time>2019-04-14T12:42:54Z</time>
      </trkpt>
      <trkpt lat="44.41622" lon="1.37749">
        <ele>274</ele>
        <time>2019-04-14T12:42:55Z</time>
      </trkpt>
      <trkpt lat="44.41621" lon="1.37747">
        <ele>274</ele>
        <time>2019-04-14T12:42:56Z</time>
      </trkpt>
      <trkpt lat="44.4162" lon="1.37745">
        <ele>275</ele>
        <time>2019-04-14T12:42:57Z</time>
      </trkpt>
      <trkpt lat="44.41619" lon="1.37744">
        <ele>275</ele>
        <time>2019-04-14T12:42:58Z</time>
      </trkpt>
      <trkpt lat="44.41618" lon="1.37742">
        <ele>275</ele>
        <time>2019-04-14T12:42:59Z</time>
      </trkpt>
      <trkpt lat="44.41617" lon="1.3774">
        <ele>275</ele>
        <time>2019-04-14T12:43:00Z</time>
      </trkpt>
      <trkpt lat="44.41616" lon="1.37738">
        <ele>275</ele>
        <time>2019-04-14T12:43:01Z</time>
      </trkpt>
      <trkpt lat="44.41616" lon="1.37736">
        <ele>275</ele>
        <time>2019-04-14T12:43:02Z</time>
      </trkpt>
      <trkpt lat="44.41615" lon="1.37734">
        <ele>275</ele>
        <time>2019-04-14T12:43:03Z</time>
      </trkpt>
      <trkpt lat="44.41615" lon="1.37731">
        <ele>275</ele>
        <time>2019-04-14T12:43:04Z</time>
      </trkpt>
      <trkpt lat="44.41615" lon="1.37729">
        <ele>275</ele>
        <time>2019-04-14T12:43:05Z</time>
      </trkpt>
      <trkpt lat="44.41614" lon="1.37726">
        <ele>275</ele>
        <time>2019-04-14T12:43:06Z</time>
      </trkpt>
      <trkpt lat="44.41613" lon="1.37724">
        <ele>275</ele>
        <time>2019-04-14T12:43:07Z</time>
      </trkpt>
      <trkpt lat="44.41613" lon="1.37721">
        <ele>275</ele>
        <time>2019-04-14T12:43:08Z</time>
      </trkpt>
      <trkpt lat="44.41612" lon="1.37719">
        <ele>275</ele>
        <time>2019-04-14T12:43:09Z</time>
      </trkpt>
      <trkpt lat="44.41611" lon="1.37716">
        <ele>275</ele>
        <time>2019-04-14T12:43:10Z</time>
      </trkpt>
      <trkpt lat="44.41611" lon="1.37714">
        <ele>276</ele>
        <time>2019-04-14T12:43:11Z</time>
      </trkpt>
      <trkpt lat="44.4161" lon="1.37712">
        <ele>276</ele>
        <time>2019-04-14T12:43:12Z</time>
      </trkpt>
      <trkpt lat="44.41609" lon="1.3771">
        <ele>276</ele>
        <time>2019-04-14T12:43:13Z</time>
      </trkpt>
      <trkpt lat="44.41608" lon="1.37707">
        <ele>276</ele>
        <time>2019-04-14T12:43:14Z</time>
      </trkpt>
      <trkpt lat="44.41608" lon="1.37705">
        <ele>276</ele>
        <time>2019-04-14T12:43:15Z</time>
      </trkpt>
      <trkpt lat="44.41608" lon="1.37702">
        <ele>276</ele>
        <time>2019-04-14T12:43:16Z</time>
      </trkpt>
      <trkpt lat="44.41608" lon="1.37698">
        <ele>276</ele>
        <time>2019-04-14T12:43:17Z</time>
      </trkpt>
      <trkpt lat="44.41608" lon="1.37695">
        <ele>276</ele>
        <time>2019-04-14T12:43:18Z</time>
      </trkpt>
      <trkpt lat="44.41608" lon="1.37691">
        <ele>276</ele>
        <time>2019-04-14T12:43:19Z</time>
      </trkpt>
      <trkpt lat="44.41608" lon="1.37688">
        <ele>276</ele>
        <time>2019-04-14T12:43:20Z</time>
      </trkpt>
      <trkpt lat="44.41608" lon="1.37684">
        <ele>276</ele>
        <time>2019-04-14T12:43:21Z</time>
      </trkpt>
      <trkpt lat="44.41608" lon="1.3768">
        <ele>276</ele>
        <time>2019-04-14T12:43:22Z</time>
      </trkpt>
      <trkpt lat="44.41608" lon="1.37677">
        <ele>276</ele>
        <time>2019-04-14T12:43:23Z</time>
      </trkpt>
      <trkpt lat="44.41608" lon="1.37674">
        <ele>276</ele>
        <time>2019-04-14T12:43:24Z</time>
      </trkpt>
      <trkpt lat="44.41608" lon="1.3767">
        <ele>276</ele>
        <time>2019-04-14T12:43:25Z</time>
      </trkpt>
      <trkpt lat="44.41608" lon="1.37667">
        <ele>276</ele>
        <time>2019-04-14T12:43:26Z</time>
      </trkpt>
      <trkpt lat="44.41608" lon="1.37663">
        <ele>276</ele>
        <time>2019-04-14T12:43:27Z</time>
      </trkpt>
      <trkpt lat="44.41608" lon="1.3766">
        <ele>276</ele>
        <time>2019-04-14T12:43:28Z</time>
      </trkpt>
      <trkpt lat="44.41608" lon="1.37656">
        <ele>276</ele>
        <time>2019-04-14T12:43:29Z</time>
      </trkpt>
      <trkpt lat="44.41608" lon="1.37653">
        <ele>276</ele>
        <time>2019-04-14T12:43:30Z</time>
      </trkpt>
      <trkpt lat="44.41608" lon="1.3765">
        <ele>276</ele>
        <time>2019-04-14T12:43:31Z</time>
      </trkpt>
      <trkpt lat="44.41609" lon="1.37646">
        <ele>276</ele>
        <time>2019-04-14T12:43:32Z</time>
      </trkpt>
      <trkpt lat="44.41608" lon="1.37643">
        <ele>276</ele>
        <time>2019-04-14T12:43:33Z</time>
      </trkpt>
      <trkpt lat="44.41608" lon="1.3764">
        <ele>276</ele>
        <time>2019-04-14T12:43:34Z</time>
      </trkpt>
      <trkpt lat="44.41607" lon="1.37637">
        <ele>276</ele>
        <time>2019-04-14T12:43:35Z</time>
      </trkpt>
      <trkpt lat="44.41606" lon="1.37633">
        <ele>276</ele>
        <time>2019-04-14T12:43:36Z</time>
      </trkpt>
      <trkpt lat="44.41605" lon="1.37631">
        <ele>276</ele>
        <time>2019-04-14T12:43:37Z</time>
      </trkpt>
      <trkpt lat="44.41604" lon="1.37628">
        <ele>276</ele>
        <time>2019-04-14T12:43:38Z</time>
      </trkpt>
      <trkpt lat="44.41602" lon="1.37626">
        <ele>277</ele>
        <time>2019-04-14T12:43:39Z</time>
      </trkpt>
      <trkpt lat="44.41601" lon="1.37624">
        <ele>277</ele>
        <time>2019-04-14T12:43:40Z</time>
      </trkpt>
      <trkpt lat="44.41599" lon="1.37622">
        <ele>277</ele>
        <time>2019-04-14T12:43:41Z</time>
      </trkpt>
      <trkpt lat="44.41598" lon="1.37621">
        <ele>277</ele>
        <time>2019-04-14T12:43:42Z</time>
      </trkpt>
      <trkpt lat="44.41596" lon="1.3762">
        <ele>278</ele>
        <time>2019-04-14T12:43:43Z</time>
      </trkpt>
      <trkpt lat="44.41595" lon="1.37619">
        <ele>278</ele>
        <time>2019-04-14T12:43:44Z</time>
      </trkpt>
      <trkpt lat="44.41593" lon="1.37618">
        <ele>278</ele>
        <time>2019-04-14T12:43:45Z</time>
      </trkpt>
      <trkpt lat="44.41592" lon="1.37617">
        <ele>278</ele>
        <time>2019-04-14T12:43:46Z</time>
      </trkpt>
      <trkpt lat="44.4159" lon="1.37616">
        <ele>279</ele>
        <time>2019-04-14T12:43:47Z</time>
      </trkpt>
      <trkpt lat="44.41589" lon="1.37615">
        <ele>279</ele>
        <time>2019-04-14T12:43:48Z</time>
      </trkpt>
      <trkpt lat="44.41588" lon="1.37614">
        <ele>279</ele>
        <time>2019-04-14T12:43:49Z</time>
      </trkpt>
      <trkpt lat="44.41586" lon="1.37613">
        <ele>279</ele>
        <time>2019-04-14T12:43:50Z</time>
      </trkpt>
      <trkpt lat="44.41585" lon="1.37612">
        <ele>280</ele>
        <time>2019-04-14T12:43:51Z</time>
      </trkpt>
      <trkpt lat="44.41584" lon="1.3761">
        <ele>280</ele>
        <time>2019-04-14T12:43:52Z</time>
      </trkpt>
      <trkpt lat="44.41582" lon="1.37609">
        <ele>280</ele>
        <time>2019-04-14T12:43:53Z</time>
      </trkpt>
      <trkpt lat="44.41581" lon="1.37608">
        <ele>280</ele>
        <time>2019-04-14T12:43:54Z</time>
      </trkpt>
      <trkpt lat="44.41579" lon="1.37607">
        <ele>280</ele>
        <time>2019-04-14T12:43:55Z</time>
      </trkpt>
      <trkpt lat="44.41578" lon="1.37605">
        <ele>281</ele>
        <time>2019-04-14T12:43:56Z</time>
      </trkpt>
      <trkpt lat="44.41577" lon="1.37604">
        <ele>281</ele>
        <time>2019-04-14T12:43:57Z</time>
      </trkpt>
      <trkpt lat="44.41575" lon="1.37603">
        <ele>281</ele>
        <time>2019-04-14T12:43:58Z</time>
      </trkpt>
      <trkpt lat="44.41573" lon="1.37602">
        <ele>281</ele>
        <time>2019-04-14T12:43:59Z</time>
      </trkpt>
      <trkpt lat="44.41572" lon="1.37601">
        <ele>282</ele>
        <time>2019-04-14T12:44:00Z</time>
      </trkpt>
      <trkpt lat="44.4157" lon="1.376">
        <ele>282</ele>
        <time>2019-04-14T12:44:01Z</time>
      </trkpt>
      <trkpt lat="44.41569" lon="1.37599">
        <ele>282</ele>
        <time>2019-04-14T12:44:02Z</time>
      </trkpt>
      <trkpt lat="44.41567" lon="1.37598">
        <ele>282</ele>
        <time>2019-04-14T12:44:03Z</time>
      </trkpt>
      <trkpt lat="44.41566" lon="1.37597">
        <ele>283</ele>
        <time>2019-04-14T12:44:04Z</time>
      </trkpt>
      <trkpt lat="44.41564" lon="1.37596">
        <ele>283</ele>
        <time>2019-04-14T12:44:05Z</time>
      </trkpt>
      <trkpt lat="44.41563" lon="1.37594">
        <ele>283</ele>
        <time>2019-04-14T12:44:06Z</time>
      </trkpt>
      <trkpt lat="44.41562" lon="1.37593">
        <ele>283</ele>
        <time>2019-04-14T12:44:07Z</time>
      </trkpt>
      <trkpt lat="44.41561" lon="1.37591">
        <ele>283</ele>
        <time>2019-04-14T12:44:08Z</time>
      </trkpt>
      <trkpt lat="44.4156" lon="1.3759">
        <ele>283</ele>
        <time>2019-04-14T12:44:09Z</time>
      </trkpt>
      <trkpt lat="44.41558" lon="1.37589">
        <ele>284</ele>
        <time>2019-04-14T12:44:10Z</time>
      </trkpt>
      <trkpt lat="44.41557" lon="1.37588">
        <ele>284</ele>
        <time>2019-04-14T12:44:11Z</time>
      </trkpt>
      <trkpt lat="44.41555" lon="1.37587">
        <ele>284</ele>
        <time>2019-04-14T12:44:12Z</time>
      </trkpt>
      <trkpt lat="44.41554" lon="1.37585">
        <ele>284</ele>
        <time>2019-04-14T12:44:13Z</time>
      </trkpt>
      <trkpt lat="44.41553" lon="1.37584">
        <ele>285</ele>
        <time>2019-04-14T12:44:14Z</time>
      </trkpt>
      <trkpt lat="44.41551" lon="1.37583">
        <ele>285</ele>
        <time>2019-04-14T12:44:15Z</time>
      </trkpt>
      <trkpt lat="44.4155" lon="1.37582">
        <ele>285</ele>
        <time>2019-04-14T12:44:16Z</time>
      </trkpt>
      <trkpt lat="44.41549" lon="1.3758">
        <ele>285</ele>
        <time>2019-04-14T12:44:17Z</time>
      </trkpt>
      <trkpt lat="44.41548" lon="1.37578">
        <ele>286</ele>
        <time>2019-04-14T12:44:18Z</time>
      </trkpt>
      <trkpt lat="44.41547" lon="1.37576">
        <ele>286</ele>
        <time>2019-04-14T12:44:19Z</time>
      </trkpt>
      <trkpt lat="44.41547" lon="1.37574">
        <ele>286</ele>
        <time>2019-04-14T12:44:20Z</time>
      </trkpt>
      <trkpt lat="44.41546" lon="1.37572">
        <ele>286</ele>
        <time>2019-04-14T12:44:21Z</time>
      </trkpt>
      <trkpt lat="44.41546" lon="1.3757">
        <ele>286</ele>
        <time>2019-04-14T12:44:22Z</time>
      </trkpt>
      <trkpt lat="44.41546" lon="1.37568">
        <ele>286</ele>
        <time>2019-04-14T12:44:23Z</time>
      </trkpt>
      <trkpt lat="44.41546" lon="1.37566">
        <ele>286</ele>
        <time>2019-04-14T12:44:24Z</time>
      </trkpt>
      <trkpt lat="44.41546" lon="1.37564">
        <ele>287</ele>
        <time>2019-04-14T12:44:25Z</time>
      </trkpt>
      <trkpt lat="44.41546" lon="1.37562">
        <ele>287</ele>
        <time>2019-04-14T12:44:26Z</time>
      </trkpt>
      <trkpt lat="44.41546" lon="1.37559">
        <ele>287</ele>
        <time>2019-04-14T12:44:27Z</time>
      </trkpt>
      <trkpt lat="44.41546" lon="1.37556">
        <ele>287</ele>
        <time>2019-04-14T12:44:28Z</time>
      </trkpt>
      <trkpt lat="44.41547" lon="1.37553">
        <ele>287</ele>
        <time>2019-04-14T12:44:29Z</time>
      </trkpt>
      <trkpt lat="44.41547" lon="1.37551">
        <ele>287</ele>
        <time>2019-04-14T12:44:30Z</time>
      </trkpt>
      <trkpt lat="44.41547" lon="1.37548">
        <ele>287</ele>
        <time>2019-04-14T12:44:31Z</time>
      </trkpt>
      <trkpt lat="44.41548" lon="1.37546">
        <ele>287</ele>
        <time>2019-04-14T12:44:32Z</time>
      </trkpt>
      <trkpt lat="44.41548" lon="1.37543">
        <ele>287</ele>
        <time>2019-04-14T12:44:33Z</time>
      </trkpt>
      <trkpt lat="44.41548" lon="1.3754">
        <ele>286</ele>
        <time>2019-04-14T12:44:34Z</time>
      </trkpt>
      <trkpt lat="44.41548" lon="1.37537">
        <ele>286</ele>
        <time>2019-04-14T12:44:35Z</time>
      </trkpt>
      <trkpt lat="44.41549" lon="1.37535">
        <ele>286</ele>
        <time>2019-04-14T12:44:36Z</time>
      </trkpt>
      <trkpt lat="44.41549" lon="1.37532">
        <ele>287</ele>
        <time>2019-04-14T12:44:37Z</time>
      </trkpt>
      <trkpt lat="44.4155" lon="1.37529">
        <ele>287</ele>
        <time>2019-04-14T12:44:38Z</time>
      </trkpt>
      <trkpt lat="44.4155" lon="1.37527">
        <ele>287</ele>
        <time>2019-04-14T12:44:39Z</time>
      </trkpt>
      <trkpt lat="44.41552" lon="1.37525">
        <ele>287</ele>
        <time>2019-04-14T12:44:40Z</time>
      </trkpt>
      <trkpt lat="44.41552" lon="1.37522">
        <ele>286</ele>
        <time>2019-04-14T12:44:41Z</time>
      </trkpt>
      <trkpt lat="44.41552" lon="1.37519">
        <ele>287</ele>
        <time>2019-04-14T12:44:42Z</time>
      </trkpt>
      <trkpt lat="44.41551" lon="1.37517">
        <ele>287</ele>
        <time>2019-04-14T12:44:43Z</time>
      </trkpt>
      <trkpt lat="44.41551" lon="1.37515">
        <ele>287</ele>
        <time>2019-04-14T12:44:44Z</time>
      </trkpt>
      <trkpt lat="44.41551" lon="1.37512">
        <ele>287</ele>
        <time>2019-04-14T12:44:45Z</time>
      </trkpt>
      <trkpt lat="44.41552" lon="1.3751">
        <ele>287</ele>
        <time>2019-04-14T12:44:46Z</time>
      </trkpt>
      <trkpt lat="44.41552" lon="1.37507">
        <ele>288</ele>
        <time>2019-04-14T12:44:47Z</time>
      </trkpt>
      <trkpt lat="44.41553" lon="1.37505">
        <ele>288</ele>
        <time>2019-04-14T12:44:48Z</time>
      </trkpt>
      <trkpt lat="44.41553" lon="1.37502">
        <ele>288</ele>
        <time>2019-04-14T12:44:49Z</time>
      </trkpt>
      <trkpt lat="44.41554" lon="1.375">
        <ele>288</ele>
        <time>2019-04-14T12:44:50Z</time>
      </trkpt>
      <trkpt lat="44.41554" lon="1.37498">
        <ele>288</ele>
        <time>2019-04-14T12:44:51Z</time>
      </trkpt>
      <trkpt lat="44.41555" lon="1.37495">
        <ele>289</ele>
        <time>2019-04-14T12:44:52Z</time>
      </trkpt>
      <trkpt lat="44.41555" lon="1.37493">
        <ele>289</ele>
        <time>2019-04-14T12:44:53Z</time>
      </trkpt>
      <trkpt lat="44.41555" lon="1.37491">
        <ele>289</ele>
        <time>2019-04-14T12:44:54Z</time>
      </trkpt>
      <trkpt lat="44.41555" lon="1.37489">
        <ele>290</ele>
        <time>2019-04-14T12:44:55Z</time>
      </trkpt>
      <trkpt lat="44.41556" lon="1.37487">
        <ele>290</ele>
        <time>2019-04-14T12:44:56Z</time>
      </trkpt>
      <trkpt lat="44.41556" lon="1.37485">
        <ele>290</ele>
        <time>2019-04-14T12:44:57Z</time>
      </trkpt>
      <trkpt lat="44.41556" lon="1.37482">
        <ele>290</ele>
        <time>2019-04-14T12:44:58Z</time>
      </trkpt>
      <trkpt lat="44.41557" lon="1.3748">
        <ele>291</ele>
        <time>2019-04-14T12:44:59Z</time>
      </trkpt>
      <trkpt lat="44.41557" lon="1.37478">
        <ele>291</ele>
        <time>2019-04-14T12:45:00Z</time>
      </trkpt>
      <trkpt lat="44.41556" lon="1.37477">
        <ele>291</ele>
        <time>2019-04-14T12:45:01Z</time>
      </trkpt>
      <trkpt lat="44.41555" lon="1.37475">
        <ele>291</ele>
        <time>2019-04-14T12:45:02Z</time>
      </trkpt>
      <trkpt lat="44.41553" lon="1.37474">
        <ele>291</ele>
        <time>2019-04-14T12:45:03Z</time>
      </trkpt>
      <trkpt lat="44.41552" lon="1.37473">
        <ele>291</ele>
        <time>2019-04-14T12:45:04Z</time>
      </trkpt>
      <trkpt lat="44.4155" lon="1.37471">
        <ele>291</ele>
        <time>2019-04-14T12:45:05Z</time>
      </trkpt>
      <trkpt lat="44.41549" lon="1.3747">
        <ele>292</ele>
        <time>2019-04-14T12:45:06Z</time>
      </trkpt>
      <trkpt lat="44.41547" lon="1.37469">
        <ele>292</ele>
        <time>2019-04-14T12:45:07Z</time>
      </trkpt>
      <trkpt lat="44.41546" lon="1.37467">
        <ele>292</ele>
        <time>2019-04-14T12:45:08Z</time>
      </trkpt>
      <trkpt lat="44.41544" lon="1.37466">
        <ele>292</ele>
        <time>2019-04-14T12:45:09Z</time>
      </trkpt>
      <trkpt lat="44.41543" lon="1.37465">
        <ele>292</ele>
        <time>2019-04-14T12:45:10Z</time>
      </trkpt>
      <trkpt lat="44.41541" lon="1.37463">
        <ele>292</ele>
        <time>2019-04-14T12:45:11Z</time>
      </trkpt>
      <trkpt lat="44.4154" lon="1.37463">
        <ele>292</ele>
        <time>2019-04-14T12:45:12Z</time>
      </trkpt>
      <trkpt lat="44.41538" lon="1.37461">
        <ele>292</ele>
        <time>2019-04-14T12:45:13Z</time>
      </trkpt>
      <trkpt lat="44.41537" lon="1.3746">
        <ele>293</ele>
        <time>2019-04-14T12:45:14Z</time>
      </trkpt>
      <trkpt lat="44.41535" lon="1.3746">
        <ele>293</ele>
        <time>2019-04-14T12:45:15Z</time>
      </trkpt>
      <trkpt lat="44.41533" lon="1.37459">
        <ele>293</ele>
        <time>2019-04-14T12:45:16Z</time>
      </trkpt>
      <trkpt lat="44.41532" lon="1.37458">
        <ele>293</ele>
        <time>2019-04-14T12:45:17Z</time>
      </trkpt>
      <trkpt lat="44.4153" lon="1.37457">
        <ele>293</ele>
        <time>2019-04-14T12:45:18Z</time>
      </trkpt>
      <trkpt lat="44.41529" lon="1.37456">
        <ele>293</ele>
        <time>2019-04-14T12:45:19Z</time>
      </trkpt>
      <trkpt lat="44.41527" lon="1.37455">
        <ele>293</ele>
        <time>2019-04-14T12:45:20Z</time>
      </trkpt>
      <trkpt lat="44.41526" lon="1.37454">
        <ele>293</ele>
        <time>2019-04-14T12:45:21Z</time>
      </trkpt>
      <trkpt lat="44.41524" lon="1.37454">
        <ele>293</ele>
        <time>2019-04-14T12:45:22Z</time>
      </trkpt>
      <trkpt lat="44.41523" lon="1.37453">
        <ele>294</ele>
        <time>2019-04-14T12:45:23Z</time>
      </trkpt>
      <trkpt lat="44.41522" lon="1.37452">
        <ele>294</ele>
        <time>2019-04-14T12:45:24Z</time>
      </trkpt>
      <trkpt lat="44.4152" lon="1.37451">
        <ele>294</ele>
        <time>2019-04-14T12:45:25Z</time>
      </trkpt>
      <trkpt lat="44.41519" lon="1.37451">
        <ele>294</ele>
        <time>2019-04-14T12:45:26Z</time>
      </trkpt>
      <trkpt lat="44.41517" lon="1.3745">
        <ele>294</ele>
        <time>2019-04-14T12:45:27Z</time>
      </trkpt>
      <trkpt lat="44.41516" lon="1.37449">
        <ele>294</ele>
        <time>2019-04-14T12:45:28Z</time>
      </trkpt>
      <trkpt lat="44.41514" lon="1.37449">
        <ele>294</ele>
        <time>2019-04-14T12:45:29Z</time>
      </trkpt>
      <trkpt lat="44.41513" lon="1.37448">
        <ele>294</ele>
        <time>2019-04-14T12:45:30Z</time>
      </trkpt>
      <trkpt lat="44.41511" lon="1.37448">
        <ele>295</ele>
        <time>2019-04-14T12:45:31Z</time>
      </trkpt>
      <trkpt lat="44.4151" lon="1.37448">
        <ele>295</ele>
        <time>2019-04-14T12:45:32Z</time>
      </trkpt>
      <trkpt lat="44.41508" lon="1.37447">
        <ele>295</ele>
        <time>2019-04-14T12:45:33Z</time>
      </trkpt>
      <trkpt lat="44.41507" lon="1.37446">
        <ele>295</ele>
        <time>2019-04-14T12:45:34Z</time>
      </trkpt>
      <trkpt lat="44.41506" lon="1.37445">
        <ele>296</ele>
        <time>2019-04-14T12:45:35Z</time>
      </trkpt>
      <trkpt lat="44.41504" lon="1.37444">
        <ele>295</ele>
        <time>2019-04-14T12:45:36Z</time>
      </trkpt>
      <trkpt lat="44.41503" lon="1.37444">
        <ele>296</ele>
        <time>2019-04-14T12:45:37Z</time>
      </trkpt>
      <trkpt lat="44.41501" lon="1.37443">
        <ele>296</ele>
        <time>2019-04-14T12:45:38Z</time>
      </trkpt>
      <trkpt lat="44.415" lon="1.37443">
        <ele>296</ele>
        <time>2019-04-14T12:45:39Z</time>
      </trkpt>
      <trkpt lat="44.41499" lon="1.37443">
        <ele>296</ele>
        <time>2019-04-14T12:45:40Z</time>
      </trkpt>
      <trkpt lat="44.41498" lon="1.37442">
        <ele>297</ele>
        <time>2019-04-14T12:45:41Z</time>
      </trkpt>
      <trkpt lat="44.41497" lon="1.37442">
        <ele>297</ele>
        <time>2019-04-14T12:45:42Z</time>
      </trkpt>
      <trkpt lat="44.41496" lon="1.3744">
        <ele>297</ele>
        <time>2019-04-14T12:45:43Z</time>
      </trkpt>
      <trkpt lat="44.41496" lon="1.37438">
        <ele>298</ele>
        <time>2019-04-14T12:45:44Z</time>
      </trkpt>
      <trkpt lat="44.41496" lon="1.37436">
        <ele>298</ele>
        <time>2019-04-14T12:45:45Z</time>
      </trkpt>
      <trkpt lat="44.41497" lon="1.37434">
        <ele>298</ele>
        <time>2019-04-14T12:45:46Z</time>
      </trkpt>
      <trkpt lat="44.41499" lon="1.3743">
        <ele>298</ele>
        <time>2019-04-14T12:45:47Z</time>
      </trkpt>
      <trkpt lat="44.41499" lon="1.37429">
        <ele>298</ele>
        <time>2019-04-14T12:45:49Z</time>
      </trkpt>
      <trkpt lat="44.41499" lon="1.37427">
        <ele>298</ele>
        <time>2019-04-14T12:45:50Z</time>
      </trkpt>
      <trkpt lat="44.415" lon="1.37425">
        <ele>298</ele>
        <time>2019-04-14T12:45:51Z</time>
      </trkpt>
      <trkpt lat="44.41502" lon="1.37423">
        <ele>298</ele>
        <time>2019-04-14T12:45:52Z</time>
      </trkpt>
      <trkpt lat="44.41503" lon="1.3742">
        <ele>298</ele>
        <time>2019-04-14T12:45:53Z</time>
      </trkpt>
      <trkpt lat="44.41505" lon="1.37417">
        <ele>297</ele>
        <time>2019-04-14T12:45:54Z</time>
      </trkpt>
      <trkpt lat="44.41506" lon="1.37415">
        <ele>297</ele>
        <time>2019-04-14T12:45:55Z</time>
      </trkpt>
      <trkpt lat="44.41508" lon="1.37412">
        <ele>297</ele>
        <time>2019-04-14T12:45:56Z</time>
      </trkpt>
      <trkpt lat="44.41509" lon="1.37408">
        <ele>297</ele>
        <time>2019-04-14T12:45:57Z</time>
      </trkpt>
      <trkpt lat="44.41511" lon="1.37405">
        <ele>297</ele>
        <time>2019-04-14T12:45:58Z</time>
      </trkpt>
      <trkpt lat="44.41512" lon="1.37401">
        <ele>297</ele>
        <time>2019-04-14T12:45:59Z</time>
      </trkpt>
      <trkpt lat="44.41514" lon="1.37397">
        <ele>297</ele>
        <time>2019-04-14T12:46:00Z</time>
      </trkpt>
      <trkpt lat="44.41516" lon="1.37393">
        <ele>297</ele>
        <time>2019-04-14T12:46:01Z</time>
      </trkpt>
      <trkpt lat="44.41518" lon="1.37389">
        <ele>297</ele>
        <time>2019-04-14T12:46:02Z</time>
      </trkpt>
      <trkpt lat="44.41521" lon="1.37386">
        <ele>297</ele>
        <time>2019-04-14T12:46:03Z</time>
      </trkpt>
      <trkpt lat="44.41523" lon="1.37381">
        <ele>296</ele>
        <time>2019-04-14T12:46:04Z</time>
      </trkpt>
      <trkpt lat="44.41526" lon="1.37376">
        <ele>296</ele>
        <time>2019-04-14T12:46:05Z</time>
      </trkpt>
      <trkpt lat="44.41529" lon="1.3737">
        <ele>296</ele>
        <time>2019-04-14T12:46:06Z</time>
      </trkpt>
      <trkpt lat="44.41532" lon="1.37364">
        <ele>295</ele>
        <time>2019-04-14T12:46:07Z</time>
      </trkpt>
      <trkpt lat="44.41535" lon="1.37358">
        <ele>295</ele>
        <time>2019-04-14T12:46:08Z</time>
      </trkpt>
      <trkpt lat="44.41538" lon="1.37351">
        <ele>295</ele>
        <time>2019-04-14T12:46:09Z</time>
      </trkpt>
      <trkpt lat="44.41541" lon="1.37344">
        <ele>294</ele>
        <time>2019-04-14T12:46:10Z</time>
      </trkpt>
      <trkpt lat="44.41545" lon="1.37337">
        <ele>294</ele>
        <time>2019-04-14T12:46:11Z</time>
      </trkpt>
      <trkpt lat="44.41552" lon="1.37322">
        <ele>294</ele>
        <time>2019-04-14T12:46:12Z</time>
      </trkpt>
      <trkpt lat="44.41556" lon="1.37314">
        <ele>293</ele>
        <time>2019-04-14T12:46:14Z</time>
      </trkpt>
      <trkpt lat="44.4156" lon="1.37306">
        <ele>292</ele>
        <time>2019-04-14T12:46:15Z</time>
      </trkpt>
      <trkpt lat="44.41564" lon="1.37297">
        <ele>292</ele>
        <time>2019-04-14T12:46:16Z</time>
      </trkpt>
      <trkpt lat="44.41569" lon="1.37288">
        <ele>291</ele>
        <time>2019-04-14T12:46:17Z</time>
      </trkpt>
      <trkpt lat="44.41573" lon="1.37278">
        <ele>291</ele>
        <time>2019-04-14T12:46:18Z</time>
      </trkpt>
      <trkpt lat="44.41578" lon="1.37269">
        <ele>291</ele>
        <time>2019-04-14T12:46:19Z</time>
      </trkpt>
      <trkpt lat="44.41583" lon="1.37259">
        <ele>290</ele>
        <time>2019-04-14T12:46:20Z</time>
      </trkpt>
      <trkpt lat="44.41587" lon="1.3725">
        <ele>290</ele>
        <time>2019-04-14T12:46:21Z</time>
      </trkpt>
      <trkpt lat="44.41592" lon="1.37241">
        <ele>290</ele>
        <time>2019-04-14T12:46:22Z</time>
      </trkpt>
      <trkpt lat="44.41596" lon="1.37231">
        <ele>290</ele>
        <time>2019-04-14T12:46:23Z</time>
      </trkpt>
      <trkpt lat="44.41601" lon="1.37223">
        <ele>290</ele>
        <time>2019-04-14T12:46:24Z</time>
      </trkpt>
      <trkpt lat="44.41606" lon="1.37214">
        <ele>289</ele>
        <time>2019-04-14T12:46:25Z</time>
      </trkpt>
      <trkpt lat="44.41611" lon="1.37208">
        <ele>289</ele>
        <time>2019-04-14T12:46:26Z</time>
      </trkpt>
      <trkpt lat="44.41615" lon="1.372">
        <ele>289</ele>
        <time>2019-04-14T12:46:27Z</time>
      </trkpt>
      <trkpt lat="44.4162" lon="1.37192">
        <ele>289</ele>
        <time>2019-04-14T12:46:28Z</time>
      </trkpt>
      <trkpt lat="44.41624" lon="1.37185">
        <ele>289</ele>
        <time>2019-04-14T12:46:29Z</time>
      </trkpt>
      <trkpt lat="44.41629" lon="1.37179">
        <ele>289</ele>
        <time>2019-04-14T12:46:30Z</time>
      </trkpt>
      <trkpt lat="44.41633" lon="1.37173">
        <ele>290</ele>
        <time>2019-04-14T12:46:31Z</time>
      </trkpt>
      <trkpt lat="44.41637" lon="1.37167">
        <ele>290</ele>
        <time>2019-04-14T12:46:32Z</time>
      </trkpt>
      <trkpt lat="44.41639" lon="1.37161">
        <ele>289</ele>
        <time>2019-04-14T12:46:33Z</time>
      </trkpt>
      <trkpt lat="44.4164" lon="1.37156">
        <ele>289</ele>
        <time>2019-04-14T12:46:34Z</time>
      </trkpt>
      <trkpt lat="44.41639" lon="1.37154">
        <ele>290</ele>
        <time>2019-04-14T12:46:35Z</time>
      </trkpt>
      <trkpt lat="44.41637" lon="1.37153">
        <ele>290</ele>
        <time>2019-04-14T12:46:36Z</time>
      </trkpt>
      <trkpt lat="44.41635" lon="1.37154">
        <ele>290</ele>
        <time>2019-04-14T12:46:37Z</time>
      </trkpt>
      <trkpt lat="44.41633" lon="1.37156">
        <ele>291</ele>
        <time>2019-04-14T12:46:38Z</time>
      </trkpt>
      <trkpt lat="44.41631" lon="1.37158">
        <ele>291</ele>
        <time>2019-04-14T12:46:39Z</time>
      </trkpt>
      <trkpt lat="44.4163" lon="1.37161">
        <ele>290</ele>
        <time>2019-04-14T12:46:40Z</time>
      </trkpt>
      <trkpt lat="44.41628" lon="1.37163">
        <ele>291</ele>
        <time>2019-04-14T12:46:41Z</time>
      </trkpt>
      <trkpt lat="44.41623" lon="1.37166">
        <ele>291</ele>
        <time>2019-04-14T12:46:42Z</time>
      </trkpt>
      <trkpt lat="44.41621" lon="1.37167">
        <ele>291</ele>
        <time>2019-04-14T12:46:43Z</time>
      </trkpt>
      <trkpt lat="44.41619" lon="1.37167">
        <ele>291</ele>
        <time>2019-04-14T12:46:45Z</time>
      </trkpt>
      <trkpt lat="44.41617" lon="1.37167">
        <ele>292</ele>
        <time>2019-04-14T12:46:46Z</time>
      </trkpt>
      <trkpt lat="44.41615" lon="1.37166">
        <ele>292</ele>
        <time>2019-04-14T12:46:47Z</time>
      </trkpt>
      <trkpt lat="44.41613" lon="1.37164">
        <ele>292</ele>
        <time>2019-04-14T12:46:48Z</time>
      </trkpt>
      <trkpt lat="44.41611" lon="1.37162">
        <ele>293</ele>
        <time>2019-04-14T12:46:49Z</time>
      </trkpt>
      <trkpt lat="44.41609" lon="1.3716">
        <ele>293</ele>
        <time>2019-04-14T12:46:50Z</time>
      </trkpt>
      <trkpt lat="44.41608" lon="1.37158">
        <ele>293</ele>
        <time>2019-04-14T12:46:51Z</time>
      </trkpt>
      <trkpt lat="44.41606" lon="1.37156">
        <ele>294</ele>
        <time>2019-04-14T12:46:52Z</time>
      </trkpt>
      <trkpt lat="44.41605" lon="1.37154">
        <ele>294</ele>
        <time>2019-04-14T12:46:53Z</time>
      </trkpt>
      <trkpt lat="44.41603" lon="1.37153">
        <ele>294</ele>
        <time>2019-04-14T12:46:54Z</time>
      </trkpt>
      <trkpt lat="44.41602" lon="1.37151">
        <ele>295</ele>
        <time>2019-04-14T12:46:55Z</time>
      </trkpt>
      <trkpt lat="44.416" lon="1.3715">
        <ele>295</ele>
        <time>2019-04-14T12:46:56Z</time>
      </trkpt>
      <trkpt lat="44.41598" lon="1.37148">
        <ele>295</ele>
        <time>2019-04-14T12:46:57Z</time>
      </trkpt>
      <trkpt lat="44.41597" lon="1.37147">
        <ele>296</ele>
        <time>2019-04-14T12:46:58Z</time>
      </trkpt>
      <trkpt lat="44.41595" lon="1.37145">
        <ele>296</ele>
        <time>2019-04-14T12:46:59Z</time>
      </trkpt>
      <trkpt lat="44.41593" lon="1.37143">
        <ele>297</ele>
        <time>2019-04-14T12:47:00Z</time>
      </trkpt>
      <trkpt lat="44.4159" lon="1.37139">
        <ele>297</ele>
        <time>2019-04-14T12:47:01Z</time>
      </trkpt>
      <trkpt lat="44.41588" lon="1.37137">
        <ele>298</ele>
        <time>2019-04-14T12:47:03Z</time>
      </trkpt>
      <trkpt lat="44.41586" lon="1.37135">
        <ele>298</ele>
        <time>2019-04-14T12:47:04Z</time>
      </trkpt>
      <trkpt lat="44.41584" lon="1.37133">
        <ele>298</ele>
        <time>2019-04-14T12:47:05Z</time>
      </trkpt>
      <trkpt lat="44.41581" lon="1.37129">
        <ele>299</ele>
        <time>2019-04-14T12:47:06Z</time>
      </trkpt>
      <trkpt lat="44.41579" lon="1.37127">
        <ele>299</ele>
        <time>2019-04-14T12:47:08Z</time>
      </trkpt>
      <trkpt lat="44.41577" lon="1.37125">
        <ele>299</ele>
        <time>2019-04-14T12:47:09Z</time>
      </trkpt>
      <trkpt lat="44.41575" lon="1.37122">
        <ele>300</ele>
        <time>2019-04-14T12:47:10Z</time>
      </trkpt>
      <trkpt lat="44.41574" lon="1.3712">
        <ele>300</ele>
        <time>2019-04-14T12:47:11Z</time>
      </trkpt>
      <trkpt lat="44.41572" lon="1.37119">
        <ele>300</ele>
        <time>2019-04-14T12:47:12Z</time>
      </trkpt>
      <trkpt lat="44.4157" lon="1.37117">
        <ele>301</ele>
        <time>2019-04-14T12:47:13Z</time>
      </trkpt>
      <trkpt lat="44.41569" lon="1.37115">
        <ele>301</ele>
        <time>2019-04-14T12:47:14Z</time>
      </trkpt>
      <trkpt lat="44.41567" lon="1.37113">
        <ele>301</ele>
        <time>2019-04-14T12:47:15Z</time>
      </trkpt>
      <trkpt lat="44.41565" lon="1.37111">
        <ele>301</ele>
        <time>2019-04-14T12:47:16Z</time>
      </trkpt>
      <trkpt lat="44.41564" lon="1.37109">
        <ele>301</ele>
        <time>2019-04-14T12:47:17Z</time>
      </trkpt>
      <trkpt lat="44.41562" lon="1.37107">
        <ele>302</ele>
        <time>2019-04-14T12:47:18Z</time>
      </trkpt>
      <trkpt lat="44.4156" lon="1.37105">
        <ele>302</ele>
        <time>2019-04-14T12:47:19Z</time>
      </trkpt>
      <trkpt lat="44.41559" lon="1.37102">
        <ele>302</ele>
        <time>2019-04-14T12:47:20Z</time>
      </trkpt>
      <trkpt lat="44.41558" lon="1.37101">
        <ele>302</ele>
        <time>2019-04-14T12:47:21Z</time>
      </trkpt>
      <trkpt lat="44.41557" lon="1.37098">
        <ele>302</ele>
        <time>2019-04-14T12:47:22Z</time>
      </trkpt>
      <trkpt lat="44.41556" lon="1.37096">
        <ele>303</ele>
        <time>2019-04-14T12:47:23Z</time>
      </trkpt>
      <trkpt lat="44.41554" lon="1.37094">
        <ele>303</ele>
        <time>2019-04-14T12:47:24Z</time>
      </trkpt>
      <trkpt lat="44.41553" lon="1.37092">
        <ele>303</ele>
        <time>2019-04-14T12:47:25Z</time>
      </trkpt>
      <trkpt lat="44.41551" lon="1.37089">
        <ele>303</ele>
        <time>2019-04-14T12:47:26Z</time>
      </trkpt>
      <trkpt lat="44.41548" lon="1.37085">
        <ele>303</ele>
        <time>2019-04-14T12:47:27Z</time>
      </trkpt>
      <trkpt lat="44.41546" lon="1.37083">
        <ele>303</ele>
        <time>2019-04-14T12:47:28Z</time>
      </trkpt>
      <trkpt lat="44.41545" lon="1.37081">
        <ele>304</ele>
        <time>2019-04-14T12:47:30Z</time>
      </trkpt>
      <trkpt lat="44.41541" lon="1.37077">
        <ele>304</ele>
        <time>2019-04-14T12:47:31Z</time>
      </trkpt>
      <trkpt lat="44.41539" lon="1.37074">
        <ele>304</ele>
        <time>2019-04-14T12:47:32Z</time>
      </trkpt>
      <trkpt lat="44.41537" lon="1.37072">
        <ele>304</ele>
        <time>2019-04-14T12:47:34Z</time>
      </trkpt>
      <trkpt lat="44.41533" lon="1.37067">
        <ele>304</ele>
        <time>2019-04-14T12:47:35Z</time>
      </trkpt>
      <trkpt lat="44.4153" lon="1.37065">
        <ele>304</ele>
        <time>2019-04-14T12:47:37Z</time>
      </trkpt>
      <trkpt lat="44.41529" lon="1.37064">
        <ele>304</ele>
        <time>2019-04-14T12:47:38Z</time>
      </trkpt>
      <trkpt lat="44.41527" lon="1.37061">
        <ele>304</ele>
        <time>2019-04-14T12:47:39Z</time>
      </trkpt>
      <trkpt lat="44.41525" lon="1.37058">
        <ele>304</ele>
        <time>2019-04-14T12:47:40Z</time>
      </trkpt>
      <trkpt lat="44.41522" lon="1.37056">
        <ele>304</ele>
        <time>2019-04-14T12:47:41Z</time>
      </trkpt>
      <trkpt lat="44.41519" lon="1.37053">
        <ele>304</ele>
        <time>2019-04-14T12:47:42Z</time>
      </trkpt>
      <trkpt lat="44.41517" lon="1.37049">
        <ele>304</ele>
        <time>2019-04-14T12:47:43Z</time>
      </trkpt>
      <trkpt lat="44.41516" lon="1.37045">
        <ele>304</ele>
        <time>2019-04-14T12:47:44Z</time>
      </trkpt>
      <trkpt lat="44.41513" lon="1.37041">
        <ele>303</ele>
        <time>2019-04-14T12:47:45Z</time>
      </trkpt>
      <trkpt lat="44.4151" lon="1.37037">
        <ele>303</ele>
        <time>2019-04-14T12:47:46Z</time>
      </trkpt>
      <trkpt lat="44.41506" lon="1.37033">
        <ele>303</ele>
        <time>2019-04-14T12:47:47Z</time>
      </trkpt>
      <trkpt lat="44.41502" lon="1.3703">
        <ele>303</ele>
        <time>2019-04-14T12:47:48Z</time>
      </trkpt>
      <trkpt lat="44.41497" lon="1.37029">
        <ele>302</ele>
        <time>2019-04-14T12:47:49Z</time>
      </trkpt>
      <trkpt lat="44.41488" lon="1.37034">
        <ele>302</ele>
        <time>2019-04-14T12:47:50Z</time>
      </trkpt>
      <trkpt lat="44.41486" lon="1.37039">
        <ele>302</ele>
        <time>2019-04-14T12:47:51Z</time>
      </trkpt>
      <trkpt lat="44.41485" lon="1.37042">
        <ele>303</ele>
        <time>2019-04-14T12:47:52Z</time>
      </trkpt>
      <trkpt lat="44.41483" lon="1.37045">
        <ele>303</ele>
        <time>2019-04-14T12:47:54Z</time>
      </trkpt>
      <trkpt lat="44.41481" lon="1.37048">
        <ele>303</ele>
        <time>2019-04-14T12:47:55Z</time>
      </trkpt>
      <trkpt lat="44.4148" lon="1.37051">
        <ele>304</ele>
        <time>2019-04-14T12:47:56Z</time>
      </trkpt>
      <trkpt lat="44.41478" lon="1.37053">
        <ele>304</ele>
        <time>2019-04-14T12:47:57Z</time>
      </trkpt>
      <trkpt lat="44.41477" lon="1.37056">
        <ele>304</ele>
        <time>2019-04-14T12:47:58Z</time>
      </trkpt>
      <trkpt lat="44.41476" lon="1.37058">
        <ele>304</ele>
        <time>2019-04-14T12:47:59Z</time>
      </trkpt>
      <trkpt lat="44.41475" lon="1.37061">
        <ele>304</ele>
        <time>2019-04-14T12:48:00Z</time>
      </trkpt>
      <trkpt lat="44.41473" lon="1.37063">
        <ele>304</ele>
        <time>2019-04-14T12:48:01Z</time>
      </trkpt>
      <trkpt lat="44.41472" lon="1.37065">
        <ele>305</ele>
        <time>2019-04-14T12:48:02Z</time>
      </trkpt>
      <trkpt lat="44.41471" lon="1.37068">
        <ele>305</ele>
        <time>2019-04-14T12:48:03Z</time>
      </trkpt>
      <trkpt lat="44.41469" lon="1.3707">
        <ele>305</ele>
        <time>2019-04-14T12:48:04Z</time>
      </trkpt>
      <trkpt lat="44.41468" lon="1.37072">
        <ele>305</ele>
        <time>2019-04-14T12:48:05Z</time>
      </trkpt>
      <trkpt lat="44.41467" lon="1.37074">
        <ele>305</ele>
        <time>2019-04-14T12:48:06Z</time>
      </trkpt>
      <trkpt lat="44.41466" lon="1.37076">
        <ele>305</ele>
        <time>2019-04-14T12:48:07Z</time>
      </trkpt>
      <trkpt lat="44.41466" lon="1.37078">
        <ele>306</ele>
        <time>2019-04-14T12:48:08Z</time>
      </trkpt>
      <trkpt lat="44.41465" lon="1.37083">
        <ele>306</ele>
        <time>2019-04-14T12:48:09Z</time>
      </trkpt>
      <trkpt lat="44.41464" lon="1.37089">
        <ele>306</ele>
        <time>2019-04-14T12:48:11Z</time>
      </trkpt>
      <trkpt lat="44.41465" lon="1.37092">
        <ele>306</ele>
        <time>2019-04-14T12:48:12Z</time>
      </trkpt>
      <trkpt lat="44.41466" lon="1.37097">
        <ele>306</ele>
        <time>2019-04-14T12:48:14Z</time>
      </trkpt>
      <trkpt lat="44.41468" lon="1.371">
        <ele>307</ele>
        <time>2019-04-14T12:48:15Z</time>
      </trkpt>
      <trkpt lat="44.41468" lon="1.37102">
        <ele>307</ele>
        <time>2019-04-14T12:48:17Z</time>
      </trkpt>
      <trkpt lat="44.41469" lon="1.37104">
        <ele>307</ele>
        <time>2019-04-14T12:48:18Z</time>
      </trkpt>
      <trkpt lat="44.41469" lon="1.37107">
        <ele>307</ele>
        <time>2019-04-14T12:48:19Z</time>
      </trkpt>
      <trkpt lat="44.41471" lon="1.37109">
        <ele>307</ele>
        <time>2019-04-14T12:48:20Z</time>
      </trkpt>
      <trkpt lat="44.41472" lon="1.37111">
        <ele>307</ele>
        <time>2019-04-14T12:48:21Z</time>
      </trkpt>
      <trkpt lat="44.41473" lon="1.37112">
        <ele>307</ele>
        <time>2019-04-14T12:48:22Z</time>
      </trkpt>
      <trkpt lat="44.41475" lon="1.37114">
        <ele>307</ele>
        <time>2019-04-14T12:48:23Z</time>
      </trkpt>
      <trkpt lat="44.41477" lon="1.37116">
        <ele>308</ele>
        <time>2019-04-14T12:48:24Z</time>
      </trkpt>
      <trkpt lat="44.41479" lon="1.37118">
        <ele>308</ele>
        <time>2019-04-14T12:48:25Z</time>
      </trkpt>
      <trkpt lat="44.4148" lon="1.3712">
        <ele>308</ele>
        <time>2019-04-14T12:48:26Z</time>
      </trkpt>
      <trkpt lat="44.41482" lon="1.37122">
        <ele>308</ele>
        <time>2019-04-14T12:48:27Z</time>
      </trkpt>
      <trkpt lat="44.41483" lon="1.37124">
        <ele>308</ele>
        <time>2019-04-14T12:48:28Z</time>
      </trkpt>
      <trkpt lat="44.41484" lon="1.37126">
        <ele>308</ele>
        <time>2019-04-14T12:48:29Z</time>
      </trkpt>
      <trkpt lat="44.41486" lon="1.37129">
        <ele>308</ele>
        <time>2019-04-14T12:48:30Z</time>
      </trkpt>
      <trkpt lat="44.41487" lon="1.37131">
        <ele>308</ele>
        <time>2019-04-14T12:48:31Z</time>
      </trkpt>
      <trkpt lat="44.41489" lon="1.37133">
        <ele>308</ele>
        <time>2019-04-14T12:48:32Z</time>
      </trkpt>
      <trkpt lat="44.4149" lon="1.37134">
        <ele>308</ele>
        <time>2019-04-14T12:48:33Z</time>
      </trkpt>
      <trkpt lat="44.41491" lon="1.37137">
        <ele>308</ele>
        <time>2019-04-14T12:48:34Z</time>
      </trkpt>
      <trkpt lat="44.41491" lon="1.3714">
        <ele>308</ele>
        <time>2019-04-14T12:48:35Z</time>
      </trkpt>
      <trkpt lat="44.41493" lon="1.37142">
        <ele>308</ele>
        <time>2019-04-14T12:48:36Z</time>
      </trkpt>
      <trkpt lat="44.41494" lon="1.37144">
        <ele>308</ele>
        <time>2019-04-14T12:48:37Z</time>
      </trkpt>
      <trkpt lat="44.41496" lon="1.37146">
        <ele>308</ele>
        <time>2019-04-14T12:48:38Z</time>
      </trkpt>
      <trkpt lat="44.41497" lon="1.37148">
        <ele>308</ele>
        <time>2019-04-14T12:48:39Z</time>
      </trkpt>
      <trkpt lat="44.41497" lon="1.37153">
        <ele>309</ele>
        <time>2019-04-14T12:48:40Z</time>
      </trkpt>
      <trkpt lat="44.41496" lon="1.37155">
        <ele>309</ele>
        <time>2019-04-14T12:48:41Z</time>
      </trkpt>
      <trkpt lat="44.41495" lon="1.37157">
        <ele>309</ele>
        <time>2019-04-14T12:48:42Z</time>
      </trkpt>
      <trkpt lat="44.41493" lon="1.37159">
        <ele>309</ele>
        <time>2019-04-14T12:48:43Z</time>
      </trkpt>
      <trkpt lat="44.41492" lon="1.3716">
        <ele>309</ele>
        <time>2019-04-14T12:48:45Z</time>
      </trkpt>
      <trkpt lat="44.4149" lon="1.37162">
        <ele>309</ele>
        <time>2019-04-14T12:48:46Z</time>
      </trkpt>
      <trkpt lat="44.41488" lon="1.37163">
        <ele>309</ele>
        <time>2019-04-14T12:48:47Z</time>
      </trkpt>
      <trkpt lat="44.41487" lon="1.37165">
        <ele>309</ele>
        <time>2019-04-14T12:48:48Z</time>
      </trkpt>
      <trkpt lat="44.41485" lon="1.37167">
        <ele>310</ele>
        <time>2019-04-14T12:48:49Z</time>
      </trkpt>
      <trkpt lat="44.41483" lon="1.37169">
        <ele>310</ele>
        <time>2019-04-14T12:48:50Z</time>
      </trkpt>
      <trkpt lat="44.41481" lon="1.3717">
        <ele>310</ele>
        <time>2019-04-14T12:48:51Z</time>
      </trkpt>
      <trkpt lat="44.41479" lon="1.37172">
        <ele>310</ele>
        <time>2019-04-14T12:48:52Z</time>
      </trkpt>
      <trkpt lat="44.41477" lon="1.37173">
        <ele>310</ele>
        <time>2019-04-14T12:48:53Z</time>
      </trkpt>
      <trkpt lat="44.41475" lon="1.37174">
        <ele>310</ele>
        <time>2019-04-14T12:48:54Z</time>
      </trkpt>
      <trkpt lat="44.41474" lon="1.37175">
        <ele>310</ele>
        <time>2019-04-14T12:48:55Z</time>
      </trkpt>
      <trkpt lat="44.41471" lon="1.37177">
        <ele>310</ele>
        <time>2019-04-14T12:48:56Z</time>
      </trkpt>
      <trkpt lat="44.41469" lon="1.37178">
        <ele>310</ele>
        <time>2019-04-14T12:48:57Z</time>
      </trkpt>
      <trkpt lat="44.41467" lon="1.37179">
        <ele>310</ele>
        <time>2019-04-14T12:48:58Z</time>
      </trkpt>
      <trkpt lat="44.41465" lon="1.37181">
        <ele>310</ele>
        <time>2019-04-14T12:48:59Z</time>
      </trkpt>
      <trkpt lat="44.41462" lon="1.37182">
        <ele>310</ele>
        <time>2019-04-14T12:49:00Z</time>
      </trkpt>
      <trkpt lat="44.4146" lon="1.37183">
        <ele>310</ele>
        <time>2019-04-14T12:49:01Z</time>
      </trkpt>
      <trkpt lat="44.41458" lon="1.37184">
        <ele>310</ele>
        <time>2019-04-14T12:49:02Z</time>
      </trkpt>
      <trkpt lat="44.41456" lon="1.37185">
        <ele>310</ele>
        <time>2019-04-14T12:49:03Z</time>
      </trkpt>
      <trkpt lat="44.41454" lon="1.37186">
        <ele>310</ele>
        <time>2019-04-14T12:49:04Z</time>
      </trkpt>
      <trkpt lat="44.41451" lon="1.37187">
        <ele>310</ele>
        <time>2019-04-14T12:49:05Z</time>
      </trkpt>
      <trkpt lat="44.41449" lon="1.37188">
        <ele>310</ele>
        <time>2019-04-14T12:49:06Z</time>
      </trkpt>
      <trkpt lat="44.41445" lon="1.37189">
        <ele>310</ele>
        <time>2019-04-14T12:49:07Z</time>
      </trkpt>
      <trkpt lat="44.41443" lon="1.37189">
        <ele>310</ele>
        <time>2019-04-14T12:49:09Z</time>
      </trkpt>
      <trkpt lat="44.41439" lon="1.37187">
        <ele>310</ele>
        <time>2019-04-14T12:49:10Z</time>
      </trkpt>
      <trkpt lat="44.41438" lon="1.37185">
        <ele>310</ele>
        <time>2019-04-14T12:49:11Z</time>
      </trkpt>
      <trkpt lat="44.41436" lon="1.37183">
        <ele>309</ele>
        <time>2019-04-14T12:49:12Z</time>
      </trkpt>
      <trkpt lat="44.41435" lon="1.37181">
        <ele>309</ele>
        <time>2019-04-14T12:49:13Z</time>
      </trkpt>
      <trkpt lat="44.41435" lon="1.37179">
        <ele>309</ele>
        <time>2019-04-14T12:49:15Z</time>
      </trkpt>
      <trkpt lat="44.41434" lon="1.37177">
        <ele>309</ele>
        <time>2019-04-14T12:49:16Z</time>
      </trkpt>
      <trkpt lat="44.41434" lon="1.37175">
        <ele>309</ele>
        <time>2019-04-14T12:49:17Z</time>
      </trkpt>
      <trkpt lat="44.41433" lon="1.37174">
        <ele>309</ele>
        <time>2019-04-14T12:49:18Z</time>
      </trkpt>
      <trkpt lat="44.41433" lon="1.37172">
        <ele>309</ele>
        <time>2019-04-14T12:49:19Z</time>
      </trkpt>
      <trkpt lat="44.41432" lon="1.37171">
        <ele>309</ele>
        <time>2019-04-14T12:49:20Z</time>
      </trkpt>
      <trkpt lat="44.41431" lon="1.37169">
        <ele>309</ele>
        <time>2019-04-14T12:49:21Z</time>
      </trkpt>
      <trkpt lat="44.41431" lon="1.37168">
        <ele>309</ele>
        <time>2019-04-14T12:49:22Z</time>
      </trkpt>
      <trkpt lat="44.4143" lon="1.37167">
        <ele>309</ele>
        <time>2019-04-14T12:49:23Z</time>
      </trkpt>
      <trkpt lat="44.41429" lon="1.37165">
        <ele>309</ele>
        <time>2019-04-14T12:49:24Z</time>
      </trkpt>
      <trkpt lat="44.41429" lon="1.37164">
        <ele>309</ele>
        <time>2019-04-14T12:49:25Z</time>
      </trkpt>
      <trkpt lat="44.41429" lon="1.37162">
        <ele>309</ele>
        <time>2019-04-14T12:49:26Z</time>
      </trkpt>
      <trkpt lat="44.4143" lon="1.37161">
        <ele>309</ele>
        <time>2019-04-14T12:49:27Z</time>
      </trkpt>
      <trkpt lat="44.4143" lon="1.3716">
        <ele>309</ele>
        <time>2019-04-14T12:49:28Z</time>
      </trkpt>
      <trkpt lat="44.4143" lon="1.37158">
        <ele>309</ele>
        <time>2019-04-14T12:49:29Z</time>
      </trkpt>
      <trkpt lat="44.41428" lon="1.37157">
        <ele>309</ele>
        <time>2019-04-14T12:49:30Z</time>
      </trkpt>
      <trkpt lat="44.41427" lon="1.37158">
        <ele>309</ele>
        <time>2019-04-14T12:49:31Z</time>
      </trkpt>
      <trkpt lat="44.41426" lon="1.37159">
        <ele>309</ele>
        <time>2019-04-14T12:49:32Z</time>
      </trkpt>
      <trkpt lat="44.41426" lon="1.37161">
        <ele>309</ele>
        <time>2019-04-14T12:49:33Z</time>
      </trkpt>
      <trkpt lat="44.41427" lon="1.37162">
        <ele>309</ele>
        <time>2019-04-14T12:49:34Z</time>
      </trkpt>
      <trkpt lat="44.41429" lon="1.37165">
        <ele>309</ele>
        <time>2019-04-14T12:49:35Z</time>
      </trkpt>
      <trkpt lat="44.41431" lon="1.37167">
        <ele>309</ele>
        <time>2019-04-14T12:49:37Z</time>
      </trkpt>
      <trkpt lat="44.41432" lon="1.37169">
        <ele>309</ele>
        <time>2019-04-14T12:49:38Z</time>
      </trkpt>
      <trkpt lat="44.41433" lon="1.37172">
        <ele>309</ele>
        <time>2019-04-14T12:49:39Z</time>
      </trkpt>
      <trkpt lat="44.41434" lon="1.37175">
        <ele>309</ele>
        <time>2019-04-14T12:49:40Z</time>
      </trkpt>
      <trkpt lat="44.41435" lon="1.37178">
        <ele>309</ele>
        <time>2019-04-14T12:49:41Z</time>
      </trkpt>
      <trkpt lat="44.41436" lon="1.37181">
        <ele>309</ele>
        <time>2019-04-14T12:49:42Z</time>
      </trkpt>
      <trkpt lat="44.41438" lon="1.37184">
        <ele>309</ele>
        <time>2019-04-14T12:49:43Z</time>
      </trkpt>
      <trkpt lat="44.41438" lon="1.37188">
        <ele>309</ele>
        <time>2019-04-14T12:49:44Z</time>
      </trkpt>
      <trkpt lat="44.41438" lon="1.37189">
        <ele>309</ele>
        <time>2019-04-14T12:49:45Z</time>
      </trkpt>
      <trkpt lat="44.41439" lon="1.3719">
        <ele>309</ele>
        <time>2019-04-14T12:49:46Z</time>
      </trkpt>
      <trkpt lat="44.41438" lon="1.37193">
        <ele>309</ele>
        <time>2019-04-14T12:49:48Z</time>
      </trkpt>
      <trkpt lat="44.41436" lon="1.37194">
        <ele>309</ele>
        <time>2019-04-14T12:49:49Z</time>
      </trkpt>
      <trkpt lat="44.41434" lon="1.37196">
        <ele>309</ele>
        <time>2019-04-14T12:49:51Z</time>
      </trkpt>
      <trkpt lat="44.41433" lon="1.37196">
        <ele>309</ele>
        <time>2019-04-14T12:49:52Z</time>
      </trkpt>
      <trkpt lat="44.41431" lon="1.37197">
        <ele>309</ele>
        <time>2019-04-14T12:49:53Z</time>
      </trkpt>
      <trkpt lat="44.41429" lon="1.37199">
        <ele>309</ele>
        <time>2019-04-14T12:49:54Z</time>
      </trkpt>
      <trkpt lat="44.41427" lon="1.372">
        <ele>309</ele>
        <time>2019-04-14T12:49:55Z</time>
      </trkpt>
      <trkpt lat="44.41426" lon="1.37201">
        <ele>309</ele>
        <time>2019-04-14T12:49:56Z</time>
      </trkpt>
      <trkpt lat="44.41425" lon="1.37202">
        <ele>309</ele>
        <time>2019-04-14T12:49:57Z</time>
      </trkpt>
      <trkpt lat="44.41423" lon="1.37202">
        <ele>309</ele>
        <time>2019-04-14T12:49:58Z</time>
      </trkpt>
      <trkpt lat="44.41421" lon="1.37203">
        <ele>309</ele>
        <time>2019-04-14T12:49:59Z</time>
      </trkpt>
      <trkpt lat="44.41418" lon="1.37204">
        <ele>309</ele>
        <time>2019-04-14T12:50:00Z</time>
      </trkpt>
      <trkpt lat="44.41415" lon="1.37205">
        <ele>309</ele>
        <time>2019-04-14T12:50:01Z</time>
      </trkpt>
      <trkpt lat="44.41412" lon="1.37207">
        <ele>308</ele>
        <time>2019-04-14T12:50:02Z</time>
      </trkpt>
      <trkpt lat="44.4141" lon="1.37208">
        <ele>308</ele>
        <time>2019-04-14T12:50:03Z</time>
      </trkpt>
      <trkpt lat="44.41407" lon="1.37209">
        <ele>308</ele>
        <time>2019-04-14T12:50:04Z</time>
      </trkpt>
      <trkpt lat="44.41405" lon="1.37211">
        <ele>308</ele>
        <time>2019-04-14T12:50:05Z</time>
      </trkpt>
      <trkpt lat="44.41405" lon="1.37214">
        <ele>308</ele>
        <time>2019-04-14T12:50:06Z</time>
      </trkpt>
      <trkpt lat="44.41404" lon="1.37223">
        <ele>308</ele>
        <time>2019-04-14T12:50:07Z</time>
      </trkpt>
      <trkpt lat="44.41404" lon="1.37228">
        <ele>308</ele>
        <time>2019-04-14T12:50:09Z</time>
      </trkpt>
      <trkpt lat="44.41405" lon="1.37239">
        <ele>308</ele>
        <time>2019-04-14T12:50:10Z</time>
      </trkpt>
      <trkpt lat="44.41405" lon="1.37244">
        <ele>308</ele>
        <time>2019-04-14T12:50:11Z</time>
      </trkpt>
      <trkpt lat="44.41405" lon="1.3725">
        <ele>307</ele>
        <time>2019-04-14T12:50:12Z</time>
      </trkpt>
      <trkpt lat="44.41406" lon="1.37255">
        <ele>307</ele>
        <time>2019-04-14T12:50:13Z</time>
      </trkpt>
      <trkpt lat="44.41406" lon="1.37261">
        <ele>307</ele>
        <time>2019-04-14T12:50:14Z</time>
      </trkpt>
      <trkpt lat="44.41406" lon="1.37267">
        <ele>307</ele>
        <time>2019-04-14T12:50:15Z</time>
      </trkpt>
      <trkpt lat="44.41407" lon="1.37273">
        <ele>307</ele>
        <time>2019-04-14T12:50:16Z</time>
      </trkpt>
      <trkpt lat="44.41408" lon="1.3728">
        <ele>307</ele>
        <time>2019-04-14T12:50:17Z</time>
      </trkpt>
      <trkpt lat="44.41409" lon="1.37286">
        <ele>307</ele>
        <time>2019-04-14T12:50:19Z</time>
      </trkpt>
      <trkpt lat="44.41409" lon="1.37293">
        <ele>307</ele>
        <time>2019-04-14T12:50:20Z</time>
      </trkpt>
      <trkpt lat="44.4141" lon="1.373">
        <ele>307</ele>
        <time>2019-04-14T12:50:21Z</time>
      </trkpt>
      <trkpt lat="44.41412" lon="1.37308">
        <ele>306</ele>
        <time>2019-04-14T12:50:22Z</time>
      </trkpt>
      <trkpt lat="44.41413" lon="1.37315">
        <ele>306</ele>
        <time>2019-04-14T12:50:23Z</time>
      </trkpt>
      <trkpt lat="44.41414" lon="1.37323">
        <ele>306</ele>
        <time>2019-04-14T12:50:24Z</time>
      </trkpt>
      <trkpt lat="44.41415" lon="1.37331">
        <ele>306</ele>
        <time>2019-04-14T12:50:25Z</time>
      </trkpt>
      <trkpt lat="44.41417" lon="1.37339">
        <ele>306</ele>
        <time>2019-04-14T12:50:26Z</time>
      </trkpt>
      <trkpt lat="44.41418" lon="1.37348">
        <ele>305</ele>
        <time>2019-04-14T12:50:27Z</time>
      </trkpt>
      <trkpt lat="44.41419" lon="1.37356">
        <ele>305</ele>
        <time>2019-04-14T12:50:28Z</time>
      </trkpt>
      <trkpt lat="44.41421" lon="1.37365">
        <ele>305</ele>
        <time>2019-04-14T12:50:29Z</time>
      </trkpt>
      <trkpt lat="44.41422" lon="1.37374">
        <ele>304</ele>
        <time>2019-04-14T12:50:30Z</time>
      </trkpt>
      <trkpt lat="44.41424" lon="1.37383">
        <ele>304</ele>
        <time>2019-04-14T12:50:31Z</time>
      </trkpt>
      <trkpt lat="44.41425" lon="1.37393">
        <ele>304</ele>
        <time>2019-04-14T12:50:32Z</time>
      </trkpt>
      <trkpt lat="44.41427" lon="1.37403">
        <ele>303</ele>
        <time>2019-04-14T12:50:33Z</time>
      </trkpt>
      <trkpt lat="44.41428" lon="1.37412">
        <ele>303</ele>
        <time>2019-04-14T12:50:34Z</time>
      </trkpt>
      <trkpt lat="44.4143" lon="1.37422">
        <ele>302</ele>
        <time>2019-04-14T12:50:35Z</time>
      </trkpt>
      <trkpt lat="44.41432" lon="1.37433">
        <ele>302</ele>
        <time>2019-04-14T12:50:36Z</time>
      </trkpt>
      <trkpt lat="44.41434" lon="1.37443">
        <ele>301</ele>
        <time>2019-04-14T12:50:37Z</time>
      </trkpt>
      <trkpt lat="44.41435" lon="1.37453">
        <ele>301</ele>
        <time>2019-04-14T12:50:38Z</time>
      </trkpt>
      <trkpt lat="44.41438" lon="1.37464">
        <ele>300</ele>
        <time>2019-04-14T12:50:39Z</time>
      </trkpt>
      <trkpt lat="44.4144" lon="1.37474">
        <ele>300</ele>
        <time>2019-04-14T12:50:40Z</time>
      </trkpt>
      <trkpt lat="44.41443" lon="1.37484">
        <ele>300</ele>
        <time>2019-04-14T12:50:41Z</time>
      </trkpt>
      <trkpt lat="44.41446" lon="1.37503">
        <ele>299</ele>
        <time>2019-04-14T12:50:42Z</time>
      </trkpt>
      <trkpt lat="44.41447" lon="1.37513">
        <ele>299</ele>
        <time>2019-04-14T12:50:43Z</time>
      </trkpt>
      <trkpt lat="44.41449" lon="1.37522">
        <ele>299</ele>
        <time>2019-04-14T12:50:44Z</time>
      </trkpt>
      <trkpt lat="44.41451" lon="1.3753">
        <ele>299</ele>
        <time>2019-04-14T12:50:46Z</time>
      </trkpt>
      <trkpt lat="44.41455" lon="1.37548">
        <ele>298</ele>
        <time>2019-04-14T12:50:47Z</time>
      </trkpt>
      <trkpt lat="44.41457" lon="1.37556">
        <ele>297</ele>
        <time>2019-04-14T12:50:48Z</time>
      </trkpt>
      <trkpt lat="44.4146" lon="1.37565">
        <ele>297</ele>
        <time>2019-04-14T12:50:49Z</time>
      </trkpt>
      <trkpt lat="44.41462" lon="1.37574">
        <ele>297</ele>
        <time>2019-04-14T12:50:51Z</time>
      </trkpt>
      <trkpt lat="44.41463" lon="1.37584">
        <ele>296</ele>
        <time>2019-04-14T12:50:52Z</time>
      </trkpt>
      <trkpt lat="44.41465" lon="1.37593">
        <ele>296</ele>
        <time>2019-04-14T12:50:53Z</time>
      </trkpt>
      <trkpt lat="44.41466" lon="1.37603">
        <ele>295</ele>
        <time>2019-04-14T12:50:54Z</time>
      </trkpt>
      <trkpt lat="44.41467" lon="1.37613">
        <ele>295</ele>
        <time>2019-04-14T12:50:55Z</time>
      </trkpt>
      <trkpt lat="44.41468" lon="1.37623">
        <ele>294</ele>
        <time>2019-04-14T12:50:56Z</time>
      </trkpt>
      <trkpt lat="44.41469" lon="1.37635">
        <ele>293</ele>
        <time>2019-04-14T12:50:57Z</time>
      </trkpt>
      <trkpt lat="44.4147" lon="1.37646">
        <ele>292</ele>
        <time>2019-04-14T12:50:58Z</time>
      </trkpt>
      <trkpt lat="44.41471" lon="1.37659">
        <ele>291</ele>
        <time>2019-04-14T12:50:59Z</time>
      </trkpt>
      <trkpt lat="44.41472" lon="1.37671">
        <ele>291</ele>
        <time>2019-04-14T12:51:00Z</time>
      </trkpt>
      <trkpt lat="44.41473" lon="1.37684">
        <ele>290</ele>
        <time>2019-04-14T12:51:01Z</time>
      </trkpt>
      <trkpt lat="44.41473" lon="1.37696">
        <ele>289</ele>
        <time>2019-04-14T12:51:02Z</time>
      </trkpt>
      <trkpt lat="44.41473" lon="1.37718">
        <ele>289</ele>
        <time>2019-04-14T12:51:03Z</time>
      </trkpt>
      <trkpt lat="44.41472" lon="1.37726">
        <ele>288</ele>
        <time>2019-04-14T12:51:04Z</time>
      </trkpt>
      <trkpt lat="44.41469" lon="1.37731">
        <ele>287</ele>
        <time>2019-04-14T12:51:05Z</time>
      </trkpt>
      <trkpt lat="44.41467" lon="1.37735">
        <ele>287</ele>
        <time>2019-04-14T12:51:06Z</time>
      </trkpt>
      <trkpt lat="44.41466" lon="1.3774">
        <ele>287</ele>
        <time>2019-04-14T12:51:07Z</time>
      </trkpt>
      <trkpt lat="44.41466" lon="1.37746">
        <ele>287</ele>
        <time>2019-04-14T12:51:09Z</time>
      </trkpt>
      <trkpt lat="44.41466" lon="1.37751">
        <ele>287</ele>
        <time>2019-04-14T12:51:10Z</time>
      </trkpt>
      <trkpt lat="44.41465" lon="1.37756">
        <ele>286</ele>
        <time>2019-04-14T12:51:11Z</time>
      </trkpt>
      <trkpt lat="44.41465" lon="1.3776">
        <ele>286</ele>
        <time>2019-04-14T12:51:12Z</time>
      </trkpt>
      <trkpt lat="44.41465" lon="1.37764">
        <ele>286</ele>
        <time>2019-04-14T12:51:13Z</time>
      </trkpt>
      <trkpt lat="44.41464" lon="1.37768">
        <ele>286</ele>
        <time>2019-04-14T12:51:14Z</time>
      </trkpt>
      <trkpt lat="44.41463" lon="1.37773">
        <ele>285</ele>
        <time>2019-04-14T12:51:15Z</time>
      </trkpt>
      <trkpt lat="44.41461" lon="1.37778">
        <ele>285</ele>
        <time>2019-04-14T12:51:16Z</time>
      </trkpt>
      <trkpt lat="44.41458" lon="1.37781">
        <ele>285</ele>
        <time>2019-04-14T12:51:17Z</time>
      </trkpt>
      <trkpt lat="44.41455" lon="1.37783">
        <ele>285</ele>
        <time>2019-04-14T12:51:18Z</time>
      </trkpt>
      <trkpt lat="44.41452" lon="1.37785">
        <ele>285</ele>
        <time>2019-04-14T12:51:19Z</time>
      </trkpt>
      <trkpt lat="44.41449" lon="1.37786">
        <ele>285</ele>
        <time>2019-04-14T12:51:20Z</time>
      </trkpt>
      <trkpt lat="44.41443" lon="1.37788">
        <ele>285</ele>
        <time>2019-04-14T12:51:21Z</time>
      </trkpt>
      <trkpt lat="44.41441" lon="1.37789">
        <ele>285</ele>
        <time>2019-04-14T12:51:22Z</time>
      </trkpt>
      <trkpt lat="44.41438" lon="1.37791">
        <ele>285</ele>
        <time>2019-04-14T12:51:23Z</time>
      </trkpt>
      <trkpt lat="44.41436" lon="1.37792">
        <ele>285</ele>
        <time>2019-04-14T12:51:24Z</time>
      </trkpt>
      <trkpt lat="44.41434" lon="1.37794">
        <ele>285</ele>
        <time>2019-04-14T12:51:25Z</time>
      </trkpt>
      <trkpt lat="44.41432" lon="1.37795">
        <ele>285</ele>
        <time>2019-04-14T12:51:26Z</time>
      </trkpt>
      <trkpt lat="44.4143" lon="1.37795">
        <ele>286</ele>
        <time>2019-04-14T12:51:27Z</time>
      </trkpt>
      <trkpt lat="44.41428" lon="1.37796">
        <ele>286</ele>
        <time>2019-04-14T12:51:29Z</time>
      </trkpt>
      <trkpt lat="44.41426" lon="1.37797">
        <ele>286</ele>
        <time>2019-04-14T12:51:30Z</time>
      </trkpt>
      <trkpt lat="44.41425" lon="1.37798">
        <ele>286</ele>
        <time>2019-04-14T12:51:31Z</time>
      </trkpt>
      <trkpt lat="44.41423" lon="1.37799">
        <ele>286</ele>
        <time>2019-04-14T12:51:32Z</time>
      </trkpt>
      <trkpt lat="44.41421" lon="1.378">
        <ele>286</ele>
        <time>2019-04-14T12:51:33Z</time>
      </trkpt>
      <trkpt lat="44.41419" lon="1.378">
        <ele>286</ele>
        <time>2019-04-14T12:51:34Z</time>
      </trkpt>
      <trkpt lat="44.41417" lon="1.37801">
        <ele>286</ele>
        <time>2019-04-14T12:51:35Z</time>
      </trkpt>
      <trkpt lat="44.41416" lon="1.37802">
        <ele>286</ele>
        <time>2019-04-14T12:51:36Z</time>
      </trkpt>
      <trkpt lat="44.41414" lon="1.37803">
        <ele>286</ele>
        <time>2019-04-14T12:51:37Z</time>
      </trkpt>
      <trkpt lat="44.41412" lon="1.37803">
        <ele>287</ele>
        <time>2019-04-14T12:51:38Z</time>
      </trkpt>
      <trkpt lat="44.41411" lon="1.37803">
        <ele>287</ele>
        <time>2019-04-14T12:51:39Z</time>
      </trkpt>
      <trkpt lat="44.4141" lon="1.37804">
        <ele>287</ele>
        <time>2019-04-14T12:51:40Z</time>
      </trkpt>
      <trkpt lat="44.41409" lon="1.37805">
        <ele>287</ele>
        <time>2019-04-14T12:51:41Z</time>
      </trkpt>
      <trkpt lat="44.41408" lon="1.37806">
        <ele>287</ele>
        <time>2019-04-14T12:51:42Z</time>
      </trkpt>
      <trkpt lat="44.41408" lon="1.37807">
        <ele>287</ele>
        <time>2019-04-14T12:51:43Z</time>
      </trkpt>
      <trkpt lat="44.41408" lon="1.37807">
        <ele>287</ele>
        <time>2019-04-14T12:51:44Z</time>
      </trkpt>
      <trkpt lat="44.41408" lon="1.37807">
        <ele>286</ele>
        <time>2019-04-14T12:51:45Z</time>
      </trkpt>
      <trkpt lat="44.41408" lon="1.37807">
        <ele>286</ele>
        <time>2019-04-14T12:51:46Z</time>
      </trkpt>
      <trkpt lat="44.41408" lon="1.37807">
        <ele>286</ele>
        <time>2019-04-14T12:51:47Z</time>
      </trkpt>
      <trkpt lat="44.41408" lon="1.37807">
        <ele>286</ele>
        <time>2019-04-14T12:51:49Z</time>
      </trkpt>
      <trkpt lat="44.41408" lon="1.37807">
        <ele>286</ele>
        <time>2019-04-14T12:51:50Z</time>
      </trkpt>
    </trkseg>
  </trk>
</gpx>